<?xml version="1.0" encoding="UTF-8" standalone="no" ?>
<gpx xmlns="http://www.topografix.com/GPX/1/1" xmlns:xsi="http://www.w3.org/2001/XMLSchema-instance" xsi:schemaLocation="http://www.topografix.com/GPX/1/1 http://www.topografix.com/GPX/1/1/gpx.xsd" version="1.1" creator="VisuGPX - https://www.visugpx.com">
  <metadata>
    <name>balade tranquille </name>
    <desc><![CDATA[petite balade avec du single au debut un derouillage ensuite avec une fin un peu plus dure mais ensemble tranquille ]]></desc>
  </metadata>
  <trk>
    <name><![CDATA[aller hop 2nd sortie de la semaine ]]></name>
    <trkseg>
      <trkpt lat="47.35748" lon="-1.93972">
        <ele>53</ele>
        <time>2016-04-24T06:55:24Z</time>
      </trkpt>
      <trkpt lat="47.35749" lon="-1.93964">
        <ele>53</ele>
        <time>2016-04-24T06:55:26Z</time>
      </trkpt>
      <trkpt lat="47.35752" lon="-1.93956">
        <ele>56</ele>
        <time>2016-04-24T06:55:28Z</time>
      </trkpt>
      <trkpt lat="47.35757" lon="-1.9396">
        <ele>56</ele>
        <time>2016-04-24T06:55:30Z</time>
      </trkpt>
      <trkpt lat="47.3576" lon="-1.93958">
        <ele>56</ele>
        <time>2016-04-24T06:55:31Z</time>
      </trkpt>
      <trkpt lat="47.35764" lon="-1.93954">
        <ele>56</ele>
        <time>2016-04-24T06:55:32Z</time>
      </trkpt>
      <trkpt lat="47.35768" lon="-1.93952">
        <ele>57</ele>
        <time>2016-04-24T06:55:34Z</time>
      </trkpt>
      <trkpt lat="47.35772" lon="-1.93949">
        <ele>57</ele>
        <time>2016-04-24T06:55:36Z</time>
      </trkpt>
      <trkpt lat="47.35776" lon="-1.93945">
        <ele>57</ele>
        <time>2016-04-24T06:55:38Z</time>
      </trkpt>
      <trkpt lat="47.35782" lon="-1.93944">
        <ele>57</ele>
        <time>2016-04-24T06:55:40Z</time>
      </trkpt>
      <trkpt lat="47.35785" lon="-1.93943">
        <ele>57</ele>
        <time>2016-04-24T06:55:41Z</time>
      </trkpt>
      <trkpt lat="47.35788" lon="-1.93942">
        <ele>57</ele>
        <time>2016-04-24T06:55:42Z</time>
      </trkpt>
      <trkpt lat="47.35791" lon="-1.93941">
        <ele>57</ele>
        <time>2016-04-24T06:55:43Z</time>
      </trkpt>
      <trkpt lat="47.35794" lon="-1.9394">
        <ele>57</ele>
        <time>2016-04-24T06:55:44Z</time>
      </trkpt>
      <trkpt lat="47.35797" lon="-1.93939">
        <ele>57</ele>
        <time>2016-04-24T06:55:45Z</time>
      </trkpt>
      <trkpt lat="47.35799" lon="-1.93938">
        <ele>57</ele>
        <time>2016-04-24T06:55:46Z</time>
      </trkpt>
      <trkpt lat="47.35802" lon="-1.93936">
        <ele>57</ele>
        <time>2016-04-24T06:55:47Z</time>
      </trkpt>
      <trkpt lat="47.35804" lon="-1.93935">
        <ele>57</ele>
        <time>2016-04-24T06:55:48Z</time>
      </trkpt>
      <trkpt lat="47.35807" lon="-1.93933">
        <ele>57</ele>
        <time>2016-04-24T06:55:49Z</time>
      </trkpt>
      <trkpt lat="47.3581" lon="-1.93931">
        <ele>58</ele>
        <time>2016-04-24T06:55:50Z</time>
      </trkpt>
      <trkpt lat="47.35812" lon="-1.9393">
        <ele>58</ele>
        <time>2016-04-24T06:55:51Z</time>
      </trkpt>
      <trkpt lat="47.35816" lon="-1.93929">
        <ele>58</ele>
        <time>2016-04-24T06:55:52Z</time>
      </trkpt>
      <trkpt lat="47.35819" lon="-1.93928">
        <ele>58</ele>
        <time>2016-04-24T06:55:53Z</time>
      </trkpt>
      <trkpt lat="47.35821" lon="-1.93927">
        <ele>58</ele>
        <time>2016-04-24T06:55:54Z</time>
      </trkpt>
      <trkpt lat="47.35824" lon="-1.93926">
        <ele>58</ele>
        <time>2016-04-24T06:55:55Z</time>
      </trkpt>
      <trkpt lat="47.35827" lon="-1.93925">
        <ele>58</ele>
        <time>2016-04-24T06:55:56Z</time>
      </trkpt>
      <trkpt lat="47.3583" lon="-1.93924">
        <ele>58</ele>
        <time>2016-04-24T06:55:57Z</time>
      </trkpt>
      <trkpt lat="47.35833" lon="-1.93923">
        <ele>59</ele>
        <time>2016-04-24T06:55:58Z</time>
      </trkpt>
      <trkpt lat="47.35836" lon="-1.93922">
        <ele>59</ele>
        <time>2016-04-24T06:55:59Z</time>
      </trkpt>
      <trkpt lat="47.35839" lon="-1.9392">
        <ele>59</ele>
        <time>2016-04-24T06:56:00Z</time>
      </trkpt>
      <trkpt lat="47.35843" lon="-1.93915">
        <ele>59</ele>
        <time>2016-04-24T06:56:02Z</time>
      </trkpt>
      <trkpt lat="47.35844" lon="-1.93911">
        <ele>59</ele>
        <time>2016-04-24T06:56:03Z</time>
      </trkpt>
      <trkpt lat="47.35843" lon="-1.93907">
        <ele>59</ele>
        <time>2016-04-24T06:56:04Z</time>
      </trkpt>
      <trkpt lat="47.35842" lon="-1.93902">
        <ele>59</ele>
        <time>2016-04-24T06:56:05Z</time>
      </trkpt>
      <trkpt lat="47.35841" lon="-1.93897">
        <ele>59</ele>
        <time>2016-04-24T06:56:06Z</time>
      </trkpt>
      <trkpt lat="47.3584" lon="-1.93893">
        <ele>59</ele>
        <time>2016-04-24T06:56:07Z</time>
      </trkpt>
      <trkpt lat="47.35839" lon="-1.93889">
        <ele>59</ele>
        <time>2016-04-24T06:56:08Z</time>
      </trkpt>
      <trkpt lat="47.35838" lon="-1.93884">
        <ele>59</ele>
        <time>2016-04-24T06:56:09Z</time>
      </trkpt>
      <trkpt lat="47.35836" lon="-1.93879">
        <ele>59</ele>
        <time>2016-04-24T06:56:10Z</time>
      </trkpt>
      <trkpt lat="47.35836" lon="-1.93875">
        <ele>59</ele>
        <time>2016-04-24T06:56:11Z</time>
      </trkpt>
      <trkpt lat="47.35834" lon="-1.9387">
        <ele>59</ele>
        <time>2016-04-24T06:56:12Z</time>
      </trkpt>
      <trkpt lat="47.35833" lon="-1.93865">
        <ele>59</ele>
        <time>2016-04-24T06:56:13Z</time>
      </trkpt>
      <trkpt lat="47.35832" lon="-1.93859">
        <ele>59</ele>
        <time>2016-04-24T06:56:14Z</time>
      </trkpt>
      <trkpt lat="47.35831" lon="-1.93854">
        <ele>59</ele>
        <time>2016-04-24T06:56:15Z</time>
      </trkpt>
      <trkpt lat="47.35831" lon="-1.93849">
        <ele>59</ele>
        <time>2016-04-24T06:56:16Z</time>
      </trkpt>
      <trkpt lat="47.3583" lon="-1.93843">
        <ele>59</ele>
        <time>2016-04-24T06:56:17Z</time>
      </trkpt>
      <trkpt lat="47.35829" lon="-1.93838">
        <ele>59</ele>
        <time>2016-04-24T06:56:18Z</time>
      </trkpt>
      <trkpt lat="47.35829" lon="-1.93832">
        <ele>59</ele>
        <time>2016-04-24T06:56:19Z</time>
      </trkpt>
      <trkpt lat="47.35828" lon="-1.93826">
        <ele>59</ele>
        <time>2016-04-24T06:56:20Z</time>
      </trkpt>
      <trkpt lat="47.35827" lon="-1.93821">
        <ele>59</ele>
        <time>2016-04-24T06:56:21Z</time>
      </trkpt>
      <trkpt lat="47.35826" lon="-1.93815">
        <ele>59</ele>
        <time>2016-04-24T06:56:22Z</time>
      </trkpt>
      <trkpt lat="47.35825" lon="-1.9381">
        <ele>59</ele>
        <time>2016-04-24T06:56:23Z</time>
      </trkpt>
      <trkpt lat="47.35824" lon="-1.93804">
        <ele>59</ele>
        <time>2016-04-24T06:56:24Z</time>
      </trkpt>
      <trkpt lat="47.35824" lon="-1.93798">
        <ele>59</ele>
        <time>2016-04-24T06:56:25Z</time>
      </trkpt>
      <trkpt lat="47.35823" lon="-1.93793">
        <ele>59</ele>
        <time>2016-04-24T06:56:26Z</time>
      </trkpt>
      <trkpt lat="47.35822" lon="-1.93788">
        <ele>59</ele>
        <time>2016-04-24T06:56:27Z</time>
      </trkpt>
      <trkpt lat="47.3582" lon="-1.93782">
        <ele>59</ele>
        <time>2016-04-24T06:56:28Z</time>
      </trkpt>
      <trkpt lat="47.35818" lon="-1.93772">
        <ele>59</ele>
        <time>2016-04-24T06:56:30Z</time>
      </trkpt>
      <trkpt lat="47.35817" lon="-1.93766">
        <ele>59</ele>
        <time>2016-04-24T06:56:31Z</time>
      </trkpt>
      <trkpt lat="47.35816" lon="-1.93761">
        <ele>59</ele>
        <time>2016-04-24T06:56:32Z</time>
      </trkpt>
      <trkpt lat="47.35816" lon="-1.93756">
        <ele>59</ele>
        <time>2016-04-24T06:56:33Z</time>
      </trkpt>
      <trkpt lat="47.35815" lon="-1.93751">
        <ele>59</ele>
        <time>2016-04-24T06:56:34Z</time>
      </trkpt>
      <trkpt lat="47.35815" lon="-1.93746">
        <ele>60</ele>
        <time>2016-04-24T06:56:35Z</time>
      </trkpt>
      <trkpt lat="47.35815" lon="-1.9374">
        <ele>60</ele>
        <time>2016-04-24T06:56:36Z</time>
      </trkpt>
      <trkpt lat="47.35815" lon="-1.93735">
        <ele>60</ele>
        <time>2016-04-24T06:56:37Z</time>
      </trkpt>
      <trkpt lat="47.35816" lon="-1.9373">
        <ele>60</ele>
        <time>2016-04-24T06:56:38Z</time>
      </trkpt>
      <trkpt lat="47.35816" lon="-1.93724">
        <ele>60</ele>
        <time>2016-04-24T06:56:39Z</time>
      </trkpt>
      <trkpt lat="47.35816" lon="-1.93719">
        <ele>60</ele>
        <time>2016-04-24T06:56:40Z</time>
      </trkpt>
      <trkpt lat="47.35815" lon="-1.93715">
        <ele>60</ele>
        <time>2016-04-24T06:56:41Z</time>
      </trkpt>
      <trkpt lat="47.35815" lon="-1.93709">
        <ele>60</ele>
        <time>2016-04-24T06:56:43Z</time>
      </trkpt>
      <trkpt lat="47.35817" lon="-1.93706">
        <ele>59</ele>
        <time>2016-04-24T06:56:46Z</time>
      </trkpt>
      <trkpt lat="47.3582" lon="-1.93706">
        <ele>59</ele>
        <time>2016-04-24T06:56:49Z</time>
      </trkpt>
      <trkpt lat="47.35818" lon="-1.93703">
        <ele>59</ele>
        <time>2016-04-24T06:57:14Z</time>
      </trkpt>
      <trkpt lat="47.35821" lon="-1.937">
        <ele>59</ele>
        <time>2016-04-24T06:57:20Z</time>
      </trkpt>
      <trkpt lat="47.35824" lon="-1.93697">
        <ele>59</ele>
        <time>2016-04-24T06:57:22Z</time>
      </trkpt>
      <trkpt lat="47.35827" lon="-1.93695">
        <ele>59</ele>
        <time>2016-04-24T06:57:25Z</time>
      </trkpt>
      <trkpt lat="47.3583" lon="-1.93692">
        <ele>59</ele>
        <time>2016-04-24T06:57:29Z</time>
      </trkpt>
      <trkpt lat="47.35833" lon="-1.93687">
        <ele>59</ele>
        <time>2016-04-24T06:57:33Z</time>
      </trkpt>
      <trkpt lat="47.35834" lon="-1.93684">
        <ele>58</ele>
        <time>2016-04-24T06:57:35Z</time>
      </trkpt>
      <trkpt lat="47.3583" lon="-1.93677">
        <ele>59</ele>
        <time>2016-04-24T06:57:38Z</time>
      </trkpt>
      <trkpt lat="47.35828" lon="-1.93674">
        <ele>59</ele>
        <time>2016-04-24T06:57:40Z</time>
      </trkpt>
      <trkpt lat="47.35824" lon="-1.93675">
        <ele>59</ele>
        <time>2016-04-24T06:57:43Z</time>
      </trkpt>
      <trkpt lat="47.35821" lon="-1.93679">
        <ele>59</ele>
        <time>2016-04-24T06:57:48Z</time>
      </trkpt>
      <trkpt lat="47.35819" lon="-1.93684">
        <ele>59</ele>
        <time>2016-04-24T06:57:50Z</time>
      </trkpt>
      <trkpt lat="47.35818" lon="-1.93689">
        <ele>59</ele>
        <time>2016-04-24T06:57:52Z</time>
      </trkpt>
      <trkpt lat="47.35817" lon="-1.93694">
        <ele>59</ele>
        <time>2016-04-24T06:57:54Z</time>
      </trkpt>
      <trkpt lat="47.35816" lon="-1.93698">
        <ele>59</ele>
        <time>2016-04-24T06:57:56Z</time>
      </trkpt>
      <trkpt lat="47.35818" lon="-1.93703">
        <ele>59</ele>
        <time>2016-04-24T06:57:58Z</time>
      </trkpt>
      <trkpt lat="47.35831" lon="-1.93695">
        <ele>59</ele>
        <time>2016-04-24T06:58:00Z</time>
      </trkpt>
      <trkpt lat="47.35824" lon="-1.93704">
        <ele>59</ele>
        <time>2016-04-24T06:58:01Z</time>
      </trkpt>
      <trkpt lat="47.35821" lon="-1.93706">
        <ele>59</ele>
        <time>2016-04-24T06:58:02Z</time>
      </trkpt>
      <trkpt lat="47.35818" lon="-1.93706">
        <ele>59</ele>
        <time>2016-04-24T06:58:04Z</time>
      </trkpt>
      <trkpt lat="47.35822" lon="-1.93702">
        <ele>59</ele>
        <time>2016-04-24T06:58:10Z</time>
      </trkpt>
      <trkpt lat="47.35824" lon="-1.93697">
        <ele>59</ele>
        <time>2016-04-24T06:58:14Z</time>
      </trkpt>
      <trkpt lat="47.35826" lon="-1.93692">
        <ele>59</ele>
        <time>2016-04-24T06:58:16Z</time>
      </trkpt>
      <trkpt lat="47.35827" lon="-1.93691">
        <ele>59</ele>
        <time>2016-04-24T06:58:52Z</time>
      </trkpt>
      <trkpt lat="47.3583" lon="-1.93696">
        <ele>59</ele>
        <time>2016-04-24T06:58:55Z</time>
      </trkpt>
      <trkpt lat="47.35832" lon="-1.93704">
        <ele>59</ele>
        <time>2016-04-24T06:58:59Z</time>
      </trkpt>
      <trkpt lat="47.35832" lon="-1.93709">
        <ele>60</ele>
        <time>2016-04-24T06:59:01Z</time>
      </trkpt>
      <trkpt lat="47.35831" lon="-1.93713">
        <ele>60</ele>
        <time>2016-04-24T06:59:05Z</time>
      </trkpt>
      <trkpt lat="47.35828" lon="-1.93712">
        <ele>60</ele>
        <time>2016-04-24T06:59:07Z</time>
      </trkpt>
      <trkpt lat="47.35825" lon="-1.93712">
        <ele>60</ele>
        <time>2016-04-24T06:59:09Z</time>
      </trkpt>
      <trkpt lat="47.35822" lon="-1.93711">
        <ele>60</ele>
        <time>2016-04-24T06:59:11Z</time>
      </trkpt>
      <trkpt lat="47.35819" lon="-1.9371">
        <ele>60</ele>
        <time>2016-04-24T06:59:15Z</time>
      </trkpt>
      <trkpt lat="47.35813" lon="-1.93706">
        <ele>59</ele>
        <time>2016-04-24T07:01:38Z</time>
      </trkpt>
      <trkpt lat="47.35812" lon="-1.93702">
        <ele>59</ele>
        <time>2016-04-24T07:01:55Z</time>
      </trkpt>
      <trkpt lat="47.3581" lon="-1.93698">
        <ele>59</ele>
        <time>2016-04-24T07:02:17Z</time>
      </trkpt>
      <trkpt lat="47.3581" lon="-1.93691">
        <ele>59</ele>
        <time>2016-04-24T07:02:19Z</time>
      </trkpt>
      <trkpt lat="47.35809" lon="-1.93684">
        <ele>59</ele>
        <time>2016-04-24T07:02:21Z</time>
      </trkpt>
      <trkpt lat="47.35808" lon="-1.93676">
        <ele>59</ele>
        <time>2016-04-24T07:02:23Z</time>
      </trkpt>
      <trkpt lat="47.35808" lon="-1.93672">
        <ele>59</ele>
        <time>2016-04-24T07:02:24Z</time>
      </trkpt>
      <trkpt lat="47.3581" lon="-1.93668">
        <ele>59</ele>
        <time>2016-04-24T07:02:25Z</time>
      </trkpt>
      <trkpt lat="47.35813" lon="-1.93665">
        <ele>59</ele>
        <time>2016-04-24T07:02:26Z</time>
      </trkpt>
      <trkpt lat="47.35818" lon="-1.93662">
        <ele>59</ele>
        <time>2016-04-24T07:02:27Z</time>
      </trkpt>
      <trkpt lat="47.35823" lon="-1.9366">
        <ele>59</ele>
        <time>2016-04-24T07:02:28Z</time>
      </trkpt>
      <trkpt lat="47.35832" lon="-1.93659">
        <ele>59</ele>
        <time>2016-04-24T07:02:29Z</time>
      </trkpt>
      <trkpt lat="47.35837" lon="-1.93658">
        <ele>58</ele>
        <time>2016-04-24T07:02:30Z</time>
      </trkpt>
      <trkpt lat="47.35842" lon="-1.93657">
        <ele>58</ele>
        <time>2016-04-24T07:02:31Z</time>
      </trkpt>
      <trkpt lat="47.35847" lon="-1.93655">
        <ele>58</ele>
        <time>2016-04-24T07:02:32Z</time>
      </trkpt>
      <trkpt lat="47.35851" lon="-1.93653">
        <ele>58</ele>
        <time>2016-04-24T07:02:33Z</time>
      </trkpt>
      <trkpt lat="47.35858" lon="-1.93653">
        <ele>57</ele>
        <time>2016-04-24T07:02:34Z</time>
      </trkpt>
      <trkpt lat="47.35864" lon="-1.93652">
        <ele>57</ele>
        <time>2016-04-24T07:02:35Z</time>
      </trkpt>
      <trkpt lat="47.35871" lon="-1.9365">
        <ele>57</ele>
        <time>2016-04-24T07:02:36Z</time>
      </trkpt>
      <trkpt lat="47.35875" lon="-1.93647">
        <ele>57</ele>
        <time>2016-04-24T07:02:37Z</time>
      </trkpt>
      <trkpt lat="47.3588" lon="-1.93646">
        <ele>57</ele>
        <time>2016-04-24T07:02:38Z</time>
      </trkpt>
      <trkpt lat="47.35889" lon="-1.93651">
        <ele>56</ele>
        <time>2016-04-24T07:02:39Z</time>
      </trkpt>
      <trkpt lat="47.35893" lon="-1.93655">
        <ele>56</ele>
        <time>2016-04-24T07:02:40Z</time>
      </trkpt>
      <trkpt lat="47.35899" lon="-1.93658">
        <ele>56</ele>
        <time>2016-04-24T07:02:41Z</time>
      </trkpt>
      <trkpt lat="47.35904" lon="-1.93656">
        <ele>56</ele>
        <time>2016-04-24T07:02:42Z</time>
      </trkpt>
      <trkpt lat="47.35909" lon="-1.93653">
        <ele>56</ele>
        <time>2016-04-24T07:02:43Z</time>
      </trkpt>
      <trkpt lat="47.35919" lon="-1.9365">
        <ele>55</ele>
        <time>2016-04-24T07:02:45Z</time>
      </trkpt>
      <trkpt lat="47.35924" lon="-1.9365">
        <ele>55</ele>
        <time>2016-04-24T07:02:46Z</time>
      </trkpt>
      <trkpt lat="47.35928" lon="-1.93648">
        <ele>54</ele>
        <time>2016-04-24T07:02:47Z</time>
      </trkpt>
      <trkpt lat="47.35935" lon="-1.93649">
        <ele>54</ele>
        <time>2016-04-24T07:02:48Z</time>
      </trkpt>
      <trkpt lat="47.35939" lon="-1.93647">
        <ele>54</ele>
        <time>2016-04-24T07:02:49Z</time>
      </trkpt>
      <trkpt lat="47.35946" lon="-1.93647">
        <ele>54</ele>
        <time>2016-04-24T07:02:50Z</time>
      </trkpt>
      <trkpt lat="47.35953" lon="-1.93646">
        <ele>54</ele>
        <time>2016-04-24T07:02:51Z</time>
      </trkpt>
      <trkpt lat="47.3596" lon="-1.93645">
        <ele>54</ele>
        <time>2016-04-24T07:02:52Z</time>
      </trkpt>
      <trkpt lat="47.35965" lon="-1.93646">
        <ele>54</ele>
        <time>2016-04-24T07:02:53Z</time>
      </trkpt>
      <trkpt lat="47.35971" lon="-1.93647">
        <ele>54</ele>
        <time>2016-04-24T07:02:54Z</time>
      </trkpt>
      <trkpt lat="47.35979" lon="-1.93648">
        <ele>54</ele>
        <time>2016-04-24T07:02:55Z</time>
      </trkpt>
      <trkpt lat="47.35987" lon="-1.93647">
        <ele>54</ele>
        <time>2016-04-24T07:02:56Z</time>
      </trkpt>
      <trkpt lat="47.35987" lon="-1.93643">
        <ele>54</ele>
        <time>2016-04-24T07:02:57Z</time>
      </trkpt>
      <trkpt lat="47.35994" lon="-1.93646">
        <ele>54</ele>
        <time>2016-04-24T07:02:58Z</time>
      </trkpt>
      <trkpt lat="47.35998" lon="-1.93644">
        <ele>54</ele>
        <time>2016-04-24T07:03:00Z</time>
      </trkpt>
      <trkpt lat="47.36001" lon="-1.93641">
        <ele>54</ele>
        <time>2016-04-24T07:03:01Z</time>
      </trkpt>
      <trkpt lat="47.36004" lon="-1.93637">
        <ele>54</ele>
        <time>2016-04-24T07:03:02Z</time>
      </trkpt>
      <trkpt lat="47.36005" lon="-1.93631">
        <ele>54</ele>
        <time>2016-04-24T07:03:03Z</time>
      </trkpt>
      <trkpt lat="47.36007" lon="-1.93625">
        <ele>54</ele>
        <time>2016-04-24T07:03:04Z</time>
      </trkpt>
      <trkpt lat="47.36007" lon="-1.93618">
        <ele>54</ele>
        <time>2016-04-24T07:03:05Z</time>
      </trkpt>
      <trkpt lat="47.36007" lon="-1.93611">
        <ele>54</ele>
        <time>2016-04-24T07:03:06Z</time>
      </trkpt>
      <trkpt lat="47.36007" lon="-1.93604">
        <ele>53</ele>
        <time>2016-04-24T07:03:07Z</time>
      </trkpt>
      <trkpt lat="47.36007" lon="-1.93597">
        <ele>53</ele>
        <time>2016-04-24T07:03:08Z</time>
      </trkpt>
      <trkpt lat="47.36007" lon="-1.9359">
        <ele>53</ele>
        <time>2016-04-24T07:03:09Z</time>
      </trkpt>
      <trkpt lat="47.36007" lon="-1.93582">
        <ele>52</ele>
        <time>2016-04-24T07:03:10Z</time>
      </trkpt>
      <trkpt lat="47.36008" lon="-1.93574">
        <ele>53</ele>
        <time>2016-04-24T07:03:11Z</time>
      </trkpt>
      <trkpt lat="47.36008" lon="-1.93566">
        <ele>53</ele>
        <time>2016-04-24T07:03:12Z</time>
      </trkpt>
      <trkpt lat="47.36007" lon="-1.9356">
        <ele>53</ele>
        <time>2016-04-24T07:03:13Z</time>
      </trkpt>
      <trkpt lat="47.36006" lon="-1.93555">
        <ele>53</ele>
        <time>2016-04-24T07:03:14Z</time>
      </trkpt>
      <trkpt lat="47.36007" lon="-1.93546">
        <ele>53</ele>
        <time>2016-04-24T07:03:15Z</time>
      </trkpt>
      <trkpt lat="47.36008" lon="-1.93529">
        <ele>53</ele>
        <time>2016-04-24T07:03:17Z</time>
      </trkpt>
      <trkpt lat="47.36007" lon="-1.93521">
        <ele>53</ele>
        <time>2016-04-24T07:03:18Z</time>
      </trkpt>
      <trkpt lat="47.36004" lon="-1.93508">
        <ele>52</ele>
        <time>2016-04-24T07:03:19Z</time>
      </trkpt>
      <trkpt lat="47.36009" lon="-1.93509">
        <ele>53</ele>
        <time>2016-04-24T07:03:20Z</time>
      </trkpt>
      <trkpt lat="47.36016" lon="-1.93506">
        <ele>53</ele>
        <time>2016-04-24T07:03:22Z</time>
      </trkpt>
      <trkpt lat="47.3602" lon="-1.93505">
        <ele>53</ele>
        <time>2016-04-24T07:03:23Z</time>
      </trkpt>
      <trkpt lat="47.36027" lon="-1.93504">
        <ele>53</ele>
        <time>2016-04-24T07:03:25Z</time>
      </trkpt>
      <trkpt lat="47.3603" lon="-1.93503">
        <ele>53</ele>
        <time>2016-04-24T07:03:26Z</time>
      </trkpt>
      <trkpt lat="47.36035" lon="-1.93504">
        <ele>53</ele>
        <time>2016-04-24T07:03:27Z</time>
      </trkpt>
      <trkpt lat="47.36039" lon="-1.93503">
        <ele>53</ele>
        <time>2016-04-24T07:03:28Z</time>
      </trkpt>
      <trkpt lat="47.36043" lon="-1.93503">
        <ele>54</ele>
        <time>2016-04-24T07:03:29Z</time>
      </trkpt>
      <trkpt lat="47.36047" lon="-1.93502">
        <ele>54</ele>
        <time>2016-04-24T07:03:30Z</time>
      </trkpt>
      <trkpt lat="47.3605" lon="-1.93502">
        <ele>54</ele>
        <time>2016-04-24T07:03:31Z</time>
      </trkpt>
      <trkpt lat="47.36054" lon="-1.93501">
        <ele>54</ele>
        <time>2016-04-24T07:03:32Z</time>
      </trkpt>
      <trkpt lat="47.36057" lon="-1.93501">
        <ele>54</ele>
        <time>2016-04-24T07:03:33Z</time>
      </trkpt>
      <trkpt lat="47.3606" lon="-1.935">
        <ele>54</ele>
        <time>2016-04-24T07:03:34Z</time>
      </trkpt>
      <trkpt lat="47.36063" lon="-1.935">
        <ele>54</ele>
        <time>2016-04-24T07:03:35Z</time>
      </trkpt>
      <trkpt lat="47.36067" lon="-1.93499">
        <ele>54</ele>
        <time>2016-04-24T07:03:37Z</time>
      </trkpt>
      <trkpt lat="47.3607" lon="-1.93498">
        <ele>54</ele>
        <time>2016-04-24T07:03:38Z</time>
      </trkpt>
      <trkpt lat="47.36073" lon="-1.93498">
        <ele>54</ele>
        <time>2016-04-24T07:03:39Z</time>
      </trkpt>
      <trkpt lat="47.36076" lon="-1.93497">
        <ele>54</ele>
        <time>2016-04-24T07:03:40Z</time>
      </trkpt>
      <trkpt lat="47.36079" lon="-1.93496">
        <ele>55</ele>
        <time>2016-04-24T07:03:41Z</time>
      </trkpt>
      <trkpt lat="47.36083" lon="-1.93496">
        <ele>55</ele>
        <time>2016-04-24T07:03:42Z</time>
      </trkpt>
      <trkpt lat="47.36087" lon="-1.93495">
        <ele>55</ele>
        <time>2016-04-24T07:03:43Z</time>
      </trkpt>
      <trkpt lat="47.3609" lon="-1.93495">
        <ele>55</ele>
        <time>2016-04-24T07:03:44Z</time>
      </trkpt>
      <trkpt lat="47.36094" lon="-1.93495">
        <ele>55</ele>
        <time>2016-04-24T07:03:45Z</time>
      </trkpt>
      <trkpt lat="47.36097" lon="-1.93494">
        <ele>55</ele>
        <time>2016-04-24T07:03:46Z</time>
      </trkpt>
      <trkpt lat="47.361" lon="-1.93494">
        <ele>55</ele>
        <time>2016-04-24T07:03:47Z</time>
      </trkpt>
      <trkpt lat="47.36105" lon="-1.93495">
        <ele>55</ele>
        <time>2016-04-24T07:03:49Z</time>
      </trkpt>
      <trkpt lat="47.36111" lon="-1.93496">
        <ele>55</ele>
        <time>2016-04-24T07:03:51Z</time>
      </trkpt>
      <trkpt lat="47.36114" lon="-1.93495">
        <ele>55</ele>
        <time>2016-04-24T07:03:52Z</time>
      </trkpt>
      <trkpt lat="47.36117" lon="-1.93493">
        <ele>56</ele>
        <time>2016-04-24T07:03:53Z</time>
      </trkpt>
      <trkpt lat="47.36121" lon="-1.9349">
        <ele>56</ele>
        <time>2016-04-24T07:03:54Z</time>
      </trkpt>
      <trkpt lat="47.36124" lon="-1.93486">
        <ele>56</ele>
        <time>2016-04-24T07:03:55Z</time>
      </trkpt>
      <trkpt lat="47.36127" lon="-1.9348">
        <ele>56</ele>
        <time>2016-04-24T07:03:56Z</time>
      </trkpt>
      <trkpt lat="47.36129" lon="-1.93474">
        <ele>56</ele>
        <time>2016-04-24T07:03:57Z</time>
      </trkpt>
      <trkpt lat="47.3613" lon="-1.93468">
        <ele>56</ele>
        <time>2016-04-24T07:03:58Z</time>
      </trkpt>
      <trkpt lat="47.36133" lon="-1.93462">
        <ele>56</ele>
        <time>2016-04-24T07:03:59Z</time>
      </trkpt>
      <trkpt lat="47.36137" lon="-1.93459">
        <ele>56</ele>
        <time>2016-04-24T07:04:00Z</time>
      </trkpt>
      <trkpt lat="47.36141" lon="-1.93456">
        <ele>56</ele>
        <time>2016-04-24T07:04:01Z</time>
      </trkpt>
      <trkpt lat="47.36145" lon="-1.93452">
        <ele>56</ele>
        <time>2016-04-24T07:04:02Z</time>
      </trkpt>
      <trkpt lat="47.36148" lon="-1.93448">
        <ele>56</ele>
        <time>2016-04-24T07:04:03Z</time>
      </trkpt>
      <trkpt lat="47.36151" lon="-1.93443">
        <ele>56</ele>
        <time>2016-04-24T07:04:04Z</time>
      </trkpt>
      <trkpt lat="47.36155" lon="-1.93432">
        <ele>56</ele>
        <time>2016-04-24T07:04:05Z</time>
      </trkpt>
      <trkpt lat="47.36156" lon="-1.93426">
        <ele>56</ele>
        <time>2016-04-24T07:04:06Z</time>
      </trkpt>
      <trkpt lat="47.36158" lon="-1.93419">
        <ele>56</ele>
        <time>2016-04-24T07:04:07Z</time>
      </trkpt>
      <trkpt lat="47.36159" lon="-1.93413">
        <ele>55</ele>
        <time>2016-04-24T07:04:08Z</time>
      </trkpt>
      <trkpt lat="47.3616" lon="-1.93406">
        <ele>55</ele>
        <time>2016-04-24T07:04:09Z</time>
      </trkpt>
      <trkpt lat="47.36162" lon="-1.93398">
        <ele>55</ele>
        <time>2016-04-24T07:04:10Z</time>
      </trkpt>
      <trkpt lat="47.36163" lon="-1.93392">
        <ele>55</ele>
        <time>2016-04-24T07:04:11Z</time>
      </trkpt>
      <trkpt lat="47.36165" lon="-1.93384">
        <ele>55</ele>
        <time>2016-04-24T07:04:12Z</time>
      </trkpt>
      <trkpt lat="47.36167" lon="-1.93375">
        <ele>57</ele>
        <time>2016-04-24T07:04:13Z</time>
      </trkpt>
      <trkpt lat="47.36168" lon="-1.93369">
        <ele>56</ele>
        <time>2016-04-24T07:04:14Z</time>
      </trkpt>
      <trkpt lat="47.36171" lon="-1.93362">
        <ele>56</ele>
        <time>2016-04-24T07:04:15Z</time>
      </trkpt>
      <trkpt lat="47.36173" lon="-1.93355">
        <ele>56</ele>
        <time>2016-04-24T07:04:16Z</time>
      </trkpt>
      <trkpt lat="47.36176" lon="-1.93349">
        <ele>56</ele>
        <time>2016-04-24T07:04:17Z</time>
      </trkpt>
      <trkpt lat="47.36177" lon="-1.93342">
        <ele>55</ele>
        <time>2016-04-24T07:04:18Z</time>
      </trkpt>
      <trkpt lat="47.36179" lon="-1.93335">
        <ele>55</ele>
        <time>2016-04-24T07:04:19Z</time>
      </trkpt>
      <trkpt lat="47.3618" lon="-1.93328">
        <ele>55</ele>
        <time>2016-04-24T07:04:20Z</time>
      </trkpt>
      <trkpt lat="47.36182" lon="-1.93321">
        <ele>55</ele>
        <time>2016-04-24T07:04:21Z</time>
      </trkpt>
      <trkpt lat="47.36182" lon="-1.93313">
        <ele>55</ele>
        <time>2016-04-24T07:04:22Z</time>
      </trkpt>
      <trkpt lat="47.36183" lon="-1.93307">
        <ele>55</ele>
        <time>2016-04-24T07:04:23Z</time>
      </trkpt>
      <trkpt lat="47.36186" lon="-1.933">
        <ele>56</ele>
        <time>2016-04-24T07:04:24Z</time>
      </trkpt>
      <trkpt lat="47.36186" lon="-1.93294">
        <ele>56</ele>
        <time>2016-04-24T07:04:25Z</time>
      </trkpt>
      <trkpt lat="47.36188" lon="-1.93287">
        <ele>56</ele>
        <time>2016-04-24T07:04:26Z</time>
      </trkpt>
      <trkpt lat="47.36189" lon="-1.93281">
        <ele>56</ele>
        <time>2016-04-24T07:04:27Z</time>
      </trkpt>
      <trkpt lat="47.36191" lon="-1.9327">
        <ele>55</ele>
        <time>2016-04-24T07:04:28Z</time>
      </trkpt>
      <trkpt lat="47.36193" lon="-1.93261">
        <ele>55</ele>
        <time>2016-04-24T07:04:29Z</time>
      </trkpt>
      <trkpt lat="47.36196" lon="-1.93255">
        <ele>55</ele>
        <time>2016-04-24T07:04:30Z</time>
      </trkpt>
      <trkpt lat="47.36196" lon="-1.93247">
        <ele>55</ele>
        <time>2016-04-24T07:04:31Z</time>
      </trkpt>
      <trkpt lat="47.36198" lon="-1.93238">
        <ele>55</ele>
        <time>2016-04-24T07:04:32Z</time>
      </trkpt>
      <trkpt lat="47.36201" lon="-1.93229">
        <ele>55</ele>
        <time>2016-04-24T07:04:33Z</time>
      </trkpt>
      <trkpt lat="47.36204" lon="-1.93219">
        <ele>55</ele>
        <time>2016-04-24T07:04:34Z</time>
      </trkpt>
      <trkpt lat="47.36205" lon="-1.93211">
        <ele>55</ele>
        <time>2016-04-24T07:04:35Z</time>
      </trkpt>
      <trkpt lat="47.36209" lon="-1.93203">
        <ele>55</ele>
        <time>2016-04-24T07:04:36Z</time>
      </trkpt>
      <trkpt lat="47.3621" lon="-1.93194">
        <ele>55</ele>
        <time>2016-04-24T07:04:37Z</time>
      </trkpt>
      <trkpt lat="47.36211" lon="-1.93186">
        <ele>55</ele>
        <time>2016-04-24T07:04:38Z</time>
      </trkpt>
      <trkpt lat="47.3621" lon="-1.93174">
        <ele>55</ele>
        <time>2016-04-24T07:04:39Z</time>
      </trkpt>
      <trkpt lat="47.36208" lon="-1.93166">
        <ele>56</ele>
        <time>2016-04-24T07:04:40Z</time>
      </trkpt>
      <trkpt lat="47.36206" lon="-1.93159">
        <ele>56</ele>
        <time>2016-04-24T07:04:41Z</time>
      </trkpt>
      <trkpt lat="47.36204" lon="-1.9315">
        <ele>56</ele>
        <time>2016-04-24T07:04:42Z</time>
      </trkpt>
      <trkpt lat="47.36203" lon="-1.93144">
        <ele>56</ele>
        <time>2016-04-24T07:04:43Z</time>
      </trkpt>
      <trkpt lat="47.36202" lon="-1.93136">
        <ele>56</ele>
        <time>2016-04-24T07:04:44Z</time>
      </trkpt>
      <trkpt lat="47.36202" lon="-1.9313">
        <ele>56</ele>
        <time>2016-04-24T07:04:45Z</time>
      </trkpt>
      <trkpt lat="47.36201" lon="-1.93122">
        <ele>56</ele>
        <time>2016-04-24T07:04:46Z</time>
      </trkpt>
      <trkpt lat="47.36199" lon="-1.93116">
        <ele>56</ele>
        <time>2016-04-24T07:04:47Z</time>
      </trkpt>
      <trkpt lat="47.36199" lon="-1.9311">
        <ele>56</ele>
        <time>2016-04-24T07:04:48Z</time>
      </trkpt>
      <trkpt lat="47.362" lon="-1.93104">
        <ele>56</ele>
        <time>2016-04-24T07:04:49Z</time>
      </trkpt>
      <trkpt lat="47.36199" lon="-1.93095">
        <ele>56</ele>
        <time>2016-04-24T07:04:50Z</time>
      </trkpt>
      <trkpt lat="47.36196" lon="-1.93093">
        <ele>56</ele>
        <time>2016-04-24T07:04:51Z</time>
      </trkpt>
      <trkpt lat="47.36192" lon="-1.93093">
        <ele>56</ele>
        <time>2016-04-24T07:04:53Z</time>
      </trkpt>
      <trkpt lat="47.36192" lon="-1.93087">
        <ele>56</ele>
        <time>2016-04-24T07:04:54Z</time>
      </trkpt>
      <trkpt lat="47.3619" lon="-1.93084">
        <ele>56</ele>
        <time>2016-04-24T07:04:55Z</time>
      </trkpt>
      <trkpt lat="47.36189" lon="-1.9308">
        <ele>57</ele>
        <time>2016-04-24T07:04:56Z</time>
      </trkpt>
      <trkpt lat="47.36189" lon="-1.93074">
        <ele>57</ele>
        <time>2016-04-24T07:04:57Z</time>
      </trkpt>
      <trkpt lat="47.36191" lon="-1.93065">
        <ele>58</ele>
        <time>2016-04-24T07:04:58Z</time>
      </trkpt>
      <trkpt lat="47.36191" lon="-1.93054">
        <ele>58</ele>
        <time>2016-04-24T07:04:59Z</time>
      </trkpt>
      <trkpt lat="47.36191" lon="-1.93047">
        <ele>58</ele>
        <time>2016-04-24T07:05:00Z</time>
      </trkpt>
      <trkpt lat="47.3619" lon="-1.9304">
        <ele>58</ele>
        <time>2016-04-24T07:05:01Z</time>
      </trkpt>
      <trkpt lat="47.36188" lon="-1.93029">
        <ele>58</ele>
        <time>2016-04-24T07:05:02Z</time>
      </trkpt>
      <trkpt lat="47.36189" lon="-1.93018">
        <ele>58</ele>
        <time>2016-04-24T07:05:03Z</time>
      </trkpt>
      <trkpt lat="47.3619" lon="-1.93012">
        <ele>58</ele>
        <time>2016-04-24T07:05:04Z</time>
      </trkpt>
      <trkpt lat="47.36188" lon="-1.93003">
        <ele>58</ele>
        <time>2016-04-24T07:05:05Z</time>
      </trkpt>
      <trkpt lat="47.36186" lon="-1.92996">
        <ele>59</ele>
        <time>2016-04-24T07:05:06Z</time>
      </trkpt>
      <trkpt lat="47.36183" lon="-1.92989">
        <ele>59</ele>
        <time>2016-04-24T07:05:07Z</time>
      </trkpt>
      <trkpt lat="47.36184" lon="-1.92981">
        <ele>59</ele>
        <time>2016-04-24T07:05:08Z</time>
      </trkpt>
      <trkpt lat="47.36186" lon="-1.92973">
        <ele>59</ele>
        <time>2016-04-24T07:05:09Z</time>
      </trkpt>
      <trkpt lat="47.36185" lon="-1.92968">
        <ele>59</ele>
        <time>2016-04-24T07:05:10Z</time>
      </trkpt>
      <trkpt lat="47.36186" lon="-1.92961">
        <ele>60</ele>
        <time>2016-04-24T07:05:11Z</time>
      </trkpt>
      <trkpt lat="47.36185" lon="-1.92956">
        <ele>60</ele>
        <time>2016-04-24T07:05:12Z</time>
      </trkpt>
      <trkpt lat="47.36184" lon="-1.92951">
        <ele>60</ele>
        <time>2016-04-24T07:05:13Z</time>
      </trkpt>
      <trkpt lat="47.36183" lon="-1.92945">
        <ele>60</ele>
        <time>2016-04-24T07:05:14Z</time>
      </trkpt>
      <trkpt lat="47.36181" lon="-1.92938">
        <ele>59</ele>
        <time>2016-04-24T07:05:16Z</time>
      </trkpt>
      <trkpt lat="47.36182" lon="-1.92933">
        <ele>59</ele>
        <time>2016-04-24T07:05:17Z</time>
      </trkpt>
      <trkpt lat="47.36181" lon="-1.92927">
        <ele>59</ele>
        <time>2016-04-24T07:05:18Z</time>
      </trkpt>
      <trkpt lat="47.36182" lon="-1.9292">
        <ele>59</ele>
        <time>2016-04-24T07:05:19Z</time>
      </trkpt>
      <trkpt lat="47.36183" lon="-1.92914">
        <ele>60</ele>
        <time>2016-04-24T07:05:20Z</time>
      </trkpt>
      <trkpt lat="47.36183" lon="-1.92906">
        <ele>60</ele>
        <time>2016-04-24T07:05:21Z</time>
      </trkpt>
      <trkpt lat="47.36187" lon="-1.92887">
        <ele>60</ele>
        <time>2016-04-24T07:05:22Z</time>
      </trkpt>
      <trkpt lat="47.36187" lon="-1.92875">
        <ele>61</ele>
        <time>2016-04-24T07:05:23Z</time>
      </trkpt>
      <trkpt lat="47.36187" lon="-1.92868">
        <ele>61</ele>
        <time>2016-04-24T07:05:24Z</time>
      </trkpt>
      <trkpt lat="47.36183" lon="-1.92859">
        <ele>60</ele>
        <time>2016-04-24T07:05:26Z</time>
      </trkpt>
      <trkpt lat="47.36183" lon="-1.92853">
        <ele>60</ele>
        <time>2016-04-24T07:05:28Z</time>
      </trkpt>
      <trkpt lat="47.36182" lon="-1.92844">
        <ele>60</ele>
        <time>2016-04-24T07:05:30Z</time>
      </trkpt>
      <trkpt lat="47.36182" lon="-1.9284">
        <ele>60</ele>
        <time>2016-04-24T07:05:31Z</time>
      </trkpt>
      <trkpt lat="47.36182" lon="-1.92832">
        <ele>60</ele>
        <time>2016-04-24T07:05:32Z</time>
      </trkpt>
      <trkpt lat="47.36184" lon="-1.92825">
        <ele>60</ele>
        <time>2016-04-24T07:05:33Z</time>
      </trkpt>
      <trkpt lat="47.36184" lon="-1.92819">
        <ele>61</ele>
        <time>2016-04-24T07:05:34Z</time>
      </trkpt>
      <trkpt lat="47.36184" lon="-1.92814">
        <ele>61</ele>
        <time>2016-04-24T07:05:35Z</time>
      </trkpt>
      <trkpt lat="47.36184" lon="-1.92807">
        <ele>61</ele>
        <time>2016-04-24T07:05:36Z</time>
      </trkpt>
      <trkpt lat="47.36183" lon="-1.92801">
        <ele>61</ele>
        <time>2016-04-24T07:05:37Z</time>
      </trkpt>
      <trkpt lat="47.36183" lon="-1.92793">
        <ele>61</ele>
        <time>2016-04-24T07:05:38Z</time>
      </trkpt>
      <trkpt lat="47.36183" lon="-1.92779">
        <ele>61</ele>
        <time>2016-04-24T07:05:40Z</time>
      </trkpt>
      <trkpt lat="47.36183" lon="-1.92772">
        <ele>61</ele>
        <time>2016-04-24T07:05:41Z</time>
      </trkpt>
      <trkpt lat="47.36183" lon="-1.92765">
        <ele>61</ele>
        <time>2016-04-24T07:05:42Z</time>
      </trkpt>
      <trkpt lat="47.36183" lon="-1.92759">
        <ele>61</ele>
        <time>2016-04-24T07:05:43Z</time>
      </trkpt>
      <trkpt lat="47.36182" lon="-1.92752">
        <ele>61</ele>
        <time>2016-04-24T07:05:44Z</time>
      </trkpt>
      <trkpt lat="47.36182" lon="-1.92745">
        <ele>61</ele>
        <time>2016-04-24T07:05:45Z</time>
      </trkpt>
      <trkpt lat="47.36182" lon="-1.92739">
        <ele>61</ele>
        <time>2016-04-24T07:05:46Z</time>
      </trkpt>
      <trkpt lat="47.36182" lon="-1.92733">
        <ele>62</ele>
        <time>2016-04-24T07:05:47Z</time>
      </trkpt>
      <trkpt lat="47.36182" lon="-1.92727">
        <ele>62</ele>
        <time>2016-04-24T07:05:48Z</time>
      </trkpt>
      <trkpt lat="47.36183" lon="-1.92721">
        <ele>62</ele>
        <time>2016-04-24T07:05:49Z</time>
      </trkpt>
      <trkpt lat="47.36184" lon="-1.92715">
        <ele>62</ele>
        <time>2016-04-24T07:05:50Z</time>
      </trkpt>
      <trkpt lat="47.36184" lon="-1.92709">
        <ele>62</ele>
        <time>2016-04-24T07:05:51Z</time>
      </trkpt>
      <trkpt lat="47.36183" lon="-1.92703">
        <ele>62</ele>
        <time>2016-04-24T07:05:52Z</time>
      </trkpt>
      <trkpt lat="47.36182" lon="-1.92697">
        <ele>62</ele>
        <time>2016-04-24T07:05:53Z</time>
      </trkpt>
      <trkpt lat="47.36182" lon="-1.92692">
        <ele>62</ele>
        <time>2016-04-24T07:05:54Z</time>
      </trkpt>
      <trkpt lat="47.36182" lon="-1.92674">
        <ele>62</ele>
        <time>2016-04-24T07:05:57Z</time>
      </trkpt>
      <trkpt lat="47.36182" lon="-1.92669">
        <ele>62</ele>
        <time>2016-04-24T07:05:58Z</time>
      </trkpt>
      <trkpt lat="47.36182" lon="-1.92664">
        <ele>63</ele>
        <time>2016-04-24T07:05:59Z</time>
      </trkpt>
      <trkpt lat="47.36183" lon="-1.92658">
        <ele>64</ele>
        <time>2016-04-24T07:06:00Z</time>
      </trkpt>
      <trkpt lat="47.36183" lon="-1.92652">
        <ele>64</ele>
        <time>2016-04-24T07:06:01Z</time>
      </trkpt>
      <trkpt lat="47.36183" lon="-1.92646">
        <ele>64</ele>
        <time>2016-04-24T07:06:02Z</time>
      </trkpt>
      <trkpt lat="47.36184" lon="-1.9264">
        <ele>64</ele>
        <time>2016-04-24T07:06:03Z</time>
      </trkpt>
      <trkpt lat="47.36184" lon="-1.92634">
        <ele>65</ele>
        <time>2016-04-24T07:06:04Z</time>
      </trkpt>
      <trkpt lat="47.36185" lon="-1.92629">
        <ele>65</ele>
        <time>2016-04-24T07:06:05Z</time>
      </trkpt>
      <trkpt lat="47.36185" lon="-1.92624">
        <ele>65</ele>
        <time>2016-04-24T07:06:06Z</time>
      </trkpt>
      <trkpt lat="47.36185" lon="-1.92619">
        <ele>65</ele>
        <time>2016-04-24T07:06:07Z</time>
      </trkpt>
      <trkpt lat="47.36185" lon="-1.92614">
        <ele>65</ele>
        <time>2016-04-24T07:06:08Z</time>
      </trkpt>
      <trkpt lat="47.36185" lon="-1.92609">
        <ele>65</ele>
        <time>2016-04-24T07:06:09Z</time>
      </trkpt>
      <trkpt lat="47.36185" lon="-1.92603">
        <ele>65</ele>
        <time>2016-04-24T07:06:10Z</time>
      </trkpt>
      <trkpt lat="47.36186" lon="-1.92597">
        <ele>65</ele>
        <time>2016-04-24T07:06:11Z</time>
      </trkpt>
      <trkpt lat="47.36186" lon="-1.92592">
        <ele>65</ele>
        <time>2016-04-24T07:06:12Z</time>
      </trkpt>
      <trkpt lat="47.36187" lon="-1.92586">
        <ele>65</ele>
        <time>2016-04-24T07:06:13Z</time>
      </trkpt>
      <trkpt lat="47.36188" lon="-1.9258">
        <ele>66</ele>
        <time>2016-04-24T07:06:14Z</time>
      </trkpt>
      <trkpt lat="47.36189" lon="-1.92562">
        <ele>66</ele>
        <time>2016-04-24T07:06:17Z</time>
      </trkpt>
      <trkpt lat="47.36189" lon="-1.92556">
        <ele>66</ele>
        <time>2016-04-24T07:06:18Z</time>
      </trkpt>
      <trkpt lat="47.3619" lon="-1.9255">
        <ele>66</ele>
        <time>2016-04-24T07:06:19Z</time>
      </trkpt>
      <trkpt lat="47.3619" lon="-1.92544">
        <ele>66</ele>
        <time>2016-04-24T07:06:20Z</time>
      </trkpt>
      <trkpt lat="47.36191" lon="-1.92539">
        <ele>66</ele>
        <time>2016-04-24T07:06:21Z</time>
      </trkpt>
      <trkpt lat="47.36191" lon="-1.92533">
        <ele>66</ele>
        <time>2016-04-24T07:06:22Z</time>
      </trkpt>
      <trkpt lat="47.36192" lon="-1.92528">
        <ele>66</ele>
        <time>2016-04-24T07:06:23Z</time>
      </trkpt>
      <trkpt lat="47.36192" lon="-1.92523">
        <ele>66</ele>
        <time>2016-04-24T07:06:24Z</time>
      </trkpt>
      <trkpt lat="47.36193" lon="-1.92517">
        <ele>66</ele>
        <time>2016-04-24T07:06:25Z</time>
      </trkpt>
      <trkpt lat="47.36194" lon="-1.92512">
        <ele>66</ele>
        <time>2016-04-24T07:06:26Z</time>
      </trkpt>
      <trkpt lat="47.36195" lon="-1.92506">
        <ele>66</ele>
        <time>2016-04-24T07:06:27Z</time>
      </trkpt>
      <trkpt lat="47.36196" lon="-1.92495">
        <ele>65</ele>
        <time>2016-04-24T07:06:29Z</time>
      </trkpt>
      <trkpt lat="47.36195" lon="-1.92489">
        <ele>65</ele>
        <time>2016-04-24T07:06:30Z</time>
      </trkpt>
      <trkpt lat="47.36194" lon="-1.92484">
        <ele>65</ele>
        <time>2016-04-24T07:06:31Z</time>
      </trkpt>
      <trkpt lat="47.36193" lon="-1.92479">
        <ele>65</ele>
        <time>2016-04-24T07:06:32Z</time>
      </trkpt>
      <trkpt lat="47.36193" lon="-1.92473">
        <ele>65</ele>
        <time>2016-04-24T07:06:33Z</time>
      </trkpt>
      <trkpt lat="47.36192" lon="-1.92468">
        <ele>65</ele>
        <time>2016-04-24T07:06:34Z</time>
      </trkpt>
      <trkpt lat="47.36191" lon="-1.92462">
        <ele>65</ele>
        <time>2016-04-24T07:06:35Z</time>
      </trkpt>
      <trkpt lat="47.3619" lon="-1.92456">
        <ele>65</ele>
        <time>2016-04-24T07:06:36Z</time>
      </trkpt>
      <trkpt lat="47.36189" lon="-1.9245">
        <ele>65</ele>
        <time>2016-04-24T07:06:37Z</time>
      </trkpt>
      <trkpt lat="47.36187" lon="-1.92445">
        <ele>65</ele>
        <time>2016-04-24T07:06:38Z</time>
      </trkpt>
      <trkpt lat="47.36185" lon="-1.9244">
        <ele>65</ele>
        <time>2016-04-24T07:06:39Z</time>
      </trkpt>
      <trkpt lat="47.36181" lon="-1.92436">
        <ele>65</ele>
        <time>2016-04-24T07:06:40Z</time>
      </trkpt>
      <trkpt lat="47.36176" lon="-1.92435">
        <ele>65</ele>
        <time>2016-04-24T07:06:41Z</time>
      </trkpt>
      <trkpt lat="47.36172" lon="-1.92435">
        <ele>65</ele>
        <time>2016-04-24T07:06:42Z</time>
      </trkpt>
      <trkpt lat="47.36167" lon="-1.92436">
        <ele>65</ele>
        <time>2016-04-24T07:06:43Z</time>
      </trkpt>
      <trkpt lat="47.36157" lon="-1.92439">
        <ele>64</ele>
        <time>2016-04-24T07:06:44Z</time>
      </trkpt>
      <trkpt lat="47.36152" lon="-1.92437">
        <ele>64</ele>
        <time>2016-04-24T07:06:45Z</time>
      </trkpt>
      <trkpt lat="47.36147" lon="-1.92436">
        <ele>64</ele>
        <time>2016-04-24T07:06:46Z</time>
      </trkpt>
      <trkpt lat="47.36142" lon="-1.92435">
        <ele>64</ele>
        <time>2016-04-24T07:06:47Z</time>
      </trkpt>
      <trkpt lat="47.36137" lon="-1.92434">
        <ele>64</ele>
        <time>2016-04-24T07:06:48Z</time>
      </trkpt>
      <trkpt lat="47.36127" lon="-1.92436">
        <ele>64</ele>
        <time>2016-04-24T07:06:49Z</time>
      </trkpt>
      <trkpt lat="47.36121" lon="-1.92435">
        <ele>64</ele>
        <time>2016-04-24T07:06:50Z</time>
      </trkpt>
      <trkpt lat="47.36116" lon="-1.92433">
        <ele>63</ele>
        <time>2016-04-24T07:06:51Z</time>
      </trkpt>
      <trkpt lat="47.36108" lon="-1.92433">
        <ele>63</ele>
        <time>2016-04-24T07:06:52Z</time>
      </trkpt>
      <trkpt lat="47.36104" lon="-1.92432">
        <ele>63</ele>
        <time>2016-04-24T07:06:53Z</time>
      </trkpt>
      <trkpt lat="47.361" lon="-1.92431">
        <ele>63</ele>
        <time>2016-04-24T07:06:54Z</time>
      </trkpt>
      <trkpt lat="47.36094" lon="-1.92429">
        <ele>63</ele>
        <time>2016-04-24T07:06:55Z</time>
      </trkpt>
      <trkpt lat="47.36089" lon="-1.9243">
        <ele>63</ele>
        <time>2016-04-24T07:06:56Z</time>
      </trkpt>
      <trkpt lat="47.36082" lon="-1.92431">
        <ele>62</ele>
        <time>2016-04-24T07:06:57Z</time>
      </trkpt>
      <trkpt lat="47.36074" lon="-1.92433">
        <ele>62</ele>
        <time>2016-04-24T07:06:58Z</time>
      </trkpt>
      <trkpt lat="47.36069" lon="-1.92435">
        <ele>61</ele>
        <time>2016-04-24T07:06:59Z</time>
      </trkpt>
      <trkpt lat="47.36061" lon="-1.92436">
        <ele>61</ele>
        <time>2016-04-24T07:07:00Z</time>
      </trkpt>
      <trkpt lat="47.36054" lon="-1.92435">
        <ele>61</ele>
        <time>2016-04-24T07:07:01Z</time>
      </trkpt>
      <trkpt lat="47.36046" lon="-1.92434">
        <ele>61</ele>
        <time>2016-04-24T07:07:03Z</time>
      </trkpt>
      <trkpt lat="47.36042" lon="-1.92436">
        <ele>61</ele>
        <time>2016-04-24T07:07:04Z</time>
      </trkpt>
      <trkpt lat="47.36037" lon="-1.92435">
        <ele>61</ele>
        <time>2016-04-24T07:07:05Z</time>
      </trkpt>
      <trkpt lat="47.36032" lon="-1.92436">
        <ele>61</ele>
        <time>2016-04-24T07:07:06Z</time>
      </trkpt>
      <trkpt lat="47.36027" lon="-1.92436">
        <ele>61</ele>
        <time>2016-04-24T07:07:07Z</time>
      </trkpt>
      <trkpt lat="47.36021" lon="-1.92433">
        <ele>60</ele>
        <time>2016-04-24T07:07:08Z</time>
      </trkpt>
      <trkpt lat="47.36013" lon="-1.92435">
        <ele>60</ele>
        <time>2016-04-24T07:07:09Z</time>
      </trkpt>
      <trkpt lat="47.36007" lon="-1.92435">
        <ele>60</ele>
        <time>2016-04-24T07:07:10Z</time>
      </trkpt>
      <trkpt lat="47.36001" lon="-1.92437">
        <ele>60</ele>
        <time>2016-04-24T07:07:11Z</time>
      </trkpt>
      <trkpt lat="47.35992" lon="-1.92438">
        <ele>58</ele>
        <time>2016-04-24T07:07:12Z</time>
      </trkpt>
      <trkpt lat="47.3599" lon="-1.92433">
        <ele>58</ele>
        <time>2016-04-24T07:07:13Z</time>
      </trkpt>
      <trkpt lat="47.35987" lon="-1.92426">
        <ele>58</ele>
        <time>2016-04-24T07:07:15Z</time>
      </trkpt>
      <trkpt lat="47.35984" lon="-1.92422">
        <ele>58</ele>
        <time>2016-04-24T07:07:16Z</time>
      </trkpt>
      <trkpt lat="47.35979" lon="-1.92412">
        <ele>57</ele>
        <time>2016-04-24T07:07:17Z</time>
      </trkpt>
      <trkpt lat="47.35977" lon="-1.92408">
        <ele>57</ele>
        <time>2016-04-24T07:07:18Z</time>
      </trkpt>
      <trkpt lat="47.35973" lon="-1.92396">
        <ele>57</ele>
        <time>2016-04-24T07:07:19Z</time>
      </trkpt>
      <trkpt lat="47.3597" lon="-1.92385">
        <ele>57</ele>
        <time>2016-04-24T07:07:20Z</time>
      </trkpt>
      <trkpt lat="47.35972" lon="-1.92374">
        <ele>57</ele>
        <time>2016-04-24T07:07:21Z</time>
      </trkpt>
      <trkpt lat="47.35971" lon="-1.9237">
        <ele>56</ele>
        <time>2016-04-24T07:07:22Z</time>
      </trkpt>
      <trkpt lat="47.35976" lon="-1.92359">
        <ele>56</ele>
        <time>2016-04-24T07:07:23Z</time>
      </trkpt>
      <trkpt lat="47.35978" lon="-1.92354">
        <ele>56</ele>
        <time>2016-04-24T07:07:24Z</time>
      </trkpt>
      <trkpt lat="47.35978" lon="-1.92346">
        <ele>56</ele>
        <time>2016-04-24T07:07:25Z</time>
      </trkpt>
      <trkpt lat="47.35975" lon="-1.92339">
        <ele>56</ele>
        <time>2016-04-24T07:07:26Z</time>
      </trkpt>
      <trkpt lat="47.35976" lon="-1.92333">
        <ele>55</ele>
        <time>2016-04-24T07:07:27Z</time>
      </trkpt>
      <trkpt lat="47.35974" lon="-1.92329">
        <ele>55</ele>
        <time>2016-04-24T07:07:28Z</time>
      </trkpt>
      <trkpt lat="47.35973" lon="-1.92323">
        <ele>55</ele>
        <time>2016-04-24T07:07:29Z</time>
      </trkpt>
      <trkpt lat="47.35967" lon="-1.92316">
        <ele>55</ele>
        <time>2016-04-24T07:07:30Z</time>
      </trkpt>
      <trkpt lat="47.35967" lon="-1.923">
        <ele>55</ele>
        <time>2016-04-24T07:07:32Z</time>
      </trkpt>
      <trkpt lat="47.35992" lon="-1.92287">
        <ele>55</ele>
        <time>2016-04-24T07:07:34Z</time>
      </trkpt>
      <trkpt lat="47.35996" lon="-1.92279">
        <ele>54</ele>
        <time>2016-04-24T07:07:35Z</time>
      </trkpt>
      <trkpt lat="47.36002" lon="-1.92273">
        <ele>54</ele>
        <time>2016-04-24T07:07:36Z</time>
      </trkpt>
      <trkpt lat="47.36008" lon="-1.92263">
        <ele>54</ele>
        <time>2016-04-24T07:07:37Z</time>
      </trkpt>
      <trkpt lat="47.36012" lon="-1.92259">
        <ele>54</ele>
        <time>2016-04-24T07:07:38Z</time>
      </trkpt>
      <trkpt lat="47.36017" lon="-1.92252">
        <ele>54</ele>
        <time>2016-04-24T07:07:39Z</time>
      </trkpt>
      <trkpt lat="47.36014" lon="-1.92242">
        <ele>52</ele>
        <time>2016-04-24T07:07:40Z</time>
      </trkpt>
      <trkpt lat="47.36014" lon="-1.92237">
        <ele>52</ele>
        <time>2016-04-24T07:07:41Z</time>
      </trkpt>
      <trkpt lat="47.36013" lon="-1.9223">
        <ele>52</ele>
        <time>2016-04-24T07:07:42Z</time>
      </trkpt>
      <trkpt lat="47.36018" lon="-1.92219">
        <ele>52</ele>
        <time>2016-04-24T07:07:43Z</time>
      </trkpt>
      <trkpt lat="47.36018" lon="-1.92209">
        <ele>52</ele>
        <time>2016-04-24T07:07:44Z</time>
      </trkpt>
      <trkpt lat="47.36023" lon="-1.92197">
        <ele>52</ele>
        <time>2016-04-24T07:07:46Z</time>
      </trkpt>
      <trkpt lat="47.36026" lon="-1.92189">
        <ele>51</ele>
        <time>2016-04-24T07:07:47Z</time>
      </trkpt>
      <trkpt lat="47.36033" lon="-1.9218">
        <ele>52</ele>
        <time>2016-04-24T07:07:48Z</time>
      </trkpt>
      <trkpt lat="47.36037" lon="-1.92173">
        <ele>52</ele>
        <time>2016-04-24T07:07:49Z</time>
      </trkpt>
      <trkpt lat="47.36042" lon="-1.92168">
        <ele>52</ele>
        <time>2016-04-24T07:07:50Z</time>
      </trkpt>
      <trkpt lat="47.36045" lon="-1.92164">
        <ele>51</ele>
        <time>2016-04-24T07:07:51Z</time>
      </trkpt>
      <trkpt lat="47.3605" lon="-1.9216">
        <ele>51</ele>
        <time>2016-04-24T07:07:52Z</time>
      </trkpt>
      <trkpt lat="47.3605" lon="-1.9215">
        <ele>51</ele>
        <time>2016-04-24T07:07:53Z</time>
      </trkpt>
      <trkpt lat="47.36052" lon="-1.92143">
        <ele>51</ele>
        <time>2016-04-24T07:07:54Z</time>
      </trkpt>
      <trkpt lat="47.36053" lon="-1.92136">
        <ele>51</ele>
        <time>2016-04-24T07:07:55Z</time>
      </trkpt>
      <trkpt lat="47.36053" lon="-1.9213">
        <ele>51</ele>
        <time>2016-04-24T07:07:56Z</time>
      </trkpt>
      <trkpt lat="47.36051" lon="-1.92125">
        <ele>50</ele>
        <time>2016-04-24T07:07:57Z</time>
      </trkpt>
      <trkpt lat="47.36049" lon="-1.92115">
        <ele>50</ele>
        <time>2016-04-24T07:07:58Z</time>
      </trkpt>
      <trkpt lat="47.36046" lon="-1.9211">
        <ele>50</ele>
        <time>2016-04-24T07:07:59Z</time>
      </trkpt>
      <trkpt lat="47.36043" lon="-1.92102">
        <ele>50</ele>
        <time>2016-04-24T07:08:00Z</time>
      </trkpt>
      <trkpt lat="47.3604" lon="-1.92096">
        <ele>50</ele>
        <time>2016-04-24T07:08:01Z</time>
      </trkpt>
      <trkpt lat="47.36035" lon="-1.92088">
        <ele>50</ele>
        <time>2016-04-24T07:08:02Z</time>
      </trkpt>
      <trkpt lat="47.36031" lon="-1.92084">
        <ele>50</ele>
        <time>2016-04-24T07:08:03Z</time>
      </trkpt>
      <trkpt lat="47.36027" lon="-1.9208">
        <ele>50</ele>
        <time>2016-04-24T07:08:04Z</time>
      </trkpt>
      <trkpt lat="47.36022" lon="-1.92075">
        <ele>50</ele>
        <time>2016-04-24T07:08:05Z</time>
      </trkpt>
      <trkpt lat="47.36016" lon="-1.92075">
        <ele>50</ele>
        <time>2016-04-24T07:08:08Z</time>
      </trkpt>
      <trkpt lat="47.36013" lon="-1.92076">
        <ele>50</ele>
        <time>2016-04-24T07:08:09Z</time>
      </trkpt>
      <trkpt lat="47.36011" lon="-1.9208">
        <ele>50</ele>
        <time>2016-04-24T07:08:12Z</time>
      </trkpt>
      <trkpt lat="47.36007" lon="-1.92085">
        <ele>49</ele>
        <time>2016-04-24T07:08:14Z</time>
      </trkpt>
      <trkpt lat="47.36004" lon="-1.92088">
        <ele>49</ele>
        <time>2016-04-24T07:08:15Z</time>
      </trkpt>
      <trkpt lat="47.36001" lon="-1.9209">
        <ele>49</ele>
        <time>2016-04-24T07:08:16Z</time>
      </trkpt>
      <trkpt lat="47.35999" lon="-1.92092">
        <ele>49</ele>
        <time>2016-04-24T07:08:17Z</time>
      </trkpt>
      <trkpt lat="47.35996" lon="-1.92095">
        <ele>49</ele>
        <time>2016-04-24T07:08:18Z</time>
      </trkpt>
      <trkpt lat="47.35993" lon="-1.92097">
        <ele>49</ele>
        <time>2016-04-24T07:08:19Z</time>
      </trkpt>
      <trkpt lat="47.35989" lon="-1.92099">
        <ele>49</ele>
        <time>2016-04-24T07:08:20Z</time>
      </trkpt>
      <trkpt lat="47.3598" lon="-1.92099">
        <ele>49</ele>
        <time>2016-04-24T07:08:21Z</time>
      </trkpt>
      <trkpt lat="47.35976" lon="-1.921">
        <ele>49</ele>
        <time>2016-04-24T07:08:22Z</time>
      </trkpt>
      <trkpt lat="47.35968" lon="-1.92102">
        <ele>49</ele>
        <time>2016-04-24T07:08:23Z</time>
      </trkpt>
      <trkpt lat="47.3596" lon="-1.92102">
        <ele>49</ele>
        <time>2016-04-24T07:08:24Z</time>
      </trkpt>
      <trkpt lat="47.35953" lon="-1.92103">
        <ele>49</ele>
        <time>2016-04-24T07:08:25Z</time>
      </trkpt>
      <trkpt lat="47.35946" lon="-1.92102">
        <ele>49</ele>
        <time>2016-04-24T07:08:26Z</time>
      </trkpt>
      <trkpt lat="47.35941" lon="-1.92099">
        <ele>49</ele>
        <time>2016-04-24T07:08:27Z</time>
      </trkpt>
      <trkpt lat="47.35934" lon="-1.92098">
        <ele>49</ele>
        <time>2016-04-24T07:08:28Z</time>
      </trkpt>
      <trkpt lat="47.35927" lon="-1.92097">
        <ele>49</ele>
        <time>2016-04-24T07:08:30Z</time>
      </trkpt>
      <trkpt lat="47.35923" lon="-1.92095">
        <ele>49</ele>
        <time>2016-04-24T07:08:31Z</time>
      </trkpt>
      <trkpt lat="47.35917" lon="-1.92096">
        <ele>49</ele>
        <time>2016-04-24T07:08:32Z</time>
      </trkpt>
      <trkpt lat="47.35911" lon="-1.92093">
        <ele>49</ele>
        <time>2016-04-24T07:08:33Z</time>
      </trkpt>
      <trkpt lat="47.35907" lon="-1.92089">
        <ele>49</ele>
        <time>2016-04-24T07:08:34Z</time>
      </trkpt>
      <trkpt lat="47.35906" lon="-1.92084">
        <ele>49</ele>
        <time>2016-04-24T07:08:35Z</time>
      </trkpt>
      <trkpt lat="47.35902" lon="-1.9208">
        <ele>49</ele>
        <time>2016-04-24T07:08:36Z</time>
      </trkpt>
      <trkpt lat="47.35896" lon="-1.92077">
        <ele>50</ele>
        <time>2016-04-24T07:08:37Z</time>
      </trkpt>
      <trkpt lat="47.35889" lon="-1.92071">
        <ele>50</ele>
        <time>2016-04-24T07:08:38Z</time>
      </trkpt>
      <trkpt lat="47.35883" lon="-1.92068">
        <ele>50</ele>
        <time>2016-04-24T07:08:39Z</time>
      </trkpt>
      <trkpt lat="47.35878" lon="-1.92065">
        <ele>50</ele>
        <time>2016-04-24T07:08:40Z</time>
      </trkpt>
      <trkpt lat="47.35871" lon="-1.92061">
        <ele>50</ele>
        <time>2016-04-24T07:08:41Z</time>
      </trkpt>
      <trkpt lat="47.35867" lon="-1.92059">
        <ele>50</ele>
        <time>2016-04-24T07:08:42Z</time>
      </trkpt>
      <trkpt lat="47.35864" lon="-1.92056">
        <ele>50</ele>
        <time>2016-04-24T07:08:43Z</time>
      </trkpt>
      <trkpt lat="47.3586" lon="-1.92055">
        <ele>50</ele>
        <time>2016-04-24T07:08:44Z</time>
      </trkpt>
      <trkpt lat="47.35854" lon="-1.92055">
        <ele>50</ele>
        <time>2016-04-24T07:08:45Z</time>
      </trkpt>
      <trkpt lat="47.35847" lon="-1.92054">
        <ele>49</ele>
        <time>2016-04-24T07:08:46Z</time>
      </trkpt>
      <trkpt lat="47.35844" lon="-1.92055">
        <ele>49</ele>
        <time>2016-04-24T07:08:47Z</time>
      </trkpt>
      <trkpt lat="47.3584" lon="-1.92056">
        <ele>49</ele>
        <time>2016-04-24T07:08:48Z</time>
      </trkpt>
      <trkpt lat="47.35832" lon="-1.92055">
        <ele>49</ele>
        <time>2016-04-24T07:08:49Z</time>
      </trkpt>
      <trkpt lat="47.35828" lon="-1.92056">
        <ele>49</ele>
        <time>2016-04-24T07:08:50Z</time>
      </trkpt>
      <trkpt lat="47.35819" lon="-1.92059">
        <ele>49</ele>
        <time>2016-04-24T07:08:51Z</time>
      </trkpt>
      <trkpt lat="47.35814" lon="-1.92062">
        <ele>49</ele>
        <time>2016-04-24T07:08:52Z</time>
      </trkpt>
      <trkpt lat="47.35808" lon="-1.92064">
        <ele>49</ele>
        <time>2016-04-24T07:08:53Z</time>
      </trkpt>
      <trkpt lat="47.358" lon="-1.92062">
        <ele>49</ele>
        <time>2016-04-24T07:08:54Z</time>
      </trkpt>
      <trkpt lat="47.35797" lon="-1.9206">
        <ele>49</ele>
        <time>2016-04-24T07:08:55Z</time>
      </trkpt>
      <trkpt lat="47.35791" lon="-1.92057">
        <ele>49</ele>
        <time>2016-04-24T07:08:56Z</time>
      </trkpt>
      <trkpt lat="47.35788" lon="-1.92055">
        <ele>49</ele>
        <time>2016-04-24T07:08:57Z</time>
      </trkpt>
      <trkpt lat="47.35782" lon="-1.92056">
        <ele>49</ele>
        <time>2016-04-24T07:08:59Z</time>
      </trkpt>
      <trkpt lat="47.35775" lon="-1.92059">
        <ele>49</ele>
        <time>2016-04-24T07:09:01Z</time>
      </trkpt>
      <trkpt lat="47.35772" lon="-1.92061">
        <ele>49</ele>
        <time>2016-04-24T07:09:02Z</time>
      </trkpt>
      <trkpt lat="47.3577" lon="-1.92063">
        <ele>49</ele>
        <time>2016-04-24T07:09:03Z</time>
      </trkpt>
      <trkpt lat="47.35766" lon="-1.92064">
        <ele>49</ele>
        <time>2016-04-24T07:09:04Z</time>
      </trkpt>
      <trkpt lat="47.35763" lon="-1.92063">
        <ele>49</ele>
        <time>2016-04-24T07:09:05Z</time>
      </trkpt>
      <trkpt lat="47.35758" lon="-1.92065">
        <ele>48</ele>
        <time>2016-04-24T07:09:07Z</time>
      </trkpt>
      <trkpt lat="47.35755" lon="-1.92067">
        <ele>48</ele>
        <time>2016-04-24T07:09:08Z</time>
      </trkpt>
      <trkpt lat="47.35751" lon="-1.92069">
        <ele>48</ele>
        <time>2016-04-24T07:09:09Z</time>
      </trkpt>
      <trkpt lat="47.35747" lon="-1.92072">
        <ele>48</ele>
        <time>2016-04-24T07:09:10Z</time>
      </trkpt>
      <trkpt lat="47.35743" lon="-1.92077">
        <ele>48</ele>
        <time>2016-04-24T07:09:11Z</time>
      </trkpt>
      <trkpt lat="47.3574" lon="-1.92083">
        <ele>48</ele>
        <time>2016-04-24T07:09:12Z</time>
      </trkpt>
      <trkpt lat="47.35738" lon="-1.92088">
        <ele>47</ele>
        <time>2016-04-24T07:09:13Z</time>
      </trkpt>
      <trkpt lat="47.35735" lon="-1.92092">
        <ele>47</ele>
        <time>2016-04-24T07:09:14Z</time>
      </trkpt>
      <trkpt lat="47.35732" lon="-1.92096">
        <ele>46</ele>
        <time>2016-04-24T07:09:15Z</time>
      </trkpt>
      <trkpt lat="47.35729" lon="-1.92102">
        <ele>46</ele>
        <time>2016-04-24T07:09:17Z</time>
      </trkpt>
      <trkpt lat="47.35727" lon="-1.92106">
        <ele>46</ele>
        <time>2016-04-24T07:09:18Z</time>
      </trkpt>
      <trkpt lat="47.35725" lon="-1.92109">
        <ele>46</ele>
        <time>2016-04-24T07:09:19Z</time>
      </trkpt>
      <trkpt lat="47.35723" lon="-1.92113">
        <ele>46</ele>
        <time>2016-04-24T07:09:20Z</time>
      </trkpt>
      <trkpt lat="47.3572" lon="-1.92117">
        <ele>46</ele>
        <time>2016-04-24T07:09:21Z</time>
      </trkpt>
      <trkpt lat="47.35716" lon="-1.9212">
        <ele>46</ele>
        <time>2016-04-24T07:09:22Z</time>
      </trkpt>
      <trkpt lat="47.35712" lon="-1.92121">
        <ele>46</ele>
        <time>2016-04-24T07:09:23Z</time>
      </trkpt>
      <trkpt lat="47.35707" lon="-1.92121">
        <ele>46</ele>
        <time>2016-04-24T07:09:24Z</time>
      </trkpt>
      <trkpt lat="47.35703" lon="-1.92122">
        <ele>46</ele>
        <time>2016-04-24T07:09:25Z</time>
      </trkpt>
      <trkpt lat="47.357" lon="-1.92124">
        <ele>46</ele>
        <time>2016-04-24T07:09:26Z</time>
      </trkpt>
      <trkpt lat="47.35698" lon="-1.92127">
        <ele>46</ele>
        <time>2016-04-24T07:09:27Z</time>
      </trkpt>
      <trkpt lat="47.35696" lon="-1.9213">
        <ele>46</ele>
        <time>2016-04-24T07:09:28Z</time>
      </trkpt>
      <trkpt lat="47.35695" lon="-1.92134">
        <ele>46</ele>
        <time>2016-04-24T07:09:29Z</time>
      </trkpt>
      <trkpt lat="47.35696" lon="-1.92138">
        <ele>46</ele>
        <time>2016-04-24T07:09:30Z</time>
      </trkpt>
      <trkpt lat="47.35697" lon="-1.92142">
        <ele>46</ele>
        <time>2016-04-24T07:09:31Z</time>
      </trkpt>
      <trkpt lat="47.35699" lon="-1.92146">
        <ele>46</ele>
        <time>2016-04-24T07:09:32Z</time>
      </trkpt>
      <trkpt lat="47.357" lon="-1.92151">
        <ele>46</ele>
        <time>2016-04-24T07:09:33Z</time>
      </trkpt>
      <trkpt lat="47.35701" lon="-1.92156">
        <ele>46</ele>
        <time>2016-04-24T07:09:34Z</time>
      </trkpt>
      <trkpt lat="47.35701" lon="-1.92163">
        <ele>46</ele>
        <time>2016-04-24T07:09:35Z</time>
      </trkpt>
      <trkpt lat="47.35699" lon="-1.92171">
        <ele>45</ele>
        <time>2016-04-24T07:09:36Z</time>
      </trkpt>
      <trkpt lat="47.35696" lon="-1.92183">
        <ele>45</ele>
        <time>2016-04-24T07:09:37Z</time>
      </trkpt>
      <trkpt lat="47.35692" lon="-1.92189">
        <ele>45</ele>
        <time>2016-04-24T07:09:38Z</time>
      </trkpt>
      <trkpt lat="47.3569" lon="-1.92193">
        <ele>45</ele>
        <time>2016-04-24T07:09:39Z</time>
      </trkpt>
      <trkpt lat="47.35686" lon="-1.92194">
        <ele>45</ele>
        <time>2016-04-24T07:09:40Z</time>
      </trkpt>
      <trkpt lat="47.35682" lon="-1.92198">
        <ele>45</ele>
        <time>2016-04-24T07:09:41Z</time>
      </trkpt>
      <trkpt lat="47.35677" lon="-1.92203">
        <ele>45</ele>
        <time>2016-04-24T07:09:42Z</time>
      </trkpt>
      <trkpt lat="47.35672" lon="-1.92205">
        <ele>45</ele>
        <time>2016-04-24T07:09:43Z</time>
      </trkpt>
      <trkpt lat="47.35668" lon="-1.92204">
        <ele>45</ele>
        <time>2016-04-24T07:09:44Z</time>
      </trkpt>
      <trkpt lat="47.35671" lon="-1.92232">
        <ele>45</ele>
        <time>2016-04-24T07:09:47Z</time>
      </trkpt>
      <trkpt lat="47.35671" lon="-1.92243">
        <ele>45</ele>
        <time>2016-04-24T07:09:48Z</time>
      </trkpt>
      <trkpt lat="47.35664" lon="-1.92249">
        <ele>44</ele>
        <time>2016-04-24T07:09:49Z</time>
      </trkpt>
      <trkpt lat="47.35658" lon="-1.9225">
        <ele>45</ele>
        <time>2016-04-24T07:09:50Z</time>
      </trkpt>
      <trkpt lat="47.35653" lon="-1.92252">
        <ele>45</ele>
        <time>2016-04-24T07:09:51Z</time>
      </trkpt>
      <trkpt lat="47.35648" lon="-1.92257">
        <ele>46</ele>
        <time>2016-04-24T07:09:52Z</time>
      </trkpt>
      <trkpt lat="47.35643" lon="-1.9226">
        <ele>46</ele>
        <time>2016-04-24T07:09:53Z</time>
      </trkpt>
      <trkpt lat="47.35639" lon="-1.92263">
        <ele>46</ele>
        <time>2016-04-24T07:09:54Z</time>
      </trkpt>
      <trkpt lat="47.35636" lon="-1.92265">
        <ele>46</ele>
        <time>2016-04-24T07:09:55Z</time>
      </trkpt>
      <trkpt lat="47.35633" lon="-1.92267">
        <ele>46</ele>
        <time>2016-04-24T07:09:56Z</time>
      </trkpt>
      <trkpt lat="47.35629" lon="-1.92269">
        <ele>46</ele>
        <time>2016-04-24T07:09:57Z</time>
      </trkpt>
      <trkpt lat="47.35626" lon="-1.92275">
        <ele>46</ele>
        <time>2016-04-24T07:09:59Z</time>
      </trkpt>
      <trkpt lat="47.35623" lon="-1.92278">
        <ele>47</ele>
        <time>2016-04-24T07:10:00Z</time>
      </trkpt>
      <trkpt lat="47.3562" lon="-1.92282">
        <ele>47</ele>
        <time>2016-04-24T07:10:01Z</time>
      </trkpt>
      <trkpt lat="47.35616" lon="-1.92286">
        <ele>47</ele>
        <time>2016-04-24T07:10:02Z</time>
      </trkpt>
      <trkpt lat="47.35612" lon="-1.92289">
        <ele>47</ele>
        <time>2016-04-24T07:10:03Z</time>
      </trkpt>
      <trkpt lat="47.35608" lon="-1.92293">
        <ele>47</ele>
        <time>2016-04-24T07:10:04Z</time>
      </trkpt>
      <trkpt lat="47.3561" lon="-1.92298">
        <ele>47</ele>
        <time>2016-04-24T07:10:05Z</time>
      </trkpt>
      <trkpt lat="47.35609" lon="-1.92302">
        <ele>47</ele>
        <time>2016-04-24T07:10:06Z</time>
      </trkpt>
      <trkpt lat="47.35608" lon="-1.92308">
        <ele>47</ele>
        <time>2016-04-24T07:10:07Z</time>
      </trkpt>
      <trkpt lat="47.35602" lon="-1.92316">
        <ele>46</ele>
        <time>2016-04-24T07:10:08Z</time>
      </trkpt>
      <trkpt lat="47.35598" lon="-1.92324">
        <ele>46</ele>
        <time>2016-04-24T07:10:09Z</time>
      </trkpt>
      <trkpt lat="47.3559" lon="-1.92332">
        <ele>46</ele>
        <time>2016-04-24T07:10:10Z</time>
      </trkpt>
      <trkpt lat="47.35578" lon="-1.92339">
        <ele>46</ele>
        <time>2016-04-24T07:10:11Z</time>
      </trkpt>
      <trkpt lat="47.35573" lon="-1.92343">
        <ele>46</ele>
        <time>2016-04-24T07:10:12Z</time>
      </trkpt>
      <trkpt lat="47.35566" lon="-1.92349">
        <ele>46</ele>
        <time>2016-04-24T07:10:13Z</time>
      </trkpt>
      <trkpt lat="47.35562" lon="-1.92352">
        <ele>46</ele>
        <time>2016-04-24T07:10:14Z</time>
      </trkpt>
      <trkpt lat="47.35555" lon="-1.92359">
        <ele>46</ele>
        <time>2016-04-24T07:10:15Z</time>
      </trkpt>
      <trkpt lat="47.35552" lon="-1.92359">
        <ele>46</ele>
        <time>2016-04-24T07:10:16Z</time>
      </trkpt>
      <trkpt lat="47.35547" lon="-1.92363">
        <ele>46</ele>
        <time>2016-04-24T07:10:17Z</time>
      </trkpt>
      <trkpt lat="47.35542" lon="-1.92367">
        <ele>46</ele>
        <time>2016-04-24T07:10:18Z</time>
      </trkpt>
      <trkpt lat="47.35539" lon="-1.92369">
        <ele>46</ele>
        <time>2016-04-24T07:10:19Z</time>
      </trkpt>
      <trkpt lat="47.35534" lon="-1.92372">
        <ele>46</ele>
        <time>2016-04-24T07:10:20Z</time>
      </trkpt>
      <trkpt lat="47.35526" lon="-1.92377">
        <ele>46</ele>
        <time>2016-04-24T07:10:21Z</time>
      </trkpt>
      <trkpt lat="47.35523" lon="-1.92379">
        <ele>46</ele>
        <time>2016-04-24T07:10:23Z</time>
      </trkpt>
      <trkpt lat="47.35517" lon="-1.92378">
        <ele>46</ele>
        <time>2016-04-24T07:10:27Z</time>
      </trkpt>
      <trkpt lat="47.35514" lon="-1.92377">
        <ele>46</ele>
        <time>2016-04-24T07:10:28Z</time>
      </trkpt>
      <trkpt lat="47.35511" lon="-1.92373">
        <ele>47</ele>
        <time>2016-04-24T07:10:30Z</time>
      </trkpt>
      <trkpt lat="47.35508" lon="-1.9237">
        <ele>47</ele>
        <time>2016-04-24T07:10:32Z</time>
      </trkpt>
      <trkpt lat="47.35507" lon="-1.92366">
        <ele>47</ele>
        <time>2016-04-24T07:10:34Z</time>
      </trkpt>
      <trkpt lat="47.35505" lon="-1.92361">
        <ele>47</ele>
        <time>2016-04-24T07:10:36Z</time>
      </trkpt>
      <trkpt lat="47.355" lon="-1.92356">
        <ele>48</ele>
        <time>2016-04-24T07:10:38Z</time>
      </trkpt>
      <trkpt lat="47.35498" lon="-1.92353">
        <ele>50</ele>
        <time>2016-04-24T07:10:39Z</time>
      </trkpt>
      <trkpt lat="47.35494" lon="-1.92349">
        <ele>50</ele>
        <time>2016-04-24T07:10:41Z</time>
      </trkpt>
      <trkpt lat="47.35491" lon="-1.92347">
        <ele>50</ele>
        <time>2016-04-24T07:10:42Z</time>
      </trkpt>
      <trkpt lat="47.35489" lon="-1.92344">
        <ele>50</ele>
        <time>2016-04-24T07:10:43Z</time>
      </trkpt>
      <trkpt lat="47.35485" lon="-1.92341">
        <ele>50</ele>
        <time>2016-04-24T07:10:44Z</time>
      </trkpt>
      <trkpt lat="47.35482" lon="-1.92337">
        <ele>50</ele>
        <time>2016-04-24T07:10:45Z</time>
      </trkpt>
      <trkpt lat="47.35479" lon="-1.92335">
        <ele>50</ele>
        <time>2016-04-24T07:10:46Z</time>
      </trkpt>
      <trkpt lat="47.35476" lon="-1.92332">
        <ele>52</ele>
        <time>2016-04-24T07:10:47Z</time>
      </trkpt>
      <trkpt lat="47.35474" lon="-1.92329">
        <ele>52</ele>
        <time>2016-04-24T07:10:48Z</time>
      </trkpt>
      <trkpt lat="47.35471" lon="-1.92326">
        <ele>52</ele>
        <time>2016-04-24T07:10:49Z</time>
      </trkpt>
      <trkpt lat="47.35469" lon="-1.92324">
        <ele>52</ele>
        <time>2016-04-24T07:10:50Z</time>
      </trkpt>
      <trkpt lat="47.35467" lon="-1.92321">
        <ele>52</ele>
        <time>2016-04-24T07:10:51Z</time>
      </trkpt>
      <trkpt lat="47.35464" lon="-1.92317">
        <ele>52</ele>
        <time>2016-04-24T07:10:52Z</time>
      </trkpt>
      <trkpt lat="47.35462" lon="-1.92314">
        <ele>52</ele>
        <time>2016-04-24T07:10:53Z</time>
      </trkpt>
      <trkpt lat="47.3546" lon="-1.92312">
        <ele>52</ele>
        <time>2016-04-24T07:10:54Z</time>
      </trkpt>
      <trkpt lat="47.35457" lon="-1.92309">
        <ele>53</ele>
        <time>2016-04-24T07:10:55Z</time>
      </trkpt>
      <trkpt lat="47.35454" lon="-1.92306">
        <ele>53</ele>
        <time>2016-04-24T07:10:56Z</time>
      </trkpt>
      <trkpt lat="47.35452" lon="-1.92302">
        <ele>53</ele>
        <time>2016-04-24T07:10:57Z</time>
      </trkpt>
      <trkpt lat="47.3545" lon="-1.92299">
        <ele>53</ele>
        <time>2016-04-24T07:10:58Z</time>
      </trkpt>
      <trkpt lat="47.35447" lon="-1.92295">
        <ele>53</ele>
        <time>2016-04-24T07:10:59Z</time>
      </trkpt>
      <trkpt lat="47.35445" lon="-1.92292">
        <ele>53</ele>
        <time>2016-04-24T07:11:00Z</time>
      </trkpt>
      <trkpt lat="47.35442" lon="-1.92289">
        <ele>53</ele>
        <time>2016-04-24T07:11:01Z</time>
      </trkpt>
      <trkpt lat="47.35438" lon="-1.92283">
        <ele>53</ele>
        <time>2016-04-24T07:11:03Z</time>
      </trkpt>
      <trkpt lat="47.35435" lon="-1.9228">
        <ele>53</ele>
        <time>2016-04-24T07:11:04Z</time>
      </trkpt>
      <trkpt lat="47.35433" lon="-1.92276">
        <ele>53</ele>
        <time>2016-04-24T07:11:05Z</time>
      </trkpt>
      <trkpt lat="47.35433" lon="-1.92269">
        <ele>54</ele>
        <time>2016-04-24T07:11:07Z</time>
      </trkpt>
      <trkpt lat="47.35435" lon="-1.92264">
        <ele>54</ele>
        <time>2016-04-24T07:11:08Z</time>
      </trkpt>
      <trkpt lat="47.35436" lon="-1.9226">
        <ele>54</ele>
        <time>2016-04-24T07:11:09Z</time>
      </trkpt>
      <trkpt lat="47.35437" lon="-1.92257">
        <ele>54</ele>
        <time>2016-04-24T07:11:10Z</time>
      </trkpt>
      <trkpt lat="47.35437" lon="-1.92253">
        <ele>54</ele>
        <time>2016-04-24T07:11:11Z</time>
      </trkpt>
      <trkpt lat="47.35438" lon="-1.92248">
        <ele>55</ele>
        <time>2016-04-24T07:11:12Z</time>
      </trkpt>
      <trkpt lat="47.35438" lon="-1.92244">
        <ele>55</ele>
        <time>2016-04-24T07:11:13Z</time>
      </trkpt>
      <trkpt lat="47.35439" lon="-1.9224">
        <ele>56</ele>
        <time>2016-04-24T07:11:14Z</time>
      </trkpt>
      <trkpt lat="47.3544" lon="-1.92236">
        <ele>56</ele>
        <time>2016-04-24T07:11:15Z</time>
      </trkpt>
      <trkpt lat="47.35441" lon="-1.92232">
        <ele>56</ele>
        <time>2016-04-24T07:11:16Z</time>
      </trkpt>
      <trkpt lat="47.35442" lon="-1.92227">
        <ele>56</ele>
        <time>2016-04-24T07:11:17Z</time>
      </trkpt>
      <trkpt lat="47.35442" lon="-1.92222">
        <ele>56</ele>
        <time>2016-04-24T07:11:18Z</time>
      </trkpt>
      <trkpt lat="47.35442" lon="-1.92218">
        <ele>56</ele>
        <time>2016-04-24T07:11:19Z</time>
      </trkpt>
      <trkpt lat="47.3544" lon="-1.92214">
        <ele>56</ele>
        <time>2016-04-24T07:11:20Z</time>
      </trkpt>
      <trkpt lat="47.35439" lon="-1.9221">
        <ele>56</ele>
        <time>2016-04-24T07:11:21Z</time>
      </trkpt>
      <trkpt lat="47.35436" lon="-1.92204">
        <ele>56</ele>
        <time>2016-04-24T07:11:23Z</time>
      </trkpt>
      <trkpt lat="47.35434" lon="-1.922">
        <ele>57</ele>
        <time>2016-04-24T07:11:24Z</time>
      </trkpt>
      <trkpt lat="47.35432" lon="-1.92196">
        <ele>57</ele>
        <time>2016-04-24T07:11:25Z</time>
      </trkpt>
      <trkpt lat="47.3543" lon="-1.92193">
        <ele>57</ele>
        <time>2016-04-24T07:11:26Z</time>
      </trkpt>
      <trkpt lat="47.35429" lon="-1.92189">
        <ele>57</ele>
        <time>2016-04-24T07:11:27Z</time>
      </trkpt>
      <trkpt lat="47.35427" lon="-1.92186">
        <ele>57</ele>
        <time>2016-04-24T07:11:28Z</time>
      </trkpt>
      <trkpt lat="47.35425" lon="-1.92182">
        <ele>57</ele>
        <time>2016-04-24T07:11:29Z</time>
      </trkpt>
      <trkpt lat="47.35424" lon="-1.92179">
        <ele>58</ele>
        <time>2016-04-24T07:11:30Z</time>
      </trkpt>
      <trkpt lat="47.35422" lon="-1.92175">
        <ele>58</ele>
        <time>2016-04-24T07:11:31Z</time>
      </trkpt>
      <trkpt lat="47.35421" lon="-1.92172">
        <ele>58</ele>
        <time>2016-04-24T07:11:32Z</time>
      </trkpt>
      <trkpt lat="47.35419" lon="-1.92168">
        <ele>59</ele>
        <time>2016-04-24T07:11:33Z</time>
      </trkpt>
      <trkpt lat="47.35417" lon="-1.92164">
        <ele>59</ele>
        <time>2016-04-24T07:11:34Z</time>
      </trkpt>
      <trkpt lat="47.35416" lon="-1.9216">
        <ele>59</ele>
        <time>2016-04-24T07:11:35Z</time>
      </trkpt>
      <trkpt lat="47.35414" lon="-1.92157">
        <ele>59</ele>
        <time>2016-04-24T07:11:36Z</time>
      </trkpt>
      <trkpt lat="47.35413" lon="-1.92153">
        <ele>59</ele>
        <time>2016-04-24T07:11:37Z</time>
      </trkpt>
      <trkpt lat="47.35411" lon="-1.92149">
        <ele>59</ele>
        <time>2016-04-24T07:11:38Z</time>
      </trkpt>
      <trkpt lat="47.3541" lon="-1.92146">
        <ele>59</ele>
        <time>2016-04-24T07:11:39Z</time>
      </trkpt>
      <trkpt lat="47.35408" lon="-1.92142">
        <ele>59</ele>
        <time>2016-04-24T07:11:40Z</time>
      </trkpt>
      <trkpt lat="47.35407" lon="-1.92138">
        <ele>59</ele>
        <time>2016-04-24T07:11:41Z</time>
      </trkpt>
      <trkpt lat="47.35405" lon="-1.92133">
        <ele>59</ele>
        <time>2016-04-24T07:11:42Z</time>
      </trkpt>
      <trkpt lat="47.35404" lon="-1.92129">
        <ele>59</ele>
        <time>2016-04-24T07:11:43Z</time>
      </trkpt>
      <trkpt lat="47.35402" lon="-1.92125">
        <ele>59</ele>
        <time>2016-04-24T07:11:44Z</time>
      </trkpt>
      <trkpt lat="47.35399" lon="-1.92122">
        <ele>59</ele>
        <time>2016-04-24T07:11:45Z</time>
      </trkpt>
      <trkpt lat="47.35397" lon="-1.92118">
        <ele>59</ele>
        <time>2016-04-24T07:11:46Z</time>
      </trkpt>
      <trkpt lat="47.35395" lon="-1.92116">
        <ele>59</ele>
        <time>2016-04-24T07:11:47Z</time>
      </trkpt>
      <trkpt lat="47.35392" lon="-1.92112">
        <ele>59</ele>
        <time>2016-04-24T07:11:48Z</time>
      </trkpt>
      <trkpt lat="47.3539" lon="-1.92108">
        <ele>59</ele>
        <time>2016-04-24T07:11:49Z</time>
      </trkpt>
      <trkpt lat="47.35388" lon="-1.92105">
        <ele>59</ele>
        <time>2016-04-24T07:11:50Z</time>
      </trkpt>
      <trkpt lat="47.35387" lon="-1.92101">
        <ele>59</ele>
        <time>2016-04-24T07:11:51Z</time>
      </trkpt>
      <trkpt lat="47.35385" lon="-1.92097">
        <ele>59</ele>
        <time>2016-04-24T07:11:52Z</time>
      </trkpt>
      <trkpt lat="47.35383" lon="-1.92093">
        <ele>59</ele>
        <time>2016-04-24T07:11:53Z</time>
      </trkpt>
      <trkpt lat="47.35382" lon="-1.92089">
        <ele>59</ele>
        <time>2016-04-24T07:11:54Z</time>
      </trkpt>
      <trkpt lat="47.35381" lon="-1.92085">
        <ele>59</ele>
        <time>2016-04-24T07:11:55Z</time>
      </trkpt>
      <trkpt lat="47.35379" lon="-1.92081">
        <ele>61</ele>
        <time>2016-04-24T07:11:56Z</time>
      </trkpt>
      <trkpt lat="47.35378" lon="-1.92077">
        <ele>61</ele>
        <time>2016-04-24T07:11:57Z</time>
      </trkpt>
      <trkpt lat="47.35379" lon="-1.92073">
        <ele>61</ele>
        <time>2016-04-24T07:11:58Z</time>
      </trkpt>
      <trkpt lat="47.35382" lon="-1.92066">
        <ele>61</ele>
        <time>2016-04-24T07:12:00Z</time>
      </trkpt>
      <trkpt lat="47.35384" lon="-1.92062">
        <ele>61</ele>
        <time>2016-04-24T07:12:01Z</time>
      </trkpt>
      <trkpt lat="47.35386" lon="-1.92059">
        <ele>61</ele>
        <time>2016-04-24T07:12:02Z</time>
      </trkpt>
      <trkpt lat="47.35388" lon="-1.92055">
        <ele>61</ele>
        <time>2016-04-24T07:12:03Z</time>
      </trkpt>
      <trkpt lat="47.3539" lon="-1.92051">
        <ele>61</ele>
        <time>2016-04-24T07:12:04Z</time>
      </trkpt>
      <trkpt lat="47.35392" lon="-1.92047">
        <ele>61</ele>
        <time>2016-04-24T07:12:05Z</time>
      </trkpt>
      <trkpt lat="47.35395" lon="-1.92043">
        <ele>61</ele>
        <time>2016-04-24T07:12:06Z</time>
      </trkpt>
      <trkpt lat="47.35397" lon="-1.9204">
        <ele>62</ele>
        <time>2016-04-24T07:12:07Z</time>
      </trkpt>
      <trkpt lat="47.35399" lon="-1.92037">
        <ele>62</ele>
        <time>2016-04-24T07:12:08Z</time>
      </trkpt>
      <trkpt lat="47.35401" lon="-1.9203">
        <ele>62</ele>
        <time>2016-04-24T07:12:10Z</time>
      </trkpt>
      <trkpt lat="47.35403" lon="-1.92025">
        <ele>62</ele>
        <time>2016-04-24T07:12:11Z</time>
      </trkpt>
      <trkpt lat="47.35404" lon="-1.9202">
        <ele>62</ele>
        <time>2016-04-24T07:12:12Z</time>
      </trkpt>
      <trkpt lat="47.35407" lon="-1.92015">
        <ele>63</ele>
        <time>2016-04-24T07:12:13Z</time>
      </trkpt>
      <trkpt lat="47.35408" lon="-1.9201">
        <ele>63</ele>
        <time>2016-04-24T07:12:14Z</time>
      </trkpt>
      <trkpt lat="47.3541" lon="-1.92006">
        <ele>63</ele>
        <time>2016-04-24T07:12:15Z</time>
      </trkpt>
      <trkpt lat="47.35411" lon="-1.92001">
        <ele>63</ele>
        <time>2016-04-24T07:12:16Z</time>
      </trkpt>
      <trkpt lat="47.35412" lon="-1.91996">
        <ele>64</ele>
        <time>2016-04-24T07:12:17Z</time>
      </trkpt>
      <trkpt lat="47.35414" lon="-1.91991">
        <ele>64</ele>
        <time>2016-04-24T07:12:18Z</time>
      </trkpt>
      <trkpt lat="47.35415" lon="-1.91985">
        <ele>64</ele>
        <time>2016-04-24T07:12:19Z</time>
      </trkpt>
      <trkpt lat="47.35414" lon="-1.9198">
        <ele>64</ele>
        <time>2016-04-24T07:12:20Z</time>
      </trkpt>
      <trkpt lat="47.35414" lon="-1.91975">
        <ele>64</ele>
        <time>2016-04-24T07:12:21Z</time>
      </trkpt>
      <trkpt lat="47.35413" lon="-1.9197">
        <ele>63</ele>
        <time>2016-04-24T07:12:22Z</time>
      </trkpt>
      <trkpt lat="47.35412" lon="-1.91965">
        <ele>63</ele>
        <time>2016-04-24T07:12:23Z</time>
      </trkpt>
      <trkpt lat="47.3541" lon="-1.9196">
        <ele>64</ele>
        <time>2016-04-24T07:12:24Z</time>
      </trkpt>
      <trkpt lat="47.35408" lon="-1.91955">
        <ele>64</ele>
        <time>2016-04-24T07:12:25Z</time>
      </trkpt>
      <trkpt lat="47.35407" lon="-1.9195">
        <ele>64</ele>
        <time>2016-04-24T07:12:26Z</time>
      </trkpt>
      <trkpt lat="47.35405" lon="-1.91944">
        <ele>64</ele>
        <time>2016-04-24T07:12:27Z</time>
      </trkpt>
      <trkpt lat="47.35404" lon="-1.91939">
        <ele>64</ele>
        <time>2016-04-24T07:12:28Z</time>
      </trkpt>
      <trkpt lat="47.35402" lon="-1.91933">
        <ele>64</ele>
        <time>2016-04-24T07:12:29Z</time>
      </trkpt>
      <trkpt lat="47.354" lon="-1.91927">
        <ele>64</ele>
        <time>2016-04-24T07:12:30Z</time>
      </trkpt>
      <trkpt lat="47.35399" lon="-1.91922">
        <ele>64</ele>
        <time>2016-04-24T07:12:31Z</time>
      </trkpt>
      <trkpt lat="47.35398" lon="-1.91917">
        <ele>64</ele>
        <time>2016-04-24T07:12:32Z</time>
      </trkpt>
      <trkpt lat="47.35397" lon="-1.91912">
        <ele>64</ele>
        <time>2016-04-24T07:12:33Z</time>
      </trkpt>
      <trkpt lat="47.35397" lon="-1.91907">
        <ele>64</ele>
        <time>2016-04-24T07:12:34Z</time>
      </trkpt>
      <trkpt lat="47.35396" lon="-1.91902">
        <ele>64</ele>
        <time>2016-04-24T07:12:35Z</time>
      </trkpt>
      <trkpt lat="47.35395" lon="-1.91897">
        <ele>64</ele>
        <time>2016-04-24T07:12:36Z</time>
      </trkpt>
      <trkpt lat="47.35395" lon="-1.91893">
        <ele>64</ele>
        <time>2016-04-24T07:12:37Z</time>
      </trkpt>
      <trkpt lat="47.35394" lon="-1.91887">
        <ele>64</ele>
        <time>2016-04-24T07:12:38Z</time>
      </trkpt>
      <trkpt lat="47.35393" lon="-1.91882">
        <ele>64</ele>
        <time>2016-04-24T07:12:39Z</time>
      </trkpt>
      <trkpt lat="47.35392" lon="-1.91878">
        <ele>64</ele>
        <time>2016-04-24T07:12:40Z</time>
      </trkpt>
      <trkpt lat="47.35391" lon="-1.91873">
        <ele>64</ele>
        <time>2016-04-24T07:12:41Z</time>
      </trkpt>
      <trkpt lat="47.35391" lon="-1.91868">
        <ele>64</ele>
        <time>2016-04-24T07:12:42Z</time>
      </trkpt>
      <trkpt lat="47.3539" lon="-1.91863">
        <ele>64</ele>
        <time>2016-04-24T07:12:43Z</time>
      </trkpt>
      <trkpt lat="47.35389" lon="-1.91858">
        <ele>64</ele>
        <time>2016-04-24T07:12:44Z</time>
      </trkpt>
      <trkpt lat="47.35388" lon="-1.91853">
        <ele>65</ele>
        <time>2016-04-24T07:12:45Z</time>
      </trkpt>
      <trkpt lat="47.35388" lon="-1.91849">
        <ele>65</ele>
        <time>2016-04-24T07:12:46Z</time>
      </trkpt>
      <trkpt lat="47.35387" lon="-1.91844">
        <ele>65</ele>
        <time>2016-04-24T07:12:47Z</time>
      </trkpt>
      <trkpt lat="47.35386" lon="-1.91839">
        <ele>65</ele>
        <time>2016-04-24T07:12:48Z</time>
      </trkpt>
      <trkpt lat="47.35384" lon="-1.91834">
        <ele>65</ele>
        <time>2016-04-24T07:12:49Z</time>
      </trkpt>
      <trkpt lat="47.35382" lon="-1.91829">
        <ele>65</ele>
        <time>2016-04-24T07:12:50Z</time>
      </trkpt>
      <trkpt lat="47.3538" lon="-1.91824">
        <ele>65</ele>
        <time>2016-04-24T07:12:51Z</time>
      </trkpt>
      <trkpt lat="47.35378" lon="-1.91819">
        <ele>65</ele>
        <time>2016-04-24T07:12:52Z</time>
      </trkpt>
      <trkpt lat="47.35375" lon="-1.91813">
        <ele>65</ele>
        <time>2016-04-24T07:12:53Z</time>
      </trkpt>
      <trkpt lat="47.35373" lon="-1.91808">
        <ele>65</ele>
        <time>2016-04-24T07:12:54Z</time>
      </trkpt>
      <trkpt lat="47.3537" lon="-1.91801">
        <ele>65</ele>
        <time>2016-04-24T07:12:55Z</time>
      </trkpt>
      <trkpt lat="47.35367" lon="-1.91796">
        <ele>65</ele>
        <time>2016-04-24T07:12:56Z</time>
      </trkpt>
      <trkpt lat="47.35365" lon="-1.9179">
        <ele>65</ele>
        <time>2016-04-24T07:12:57Z</time>
      </trkpt>
      <trkpt lat="47.35362" lon="-1.91783">
        <ele>65</ele>
        <time>2016-04-24T07:12:58Z</time>
      </trkpt>
      <trkpt lat="47.3536" lon="-1.91777">
        <ele>65</ele>
        <time>2016-04-24T07:12:59Z</time>
      </trkpt>
      <trkpt lat="47.35357" lon="-1.91771">
        <ele>65</ele>
        <time>2016-04-24T07:13:00Z</time>
      </trkpt>
      <trkpt lat="47.35355" lon="-1.91765">
        <ele>65</ele>
        <time>2016-04-24T07:13:01Z</time>
      </trkpt>
      <trkpt lat="47.35352" lon="-1.91759">
        <ele>65</ele>
        <time>2016-04-24T07:13:02Z</time>
      </trkpt>
      <trkpt lat="47.3535" lon="-1.91754">
        <ele>65</ele>
        <time>2016-04-24T07:13:03Z</time>
      </trkpt>
      <trkpt lat="47.35347" lon="-1.91748">
        <ele>66</ele>
        <time>2016-04-24T07:13:04Z</time>
      </trkpt>
      <trkpt lat="47.35345" lon="-1.91742">
        <ele>66</ele>
        <time>2016-04-24T07:13:05Z</time>
      </trkpt>
      <trkpt lat="47.35343" lon="-1.91737">
        <ele>66</ele>
        <time>2016-04-24T07:13:06Z</time>
      </trkpt>
      <trkpt lat="47.35341" lon="-1.91731">
        <ele>66</ele>
        <time>2016-04-24T07:13:07Z</time>
      </trkpt>
      <trkpt lat="47.35339" lon="-1.91725">
        <ele>66</ele>
        <time>2016-04-24T07:13:08Z</time>
      </trkpt>
      <trkpt lat="47.35336" lon="-1.91719">
        <ele>66</ele>
        <time>2016-04-24T07:13:09Z</time>
      </trkpt>
      <trkpt lat="47.35334" lon="-1.91713">
        <ele>66</ele>
        <time>2016-04-24T07:13:10Z</time>
      </trkpt>
      <trkpt lat="47.35332" lon="-1.91707">
        <ele>65</ele>
        <time>2016-04-24T07:13:11Z</time>
      </trkpt>
      <trkpt lat="47.35329" lon="-1.91701">
        <ele>65</ele>
        <time>2016-04-24T07:13:12Z</time>
      </trkpt>
      <trkpt lat="47.35327" lon="-1.91695">
        <ele>65</ele>
        <time>2016-04-24T07:13:13Z</time>
      </trkpt>
      <trkpt lat="47.35325" lon="-1.91689">
        <ele>65</ele>
        <time>2016-04-24T07:13:14Z</time>
      </trkpt>
      <trkpt lat="47.35323" lon="-1.91683">
        <ele>65</ele>
        <time>2016-04-24T07:13:15Z</time>
      </trkpt>
      <trkpt lat="47.35321" lon="-1.91677">
        <ele>65</ele>
        <time>2016-04-24T07:13:16Z</time>
      </trkpt>
      <trkpt lat="47.35318" lon="-1.91671">
        <ele>65</ele>
        <time>2016-04-24T07:13:17Z</time>
      </trkpt>
      <trkpt lat="47.35317" lon="-1.91666">
        <ele>65</ele>
        <time>2016-04-24T07:13:18Z</time>
      </trkpt>
      <trkpt lat="47.35315" lon="-1.9166">
        <ele>66</ele>
        <time>2016-04-24T07:13:19Z</time>
      </trkpt>
      <trkpt lat="47.35313" lon="-1.91654">
        <ele>66</ele>
        <time>2016-04-24T07:13:20Z</time>
      </trkpt>
      <trkpt lat="47.35311" lon="-1.91648">
        <ele>66</ele>
        <time>2016-04-24T07:13:21Z</time>
      </trkpt>
      <trkpt lat="47.3531" lon="-1.91642">
        <ele>66</ele>
        <time>2016-04-24T07:13:22Z</time>
      </trkpt>
      <trkpt lat="47.35309" lon="-1.91636">
        <ele>66</ele>
        <time>2016-04-24T07:13:23Z</time>
      </trkpt>
      <trkpt lat="47.35307" lon="-1.91629">
        <ele>66</ele>
        <time>2016-04-24T07:13:24Z</time>
      </trkpt>
      <trkpt lat="47.35306" lon="-1.91623">
        <ele>66</ele>
        <time>2016-04-24T07:13:25Z</time>
      </trkpt>
      <trkpt lat="47.35304" lon="-1.91617">
        <ele>66</ele>
        <time>2016-04-24T07:13:26Z</time>
      </trkpt>
      <trkpt lat="47.35302" lon="-1.91612">
        <ele>66</ele>
        <time>2016-04-24T07:13:27Z</time>
      </trkpt>
      <trkpt lat="47.353" lon="-1.91606">
        <ele>66</ele>
        <time>2016-04-24T07:13:28Z</time>
      </trkpt>
      <trkpt lat="47.35299" lon="-1.91601">
        <ele>66</ele>
        <time>2016-04-24T07:13:29Z</time>
      </trkpt>
      <trkpt lat="47.35297" lon="-1.91596">
        <ele>66</ele>
        <time>2016-04-24T07:13:30Z</time>
      </trkpt>
      <trkpt lat="47.35295" lon="-1.91592">
        <ele>66</ele>
        <time>2016-04-24T07:13:31Z</time>
      </trkpt>
      <trkpt lat="47.35291" lon="-1.91591">
        <ele>66</ele>
        <time>2016-04-24T07:13:32Z</time>
      </trkpt>
      <trkpt lat="47.35289" lon="-1.91593">
        <ele>66</ele>
        <time>2016-04-24T07:13:33Z</time>
      </trkpt>
      <trkpt lat="47.35285" lon="-1.91595">
        <ele>66</ele>
        <time>2016-04-24T07:13:34Z</time>
      </trkpt>
      <trkpt lat="47.35282" lon="-1.91599">
        <ele>66</ele>
        <time>2016-04-24T07:13:35Z</time>
      </trkpt>
      <trkpt lat="47.35278" lon="-1.91602">
        <ele>66</ele>
        <time>2016-04-24T07:13:36Z</time>
      </trkpt>
      <trkpt lat="47.35271" lon="-1.91607">
        <ele>66</ele>
        <time>2016-04-24T07:13:37Z</time>
      </trkpt>
      <trkpt lat="47.35266" lon="-1.9161">
        <ele>66</ele>
        <time>2016-04-24T07:13:38Z</time>
      </trkpt>
      <trkpt lat="47.35261" lon="-1.91614">
        <ele>66</ele>
        <time>2016-04-24T07:13:39Z</time>
      </trkpt>
      <trkpt lat="47.35256" lon="-1.91619">
        <ele>66</ele>
        <time>2016-04-24T07:13:40Z</time>
      </trkpt>
      <trkpt lat="47.35248" lon="-1.91624">
        <ele>65</ele>
        <time>2016-04-24T07:13:41Z</time>
      </trkpt>
      <trkpt lat="47.35244" lon="-1.91628">
        <ele>65</ele>
        <time>2016-04-24T07:13:42Z</time>
      </trkpt>
      <trkpt lat="47.35241" lon="-1.91631">
        <ele>65</ele>
        <time>2016-04-24T07:13:43Z</time>
      </trkpt>
      <trkpt lat="47.35236" lon="-1.91633">
        <ele>65</ele>
        <time>2016-04-24T07:13:44Z</time>
      </trkpt>
      <trkpt lat="47.35231" lon="-1.9164">
        <ele>65</ele>
        <time>2016-04-24T07:13:45Z</time>
      </trkpt>
      <trkpt lat="47.35225" lon="-1.91645">
        <ele>65</ele>
        <time>2016-04-24T07:13:46Z</time>
      </trkpt>
      <trkpt lat="47.35221" lon="-1.91649">
        <ele>65</ele>
        <time>2016-04-24T07:13:47Z</time>
      </trkpt>
      <trkpt lat="47.35214" lon="-1.91654">
        <ele>65</ele>
        <time>2016-04-24T07:13:48Z</time>
      </trkpt>
      <trkpt lat="47.35208" lon="-1.9166">
        <ele>64</ele>
        <time>2016-04-24T07:13:49Z</time>
      </trkpt>
      <trkpt lat="47.35204" lon="-1.91665">
        <ele>64</ele>
        <time>2016-04-24T07:13:50Z</time>
      </trkpt>
      <trkpt lat="47.35198" lon="-1.91671">
        <ele>63</ele>
        <time>2016-04-24T07:13:51Z</time>
      </trkpt>
      <trkpt lat="47.35194" lon="-1.91678">
        <ele>63</ele>
        <time>2016-04-24T07:13:52Z</time>
      </trkpt>
      <trkpt lat="47.35189" lon="-1.91684">
        <ele>63</ele>
        <time>2016-04-24T07:13:53Z</time>
      </trkpt>
      <trkpt lat="47.35185" lon="-1.9169">
        <ele>63</ele>
        <time>2016-04-24T07:13:54Z</time>
      </trkpt>
      <trkpt lat="47.35183" lon="-1.91696">
        <ele>63</ele>
        <time>2016-04-24T07:13:55Z</time>
      </trkpt>
      <trkpt lat="47.35179" lon="-1.91699">
        <ele>63</ele>
        <time>2016-04-24T07:13:56Z</time>
      </trkpt>
      <trkpt lat="47.35173" lon="-1.91704">
        <ele>63</ele>
        <time>2016-04-24T07:13:57Z</time>
      </trkpt>
      <trkpt lat="47.35166" lon="-1.91708">
        <ele>61</ele>
        <time>2016-04-24T07:13:58Z</time>
      </trkpt>
      <trkpt lat="47.35159" lon="-1.91713">
        <ele>60</ele>
        <time>2016-04-24T07:13:59Z</time>
      </trkpt>
      <trkpt lat="47.35152" lon="-1.91716">
        <ele>60</ele>
        <time>2016-04-24T07:14:00Z</time>
      </trkpt>
      <trkpt lat="47.35146" lon="-1.91721">
        <ele>60</ele>
        <time>2016-04-24T07:14:01Z</time>
      </trkpt>
      <trkpt lat="47.35138" lon="-1.91727">
        <ele>60</ele>
        <time>2016-04-24T07:14:02Z</time>
      </trkpt>
      <trkpt lat="47.35131" lon="-1.91733">
        <ele>60</ele>
        <time>2016-04-24T07:14:03Z</time>
      </trkpt>
      <trkpt lat="47.35125" lon="-1.91738">
        <ele>60</ele>
        <time>2016-04-24T07:14:04Z</time>
      </trkpt>
      <trkpt lat="47.35117" lon="-1.91744">
        <ele>60</ele>
        <time>2016-04-24T07:14:05Z</time>
      </trkpt>
      <trkpt lat="47.35109" lon="-1.91751">
        <ele>59</ele>
        <time>2016-04-24T07:14:06Z</time>
      </trkpt>
      <trkpt lat="47.35103" lon="-1.91758">
        <ele>59</ele>
        <time>2016-04-24T07:14:07Z</time>
      </trkpt>
      <trkpt lat="47.35095" lon="-1.91764">
        <ele>58</ele>
        <time>2016-04-24T07:14:08Z</time>
      </trkpt>
      <trkpt lat="47.35089" lon="-1.9177">
        <ele>58</ele>
        <time>2016-04-24T07:14:09Z</time>
      </trkpt>
      <trkpt lat="47.35084" lon="-1.91776">
        <ele>58</ele>
        <time>2016-04-24T07:14:10Z</time>
      </trkpt>
      <trkpt lat="47.35078" lon="-1.91781">
        <ele>58</ele>
        <time>2016-04-24T07:14:11Z</time>
      </trkpt>
      <trkpt lat="47.35072" lon="-1.91787">
        <ele>58</ele>
        <time>2016-04-24T07:14:12Z</time>
      </trkpt>
      <trkpt lat="47.35067" lon="-1.91792">
        <ele>58</ele>
        <time>2016-04-24T07:14:13Z</time>
      </trkpt>
      <trkpt lat="47.35062" lon="-1.91798">
        <ele>58</ele>
        <time>2016-04-24T07:14:14Z</time>
      </trkpt>
      <trkpt lat="47.35057" lon="-1.91801">
        <ele>58</ele>
        <time>2016-04-24T07:14:15Z</time>
      </trkpt>
      <trkpt lat="47.35052" lon="-1.91805">
        <ele>58</ele>
        <time>2016-04-24T07:14:16Z</time>
      </trkpt>
      <trkpt lat="47.35048" lon="-1.91808">
        <ele>58</ele>
        <time>2016-04-24T07:14:17Z</time>
      </trkpt>
      <trkpt lat="47.35042" lon="-1.91809">
        <ele>58</ele>
        <time>2016-04-24T07:14:18Z</time>
      </trkpt>
      <trkpt lat="47.35037" lon="-1.91813">
        <ele>58</ele>
        <time>2016-04-24T07:14:19Z</time>
      </trkpt>
      <trkpt lat="47.35031" lon="-1.91818">
        <ele>58</ele>
        <time>2016-04-24T07:14:20Z</time>
      </trkpt>
      <trkpt lat="47.35025" lon="-1.91822">
        <ele>58</ele>
        <time>2016-04-24T07:14:21Z</time>
      </trkpt>
      <trkpt lat="47.35018" lon="-1.91827">
        <ele>58</ele>
        <time>2016-04-24T07:14:22Z</time>
      </trkpt>
      <trkpt lat="47.35014" lon="-1.91828">
        <ele>58</ele>
        <time>2016-04-24T07:14:23Z</time>
      </trkpt>
      <trkpt lat="47.35009" lon="-1.91832">
        <ele>58</ele>
        <time>2016-04-24T07:14:24Z</time>
      </trkpt>
      <trkpt lat="47.35004" lon="-1.91836">
        <ele>58</ele>
        <time>2016-04-24T07:14:25Z</time>
      </trkpt>
      <trkpt lat="47.34998" lon="-1.91839">
        <ele>58</ele>
        <time>2016-04-24T07:14:26Z</time>
      </trkpt>
      <trkpt lat="47.34993" lon="-1.91845">
        <ele>58</ele>
        <time>2016-04-24T07:14:27Z</time>
      </trkpt>
      <trkpt lat="47.34988" lon="-1.9185">
        <ele>58</ele>
        <time>2016-04-24T07:14:28Z</time>
      </trkpt>
      <trkpt lat="47.34983" lon="-1.91854">
        <ele>58</ele>
        <time>2016-04-24T07:14:29Z</time>
      </trkpt>
      <trkpt lat="47.34978" lon="-1.91859">
        <ele>58</ele>
        <time>2016-04-24T07:14:30Z</time>
      </trkpt>
      <trkpt lat="47.34973" lon="-1.91863">
        <ele>58</ele>
        <time>2016-04-24T07:14:31Z</time>
      </trkpt>
      <trkpt lat="47.3497" lon="-1.91869">
        <ele>58</ele>
        <time>2016-04-24T07:14:32Z</time>
      </trkpt>
      <trkpt lat="47.34965" lon="-1.91874">
        <ele>58</ele>
        <time>2016-04-24T07:14:33Z</time>
      </trkpt>
      <trkpt lat="47.3496" lon="-1.9188">
        <ele>59</ele>
        <time>2016-04-24T07:14:34Z</time>
      </trkpt>
      <trkpt lat="47.34955" lon="-1.91884">
        <ele>59</ele>
        <time>2016-04-24T07:14:35Z</time>
      </trkpt>
      <trkpt lat="47.3495" lon="-1.91887">
        <ele>59</ele>
        <time>2016-04-24T07:14:36Z</time>
      </trkpt>
      <trkpt lat="47.34944" lon="-1.91892">
        <ele>59</ele>
        <time>2016-04-24T07:14:37Z</time>
      </trkpt>
      <trkpt lat="47.34939" lon="-1.91895">
        <ele>59</ele>
        <time>2016-04-24T07:14:38Z</time>
      </trkpt>
      <trkpt lat="47.34935" lon="-1.919">
        <ele>59</ele>
        <time>2016-04-24T07:14:39Z</time>
      </trkpt>
      <trkpt lat="47.3493" lon="-1.91905">
        <ele>59</ele>
        <time>2016-04-24T07:14:40Z</time>
      </trkpt>
      <trkpt lat="47.34926" lon="-1.91909">
        <ele>59</ele>
        <time>2016-04-24T07:14:41Z</time>
      </trkpt>
      <trkpt lat="47.34922" lon="-1.91912">
        <ele>59</ele>
        <time>2016-04-24T07:14:42Z</time>
      </trkpt>
      <trkpt lat="47.34918" lon="-1.91917">
        <ele>59</ele>
        <time>2016-04-24T07:14:43Z</time>
      </trkpt>
      <trkpt lat="47.34914" lon="-1.91921">
        <ele>59</ele>
        <time>2016-04-24T07:14:44Z</time>
      </trkpt>
      <trkpt lat="47.3491" lon="-1.91925">
        <ele>59</ele>
        <time>2016-04-24T07:14:45Z</time>
      </trkpt>
      <trkpt lat="47.34903" lon="-1.9193">
        <ele>59</ele>
        <time>2016-04-24T07:14:46Z</time>
      </trkpt>
      <trkpt lat="47.34898" lon="-1.91935">
        <ele>58</ele>
        <time>2016-04-24T07:14:47Z</time>
      </trkpt>
      <trkpt lat="47.34893" lon="-1.91941">
        <ele>58</ele>
        <time>2016-04-24T07:14:48Z</time>
      </trkpt>
      <trkpt lat="47.34888" lon="-1.91945">
        <ele>58</ele>
        <time>2016-04-24T07:14:49Z</time>
      </trkpt>
      <trkpt lat="47.34884" lon="-1.91951">
        <ele>58</ele>
        <time>2016-04-24T07:14:51Z</time>
      </trkpt>
      <trkpt lat="47.3488" lon="-1.91954">
        <ele>58</ele>
        <time>2016-04-24T07:14:52Z</time>
      </trkpt>
      <trkpt lat="47.34877" lon="-1.91956">
        <ele>58</ele>
        <time>2016-04-24T07:14:53Z</time>
      </trkpt>
      <trkpt lat="47.34871" lon="-1.91953">
        <ele>58</ele>
        <time>2016-04-24T07:14:54Z</time>
      </trkpt>
      <trkpt lat="47.34865" lon="-1.91951">
        <ele>58</ele>
        <time>2016-04-24T07:14:55Z</time>
      </trkpt>
      <trkpt lat="47.34858" lon="-1.91946">
        <ele>58</ele>
        <time>2016-04-24T07:14:57Z</time>
      </trkpt>
      <trkpt lat="47.34853" lon="-1.91943">
        <ele>58</ele>
        <time>2016-04-24T07:14:58Z</time>
      </trkpt>
      <trkpt lat="47.34848" lon="-1.91941">
        <ele>58</ele>
        <time>2016-04-24T07:14:59Z</time>
      </trkpt>
      <trkpt lat="47.34842" lon="-1.9194">
        <ele>58</ele>
        <time>2016-04-24T07:15:00Z</time>
      </trkpt>
      <trkpt lat="47.34837" lon="-1.91941">
        <ele>58</ele>
        <time>2016-04-24T07:15:01Z</time>
      </trkpt>
      <trkpt lat="47.34832" lon="-1.91945">
        <ele>55</ele>
        <time>2016-04-24T07:15:02Z</time>
      </trkpt>
      <trkpt lat="47.34827" lon="-1.9195">
        <ele>55</ele>
        <time>2016-04-24T07:15:03Z</time>
      </trkpt>
      <trkpt lat="47.34822" lon="-1.91958">
        <ele>54</ele>
        <time>2016-04-24T07:15:04Z</time>
      </trkpt>
      <trkpt lat="47.34817" lon="-1.91963">
        <ele>54</ele>
        <time>2016-04-24T07:15:05Z</time>
      </trkpt>
      <trkpt lat="47.34811" lon="-1.9197">
        <ele>53</ele>
        <time>2016-04-24T07:15:06Z</time>
      </trkpt>
      <trkpt lat="47.34805" lon="-1.91979">
        <ele>53</ele>
        <time>2016-04-24T07:15:07Z</time>
      </trkpt>
      <trkpt lat="47.34801" lon="-1.91986">
        <ele>52</ele>
        <time>2016-04-24T07:15:08Z</time>
      </trkpt>
      <trkpt lat="47.34795" lon="-1.91994">
        <ele>52</ele>
        <time>2016-04-24T07:15:09Z</time>
      </trkpt>
      <trkpt lat="47.34789" lon="-1.92002">
        <ele>48</ele>
        <time>2016-04-24T07:15:10Z</time>
      </trkpt>
      <trkpt lat="47.34781" lon="-1.92016">
        <ele>47</ele>
        <time>2016-04-24T07:15:11Z</time>
      </trkpt>
      <trkpt lat="47.34775" lon="-1.92021">
        <ele>46</ele>
        <time>2016-04-24T07:15:12Z</time>
      </trkpt>
      <trkpt lat="47.34768" lon="-1.92027">
        <ele>46</ele>
        <time>2016-04-24T07:15:13Z</time>
      </trkpt>
      <trkpt lat="47.3476" lon="-1.9203">
        <ele>46</ele>
        <time>2016-04-24T07:15:14Z</time>
      </trkpt>
      <trkpt lat="47.34754" lon="-1.92037">
        <ele>45</ele>
        <time>2016-04-24T07:15:15Z</time>
      </trkpt>
      <trkpt lat="47.34749" lon="-1.92042">
        <ele>38</ele>
        <time>2016-04-24T07:15:16Z</time>
      </trkpt>
      <trkpt lat="47.34743" lon="-1.92047">
        <ele>38</ele>
        <time>2016-04-24T07:15:17Z</time>
      </trkpt>
      <trkpt lat="47.34737" lon="-1.9205">
        <ele>38</ele>
        <time>2016-04-24T07:15:18Z</time>
      </trkpt>
      <trkpt lat="47.34732" lon="-1.92056">
        <ele>37</ele>
        <time>2016-04-24T07:15:19Z</time>
      </trkpt>
      <trkpt lat="47.34725" lon="-1.9206">
        <ele>37</ele>
        <time>2016-04-24T07:15:20Z</time>
      </trkpt>
      <trkpt lat="47.34719" lon="-1.92063">
        <ele>36</ele>
        <time>2016-04-24T07:15:21Z</time>
      </trkpt>
      <trkpt lat="47.34716" lon="-1.92065">
        <ele>36</ele>
        <time>2016-04-24T07:15:22Z</time>
      </trkpt>
      <trkpt lat="47.34713" lon="-1.92066">
        <ele>36</ele>
        <time>2016-04-24T07:15:23Z</time>
      </trkpt>
      <trkpt lat="47.3471" lon="-1.92062">
        <ele>36</ele>
        <time>2016-04-24T07:15:24Z</time>
      </trkpt>
      <trkpt lat="47.34708" lon="-1.92058">
        <ele>36</ele>
        <time>2016-04-24T07:15:25Z</time>
      </trkpt>
      <trkpt lat="47.34707" lon="-1.92052">
        <ele>36</ele>
        <time>2016-04-24T07:15:26Z</time>
      </trkpt>
      <trkpt lat="47.34706" lon="-1.92047">
        <ele>36</ele>
        <time>2016-04-24T07:15:27Z</time>
      </trkpt>
      <trkpt lat="47.34704" lon="-1.92041">
        <ele>36</ele>
        <time>2016-04-24T07:15:28Z</time>
      </trkpt>
      <trkpt lat="47.34702" lon="-1.92036">
        <ele>36</ele>
        <time>2016-04-24T07:15:29Z</time>
      </trkpt>
      <trkpt lat="47.34702" lon="-1.9203">
        <ele>36</ele>
        <time>2016-04-24T07:15:30Z</time>
      </trkpt>
      <trkpt lat="47.34699" lon="-1.92024">
        <ele>36</ele>
        <time>2016-04-24T07:15:31Z</time>
      </trkpt>
      <trkpt lat="47.34696" lon="-1.92018">
        <ele>36</ele>
        <time>2016-04-24T07:15:32Z</time>
      </trkpt>
      <trkpt lat="47.34693" lon="-1.92009">
        <ele>36</ele>
        <time>2016-04-24T07:15:33Z</time>
      </trkpt>
      <trkpt lat="47.3469" lon="-1.92002">
        <ele>36</ele>
        <time>2016-04-24T07:15:34Z</time>
      </trkpt>
      <trkpt lat="47.34689" lon="-1.91994">
        <ele>39</ele>
        <time>2016-04-24T07:15:35Z</time>
      </trkpt>
      <trkpt lat="47.34689" lon="-1.91988">
        <ele>40</ele>
        <time>2016-04-24T07:15:36Z</time>
      </trkpt>
      <trkpt lat="47.34687" lon="-1.91977">
        <ele>40</ele>
        <time>2016-04-24T07:15:37Z</time>
      </trkpt>
      <trkpt lat="47.34684" lon="-1.9197">
        <ele>40</ele>
        <time>2016-04-24T07:15:38Z</time>
      </trkpt>
      <trkpt lat="47.34683" lon="-1.91962">
        <ele>41</ele>
        <time>2016-04-24T07:15:39Z</time>
      </trkpt>
      <trkpt lat="47.3468" lon="-1.91956">
        <ele>41</ele>
        <time>2016-04-24T07:15:40Z</time>
      </trkpt>
      <trkpt lat="47.34679" lon="-1.91948">
        <ele>41</ele>
        <time>2016-04-24T07:15:41Z</time>
      </trkpt>
      <trkpt lat="47.34673" lon="-1.91948">
        <ele>41</ele>
        <time>2016-04-24T07:15:42Z</time>
      </trkpt>
      <trkpt lat="47.34668" lon="-1.91948">
        <ele>41</ele>
        <time>2016-04-24T07:15:43Z</time>
      </trkpt>
      <trkpt lat="47.34661" lon="-1.91953">
        <ele>33</ele>
        <time>2016-04-24T07:15:44Z</time>
      </trkpt>
      <trkpt lat="47.34656" lon="-1.91958">
        <ele>33</ele>
        <time>2016-04-24T07:15:45Z</time>
      </trkpt>
      <trkpt lat="47.34648" lon="-1.91965">
        <ele>32</ele>
        <time>2016-04-24T07:15:46Z</time>
      </trkpt>
      <trkpt lat="47.34642" lon="-1.91971">
        <ele>32</ele>
        <time>2016-04-24T07:15:47Z</time>
      </trkpt>
      <trkpt lat="47.34635" lon="-1.91974">
        <ele>31</ele>
        <time>2016-04-24T07:15:48Z</time>
      </trkpt>
      <trkpt lat="47.34629" lon="-1.91978">
        <ele>31</ele>
        <time>2016-04-24T07:15:49Z</time>
      </trkpt>
      <trkpt lat="47.34626" lon="-1.91979">
        <ele>30</ele>
        <time>2016-04-24T07:15:50Z</time>
      </trkpt>
      <trkpt lat="47.34623" lon="-1.91974">
        <ele>30</ele>
        <time>2016-04-24T07:15:51Z</time>
      </trkpt>
      <trkpt lat="47.34619" lon="-1.9197">
        <ele>30</ele>
        <time>2016-04-24T07:15:52Z</time>
      </trkpt>
      <trkpt lat="47.34618" lon="-1.91963">
        <ele>30</ele>
        <time>2016-04-24T07:15:54Z</time>
      </trkpt>
      <trkpt lat="47.34615" lon="-1.91957">
        <ele>30</ele>
        <time>2016-04-24T07:15:55Z</time>
      </trkpt>
      <trkpt lat="47.34613" lon="-1.9195">
        <ele>30</ele>
        <time>2016-04-24T07:15:56Z</time>
      </trkpt>
      <trkpt lat="47.34613" lon="-1.91945">
        <ele>30</ele>
        <time>2016-04-24T07:15:57Z</time>
      </trkpt>
      <trkpt lat="47.34609" lon="-1.91941">
        <ele>30</ele>
        <time>2016-04-24T07:15:58Z</time>
      </trkpt>
      <trkpt lat="47.34608" lon="-1.91935">
        <ele>30</ele>
        <time>2016-04-24T07:15:59Z</time>
      </trkpt>
      <trkpt lat="47.34612" lon="-1.91924">
        <ele>30</ele>
        <time>2016-04-24T07:16:00Z</time>
      </trkpt>
      <trkpt lat="47.34606" lon="-1.91919">
        <ele>30</ele>
        <time>2016-04-24T07:16:01Z</time>
      </trkpt>
      <trkpt lat="47.34601" lon="-1.91918">
        <ele>29</ele>
        <time>2016-04-24T07:16:02Z</time>
      </trkpt>
      <trkpt lat="47.34599" lon="-1.91924">
        <ele>29</ele>
        <time>2016-04-24T07:16:03Z</time>
      </trkpt>
      <trkpt lat="47.34594" lon="-1.91925">
        <ele>29</ele>
        <time>2016-04-24T07:16:05Z</time>
      </trkpt>
      <trkpt lat="47.3459" lon="-1.91926">
        <ele>28</ele>
        <time>2016-04-24T07:16:06Z</time>
      </trkpt>
      <trkpt lat="47.3458" lon="-1.91923">
        <ele>25</ele>
        <time>2016-04-24T07:16:07Z</time>
      </trkpt>
      <trkpt lat="47.3457" lon="-1.91921">
        <ele>24</ele>
        <time>2016-04-24T07:16:08Z</time>
      </trkpt>
      <trkpt lat="47.34565" lon="-1.91918">
        <ele>23</ele>
        <time>2016-04-24T07:16:09Z</time>
      </trkpt>
      <trkpt lat="47.34568" lon="-1.91911">
        <ele>25</ele>
        <time>2016-04-24T07:16:10Z</time>
      </trkpt>
      <trkpt lat="47.34568" lon="-1.91905">
        <ele>25</ele>
        <time>2016-04-24T07:16:11Z</time>
      </trkpt>
      <trkpt lat="47.34567" lon="-1.91899">
        <ele>25</ele>
        <time>2016-04-24T07:16:12Z</time>
      </trkpt>
      <trkpt lat="47.34567" lon="-1.91893">
        <ele>24</ele>
        <time>2016-04-24T07:16:13Z</time>
      </trkpt>
      <trkpt lat="47.34567" lon="-1.91887">
        <ele>24</ele>
        <time>2016-04-24T07:16:14Z</time>
      </trkpt>
      <trkpt lat="47.34567" lon="-1.91881">
        <ele>25</ele>
        <time>2016-04-24T07:16:15Z</time>
      </trkpt>
      <trkpt lat="47.34566" lon="-1.91874">
        <ele>25</ele>
        <time>2016-04-24T07:16:16Z</time>
      </trkpt>
      <trkpt lat="47.34567" lon="-1.91867">
        <ele>25</ele>
        <time>2016-04-24T07:16:17Z</time>
      </trkpt>
      <trkpt lat="47.34568" lon="-1.91858">
        <ele>26</ele>
        <time>2016-04-24T07:16:18Z</time>
      </trkpt>
      <trkpt lat="47.34568" lon="-1.91853">
        <ele>26</ele>
        <time>2016-04-24T07:16:19Z</time>
      </trkpt>
      <trkpt lat="47.34569" lon="-1.91848">
        <ele>26</ele>
        <time>2016-04-24T07:16:20Z</time>
      </trkpt>
      <trkpt lat="47.34569" lon="-1.9184">
        <ele>27</ele>
        <time>2016-04-24T07:16:21Z</time>
      </trkpt>
      <trkpt lat="47.34569" lon="-1.91831">
        <ele>28</ele>
        <time>2016-04-24T07:16:22Z</time>
      </trkpt>
      <trkpt lat="47.34569" lon="-1.91823">
        <ele>28</ele>
        <time>2016-04-24T07:16:23Z</time>
      </trkpt>
      <trkpt lat="47.3457" lon="-1.91816">
        <ele>28</ele>
        <time>2016-04-24T07:16:24Z</time>
      </trkpt>
      <trkpt lat="47.34569" lon="-1.91809">
        <ele>28</ele>
        <time>2016-04-24T07:16:25Z</time>
      </trkpt>
      <trkpt lat="47.34565" lon="-1.91804">
        <ele>27</ele>
        <time>2016-04-24T07:16:26Z</time>
      </trkpt>
      <trkpt lat="47.34562" lon="-1.91797">
        <ele>27</ele>
        <time>2016-04-24T07:16:27Z</time>
      </trkpt>
      <trkpt lat="47.34556" lon="-1.91791">
        <ele>27</ele>
        <time>2016-04-24T07:16:28Z</time>
      </trkpt>
      <trkpt lat="47.34554" lon="-1.91785">
        <ele>27</ele>
        <time>2016-04-24T07:16:29Z</time>
      </trkpt>
      <trkpt lat="47.34548" lon="-1.91779">
        <ele>27</ele>
        <time>2016-04-24T07:16:30Z</time>
      </trkpt>
      <trkpt lat="47.34544" lon="-1.91773">
        <ele>26</ele>
        <time>2016-04-24T07:16:31Z</time>
      </trkpt>
      <trkpt lat="47.34541" lon="-1.91766">
        <ele>26</ele>
        <time>2016-04-24T07:16:32Z</time>
      </trkpt>
      <trkpt lat="47.34537" lon="-1.91761">
        <ele>26</ele>
        <time>2016-04-24T07:16:33Z</time>
      </trkpt>
      <trkpt lat="47.34534" lon="-1.91756">
        <ele>26</ele>
        <time>2016-04-24T07:16:34Z</time>
      </trkpt>
      <trkpt lat="47.34536" lon="-1.91753">
        <ele>26</ele>
        <time>2016-04-24T07:16:36Z</time>
      </trkpt>
      <trkpt lat="47.34537" lon="-1.91746">
        <ele>28</ele>
        <time>2016-04-24T07:16:38Z</time>
      </trkpt>
      <trkpt lat="47.34539" lon="-1.91743">
        <ele>29</ele>
        <time>2016-04-24T07:16:39Z</time>
      </trkpt>
      <trkpt lat="47.34542" lon="-1.91737">
        <ele>29</ele>
        <time>2016-04-24T07:16:41Z</time>
      </trkpt>
      <trkpt lat="47.34544" lon="-1.91729">
        <ele>29</ele>
        <time>2016-04-24T07:16:43Z</time>
      </trkpt>
      <trkpt lat="47.34546" lon="-1.91726">
        <ele>29</ele>
        <time>2016-04-24T07:16:44Z</time>
      </trkpt>
      <trkpt lat="47.34548" lon="-1.91722">
        <ele>29</ele>
        <time>2016-04-24T07:16:45Z</time>
      </trkpt>
      <trkpt lat="47.3455" lon="-1.91719">
        <ele>29</ele>
        <time>2016-04-24T07:16:46Z</time>
      </trkpt>
      <trkpt lat="47.34553" lon="-1.91716">
        <ele>29</ele>
        <time>2016-04-24T07:16:47Z</time>
      </trkpt>
      <trkpt lat="47.34555" lon="-1.91713">
        <ele>30</ele>
        <time>2016-04-24T07:16:48Z</time>
      </trkpt>
      <trkpt lat="47.34558" lon="-1.91709">
        <ele>30</ele>
        <time>2016-04-24T07:16:49Z</time>
      </trkpt>
      <trkpt lat="47.3456" lon="-1.91706">
        <ele>30</ele>
        <time>2016-04-24T07:16:50Z</time>
      </trkpt>
      <trkpt lat="47.34563" lon="-1.91703">
        <ele>30</ele>
        <time>2016-04-24T07:16:51Z</time>
      </trkpt>
      <trkpt lat="47.34565" lon="-1.91699">
        <ele>30</ele>
        <time>2016-04-24T07:16:52Z</time>
      </trkpt>
      <trkpt lat="47.34567" lon="-1.91696">
        <ele>30</ele>
        <time>2016-04-24T07:16:53Z</time>
      </trkpt>
      <trkpt lat="47.3457" lon="-1.91693">
        <ele>30</ele>
        <time>2016-04-24T07:16:54Z</time>
      </trkpt>
      <trkpt lat="47.34572" lon="-1.91691">
        <ele>31</ele>
        <time>2016-04-24T07:16:55Z</time>
      </trkpt>
      <trkpt lat="47.34575" lon="-1.91688">
        <ele>31</ele>
        <time>2016-04-24T07:16:56Z</time>
      </trkpt>
      <trkpt lat="47.34577" lon="-1.91685">
        <ele>31</ele>
        <time>2016-04-24T07:16:57Z</time>
      </trkpt>
      <trkpt lat="47.3458" lon="-1.91683">
        <ele>31</ele>
        <time>2016-04-24T07:16:58Z</time>
      </trkpt>
      <trkpt lat="47.34583" lon="-1.9168">
        <ele>32</ele>
        <time>2016-04-24T07:16:59Z</time>
      </trkpt>
      <trkpt lat="47.34586" lon="-1.91676">
        <ele>34</ele>
        <time>2016-04-24T07:17:00Z</time>
      </trkpt>
      <trkpt lat="47.34588" lon="-1.91673">
        <ele>34</ele>
        <time>2016-04-24T07:17:01Z</time>
      </trkpt>
      <trkpt lat="47.34591" lon="-1.9167">
        <ele>34</ele>
        <time>2016-04-24T07:17:02Z</time>
      </trkpt>
      <trkpt lat="47.34594" lon="-1.91667">
        <ele>34</ele>
        <time>2016-04-24T07:17:03Z</time>
      </trkpt>
      <trkpt lat="47.34596" lon="-1.91664">
        <ele>36</ele>
        <time>2016-04-24T07:17:04Z</time>
      </trkpt>
      <trkpt lat="47.34599" lon="-1.91662">
        <ele>37</ele>
        <time>2016-04-24T07:17:05Z</time>
      </trkpt>
      <trkpt lat="47.34602" lon="-1.91659">
        <ele>37</ele>
        <time>2016-04-24T07:17:06Z</time>
      </trkpt>
      <trkpt lat="47.34605" lon="-1.91655">
        <ele>37</ele>
        <time>2016-04-24T07:17:07Z</time>
      </trkpt>
      <trkpt lat="47.34607" lon="-1.91652">
        <ele>38</ele>
        <time>2016-04-24T07:17:08Z</time>
      </trkpt>
      <trkpt lat="47.3461" lon="-1.91648">
        <ele>38</ele>
        <time>2016-04-24T07:17:09Z</time>
      </trkpt>
      <trkpt lat="47.34612" lon="-1.91645">
        <ele>39</ele>
        <time>2016-04-24T07:17:10Z</time>
      </trkpt>
      <trkpt lat="47.34615" lon="-1.91642">
        <ele>39</ele>
        <time>2016-04-24T07:17:11Z</time>
      </trkpt>
      <trkpt lat="47.34617" lon="-1.91639">
        <ele>39</ele>
        <time>2016-04-24T07:17:12Z</time>
      </trkpt>
      <trkpt lat="47.3462" lon="-1.91636">
        <ele>39</ele>
        <time>2016-04-24T07:17:13Z</time>
      </trkpt>
      <trkpt lat="47.34622" lon="-1.91634">
        <ele>40</ele>
        <time>2016-04-24T07:17:14Z</time>
      </trkpt>
      <trkpt lat="47.34625" lon="-1.91631">
        <ele>40</ele>
        <time>2016-04-24T07:17:15Z</time>
      </trkpt>
      <trkpt lat="47.34627" lon="-1.91628">
        <ele>40</ele>
        <time>2016-04-24T07:17:16Z</time>
      </trkpt>
      <trkpt lat="47.3463" lon="-1.91625">
        <ele>40</ele>
        <time>2016-04-24T07:17:17Z</time>
      </trkpt>
      <trkpt lat="47.34632" lon="-1.91622">
        <ele>40</ele>
        <time>2016-04-24T07:17:18Z</time>
      </trkpt>
      <trkpt lat="47.34634" lon="-1.91619">
        <ele>40</ele>
        <time>2016-04-24T07:17:19Z</time>
      </trkpt>
      <trkpt lat="47.34637" lon="-1.91616">
        <ele>40</ele>
        <time>2016-04-24T07:17:20Z</time>
      </trkpt>
      <trkpt lat="47.34639" lon="-1.91614">
        <ele>41</ele>
        <time>2016-04-24T07:17:21Z</time>
      </trkpt>
      <trkpt lat="47.34642" lon="-1.91612">
        <ele>41</ele>
        <time>2016-04-24T07:17:22Z</time>
      </trkpt>
      <trkpt lat="47.34645" lon="-1.91609">
        <ele>41</ele>
        <time>2016-04-24T07:17:23Z</time>
      </trkpt>
      <trkpt lat="47.34647" lon="-1.91606">
        <ele>41</ele>
        <time>2016-04-24T07:17:24Z</time>
      </trkpt>
      <trkpt lat="47.34649" lon="-1.91603">
        <ele>41</ele>
        <time>2016-04-24T07:17:25Z</time>
      </trkpt>
      <trkpt lat="47.34652" lon="-1.91601">
        <ele>41</ele>
        <time>2016-04-24T07:17:26Z</time>
      </trkpt>
      <trkpt lat="47.34654" lon="-1.91598">
        <ele>41</ele>
        <time>2016-04-24T07:17:27Z</time>
      </trkpt>
      <trkpt lat="47.34656" lon="-1.91596">
        <ele>41</ele>
        <time>2016-04-24T07:17:28Z</time>
      </trkpt>
      <trkpt lat="47.34659" lon="-1.91594">
        <ele>41</ele>
        <time>2016-04-24T07:17:29Z</time>
      </trkpt>
      <trkpt lat="47.34662" lon="-1.91592">
        <ele>41</ele>
        <time>2016-04-24T07:17:30Z</time>
      </trkpt>
      <trkpt lat="47.34664" lon="-1.9159">
        <ele>42</ele>
        <time>2016-04-24T07:17:31Z</time>
      </trkpt>
      <trkpt lat="47.34667" lon="-1.91589">
        <ele>42</ele>
        <time>2016-04-24T07:17:32Z</time>
      </trkpt>
      <trkpt lat="47.3467" lon="-1.91587">
        <ele>42</ele>
        <time>2016-04-24T07:17:33Z</time>
      </trkpt>
      <trkpt lat="47.34673" lon="-1.91586">
        <ele>42</ele>
        <time>2016-04-24T07:17:34Z</time>
      </trkpt>
      <trkpt lat="47.34675" lon="-1.91584">
        <ele>43</ele>
        <time>2016-04-24T07:17:35Z</time>
      </trkpt>
      <trkpt lat="47.34678" lon="-1.91584">
        <ele>43</ele>
        <time>2016-04-24T07:17:36Z</time>
      </trkpt>
      <trkpt lat="47.34681" lon="-1.91582">
        <ele>45</ele>
        <time>2016-04-24T07:17:37Z</time>
      </trkpt>
      <trkpt lat="47.34686" lon="-1.9158">
        <ele>46</ele>
        <time>2016-04-24T07:17:39Z</time>
      </trkpt>
      <trkpt lat="47.3469" lon="-1.9158">
        <ele>46</ele>
        <time>2016-04-24T07:17:40Z</time>
      </trkpt>
      <trkpt lat="47.34693" lon="-1.91581">
        <ele>47</ele>
        <time>2016-04-24T07:17:41Z</time>
      </trkpt>
      <trkpt lat="47.34696" lon="-1.91583">
        <ele>47</ele>
        <time>2016-04-24T07:17:42Z</time>
      </trkpt>
      <trkpt lat="47.347" lon="-1.91586">
        <ele>44</ele>
        <time>2016-04-24T07:17:43Z</time>
      </trkpt>
      <trkpt lat="47.34703" lon="-1.91588">
        <ele>44</ele>
        <time>2016-04-24T07:17:44Z</time>
      </trkpt>
      <trkpt lat="47.34706" lon="-1.91589">
        <ele>44</ele>
        <time>2016-04-24T07:17:45Z</time>
      </trkpt>
      <trkpt lat="47.34709" lon="-1.91591">
        <ele>44</ele>
        <time>2016-04-24T07:17:46Z</time>
      </trkpt>
      <trkpt lat="47.34712" lon="-1.91593">
        <ele>44</ele>
        <time>2016-04-24T07:17:47Z</time>
      </trkpt>
      <trkpt lat="47.34715" lon="-1.91595">
        <ele>44</ele>
        <time>2016-04-24T07:17:48Z</time>
      </trkpt>
      <trkpt lat="47.34718" lon="-1.91597">
        <ele>44</ele>
        <time>2016-04-24T07:17:49Z</time>
      </trkpt>
      <trkpt lat="47.34721" lon="-1.91597">
        <ele>45</ele>
        <time>2016-04-24T07:17:50Z</time>
      </trkpt>
      <trkpt lat="47.34724" lon="-1.91598">
        <ele>45</ele>
        <time>2016-04-24T07:17:51Z</time>
      </trkpt>
      <trkpt lat="47.34727" lon="-1.91597">
        <ele>45</ele>
        <time>2016-04-24T07:17:52Z</time>
      </trkpt>
      <trkpt lat="47.3473" lon="-1.91597">
        <ele>45</ele>
        <time>2016-04-24T07:17:53Z</time>
      </trkpt>
      <trkpt lat="47.34734" lon="-1.91597">
        <ele>45</ele>
        <time>2016-04-24T07:17:54Z</time>
      </trkpt>
      <trkpt lat="47.34737" lon="-1.91597">
        <ele>45</ele>
        <time>2016-04-24T07:17:55Z</time>
      </trkpt>
      <trkpt lat="47.3474" lon="-1.91597">
        <ele>45</ele>
        <time>2016-04-24T07:17:56Z</time>
      </trkpt>
      <trkpt lat="47.34743" lon="-1.91597">
        <ele>46</ele>
        <time>2016-04-24T07:17:57Z</time>
      </trkpt>
      <trkpt lat="47.34746" lon="-1.91598">
        <ele>46</ele>
        <time>2016-04-24T07:17:58Z</time>
      </trkpt>
      <trkpt lat="47.3475" lon="-1.91598">
        <ele>46</ele>
        <time>2016-04-24T07:17:59Z</time>
      </trkpt>
      <trkpt lat="47.34753" lon="-1.91598">
        <ele>48</ele>
        <time>2016-04-24T07:18:00Z</time>
      </trkpt>
      <trkpt lat="47.34755" lon="-1.91598">
        <ele>48</ele>
        <time>2016-04-24T07:18:01Z</time>
      </trkpt>
      <trkpt lat="47.3476" lon="-1.91596">
        <ele>48</ele>
        <time>2016-04-24T07:18:03Z</time>
      </trkpt>
      <trkpt lat="47.34765" lon="-1.91594">
        <ele>48</ele>
        <time>2016-04-24T07:18:05Z</time>
      </trkpt>
      <trkpt lat="47.34768" lon="-1.91593">
        <ele>48</ele>
        <time>2016-04-24T07:18:07Z</time>
      </trkpt>
      <trkpt lat="47.34772" lon="-1.91593">
        <ele>48</ele>
        <time>2016-04-24T07:18:09Z</time>
      </trkpt>
      <trkpt lat="47.34778" lon="-1.91592">
        <ele>49</ele>
        <time>2016-04-24T07:18:11Z</time>
      </trkpt>
      <trkpt lat="47.34781" lon="-1.91591">
        <ele>49</ele>
        <time>2016-04-24T07:18:12Z</time>
      </trkpt>
      <trkpt lat="47.34784" lon="-1.91591">
        <ele>49</ele>
        <time>2016-04-24T07:18:13Z</time>
      </trkpt>
      <trkpt lat="47.34788" lon="-1.91591">
        <ele>49</ele>
        <time>2016-04-24T07:18:14Z</time>
      </trkpt>
      <trkpt lat="47.34792" lon="-1.9159">
        <ele>49</ele>
        <time>2016-04-24T07:18:15Z</time>
      </trkpt>
      <trkpt lat="47.34796" lon="-1.9159">
        <ele>49</ele>
        <time>2016-04-24T07:18:16Z</time>
      </trkpt>
      <trkpt lat="47.348" lon="-1.9159">
        <ele>49</ele>
        <time>2016-04-24T07:18:17Z</time>
      </trkpt>
      <trkpt lat="47.34803" lon="-1.91589">
        <ele>50</ele>
        <time>2016-04-24T07:18:18Z</time>
      </trkpt>
      <trkpt lat="47.34807" lon="-1.91589">
        <ele>50</ele>
        <time>2016-04-24T07:18:19Z</time>
      </trkpt>
      <trkpt lat="47.34811" lon="-1.91589">
        <ele>50</ele>
        <time>2016-04-24T07:18:20Z</time>
      </trkpt>
      <trkpt lat="47.34814" lon="-1.91589">
        <ele>50</ele>
        <time>2016-04-24T07:18:21Z</time>
      </trkpt>
      <trkpt lat="47.34817" lon="-1.91589">
        <ele>50</ele>
        <time>2016-04-24T07:18:22Z</time>
      </trkpt>
      <trkpt lat="47.3482" lon="-1.91589">
        <ele>50</ele>
        <time>2016-04-24T07:18:23Z</time>
      </trkpt>
      <trkpt lat="47.34823" lon="-1.91589">
        <ele>50</ele>
        <time>2016-04-24T07:18:24Z</time>
      </trkpt>
      <trkpt lat="47.34826" lon="-1.91589">
        <ele>50</ele>
        <time>2016-04-24T07:18:25Z</time>
      </trkpt>
      <trkpt lat="47.34831" lon="-1.91587">
        <ele>51</ele>
        <time>2016-04-24T07:18:27Z</time>
      </trkpt>
      <trkpt lat="47.34836" lon="-1.91585">
        <ele>51</ele>
        <time>2016-04-24T07:18:29Z</time>
      </trkpt>
      <trkpt lat="47.34841" lon="-1.91583">
        <ele>52</ele>
        <time>2016-04-24T07:18:31Z</time>
      </trkpt>
      <trkpt lat="47.34844" lon="-1.91582">
        <ele>52</ele>
        <time>2016-04-24T07:18:32Z</time>
      </trkpt>
      <trkpt lat="47.34847" lon="-1.91581">
        <ele>52</ele>
        <time>2016-04-24T07:18:33Z</time>
      </trkpt>
      <trkpt lat="47.34849" lon="-1.9158">
        <ele>53</ele>
        <time>2016-04-24T07:18:34Z</time>
      </trkpt>
      <trkpt lat="47.34854" lon="-1.91577">
        <ele>53</ele>
        <time>2016-04-24T07:18:36Z</time>
      </trkpt>
      <trkpt lat="47.34857" lon="-1.91575">
        <ele>53</ele>
        <time>2016-04-24T07:18:37Z</time>
      </trkpt>
      <trkpt lat="47.3486" lon="-1.91574">
        <ele>53</ele>
        <time>2016-04-24T07:18:38Z</time>
      </trkpt>
      <trkpt lat="47.34863" lon="-1.91572">
        <ele>53</ele>
        <time>2016-04-24T07:18:39Z</time>
      </trkpt>
      <trkpt lat="47.34866" lon="-1.9157">
        <ele>54</ele>
        <time>2016-04-24T07:18:40Z</time>
      </trkpt>
      <trkpt lat="47.34869" lon="-1.91569">
        <ele>54</ele>
        <time>2016-04-24T07:18:41Z</time>
      </trkpt>
      <trkpt lat="47.34873" lon="-1.91568">
        <ele>54</ele>
        <time>2016-04-24T07:18:42Z</time>
      </trkpt>
      <trkpt lat="47.34876" lon="-1.91567">
        <ele>54</ele>
        <time>2016-04-24T07:18:43Z</time>
      </trkpt>
      <trkpt lat="47.34879" lon="-1.91566">
        <ele>54</ele>
        <time>2016-04-24T07:18:44Z</time>
      </trkpt>
      <trkpt lat="47.34881" lon="-1.91565">
        <ele>54</ele>
        <time>2016-04-24T07:18:45Z</time>
      </trkpt>
      <trkpt lat="47.34886" lon="-1.91563">
        <ele>54</ele>
        <time>2016-04-24T07:18:47Z</time>
      </trkpt>
      <trkpt lat="47.34891" lon="-1.91562">
        <ele>54</ele>
        <time>2016-04-24T07:18:49Z</time>
      </trkpt>
      <trkpt lat="47.34894" lon="-1.91562">
        <ele>54</ele>
        <time>2016-04-24T07:18:50Z</time>
      </trkpt>
      <trkpt lat="47.34897" lon="-1.91562">
        <ele>54</ele>
        <time>2016-04-24T07:18:51Z</time>
      </trkpt>
      <trkpt lat="47.34902" lon="-1.91563">
        <ele>54</ele>
        <time>2016-04-24T07:18:53Z</time>
      </trkpt>
      <trkpt lat="47.34905" lon="-1.91564">
        <ele>54</ele>
        <time>2016-04-24T07:18:54Z</time>
      </trkpt>
      <trkpt lat="47.34908" lon="-1.91564">
        <ele>55</ele>
        <time>2016-04-24T07:18:55Z</time>
      </trkpt>
      <trkpt lat="47.34912" lon="-1.91564">
        <ele>55</ele>
        <time>2016-04-24T07:18:56Z</time>
      </trkpt>
      <trkpt lat="47.34915" lon="-1.91564">
        <ele>55</ele>
        <time>2016-04-24T07:18:57Z</time>
      </trkpt>
      <trkpt lat="47.34918" lon="-1.91564">
        <ele>55</ele>
        <time>2016-04-24T07:18:58Z</time>
      </trkpt>
      <trkpt lat="47.34921" lon="-1.91564">
        <ele>55</ele>
        <time>2016-04-24T07:18:59Z</time>
      </trkpt>
      <trkpt lat="47.34924" lon="-1.91563">
        <ele>55</ele>
        <time>2016-04-24T07:19:00Z</time>
      </trkpt>
      <trkpt lat="47.34927" lon="-1.91562">
        <ele>55</ele>
        <time>2016-04-24T07:19:01Z</time>
      </trkpt>
      <trkpt lat="47.34932" lon="-1.91561">
        <ele>56</ele>
        <time>2016-04-24T07:19:03Z</time>
      </trkpt>
      <trkpt lat="47.34937" lon="-1.91561">
        <ele>56</ele>
        <time>2016-04-24T07:19:05Z</time>
      </trkpt>
      <trkpt lat="47.34942" lon="-1.9156">
        <ele>56</ele>
        <time>2016-04-24T07:19:07Z</time>
      </trkpt>
      <trkpt lat="47.34947" lon="-1.91557">
        <ele>56</ele>
        <time>2016-04-24T07:19:09Z</time>
      </trkpt>
      <trkpt lat="47.34952" lon="-1.91556">
        <ele>56</ele>
        <time>2016-04-24T07:19:11Z</time>
      </trkpt>
      <trkpt lat="47.34956" lon="-1.91555">
        <ele>56</ele>
        <time>2016-04-24T07:19:12Z</time>
      </trkpt>
      <trkpt lat="47.34959" lon="-1.91554">
        <ele>56</ele>
        <time>2016-04-24T07:19:13Z</time>
      </trkpt>
      <trkpt lat="47.34962" lon="-1.91553">
        <ele>56</ele>
        <time>2016-04-24T07:19:14Z</time>
      </trkpt>
      <trkpt lat="47.34966" lon="-1.91552">
        <ele>56</ele>
        <time>2016-04-24T07:19:15Z</time>
      </trkpt>
      <trkpt lat="47.3497" lon="-1.9155">
        <ele>56</ele>
        <time>2016-04-24T07:19:16Z</time>
      </trkpt>
      <trkpt lat="47.34974" lon="-1.91548">
        <ele>56</ele>
        <time>2016-04-24T07:19:17Z</time>
      </trkpt>
      <trkpt lat="47.34978" lon="-1.91546">
        <ele>56</ele>
        <time>2016-04-24T07:19:18Z</time>
      </trkpt>
      <trkpt lat="47.34982" lon="-1.91544">
        <ele>56</ele>
        <time>2016-04-24T07:19:19Z</time>
      </trkpt>
      <trkpt lat="47.34985" lon="-1.91541">
        <ele>56</ele>
        <time>2016-04-24T07:19:20Z</time>
      </trkpt>
      <trkpt lat="47.34988" lon="-1.91539">
        <ele>56</ele>
        <time>2016-04-24T07:19:21Z</time>
      </trkpt>
      <trkpt lat="47.34992" lon="-1.91537">
        <ele>56</ele>
        <time>2016-04-24T07:19:22Z</time>
      </trkpt>
      <trkpt lat="47.34995" lon="-1.91535">
        <ele>56</ele>
        <time>2016-04-24T07:19:23Z</time>
      </trkpt>
      <trkpt lat="47.34998" lon="-1.91532">
        <ele>56</ele>
        <time>2016-04-24T07:19:24Z</time>
      </trkpt>
      <trkpt lat="47.35002" lon="-1.9153">
        <ele>57</ele>
        <time>2016-04-24T07:19:25Z</time>
      </trkpt>
      <trkpt lat="47.35006" lon="-1.91527">
        <ele>57</ele>
        <time>2016-04-24T07:19:26Z</time>
      </trkpt>
      <trkpt lat="47.3501" lon="-1.91525">
        <ele>57</ele>
        <time>2016-04-24T07:19:27Z</time>
      </trkpt>
      <trkpt lat="47.35013" lon="-1.91523">
        <ele>57</ele>
        <time>2016-04-24T07:19:28Z</time>
      </trkpt>
      <trkpt lat="47.35016" lon="-1.91521">
        <ele>57</ele>
        <time>2016-04-24T07:19:29Z</time>
      </trkpt>
      <trkpt lat="47.35019" lon="-1.91519">
        <ele>57</ele>
        <time>2016-04-24T07:19:30Z</time>
      </trkpt>
      <trkpt lat="47.35023" lon="-1.91515">
        <ele>57</ele>
        <time>2016-04-24T07:19:32Z</time>
      </trkpt>
      <trkpt lat="47.35025" lon="-1.91512">
        <ele>57</ele>
        <time>2016-04-24T07:19:34Z</time>
      </trkpt>
      <trkpt lat="47.35029" lon="-1.91508">
        <ele>57</ele>
        <time>2016-04-24T07:19:36Z</time>
      </trkpt>
      <trkpt lat="47.35032" lon="-1.91506">
        <ele>57</ele>
        <time>2016-04-24T07:19:37Z</time>
      </trkpt>
      <trkpt lat="47.35035" lon="-1.91503">
        <ele>57</ele>
        <time>2016-04-24T07:19:38Z</time>
      </trkpt>
      <trkpt lat="47.35038" lon="-1.91501">
        <ele>57</ele>
        <time>2016-04-24T07:19:39Z</time>
      </trkpt>
      <trkpt lat="47.35042" lon="-1.915">
        <ele>56</ele>
        <time>2016-04-24T07:19:40Z</time>
      </trkpt>
      <trkpt lat="47.35045" lon="-1.91497">
        <ele>57</ele>
        <time>2016-04-24T07:19:41Z</time>
      </trkpt>
      <trkpt lat="47.35048" lon="-1.91494">
        <ele>57</ele>
        <time>2016-04-24T07:19:42Z</time>
      </trkpt>
      <trkpt lat="47.35051" lon="-1.91491">
        <ele>57</ele>
        <time>2016-04-24T07:19:43Z</time>
      </trkpt>
      <trkpt lat="47.35054" lon="-1.91488">
        <ele>57</ele>
        <time>2016-04-24T07:19:44Z</time>
      </trkpt>
      <trkpt lat="47.35058" lon="-1.91485">
        <ele>57</ele>
        <time>2016-04-24T07:19:45Z</time>
      </trkpt>
      <trkpt lat="47.35061" lon="-1.91483">
        <ele>57</ele>
        <time>2016-04-24T07:19:46Z</time>
      </trkpt>
      <trkpt lat="47.35066" lon="-1.9148">
        <ele>57</ele>
        <time>2016-04-24T07:19:47Z</time>
      </trkpt>
      <trkpt lat="47.35069" lon="-1.91477">
        <ele>57</ele>
        <time>2016-04-24T07:19:48Z</time>
      </trkpt>
      <trkpt lat="47.35072" lon="-1.91474">
        <ele>57</ele>
        <time>2016-04-24T07:19:49Z</time>
      </trkpt>
      <trkpt lat="47.35075" lon="-1.9147">
        <ele>57</ele>
        <time>2016-04-24T07:19:50Z</time>
      </trkpt>
      <trkpt lat="47.35077" lon="-1.91467">
        <ele>57</ele>
        <time>2016-04-24T07:19:51Z</time>
      </trkpt>
      <trkpt lat="47.35079" lon="-1.91463">
        <ele>57</ele>
        <time>2016-04-24T07:19:52Z</time>
      </trkpt>
      <trkpt lat="47.35082" lon="-1.9146">
        <ele>57</ele>
        <time>2016-04-24T07:19:53Z</time>
      </trkpt>
      <trkpt lat="47.35084" lon="-1.91457">
        <ele>58</ele>
        <time>2016-04-24T07:19:54Z</time>
      </trkpt>
      <trkpt lat="47.35086" lon="-1.91454">
        <ele>58</ele>
        <time>2016-04-24T07:19:55Z</time>
      </trkpt>
      <trkpt lat="47.35089" lon="-1.91452">
        <ele>58</ele>
        <time>2016-04-24T07:19:56Z</time>
      </trkpt>
      <trkpt lat="47.35092" lon="-1.91449">
        <ele>58</ele>
        <time>2016-04-24T07:19:57Z</time>
      </trkpt>
      <trkpt lat="47.35094" lon="-1.91446">
        <ele>58</ele>
        <time>2016-04-24T07:19:58Z</time>
      </trkpt>
      <trkpt lat="47.35097" lon="-1.91443">
        <ele>58</ele>
        <time>2016-04-24T07:19:59Z</time>
      </trkpt>
      <trkpt lat="47.35101" lon="-1.91441">
        <ele>58</ele>
        <time>2016-04-24T07:20:00Z</time>
      </trkpt>
      <trkpt lat="47.35104" lon="-1.91439">
        <ele>58</ele>
        <time>2016-04-24T07:20:01Z</time>
      </trkpt>
      <trkpt lat="47.35107" lon="-1.91437">
        <ele>58</ele>
        <time>2016-04-24T07:20:02Z</time>
      </trkpt>
      <trkpt lat="47.3511" lon="-1.91435">
        <ele>58</ele>
        <time>2016-04-24T07:20:03Z</time>
      </trkpt>
      <trkpt lat="47.35113" lon="-1.91433">
        <ele>58</ele>
        <time>2016-04-24T07:20:04Z</time>
      </trkpt>
      <trkpt lat="47.35116" lon="-1.91431">
        <ele>58</ele>
        <time>2016-04-24T07:20:05Z</time>
      </trkpt>
      <trkpt lat="47.35119" lon="-1.91429">
        <ele>58</ele>
        <time>2016-04-24T07:20:06Z</time>
      </trkpt>
      <trkpt lat="47.35121" lon="-1.91428">
        <ele>58</ele>
        <time>2016-04-24T07:20:07Z</time>
      </trkpt>
      <trkpt lat="47.35124" lon="-1.91427">
        <ele>58</ele>
        <time>2016-04-24T07:20:08Z</time>
      </trkpt>
      <trkpt lat="47.35127" lon="-1.91426">
        <ele>59</ele>
        <time>2016-04-24T07:20:09Z</time>
      </trkpt>
      <trkpt lat="47.3513" lon="-1.91425">
        <ele>59</ele>
        <time>2016-04-24T07:20:10Z</time>
      </trkpt>
      <trkpt lat="47.35133" lon="-1.91424">
        <ele>59</ele>
        <time>2016-04-24T07:20:11Z</time>
      </trkpt>
      <trkpt lat="47.35136" lon="-1.91423">
        <ele>59</ele>
        <time>2016-04-24T07:20:12Z</time>
      </trkpt>
      <trkpt lat="47.35139" lon="-1.91422">
        <ele>59</ele>
        <time>2016-04-24T07:20:13Z</time>
      </trkpt>
      <trkpt lat="47.35142" lon="-1.9142">
        <ele>59</ele>
        <time>2016-04-24T07:20:14Z</time>
      </trkpt>
      <trkpt lat="47.35144" lon="-1.91419">
        <ele>59</ele>
        <time>2016-04-24T07:20:15Z</time>
      </trkpt>
      <trkpt lat="47.35147" lon="-1.91417">
        <ele>59</ele>
        <time>2016-04-24T07:20:16Z</time>
      </trkpt>
      <trkpt lat="47.3515" lon="-1.91416">
        <ele>59</ele>
        <time>2016-04-24T07:20:17Z</time>
      </trkpt>
      <trkpt lat="47.35153" lon="-1.91416">
        <ele>59</ele>
        <time>2016-04-24T07:20:18Z</time>
      </trkpt>
      <trkpt lat="47.35156" lon="-1.91416">
        <ele>59</ele>
        <time>2016-04-24T07:20:19Z</time>
      </trkpt>
      <trkpt lat="47.35158" lon="-1.91415">
        <ele>59</ele>
        <time>2016-04-24T07:20:20Z</time>
      </trkpt>
      <trkpt lat="47.35161" lon="-1.91415">
        <ele>60</ele>
        <time>2016-04-24T07:20:21Z</time>
      </trkpt>
      <trkpt lat="47.35164" lon="-1.91414">
        <ele>60</ele>
        <time>2016-04-24T07:20:22Z</time>
      </trkpt>
      <trkpt lat="47.35167" lon="-1.91413">
        <ele>60</ele>
        <time>2016-04-24T07:20:23Z</time>
      </trkpt>
      <trkpt lat="47.3517" lon="-1.91412">
        <ele>60</ele>
        <time>2016-04-24T07:20:24Z</time>
      </trkpt>
      <trkpt lat="47.35173" lon="-1.91411">
        <ele>60</ele>
        <time>2016-04-24T07:20:25Z</time>
      </trkpt>
      <trkpt lat="47.35176" lon="-1.9141">
        <ele>60</ele>
        <time>2016-04-24T07:20:26Z</time>
      </trkpt>
      <trkpt lat="47.35179" lon="-1.91409">
        <ele>60</ele>
        <time>2016-04-24T07:20:27Z</time>
      </trkpt>
      <trkpt lat="47.35181" lon="-1.91407">
        <ele>61</ele>
        <time>2016-04-24T07:20:28Z</time>
      </trkpt>
      <trkpt lat="47.35186" lon="-1.91405">
        <ele>61</ele>
        <time>2016-04-24T07:20:30Z</time>
      </trkpt>
      <trkpt lat="47.35189" lon="-1.91404">
        <ele>61</ele>
        <time>2016-04-24T07:20:32Z</time>
      </trkpt>
      <trkpt lat="47.35192" lon="-1.91404">
        <ele>61</ele>
        <time>2016-04-24T07:20:34Z</time>
      </trkpt>
      <trkpt lat="47.35194" lon="-1.914">
        <ele>61</ele>
        <time>2016-04-24T07:20:36Z</time>
      </trkpt>
      <trkpt lat="47.35193" lon="-1.91394">
        <ele>61</ele>
        <time>2016-04-24T07:20:38Z</time>
      </trkpt>
      <trkpt lat="47.35191" lon="-1.91387">
        <ele>61</ele>
        <time>2016-04-24T07:20:40Z</time>
      </trkpt>
      <trkpt lat="47.35189" lon="-1.91379">
        <ele>61</ele>
        <time>2016-04-24T07:20:42Z</time>
      </trkpt>
      <trkpt lat="47.35188" lon="-1.91374">
        <ele>61</ele>
        <time>2016-04-24T07:20:43Z</time>
      </trkpt>
      <trkpt lat="47.35186" lon="-1.91365">
        <ele>61</ele>
        <time>2016-04-24T07:20:44Z</time>
      </trkpt>
      <trkpt lat="47.35185" lon="-1.9135">
        <ele>60</ele>
        <time>2016-04-24T07:20:45Z</time>
      </trkpt>
      <trkpt lat="47.35182" lon="-1.91343">
        <ele>60</ele>
        <time>2016-04-24T07:20:46Z</time>
      </trkpt>
      <trkpt lat="47.3518" lon="-1.9133">
        <ele>60</ele>
        <time>2016-04-24T07:20:47Z</time>
      </trkpt>
      <trkpt lat="47.35178" lon="-1.91322">
        <ele>60</ele>
        <time>2016-04-24T07:20:48Z</time>
      </trkpt>
      <trkpt lat="47.35177" lon="-1.91313">
        <ele>60</ele>
        <time>2016-04-24T07:20:49Z</time>
      </trkpt>
      <trkpt lat="47.35177" lon="-1.91302">
        <ele>61</ele>
        <time>2016-04-24T07:20:50Z</time>
      </trkpt>
      <trkpt lat="47.35175" lon="-1.91293">
        <ele>61</ele>
        <time>2016-04-24T07:20:51Z</time>
      </trkpt>
      <trkpt lat="47.35176" lon="-1.91283">
        <ele>61</ele>
        <time>2016-04-24T07:20:52Z</time>
      </trkpt>
      <trkpt lat="47.3518" lon="-1.91271">
        <ele>61</ele>
        <time>2016-04-24T07:20:53Z</time>
      </trkpt>
      <trkpt lat="47.35184" lon="-1.91265">
        <ele>61</ele>
        <time>2016-04-24T07:20:54Z</time>
      </trkpt>
      <trkpt lat="47.35187" lon="-1.91261">
        <ele>61</ele>
        <time>2016-04-24T07:20:55Z</time>
      </trkpt>
      <trkpt lat="47.35189" lon="-1.91257">
        <ele>61</ele>
        <time>2016-04-24T07:20:56Z</time>
      </trkpt>
      <trkpt lat="47.3519" lon="-1.91253">
        <ele>61</ele>
        <time>2016-04-24T07:20:57Z</time>
      </trkpt>
      <trkpt lat="47.35192" lon="-1.91248">
        <ele>63</ele>
        <time>2016-04-24T07:20:58Z</time>
      </trkpt>
      <trkpt lat="47.35192" lon="-1.91243">
        <ele>63</ele>
        <time>2016-04-24T07:20:59Z</time>
      </trkpt>
      <trkpt lat="47.35192" lon="-1.91238">
        <ele>63</ele>
        <time>2016-04-24T07:21:00Z</time>
      </trkpt>
      <trkpt lat="47.35189" lon="-1.91236">
        <ele>63</ele>
        <time>2016-04-24T07:21:01Z</time>
      </trkpt>
      <trkpt lat="47.3519" lon="-1.9123">
        <ele>63</ele>
        <time>2016-04-24T07:21:03Z</time>
      </trkpt>
      <trkpt lat="47.35187" lon="-1.91222">
        <ele>63</ele>
        <time>2016-04-24T07:21:05Z</time>
      </trkpt>
      <trkpt lat="47.35185" lon="-1.91216">
        <ele>63</ele>
        <time>2016-04-24T07:21:06Z</time>
      </trkpt>
      <trkpt lat="47.35183" lon="-1.91212">
        <ele>63</ele>
        <time>2016-04-24T07:21:07Z</time>
      </trkpt>
      <trkpt lat="47.35182" lon="-1.91208">
        <ele>63</ele>
        <time>2016-04-24T07:21:08Z</time>
      </trkpt>
      <trkpt lat="47.3518" lon="-1.91205">
        <ele>63</ele>
        <time>2016-04-24T07:21:09Z</time>
      </trkpt>
      <trkpt lat="47.35178" lon="-1.91202">
        <ele>63</ele>
        <time>2016-04-24T07:21:10Z</time>
      </trkpt>
      <trkpt lat="47.35175" lon="-1.91198">
        <ele>63</ele>
        <time>2016-04-24T07:21:11Z</time>
      </trkpt>
      <trkpt lat="47.35171" lon="-1.91196">
        <ele>63</ele>
        <time>2016-04-24T07:21:12Z</time>
      </trkpt>
      <trkpt lat="47.35167" lon="-1.91196">
        <ele>63</ele>
        <time>2016-04-24T07:21:13Z</time>
      </trkpt>
      <trkpt lat="47.35162" lon="-1.91198">
        <ele>63</ele>
        <time>2016-04-24T07:21:14Z</time>
      </trkpt>
      <trkpt lat="47.35157" lon="-1.91201">
        <ele>63</ele>
        <time>2016-04-24T07:21:15Z</time>
      </trkpt>
      <trkpt lat="47.35154" lon="-1.91207">
        <ele>63</ele>
        <time>2016-04-24T07:21:16Z</time>
      </trkpt>
      <trkpt lat="47.35155" lon="-1.91211">
        <ele>63</ele>
        <time>2016-04-24T07:21:17Z</time>
      </trkpt>
      <trkpt lat="47.35157" lon="-1.91215">
        <ele>63</ele>
        <time>2016-04-24T07:21:18Z</time>
      </trkpt>
      <trkpt lat="47.35158" lon="-1.91221">
        <ele>63</ele>
        <time>2016-04-24T07:21:19Z</time>
      </trkpt>
      <trkpt lat="47.35159" lon="-1.91227">
        <ele>63</ele>
        <time>2016-04-24T07:21:20Z</time>
      </trkpt>
      <trkpt lat="47.35155" lon="-1.91234">
        <ele>63</ele>
        <time>2016-04-24T07:21:22Z</time>
      </trkpt>
      <trkpt lat="47.35153" lon="-1.91238">
        <ele>63</ele>
        <time>2016-04-24T07:21:23Z</time>
      </trkpt>
      <trkpt lat="47.3515" lon="-1.91242">
        <ele>63</ele>
        <time>2016-04-24T07:21:24Z</time>
      </trkpt>
      <trkpt lat="47.35147" lon="-1.91249">
        <ele>63</ele>
        <time>2016-04-24T07:21:26Z</time>
      </trkpt>
      <trkpt lat="47.35143" lon="-1.91254">
        <ele>61</ele>
        <time>2016-04-24T07:21:28Z</time>
      </trkpt>
      <trkpt lat="47.35139" lon="-1.91257">
        <ele>61</ele>
        <time>2016-04-24T07:21:30Z</time>
      </trkpt>
      <trkpt lat="47.35136" lon="-1.91258">
        <ele>61</ele>
        <time>2016-04-24T07:21:31Z</time>
      </trkpt>
      <trkpt lat="47.35132" lon="-1.9126">
        <ele>61</ele>
        <time>2016-04-24T07:21:32Z</time>
      </trkpt>
      <trkpt lat="47.35127" lon="-1.91262">
        <ele>61</ele>
        <time>2016-04-24T07:21:33Z</time>
      </trkpt>
      <trkpt lat="47.35121" lon="-1.91264">
        <ele>61</ele>
        <time>2016-04-24T07:21:34Z</time>
      </trkpt>
      <trkpt lat="47.35116" lon="-1.91266">
        <ele>61</ele>
        <time>2016-04-24T07:21:35Z</time>
      </trkpt>
      <trkpt lat="47.35111" lon="-1.91269">
        <ele>61</ele>
        <time>2016-04-24T07:21:36Z</time>
      </trkpt>
      <trkpt lat="47.35106" lon="-1.91272">
        <ele>61</ele>
        <time>2016-04-24T07:21:37Z</time>
      </trkpt>
      <trkpt lat="47.35101" lon="-1.91275">
        <ele>61</ele>
        <time>2016-04-24T07:21:38Z</time>
      </trkpt>
      <trkpt lat="47.35096" lon="-1.91278">
        <ele>61</ele>
        <time>2016-04-24T07:21:39Z</time>
      </trkpt>
      <trkpt lat="47.35093" lon="-1.9128">
        <ele>61</ele>
        <time>2016-04-24T07:21:40Z</time>
      </trkpt>
      <trkpt lat="47.35091" lon="-1.91283">
        <ele>61</ele>
        <time>2016-04-24T07:21:41Z</time>
      </trkpt>
      <trkpt lat="47.35086" lon="-1.91288">
        <ele>61</ele>
        <time>2016-04-24T07:21:43Z</time>
      </trkpt>
      <trkpt lat="47.35084" lon="-1.91291">
        <ele>61</ele>
        <time>2016-04-24T07:21:44Z</time>
      </trkpt>
      <trkpt lat="47.35081" lon="-1.91293">
        <ele>61</ele>
        <time>2016-04-24T07:21:45Z</time>
      </trkpt>
      <trkpt lat="47.35077" lon="-1.91294">
        <ele>61</ele>
        <time>2016-04-24T07:21:46Z</time>
      </trkpt>
      <trkpt lat="47.35072" lon="-1.91296">
        <ele>61</ele>
        <time>2016-04-24T07:21:47Z</time>
      </trkpt>
      <trkpt lat="47.35067" lon="-1.91299">
        <ele>61</ele>
        <time>2016-04-24T07:21:48Z</time>
      </trkpt>
      <trkpt lat="47.35063" lon="-1.91301">
        <ele>61</ele>
        <time>2016-04-24T07:21:49Z</time>
      </trkpt>
      <trkpt lat="47.35058" lon="-1.91304">
        <ele>61</ele>
        <time>2016-04-24T07:21:50Z</time>
      </trkpt>
      <trkpt lat="47.35053" lon="-1.91307">
        <ele>61</ele>
        <time>2016-04-24T07:21:51Z</time>
      </trkpt>
      <trkpt lat="47.35049" lon="-1.91311">
        <ele>61</ele>
        <time>2016-04-24T07:21:52Z</time>
      </trkpt>
      <trkpt lat="47.35044" lon="-1.91314">
        <ele>61</ele>
        <time>2016-04-24T07:21:53Z</time>
      </trkpt>
      <trkpt lat="47.35036" lon="-1.9132">
        <ele>61</ele>
        <time>2016-04-24T07:21:54Z</time>
      </trkpt>
      <trkpt lat="47.3503" lon="-1.91324">
        <ele>61</ele>
        <time>2016-04-24T07:21:55Z</time>
      </trkpt>
      <trkpt lat="47.35024" lon="-1.91328">
        <ele>61</ele>
        <time>2016-04-24T07:21:56Z</time>
      </trkpt>
      <trkpt lat="47.3502" lon="-1.91332">
        <ele>61</ele>
        <time>2016-04-24T07:21:57Z</time>
      </trkpt>
      <trkpt lat="47.35017" lon="-1.91339">
        <ele>60</ele>
        <time>2016-04-24T07:21:58Z</time>
      </trkpt>
      <trkpt lat="47.3501" lon="-1.9134">
        <ele>60</ele>
        <time>2016-04-24T07:21:59Z</time>
      </trkpt>
      <trkpt lat="47.35004" lon="-1.91343">
        <ele>60</ele>
        <time>2016-04-24T07:22:00Z</time>
      </trkpt>
      <trkpt lat="47.34999" lon="-1.91347">
        <ele>60</ele>
        <time>2016-04-24T07:22:01Z</time>
      </trkpt>
      <trkpt lat="47.34994" lon="-1.91352">
        <ele>60</ele>
        <time>2016-04-24T07:22:02Z</time>
      </trkpt>
      <trkpt lat="47.34987" lon="-1.91354">
        <ele>60</ele>
        <time>2016-04-24T07:22:03Z</time>
      </trkpt>
      <trkpt lat="47.34982" lon="-1.91357">
        <ele>60</ele>
        <time>2016-04-24T07:22:04Z</time>
      </trkpt>
      <trkpt lat="47.34978" lon="-1.91358">
        <ele>60</ele>
        <time>2016-04-24T07:22:05Z</time>
      </trkpt>
      <trkpt lat="47.34974" lon="-1.91359">
        <ele>60</ele>
        <time>2016-04-24T07:22:06Z</time>
      </trkpt>
      <trkpt lat="47.34969" lon="-1.91362">
        <ele>60</ele>
        <time>2016-04-24T07:22:07Z</time>
      </trkpt>
      <trkpt lat="47.34964" lon="-1.91363">
        <ele>60</ele>
        <time>2016-04-24T07:22:08Z</time>
      </trkpt>
      <trkpt lat="47.3496" lon="-1.91365">
        <ele>60</ele>
        <time>2016-04-24T07:22:09Z</time>
      </trkpt>
      <trkpt lat="47.34955" lon="-1.91367">
        <ele>60</ele>
        <time>2016-04-24T07:22:10Z</time>
      </trkpt>
      <trkpt lat="47.34951" lon="-1.91368">
        <ele>60</ele>
        <time>2016-04-24T07:22:11Z</time>
      </trkpt>
      <trkpt lat="47.34947" lon="-1.91371">
        <ele>60</ele>
        <time>2016-04-24T07:22:12Z</time>
      </trkpt>
      <trkpt lat="47.34941" lon="-1.91373">
        <ele>60</ele>
        <time>2016-04-24T07:22:13Z</time>
      </trkpt>
      <trkpt lat="47.34935" lon="-1.91374">
        <ele>60</ele>
        <time>2016-04-24T07:22:14Z</time>
      </trkpt>
      <trkpt lat="47.34929" lon="-1.91376">
        <ele>60</ele>
        <time>2016-04-24T07:22:15Z</time>
      </trkpt>
      <trkpt lat="47.34923" lon="-1.91377">
        <ele>60</ele>
        <time>2016-04-24T07:22:16Z</time>
      </trkpt>
      <trkpt lat="47.34919" lon="-1.9138">
        <ele>60</ele>
        <time>2016-04-24T07:22:17Z</time>
      </trkpt>
      <trkpt lat="47.34915" lon="-1.91379">
        <ele>60</ele>
        <time>2016-04-24T07:22:18Z</time>
      </trkpt>
      <trkpt lat="47.34909" lon="-1.9138">
        <ele>60</ele>
        <time>2016-04-24T07:22:19Z</time>
      </trkpt>
      <trkpt lat="47.34903" lon="-1.91381">
        <ele>60</ele>
        <time>2016-04-24T07:22:20Z</time>
      </trkpt>
      <trkpt lat="47.34899" lon="-1.91383">
        <ele>60</ele>
        <time>2016-04-24T07:22:21Z</time>
      </trkpt>
      <trkpt lat="47.34891" lon="-1.91381">
        <ele>60</ele>
        <time>2016-04-24T07:22:22Z</time>
      </trkpt>
      <trkpt lat="47.34887" lon="-1.91382">
        <ele>60</ele>
        <time>2016-04-24T07:22:23Z</time>
      </trkpt>
      <trkpt lat="47.34879" lon="-1.91384">
        <ele>59</ele>
        <time>2016-04-24T07:22:24Z</time>
      </trkpt>
      <trkpt lat="47.34872" lon="-1.91387">
        <ele>59</ele>
        <time>2016-04-24T07:22:25Z</time>
      </trkpt>
      <trkpt lat="47.34864" lon="-1.91387">
        <ele>59</ele>
        <time>2016-04-24T07:22:26Z</time>
      </trkpt>
      <trkpt lat="47.34855" lon="-1.91389">
        <ele>59</ele>
        <time>2016-04-24T07:22:27Z</time>
      </trkpt>
      <trkpt lat="47.34852" lon="-1.91391">
        <ele>59</ele>
        <time>2016-04-24T07:22:28Z</time>
      </trkpt>
      <trkpt lat="47.34847" lon="-1.91393">
        <ele>59</ele>
        <time>2016-04-24T07:22:29Z</time>
      </trkpt>
      <trkpt lat="47.34842" lon="-1.91395">
        <ele>59</ele>
        <time>2016-04-24T07:22:30Z</time>
      </trkpt>
      <trkpt lat="47.34837" lon="-1.91397">
        <ele>59</ele>
        <time>2016-04-24T07:22:31Z</time>
      </trkpt>
      <trkpt lat="47.34833" lon="-1.91399">
        <ele>59</ele>
        <time>2016-04-24T07:22:32Z</time>
      </trkpt>
      <trkpt lat="47.34829" lon="-1.91402">
        <ele>58</ele>
        <time>2016-04-24T07:22:33Z</time>
      </trkpt>
      <trkpt lat="47.34825" lon="-1.91405">
        <ele>58</ele>
        <time>2016-04-24T07:22:34Z</time>
      </trkpt>
      <trkpt lat="47.34819" lon="-1.91408">
        <ele>58</ele>
        <time>2016-04-24T07:22:35Z</time>
      </trkpt>
      <trkpt lat="47.34815" lon="-1.9141">
        <ele>59</ele>
        <time>2016-04-24T07:22:36Z</time>
      </trkpt>
      <trkpt lat="47.34808" lon="-1.91412">
        <ele>59</ele>
        <time>2016-04-24T07:22:37Z</time>
      </trkpt>
      <trkpt lat="47.34805" lon="-1.91413">
        <ele>59</ele>
        <time>2016-04-24T07:22:38Z</time>
      </trkpt>
      <trkpt lat="47.34801" lon="-1.91415">
        <ele>59</ele>
        <time>2016-04-24T07:22:39Z</time>
      </trkpt>
      <trkpt lat="47.34798" lon="-1.91416">
        <ele>59</ele>
        <time>2016-04-24T07:22:40Z</time>
      </trkpt>
      <trkpt lat="47.34792" lon="-1.9142">
        <ele>57</ele>
        <time>2016-04-24T07:22:42Z</time>
      </trkpt>
      <trkpt lat="47.34784" lon="-1.9142">
        <ele>57</ele>
        <time>2016-04-24T07:22:43Z</time>
      </trkpt>
      <trkpt lat="47.34777" lon="-1.91422">
        <ele>57</ele>
        <time>2016-04-24T07:22:44Z</time>
      </trkpt>
      <trkpt lat="47.34773" lon="-1.91423">
        <ele>57</ele>
        <time>2016-04-24T07:22:45Z</time>
      </trkpt>
      <trkpt lat="47.34768" lon="-1.91422">
        <ele>57</ele>
        <time>2016-04-24T07:22:46Z</time>
      </trkpt>
      <trkpt lat="47.34763" lon="-1.91419">
        <ele>57</ele>
        <time>2016-04-24T07:22:47Z</time>
      </trkpt>
      <trkpt lat="47.34757" lon="-1.91417">
        <ele>58</ele>
        <time>2016-04-24T07:22:48Z</time>
      </trkpt>
      <trkpt lat="47.34752" lon="-1.91413">
        <ele>58</ele>
        <time>2016-04-24T07:22:49Z</time>
      </trkpt>
      <trkpt lat="47.34744" lon="-1.9141">
        <ele>58</ele>
        <time>2016-04-24T07:22:50Z</time>
      </trkpt>
      <trkpt lat="47.34745" lon="-1.91406">
        <ele>58</ele>
        <time>2016-04-24T07:22:51Z</time>
      </trkpt>
      <trkpt lat="47.34736" lon="-1.914">
        <ele>58</ele>
        <time>2016-04-24T07:22:52Z</time>
      </trkpt>
      <trkpt lat="47.34738" lon="-1.91393">
        <ele>58</ele>
        <time>2016-04-24T07:22:53Z</time>
      </trkpt>
      <trkpt lat="47.34739" lon="-1.91386">
        <ele>58</ele>
        <time>2016-04-24T07:22:54Z</time>
      </trkpt>
      <trkpt lat="47.34738" lon="-1.91379">
        <ele>58</ele>
        <time>2016-04-24T07:22:55Z</time>
      </trkpt>
      <trkpt lat="47.34741" lon="-1.91371">
        <ele>58</ele>
        <time>2016-04-24T07:22:56Z</time>
      </trkpt>
      <trkpt lat="47.34739" lon="-1.91364">
        <ele>59</ele>
        <time>2016-04-24T07:22:57Z</time>
      </trkpt>
      <trkpt lat="47.34737" lon="-1.91358">
        <ele>59</ele>
        <time>2016-04-24T07:22:58Z</time>
      </trkpt>
      <trkpt lat="47.34737" lon="-1.91352">
        <ele>59</ele>
        <time>2016-04-24T07:22:59Z</time>
      </trkpt>
      <trkpt lat="47.34736" lon="-1.91344">
        <ele>59</ele>
        <time>2016-04-24T07:23:00Z</time>
      </trkpt>
      <trkpt lat="47.34735" lon="-1.91338">
        <ele>59</ele>
        <time>2016-04-24T07:23:01Z</time>
      </trkpt>
      <trkpt lat="47.34735" lon="-1.91331">
        <ele>60</ele>
        <time>2016-04-24T07:23:02Z</time>
      </trkpt>
      <trkpt lat="47.34733" lon="-1.91322">
        <ele>60</ele>
        <time>2016-04-24T07:23:04Z</time>
      </trkpt>
      <trkpt lat="47.34732" lon="-1.91317">
        <ele>60</ele>
        <time>2016-04-24T07:23:05Z</time>
      </trkpt>
      <trkpt lat="47.34731" lon="-1.91312">
        <ele>61</ele>
        <time>2016-04-24T07:23:06Z</time>
      </trkpt>
      <trkpt lat="47.34729" lon="-1.91306">
        <ele>61</ele>
        <time>2016-04-24T07:23:08Z</time>
      </trkpt>
      <trkpt lat="47.34729" lon="-1.913">
        <ele>61</ele>
        <time>2016-04-24T07:23:10Z</time>
      </trkpt>
      <trkpt lat="47.34727" lon="-1.91294">
        <ele>61</ele>
        <time>2016-04-24T07:23:12Z</time>
      </trkpt>
      <trkpt lat="47.34727" lon="-1.91287">
        <ele>61</ele>
        <time>2016-04-24T07:23:14Z</time>
      </trkpt>
      <trkpt lat="47.34726" lon="-1.91283">
        <ele>61</ele>
        <time>2016-04-24T07:23:15Z</time>
      </trkpt>
      <trkpt lat="47.34726" lon="-1.91278">
        <ele>61</ele>
        <time>2016-04-24T07:23:16Z</time>
      </trkpt>
      <trkpt lat="47.34726" lon="-1.91274">
        <ele>62</ele>
        <time>2016-04-24T07:23:17Z</time>
      </trkpt>
      <trkpt lat="47.34726" lon="-1.91269">
        <ele>62</ele>
        <time>2016-04-24T07:23:18Z</time>
      </trkpt>
      <trkpt lat="47.34726" lon="-1.91265">
        <ele>62</ele>
        <time>2016-04-24T07:23:19Z</time>
      </trkpt>
      <trkpt lat="47.34726" lon="-1.91261">
        <ele>62</ele>
        <time>2016-04-24T07:23:20Z</time>
      </trkpt>
      <trkpt lat="47.34725" lon="-1.91257">
        <ele>62</ele>
        <time>2016-04-24T07:23:21Z</time>
      </trkpt>
      <trkpt lat="47.34725" lon="-1.91249">
        <ele>64</ele>
        <time>2016-04-24T07:23:23Z</time>
      </trkpt>
      <trkpt lat="47.34725" lon="-1.91245">
        <ele>64</ele>
        <time>2016-04-24T07:23:25Z</time>
      </trkpt>
      <trkpt lat="47.34724" lon="-1.91239">
        <ele>64</ele>
        <time>2016-04-24T07:23:27Z</time>
      </trkpt>
      <trkpt lat="47.34723" lon="-1.91235">
        <ele>64</ele>
        <time>2016-04-24T07:23:28Z</time>
      </trkpt>
      <trkpt lat="47.34723" lon="-1.91231">
        <ele>64</ele>
        <time>2016-04-24T07:23:29Z</time>
      </trkpt>
      <trkpt lat="47.34721" lon="-1.91224">
        <ele>65</ele>
        <time>2016-04-24T07:23:31Z</time>
      </trkpt>
      <trkpt lat="47.3472" lon="-1.91217">
        <ele>65</ele>
        <time>2016-04-24T07:23:33Z</time>
      </trkpt>
      <trkpt lat="47.34718" lon="-1.91211">
        <ele>65</ele>
        <time>2016-04-24T07:23:35Z</time>
      </trkpt>
      <trkpt lat="47.34716" lon="-1.91204">
        <ele>65</ele>
        <time>2016-04-24T07:23:37Z</time>
      </trkpt>
      <trkpt lat="47.34714" lon="-1.91199">
        <ele>65</ele>
        <time>2016-04-24T07:23:38Z</time>
      </trkpt>
      <trkpt lat="47.34712" lon="-1.91195">
        <ele>65</ele>
        <time>2016-04-24T07:23:39Z</time>
      </trkpt>
      <trkpt lat="47.34711" lon="-1.9119">
        <ele>65</ele>
        <time>2016-04-24T07:23:40Z</time>
      </trkpt>
      <trkpt lat="47.34709" lon="-1.91185">
        <ele>65</ele>
        <time>2016-04-24T07:23:41Z</time>
      </trkpt>
      <trkpt lat="47.34708" lon="-1.91181">
        <ele>65</ele>
        <time>2016-04-24T07:23:42Z</time>
      </trkpt>
      <trkpt lat="47.34707" lon="-1.91177">
        <ele>65</ele>
        <time>2016-04-24T07:23:43Z</time>
      </trkpt>
      <trkpt lat="47.34706" lon="-1.91172">
        <ele>65</ele>
        <time>2016-04-24T07:23:44Z</time>
      </trkpt>
      <trkpt lat="47.34703" lon="-1.91166">
        <ele>66</ele>
        <time>2016-04-24T07:23:46Z</time>
      </trkpt>
      <trkpt lat="47.347" lon="-1.91164">
        <ele>66</ele>
        <time>2016-04-24T07:23:48Z</time>
      </trkpt>
      <trkpt lat="47.34696" lon="-1.91164">
        <ele>66</ele>
        <time>2016-04-24T07:23:51Z</time>
      </trkpt>
      <trkpt lat="47.3469" lon="-1.91166">
        <ele>66</ele>
        <time>2016-04-24T07:23:53Z</time>
      </trkpt>
      <trkpt lat="47.34685" lon="-1.91166">
        <ele>66</ele>
        <time>2016-04-24T07:23:54Z</time>
      </trkpt>
      <trkpt lat="47.34679" lon="-1.91165">
        <ele>66</ele>
        <time>2016-04-24T07:23:55Z</time>
      </trkpt>
      <trkpt lat="47.34667" lon="-1.91153">
        <ele>66</ele>
        <time>2016-04-24T07:23:56Z</time>
      </trkpt>
      <trkpt lat="47.34665" lon="-1.91144">
        <ele>64</ele>
        <time>2016-04-24T07:23:57Z</time>
      </trkpt>
      <trkpt lat="47.34663" lon="-1.91137">
        <ele>64</ele>
        <time>2016-04-24T07:23:58Z</time>
      </trkpt>
      <trkpt lat="47.34661" lon="-1.91131">
        <ele>64</ele>
        <time>2016-04-24T07:23:59Z</time>
      </trkpt>
      <trkpt lat="47.34657" lon="-1.91123">
        <ele>64</ele>
        <time>2016-04-24T07:24:01Z</time>
      </trkpt>
      <trkpt lat="47.3465" lon="-1.91119">
        <ele>64</ele>
        <time>2016-04-24T07:24:02Z</time>
      </trkpt>
      <trkpt lat="47.34644" lon="-1.91117">
        <ele>64</ele>
        <time>2016-04-24T07:24:03Z</time>
      </trkpt>
      <trkpt lat="47.34635" lon="-1.91122">
        <ele>63</ele>
        <time>2016-04-24T07:24:04Z</time>
      </trkpt>
      <trkpt lat="47.34625" lon="-1.91126">
        <ele>63</ele>
        <time>2016-04-24T07:24:05Z</time>
      </trkpt>
      <trkpt lat="47.34616" lon="-1.91131">
        <ele>63</ele>
        <time>2016-04-24T07:24:06Z</time>
      </trkpt>
      <trkpt lat="47.34607" lon="-1.91135">
        <ele>62</ele>
        <time>2016-04-24T07:24:07Z</time>
      </trkpt>
      <trkpt lat="47.34602" lon="-1.91137">
        <ele>62</ele>
        <time>2016-04-24T07:24:08Z</time>
      </trkpt>
      <trkpt lat="47.34594" lon="-1.91139">
        <ele>62</ele>
        <time>2016-04-24T07:24:09Z</time>
      </trkpt>
      <trkpt lat="47.34587" lon="-1.91139">
        <ele>62</ele>
        <time>2016-04-24T07:24:10Z</time>
      </trkpt>
      <trkpt lat="47.34581" lon="-1.91139">
        <ele>61</ele>
        <time>2016-04-24T07:24:11Z</time>
      </trkpt>
      <trkpt lat="47.34576" lon="-1.9114">
        <ele>61</ele>
        <time>2016-04-24T07:24:12Z</time>
      </trkpt>
      <trkpt lat="47.3457" lon="-1.91139">
        <ele>61</ele>
        <time>2016-04-24T07:24:13Z</time>
      </trkpt>
      <trkpt lat="47.34564" lon="-1.91144">
        <ele>61</ele>
        <time>2016-04-24T07:24:14Z</time>
      </trkpt>
      <trkpt lat="47.34556" lon="-1.91147">
        <ele>61</ele>
        <time>2016-04-24T07:24:15Z</time>
      </trkpt>
      <trkpt lat="47.34551" lon="-1.91151">
        <ele>61</ele>
        <time>2016-04-24T07:24:16Z</time>
      </trkpt>
      <trkpt lat="47.34545" lon="-1.91154">
        <ele>61</ele>
        <time>2016-04-24T07:24:17Z</time>
      </trkpt>
      <trkpt lat="47.34539" lon="-1.91157">
        <ele>61</ele>
        <time>2016-04-24T07:24:18Z</time>
      </trkpt>
      <trkpt lat="47.34533" lon="-1.9116">
        <ele>61</ele>
        <time>2016-04-24T07:24:19Z</time>
      </trkpt>
      <trkpt lat="47.34528" lon="-1.91164">
        <ele>61</ele>
        <time>2016-04-24T07:24:20Z</time>
      </trkpt>
      <trkpt lat="47.34523" lon="-1.91168">
        <ele>60</ele>
        <time>2016-04-24T07:24:21Z</time>
      </trkpt>
      <trkpt lat="47.34519" lon="-1.9117">
        <ele>60</ele>
        <time>2016-04-24T07:24:22Z</time>
      </trkpt>
      <trkpt lat="47.34515" lon="-1.91173">
        <ele>60</ele>
        <time>2016-04-24T07:24:23Z</time>
      </trkpt>
      <trkpt lat="47.3451" lon="-1.91174">
        <ele>60</ele>
        <time>2016-04-24T07:24:24Z</time>
      </trkpt>
      <trkpt lat="47.34506" lon="-1.91176">
        <ele>60</ele>
        <time>2016-04-24T07:24:25Z</time>
      </trkpt>
      <trkpt lat="47.34503" lon="-1.91175">
        <ele>60</ele>
        <time>2016-04-24T07:24:26Z</time>
      </trkpt>
      <trkpt lat="47.345" lon="-1.91173">
        <ele>61</ele>
        <time>2016-04-24T07:24:27Z</time>
      </trkpt>
      <trkpt lat="47.34499" lon="-1.91168">
        <ele>61</ele>
        <time>2016-04-24T07:24:28Z</time>
      </trkpt>
      <trkpt lat="47.34498" lon="-1.91162">
        <ele>61</ele>
        <time>2016-04-24T07:24:29Z</time>
      </trkpt>
      <trkpt lat="47.34498" lon="-1.91158">
        <ele>61</ele>
        <time>2016-04-24T07:24:30Z</time>
      </trkpt>
      <trkpt lat="47.34497" lon="-1.91154">
        <ele>60</ele>
        <time>2016-04-24T07:24:31Z</time>
      </trkpt>
      <trkpt lat="47.34496" lon="-1.91149">
        <ele>60</ele>
        <time>2016-04-24T07:24:32Z</time>
      </trkpt>
      <trkpt lat="47.34495" lon="-1.91143">
        <ele>60</ele>
        <time>2016-04-24T07:24:33Z</time>
      </trkpt>
      <trkpt lat="47.34494" lon="-1.91138">
        <ele>60</ele>
        <time>2016-04-24T07:24:34Z</time>
      </trkpt>
      <trkpt lat="47.34493" lon="-1.91132">
        <ele>60</ele>
        <time>2016-04-24T07:24:35Z</time>
      </trkpt>
      <trkpt lat="47.34492" lon="-1.91126">
        <ele>60</ele>
        <time>2016-04-24T07:24:36Z</time>
      </trkpt>
      <trkpt lat="47.34491" lon="-1.9112">
        <ele>60</ele>
        <time>2016-04-24T07:24:37Z</time>
      </trkpt>
      <trkpt lat="47.3449" lon="-1.91114">
        <ele>60</ele>
        <time>2016-04-24T07:24:38Z</time>
      </trkpt>
      <trkpt lat="47.34489" lon="-1.91107">
        <ele>60</ele>
        <time>2016-04-24T07:24:39Z</time>
      </trkpt>
      <trkpt lat="47.34488" lon="-1.91097">
        <ele>60</ele>
        <time>2016-04-24T07:24:40Z</time>
      </trkpt>
      <trkpt lat="47.34485" lon="-1.91092">
        <ele>60</ele>
        <time>2016-04-24T07:24:41Z</time>
      </trkpt>
      <trkpt lat="47.34485" lon="-1.91086">
        <ele>60</ele>
        <time>2016-04-24T07:24:42Z</time>
      </trkpt>
      <trkpt lat="47.34484" lon="-1.91081">
        <ele>60</ele>
        <time>2016-04-24T07:24:43Z</time>
      </trkpt>
      <trkpt lat="47.34483" lon="-1.91077">
        <ele>60</ele>
        <time>2016-04-24T07:24:44Z</time>
      </trkpt>
      <trkpt lat="47.34481" lon="-1.91072">
        <ele>60</ele>
        <time>2016-04-24T07:24:45Z</time>
      </trkpt>
      <trkpt lat="47.34478" lon="-1.91067">
        <ele>59</ele>
        <time>2016-04-24T07:24:46Z</time>
      </trkpt>
      <trkpt lat="47.34476" lon="-1.9106">
        <ele>59</ele>
        <time>2016-04-24T07:24:47Z</time>
      </trkpt>
      <trkpt lat="47.34474" lon="-1.91056">
        <ele>59</ele>
        <time>2016-04-24T07:24:48Z</time>
      </trkpt>
      <trkpt lat="47.34472" lon="-1.91051">
        <ele>59</ele>
        <time>2016-04-24T07:24:49Z</time>
      </trkpt>
      <trkpt lat="47.3447" lon="-1.91043">
        <ele>59</ele>
        <time>2016-04-24T07:24:50Z</time>
      </trkpt>
      <trkpt lat="47.34469" lon="-1.91034">
        <ele>59</ele>
        <time>2016-04-24T07:24:51Z</time>
      </trkpt>
      <trkpt lat="47.34471" lon="-1.91027">
        <ele>59</ele>
        <time>2016-04-24T07:24:52Z</time>
      </trkpt>
      <trkpt lat="47.34473" lon="-1.91021">
        <ele>59</ele>
        <time>2016-04-24T07:24:53Z</time>
      </trkpt>
      <trkpt lat="47.34478" lon="-1.91013">
        <ele>59</ele>
        <time>2016-04-24T07:24:54Z</time>
      </trkpt>
      <trkpt lat="47.34482" lon="-1.91009">
        <ele>59</ele>
        <time>2016-04-24T07:24:55Z</time>
      </trkpt>
      <trkpt lat="47.34488" lon="-1.91007">
        <ele>59</ele>
        <time>2016-04-24T07:24:56Z</time>
      </trkpt>
      <trkpt lat="47.34492" lon="-1.91005">
        <ele>60</ele>
        <time>2016-04-24T07:24:57Z</time>
      </trkpt>
      <trkpt lat="47.34498" lon="-1.91003">
        <ele>60</ele>
        <time>2016-04-24T07:24:58Z</time>
      </trkpt>
      <trkpt lat="47.34503" lon="-1.91001">
        <ele>60</ele>
        <time>2016-04-24T07:24:59Z</time>
      </trkpt>
      <trkpt lat="47.34507" lon="-1.91001">
        <ele>60</ele>
        <time>2016-04-24T07:25:00Z</time>
      </trkpt>
      <trkpt lat="47.34513" lon="-1.91002">
        <ele>60</ele>
        <time>2016-04-24T07:25:01Z</time>
      </trkpt>
      <trkpt lat="47.34515" lon="-1.90999">
        <ele>60</ele>
        <time>2016-04-24T07:25:02Z</time>
      </trkpt>
      <trkpt lat="47.34519" lon="-1.90998">
        <ele>60</ele>
        <time>2016-04-24T07:25:03Z</time>
      </trkpt>
      <trkpt lat="47.34522" lon="-1.90997">
        <ele>61</ele>
        <time>2016-04-24T07:25:04Z</time>
      </trkpt>
      <trkpt lat="47.34528" lon="-1.90998">
        <ele>61</ele>
        <time>2016-04-24T07:25:05Z</time>
      </trkpt>
      <trkpt lat="47.34533" lon="-1.90998">
        <ele>61</ele>
        <time>2016-04-24T07:25:06Z</time>
      </trkpt>
      <trkpt lat="47.34538" lon="-1.90998">
        <ele>61</ele>
        <time>2016-04-24T07:25:07Z</time>
      </trkpt>
      <trkpt lat="47.34543" lon="-1.90996">
        <ele>61</ele>
        <time>2016-04-24T07:25:08Z</time>
      </trkpt>
      <trkpt lat="47.34547" lon="-1.90996">
        <ele>61</ele>
        <time>2016-04-24T07:25:09Z</time>
      </trkpt>
      <trkpt lat="47.34551" lon="-1.90996">
        <ele>61</ele>
        <time>2016-04-24T07:25:10Z</time>
      </trkpt>
      <trkpt lat="47.34555" lon="-1.90994">
        <ele>61</ele>
        <time>2016-04-24T07:25:11Z</time>
      </trkpt>
      <trkpt lat="47.3456" lon="-1.90995">
        <ele>61</ele>
        <time>2016-04-24T07:25:12Z</time>
      </trkpt>
      <trkpt lat="47.34565" lon="-1.90994">
        <ele>61</ele>
        <time>2016-04-24T07:25:13Z</time>
      </trkpt>
      <trkpt lat="47.3457" lon="-1.90992">
        <ele>61</ele>
        <time>2016-04-24T07:25:14Z</time>
      </trkpt>
      <trkpt lat="47.34575" lon="-1.9099">
        <ele>61</ele>
        <time>2016-04-24T07:25:15Z</time>
      </trkpt>
      <trkpt lat="47.34581" lon="-1.90992">
        <ele>62</ele>
        <time>2016-04-24T07:25:16Z</time>
      </trkpt>
      <trkpt lat="47.34585" lon="-1.90988">
        <ele>62</ele>
        <time>2016-04-24T07:25:17Z</time>
      </trkpt>
      <trkpt lat="47.34588" lon="-1.90986">
        <ele>62</ele>
        <time>2016-04-24T07:25:18Z</time>
      </trkpt>
      <trkpt lat="47.34593" lon="-1.90985">
        <ele>62</ele>
        <time>2016-04-24T07:25:19Z</time>
      </trkpt>
      <trkpt lat="47.34598" lon="-1.90983">
        <ele>63</ele>
        <time>2016-04-24T07:25:20Z</time>
      </trkpt>
      <trkpt lat="47.34602" lon="-1.90979">
        <ele>63</ele>
        <time>2016-04-24T07:25:21Z</time>
      </trkpt>
      <trkpt lat="47.34606" lon="-1.90978">
        <ele>63</ele>
        <time>2016-04-24T07:25:22Z</time>
      </trkpt>
      <trkpt lat="47.34609" lon="-1.90977">
        <ele>63</ele>
        <time>2016-04-24T07:25:23Z</time>
      </trkpt>
      <trkpt lat="47.34612" lon="-1.90975">
        <ele>63</ele>
        <time>2016-04-24T07:25:24Z</time>
      </trkpt>
      <trkpt lat="47.34617" lon="-1.90973">
        <ele>63</ele>
        <time>2016-04-24T07:25:25Z</time>
      </trkpt>
      <trkpt lat="47.34622" lon="-1.90973">
        <ele>63</ele>
        <time>2016-04-24T07:25:26Z</time>
      </trkpt>
      <trkpt lat="47.34627" lon="-1.9097">
        <ele>63</ele>
        <time>2016-04-24T07:25:27Z</time>
      </trkpt>
      <trkpt lat="47.34631" lon="-1.90968">
        <ele>63</ele>
        <time>2016-04-24T07:25:28Z</time>
      </trkpt>
      <trkpt lat="47.34636" lon="-1.90965">
        <ele>63</ele>
        <time>2016-04-24T07:25:29Z</time>
      </trkpt>
      <trkpt lat="47.3464" lon="-1.90963">
        <ele>63</ele>
        <time>2016-04-24T07:25:30Z</time>
      </trkpt>
      <trkpt lat="47.34644" lon="-1.9096">
        <ele>63</ele>
        <time>2016-04-24T07:25:31Z</time>
      </trkpt>
      <trkpt lat="47.34648" lon="-1.90958">
        <ele>63</ele>
        <time>2016-04-24T07:25:32Z</time>
      </trkpt>
      <trkpt lat="47.34651" lon="-1.90956">
        <ele>63</ele>
        <time>2016-04-24T07:25:33Z</time>
      </trkpt>
      <trkpt lat="47.34654" lon="-1.90954">
        <ele>63</ele>
        <time>2016-04-24T07:25:34Z</time>
      </trkpt>
      <trkpt lat="47.34656" lon="-1.90951">
        <ele>64</ele>
        <time>2016-04-24T07:25:35Z</time>
      </trkpt>
      <trkpt lat="47.34658" lon="-1.90947">
        <ele>64</ele>
        <time>2016-04-24T07:25:36Z</time>
      </trkpt>
      <trkpt lat="47.34659" lon="-1.90942">
        <ele>64</ele>
        <time>2016-04-24T07:25:37Z</time>
      </trkpt>
      <trkpt lat="47.34659" lon="-1.90938">
        <ele>64</ele>
        <time>2016-04-24T07:25:38Z</time>
      </trkpt>
      <trkpt lat="47.34659" lon="-1.90933">
        <ele>64</ele>
        <time>2016-04-24T07:25:39Z</time>
      </trkpt>
      <trkpt lat="47.34658" lon="-1.90928">
        <ele>64</ele>
        <time>2016-04-24T07:25:40Z</time>
      </trkpt>
      <trkpt lat="47.34656" lon="-1.90923">
        <ele>64</ele>
        <time>2016-04-24T07:25:41Z</time>
      </trkpt>
      <trkpt lat="47.34655" lon="-1.90916">
        <ele>64</ele>
        <time>2016-04-24T07:25:42Z</time>
      </trkpt>
      <trkpt lat="47.34653" lon="-1.9091">
        <ele>64</ele>
        <time>2016-04-24T07:25:43Z</time>
      </trkpt>
      <trkpt lat="47.34652" lon="-1.90903">
        <ele>64</ele>
        <time>2016-04-24T07:25:44Z</time>
      </trkpt>
      <trkpt lat="47.3465" lon="-1.90897">
        <ele>63</ele>
        <time>2016-04-24T07:25:45Z</time>
      </trkpt>
      <trkpt lat="47.34649" lon="-1.90889">
        <ele>63</ele>
        <time>2016-04-24T07:25:46Z</time>
      </trkpt>
      <trkpt lat="47.34648" lon="-1.90878">
        <ele>63</ele>
        <time>2016-04-24T07:25:47Z</time>
      </trkpt>
      <trkpt lat="47.34646" lon="-1.90871">
        <ele>63</ele>
        <time>2016-04-24T07:25:48Z</time>
      </trkpt>
      <trkpt lat="47.34646" lon="-1.90863">
        <ele>63</ele>
        <time>2016-04-24T07:25:49Z</time>
      </trkpt>
      <trkpt lat="47.34645" lon="-1.90858">
        <ele>63</ele>
        <time>2016-04-24T07:25:50Z</time>
      </trkpt>
      <trkpt lat="47.34644" lon="-1.9085">
        <ele>63</ele>
        <time>2016-04-24T07:25:51Z</time>
      </trkpt>
      <trkpt lat="47.34642" lon="-1.90844">
        <ele>63</ele>
        <time>2016-04-24T07:25:52Z</time>
      </trkpt>
      <trkpt lat="47.34641" lon="-1.90836">
        <ele>63</ele>
        <time>2016-04-24T07:25:53Z</time>
      </trkpt>
      <trkpt lat="47.3464" lon="-1.90829">
        <ele>63</ele>
        <time>2016-04-24T07:25:54Z</time>
      </trkpt>
      <trkpt lat="47.34639" lon="-1.90822">
        <ele>63</ele>
        <time>2016-04-24T07:25:55Z</time>
      </trkpt>
      <trkpt lat="47.34636" lon="-1.90815">
        <ele>63</ele>
        <time>2016-04-24T07:25:56Z</time>
      </trkpt>
      <trkpt lat="47.34634" lon="-1.90808">
        <ele>62</ele>
        <time>2016-04-24T07:25:57Z</time>
      </trkpt>
      <trkpt lat="47.34632" lon="-1.908">
        <ele>62</ele>
        <time>2016-04-24T07:25:58Z</time>
      </trkpt>
      <trkpt lat="47.34631" lon="-1.90791">
        <ele>62</ele>
        <time>2016-04-24T07:25:59Z</time>
      </trkpt>
      <trkpt lat="47.34629" lon="-1.90784">
        <ele>62</ele>
        <time>2016-04-24T07:26:00Z</time>
      </trkpt>
      <trkpt lat="47.34628" lon="-1.90775">
        <ele>62</ele>
        <time>2016-04-24T07:26:01Z</time>
      </trkpt>
      <trkpt lat="47.34629" lon="-1.90763">
        <ele>62</ele>
        <time>2016-04-24T07:26:02Z</time>
      </trkpt>
      <trkpt lat="47.34629" lon="-1.90758">
        <ele>62</ele>
        <time>2016-04-24T07:26:03Z</time>
      </trkpt>
      <trkpt lat="47.34627" lon="-1.90755">
        <ele>62</ele>
        <time>2016-04-24T07:26:04Z</time>
      </trkpt>
      <trkpt lat="47.34623" lon="-1.90749">
        <ele>62</ele>
        <time>2016-04-24T07:26:05Z</time>
      </trkpt>
      <trkpt lat="47.3462" lon="-1.9074">
        <ele>62</ele>
        <time>2016-04-24T07:26:06Z</time>
      </trkpt>
      <trkpt lat="47.34619" lon="-1.90733">
        <ele>62</ele>
        <time>2016-04-24T07:26:07Z</time>
      </trkpt>
      <trkpt lat="47.3462" lon="-1.90722">
        <ele>62</ele>
        <time>2016-04-24T07:26:08Z</time>
      </trkpt>
      <trkpt lat="47.34617" lon="-1.90715">
        <ele>62</ele>
        <time>2016-04-24T07:26:09Z</time>
      </trkpt>
      <trkpt lat="47.34615" lon="-1.90709">
        <ele>62</ele>
        <time>2016-04-24T07:26:10Z</time>
      </trkpt>
      <trkpt lat="47.34612" lon="-1.90703">
        <ele>62</ele>
        <time>2016-04-24T07:26:11Z</time>
      </trkpt>
      <trkpt lat="47.34611" lon="-1.90697">
        <ele>62</ele>
        <time>2016-04-24T07:26:12Z</time>
      </trkpt>
      <trkpt lat="47.34607" lon="-1.90691">
        <ele>61</ele>
        <time>2016-04-24T07:26:13Z</time>
      </trkpt>
      <trkpt lat="47.34605" lon="-1.90686">
        <ele>61</ele>
        <time>2016-04-24T07:26:14Z</time>
      </trkpt>
      <trkpt lat="47.346" lon="-1.90681">
        <ele>61</ele>
        <time>2016-04-24T07:26:15Z</time>
      </trkpt>
      <trkpt lat="47.34598" lon="-1.90679">
        <ele>61</ele>
        <time>2016-04-24T07:26:17Z</time>
      </trkpt>
      <trkpt lat="47.34594" lon="-1.90684">
        <ele>61</ele>
        <time>2016-04-24T07:26:19Z</time>
      </trkpt>
      <trkpt lat="47.3459" lon="-1.90687">
        <ele>61</ele>
        <time>2016-04-24T07:26:20Z</time>
      </trkpt>
      <trkpt lat="47.34584" lon="-1.90691">
        <ele>61</ele>
        <time>2016-04-24T07:26:21Z</time>
      </trkpt>
      <trkpt lat="47.3458" lon="-1.90695">
        <ele>58</ele>
        <time>2016-04-24T07:26:22Z</time>
      </trkpt>
      <trkpt lat="47.34578" lon="-1.90699">
        <ele>58</ele>
        <time>2016-04-24T07:26:23Z</time>
      </trkpt>
      <trkpt lat="47.34575" lon="-1.90703">
        <ele>58</ele>
        <time>2016-04-24T07:26:24Z</time>
      </trkpt>
      <trkpt lat="47.34573" lon="-1.90708">
        <ele>58</ele>
        <time>2016-04-24T07:26:25Z</time>
      </trkpt>
      <trkpt lat="47.3457" lon="-1.90718">
        <ele>58</ele>
        <time>2016-04-24T07:26:26Z</time>
      </trkpt>
      <trkpt lat="47.34567" lon="-1.90724">
        <ele>58</ele>
        <time>2016-04-24T07:26:27Z</time>
      </trkpt>
      <trkpt lat="47.34565" lon="-1.90733">
        <ele>58</ele>
        <time>2016-04-24T07:26:28Z</time>
      </trkpt>
      <trkpt lat="47.34561" lon="-1.9074">
        <ele>58</ele>
        <time>2016-04-24T07:26:29Z</time>
      </trkpt>
      <trkpt lat="47.34557" lon="-1.90745">
        <ele>57</ele>
        <time>2016-04-24T07:26:30Z</time>
      </trkpt>
      <trkpt lat="47.34552" lon="-1.90751">
        <ele>57</ele>
        <time>2016-04-24T07:26:31Z</time>
      </trkpt>
      <trkpt lat="47.34548" lon="-1.90757">
        <ele>57</ele>
        <time>2016-04-24T07:26:32Z</time>
      </trkpt>
      <trkpt lat="47.34544" lon="-1.90758">
        <ele>57</ele>
        <time>2016-04-24T07:26:33Z</time>
      </trkpt>
      <trkpt lat="47.34537" lon="-1.90759">
        <ele>56</ele>
        <time>2016-04-24T07:26:34Z</time>
      </trkpt>
      <trkpt lat="47.34534" lon="-1.90762">
        <ele>56</ele>
        <time>2016-04-24T07:26:35Z</time>
      </trkpt>
      <trkpt lat="47.34524" lon="-1.90763">
        <ele>56</ele>
        <time>2016-04-24T07:26:36Z</time>
      </trkpt>
      <trkpt lat="47.34518" lon="-1.90765">
        <ele>56</ele>
        <time>2016-04-24T07:26:37Z</time>
      </trkpt>
      <trkpt lat="47.34513" lon="-1.90769">
        <ele>56</ele>
        <time>2016-04-24T07:26:38Z</time>
      </trkpt>
      <trkpt lat="47.34505" lon="-1.90771">
        <ele>56</ele>
        <time>2016-04-24T07:26:39Z</time>
      </trkpt>
      <trkpt lat="47.34499" lon="-1.90773">
        <ele>55</ele>
        <time>2016-04-24T07:26:40Z</time>
      </trkpt>
      <trkpt lat="47.34493" lon="-1.90776">
        <ele>55</ele>
        <time>2016-04-24T07:26:41Z</time>
      </trkpt>
      <trkpt lat="47.34487" lon="-1.90777">
        <ele>55</ele>
        <time>2016-04-24T07:26:42Z</time>
      </trkpt>
      <trkpt lat="47.34482" lon="-1.90778">
        <ele>55</ele>
        <time>2016-04-24T07:26:43Z</time>
      </trkpt>
      <trkpt lat="47.34477" lon="-1.90777">
        <ele>55</ele>
        <time>2016-04-24T07:26:44Z</time>
      </trkpt>
      <trkpt lat="47.34471" lon="-1.90781">
        <ele>55</ele>
        <time>2016-04-24T07:26:45Z</time>
      </trkpt>
      <trkpt lat="47.34464" lon="-1.90788">
        <ele>55</ele>
        <time>2016-04-24T07:26:46Z</time>
      </trkpt>
      <trkpt lat="47.34458" lon="-1.90789">
        <ele>55</ele>
        <time>2016-04-24T07:26:47Z</time>
      </trkpt>
      <trkpt lat="47.34446" lon="-1.90789">
        <ele>55</ele>
        <time>2016-04-24T07:26:48Z</time>
      </trkpt>
      <trkpt lat="47.34437" lon="-1.90788">
        <ele>55</ele>
        <time>2016-04-24T07:26:49Z</time>
      </trkpt>
      <trkpt lat="47.34434" lon="-1.90789">
        <ele>55</ele>
        <time>2016-04-24T07:26:50Z</time>
      </trkpt>
      <trkpt lat="47.34427" lon="-1.90793">
        <ele>55</ele>
        <time>2016-04-24T07:26:51Z</time>
      </trkpt>
      <trkpt lat="47.3442" lon="-1.90798">
        <ele>55</ele>
        <time>2016-04-24T07:26:52Z</time>
      </trkpt>
      <trkpt lat="47.34412" lon="-1.90805">
        <ele>56</ele>
        <time>2016-04-24T07:26:53Z</time>
      </trkpt>
      <trkpt lat="47.34403" lon="-1.9081">
        <ele>56</ele>
        <time>2016-04-24T07:26:54Z</time>
      </trkpt>
      <trkpt lat="47.34399" lon="-1.90817">
        <ele>55</ele>
        <time>2016-04-24T07:26:55Z</time>
      </trkpt>
      <trkpt lat="47.34394" lon="-1.90824">
        <ele>55</ele>
        <time>2016-04-24T07:26:56Z</time>
      </trkpt>
      <trkpt lat="47.3439" lon="-1.90832">
        <ele>55</ele>
        <time>2016-04-24T07:26:57Z</time>
      </trkpt>
      <trkpt lat="47.34385" lon="-1.90839">
        <ele>52</ele>
        <time>2016-04-24T07:26:58Z</time>
      </trkpt>
      <trkpt lat="47.34377" lon="-1.90844">
        <ele>52</ele>
        <time>2016-04-24T07:26:59Z</time>
      </trkpt>
      <trkpt lat="47.34369" lon="-1.90849">
        <ele>52</ele>
        <time>2016-04-24T07:27:00Z</time>
      </trkpt>
      <trkpt lat="47.34362" lon="-1.90853">
        <ele>53</ele>
        <time>2016-04-24T07:27:01Z</time>
      </trkpt>
      <trkpt lat="47.34358" lon="-1.90854">
        <ele>53</ele>
        <time>2016-04-24T07:27:02Z</time>
      </trkpt>
      <trkpt lat="47.34352" lon="-1.90859">
        <ele>52</ele>
        <time>2016-04-24T07:27:03Z</time>
      </trkpt>
      <trkpt lat="47.34343" lon="-1.90865">
        <ele>52</ele>
        <time>2016-04-24T07:27:04Z</time>
      </trkpt>
      <trkpt lat="47.34338" lon="-1.90874">
        <ele>52</ele>
        <time>2016-04-24T07:27:05Z</time>
      </trkpt>
      <trkpt lat="47.34334" lon="-1.90879">
        <ele>51</ele>
        <time>2016-04-24T07:27:06Z</time>
      </trkpt>
      <trkpt lat="47.34327" lon="-1.90883">
        <ele>49</ele>
        <time>2016-04-24T07:27:07Z</time>
      </trkpt>
      <trkpt lat="47.34324" lon="-1.90888">
        <ele>49</ele>
        <time>2016-04-24T07:27:08Z</time>
      </trkpt>
      <trkpt lat="47.34316" lon="-1.909">
        <ele>48</ele>
        <time>2016-04-24T07:27:09Z</time>
      </trkpt>
      <trkpt lat="47.34306" lon="-1.90906">
        <ele>48</ele>
        <time>2016-04-24T07:27:10Z</time>
      </trkpt>
      <trkpt lat="47.34298" lon="-1.90913">
        <ele>47</ele>
        <time>2016-04-24T07:27:11Z</time>
      </trkpt>
      <trkpt lat="47.3429" lon="-1.90916">
        <ele>47</ele>
        <time>2016-04-24T07:27:12Z</time>
      </trkpt>
      <trkpt lat="47.34283" lon="-1.9092">
        <ele>43</ele>
        <time>2016-04-24T07:27:13Z</time>
      </trkpt>
      <trkpt lat="47.34283" lon="-1.9093">
        <ele>43</ele>
        <time>2016-04-24T07:27:14Z</time>
      </trkpt>
      <trkpt lat="47.34282" lon="-1.90936">
        <ele>42</ele>
        <time>2016-04-24T07:27:15Z</time>
      </trkpt>
      <trkpt lat="47.3428" lon="-1.90944">
        <ele>42</ele>
        <time>2016-04-24T07:27:16Z</time>
      </trkpt>
      <trkpt lat="47.34276" lon="-1.90948">
        <ele>42</ele>
        <time>2016-04-24T07:27:17Z</time>
      </trkpt>
      <trkpt lat="47.34273" lon="-1.90952">
        <ele>42</ele>
        <time>2016-04-24T07:27:18Z</time>
      </trkpt>
      <trkpt lat="47.34271" lon="-1.90956">
        <ele>41</ele>
        <time>2016-04-24T07:27:19Z</time>
      </trkpt>
      <trkpt lat="47.34266" lon="-1.90963">
        <ele>41</ele>
        <time>2016-04-24T07:27:20Z</time>
      </trkpt>
      <trkpt lat="47.34264" lon="-1.90969">
        <ele>40</ele>
        <time>2016-04-24T07:27:21Z</time>
      </trkpt>
      <trkpt lat="47.34259" lon="-1.90971">
        <ele>40</ele>
        <time>2016-04-24T07:27:23Z</time>
      </trkpt>
      <trkpt lat="47.34253" lon="-1.90971">
        <ele>40</ele>
        <time>2016-04-24T07:27:24Z</time>
      </trkpt>
      <trkpt lat="47.34249" lon="-1.90969">
        <ele>35</ele>
        <time>2016-04-24T07:27:25Z</time>
      </trkpt>
      <trkpt lat="47.34245" lon="-1.90965">
        <ele>35</ele>
        <time>2016-04-24T07:27:27Z</time>
      </trkpt>
      <trkpt lat="47.34242" lon="-1.9096">
        <ele>36</ele>
        <time>2016-04-24T07:27:29Z</time>
      </trkpt>
      <trkpt lat="47.3424" lon="-1.90956">
        <ele>36</ele>
        <time>2016-04-24T07:27:30Z</time>
      </trkpt>
      <trkpt lat="47.34235" lon="-1.90951">
        <ele>36</ele>
        <time>2016-04-24T07:27:32Z</time>
      </trkpt>
      <trkpt lat="47.34233" lon="-1.90947">
        <ele>36</ele>
        <time>2016-04-24T07:27:33Z</time>
      </trkpt>
      <trkpt lat="47.34231" lon="-1.90939">
        <ele>37</ele>
        <time>2016-04-24T07:27:35Z</time>
      </trkpt>
      <trkpt lat="47.34231" lon="-1.90935">
        <ele>37</ele>
        <time>2016-04-24T07:27:36Z</time>
      </trkpt>
      <trkpt lat="47.3423" lon="-1.90931">
        <ele>38</ele>
        <time>2016-04-24T07:27:37Z</time>
      </trkpt>
      <trkpt lat="47.34229" lon="-1.90925">
        <ele>38</ele>
        <time>2016-04-24T07:27:38Z</time>
      </trkpt>
      <trkpt lat="47.34227" lon="-1.90919">
        <ele>38</ele>
        <time>2016-04-24T07:27:39Z</time>
      </trkpt>
      <trkpt lat="47.34226" lon="-1.90914">
        <ele>41</ele>
        <time>2016-04-24T07:27:40Z</time>
      </trkpt>
      <trkpt lat="47.34223" lon="-1.90909">
        <ele>41</ele>
        <time>2016-04-24T07:27:41Z</time>
      </trkpt>
      <trkpt lat="47.34222" lon="-1.90904">
        <ele>41</ele>
        <time>2016-04-24T07:27:42Z</time>
      </trkpt>
      <trkpt lat="47.34221" lon="-1.909">
        <ele>41</ele>
        <time>2016-04-24T07:27:43Z</time>
      </trkpt>
      <trkpt lat="47.3422" lon="-1.90895">
        <ele>41</ele>
        <time>2016-04-24T07:27:44Z</time>
      </trkpt>
      <trkpt lat="47.34218" lon="-1.9089">
        <ele>41</ele>
        <time>2016-04-24T07:27:45Z</time>
      </trkpt>
      <trkpt lat="47.34217" lon="-1.90886">
        <ele>41</ele>
        <time>2016-04-24T07:27:46Z</time>
      </trkpt>
      <trkpt lat="47.34215" lon="-1.90881">
        <ele>42</ele>
        <time>2016-04-24T07:27:47Z</time>
      </trkpt>
      <trkpt lat="47.34213" lon="-1.90876">
        <ele>42</ele>
        <time>2016-04-24T07:27:48Z</time>
      </trkpt>
      <trkpt lat="47.34211" lon="-1.90871">
        <ele>42</ele>
        <time>2016-04-24T07:27:49Z</time>
      </trkpt>
      <trkpt lat="47.3421" lon="-1.90866">
        <ele>42</ele>
        <time>2016-04-24T07:27:50Z</time>
      </trkpt>
      <trkpt lat="47.34208" lon="-1.9086">
        <ele>42</ele>
        <time>2016-04-24T07:27:51Z</time>
      </trkpt>
      <trkpt lat="47.34207" lon="-1.90855">
        <ele>42</ele>
        <time>2016-04-24T07:27:52Z</time>
      </trkpt>
      <trkpt lat="47.34206" lon="-1.9085">
        <ele>42</ele>
        <time>2016-04-24T07:27:53Z</time>
      </trkpt>
      <trkpt lat="47.34204" lon="-1.90844">
        <ele>42</ele>
        <time>2016-04-24T07:27:54Z</time>
      </trkpt>
      <trkpt lat="47.34202" lon="-1.90838">
        <ele>42</ele>
        <time>2016-04-24T07:27:55Z</time>
      </trkpt>
      <trkpt lat="47.342" lon="-1.90833">
        <ele>46</ele>
        <time>2016-04-24T07:27:56Z</time>
      </trkpt>
      <trkpt lat="47.34198" lon="-1.90828">
        <ele>46</ele>
        <time>2016-04-24T07:27:57Z</time>
      </trkpt>
      <trkpt lat="47.34197" lon="-1.90822">
        <ele>46</ele>
        <time>2016-04-24T07:27:58Z</time>
      </trkpt>
      <trkpt lat="47.34195" lon="-1.90817">
        <ele>46</ele>
        <time>2016-04-24T07:27:59Z</time>
      </trkpt>
      <trkpt lat="47.34194" lon="-1.90812">
        <ele>46</ele>
        <time>2016-04-24T07:28:00Z</time>
      </trkpt>
      <trkpt lat="47.34192" lon="-1.90808">
        <ele>46</ele>
        <time>2016-04-24T07:28:01Z</time>
      </trkpt>
      <trkpt lat="47.3419" lon="-1.90803">
        <ele>46</ele>
        <time>2016-04-24T07:28:02Z</time>
      </trkpt>
      <trkpt lat="47.34188" lon="-1.90799">
        <ele>46</ele>
        <time>2016-04-24T07:28:03Z</time>
      </trkpt>
      <trkpt lat="47.34185" lon="-1.90795">
        <ele>46</ele>
        <time>2016-04-24T07:28:04Z</time>
      </trkpt>
      <trkpt lat="47.34181" lon="-1.90792">
        <ele>46</ele>
        <time>2016-04-24T07:28:05Z</time>
      </trkpt>
      <trkpt lat="47.34177" lon="-1.90789">
        <ele>46</ele>
        <time>2016-04-24T07:28:06Z</time>
      </trkpt>
      <trkpt lat="47.34173" lon="-1.90785">
        <ele>46</ele>
        <time>2016-04-24T07:28:07Z</time>
      </trkpt>
      <trkpt lat="47.34166" lon="-1.90778">
        <ele>40</ele>
        <time>2016-04-24T07:28:08Z</time>
      </trkpt>
      <trkpt lat="47.34164" lon="-1.90773">
        <ele>41</ele>
        <time>2016-04-24T07:28:09Z</time>
      </trkpt>
      <trkpt lat="47.34161" lon="-1.90767">
        <ele>42</ele>
        <time>2016-04-24T07:28:10Z</time>
      </trkpt>
      <trkpt lat="47.34161" lon="-1.90761">
        <ele>43</ele>
        <time>2016-04-24T07:28:11Z</time>
      </trkpt>
      <trkpt lat="47.34159" lon="-1.90754">
        <ele>43</ele>
        <time>2016-04-24T07:28:12Z</time>
      </trkpt>
      <trkpt lat="47.34158" lon="-1.90749">
        <ele>45</ele>
        <time>2016-04-24T07:28:13Z</time>
      </trkpt>
      <trkpt lat="47.34157" lon="-1.90744">
        <ele>45</ele>
        <time>2016-04-24T07:28:14Z</time>
      </trkpt>
      <trkpt lat="47.34155" lon="-1.90738">
        <ele>45</ele>
        <time>2016-04-24T07:28:15Z</time>
      </trkpt>
      <trkpt lat="47.34154" lon="-1.90729">
        <ele>45</ele>
        <time>2016-04-24T07:28:16Z</time>
      </trkpt>
      <trkpt lat="47.34154" lon="-1.90724">
        <ele>45</ele>
        <time>2016-04-24T07:28:17Z</time>
      </trkpt>
      <trkpt lat="47.34154" lon="-1.90717">
        <ele>45</ele>
        <time>2016-04-24T07:28:18Z</time>
      </trkpt>
      <trkpt lat="47.34154" lon="-1.90712">
        <ele>45</ele>
        <time>2016-04-24T07:28:19Z</time>
      </trkpt>
      <trkpt lat="47.34154" lon="-1.90706">
        <ele>45</ele>
        <time>2016-04-24T07:28:20Z</time>
      </trkpt>
      <trkpt lat="47.34154" lon="-1.907">
        <ele>46</ele>
        <time>2016-04-24T07:28:21Z</time>
      </trkpt>
      <trkpt lat="47.34153" lon="-1.90694">
        <ele>46</ele>
        <time>2016-04-24T07:28:22Z</time>
      </trkpt>
      <trkpt lat="47.34152" lon="-1.90688">
        <ele>47</ele>
        <time>2016-04-24T07:28:23Z</time>
      </trkpt>
      <trkpt lat="47.34152" lon="-1.90682">
        <ele>47</ele>
        <time>2016-04-24T07:28:24Z</time>
      </trkpt>
      <trkpt lat="47.34151" lon="-1.90676">
        <ele>48</ele>
        <time>2016-04-24T07:28:25Z</time>
      </trkpt>
      <trkpt lat="47.3415" lon="-1.9067">
        <ele>48</ele>
        <time>2016-04-24T07:28:26Z</time>
      </trkpt>
      <trkpt lat="47.3415" lon="-1.90664">
        <ele>50</ele>
        <time>2016-04-24T07:28:27Z</time>
      </trkpt>
      <trkpt lat="47.34149" lon="-1.90658">
        <ele>50</ele>
        <time>2016-04-24T07:28:28Z</time>
      </trkpt>
      <trkpt lat="47.34148" lon="-1.90653">
        <ele>49</ele>
        <time>2016-04-24T07:28:29Z</time>
      </trkpt>
      <trkpt lat="47.34146" lon="-1.90648">
        <ele>49</ele>
        <time>2016-04-24T07:28:30Z</time>
      </trkpt>
      <trkpt lat="47.34144" lon="-1.90643">
        <ele>49</ele>
        <time>2016-04-24T07:28:31Z</time>
      </trkpt>
      <trkpt lat="47.34143" lon="-1.90639">
        <ele>49</ele>
        <time>2016-04-24T07:28:32Z</time>
      </trkpt>
      <trkpt lat="47.34142" lon="-1.90635">
        <ele>49</ele>
        <time>2016-04-24T07:28:33Z</time>
      </trkpt>
      <trkpt lat="47.34142" lon="-1.90631">
        <ele>49</ele>
        <time>2016-04-24T07:28:34Z</time>
      </trkpt>
      <trkpt lat="47.3414" lon="-1.90627">
        <ele>49</ele>
        <time>2016-04-24T07:28:35Z</time>
      </trkpt>
      <trkpt lat="47.3414" lon="-1.90622">
        <ele>49</ele>
        <time>2016-04-24T07:28:36Z</time>
      </trkpt>
      <trkpt lat="47.34139" lon="-1.90618">
        <ele>49</ele>
        <time>2016-04-24T07:28:37Z</time>
      </trkpt>
      <trkpt lat="47.34139" lon="-1.9061">
        <ele>49</ele>
        <time>2016-04-24T07:28:39Z</time>
      </trkpt>
      <trkpt lat="47.34138" lon="-1.90606">
        <ele>49</ele>
        <time>2016-04-24T07:28:40Z</time>
      </trkpt>
      <trkpt lat="47.34137" lon="-1.90601">
        <ele>49</ele>
        <time>2016-04-24T07:28:41Z</time>
      </trkpt>
      <trkpt lat="47.34136" lon="-1.90595">
        <ele>50</ele>
        <time>2016-04-24T07:28:42Z</time>
      </trkpt>
      <trkpt lat="47.34135" lon="-1.90589">
        <ele>50</ele>
        <time>2016-04-24T07:28:43Z</time>
      </trkpt>
      <trkpt lat="47.34133" lon="-1.90584">
        <ele>49</ele>
        <time>2016-04-24T07:28:44Z</time>
      </trkpt>
      <trkpt lat="47.34131" lon="-1.90578">
        <ele>51</ele>
        <time>2016-04-24T07:28:45Z</time>
      </trkpt>
      <trkpt lat="47.3413" lon="-1.90573">
        <ele>51</ele>
        <time>2016-04-24T07:28:46Z</time>
      </trkpt>
      <trkpt lat="47.34128" lon="-1.90567">
        <ele>51</ele>
        <time>2016-04-24T07:28:47Z</time>
      </trkpt>
      <trkpt lat="47.34128" lon="-1.90562">
        <ele>51</ele>
        <time>2016-04-24T07:28:48Z</time>
      </trkpt>
      <trkpt lat="47.34126" lon="-1.90556">
        <ele>51</ele>
        <time>2016-04-24T07:28:49Z</time>
      </trkpt>
      <trkpt lat="47.34125" lon="-1.90552">
        <ele>51</ele>
        <time>2016-04-24T07:28:50Z</time>
      </trkpt>
      <trkpt lat="47.34123" lon="-1.90547">
        <ele>51</ele>
        <time>2016-04-24T07:28:51Z</time>
      </trkpt>
      <trkpt lat="47.34121" lon="-1.90543">
        <ele>51</ele>
        <time>2016-04-24T07:28:52Z</time>
      </trkpt>
      <trkpt lat="47.34119" lon="-1.90539">
        <ele>51</ele>
        <time>2016-04-24T07:28:53Z</time>
      </trkpt>
      <trkpt lat="47.34118" lon="-1.90535">
        <ele>51</ele>
        <time>2016-04-24T07:28:54Z</time>
      </trkpt>
      <trkpt lat="47.34116" lon="-1.9053">
        <ele>51</ele>
        <time>2016-04-24T07:28:55Z</time>
      </trkpt>
      <trkpt lat="47.34115" lon="-1.90526">
        <ele>51</ele>
        <time>2016-04-24T07:28:56Z</time>
      </trkpt>
      <trkpt lat="47.34114" lon="-1.90522">
        <ele>51</ele>
        <time>2016-04-24T07:28:57Z</time>
      </trkpt>
      <trkpt lat="47.34113" lon="-1.90518">
        <ele>51</ele>
        <time>2016-04-24T07:28:58Z</time>
      </trkpt>
      <trkpt lat="47.34111" lon="-1.90515">
        <ele>51</ele>
        <time>2016-04-24T07:28:59Z</time>
      </trkpt>
      <trkpt lat="47.3411" lon="-1.9051">
        <ele>51</ele>
        <time>2016-04-24T07:29:00Z</time>
      </trkpt>
      <trkpt lat="47.34108" lon="-1.90505">
        <ele>51</ele>
        <time>2016-04-24T07:29:01Z</time>
      </trkpt>
      <trkpt lat="47.34107" lon="-1.905">
        <ele>52</ele>
        <time>2016-04-24T07:29:02Z</time>
      </trkpt>
      <trkpt lat="47.34105" lon="-1.90494">
        <ele>52</ele>
        <time>2016-04-24T07:29:03Z</time>
      </trkpt>
      <trkpt lat="47.34103" lon="-1.90489">
        <ele>52</ele>
        <time>2016-04-24T07:29:04Z</time>
      </trkpt>
      <trkpt lat="47.34102" lon="-1.90484">
        <ele>52</ele>
        <time>2016-04-24T07:29:05Z</time>
      </trkpt>
      <trkpt lat="47.34101" lon="-1.90479">
        <ele>52</ele>
        <time>2016-04-24T07:29:06Z</time>
      </trkpt>
      <trkpt lat="47.34099" lon="-1.90474">
        <ele>52</ele>
        <time>2016-04-24T07:29:07Z</time>
      </trkpt>
      <trkpt lat="47.34097" lon="-1.90469">
        <ele>52</ele>
        <time>2016-04-24T07:29:08Z</time>
      </trkpt>
      <trkpt lat="47.34096" lon="-1.90464">
        <ele>52</ele>
        <time>2016-04-24T07:29:09Z</time>
      </trkpt>
      <trkpt lat="47.34094" lon="-1.90459">
        <ele>52</ele>
        <time>2016-04-24T07:29:10Z</time>
      </trkpt>
      <trkpt lat="47.34093" lon="-1.90454">
        <ele>52</ele>
        <time>2016-04-24T07:29:11Z</time>
      </trkpt>
      <trkpt lat="47.34092" lon="-1.90449">
        <ele>52</ele>
        <time>2016-04-24T07:29:12Z</time>
      </trkpt>
      <trkpt lat="47.34091" lon="-1.90444">
        <ele>52</ele>
        <time>2016-04-24T07:29:13Z</time>
      </trkpt>
      <trkpt lat="47.34089" lon="-1.90439">
        <ele>52</ele>
        <time>2016-04-24T07:29:14Z</time>
      </trkpt>
      <trkpt lat="47.34087" lon="-1.90435">
        <ele>51</ele>
        <time>2016-04-24T07:29:15Z</time>
      </trkpt>
      <trkpt lat="47.34085" lon="-1.90429">
        <ele>51</ele>
        <time>2016-04-24T07:29:16Z</time>
      </trkpt>
      <trkpt lat="47.34082" lon="-1.90423">
        <ele>48</ele>
        <time>2016-04-24T07:29:17Z</time>
      </trkpt>
      <trkpt lat="47.34078" lon="-1.90411">
        <ele>49</ele>
        <time>2016-04-24T07:29:18Z</time>
      </trkpt>
      <trkpt lat="47.34079" lon="-1.90404">
        <ele>49</ele>
        <time>2016-04-24T07:29:19Z</time>
      </trkpt>
      <trkpt lat="47.3408" lon="-1.90393">
        <ele>49</ele>
        <time>2016-04-24T07:29:20Z</time>
      </trkpt>
      <trkpt lat="47.34083" lon="-1.90387">
        <ele>49</ele>
        <time>2016-04-24T07:29:21Z</time>
      </trkpt>
      <trkpt lat="47.34086" lon="-1.90383">
        <ele>54</ele>
        <time>2016-04-24T07:29:22Z</time>
      </trkpt>
      <trkpt lat="47.34089" lon="-1.90378">
        <ele>54</ele>
        <time>2016-04-24T07:29:23Z</time>
      </trkpt>
      <trkpt lat="47.34092" lon="-1.90372">
        <ele>55</ele>
        <time>2016-04-24T07:29:25Z</time>
      </trkpt>
      <trkpt lat="47.34094" lon="-1.9037">
        <ele>55</ele>
        <time>2016-04-24T07:29:26Z</time>
      </trkpt>
      <trkpt lat="47.34095" lon="-1.90363">
        <ele>55</ele>
        <time>2016-04-24T07:29:28Z</time>
      </trkpt>
      <trkpt lat="47.34095" lon="-1.90358">
        <ele>55</ele>
        <time>2016-04-24T07:29:29Z</time>
      </trkpt>
      <trkpt lat="47.34095" lon="-1.90354">
        <ele>55</ele>
        <time>2016-04-24T07:29:30Z</time>
      </trkpt>
      <trkpt lat="47.34094" lon="-1.9035">
        <ele>55</ele>
        <time>2016-04-24T07:29:31Z</time>
      </trkpt>
      <trkpt lat="47.34094" lon="-1.90346">
        <ele>55</ele>
        <time>2016-04-24T07:29:32Z</time>
      </trkpt>
      <trkpt lat="47.34095" lon="-1.90342">
        <ele>55</ele>
        <time>2016-04-24T07:29:33Z</time>
      </trkpt>
      <trkpt lat="47.34096" lon="-1.90338">
        <ele>55</ele>
        <time>2016-04-24T07:29:34Z</time>
      </trkpt>
      <trkpt lat="47.34096" lon="-1.90334">
        <ele>55</ele>
        <time>2016-04-24T07:29:35Z</time>
      </trkpt>
      <trkpt lat="47.34096" lon="-1.9033">
        <ele>56</ele>
        <time>2016-04-24T07:29:36Z</time>
      </trkpt>
      <trkpt lat="47.34096" lon="-1.90322">
        <ele>56</ele>
        <time>2016-04-24T07:29:38Z</time>
      </trkpt>
      <trkpt lat="47.34096" lon="-1.90314">
        <ele>57</ele>
        <time>2016-04-24T07:29:40Z</time>
      </trkpt>
      <trkpt lat="47.34096" lon="-1.90309">
        <ele>57</ele>
        <time>2016-04-24T07:29:41Z</time>
      </trkpt>
      <trkpt lat="47.34096" lon="-1.90305">
        <ele>57</ele>
        <time>2016-04-24T07:29:42Z</time>
      </trkpt>
      <trkpt lat="47.34095" lon="-1.903">
        <ele>57</ele>
        <time>2016-04-24T07:29:43Z</time>
      </trkpt>
      <trkpt lat="47.34095" lon="-1.90296">
        <ele>57</ele>
        <time>2016-04-24T07:29:44Z</time>
      </trkpt>
      <trkpt lat="47.34095" lon="-1.90292">
        <ele>57</ele>
        <time>2016-04-24T07:29:45Z</time>
      </trkpt>
      <trkpt lat="47.34094" lon="-1.90288">
        <ele>57</ele>
        <time>2016-04-24T07:29:46Z</time>
      </trkpt>
      <trkpt lat="47.34093" lon="-1.9028">
        <ele>57</ele>
        <time>2016-04-24T07:29:48Z</time>
      </trkpt>
      <trkpt lat="47.34092" lon="-1.90273">
        <ele>57</ele>
        <time>2016-04-24T07:29:50Z</time>
      </trkpt>
      <trkpt lat="47.34092" lon="-1.90266">
        <ele>56</ele>
        <time>2016-04-24T07:29:52Z</time>
      </trkpt>
      <trkpt lat="47.34093" lon="-1.90259">
        <ele>56</ele>
        <time>2016-04-24T07:29:54Z</time>
      </trkpt>
      <trkpt lat="47.34095" lon="-1.90252">
        <ele>56</ele>
        <time>2016-04-24T07:29:56Z</time>
      </trkpt>
      <trkpt lat="47.341" lon="-1.90247">
        <ele>57</ele>
        <time>2016-04-24T07:29:58Z</time>
      </trkpt>
      <trkpt lat="47.34103" lon="-1.90245">
        <ele>57</ele>
        <time>2016-04-24T07:29:59Z</time>
      </trkpt>
      <trkpt lat="47.34105" lon="-1.90244">
        <ele>57</ele>
        <time>2016-04-24T07:30:00Z</time>
      </trkpt>
      <trkpt lat="47.3411" lon="-1.90242">
        <ele>58</ele>
        <time>2016-04-24T07:30:02Z</time>
      </trkpt>
      <trkpt lat="47.34112" lon="-1.90241">
        <ele>58</ele>
        <time>2016-04-24T07:30:03Z</time>
      </trkpt>
      <trkpt lat="47.34115" lon="-1.9024">
        <ele>58</ele>
        <time>2016-04-24T07:30:04Z</time>
      </trkpt>
      <trkpt lat="47.3412" lon="-1.90237">
        <ele>59</ele>
        <time>2016-04-24T07:30:06Z</time>
      </trkpt>
      <trkpt lat="47.34123" lon="-1.90236">
        <ele>59</ele>
        <time>2016-04-24T07:30:07Z</time>
      </trkpt>
      <trkpt lat="47.34126" lon="-1.90235">
        <ele>59</ele>
        <time>2016-04-24T07:30:08Z</time>
      </trkpt>
      <trkpt lat="47.3413" lon="-1.90233">
        <ele>59</ele>
        <time>2016-04-24T07:30:09Z</time>
      </trkpt>
      <trkpt lat="47.34135" lon="-1.9023">
        <ele>59</ele>
        <time>2016-04-24T07:30:10Z</time>
      </trkpt>
      <trkpt lat="47.34139" lon="-1.90227">
        <ele>60</ele>
        <time>2016-04-24T07:30:11Z</time>
      </trkpt>
      <trkpt lat="47.34143" lon="-1.90221">
        <ele>60</ele>
        <time>2016-04-24T07:30:12Z</time>
      </trkpt>
      <trkpt lat="47.34146" lon="-1.90214">
        <ele>60</ele>
        <time>2016-04-24T07:30:13Z</time>
      </trkpt>
      <trkpt lat="47.34149" lon="-1.90209">
        <ele>60</ele>
        <time>2016-04-24T07:30:14Z</time>
      </trkpt>
      <trkpt lat="47.3415" lon="-1.902">
        <ele>60</ele>
        <time>2016-04-24T07:30:15Z</time>
      </trkpt>
      <trkpt lat="47.34146" lon="-1.90191">
        <ele>60</ele>
        <time>2016-04-24T07:30:16Z</time>
      </trkpt>
      <trkpt lat="47.34143" lon="-1.90184">
        <ele>60</ele>
        <time>2016-04-24T07:30:17Z</time>
      </trkpt>
      <trkpt lat="47.34147" lon="-1.90175">
        <ele>60</ele>
        <time>2016-04-24T07:30:18Z</time>
      </trkpt>
      <trkpt lat="47.34145" lon="-1.90169">
        <ele>60</ele>
        <time>2016-04-24T07:30:19Z</time>
      </trkpt>
      <trkpt lat="47.34144" lon="-1.90163">
        <ele>61</ele>
        <time>2016-04-24T07:30:20Z</time>
      </trkpt>
      <trkpt lat="47.34145" lon="-1.90158">
        <ele>61</ele>
        <time>2016-04-24T07:30:21Z</time>
      </trkpt>
      <trkpt lat="47.34144" lon="-1.90153">
        <ele>61</ele>
        <time>2016-04-24T07:30:22Z</time>
      </trkpt>
      <trkpt lat="47.34142" lon="-1.90146">
        <ele>61</ele>
        <time>2016-04-24T07:30:23Z</time>
      </trkpt>
      <trkpt lat="47.34142" lon="-1.9014">
        <ele>61</ele>
        <time>2016-04-24T07:30:24Z</time>
      </trkpt>
      <trkpt lat="47.34139" lon="-1.90137">
        <ele>61</ele>
        <time>2016-04-24T07:30:25Z</time>
      </trkpt>
      <trkpt lat="47.34138" lon="-1.90132">
        <ele>61</ele>
        <time>2016-04-24T07:30:26Z</time>
      </trkpt>
      <trkpt lat="47.34136" lon="-1.90128">
        <ele>61</ele>
        <time>2016-04-24T07:30:27Z</time>
      </trkpt>
      <trkpt lat="47.34134" lon="-1.90125">
        <ele>61</ele>
        <time>2016-04-24T07:30:28Z</time>
      </trkpt>
      <trkpt lat="47.34132" lon="-1.90119">
        <ele>61</ele>
        <time>2016-04-24T07:30:30Z</time>
      </trkpt>
      <trkpt lat="47.34131" lon="-1.90115">
        <ele>61</ele>
        <time>2016-04-24T07:30:31Z</time>
      </trkpt>
      <trkpt lat="47.3413" lon="-1.90111">
        <ele>61</ele>
        <time>2016-04-24T07:30:32Z</time>
      </trkpt>
      <trkpt lat="47.34129" lon="-1.90106">
        <ele>61</ele>
        <time>2016-04-24T07:30:33Z</time>
      </trkpt>
      <trkpt lat="47.34128" lon="-1.90102">
        <ele>61</ele>
        <time>2016-04-24T07:30:34Z</time>
      </trkpt>
      <trkpt lat="47.34127" lon="-1.90097">
        <ele>62</ele>
        <time>2016-04-24T07:30:35Z</time>
      </trkpt>
      <trkpt lat="47.34126" lon="-1.90093">
        <ele>62</ele>
        <time>2016-04-24T07:30:36Z</time>
      </trkpt>
      <trkpt lat="47.34126" lon="-1.90088">
        <ele>62</ele>
        <time>2016-04-24T07:30:37Z</time>
      </trkpt>
      <trkpt lat="47.34125" lon="-1.90084">
        <ele>62</ele>
        <time>2016-04-24T07:30:38Z</time>
      </trkpt>
      <trkpt lat="47.34124" lon="-1.90079">
        <ele>63</ele>
        <time>2016-04-24T07:30:39Z</time>
      </trkpt>
      <trkpt lat="47.34123" lon="-1.90074">
        <ele>63</ele>
        <time>2016-04-24T07:30:40Z</time>
      </trkpt>
      <trkpt lat="47.34123" lon="-1.90069">
        <ele>63</ele>
        <time>2016-04-24T07:30:41Z</time>
      </trkpt>
      <trkpt lat="47.34122" lon="-1.90064">
        <ele>63</ele>
        <time>2016-04-24T07:30:42Z</time>
      </trkpt>
      <trkpt lat="47.34121" lon="-1.9006">
        <ele>63</ele>
        <time>2016-04-24T07:30:43Z</time>
      </trkpt>
      <trkpt lat="47.3412" lon="-1.90055">
        <ele>63</ele>
        <time>2016-04-24T07:30:44Z</time>
      </trkpt>
      <trkpt lat="47.34119" lon="-1.9005">
        <ele>63</ele>
        <time>2016-04-24T07:30:45Z</time>
      </trkpt>
      <trkpt lat="47.34119" lon="-1.90045">
        <ele>63</ele>
        <time>2016-04-24T07:30:46Z</time>
      </trkpt>
      <trkpt lat="47.34118" lon="-1.90041">
        <ele>63</ele>
        <time>2016-04-24T07:30:47Z</time>
      </trkpt>
      <trkpt lat="47.34117" lon="-1.90036">
        <ele>63</ele>
        <time>2016-04-24T07:30:48Z</time>
      </trkpt>
      <trkpt lat="47.34116" lon="-1.9003">
        <ele>63</ele>
        <time>2016-04-24T07:30:49Z</time>
      </trkpt>
      <trkpt lat="47.34115" lon="-1.90025">
        <ele>63</ele>
        <time>2016-04-24T07:30:50Z</time>
      </trkpt>
      <trkpt lat="47.34114" lon="-1.90019">
        <ele>63</ele>
        <time>2016-04-24T07:30:51Z</time>
      </trkpt>
      <trkpt lat="47.34113" lon="-1.90014">
        <ele>63</ele>
        <time>2016-04-24T07:30:52Z</time>
      </trkpt>
      <trkpt lat="47.34112" lon="-1.90008">
        <ele>63</ele>
        <time>2016-04-24T07:30:53Z</time>
      </trkpt>
      <trkpt lat="47.34111" lon="-1.90002">
        <ele>63</ele>
        <time>2016-04-24T07:30:54Z</time>
      </trkpt>
      <trkpt lat="47.3411" lon="-1.89996">
        <ele>63</ele>
        <time>2016-04-24T07:30:55Z</time>
      </trkpt>
      <trkpt lat="47.34109" lon="-1.8999">
        <ele>63</ele>
        <time>2016-04-24T07:30:56Z</time>
      </trkpt>
      <trkpt lat="47.34108" lon="-1.89985">
        <ele>63</ele>
        <time>2016-04-24T07:30:57Z</time>
      </trkpt>
      <trkpt lat="47.34107" lon="-1.8998">
        <ele>63</ele>
        <time>2016-04-24T07:30:58Z</time>
      </trkpt>
      <trkpt lat="47.34106" lon="-1.89974">
        <ele>63</ele>
        <time>2016-04-24T07:30:59Z</time>
      </trkpt>
      <trkpt lat="47.34105" lon="-1.8997">
        <ele>63</ele>
        <time>2016-04-24T07:31:00Z</time>
      </trkpt>
      <trkpt lat="47.34103" lon="-1.89965">
        <ele>63</ele>
        <time>2016-04-24T07:31:01Z</time>
      </trkpt>
      <trkpt lat="47.34102" lon="-1.8996">
        <ele>63</ele>
        <time>2016-04-24T07:31:02Z</time>
      </trkpt>
      <trkpt lat="47.341" lon="-1.89956">
        <ele>63</ele>
        <time>2016-04-24T07:31:03Z</time>
      </trkpt>
      <trkpt lat="47.34099" lon="-1.89952">
        <ele>63</ele>
        <time>2016-04-24T07:31:04Z</time>
      </trkpt>
      <trkpt lat="47.34098" lon="-1.89947">
        <ele>63</ele>
        <time>2016-04-24T07:31:05Z</time>
      </trkpt>
      <trkpt lat="47.34096" lon="-1.89943">
        <ele>63</ele>
        <time>2016-04-24T07:31:06Z</time>
      </trkpt>
      <trkpt lat="47.34095" lon="-1.89939">
        <ele>63</ele>
        <time>2016-04-24T07:31:07Z</time>
      </trkpt>
      <trkpt lat="47.34093" lon="-1.89934">
        <ele>63</ele>
        <time>2016-04-24T07:31:08Z</time>
      </trkpt>
      <trkpt lat="47.34092" lon="-1.8993">
        <ele>63</ele>
        <time>2016-04-24T07:31:09Z</time>
      </trkpt>
      <trkpt lat="47.34091" lon="-1.89925">
        <ele>63</ele>
        <time>2016-04-24T07:31:10Z</time>
      </trkpt>
      <trkpt lat="47.34089" lon="-1.8992">
        <ele>63</ele>
        <time>2016-04-24T07:31:11Z</time>
      </trkpt>
      <trkpt lat="47.34088" lon="-1.89915">
        <ele>64</ele>
        <time>2016-04-24T07:31:12Z</time>
      </trkpt>
      <trkpt lat="47.34087" lon="-1.8991">
        <ele>64</ele>
        <time>2016-04-24T07:31:13Z</time>
      </trkpt>
      <trkpt lat="47.34086" lon="-1.89906">
        <ele>64</ele>
        <time>2016-04-24T07:31:14Z</time>
      </trkpt>
      <trkpt lat="47.34085" lon="-1.89901">
        <ele>64</ele>
        <time>2016-04-24T07:31:15Z</time>
      </trkpt>
      <trkpt lat="47.34082" lon="-1.89895">
        <ele>63</ele>
        <time>2016-04-24T07:31:17Z</time>
      </trkpt>
      <trkpt lat="47.34081" lon="-1.89891">
        <ele>64</ele>
        <time>2016-04-24T07:31:18Z</time>
      </trkpt>
      <trkpt lat="47.3408" lon="-1.89887">
        <ele>64</ele>
        <time>2016-04-24T07:31:19Z</time>
      </trkpt>
      <trkpt lat="47.3408" lon="-1.89882">
        <ele>64</ele>
        <time>2016-04-24T07:31:20Z</time>
      </trkpt>
      <trkpt lat="47.34079" lon="-1.89878">
        <ele>64</ele>
        <time>2016-04-24T07:31:21Z</time>
      </trkpt>
      <trkpt lat="47.34078" lon="-1.89873">
        <ele>64</ele>
        <time>2016-04-24T07:31:22Z</time>
      </trkpt>
      <trkpt lat="47.34077" lon="-1.89869">
        <ele>64</ele>
        <time>2016-04-24T07:31:23Z</time>
      </trkpt>
      <trkpt lat="47.34076" lon="-1.89865">
        <ele>64</ele>
        <time>2016-04-24T07:31:24Z</time>
      </trkpt>
      <trkpt lat="47.34075" lon="-1.89861">
        <ele>65</ele>
        <time>2016-04-24T07:31:25Z</time>
      </trkpt>
      <trkpt lat="47.34074" lon="-1.89846">
        <ele>65</ele>
        <time>2016-04-24T07:31:28Z</time>
      </trkpt>
      <trkpt lat="47.34075" lon="-1.89842">
        <ele>66</ele>
        <time>2016-04-24T07:31:29Z</time>
      </trkpt>
      <trkpt lat="47.34076" lon="-1.89837">
        <ele>66</ele>
        <time>2016-04-24T07:31:30Z</time>
      </trkpt>
      <trkpt lat="47.34076" lon="-1.89832">
        <ele>67</ele>
        <time>2016-04-24T07:31:31Z</time>
      </trkpt>
      <trkpt lat="47.34076" lon="-1.89827">
        <ele>67</ele>
        <time>2016-04-24T07:31:32Z</time>
      </trkpt>
      <trkpt lat="47.34076" lon="-1.89823">
        <ele>67</ele>
        <time>2016-04-24T07:31:33Z</time>
      </trkpt>
      <trkpt lat="47.34077" lon="-1.89819">
        <ele>66</ele>
        <time>2016-04-24T07:31:34Z</time>
      </trkpt>
      <trkpt lat="47.34077" lon="-1.89814">
        <ele>66</ele>
        <time>2016-04-24T07:31:35Z</time>
      </trkpt>
      <trkpt lat="47.34078" lon="-1.8981">
        <ele>66</ele>
        <time>2016-04-24T07:31:36Z</time>
      </trkpt>
      <trkpt lat="47.34079" lon="-1.89806">
        <ele>66</ele>
        <time>2016-04-24T07:31:37Z</time>
      </trkpt>
      <trkpt lat="47.3408" lon="-1.89801">
        <ele>66</ele>
        <time>2016-04-24T07:31:38Z</time>
      </trkpt>
      <trkpt lat="47.34081" lon="-1.89797">
        <ele>66</ele>
        <time>2016-04-24T07:31:39Z</time>
      </trkpt>
      <trkpt lat="47.34082" lon="-1.89792">
        <ele>66</ele>
        <time>2016-04-24T07:31:40Z</time>
      </trkpt>
      <trkpt lat="47.34083" lon="-1.89787">
        <ele>66</ele>
        <time>2016-04-24T07:31:41Z</time>
      </trkpt>
      <trkpt lat="47.34084" lon="-1.89782">
        <ele>68</ele>
        <time>2016-04-24T07:31:42Z</time>
      </trkpt>
      <trkpt lat="47.34085" lon="-1.89777">
        <ele>68</ele>
        <time>2016-04-24T07:31:43Z</time>
      </trkpt>
      <trkpt lat="47.34086" lon="-1.89771">
        <ele>68</ele>
        <time>2016-04-24T07:31:44Z</time>
      </trkpt>
      <trkpt lat="47.34088" lon="-1.89766">
        <ele>68</ele>
        <time>2016-04-24T07:31:45Z</time>
      </trkpt>
      <trkpt lat="47.3409" lon="-1.89761">
        <ele>68</ele>
        <time>2016-04-24T07:31:46Z</time>
      </trkpt>
      <trkpt lat="47.34092" lon="-1.89755">
        <ele>68</ele>
        <time>2016-04-24T07:31:47Z</time>
      </trkpt>
      <trkpt lat="47.34101" lon="-1.89732">
        <ele>68</ele>
        <time>2016-04-24T07:31:50Z</time>
      </trkpt>
      <trkpt lat="47.34101" lon="-1.89724">
        <ele>68</ele>
        <time>2016-04-24T07:31:51Z</time>
      </trkpt>
      <trkpt lat="47.34105" lon="-1.89718">
        <ele>68</ele>
        <time>2016-04-24T07:31:52Z</time>
      </trkpt>
      <trkpt lat="47.34113" lon="-1.89708">
        <ele>68</ele>
        <time>2016-04-24T07:31:54Z</time>
      </trkpt>
      <trkpt lat="47.34114" lon="-1.89702">
        <ele>67</ele>
        <time>2016-04-24T07:31:55Z</time>
      </trkpt>
      <trkpt lat="47.34118" lon="-1.8969">
        <ele>67</ele>
        <time>2016-04-24T07:31:57Z</time>
      </trkpt>
      <trkpt lat="47.34119" lon="-1.89684">
        <ele>67</ele>
        <time>2016-04-24T07:31:58Z</time>
      </trkpt>
      <trkpt lat="47.34121" lon="-1.89677">
        <ele>67</ele>
        <time>2016-04-24T07:31:59Z</time>
      </trkpt>
      <trkpt lat="47.34122" lon="-1.89669">
        <ele>67</ele>
        <time>2016-04-24T07:32:00Z</time>
      </trkpt>
      <trkpt lat="47.34122" lon="-1.89664">
        <ele>65</ele>
        <time>2016-04-24T07:32:01Z</time>
      </trkpt>
      <trkpt lat="47.34127" lon="-1.89657">
        <ele>66</ele>
        <time>2016-04-24T07:32:02Z</time>
      </trkpt>
      <trkpt lat="47.34122" lon="-1.8965">
        <ele>65</ele>
        <time>2016-04-24T07:32:03Z</time>
      </trkpt>
      <trkpt lat="47.34119" lon="-1.89639">
        <ele>65</ele>
        <time>2016-04-24T07:32:04Z</time>
      </trkpt>
      <trkpt lat="47.34119" lon="-1.8963">
        <ele>65</ele>
        <time>2016-04-24T07:32:05Z</time>
      </trkpt>
      <trkpt lat="47.34117" lon="-1.89625">
        <ele>65</ele>
        <time>2016-04-24T07:32:06Z</time>
      </trkpt>
      <trkpt lat="47.34117" lon="-1.89619">
        <ele>65</ele>
        <time>2016-04-24T07:32:07Z</time>
      </trkpt>
      <trkpt lat="47.34116" lon="-1.89611">
        <ele>65</ele>
        <time>2016-04-24T07:32:08Z</time>
      </trkpt>
      <trkpt lat="47.34112" lon="-1.89605">
        <ele>64</ele>
        <time>2016-04-24T07:32:09Z</time>
      </trkpt>
      <trkpt lat="47.34109" lon="-1.89598">
        <ele>64</ele>
        <time>2016-04-24T07:32:10Z</time>
      </trkpt>
      <trkpt lat="47.34106" lon="-1.89593">
        <ele>64</ele>
        <time>2016-04-24T07:32:11Z</time>
      </trkpt>
      <trkpt lat="47.34103" lon="-1.89584">
        <ele>64</ele>
        <time>2016-04-24T07:32:12Z</time>
      </trkpt>
      <trkpt lat="47.341" lon="-1.89581">
        <ele>63</ele>
        <time>2016-04-24T07:32:13Z</time>
      </trkpt>
      <trkpt lat="47.34097" lon="-1.89576">
        <ele>63</ele>
        <time>2016-04-24T07:32:14Z</time>
      </trkpt>
      <trkpt lat="47.34093" lon="-1.89572">
        <ele>63</ele>
        <time>2016-04-24T07:32:16Z</time>
      </trkpt>
      <trkpt lat="47.34086" lon="-1.89582">
        <ele>63</ele>
        <time>2016-04-24T07:32:17Z</time>
      </trkpt>
      <trkpt lat="47.34078" lon="-1.89582">
        <ele>63</ele>
        <time>2016-04-24T07:32:18Z</time>
      </trkpt>
      <trkpt lat="47.34075" lon="-1.89587">
        <ele>63</ele>
        <time>2016-04-24T07:32:19Z</time>
      </trkpt>
      <trkpt lat="47.34068" lon="-1.8959">
        <ele>62</ele>
        <time>2016-04-24T07:32:20Z</time>
      </trkpt>
      <trkpt lat="47.34062" lon="-1.89593">
        <ele>62</ele>
        <time>2016-04-24T07:32:21Z</time>
      </trkpt>
      <trkpt lat="47.34055" lon="-1.89597">
        <ele>62</ele>
        <time>2016-04-24T07:32:22Z</time>
      </trkpt>
      <trkpt lat="47.34049" lon="-1.89601">
        <ele>62</ele>
        <time>2016-04-24T07:32:23Z</time>
      </trkpt>
      <trkpt lat="47.34043" lon="-1.89604">
        <ele>62</ele>
        <time>2016-04-24T07:32:24Z</time>
      </trkpt>
      <trkpt lat="47.34034" lon="-1.89606">
        <ele>62</ele>
        <time>2016-04-24T07:32:25Z</time>
      </trkpt>
      <trkpt lat="47.34023" lon="-1.89606">
        <ele>61</ele>
        <time>2016-04-24T07:32:26Z</time>
      </trkpt>
      <trkpt lat="47.34011" lon="-1.89606">
        <ele>61</ele>
        <time>2016-04-24T07:32:27Z</time>
      </trkpt>
      <trkpt lat="47.33999" lon="-1.89598">
        <ele>59</ele>
        <time>2016-04-24T07:32:28Z</time>
      </trkpt>
      <trkpt lat="47.33988" lon="-1.89606">
        <ele>58</ele>
        <time>2016-04-24T07:32:29Z</time>
      </trkpt>
      <trkpt lat="47.33963" lon="-1.89603">
        <ele>58</ele>
        <time>2016-04-24T07:32:32Z</time>
      </trkpt>
      <trkpt lat="47.33955" lon="-1.8961">
        <ele>58</ele>
        <time>2016-04-24T07:32:33Z</time>
      </trkpt>
      <trkpt lat="47.33958" lon="-1.89612">
        <ele>58</ele>
        <time>2016-04-24T07:32:34Z</time>
      </trkpt>
      <trkpt lat="47.33948" lon="-1.89615">
        <ele>58</ele>
        <time>2016-04-24T07:32:35Z</time>
      </trkpt>
      <trkpt lat="47.33941" lon="-1.89619">
        <ele>58</ele>
        <time>2016-04-24T07:32:36Z</time>
      </trkpt>
      <trkpt lat="47.33935" lon="-1.89621">
        <ele>57</ele>
        <time>2016-04-24T07:32:37Z</time>
      </trkpt>
      <trkpt lat="47.33932" lon="-1.89625">
        <ele>57</ele>
        <time>2016-04-24T07:32:38Z</time>
      </trkpt>
      <trkpt lat="47.33929" lon="-1.89628">
        <ele>57</ele>
        <time>2016-04-24T07:32:39Z</time>
      </trkpt>
      <trkpt lat="47.33921" lon="-1.89632">
        <ele>57</ele>
        <time>2016-04-24T07:32:40Z</time>
      </trkpt>
      <trkpt lat="47.33915" lon="-1.89636">
        <ele>55</ele>
        <time>2016-04-24T07:32:41Z</time>
      </trkpt>
      <trkpt lat="47.33907" lon="-1.89639">
        <ele>55</ele>
        <time>2016-04-24T07:32:42Z</time>
      </trkpt>
      <trkpt lat="47.33902" lon="-1.8964">
        <ele>55</ele>
        <time>2016-04-24T07:32:43Z</time>
      </trkpt>
      <trkpt lat="47.33895" lon="-1.89641">
        <ele>55</ele>
        <time>2016-04-24T07:32:44Z</time>
      </trkpt>
      <trkpt lat="47.33889" lon="-1.89641">
        <ele>54</ele>
        <time>2016-04-24T07:32:45Z</time>
      </trkpt>
      <trkpt lat="47.33883" lon="-1.89641">
        <ele>54</ele>
        <time>2016-04-24T07:32:46Z</time>
      </trkpt>
      <trkpt lat="47.33873" lon="-1.8964">
        <ele>54</ele>
        <time>2016-04-24T07:32:47Z</time>
      </trkpt>
      <trkpt lat="47.33869" lon="-1.89641">
        <ele>54</ele>
        <time>2016-04-24T07:32:48Z</time>
      </trkpt>
      <trkpt lat="47.3386" lon="-1.89641">
        <ele>54</ele>
        <time>2016-04-24T07:32:49Z</time>
      </trkpt>
      <trkpt lat="47.33853" lon="-1.89644">
        <ele>53</ele>
        <time>2016-04-24T07:32:50Z</time>
      </trkpt>
      <trkpt lat="47.33847" lon="-1.89646">
        <ele>53</ele>
        <time>2016-04-24T07:32:51Z</time>
      </trkpt>
      <trkpt lat="47.33844" lon="-1.89646">
        <ele>53</ele>
        <time>2016-04-24T07:32:52Z</time>
      </trkpt>
      <trkpt lat="47.33838" lon="-1.89648">
        <ele>53</ele>
        <time>2016-04-24T07:32:53Z</time>
      </trkpt>
      <trkpt lat="47.33836" lon="-1.8965">
        <ele>53</ele>
        <time>2016-04-24T07:32:55Z</time>
      </trkpt>
      <trkpt lat="47.3383" lon="-1.89651">
        <ele>52</ele>
        <time>2016-04-24T07:32:57Z</time>
      </trkpt>
      <trkpt lat="47.33826" lon="-1.89654">
        <ele>52</ele>
        <time>2016-04-24T07:32:59Z</time>
      </trkpt>
      <trkpt lat="47.33822" lon="-1.89656">
        <ele>52</ele>
        <time>2016-04-24T07:33:01Z</time>
      </trkpt>
      <trkpt lat="47.33819" lon="-1.89658">
        <ele>52</ele>
        <time>2016-04-24T07:33:09Z</time>
      </trkpt>
      <trkpt lat="47.33817" lon="-1.89661">
        <ele>52</ele>
        <time>2016-04-24T07:33:11Z</time>
      </trkpt>
      <trkpt lat="47.33815" lon="-1.89665">
        <ele>52</ele>
        <time>2016-04-24T07:33:12Z</time>
      </trkpt>
      <trkpt lat="47.33812" lon="-1.89672">
        <ele>51</ele>
        <time>2016-04-24T07:33:14Z</time>
      </trkpt>
      <trkpt lat="47.33811" lon="-1.89676">
        <ele>50</ele>
        <time>2016-04-24T07:33:15Z</time>
      </trkpt>
      <trkpt lat="47.33809" lon="-1.89681">
        <ele>50</ele>
        <time>2016-04-24T07:33:16Z</time>
      </trkpt>
      <trkpt lat="47.33808" lon="-1.89687">
        <ele>50</ele>
        <time>2016-04-24T07:33:17Z</time>
      </trkpt>
      <trkpt lat="47.33805" lon="-1.89693">
        <ele>50</ele>
        <time>2016-04-24T07:33:18Z</time>
      </trkpt>
      <trkpt lat="47.33802" lon="-1.89699">
        <ele>50</ele>
        <time>2016-04-24T07:33:19Z</time>
      </trkpt>
      <trkpt lat="47.33797" lon="-1.89704">
        <ele>49</ele>
        <time>2016-04-24T07:33:20Z</time>
      </trkpt>
      <trkpt lat="47.33789" lon="-1.89713">
        <ele>49</ele>
        <time>2016-04-24T07:33:21Z</time>
      </trkpt>
      <trkpt lat="47.33784" lon="-1.89718">
        <ele>49</ele>
        <time>2016-04-24T07:33:22Z</time>
      </trkpt>
      <trkpt lat="47.33779" lon="-1.89721">
        <ele>49</ele>
        <time>2016-04-24T07:33:23Z</time>
      </trkpt>
      <trkpt lat="47.33772" lon="-1.89724">
        <ele>48</ele>
        <time>2016-04-24T07:33:24Z</time>
      </trkpt>
      <trkpt lat="47.33766" lon="-1.89728">
        <ele>48</ele>
        <time>2016-04-24T07:33:25Z</time>
      </trkpt>
      <trkpt lat="47.3376" lon="-1.89729">
        <ele>48</ele>
        <time>2016-04-24T07:33:26Z</time>
      </trkpt>
      <trkpt lat="47.33753" lon="-1.8973">
        <ele>47</ele>
        <time>2016-04-24T07:33:27Z</time>
      </trkpt>
      <trkpt lat="47.33746" lon="-1.89731">
        <ele>45</ele>
        <time>2016-04-24T07:33:28Z</time>
      </trkpt>
      <trkpt lat="47.33739" lon="-1.89732">
        <ele>45</ele>
        <time>2016-04-24T07:33:29Z</time>
      </trkpt>
      <trkpt lat="47.33731" lon="-1.89732">
        <ele>45</ele>
        <time>2016-04-24T07:33:30Z</time>
      </trkpt>
      <trkpt lat="47.33723" lon="-1.8973">
        <ele>45</ele>
        <time>2016-04-24T07:33:31Z</time>
      </trkpt>
      <trkpt lat="47.33717" lon="-1.89725">
        <ele>44</ele>
        <time>2016-04-24T07:33:32Z</time>
      </trkpt>
      <trkpt lat="47.33709" lon="-1.8972">
        <ele>44</ele>
        <time>2016-04-24T07:33:33Z</time>
      </trkpt>
      <trkpt lat="47.33704" lon="-1.89714">
        <ele>44</ele>
        <time>2016-04-24T07:33:34Z</time>
      </trkpt>
      <trkpt lat="47.33699" lon="-1.89709">
        <ele>44</ele>
        <time>2016-04-24T07:33:35Z</time>
      </trkpt>
      <trkpt lat="47.33694" lon="-1.89701">
        <ele>44</ele>
        <time>2016-04-24T07:33:36Z</time>
      </trkpt>
      <trkpt lat="47.33689" lon="-1.89694">
        <ele>44</ele>
        <time>2016-04-24T07:33:37Z</time>
      </trkpt>
      <trkpt lat="47.33685" lon="-1.89685">
        <ele>44</ele>
        <time>2016-04-24T07:33:38Z</time>
      </trkpt>
      <trkpt lat="47.33678" lon="-1.89678">
        <ele>43</ele>
        <time>2016-04-24T07:33:39Z</time>
      </trkpt>
      <trkpt lat="47.33674" lon="-1.89676">
        <ele>43</ele>
        <time>2016-04-24T07:33:40Z</time>
      </trkpt>
      <trkpt lat="47.33668" lon="-1.89671">
        <ele>42</ele>
        <time>2016-04-24T07:33:41Z</time>
      </trkpt>
      <trkpt lat="47.33661" lon="-1.89669">
        <ele>41</ele>
        <time>2016-04-24T07:33:42Z</time>
      </trkpt>
      <trkpt lat="47.33654" lon="-1.89668">
        <ele>40</ele>
        <time>2016-04-24T07:33:43Z</time>
      </trkpt>
      <trkpt lat="47.33648" lon="-1.89664">
        <ele>40</ele>
        <time>2016-04-24T07:33:44Z</time>
      </trkpt>
      <trkpt lat="47.33642" lon="-1.89664">
        <ele>39</ele>
        <time>2016-04-24T07:33:45Z</time>
      </trkpt>
      <trkpt lat="47.33633" lon="-1.89656">
        <ele>39</ele>
        <time>2016-04-24T07:33:46Z</time>
      </trkpt>
      <trkpt lat="47.33619" lon="-1.89651">
        <ele>38</ele>
        <time>2016-04-24T07:33:48Z</time>
      </trkpt>
      <trkpt lat="47.33614" lon="-1.89648">
        <ele>37</ele>
        <time>2016-04-24T07:33:49Z</time>
      </trkpt>
      <trkpt lat="47.3361" lon="-1.89648">
        <ele>37</ele>
        <time>2016-04-24T07:33:50Z</time>
      </trkpt>
      <trkpt lat="47.33603" lon="-1.89644">
        <ele>37</ele>
        <time>2016-04-24T07:33:51Z</time>
      </trkpt>
      <trkpt lat="47.33596" lon="-1.89642">
        <ele>36</ele>
        <time>2016-04-24T07:33:52Z</time>
      </trkpt>
      <trkpt lat="47.33587" lon="-1.89642">
        <ele>36</ele>
        <time>2016-04-24T07:33:53Z</time>
      </trkpt>
      <trkpt lat="47.33581" lon="-1.89642">
        <ele>32</ele>
        <time>2016-04-24T07:33:54Z</time>
      </trkpt>
      <trkpt lat="47.33574" lon="-1.89643">
        <ele>32</ele>
        <time>2016-04-24T07:33:55Z</time>
      </trkpt>
      <trkpt lat="47.33568" lon="-1.89643">
        <ele>32</ele>
        <time>2016-04-24T07:33:56Z</time>
      </trkpt>
      <trkpt lat="47.3356" lon="-1.89646">
        <ele>31</ele>
        <time>2016-04-24T07:33:57Z</time>
      </trkpt>
      <trkpt lat="47.33553" lon="-1.89649">
        <ele>31</ele>
        <time>2016-04-24T07:33:58Z</time>
      </trkpt>
      <trkpt lat="47.33546" lon="-1.89651">
        <ele>31</ele>
        <time>2016-04-24T07:33:59Z</time>
      </trkpt>
      <trkpt lat="47.33537" lon="-1.89656">
        <ele>30</ele>
        <time>2016-04-24T07:34:00Z</time>
      </trkpt>
      <trkpt lat="47.33528" lon="-1.89659">
        <ele>30</ele>
        <time>2016-04-24T07:34:01Z</time>
      </trkpt>
      <trkpt lat="47.33522" lon="-1.89663">
        <ele>30</ele>
        <time>2016-04-24T07:34:04Z</time>
      </trkpt>
      <trkpt lat="47.33514" lon="-1.89663">
        <ele>29</ele>
        <time>2016-04-24T07:34:05Z</time>
      </trkpt>
      <trkpt lat="47.33511" lon="-1.8966">
        <ele>29</ele>
        <time>2016-04-24T07:34:07Z</time>
      </trkpt>
      <trkpt lat="47.33507" lon="-1.89657">
        <ele>29</ele>
        <time>2016-04-24T07:34:08Z</time>
      </trkpt>
      <trkpt lat="47.33504" lon="-1.89652">
        <ele>29</ele>
        <time>2016-04-24T07:34:09Z</time>
      </trkpt>
      <trkpt lat="47.33501" lon="-1.89645">
        <ele>29</ele>
        <time>2016-04-24T07:34:10Z</time>
      </trkpt>
      <trkpt lat="47.33499" lon="-1.89639">
        <ele>26</ele>
        <time>2016-04-24T07:34:11Z</time>
      </trkpt>
      <trkpt lat="47.33498" lon="-1.89632">
        <ele>26</ele>
        <time>2016-04-24T07:34:12Z</time>
      </trkpt>
      <trkpt lat="47.33496" lon="-1.89622">
        <ele>26</ele>
        <time>2016-04-24T07:34:13Z</time>
      </trkpt>
      <trkpt lat="47.33495" lon="-1.89614">
        <ele>26</ele>
        <time>2016-04-24T07:34:14Z</time>
      </trkpt>
      <trkpt lat="47.33494" lon="-1.89605">
        <ele>26</ele>
        <time>2016-04-24T07:34:15Z</time>
      </trkpt>
      <trkpt lat="47.33493" lon="-1.89596">
        <ele>26</ele>
        <time>2016-04-24T07:34:16Z</time>
      </trkpt>
      <trkpt lat="47.33493" lon="-1.89588">
        <ele>26</ele>
        <time>2016-04-24T07:34:17Z</time>
      </trkpt>
      <trkpt lat="47.33492" lon="-1.89579">
        <ele>26</ele>
        <time>2016-04-24T07:34:18Z</time>
      </trkpt>
      <trkpt lat="47.3349" lon="-1.89571">
        <ele>26</ele>
        <time>2016-04-24T07:34:19Z</time>
      </trkpt>
      <trkpt lat="47.33489" lon="-1.8956">
        <ele>26</ele>
        <time>2016-04-24T07:34:20Z</time>
      </trkpt>
      <trkpt lat="47.33488" lon="-1.8955">
        <ele>26</ele>
        <time>2016-04-24T07:34:21Z</time>
      </trkpt>
      <trkpt lat="47.33488" lon="-1.89542">
        <ele>26</ele>
        <time>2016-04-24T07:34:22Z</time>
      </trkpt>
      <trkpt lat="47.33486" lon="-1.89533">
        <ele>26</ele>
        <time>2016-04-24T07:34:23Z</time>
      </trkpt>
      <trkpt lat="47.33484" lon="-1.89524">
        <ele>26</ele>
        <time>2016-04-24T07:34:24Z</time>
      </trkpt>
      <trkpt lat="47.33484" lon="-1.89513">
        <ele>26</ele>
        <time>2016-04-24T07:34:25Z</time>
      </trkpt>
      <trkpt lat="47.3348" lon="-1.89502">
        <ele>26</ele>
        <time>2016-04-24T07:34:26Z</time>
      </trkpt>
      <trkpt lat="47.33477" lon="-1.89496">
        <ele>27</ele>
        <time>2016-04-24T07:34:27Z</time>
      </trkpt>
      <trkpt lat="47.33476" lon="-1.89489">
        <ele>27</ele>
        <time>2016-04-24T07:34:28Z</time>
      </trkpt>
      <trkpt lat="47.33475" lon="-1.89485">
        <ele>27</ele>
        <time>2016-04-24T07:34:29Z</time>
      </trkpt>
      <trkpt lat="47.33471" lon="-1.89478">
        <ele>27</ele>
        <time>2016-04-24T07:34:30Z</time>
      </trkpt>
      <trkpt lat="47.33475" lon="-1.89471">
        <ele>27</ele>
        <time>2016-04-24T07:34:31Z</time>
      </trkpt>
      <trkpt lat="47.33474" lon="-1.89462">
        <ele>27</ele>
        <time>2016-04-24T07:34:32Z</time>
      </trkpt>
      <trkpt lat="47.33471" lon="-1.89455">
        <ele>27</ele>
        <time>2016-04-24T07:34:33Z</time>
      </trkpt>
      <trkpt lat="47.33468" lon="-1.89445">
        <ele>27</ele>
        <time>2016-04-24T07:34:34Z</time>
      </trkpt>
      <trkpt lat="47.33467" lon="-1.89435">
        <ele>27</ele>
        <time>2016-04-24T07:34:35Z</time>
      </trkpt>
      <trkpt lat="47.33464" lon="-1.89426">
        <ele>27</ele>
        <time>2016-04-24T07:34:36Z</time>
      </trkpt>
      <trkpt lat="47.33462" lon="-1.89411">
        <ele>29</ele>
        <time>2016-04-24T07:34:37Z</time>
      </trkpt>
      <trkpt lat="47.33456" lon="-1.89395">
        <ele>29</ele>
        <time>2016-04-24T07:34:39Z</time>
      </trkpt>
      <trkpt lat="47.33452" lon="-1.89387">
        <ele>29</ele>
        <time>2016-04-24T07:34:40Z</time>
      </trkpt>
      <trkpt lat="47.33451" lon="-1.8938">
        <ele>29</ele>
        <time>2016-04-24T07:34:42Z</time>
      </trkpt>
      <trkpt lat="47.33447" lon="-1.89371">
        <ele>29</ele>
        <time>2016-04-24T07:34:43Z</time>
      </trkpt>
      <trkpt lat="47.33446" lon="-1.89363">
        <ele>29</ele>
        <time>2016-04-24T07:34:44Z</time>
      </trkpt>
      <trkpt lat="47.3344" lon="-1.89354">
        <ele>28</ele>
        <time>2016-04-24T07:34:45Z</time>
      </trkpt>
      <trkpt lat="47.33436" lon="-1.89337">
        <ele>28</ele>
        <time>2016-04-24T07:34:46Z</time>
      </trkpt>
      <trkpt lat="47.33433" lon="-1.8933">
        <ele>29</ele>
        <time>2016-04-24T07:34:47Z</time>
      </trkpt>
      <trkpt lat="47.33429" lon="-1.89324">
        <ele>29</ele>
        <time>2016-04-24T07:34:48Z</time>
      </trkpt>
      <trkpt lat="47.33426" lon="-1.89319">
        <ele>29</ele>
        <time>2016-04-24T07:34:49Z</time>
      </trkpt>
      <trkpt lat="47.33426" lon="-1.89312">
        <ele>30</ele>
        <time>2016-04-24T07:34:50Z</time>
      </trkpt>
      <trkpt lat="47.33429" lon="-1.89309">
        <ele>30</ele>
        <time>2016-04-24T07:34:51Z</time>
      </trkpt>
      <trkpt lat="47.33432" lon="-1.89306">
        <ele>30</ele>
        <time>2016-04-24T07:34:52Z</time>
      </trkpt>
      <trkpt lat="47.33435" lon="-1.89302">
        <ele>31</ele>
        <time>2016-04-24T07:34:53Z</time>
      </trkpt>
      <trkpt lat="47.33439" lon="-1.89306">
        <ele>31</ele>
        <time>2016-04-24T07:34:55Z</time>
      </trkpt>
      <trkpt lat="47.33446" lon="-1.89302">
        <ele>31</ele>
        <time>2016-04-24T07:34:57Z</time>
      </trkpt>
      <trkpt lat="47.33452" lon="-1.89305">
        <ele>31</ele>
        <time>2016-04-24T07:34:58Z</time>
      </trkpt>
      <trkpt lat="47.33455" lon="-1.89307">
        <ele>31</ele>
        <time>2016-04-24T07:35:00Z</time>
      </trkpt>
      <trkpt lat="47.33458" lon="-1.89306">
        <ele>32</ele>
        <time>2016-04-24T07:35:01Z</time>
      </trkpt>
      <trkpt lat="47.33461" lon="-1.89306">
        <ele>32</ele>
        <time>2016-04-24T07:35:02Z</time>
      </trkpt>
      <trkpt lat="47.33464" lon="-1.89307">
        <ele>32</ele>
        <time>2016-04-24T07:35:03Z</time>
      </trkpt>
      <trkpt lat="47.33469" lon="-1.89308">
        <ele>32</ele>
        <time>2016-04-24T07:35:05Z</time>
      </trkpt>
      <trkpt lat="47.33473" lon="-1.89311">
        <ele>32</ele>
        <time>2016-04-24T07:35:07Z</time>
      </trkpt>
      <trkpt lat="47.33477" lon="-1.89315">
        <ele>33</ele>
        <time>2016-04-24T07:35:09Z</time>
      </trkpt>
      <trkpt lat="47.3348" lon="-1.89318">
        <ele>33</ele>
        <time>2016-04-24T07:35:10Z</time>
      </trkpt>
      <trkpt lat="47.33483" lon="-1.8932">
        <ele>33</ele>
        <time>2016-04-24T07:35:11Z</time>
      </trkpt>
      <trkpt lat="47.33487" lon="-1.89322">
        <ele>33</ele>
        <time>2016-04-24T07:35:12Z</time>
      </trkpt>
      <trkpt lat="47.3349" lon="-1.89324">
        <ele>33</ele>
        <time>2016-04-24T07:35:13Z</time>
      </trkpt>
      <trkpt lat="47.33493" lon="-1.89326">
        <ele>33</ele>
        <time>2016-04-24T07:35:14Z</time>
      </trkpt>
      <trkpt lat="47.33497" lon="-1.89328">
        <ele>34</ele>
        <time>2016-04-24T07:35:15Z</time>
      </trkpt>
      <trkpt lat="47.335" lon="-1.8933">
        <ele>35</ele>
        <time>2016-04-24T07:35:16Z</time>
      </trkpt>
      <trkpt lat="47.33503" lon="-1.89332">
        <ele>35</ele>
        <time>2016-04-24T07:35:17Z</time>
      </trkpt>
      <trkpt lat="47.33506" lon="-1.89334">
        <ele>35</ele>
        <time>2016-04-24T07:35:18Z</time>
      </trkpt>
      <trkpt lat="47.3351" lon="-1.89336">
        <ele>35</ele>
        <time>2016-04-24T07:35:19Z</time>
      </trkpt>
      <trkpt lat="47.33513" lon="-1.89338">
        <ele>35</ele>
        <time>2016-04-24T07:35:20Z</time>
      </trkpt>
      <trkpt lat="47.33516" lon="-1.89339">
        <ele>35</ele>
        <time>2016-04-24T07:35:21Z</time>
      </trkpt>
      <trkpt lat="47.33519" lon="-1.8934">
        <ele>35</ele>
        <time>2016-04-24T07:35:22Z</time>
      </trkpt>
      <trkpt lat="47.33522" lon="-1.89341">
        <ele>36</ele>
        <time>2016-04-24T07:35:23Z</time>
      </trkpt>
      <trkpt lat="47.33525" lon="-1.89341">
        <ele>36</ele>
        <time>2016-04-24T07:35:24Z</time>
      </trkpt>
      <trkpt lat="47.33528" lon="-1.89342">
        <ele>36</ele>
        <time>2016-04-24T07:35:25Z</time>
      </trkpt>
      <trkpt lat="47.33533" lon="-1.89342">
        <ele>36</ele>
        <time>2016-04-24T07:35:27Z</time>
      </trkpt>
      <trkpt lat="47.33538" lon="-1.89342">
        <ele>37</ele>
        <time>2016-04-24T07:35:29Z</time>
      </trkpt>
      <trkpt lat="47.33542" lon="-1.89341">
        <ele>37</ele>
        <time>2016-04-24T07:35:32Z</time>
      </trkpt>
      <trkpt lat="47.33545" lon="-1.8934">
        <ele>37</ele>
        <time>2016-04-24T07:35:34Z</time>
      </trkpt>
      <trkpt lat="47.33549" lon="-1.89339">
        <ele>37</ele>
        <time>2016-04-24T07:35:36Z</time>
      </trkpt>
      <trkpt lat="47.33554" lon="-1.89338">
        <ele>38</ele>
        <time>2016-04-24T07:35:38Z</time>
      </trkpt>
      <trkpt lat="47.33558" lon="-1.89336">
        <ele>38</ele>
        <time>2016-04-24T07:35:40Z</time>
      </trkpt>
      <trkpt lat="47.33562" lon="-1.89334">
        <ele>39</ele>
        <time>2016-04-24T07:35:42Z</time>
      </trkpt>
      <trkpt lat="47.33566" lon="-1.89331">
        <ele>41</ele>
        <time>2016-04-24T07:35:44Z</time>
      </trkpt>
      <trkpt lat="47.3357" lon="-1.89328">
        <ele>42</ele>
        <time>2016-04-24T07:35:46Z</time>
      </trkpt>
      <trkpt lat="47.33574" lon="-1.89326">
        <ele>42</ele>
        <time>2016-04-24T07:35:48Z</time>
      </trkpt>
      <trkpt lat="47.33578" lon="-1.89324">
        <ele>42</ele>
        <time>2016-04-24T07:35:50Z</time>
      </trkpt>
      <trkpt lat="47.3358" lon="-1.89321">
        <ele>42</ele>
        <time>2016-04-24T07:35:52Z</time>
      </trkpt>
      <trkpt lat="47.33582" lon="-1.89318">
        <ele>42</ele>
        <time>2016-04-24T07:35:54Z</time>
      </trkpt>
      <trkpt lat="47.33584" lon="-1.89315">
        <ele>45</ele>
        <time>2016-04-24T07:35:57Z</time>
      </trkpt>
      <trkpt lat="47.33587" lon="-1.89317">
        <ele>45</ele>
        <time>2016-04-24T07:36:23Z</time>
      </trkpt>
      <trkpt lat="47.33589" lon="-1.8932">
        <ele>45</ele>
        <time>2016-04-24T07:36:54Z</time>
      </trkpt>
      <trkpt lat="47.33593" lon="-1.89319">
        <ele>45</ele>
        <time>2016-04-24T07:36:56Z</time>
      </trkpt>
      <trkpt lat="47.33598" lon="-1.89316">
        <ele>45</ele>
        <time>2016-04-24T07:36:58Z</time>
      </trkpt>
      <trkpt lat="47.33601" lon="-1.89315">
        <ele>46</ele>
        <time>2016-04-24T07:36:59Z</time>
      </trkpt>
      <trkpt lat="47.33605" lon="-1.89315">
        <ele>46</ele>
        <time>2016-04-24T07:37:00Z</time>
      </trkpt>
      <trkpt lat="47.33608" lon="-1.89314">
        <ele>46</ele>
        <time>2016-04-24T07:37:01Z</time>
      </trkpt>
      <trkpt lat="47.33611" lon="-1.89312">
        <ele>46</ele>
        <time>2016-04-24T07:37:02Z</time>
      </trkpt>
      <trkpt lat="47.33613" lon="-1.8931">
        <ele>46</ele>
        <time>2016-04-24T07:37:03Z</time>
      </trkpt>
      <trkpt lat="47.33616" lon="-1.89308">
        <ele>46</ele>
        <time>2016-04-24T07:37:04Z</time>
      </trkpt>
      <trkpt lat="47.33618" lon="-1.89306">
        <ele>47</ele>
        <time>2016-04-24T07:37:05Z</time>
      </trkpt>
      <trkpt lat="47.33623" lon="-1.89303">
        <ele>47</ele>
        <time>2016-04-24T07:37:07Z</time>
      </trkpt>
      <trkpt lat="47.33628" lon="-1.89301">
        <ele>47</ele>
        <time>2016-04-24T07:37:09Z</time>
      </trkpt>
      <trkpt lat="47.33631" lon="-1.89299">
        <ele>47</ele>
        <time>2016-04-24T07:37:11Z</time>
      </trkpt>
      <trkpt lat="47.33635" lon="-1.89295">
        <ele>47</ele>
        <time>2016-04-24T07:37:13Z</time>
      </trkpt>
      <trkpt lat="47.33636" lon="-1.8929">
        <ele>48</ele>
        <time>2016-04-24T07:37:15Z</time>
      </trkpt>
      <trkpt lat="47.33637" lon="-1.89285">
        <ele>48</ele>
        <time>2016-04-24T07:37:17Z</time>
      </trkpt>
      <trkpt lat="47.33637" lon="-1.8928">
        <ele>48</ele>
        <time>2016-04-24T07:37:19Z</time>
      </trkpt>
      <trkpt lat="47.33638" lon="-1.89274">
        <ele>48</ele>
        <time>2016-04-24T07:37:21Z</time>
      </trkpt>
      <trkpt lat="47.33637" lon="-1.89268">
        <ele>49</ele>
        <time>2016-04-24T07:37:23Z</time>
      </trkpt>
      <trkpt lat="47.33637" lon="-1.89261">
        <ele>49</ele>
        <time>2016-04-24T07:37:25Z</time>
      </trkpt>
      <trkpt lat="47.33636" lon="-1.89255">
        <ele>49</ele>
        <time>2016-04-24T07:37:27Z</time>
      </trkpt>
      <trkpt lat="47.33635" lon="-1.89251">
        <ele>49</ele>
        <time>2016-04-24T07:37:29Z</time>
      </trkpt>
      <trkpt lat="47.33632" lon="-1.89245">
        <ele>51</ele>
        <time>2016-04-24T07:37:31Z</time>
      </trkpt>
      <trkpt lat="47.3363" lon="-1.89241">
        <ele>51</ele>
        <time>2016-04-24T07:37:32Z</time>
      </trkpt>
      <trkpt lat="47.33628" lon="-1.89236">
        <ele>50</ele>
        <time>2016-04-24T07:37:33Z</time>
      </trkpt>
      <trkpt lat="47.33627" lon="-1.89232">
        <ele>50</ele>
        <time>2016-04-24T07:37:34Z</time>
      </trkpt>
      <trkpt lat="47.33626" lon="-1.89228">
        <ele>50</ele>
        <time>2016-04-24T07:37:35Z</time>
      </trkpt>
      <trkpt lat="47.33626" lon="-1.89224">
        <ele>50</ele>
        <time>2016-04-24T07:37:36Z</time>
      </trkpt>
      <trkpt lat="47.33625" lon="-1.89216">
        <ele>50</ele>
        <time>2016-04-24T07:37:38Z</time>
      </trkpt>
      <trkpt lat="47.33626" lon="-1.89209">
        <ele>51</ele>
        <time>2016-04-24T07:37:40Z</time>
      </trkpt>
      <trkpt lat="47.33626" lon="-1.89205">
        <ele>51</ele>
        <time>2016-04-24T07:37:41Z</time>
      </trkpt>
      <trkpt lat="47.33626" lon="-1.89199">
        <ele>51</ele>
        <time>2016-04-24T07:37:43Z</time>
      </trkpt>
      <trkpt lat="47.33628" lon="-1.89196">
        <ele>51</ele>
        <time>2016-04-24T07:37:45Z</time>
      </trkpt>
      <trkpt lat="47.33631" lon="-1.89199">
        <ele>51</ele>
        <time>2016-04-24T07:37:50Z</time>
      </trkpt>
      <trkpt lat="47.33633" lon="-1.89203">
        <ele>51</ele>
        <time>2016-04-24T07:37:52Z</time>
      </trkpt>
      <trkpt lat="47.33637" lon="-1.89205">
        <ele>51</ele>
        <time>2016-04-24T07:37:55Z</time>
      </trkpt>
      <trkpt lat="47.3364" lon="-1.89206">
        <ele>51</ele>
        <time>2016-04-24T07:37:58Z</time>
      </trkpt>
      <trkpt lat="47.33642" lon="-1.8921">
        <ele>51</ele>
        <time>2016-04-24T07:38:01Z</time>
      </trkpt>
      <trkpt lat="47.33644" lon="-1.89212">
        <ele>51</ele>
        <time>2016-04-24T07:38:03Z</time>
      </trkpt>
      <trkpt lat="47.33648" lon="-1.89216">
        <ele>51</ele>
        <time>2016-04-24T07:38:05Z</time>
      </trkpt>
      <trkpt lat="47.3365" lon="-1.89221">
        <ele>52</ele>
        <time>2016-04-24T07:38:07Z</time>
      </trkpt>
      <trkpt lat="47.33651" lon="-1.89226">
        <ele>52</ele>
        <time>2016-04-24T07:38:09Z</time>
      </trkpt>
      <trkpt lat="47.33653" lon="-1.8923">
        <ele>52</ele>
        <time>2016-04-24T07:38:11Z</time>
      </trkpt>
      <trkpt lat="47.33656" lon="-1.8923">
        <ele>52</ele>
        <time>2016-04-24T07:38:13Z</time>
      </trkpt>
      <trkpt lat="47.33658" lon="-1.89227">
        <ele>52</ele>
        <time>2016-04-24T07:38:15Z</time>
      </trkpt>
      <trkpt lat="47.33659" lon="-1.89222">
        <ele>52</ele>
        <time>2016-04-24T07:38:17Z</time>
      </trkpt>
      <trkpt lat="47.33659" lon="-1.89217">
        <ele>52</ele>
        <time>2016-04-24T07:38:19Z</time>
      </trkpt>
      <trkpt lat="47.3366" lon="-1.89212">
        <ele>52</ele>
        <time>2016-04-24T07:38:21Z</time>
      </trkpt>
      <trkpt lat="47.33659" lon="-1.89208">
        <ele>52</ele>
        <time>2016-04-24T07:38:23Z</time>
      </trkpt>
      <trkpt lat="47.3366" lon="-1.89204">
        <ele>52</ele>
        <time>2016-04-24T07:38:25Z</time>
      </trkpt>
      <trkpt lat="47.33661" lon="-1.89198">
        <ele>52</ele>
        <time>2016-04-24T07:38:27Z</time>
      </trkpt>
      <trkpt lat="47.33661" lon="-1.89194">
        <ele>52</ele>
        <time>2016-04-24T07:38:29Z</time>
      </trkpt>
      <trkpt lat="47.33659" lon="-1.89198">
        <ele>52</ele>
        <time>2016-04-24T07:38:33Z</time>
      </trkpt>
      <trkpt lat="47.33656" lon="-1.89196">
        <ele>52</ele>
        <time>2016-04-24T07:38:35Z</time>
      </trkpt>
      <trkpt lat="47.33656" lon="-1.89192">
        <ele>52</ele>
        <time>2016-04-24T07:38:37Z</time>
      </trkpt>
      <trkpt lat="47.33659" lon="-1.89187">
        <ele>53</ele>
        <time>2016-04-24T07:38:39Z</time>
      </trkpt>
      <trkpt lat="47.33661" lon="-1.89183">
        <ele>53</ele>
        <time>2016-04-24T07:38:41Z</time>
      </trkpt>
      <trkpt lat="47.33663" lon="-1.89177">
        <ele>53</ele>
        <time>2016-04-24T07:38:43Z</time>
      </trkpt>
      <trkpt lat="47.33664" lon="-1.89173">
        <ele>54</ele>
        <time>2016-04-24T07:38:44Z</time>
      </trkpt>
      <trkpt lat="47.33664" lon="-1.89169">
        <ele>54</ele>
        <time>2016-04-24T07:38:45Z</time>
      </trkpt>
      <trkpt lat="47.33666" lon="-1.89163">
        <ele>55</ele>
        <time>2016-04-24T07:38:47Z</time>
      </trkpt>
      <trkpt lat="47.33669" lon="-1.8916">
        <ele>55</ele>
        <time>2016-04-24T07:38:49Z</time>
      </trkpt>
      <trkpt lat="47.33673" lon="-1.89162">
        <ele>55</ele>
        <time>2016-04-24T07:38:51Z</time>
      </trkpt>
      <trkpt lat="47.33676" lon="-1.89166">
        <ele>55</ele>
        <time>2016-04-24T07:38:53Z</time>
      </trkpt>
      <trkpt lat="47.33678" lon="-1.8917">
        <ele>55</ele>
        <time>2016-04-24T07:38:55Z</time>
      </trkpt>
      <trkpt lat="47.3368" lon="-1.89175">
        <ele>55</ele>
        <time>2016-04-24T07:38:57Z</time>
      </trkpt>
      <trkpt lat="47.33683" lon="-1.8918">
        <ele>55</ele>
        <time>2016-04-24T07:38:59Z</time>
      </trkpt>
      <trkpt lat="47.33683" lon="-1.89184">
        <ele>55</ele>
        <time>2016-04-24T07:39:01Z</time>
      </trkpt>
      <trkpt lat="47.33684" lon="-1.89189">
        <ele>55</ele>
        <time>2016-04-24T07:39:03Z</time>
      </trkpt>
      <trkpt lat="47.33684" lon="-1.89194">
        <ele>54</ele>
        <time>2016-04-24T07:39:05Z</time>
      </trkpt>
      <trkpt lat="47.33685" lon="-1.89202">
        <ele>54</ele>
        <time>2016-04-24T07:39:07Z</time>
      </trkpt>
      <trkpt lat="47.33686" lon="-1.89207">
        <ele>54</ele>
        <time>2016-04-24T07:39:09Z</time>
      </trkpt>
      <trkpt lat="47.33687" lon="-1.89214">
        <ele>54</ele>
        <time>2016-04-24T07:39:11Z</time>
      </trkpt>
      <trkpt lat="47.33687" lon="-1.8922">
        <ele>54</ele>
        <time>2016-04-24T07:39:13Z</time>
      </trkpt>
      <trkpt lat="47.33686" lon="-1.89226">
        <ele>54</ele>
        <time>2016-04-24T07:39:15Z</time>
      </trkpt>
      <trkpt lat="47.33687" lon="-1.89233">
        <ele>54</ele>
        <time>2016-04-24T07:39:17Z</time>
      </trkpt>
      <trkpt lat="47.33687" lon="-1.89239">
        <ele>54</ele>
        <time>2016-04-24T07:39:19Z</time>
      </trkpt>
      <trkpt lat="47.33685" lon="-1.89248">
        <ele>54</ele>
        <time>2016-04-24T07:39:21Z</time>
      </trkpt>
      <trkpt lat="47.33684" lon="-1.89255">
        <ele>52</ele>
        <time>2016-04-24T07:39:23Z</time>
      </trkpt>
      <trkpt lat="47.33684" lon="-1.89261">
        <ele>52</ele>
        <time>2016-04-24T07:39:25Z</time>
      </trkpt>
      <trkpt lat="47.33684" lon="-1.89268">
        <ele>52</ele>
        <time>2016-04-24T07:39:27Z</time>
      </trkpt>
      <trkpt lat="47.33683" lon="-1.89274">
        <ele>52</ele>
        <time>2016-04-24T07:39:29Z</time>
      </trkpt>
      <trkpt lat="47.33681" lon="-1.89282">
        <ele>51</ele>
        <time>2016-04-24T07:39:31Z</time>
      </trkpt>
      <trkpt lat="47.33681" lon="-1.89286">
        <ele>51</ele>
        <time>2016-04-24T07:39:32Z</time>
      </trkpt>
      <trkpt lat="47.3368" lon="-1.8929">
        <ele>51</ele>
        <time>2016-04-24T07:39:33Z</time>
      </trkpt>
      <trkpt lat="47.33681" lon="-1.89294">
        <ele>51</ele>
        <time>2016-04-24T07:39:34Z</time>
      </trkpt>
      <trkpt lat="47.33681" lon="-1.89299">
        <ele>50</ele>
        <time>2016-04-24T07:39:35Z</time>
      </trkpt>
      <trkpt lat="47.33683" lon="-1.89302">
        <ele>50</ele>
        <time>2016-04-24T07:39:36Z</time>
      </trkpt>
      <trkpt lat="47.33686" lon="-1.89306">
        <ele>50</ele>
        <time>2016-04-24T07:39:38Z</time>
      </trkpt>
      <trkpt lat="47.33688" lon="-1.89302">
        <ele>50</ele>
        <time>2016-04-24T07:39:40Z</time>
      </trkpt>
      <trkpt lat="47.33691" lon="-1.89301">
        <ele>51</ele>
        <time>2016-04-24T07:39:42Z</time>
      </trkpt>
      <trkpt lat="47.33695" lon="-1.89301">
        <ele>51</ele>
        <time>2016-04-24T07:39:44Z</time>
      </trkpt>
      <trkpt lat="47.33697" lon="-1.89305">
        <ele>50</ele>
        <time>2016-04-24T07:39:46Z</time>
      </trkpt>
      <trkpt lat="47.337" lon="-1.89308">
        <ele>50</ele>
        <time>2016-04-24T07:39:48Z</time>
      </trkpt>
      <trkpt lat="47.33702" lon="-1.89314">
        <ele>50</ele>
        <time>2016-04-24T07:39:50Z</time>
      </trkpt>
      <trkpt lat="47.33704" lon="-1.89318">
        <ele>50</ele>
        <time>2016-04-24T07:39:51Z</time>
      </trkpt>
      <trkpt lat="47.33705" lon="-1.89321">
        <ele>50</ele>
        <time>2016-04-24T07:39:52Z</time>
      </trkpt>
      <trkpt lat="47.33707" lon="-1.89325">
        <ele>50</ele>
        <time>2016-04-24T07:39:53Z</time>
      </trkpt>
      <trkpt lat="47.33709" lon="-1.8933">
        <ele>50</ele>
        <time>2016-04-24T07:39:55Z</time>
      </trkpt>
      <trkpt lat="47.33707" lon="-1.89331">
        <ele>50</ele>
        <time>2016-04-24T07:39:58Z</time>
      </trkpt>
      <trkpt lat="47.33703" lon="-1.89333">
        <ele>50</ele>
        <time>2016-04-24T07:40:01Z</time>
      </trkpt>
      <trkpt lat="47.337" lon="-1.89333">
        <ele>50</ele>
        <time>2016-04-24T07:40:02Z</time>
      </trkpt>
      <trkpt lat="47.33695" lon="-1.89332">
        <ele>50</ele>
        <time>2016-04-24T07:40:04Z</time>
      </trkpt>
      <trkpt lat="47.33692" lon="-1.89333">
        <ele>49</ele>
        <time>2016-04-24T07:40:06Z</time>
      </trkpt>
      <trkpt lat="47.33687" lon="-1.89336">
        <ele>46</ele>
        <time>2016-04-24T07:40:08Z</time>
      </trkpt>
      <trkpt lat="47.33685" lon="-1.89337">
        <ele>46</ele>
        <time>2016-04-24T07:40:09Z</time>
      </trkpt>
      <trkpt lat="47.33679" lon="-1.89338">
        <ele>46</ele>
        <time>2016-04-24T07:40:11Z</time>
      </trkpt>
      <trkpt lat="47.33675" lon="-1.89338">
        <ele>47</ele>
        <time>2016-04-24T07:40:13Z</time>
      </trkpt>
      <trkpt lat="47.33671" lon="-1.8934">
        <ele>47</ele>
        <time>2016-04-24T07:40:15Z</time>
      </trkpt>
      <trkpt lat="47.33667" lon="-1.89341">
        <ele>47</ele>
        <time>2016-04-24T07:40:17Z</time>
      </trkpt>
      <trkpt lat="47.33663" lon="-1.89344">
        <ele>45</ele>
        <time>2016-04-24T07:40:19Z</time>
      </trkpt>
      <trkpt lat="47.33659" lon="-1.89347">
        <ele>44</ele>
        <time>2016-04-24T07:40:21Z</time>
      </trkpt>
      <trkpt lat="47.33654" lon="-1.89347">
        <ele>44</ele>
        <time>2016-04-24T07:40:23Z</time>
      </trkpt>
      <trkpt lat="47.33651" lon="-1.89347">
        <ele>44</ele>
        <time>2016-04-24T07:40:24Z</time>
      </trkpt>
      <trkpt lat="47.33648" lon="-1.89345">
        <ele>44</ele>
        <time>2016-04-24T07:40:25Z</time>
      </trkpt>
      <trkpt lat="47.33645" lon="-1.89343">
        <ele>44</ele>
        <time>2016-04-24T07:40:26Z</time>
      </trkpt>
      <trkpt lat="47.33642" lon="-1.89342">
        <ele>43</ele>
        <time>2016-04-24T07:40:27Z</time>
      </trkpt>
      <trkpt lat="47.3364" lon="-1.89343">
        <ele>43</ele>
        <time>2016-04-24T07:40:28Z</time>
      </trkpt>
      <trkpt lat="47.33637" lon="-1.89345">
        <ele>43</ele>
        <time>2016-04-24T07:40:29Z</time>
      </trkpt>
      <trkpt lat="47.33637" lon="-1.89351">
        <ele>43</ele>
        <time>2016-04-24T07:40:31Z</time>
      </trkpt>
      <trkpt lat="47.33639" lon="-1.89357">
        <ele>43</ele>
        <time>2016-04-24T07:40:33Z</time>
      </trkpt>
      <trkpt lat="47.3364" lon="-1.8936">
        <ele>42</ele>
        <time>2016-04-24T07:40:34Z</time>
      </trkpt>
      <trkpt lat="47.33644" lon="-1.89365">
        <ele>42</ele>
        <time>2016-04-24T07:40:36Z</time>
      </trkpt>
      <trkpt lat="47.33647" lon="-1.89367">
        <ele>42</ele>
        <time>2016-04-24T07:40:37Z</time>
      </trkpt>
      <trkpt lat="47.33651" lon="-1.89366">
        <ele>42</ele>
        <time>2016-04-24T07:40:39Z</time>
      </trkpt>
      <trkpt lat="47.33655" lon="-1.89361">
        <ele>43</ele>
        <time>2016-04-24T07:40:41Z</time>
      </trkpt>
      <trkpt lat="47.33658" lon="-1.89359">
        <ele>43</ele>
        <time>2016-04-24T07:40:43Z</time>
      </trkpt>
      <trkpt lat="47.33661" lon="-1.89358">
        <ele>43</ele>
        <time>2016-04-24T07:40:45Z</time>
      </trkpt>
      <trkpt lat="47.33664" lon="-1.89357">
        <ele>43</ele>
        <time>2016-04-24T07:40:47Z</time>
      </trkpt>
      <trkpt lat="47.33668" lon="-1.89356">
        <ele>46</ele>
        <time>2016-04-24T07:40:49Z</time>
      </trkpt>
      <trkpt lat="47.33671" lon="-1.89355">
        <ele>46</ele>
        <time>2016-04-24T07:40:51Z</time>
      </trkpt>
      <trkpt lat="47.33675" lon="-1.89355">
        <ele>46</ele>
        <time>2016-04-24T07:40:53Z</time>
      </trkpt>
      <trkpt lat="47.3368" lon="-1.89354">
        <ele>46</ele>
        <time>2016-04-24T07:40:55Z</time>
      </trkpt>
      <trkpt lat="47.33684" lon="-1.89352">
        <ele>46</ele>
        <time>2016-04-24T07:40:57Z</time>
      </trkpt>
      <trkpt lat="47.33689" lon="-1.8935">
        <ele>46</ele>
        <time>2016-04-24T07:40:59Z</time>
      </trkpt>
      <trkpt lat="47.33692" lon="-1.89352">
        <ele>46</ele>
        <time>2016-04-24T07:41:01Z</time>
      </trkpt>
      <trkpt lat="47.33693" lon="-1.89357">
        <ele>46</ele>
        <time>2016-04-24T07:41:03Z</time>
      </trkpt>
      <trkpt lat="47.33694" lon="-1.89361">
        <ele>46</ele>
        <time>2016-04-24T07:41:06Z</time>
      </trkpt>
      <trkpt lat="47.33697" lon="-1.8936">
        <ele>46</ele>
        <time>2016-04-24T07:41:12Z</time>
      </trkpt>
      <trkpt lat="47.33699" lon="-1.89363">
        <ele>46</ele>
        <time>2016-04-24T07:41:18Z</time>
      </trkpt>
      <trkpt lat="47.337" lon="-1.89367">
        <ele>46</ele>
        <time>2016-04-24T07:41:20Z</time>
      </trkpt>
      <trkpt lat="47.33702" lon="-1.8937">
        <ele>45</ele>
        <time>2016-04-24T07:41:22Z</time>
      </trkpt>
      <trkpt lat="47.33707" lon="-1.89372">
        <ele>46</ele>
        <time>2016-04-24T07:41:24Z</time>
      </trkpt>
      <trkpt lat="47.33711" lon="-1.89372">
        <ele>46</ele>
        <time>2016-04-24T07:41:25Z</time>
      </trkpt>
      <trkpt lat="47.33715" lon="-1.89371">
        <ele>46</ele>
        <time>2016-04-24T07:41:26Z</time>
      </trkpt>
      <trkpt lat="47.33719" lon="-1.89369">
        <ele>46</ele>
        <time>2016-04-24T07:41:27Z</time>
      </trkpt>
      <trkpt lat="47.33723" lon="-1.89366">
        <ele>46</ele>
        <time>2016-04-24T07:41:28Z</time>
      </trkpt>
      <trkpt lat="47.33726" lon="-1.89362">
        <ele>46</ele>
        <time>2016-04-24T07:41:29Z</time>
      </trkpt>
      <trkpt lat="47.33728" lon="-1.89357">
        <ele>47</ele>
        <time>2016-04-24T07:41:31Z</time>
      </trkpt>
      <trkpt lat="47.33725" lon="-1.89359">
        <ele>47</ele>
        <time>2016-04-24T07:41:33Z</time>
      </trkpt>
      <trkpt lat="47.33725" lon="-1.89355">
        <ele>47</ele>
        <time>2016-04-24T07:41:50Z</time>
      </trkpt>
      <trkpt lat="47.33726" lon="-1.8935">
        <ele>47</ele>
        <time>2016-04-24T07:41:53Z</time>
      </trkpt>
      <trkpt lat="47.33728" lon="-1.89345">
        <ele>47</ele>
        <time>2016-04-24T07:41:56Z</time>
      </trkpt>
      <trkpt lat="47.33731" lon="-1.89342">
        <ele>48</ele>
        <time>2016-04-24T07:41:58Z</time>
      </trkpt>
      <trkpt lat="47.33733" lon="-1.8934">
        <ele>48</ele>
        <time>2016-04-24T07:42:00Z</time>
      </trkpt>
      <trkpt lat="47.33735" lon="-1.89337">
        <ele>48</ele>
        <time>2016-04-24T07:42:03Z</time>
      </trkpt>
      <trkpt lat="47.33738" lon="-1.89334">
        <ele>48</ele>
        <time>2016-04-24T07:42:07Z</time>
      </trkpt>
      <trkpt lat="47.33741" lon="-1.89331">
        <ele>50</ele>
        <time>2016-04-24T07:42:10Z</time>
      </trkpt>
      <trkpt lat="47.33744" lon="-1.8933">
        <ele>50</ele>
        <time>2016-04-24T07:42:16Z</time>
      </trkpt>
      <trkpt lat="47.33747" lon="-1.8933">
        <ele>50</ele>
        <time>2016-04-24T07:42:18Z</time>
      </trkpt>
      <trkpt lat="47.33751" lon="-1.89329">
        <ele>51</ele>
        <time>2016-04-24T07:42:19Z</time>
      </trkpt>
      <trkpt lat="47.33754" lon="-1.89329">
        <ele>51</ele>
        <time>2016-04-24T07:42:20Z</time>
      </trkpt>
      <trkpt lat="47.33757" lon="-1.89329">
        <ele>51</ele>
        <time>2016-04-24T07:42:21Z</time>
      </trkpt>
      <trkpt lat="47.3376" lon="-1.89328">
        <ele>52</ele>
        <time>2016-04-24T07:42:22Z</time>
      </trkpt>
      <trkpt lat="47.33764" lon="-1.89328">
        <ele>52</ele>
        <time>2016-04-24T07:42:23Z</time>
      </trkpt>
      <trkpt lat="47.33766" lon="-1.89327">
        <ele>52</ele>
        <time>2016-04-24T07:42:24Z</time>
      </trkpt>
      <trkpt lat="47.33771" lon="-1.89325">
        <ele>52</ele>
        <time>2016-04-24T07:42:26Z</time>
      </trkpt>
      <trkpt lat="47.33775" lon="-1.89322">
        <ele>53</ele>
        <time>2016-04-24T07:42:28Z</time>
      </trkpt>
      <trkpt lat="47.3378" lon="-1.89319">
        <ele>53</ele>
        <time>2016-04-24T07:42:30Z</time>
      </trkpt>
      <trkpt lat="47.33785" lon="-1.89319">
        <ele>53</ele>
        <time>2016-04-24T07:42:32Z</time>
      </trkpt>
      <trkpt lat="47.33789" lon="-1.89319">
        <ele>54</ele>
        <time>2016-04-24T07:42:34Z</time>
      </trkpt>
      <trkpt lat="47.33793" lon="-1.89319">
        <ele>54</ele>
        <time>2016-04-24T07:42:37Z</time>
      </trkpt>
      <trkpt lat="47.33795" lon="-1.89322">
        <ele>54</ele>
        <time>2016-04-24T07:42:39Z</time>
      </trkpt>
      <trkpt lat="47.33799" lon="-1.89324">
        <ele>54</ele>
        <time>2016-04-24T07:42:42Z</time>
      </trkpt>
      <trkpt lat="47.33802" lon="-1.89324">
        <ele>54</ele>
        <time>2016-04-24T07:42:45Z</time>
      </trkpt>
      <trkpt lat="47.33805" lon="-1.89327">
        <ele>54</ele>
        <time>2016-04-24T07:42:47Z</time>
      </trkpt>
      <trkpt lat="47.3381" lon="-1.8933">
        <ele>55</ele>
        <time>2016-04-24T07:42:49Z</time>
      </trkpt>
      <trkpt lat="47.33814" lon="-1.89334">
        <ele>53</ele>
        <time>2016-04-24T07:42:51Z</time>
      </trkpt>
      <trkpt lat="47.33819" lon="-1.89336">
        <ele>54</ele>
        <time>2016-04-24T07:42:53Z</time>
      </trkpt>
      <trkpt lat="47.33823" lon="-1.89332">
        <ele>55</ele>
        <time>2016-04-24T07:42:55Z</time>
      </trkpt>
      <trkpt lat="47.33827" lon="-1.89329">
        <ele>55</ele>
        <time>2016-04-24T07:42:57Z</time>
      </trkpt>
      <trkpt lat="47.33831" lon="-1.89327">
        <ele>56</ele>
        <time>2016-04-24T07:42:59Z</time>
      </trkpt>
      <trkpt lat="47.33835" lon="-1.89324">
        <ele>56</ele>
        <time>2016-04-24T07:43:01Z</time>
      </trkpt>
      <trkpt lat="47.33834" lon="-1.89318">
        <ele>56</ele>
        <time>2016-04-24T07:43:03Z</time>
      </trkpt>
      <trkpt lat="47.33833" lon="-1.8931">
        <ele>55</ele>
        <time>2016-04-24T07:43:05Z</time>
      </trkpt>
      <trkpt lat="47.33833" lon="-1.89304">
        <ele>56</ele>
        <time>2016-04-24T07:43:07Z</time>
      </trkpt>
      <trkpt lat="47.33836" lon="-1.89298">
        <ele>56</ele>
        <time>2016-04-24T07:43:09Z</time>
      </trkpt>
      <trkpt lat="47.33838" lon="-1.89292">
        <ele>56</ele>
        <time>2016-04-24T07:43:11Z</time>
      </trkpt>
      <trkpt lat="47.3384" lon="-1.89286">
        <ele>56</ele>
        <time>2016-04-24T07:43:13Z</time>
      </trkpt>
      <trkpt lat="47.33843" lon="-1.89282">
        <ele>56</ele>
        <time>2016-04-24T07:43:15Z</time>
      </trkpt>
      <trkpt lat="47.33847" lon="-1.89277">
        <ele>56</ele>
        <time>2016-04-24T07:43:17Z</time>
      </trkpt>
      <trkpt lat="47.3385" lon="-1.89275">
        <ele>56</ele>
        <time>2016-04-24T07:43:19Z</time>
      </trkpt>
      <trkpt lat="47.33854" lon="-1.89274">
        <ele>56</ele>
        <time>2016-04-24T07:43:21Z</time>
      </trkpt>
      <trkpt lat="47.33858" lon="-1.89275">
        <ele>56</ele>
        <time>2016-04-24T07:43:23Z</time>
      </trkpt>
      <trkpt lat="47.3386" lon="-1.89278">
        <ele>56</ele>
        <time>2016-04-24T07:43:25Z</time>
      </trkpt>
      <trkpt lat="47.33863" lon="-1.89282">
        <ele>56</ele>
        <time>2016-04-24T07:43:27Z</time>
      </trkpt>
      <trkpt lat="47.33866" lon="-1.89286">
        <ele>56</ele>
        <time>2016-04-24T07:43:29Z</time>
      </trkpt>
      <trkpt lat="47.33865" lon="-1.89291">
        <ele>56</ele>
        <time>2016-04-24T07:43:31Z</time>
      </trkpt>
      <trkpt lat="47.33862" lon="-1.89295">
        <ele>56</ele>
        <time>2016-04-24T07:43:33Z</time>
      </trkpt>
      <trkpt lat="47.33859" lon="-1.89298">
        <ele>56</ele>
        <time>2016-04-24T07:43:34Z</time>
      </trkpt>
      <trkpt lat="47.33856" lon="-1.89301">
        <ele>56</ele>
        <time>2016-04-24T07:43:35Z</time>
      </trkpt>
      <trkpt lat="47.33853" lon="-1.89305">
        <ele>56</ele>
        <time>2016-04-24T07:43:36Z</time>
      </trkpt>
      <trkpt lat="47.33849" lon="-1.89309">
        <ele>56</ele>
        <time>2016-04-24T07:43:37Z</time>
      </trkpt>
      <trkpt lat="47.33846" lon="-1.89313">
        <ele>56</ele>
        <time>2016-04-24T07:43:38Z</time>
      </trkpt>
      <trkpt lat="47.33843" lon="-1.89317">
        <ele>56</ele>
        <time>2016-04-24T07:43:39Z</time>
      </trkpt>
      <trkpt lat="47.3384" lon="-1.8932">
        <ele>56</ele>
        <time>2016-04-24T07:43:40Z</time>
      </trkpt>
      <trkpt lat="47.33845" lon="-1.89323">
        <ele>56</ele>
        <time>2016-04-24T07:43:44Z</time>
      </trkpt>
      <trkpt lat="47.33849" lon="-1.89321">
        <ele>56</ele>
        <time>2016-04-24T07:43:45Z</time>
      </trkpt>
      <trkpt lat="47.33852" lon="-1.8932">
        <ele>56</ele>
        <time>2016-04-24T07:43:46Z</time>
      </trkpt>
      <trkpt lat="47.33854" lon="-1.89318">
        <ele>56</ele>
        <time>2016-04-24T07:43:47Z</time>
      </trkpt>
      <trkpt lat="47.33857" lon="-1.89317">
        <ele>56</ele>
        <time>2016-04-24T07:43:48Z</time>
      </trkpt>
      <trkpt lat="47.3386" lon="-1.89316">
        <ele>56</ele>
        <time>2016-04-24T07:43:49Z</time>
      </trkpt>
      <trkpt lat="47.33863" lon="-1.89315">
        <ele>56</ele>
        <time>2016-04-24T07:43:50Z</time>
      </trkpt>
      <trkpt lat="47.33866" lon="-1.89314">
        <ele>56</ele>
        <time>2016-04-24T07:43:51Z</time>
      </trkpt>
      <trkpt lat="47.33868" lon="-1.89313">
        <ele>55</ele>
        <time>2016-04-24T07:43:52Z</time>
      </trkpt>
      <trkpt lat="47.33871" lon="-1.89311">
        <ele>55</ele>
        <time>2016-04-24T07:43:53Z</time>
      </trkpt>
      <trkpt lat="47.33873" lon="-1.89309">
        <ele>55</ele>
        <time>2016-04-24T07:43:54Z</time>
      </trkpt>
      <trkpt lat="47.33879" lon="-1.89307">
        <ele>55</ele>
        <time>2016-04-24T07:43:56Z</time>
      </trkpt>
      <trkpt lat="47.33881" lon="-1.89306">
        <ele>55</ele>
        <time>2016-04-24T07:43:57Z</time>
      </trkpt>
      <trkpt lat="47.33884" lon="-1.89304">
        <ele>55</ele>
        <time>2016-04-24T07:43:58Z</time>
      </trkpt>
      <trkpt lat="47.33886" lon="-1.89301">
        <ele>55</ele>
        <time>2016-04-24T07:43:59Z</time>
      </trkpt>
      <trkpt lat="47.33888" lon="-1.89298">
        <ele>55</ele>
        <time>2016-04-24T07:44:00Z</time>
      </trkpt>
      <trkpt lat="47.33888" lon="-1.89292">
        <ele>56</ele>
        <time>2016-04-24T07:44:02Z</time>
      </trkpt>
      <trkpt lat="47.33885" lon="-1.8929">
        <ele>56</ele>
        <time>2016-04-24T07:44:04Z</time>
      </trkpt>
      <trkpt lat="47.33882" lon="-1.89287">
        <ele>56</ele>
        <time>2016-04-24T07:44:06Z</time>
      </trkpt>
      <trkpt lat="47.33882" lon="-1.89282">
        <ele>56</ele>
        <time>2016-04-24T07:44:08Z</time>
      </trkpt>
      <trkpt lat="47.33883" lon="-1.89276">
        <ele>56</ele>
        <time>2016-04-24T07:44:10Z</time>
      </trkpt>
      <trkpt lat="47.33884" lon="-1.89271">
        <ele>56</ele>
        <time>2016-04-24T07:44:12Z</time>
      </trkpt>
      <trkpt lat="47.33881" lon="-1.89267">
        <ele>56</ele>
        <time>2016-04-24T07:44:14Z</time>
      </trkpt>
      <trkpt lat="47.33878" lon="-1.89262">
        <ele>56</ele>
        <time>2016-04-24T07:44:16Z</time>
      </trkpt>
      <trkpt lat="47.33877" lon="-1.89257">
        <ele>56</ele>
        <time>2016-04-24T07:44:18Z</time>
      </trkpt>
      <trkpt lat="47.33875" lon="-1.89251">
        <ele>56</ele>
        <time>2016-04-24T07:44:20Z</time>
      </trkpt>
      <trkpt lat="47.33872" lon="-1.89247">
        <ele>59</ele>
        <time>2016-04-24T07:44:22Z</time>
      </trkpt>
      <trkpt lat="47.33869" lon="-1.89245">
        <ele>59</ele>
        <time>2016-04-24T07:44:26Z</time>
      </trkpt>
      <trkpt lat="47.33869" lon="-1.8924">
        <ele>59</ele>
        <time>2016-04-24T07:44:28Z</time>
      </trkpt>
      <trkpt lat="47.3387" lon="-1.89235">
        <ele>59</ele>
        <time>2016-04-24T07:44:30Z</time>
      </trkpt>
      <trkpt lat="47.3387" lon="-1.89229">
        <ele>59</ele>
        <time>2016-04-24T07:44:32Z</time>
      </trkpt>
      <trkpt lat="47.33871" lon="-1.89222">
        <ele>59</ele>
        <time>2016-04-24T07:44:34Z</time>
      </trkpt>
      <trkpt lat="47.3387" lon="-1.89216">
        <ele>59</ele>
        <time>2016-04-24T07:44:36Z</time>
      </trkpt>
      <trkpt lat="47.33868" lon="-1.89213">
        <ele>59</ele>
        <time>2016-04-24T07:44:41Z</time>
      </trkpt>
      <trkpt lat="47.33871" lon="-1.89209">
        <ele>59</ele>
        <time>2016-04-24T07:44:47Z</time>
      </trkpt>
      <trkpt lat="47.33874" lon="-1.89208">
        <ele>59</ele>
        <time>2016-04-24T07:44:48Z</time>
      </trkpt>
      <trkpt lat="47.33877" lon="-1.89204">
        <ele>59</ele>
        <time>2016-04-24T07:44:49Z</time>
      </trkpt>
      <trkpt lat="47.3388" lon="-1.89201">
        <ele>59</ele>
        <time>2016-04-24T07:44:50Z</time>
      </trkpt>
      <trkpt lat="47.33882" lon="-1.89198">
        <ele>59</ele>
        <time>2016-04-24T07:44:51Z</time>
      </trkpt>
      <trkpt lat="47.33883" lon="-1.89193">
        <ele>60</ele>
        <time>2016-04-24T07:44:52Z</time>
      </trkpt>
      <trkpt lat="47.33884" lon="-1.89189">
        <ele>60</ele>
        <time>2016-04-24T07:44:53Z</time>
      </trkpt>
      <trkpt lat="47.33886" lon="-1.89185">
        <ele>60</ele>
        <time>2016-04-24T07:44:54Z</time>
      </trkpt>
      <trkpt lat="47.33887" lon="-1.89181">
        <ele>60</ele>
        <time>2016-04-24T07:44:55Z</time>
      </trkpt>
      <trkpt lat="47.33888" lon="-1.89177">
        <ele>60</ele>
        <time>2016-04-24T07:44:56Z</time>
      </trkpt>
      <trkpt lat="47.33889" lon="-1.89172">
        <ele>60</ele>
        <time>2016-04-24T07:44:57Z</time>
      </trkpt>
      <trkpt lat="47.33891" lon="-1.89168">
        <ele>60</ele>
        <time>2016-04-24T07:44:58Z</time>
      </trkpt>
      <trkpt lat="47.33893" lon="-1.89164">
        <ele>60</ele>
        <time>2016-04-24T07:44:59Z</time>
      </trkpt>
      <trkpt lat="47.33895" lon="-1.8916">
        <ele>60</ele>
        <time>2016-04-24T07:45:00Z</time>
      </trkpt>
      <trkpt lat="47.33897" lon="-1.89157">
        <ele>60</ele>
        <time>2016-04-24T07:45:01Z</time>
      </trkpt>
      <trkpt lat="47.33898" lon="-1.89152">
        <ele>60</ele>
        <time>2016-04-24T07:45:02Z</time>
      </trkpt>
      <trkpt lat="47.339" lon="-1.89146">
        <ele>60</ele>
        <time>2016-04-24T07:45:03Z</time>
      </trkpt>
      <trkpt lat="47.33902" lon="-1.89141">
        <ele>60</ele>
        <time>2016-04-24T07:45:04Z</time>
      </trkpt>
      <trkpt lat="47.33904" lon="-1.89138">
        <ele>60</ele>
        <time>2016-04-24T07:45:05Z</time>
      </trkpt>
      <trkpt lat="47.33907" lon="-1.89137">
        <ele>60</ele>
        <time>2016-04-24T07:45:06Z</time>
      </trkpt>
      <trkpt lat="47.33909" lon="-1.89139">
        <ele>60</ele>
        <time>2016-04-24T07:45:07Z</time>
      </trkpt>
      <trkpt lat="47.33911" lon="-1.89144">
        <ele>60</ele>
        <time>2016-04-24T07:45:08Z</time>
      </trkpt>
      <trkpt lat="47.33911" lon="-1.89148">
        <ele>60</ele>
        <time>2016-04-24T07:45:09Z</time>
      </trkpt>
      <trkpt lat="47.3391" lon="-1.89155">
        <ele>61</ele>
        <time>2016-04-24T07:45:11Z</time>
      </trkpt>
      <trkpt lat="47.33909" lon="-1.89161">
        <ele>61</ele>
        <time>2016-04-24T07:45:13Z</time>
      </trkpt>
      <trkpt lat="47.33908" lon="-1.89166">
        <ele>61</ele>
        <time>2016-04-24T07:45:15Z</time>
      </trkpt>
      <trkpt lat="47.33906" lon="-1.89173">
        <ele>60</ele>
        <time>2016-04-24T07:45:17Z</time>
      </trkpt>
      <trkpt lat="47.33904" lon="-1.89179">
        <ele>60</ele>
        <time>2016-04-24T07:45:19Z</time>
      </trkpt>
      <trkpt lat="47.33903" lon="-1.89187">
        <ele>60</ele>
        <time>2016-04-24T07:45:21Z</time>
      </trkpt>
      <trkpt lat="47.33902" lon="-1.89193">
        <ele>60</ele>
        <time>2016-04-24T07:45:23Z</time>
      </trkpt>
      <trkpt lat="47.339" lon="-1.89199">
        <ele>60</ele>
        <time>2016-04-24T07:45:25Z</time>
      </trkpt>
      <trkpt lat="47.33897" lon="-1.89204">
        <ele>59</ele>
        <time>2016-04-24T07:45:27Z</time>
      </trkpt>
      <trkpt lat="47.33894" lon="-1.89206">
        <ele>59</ele>
        <time>2016-04-24T07:45:30Z</time>
      </trkpt>
      <trkpt lat="47.33892" lon="-1.89215">
        <ele>59</ele>
        <time>2016-04-24T07:45:32Z</time>
      </trkpt>
      <trkpt lat="47.33891" lon="-1.89219">
        <ele>59</ele>
        <time>2016-04-24T07:45:33Z</time>
      </trkpt>
      <trkpt lat="47.3389" lon="-1.89224">
        <ele>59</ele>
        <time>2016-04-24T07:45:34Z</time>
      </trkpt>
      <trkpt lat="47.33889" lon="-1.89228">
        <ele>59</ele>
        <time>2016-04-24T07:45:35Z</time>
      </trkpt>
      <trkpt lat="47.33892" lon="-1.89226">
        <ele>59</ele>
        <time>2016-04-24T07:45:39Z</time>
      </trkpt>
      <trkpt lat="47.33895" lon="-1.89221">
        <ele>59</ele>
        <time>2016-04-24T07:45:41Z</time>
      </trkpt>
      <trkpt lat="47.33898" lon="-1.89212">
        <ele>59</ele>
        <time>2016-04-24T07:45:43Z</time>
      </trkpt>
      <trkpt lat="47.33899" lon="-1.89207">
        <ele>59</ele>
        <time>2016-04-24T07:45:44Z</time>
      </trkpt>
      <trkpt lat="47.339" lon="-1.89202">
        <ele>59</ele>
        <time>2016-04-24T07:45:45Z</time>
      </trkpt>
      <trkpt lat="47.33901" lon="-1.89196">
        <ele>60</ele>
        <time>2016-04-24T07:45:46Z</time>
      </trkpt>
      <trkpt lat="47.33903" lon="-1.89191">
        <ele>60</ele>
        <time>2016-04-24T07:45:47Z</time>
      </trkpt>
      <trkpt lat="47.33904" lon="-1.89186">
        <ele>60</ele>
        <time>2016-04-24T07:45:48Z</time>
      </trkpt>
      <trkpt lat="47.33907" lon="-1.89182">
        <ele>60</ele>
        <time>2016-04-24T07:45:49Z</time>
      </trkpt>
      <trkpt lat="47.33909" lon="-1.89178">
        <ele>60</ele>
        <time>2016-04-24T07:45:50Z</time>
      </trkpt>
      <trkpt lat="47.33911" lon="-1.89173">
        <ele>61</ele>
        <time>2016-04-24T07:45:51Z</time>
      </trkpt>
      <trkpt lat="47.33915" lon="-1.89161">
        <ele>61</ele>
        <time>2016-04-24T07:45:52Z</time>
      </trkpt>
      <trkpt lat="47.33916" lon="-1.89153">
        <ele>61</ele>
        <time>2016-04-24T07:45:53Z</time>
      </trkpt>
      <trkpt lat="47.33921" lon="-1.89148">
        <ele>60</ele>
        <time>2016-04-24T07:45:54Z</time>
      </trkpt>
      <trkpt lat="47.33925" lon="-1.89147">
        <ele>60</ele>
        <time>2016-04-24T07:45:55Z</time>
      </trkpt>
      <trkpt lat="47.33925" lon="-1.89153">
        <ele>60</ele>
        <time>2016-04-24T07:45:59Z</time>
      </trkpt>
      <trkpt lat="47.33926" lon="-1.8916">
        <ele>60</ele>
        <time>2016-04-24T07:46:01Z</time>
      </trkpt>
      <trkpt lat="47.33924" lon="-1.89165">
        <ele>60</ele>
        <time>2016-04-24T07:46:02Z</time>
      </trkpt>
      <trkpt lat="47.33923" lon="-1.89171">
        <ele>61</ele>
        <time>2016-04-24T07:46:05Z</time>
      </trkpt>
      <trkpt lat="47.33922" lon="-1.89176">
        <ele>61</ele>
        <time>2016-04-24T07:46:07Z</time>
      </trkpt>
      <trkpt lat="47.33922" lon="-1.89182">
        <ele>60</ele>
        <time>2016-04-24T07:46:09Z</time>
      </trkpt>
      <trkpt lat="47.33921" lon="-1.89187">
        <ele>60</ele>
        <time>2016-04-24T07:46:11Z</time>
      </trkpt>
      <trkpt lat="47.3392" lon="-1.89194">
        <ele>60</ele>
        <time>2016-04-24T07:46:13Z</time>
      </trkpt>
      <trkpt lat="47.33919" lon="-1.892">
        <ele>60</ele>
        <time>2016-04-24T07:46:15Z</time>
      </trkpt>
      <trkpt lat="47.33918" lon="-1.89206">
        <ele>60</ele>
        <time>2016-04-24T07:46:17Z</time>
      </trkpt>
      <trkpt lat="47.33917" lon="-1.89212">
        <ele>60</ele>
        <time>2016-04-24T07:46:19Z</time>
      </trkpt>
      <trkpt lat="47.33916" lon="-1.89219">
        <ele>59</ele>
        <time>2016-04-24T07:46:21Z</time>
      </trkpt>
      <trkpt lat="47.33915" lon="-1.89223">
        <ele>59</ele>
        <time>2016-04-24T07:46:22Z</time>
      </trkpt>
      <trkpt lat="47.33914" lon="-1.89228">
        <ele>59</ele>
        <time>2016-04-24T07:46:23Z</time>
      </trkpt>
      <trkpt lat="47.33912" lon="-1.89233">
        <ele>59</ele>
        <time>2016-04-24T07:46:24Z</time>
      </trkpt>
      <trkpt lat="47.33911" lon="-1.89237">
        <ele>59</ele>
        <time>2016-04-24T07:46:25Z</time>
      </trkpt>
      <trkpt lat="47.3391" lon="-1.89241">
        <ele>58</ele>
        <time>2016-04-24T07:46:26Z</time>
      </trkpt>
      <trkpt lat="47.33909" lon="-1.89246">
        <ele>58</ele>
        <time>2016-04-24T07:46:27Z</time>
      </trkpt>
      <trkpt lat="47.33909" lon="-1.8925">
        <ele>57</ele>
        <time>2016-04-24T07:46:28Z</time>
      </trkpt>
      <trkpt lat="47.33908" lon="-1.89255">
        <ele>57</ele>
        <time>2016-04-24T07:46:29Z</time>
      </trkpt>
      <trkpt lat="47.33908" lon="-1.89262">
        <ele>57</ele>
        <time>2016-04-24T07:46:31Z</time>
      </trkpt>
      <trkpt lat="47.33907" lon="-1.8927">
        <ele>56</ele>
        <time>2016-04-24T07:46:33Z</time>
      </trkpt>
      <trkpt lat="47.33906" lon="-1.89274">
        <ele>56</ele>
        <time>2016-04-24T07:46:34Z</time>
      </trkpt>
      <trkpt lat="47.33905" lon="-1.89278">
        <ele>56</ele>
        <time>2016-04-24T07:46:35Z</time>
      </trkpt>
      <trkpt lat="47.33905" lon="-1.89283">
        <ele>56</ele>
        <time>2016-04-24T07:46:36Z</time>
      </trkpt>
      <trkpt lat="47.33904" lon="-1.89288">
        <ele>56</ele>
        <time>2016-04-24T07:46:37Z</time>
      </trkpt>
      <trkpt lat="47.33904" lon="-1.89293">
        <ele>55</ele>
        <time>2016-04-24T07:46:38Z</time>
      </trkpt>
      <trkpt lat="47.33903" lon="-1.89299">
        <ele>55</ele>
        <time>2016-04-24T07:46:39Z</time>
      </trkpt>
      <trkpt lat="47.33903" lon="-1.89304">
        <ele>55</ele>
        <time>2016-04-24T07:46:40Z</time>
      </trkpt>
      <trkpt lat="47.33902" lon="-1.89309">
        <ele>55</ele>
        <time>2016-04-24T07:46:41Z</time>
      </trkpt>
      <trkpt lat="47.339" lon="-1.89313">
        <ele>55</ele>
        <time>2016-04-24T07:46:42Z</time>
      </trkpt>
      <trkpt lat="47.33898" lon="-1.89317">
        <ele>54</ele>
        <time>2016-04-24T07:46:43Z</time>
      </trkpt>
      <trkpt lat="47.33896" lon="-1.8932">
        <ele>54</ele>
        <time>2016-04-24T07:46:44Z</time>
      </trkpt>
      <trkpt lat="47.33894" lon="-1.89324">
        <ele>54</ele>
        <time>2016-04-24T07:46:45Z</time>
      </trkpt>
      <trkpt lat="47.33892" lon="-1.89328">
        <ele>54</ele>
        <time>2016-04-24T07:46:47Z</time>
      </trkpt>
      <trkpt lat="47.33889" lon="-1.8933">
        <ele>55</ele>
        <time>2016-04-24T07:46:49Z</time>
      </trkpt>
      <trkpt lat="47.33885" lon="-1.89328">
        <ele>55</ele>
        <time>2016-04-24T07:46:51Z</time>
      </trkpt>
      <trkpt lat="47.33882" lon="-1.89327">
        <ele>55</ele>
        <time>2016-04-24T07:46:52Z</time>
      </trkpt>
      <trkpt lat="47.33879" lon="-1.89325">
        <ele>55</ele>
        <time>2016-04-24T07:46:53Z</time>
      </trkpt>
      <trkpt lat="47.33874" lon="-1.89327">
        <ele>55</ele>
        <time>2016-04-24T07:46:55Z</time>
      </trkpt>
      <trkpt lat="47.33872" lon="-1.89331">
        <ele>55</ele>
        <time>2016-04-24T07:46:57Z</time>
      </trkpt>
      <trkpt lat="47.33871" lon="-1.89335">
        <ele>53</ele>
        <time>2016-04-24T07:46:59Z</time>
      </trkpt>
      <trkpt lat="47.33869" lon="-1.89342">
        <ele>53</ele>
        <time>2016-04-24T07:47:01Z</time>
      </trkpt>
      <trkpt lat="47.33866" lon="-1.89346">
        <ele>53</ele>
        <time>2016-04-24T07:47:02Z</time>
      </trkpt>
      <trkpt lat="47.33863" lon="-1.89348">
        <ele>53</ele>
        <time>2016-04-24T07:47:03Z</time>
      </trkpt>
      <trkpt lat="47.3386" lon="-1.8935">
        <ele>53</ele>
        <time>2016-04-24T07:47:04Z</time>
      </trkpt>
      <trkpt lat="47.33857" lon="-1.89352">
        <ele>53</ele>
        <time>2016-04-24T07:47:05Z</time>
      </trkpt>
      <trkpt lat="47.33854" lon="-1.89355">
        <ele>53</ele>
        <time>2016-04-24T07:47:06Z</time>
      </trkpt>
      <trkpt lat="47.33851" lon="-1.89359">
        <ele>53</ele>
        <time>2016-04-24T07:47:07Z</time>
      </trkpt>
      <trkpt lat="47.33848" lon="-1.89363">
        <ele>53</ele>
        <time>2016-04-24T07:47:08Z</time>
      </trkpt>
      <trkpt lat="47.33845" lon="-1.89366">
        <ele>53</ele>
        <time>2016-04-24T07:47:09Z</time>
      </trkpt>
      <trkpt lat="47.33844" lon="-1.89369">
        <ele>53</ele>
        <time>2016-04-24T07:47:10Z</time>
      </trkpt>
      <trkpt lat="47.33844" lon="-1.89375">
        <ele>52</ele>
        <time>2016-04-24T07:47:12Z</time>
      </trkpt>
      <trkpt lat="47.33849" lon="-1.89376">
        <ele>52</ele>
        <time>2016-04-24T07:47:14Z</time>
      </trkpt>
      <trkpt lat="47.33851" lon="-1.89373">
        <ele>53</ele>
        <time>2016-04-24T07:47:16Z</time>
      </trkpt>
      <trkpt lat="47.33853" lon="-1.89369">
        <ele>53</ele>
        <time>2016-04-24T07:47:18Z</time>
      </trkpt>
      <trkpt lat="47.33857" lon="-1.89369">
        <ele>53</ele>
        <time>2016-04-24T07:47:20Z</time>
      </trkpt>
      <trkpt lat="47.33859" lon="-1.89373">
        <ele>52</ele>
        <time>2016-04-24T07:47:22Z</time>
      </trkpt>
      <trkpt lat="47.33859" lon="-1.89381">
        <ele>52</ele>
        <time>2016-04-24T07:47:24Z</time>
      </trkpt>
      <trkpt lat="47.33859" lon="-1.89387">
        <ele>52</ele>
        <time>2016-04-24T07:47:26Z</time>
      </trkpt>
      <trkpt lat="47.33859" lon="-1.89393">
        <ele>52</ele>
        <time>2016-04-24T07:47:28Z</time>
      </trkpt>
      <trkpt lat="47.33857" lon="-1.894">
        <ele>52</ele>
        <time>2016-04-24T07:47:30Z</time>
      </trkpt>
      <trkpt lat="47.33855" lon="-1.89403">
        <ele>52</ele>
        <time>2016-04-24T07:47:31Z</time>
      </trkpt>
      <trkpt lat="47.33853" lon="-1.89405">
        <ele>51</ele>
        <time>2016-04-24T07:47:32Z</time>
      </trkpt>
      <trkpt lat="47.3385" lon="-1.89405">
        <ele>51</ele>
        <time>2016-04-24T07:47:33Z</time>
      </trkpt>
      <trkpt lat="47.33845" lon="-1.89404">
        <ele>51</ele>
        <time>2016-04-24T07:47:35Z</time>
      </trkpt>
      <trkpt lat="47.3384" lon="-1.89402">
        <ele>51</ele>
        <time>2016-04-24T07:47:37Z</time>
      </trkpt>
      <trkpt lat="47.33837" lon="-1.89401">
        <ele>51</ele>
        <time>2016-04-24T07:47:38Z</time>
      </trkpt>
      <trkpt lat="47.33833" lon="-1.89397">
        <ele>51</ele>
        <time>2016-04-24T07:47:40Z</time>
      </trkpt>
      <trkpt lat="47.33829" lon="-1.89392">
        <ele>51</ele>
        <time>2016-04-24T07:47:42Z</time>
      </trkpt>
      <trkpt lat="47.33826" lon="-1.89387">
        <ele>51</ele>
        <time>2016-04-24T07:47:44Z</time>
      </trkpt>
      <trkpt lat="47.3382" lon="-1.89387">
        <ele>51</ele>
        <time>2016-04-24T07:47:46Z</time>
      </trkpt>
      <trkpt lat="47.33816" lon="-1.89386">
        <ele>51</ele>
        <time>2016-04-24T07:47:48Z</time>
      </trkpt>
      <trkpt lat="47.33811" lon="-1.89381">
        <ele>51</ele>
        <time>2016-04-24T07:47:50Z</time>
      </trkpt>
      <trkpt lat="47.33807" lon="-1.89379">
        <ele>51</ele>
        <time>2016-04-24T07:47:52Z</time>
      </trkpt>
      <trkpt lat="47.33803" lon="-1.89378">
        <ele>51</ele>
        <time>2016-04-24T07:47:53Z</time>
      </trkpt>
      <trkpt lat="47.33799" lon="-1.89376">
        <ele>51</ele>
        <time>2016-04-24T07:47:54Z</time>
      </trkpt>
      <trkpt lat="47.33795" lon="-1.89376">
        <ele>51</ele>
        <time>2016-04-24T07:47:55Z</time>
      </trkpt>
      <trkpt lat="47.33792" lon="-1.89378">
        <ele>50</ele>
        <time>2016-04-24T07:47:56Z</time>
      </trkpt>
      <trkpt lat="47.33792" lon="-1.89382">
        <ele>50</ele>
        <time>2016-04-24T07:47:57Z</time>
      </trkpt>
      <trkpt lat="47.33794" lon="-1.89385">
        <ele>50</ele>
        <time>2016-04-24T07:47:58Z</time>
      </trkpt>
      <trkpt lat="47.33796" lon="-1.89387">
        <ele>50</ele>
        <time>2016-04-24T07:47:59Z</time>
      </trkpt>
      <trkpt lat="47.33799" lon="-1.89388">
        <ele>50</ele>
        <time>2016-04-24T07:48:00Z</time>
      </trkpt>
      <trkpt lat="47.33804" lon="-1.89391">
        <ele>50</ele>
        <time>2016-04-24T07:48:02Z</time>
      </trkpt>
      <trkpt lat="47.33808" lon="-1.89394">
        <ele>50</ele>
        <time>2016-04-24T07:48:04Z</time>
      </trkpt>
      <trkpt lat="47.33812" lon="-1.89397">
        <ele>50</ele>
        <time>2016-04-24T07:48:06Z</time>
      </trkpt>
      <trkpt lat="47.33814" lon="-1.89402">
        <ele>50</ele>
        <time>2016-04-24T07:48:08Z</time>
      </trkpt>
      <trkpt lat="47.33816" lon="-1.89407">
        <ele>50</ele>
        <time>2016-04-24T07:48:09Z</time>
      </trkpt>
      <trkpt lat="47.33818" lon="-1.89414">
        <ele>50</ele>
        <time>2016-04-24T07:48:11Z</time>
      </trkpt>
      <trkpt lat="47.33818" lon="-1.89418">
        <ele>49</ele>
        <time>2016-04-24T07:48:12Z</time>
      </trkpt>
      <trkpt lat="47.33818" lon="-1.89422">
        <ele>49</ele>
        <time>2016-04-24T07:48:13Z</time>
      </trkpt>
      <trkpt lat="47.33814" lon="-1.89426">
        <ele>49</ele>
        <time>2016-04-24T07:48:15Z</time>
      </trkpt>
      <trkpt lat="47.3381" lon="-1.89425">
        <ele>48</ele>
        <time>2016-04-24T07:48:16Z</time>
      </trkpt>
      <trkpt lat="47.33807" lon="-1.89423">
        <ele>48</ele>
        <time>2016-04-24T07:48:17Z</time>
      </trkpt>
      <trkpt lat="47.33805" lon="-1.8942">
        <ele>48</ele>
        <time>2016-04-24T07:48:18Z</time>
      </trkpt>
      <trkpt lat="47.33802" lon="-1.89418">
        <ele>48</ele>
        <time>2016-04-24T07:48:19Z</time>
      </trkpt>
      <trkpt lat="47.338" lon="-1.89416">
        <ele>50</ele>
        <time>2016-04-24T07:48:20Z</time>
      </trkpt>
      <trkpt lat="47.33797" lon="-1.89413">
        <ele>50</ele>
        <time>2016-04-24T07:48:21Z</time>
      </trkpt>
      <trkpt lat="47.33794" lon="-1.8941">
        <ele>50</ele>
        <time>2016-04-24T07:48:22Z</time>
      </trkpt>
      <trkpt lat="47.33792" lon="-1.89408">
        <ele>50</ele>
        <time>2016-04-24T07:48:23Z</time>
      </trkpt>
      <trkpt lat="47.33788" lon="-1.89405">
        <ele>50</ele>
        <time>2016-04-24T07:48:25Z</time>
      </trkpt>
      <trkpt lat="47.33785" lon="-1.89399">
        <ele>50</ele>
        <time>2016-04-24T07:48:27Z</time>
      </trkpt>
      <trkpt lat="47.33785" lon="-1.89392">
        <ele>50</ele>
        <time>2016-04-24T07:48:29Z</time>
      </trkpt>
      <trkpt lat="47.33785" lon="-1.89386">
        <ele>50</ele>
        <time>2016-04-24T07:48:31Z</time>
      </trkpt>
      <trkpt lat="47.33783" lon="-1.8938">
        <ele>50</ele>
        <time>2016-04-24T07:48:33Z</time>
      </trkpt>
      <trkpt lat="47.3378" lon="-1.89374">
        <ele>50</ele>
        <time>2016-04-24T07:48:35Z</time>
      </trkpt>
      <trkpt lat="47.33776" lon="-1.89371">
        <ele>50</ele>
        <time>2016-04-24T07:48:37Z</time>
      </trkpt>
      <trkpt lat="47.33771" lon="-1.89368">
        <ele>50</ele>
        <time>2016-04-24T07:48:39Z</time>
      </trkpt>
      <trkpt lat="47.33769" lon="-1.89365">
        <ele>50</ele>
        <time>2016-04-24T07:48:40Z</time>
      </trkpt>
      <trkpt lat="47.33766" lon="-1.89363">
        <ele>50</ele>
        <time>2016-04-24T07:48:41Z</time>
      </trkpt>
      <trkpt lat="47.33764" lon="-1.89359">
        <ele>50</ele>
        <time>2016-04-24T07:48:42Z</time>
      </trkpt>
      <trkpt lat="47.33763" lon="-1.89355">
        <ele>50</ele>
        <time>2016-04-24T07:48:43Z</time>
      </trkpt>
      <trkpt lat="47.33765" lon="-1.89349">
        <ele>50</ele>
        <time>2016-04-24T07:48:45Z</time>
      </trkpt>
      <trkpt lat="47.33768" lon="-1.89348">
        <ele>50</ele>
        <time>2016-04-24T07:48:47Z</time>
      </trkpt>
      <trkpt lat="47.33772" lon="-1.89347">
        <ele>51</ele>
        <time>2016-04-24T07:48:49Z</time>
      </trkpt>
      <trkpt lat="47.33773" lon="-1.89343">
        <ele>51</ele>
        <time>2016-04-24T07:48:51Z</time>
      </trkpt>
      <trkpt lat="47.33772" lon="-1.89338">
        <ele>51</ele>
        <time>2016-04-24T07:48:53Z</time>
      </trkpt>
      <trkpt lat="47.3377" lon="-1.89334">
        <ele>51</ele>
        <time>2016-04-24T07:48:55Z</time>
      </trkpt>
      <trkpt lat="47.33771" lon="-1.89329">
        <ele>52</ele>
        <time>2016-04-24T07:48:57Z</time>
      </trkpt>
      <trkpt lat="47.33774" lon="-1.89326">
        <ele>53</ele>
        <time>2016-04-24T07:48:59Z</time>
      </trkpt>
      <trkpt lat="47.33777" lon="-1.89324">
        <ele>53</ele>
        <time>2016-04-24T07:49:01Z</time>
      </trkpt>
      <trkpt lat="47.33781" lon="-1.89322">
        <ele>53</ele>
        <time>2016-04-24T07:49:03Z</time>
      </trkpt>
      <trkpt lat="47.33784" lon="-1.89321">
        <ele>53</ele>
        <time>2016-04-24T07:49:43Z</time>
      </trkpt>
      <trkpt lat="47.33787" lon="-1.8932">
        <ele>53</ele>
        <time>2016-04-24T07:49:45Z</time>
      </trkpt>
      <trkpt lat="47.3379" lon="-1.89317">
        <ele>54</ele>
        <time>2016-04-24T07:49:47Z</time>
      </trkpt>
      <trkpt lat="47.33792" lon="-1.89313">
        <ele>54</ele>
        <time>2016-04-24T07:49:49Z</time>
      </trkpt>
      <trkpt lat="47.33794" lon="-1.89309">
        <ele>54</ele>
        <time>2016-04-24T07:49:51Z</time>
      </trkpt>
      <trkpt lat="47.33795" lon="-1.89304">
        <ele>54</ele>
        <time>2016-04-24T07:49:54Z</time>
      </trkpt>
      <trkpt lat="47.33797" lon="-1.89308">
        <ele>54</ele>
        <time>2016-04-24T07:49:57Z</time>
      </trkpt>
      <trkpt lat="47.33797" lon="-1.89304">
        <ele>54</ele>
        <time>2016-04-24T07:51:14Z</time>
      </trkpt>
      <trkpt lat="47.33798" lon="-1.89298">
        <ele>54</ele>
        <time>2016-04-24T07:51:16Z</time>
      </trkpt>
      <trkpt lat="47.33798" lon="-1.89294">
        <ele>54</ele>
        <time>2016-04-24T07:51:17Z</time>
      </trkpt>
      <trkpt lat="47.33798" lon="-1.89289">
        <ele>54</ele>
        <time>2016-04-24T07:51:18Z</time>
      </trkpt>
      <trkpt lat="47.33798" lon="-1.89285">
        <ele>54</ele>
        <time>2016-04-24T07:51:19Z</time>
      </trkpt>
      <trkpt lat="47.33798" lon="-1.89281">
        <ele>54</ele>
        <time>2016-04-24T07:51:20Z</time>
      </trkpt>
      <trkpt lat="47.33799" lon="-1.89277">
        <ele>54</ele>
        <time>2016-04-24T07:51:21Z</time>
      </trkpt>
      <trkpt lat="47.33803" lon="-1.89271">
        <ele>55</ele>
        <time>2016-04-24T07:51:23Z</time>
      </trkpt>
      <trkpt lat="47.33807" lon="-1.89268">
        <ele>55</ele>
        <time>2016-04-24T07:51:25Z</time>
      </trkpt>
      <trkpt lat="47.33811" lon="-1.89267">
        <ele>55</ele>
        <time>2016-04-24T07:51:27Z</time>
      </trkpt>
      <trkpt lat="47.33814" lon="-1.89266">
        <ele>55</ele>
        <time>2016-04-24T07:51:29Z</time>
      </trkpt>
      <trkpt lat="47.33818" lon="-1.89265">
        <ele>55</ele>
        <time>2016-04-24T07:51:32Z</time>
      </trkpt>
      <trkpt lat="47.33822" lon="-1.89264">
        <ele>55</ele>
        <time>2016-04-24T07:51:34Z</time>
      </trkpt>
      <trkpt lat="47.33826" lon="-1.89263">
        <ele>56</ele>
        <time>2016-04-24T07:51:36Z</time>
      </trkpt>
      <trkpt lat="47.33831" lon="-1.8926">
        <ele>56</ele>
        <time>2016-04-24T07:51:38Z</time>
      </trkpt>
      <trkpt lat="47.33835" lon="-1.89258">
        <ele>57</ele>
        <time>2016-04-24T07:51:40Z</time>
      </trkpt>
      <trkpt lat="47.33839" lon="-1.89256">
        <ele>57</ele>
        <time>2016-04-24T07:51:42Z</time>
      </trkpt>
      <trkpt lat="47.33843" lon="-1.89251">
        <ele>57</ele>
        <time>2016-04-24T07:51:44Z</time>
      </trkpt>
      <trkpt lat="47.33844" lon="-1.89248">
        <ele>58</ele>
        <time>2016-04-24T07:51:45Z</time>
      </trkpt>
      <trkpt lat="47.33846" lon="-1.89244">
        <ele>58</ele>
        <time>2016-04-24T07:51:46Z</time>
      </trkpt>
      <trkpt lat="47.33847" lon="-1.8924">
        <ele>58</ele>
        <time>2016-04-24T07:51:47Z</time>
      </trkpt>
      <trkpt lat="47.33848" lon="-1.89235">
        <ele>58</ele>
        <time>2016-04-24T07:51:48Z</time>
      </trkpt>
      <trkpt lat="47.33848" lon="-1.89231">
        <ele>58</ele>
        <time>2016-04-24T07:51:49Z</time>
      </trkpt>
      <trkpt lat="47.33848" lon="-1.89227">
        <ele>59</ele>
        <time>2016-04-24T07:51:50Z</time>
      </trkpt>
      <trkpt lat="47.33849" lon="-1.89219">
        <ele>59</ele>
        <time>2016-04-24T07:51:52Z</time>
      </trkpt>
      <trkpt lat="47.3385" lon="-1.89215">
        <ele>59</ele>
        <time>2016-04-24T07:51:53Z</time>
      </trkpt>
      <trkpt lat="47.33851" lon="-1.89211">
        <ele>59</ele>
        <time>2016-04-24T07:51:54Z</time>
      </trkpt>
      <trkpt lat="47.33853" lon="-1.89207">
        <ele>59</ele>
        <time>2016-04-24T07:51:55Z</time>
      </trkpt>
      <trkpt lat="47.33855" lon="-1.89203">
        <ele>59</ele>
        <time>2016-04-24T07:51:56Z</time>
      </trkpt>
      <trkpt lat="47.33857" lon="-1.89199">
        <ele>59</ele>
        <time>2016-04-24T07:51:57Z</time>
      </trkpt>
      <trkpt lat="47.33859" lon="-1.89194">
        <ele>60</ele>
        <time>2016-04-24T07:51:58Z</time>
      </trkpt>
      <trkpt lat="47.3386" lon="-1.89189">
        <ele>60</ele>
        <time>2016-04-24T07:51:59Z</time>
      </trkpt>
      <trkpt lat="47.33862" lon="-1.89184">
        <ele>60</ele>
        <time>2016-04-24T07:52:00Z</time>
      </trkpt>
      <trkpt lat="47.33862" lon="-1.8918">
        <ele>60</ele>
        <time>2016-04-24T07:52:01Z</time>
      </trkpt>
      <trkpt lat="47.33862" lon="-1.89174">
        <ele>60</ele>
        <time>2016-04-24T07:52:03Z</time>
      </trkpt>
      <trkpt lat="47.33863" lon="-1.89167">
        <ele>60</ele>
        <time>2016-04-24T07:52:05Z</time>
      </trkpt>
      <trkpt lat="47.33862" lon="-1.89159">
        <ele>60</ele>
        <time>2016-04-24T07:52:07Z</time>
      </trkpt>
      <trkpt lat="47.33862" lon="-1.89155">
        <ele>60</ele>
        <time>2016-04-24T07:52:08Z</time>
      </trkpt>
      <trkpt lat="47.33862" lon="-1.8915">
        <ele>60</ele>
        <time>2016-04-24T07:52:09Z</time>
      </trkpt>
      <trkpt lat="47.33862" lon="-1.89146">
        <ele>60</ele>
        <time>2016-04-24T07:52:10Z</time>
      </trkpt>
      <trkpt lat="47.33862" lon="-1.89141">
        <ele>60</ele>
        <time>2016-04-24T07:52:11Z</time>
      </trkpt>
      <trkpt lat="47.33861" lon="-1.89136">
        <ele>60</ele>
        <time>2016-04-24T07:52:12Z</time>
      </trkpt>
      <trkpt lat="47.33859" lon="-1.89129">
        <ele>60</ele>
        <time>2016-04-24T07:52:13Z</time>
      </trkpt>
      <trkpt lat="47.33858" lon="-1.89122">
        <ele>60</ele>
        <time>2016-04-24T07:52:14Z</time>
      </trkpt>
      <trkpt lat="47.33857" lon="-1.89114">
        <ele>60</ele>
        <time>2016-04-24T07:52:15Z</time>
      </trkpt>
      <trkpt lat="47.33852" lon="-1.89101">
        <ele>60</ele>
        <time>2016-04-24T07:52:16Z</time>
      </trkpt>
      <trkpt lat="47.33848" lon="-1.89093">
        <ele>60</ele>
        <time>2016-04-24T07:52:17Z</time>
      </trkpt>
      <trkpt lat="47.3385" lon="-1.89082">
        <ele>59</ele>
        <time>2016-04-24T07:52:18Z</time>
      </trkpt>
      <trkpt lat="47.33848" lon="-1.89074">
        <ele>59</ele>
        <time>2016-04-24T07:52:20Z</time>
      </trkpt>
      <trkpt lat="47.3385" lon="-1.89069">
        <ele>59</ele>
        <time>2016-04-24T07:52:23Z</time>
      </trkpt>
      <trkpt lat="47.33852" lon="-1.89065">
        <ele>59</ele>
        <time>2016-04-24T07:52:25Z</time>
      </trkpt>
      <trkpt lat="47.33856" lon="-1.89065">
        <ele>59</ele>
        <time>2016-04-24T07:52:27Z</time>
      </trkpt>
      <trkpt lat="47.33859" lon="-1.89063">
        <ele>59</ele>
        <time>2016-04-24T07:52:30Z</time>
      </trkpt>
      <trkpt lat="47.33862" lon="-1.89061">
        <ele>59</ele>
        <time>2016-04-24T07:52:33Z</time>
      </trkpt>
      <trkpt lat="47.33859" lon="-1.89062">
        <ele>59</ele>
        <time>2016-04-24T07:52:39Z</time>
      </trkpt>
      <trkpt lat="47.33856" lon="-1.89066">
        <ele>59</ele>
        <time>2016-04-24T07:52:41Z</time>
      </trkpt>
      <trkpt lat="47.33853" lon="-1.8907">
        <ele>59</ele>
        <time>2016-04-24T07:52:43Z</time>
      </trkpt>
      <trkpt lat="47.3385" lon="-1.89072">
        <ele>59</ele>
        <time>2016-04-24T07:52:45Z</time>
      </trkpt>
      <trkpt lat="47.33848" lon="-1.89075">
        <ele>59</ele>
        <time>2016-04-24T07:52:47Z</time>
      </trkpt>
      <trkpt lat="47.33844" lon="-1.89076">
        <ele>59</ele>
        <time>2016-04-24T07:52:50Z</time>
      </trkpt>
      <trkpt lat="47.33841" lon="-1.89075">
        <ele>60</ele>
        <time>2016-04-24T07:52:52Z</time>
      </trkpt>
      <trkpt lat="47.33835" lon="-1.89078">
        <ele>60</ele>
        <time>2016-04-24T07:52:54Z</time>
      </trkpt>
      <trkpt lat="47.33831" lon="-1.89081">
        <ele>60</ele>
        <time>2016-04-24T07:52:55Z</time>
      </trkpt>
      <trkpt lat="47.33827" lon="-1.89083">
        <ele>59</ele>
        <time>2016-04-24T07:52:56Z</time>
      </trkpt>
      <trkpt lat="47.33823" lon="-1.89086">
        <ele>59</ele>
        <time>2016-04-24T07:52:57Z</time>
      </trkpt>
      <trkpt lat="47.33819" lon="-1.89089">
        <ele>59</ele>
        <time>2016-04-24T07:52:58Z</time>
      </trkpt>
      <trkpt lat="47.33815" lon="-1.89091">
        <ele>59</ele>
        <time>2016-04-24T07:52:59Z</time>
      </trkpt>
      <trkpt lat="47.33807" lon="-1.89094">
        <ele>58</ele>
        <time>2016-04-24T07:53:00Z</time>
      </trkpt>
      <trkpt lat="47.33801" lon="-1.89097">
        <ele>58</ele>
        <time>2016-04-24T07:53:01Z</time>
      </trkpt>
      <trkpt lat="47.33796" lon="-1.89098">
        <ele>58</ele>
        <time>2016-04-24T07:53:02Z</time>
      </trkpt>
      <trkpt lat="47.3379" lon="-1.89098">
        <ele>57</ele>
        <time>2016-04-24T07:53:03Z</time>
      </trkpt>
      <trkpt lat="47.33784" lon="-1.891">
        <ele>57</ele>
        <time>2016-04-24T07:53:04Z</time>
      </trkpt>
      <trkpt lat="47.33778" lon="-1.891">
        <ele>57</ele>
        <time>2016-04-24T07:53:05Z</time>
      </trkpt>
      <trkpt lat="47.33772" lon="-1.89101">
        <ele>56</ele>
        <time>2016-04-24T07:53:06Z</time>
      </trkpt>
      <trkpt lat="47.33766" lon="-1.89102">
        <ele>56</ele>
        <time>2016-04-24T07:53:07Z</time>
      </trkpt>
      <trkpt lat="47.3376" lon="-1.89103">
        <ele>56</ele>
        <time>2016-04-24T07:53:08Z</time>
      </trkpt>
      <trkpt lat="47.33752" lon="-1.89103">
        <ele>56</ele>
        <time>2016-04-24T07:53:09Z</time>
      </trkpt>
      <trkpt lat="47.33745" lon="-1.89104">
        <ele>54</ele>
        <time>2016-04-24T07:53:10Z</time>
      </trkpt>
      <trkpt lat="47.33739" lon="-1.89106">
        <ele>54</ele>
        <time>2016-04-24T07:53:11Z</time>
      </trkpt>
      <trkpt lat="47.33732" lon="-1.89107">
        <ele>54</ele>
        <time>2016-04-24T07:53:12Z</time>
      </trkpt>
      <trkpt lat="47.33726" lon="-1.89109">
        <ele>54</ele>
        <time>2016-04-24T07:53:13Z</time>
      </trkpt>
      <trkpt lat="47.3372" lon="-1.8911">
        <ele>54</ele>
        <time>2016-04-24T07:53:14Z</time>
      </trkpt>
      <trkpt lat="47.33713" lon="-1.89112">
        <ele>54</ele>
        <time>2016-04-24T07:53:15Z</time>
      </trkpt>
      <trkpt lat="47.33706" lon="-1.89115">
        <ele>54</ele>
        <time>2016-04-24T07:53:16Z</time>
      </trkpt>
      <trkpt lat="47.33701" lon="-1.89118">
        <ele>54</ele>
        <time>2016-04-24T07:53:17Z</time>
      </trkpt>
      <trkpt lat="47.33694" lon="-1.8912">
        <ele>54</ele>
        <time>2016-04-24T07:53:18Z</time>
      </trkpt>
      <trkpt lat="47.33688" lon="-1.89123">
        <ele>54</ele>
        <time>2016-04-24T07:53:19Z</time>
      </trkpt>
      <trkpt lat="47.33682" lon="-1.89126">
        <ele>55</ele>
        <time>2016-04-24T07:53:20Z</time>
      </trkpt>
      <trkpt lat="47.33678" lon="-1.89129">
        <ele>55</ele>
        <time>2016-04-24T07:53:21Z</time>
      </trkpt>
      <trkpt lat="47.33673" lon="-1.89132">
        <ele>55</ele>
        <time>2016-04-24T07:53:22Z</time>
      </trkpt>
      <trkpt lat="47.33667" lon="-1.89135">
        <ele>55</ele>
        <time>2016-04-24T07:53:23Z</time>
      </trkpt>
      <trkpt lat="47.33662" lon="-1.89139">
        <ele>53</ele>
        <time>2016-04-24T07:53:24Z</time>
      </trkpt>
      <trkpt lat="47.33656" lon="-1.89142">
        <ele>53</ele>
        <time>2016-04-24T07:53:25Z</time>
      </trkpt>
      <trkpt lat="47.3365" lon="-1.89146">
        <ele>53</ele>
        <time>2016-04-24T07:53:26Z</time>
      </trkpt>
      <trkpt lat="47.33646" lon="-1.89148">
        <ele>53</ele>
        <time>2016-04-24T07:53:27Z</time>
      </trkpt>
      <trkpt lat="47.33643" lon="-1.8915">
        <ele>53</ele>
        <time>2016-04-24T07:53:28Z</time>
      </trkpt>
      <trkpt lat="47.33638" lon="-1.89152">
        <ele>53</ele>
        <time>2016-04-24T07:53:29Z</time>
      </trkpt>
      <trkpt lat="47.33634" lon="-1.89153">
        <ele>52</ele>
        <time>2016-04-24T07:53:30Z</time>
      </trkpt>
      <trkpt lat="47.3363" lon="-1.89152">
        <ele>52</ele>
        <time>2016-04-24T07:53:31Z</time>
      </trkpt>
      <trkpt lat="47.33627" lon="-1.89149">
        <ele>52</ele>
        <time>2016-04-24T07:53:32Z</time>
      </trkpt>
      <trkpt lat="47.33625" lon="-1.89144">
        <ele>52</ele>
        <time>2016-04-24T07:53:33Z</time>
      </trkpt>
      <trkpt lat="47.33622" lon="-1.89139">
        <ele>52</ele>
        <time>2016-04-24T07:53:34Z</time>
      </trkpt>
      <trkpt lat="47.3362" lon="-1.89134">
        <ele>52</ele>
        <time>2016-04-24T07:53:35Z</time>
      </trkpt>
      <trkpt lat="47.33618" lon="-1.89127">
        <ele>52</ele>
        <time>2016-04-24T07:53:37Z</time>
      </trkpt>
      <trkpt lat="47.33617" lon="-1.89123">
        <ele>52</ele>
        <time>2016-04-24T07:53:38Z</time>
      </trkpt>
      <trkpt lat="47.33616" lon="-1.89118">
        <ele>52</ele>
        <time>2016-04-24T07:53:39Z</time>
      </trkpt>
      <trkpt lat="47.33615" lon="-1.89114">
        <ele>52</ele>
        <time>2016-04-24T07:53:40Z</time>
      </trkpt>
      <trkpt lat="47.33614" lon="-1.8911">
        <ele>52</ele>
        <time>2016-04-24T07:53:41Z</time>
      </trkpt>
      <trkpt lat="47.33612" lon="-1.89107">
        <ele>52</ele>
        <time>2016-04-24T07:53:42Z</time>
      </trkpt>
      <trkpt lat="47.33611" lon="-1.89103">
        <ele>52</ele>
        <time>2016-04-24T07:53:43Z</time>
      </trkpt>
      <trkpt lat="47.3361" lon="-1.89097">
        <ele>52</ele>
        <time>2016-04-24T07:53:45Z</time>
      </trkpt>
      <trkpt lat="47.33609" lon="-1.89091">
        <ele>52</ele>
        <time>2016-04-24T07:53:47Z</time>
      </trkpt>
      <trkpt lat="47.33608" lon="-1.89083">
        <ele>52</ele>
        <time>2016-04-24T07:53:49Z</time>
      </trkpt>
      <trkpt lat="47.33607" lon="-1.89079">
        <ele>53</ele>
        <time>2016-04-24T07:53:50Z</time>
      </trkpt>
      <trkpt lat="47.33606" lon="-1.89073">
        <ele>53</ele>
        <time>2016-04-24T07:53:51Z</time>
      </trkpt>
      <trkpt lat="47.33605" lon="-1.89068">
        <ele>53</ele>
        <time>2016-04-24T07:53:52Z</time>
      </trkpt>
      <trkpt lat="47.33604" lon="-1.89063">
        <ele>53</ele>
        <time>2016-04-24T07:53:53Z</time>
      </trkpt>
      <trkpt lat="47.33602" lon="-1.89059">
        <ele>54</ele>
        <time>2016-04-24T07:53:54Z</time>
      </trkpt>
      <trkpt lat="47.33601" lon="-1.89054">
        <ele>54</ele>
        <time>2016-04-24T07:53:55Z</time>
      </trkpt>
      <trkpt lat="47.33599" lon="-1.89049">
        <ele>54</ele>
        <time>2016-04-24T07:53:56Z</time>
      </trkpt>
      <trkpt lat="47.33598" lon="-1.89045">
        <ele>54</ele>
        <time>2016-04-24T07:53:57Z</time>
      </trkpt>
      <trkpt lat="47.33597" lon="-1.8904">
        <ele>54</ele>
        <time>2016-04-24T07:53:58Z</time>
      </trkpt>
      <trkpt lat="47.33596" lon="-1.89036">
        <ele>54</ele>
        <time>2016-04-24T07:53:59Z</time>
      </trkpt>
      <trkpt lat="47.33595" lon="-1.89032">
        <ele>55</ele>
        <time>2016-04-24T07:54:00Z</time>
      </trkpt>
      <trkpt lat="47.33593" lon="-1.89027">
        <ele>55</ele>
        <time>2016-04-24T07:54:01Z</time>
      </trkpt>
      <trkpt lat="47.33593" lon="-1.89023">
        <ele>55</ele>
        <time>2016-04-24T07:54:02Z</time>
      </trkpt>
      <trkpt lat="47.33592" lon="-1.89016">
        <ele>55</ele>
        <time>2016-04-24T07:54:04Z</time>
      </trkpt>
      <trkpt lat="47.33591" lon="-1.89011">
        <ele>55</ele>
        <time>2016-04-24T07:54:05Z</time>
      </trkpt>
      <trkpt lat="47.33591" lon="-1.89007">
        <ele>55</ele>
        <time>2016-04-24T07:54:06Z</time>
      </trkpt>
      <trkpt lat="47.33591" lon="-1.89001">
        <ele>56</ele>
        <time>2016-04-24T07:54:08Z</time>
      </trkpt>
      <trkpt lat="47.33588" lon="-1.88997">
        <ele>56</ele>
        <time>2016-04-24T07:54:11Z</time>
      </trkpt>
      <trkpt lat="47.33585" lon="-1.88996">
        <ele>56</ele>
        <time>2016-04-24T07:54:13Z</time>
      </trkpt>
      <trkpt lat="47.33583" lon="-1.88993">
        <ele>55</ele>
        <time>2016-04-24T07:54:15Z</time>
      </trkpt>
      <trkpt lat="47.3358" lon="-1.88992">
        <ele>54</ele>
        <time>2016-04-24T07:54:17Z</time>
      </trkpt>
      <trkpt lat="47.33577" lon="-1.88991">
        <ele>54</ele>
        <time>2016-04-24T07:54:19Z</time>
      </trkpt>
      <trkpt lat="47.33573" lon="-1.88991">
        <ele>53</ele>
        <time>2016-04-24T07:54:21Z</time>
      </trkpt>
      <trkpt lat="47.33569" lon="-1.88996">
        <ele>53</ele>
        <time>2016-04-24T07:54:23Z</time>
      </trkpt>
      <trkpt lat="47.33566" lon="-1.88998">
        <ele>53</ele>
        <time>2016-04-24T07:54:24Z</time>
      </trkpt>
      <trkpt lat="47.33563" lon="-1.89">
        <ele>52</ele>
        <time>2016-04-24T07:54:25Z</time>
      </trkpt>
      <trkpt lat="47.3356" lon="-1.89">
        <ele>52</ele>
        <time>2016-04-24T07:54:26Z</time>
      </trkpt>
      <trkpt lat="47.33557" lon="-1.89001">
        <ele>51</ele>
        <time>2016-04-24T07:54:27Z</time>
      </trkpt>
      <trkpt lat="47.33554" lon="-1.89002">
        <ele>51</ele>
        <time>2016-04-24T07:54:28Z</time>
      </trkpt>
      <trkpt lat="47.3355" lon="-1.89004">
        <ele>51</ele>
        <time>2016-04-24T07:54:29Z</time>
      </trkpt>
      <trkpt lat="47.33546" lon="-1.89005">
        <ele>50</ele>
        <time>2016-04-24T07:54:30Z</time>
      </trkpt>
      <trkpt lat="47.33542" lon="-1.89006">
        <ele>50</ele>
        <time>2016-04-24T07:54:31Z</time>
      </trkpt>
      <trkpt lat="47.33538" lon="-1.89006">
        <ele>49</ele>
        <time>2016-04-24T07:54:32Z</time>
      </trkpt>
      <trkpt lat="47.33534" lon="-1.89005">
        <ele>49</ele>
        <time>2016-04-24T07:54:33Z</time>
      </trkpt>
      <trkpt lat="47.3353" lon="-1.89005">
        <ele>49</ele>
        <time>2016-04-24T07:54:34Z</time>
      </trkpt>
      <trkpt lat="47.33526" lon="-1.89004">
        <ele>48</ele>
        <time>2016-04-24T07:54:35Z</time>
      </trkpt>
      <trkpt lat="47.33521" lon="-1.89004">
        <ele>48</ele>
        <time>2016-04-24T07:54:36Z</time>
      </trkpt>
      <trkpt lat="47.33517" lon="-1.89002">
        <ele>47</ele>
        <time>2016-04-24T07:54:37Z</time>
      </trkpt>
      <trkpt lat="47.33512" lon="-1.89">
        <ele>47</ele>
        <time>2016-04-24T07:54:38Z</time>
      </trkpt>
      <trkpt lat="47.33507" lon="-1.88999">
        <ele>46</ele>
        <time>2016-04-24T07:54:39Z</time>
      </trkpt>
      <trkpt lat="47.33503" lon="-1.88999">
        <ele>46</ele>
        <time>2016-04-24T07:54:40Z</time>
      </trkpt>
      <trkpt lat="47.335" lon="-1.89003">
        <ele>45</ele>
        <time>2016-04-24T07:54:41Z</time>
      </trkpt>
      <trkpt lat="47.335" lon="-1.8901">
        <ele>43</ele>
        <time>2016-04-24T07:54:43Z</time>
      </trkpt>
      <trkpt lat="47.33501" lon="-1.89017">
        <ele>47</ele>
        <time>2016-04-24T07:54:45Z</time>
      </trkpt>
      <trkpt lat="47.33502" lon="-1.89021">
        <ele>47</ele>
        <time>2016-04-24T07:54:47Z</time>
      </trkpt>
      <trkpt lat="47.33506" lon="-1.8902">
        <ele>47</ele>
        <time>2016-04-24T07:54:49Z</time>
      </trkpt>
      <trkpt lat="47.33508" lon="-1.89019">
        <ele>47</ele>
        <time>2016-04-24T07:54:51Z</time>
      </trkpt>
      <trkpt lat="47.33513" lon="-1.89019">
        <ele>48</ele>
        <time>2016-04-24T07:54:54Z</time>
      </trkpt>
      <trkpt lat="47.33517" lon="-1.89018">
        <ele>48</ele>
        <time>2016-04-24T07:54:56Z</time>
      </trkpt>
      <trkpt lat="47.3352" lon="-1.89017">
        <ele>48</ele>
        <time>2016-04-24T07:54:58Z</time>
      </trkpt>
      <trkpt lat="47.33523" lon="-1.89013">
        <ele>48</ele>
        <time>2016-04-24T07:55:00Z</time>
      </trkpt>
      <trkpt lat="47.33527" lon="-1.89012">
        <ele>48</ele>
        <time>2016-04-24T07:55:02Z</time>
      </trkpt>
      <trkpt lat="47.33532" lon="-1.89013">
        <ele>49</ele>
        <time>2016-04-24T07:55:04Z</time>
      </trkpt>
      <trkpt lat="47.33536" lon="-1.89014">
        <ele>49</ele>
        <time>2016-04-24T07:55:06Z</time>
      </trkpt>
      <trkpt lat="47.3354" lon="-1.89014">
        <ele>49</ele>
        <time>2016-04-24T07:55:08Z</time>
      </trkpt>
      <trkpt lat="47.33542" lon="-1.89012">
        <ele>50</ele>
        <time>2016-04-24T07:55:10Z</time>
      </trkpt>
      <trkpt lat="47.33546" lon="-1.89011">
        <ele>50</ele>
        <time>2016-04-24T07:55:12Z</time>
      </trkpt>
      <trkpt lat="47.3355" lon="-1.89011">
        <ele>50</ele>
        <time>2016-04-24T07:55:14Z</time>
      </trkpt>
      <trkpt lat="47.33554" lon="-1.89011">
        <ele>51</ele>
        <time>2016-04-24T07:55:16Z</time>
      </trkpt>
      <trkpt lat="47.33557" lon="-1.89011">
        <ele>51</ele>
        <time>2016-04-24T07:55:18Z</time>
      </trkpt>
      <trkpt lat="47.3356" lon="-1.89008">
        <ele>51</ele>
        <time>2016-04-24T07:55:20Z</time>
      </trkpt>
      <trkpt lat="47.33562" lon="-1.89006">
        <ele>52</ele>
        <time>2016-04-24T07:55:22Z</time>
      </trkpt>
      <trkpt lat="47.33566" lon="-1.89004">
        <ele>52</ele>
        <time>2016-04-24T07:55:24Z</time>
      </trkpt>
      <trkpt lat="47.33569" lon="-1.89005">
        <ele>53</ele>
        <time>2016-04-24T07:55:26Z</time>
      </trkpt>
      <trkpt lat="47.3357" lon="-1.89009">
        <ele>53</ele>
        <time>2016-04-24T07:55:28Z</time>
      </trkpt>
      <trkpt lat="47.33571" lon="-1.89015">
        <ele>52</ele>
        <time>2016-04-24T07:55:30Z</time>
      </trkpt>
      <trkpt lat="47.33569" lon="-1.89021">
        <ele>52</ele>
        <time>2016-04-24T07:55:32Z</time>
      </trkpt>
      <trkpt lat="47.33565" lon="-1.89024">
        <ele>51</ele>
        <time>2016-04-24T07:55:34Z</time>
      </trkpt>
      <trkpt lat="47.33561" lon="-1.89026">
        <ele>51</ele>
        <time>2016-04-24T07:55:36Z</time>
      </trkpt>
      <trkpt lat="47.33559" lon="-1.89034">
        <ele>50</ele>
        <time>2016-04-24T07:55:38Z</time>
      </trkpt>
      <trkpt lat="47.3356" lon="-1.89038">
        <ele>50</ele>
        <time>2016-04-24T07:55:39Z</time>
      </trkpt>
      <trkpt lat="47.33561" lon="-1.89044">
        <ele>50</ele>
        <time>2016-04-24T07:55:41Z</time>
      </trkpt>
      <trkpt lat="47.33561" lon="-1.8905">
        <ele>50</ele>
        <time>2016-04-24T07:55:43Z</time>
      </trkpt>
      <trkpt lat="47.3356" lon="-1.89055">
        <ele>50</ele>
        <time>2016-04-24T07:55:45Z</time>
      </trkpt>
      <trkpt lat="47.33557" lon="-1.89054">
        <ele>50</ele>
        <time>2016-04-24T07:55:47Z</time>
      </trkpt>
      <trkpt lat="47.33553" lon="-1.8905">
        <ele>50</ele>
        <time>2016-04-24T07:55:49Z</time>
      </trkpt>
      <trkpt lat="47.33551" lon="-1.89045">
        <ele>50</ele>
        <time>2016-04-24T07:55:51Z</time>
      </trkpt>
      <trkpt lat="47.33551" lon="-1.89041">
        <ele>50</ele>
        <time>2016-04-24T07:55:54Z</time>
      </trkpt>
      <trkpt lat="47.3355" lon="-1.89045">
        <ele>50</ele>
        <time>2016-04-24T07:55:59Z</time>
      </trkpt>
      <trkpt lat="47.3355" lon="-1.89051">
        <ele>50</ele>
        <time>2016-04-24T07:56:00Z</time>
      </trkpt>
      <trkpt lat="47.33551" lon="-1.89057">
        <ele>49</ele>
        <time>2016-04-24T07:56:01Z</time>
      </trkpt>
      <trkpt lat="47.33552" lon="-1.89061">
        <ele>49</ele>
        <time>2016-04-24T07:56:02Z</time>
      </trkpt>
      <trkpt lat="47.33553" lon="-1.89065">
        <ele>50</ele>
        <time>2016-04-24T07:56:03Z</time>
      </trkpt>
      <trkpt lat="47.33552" lon="-1.8907">
        <ele>49</ele>
        <time>2016-04-24T07:56:05Z</time>
      </trkpt>
      <trkpt lat="47.33549" lon="-1.8907">
        <ele>49</ele>
        <time>2016-04-24T07:56:06Z</time>
      </trkpt>
      <trkpt lat="47.33546" lon="-1.89069">
        <ele>49</ele>
        <time>2016-04-24T07:56:07Z</time>
      </trkpt>
      <trkpt lat="47.33542" lon="-1.89068">
        <ele>49</ele>
        <time>2016-04-24T07:56:08Z</time>
      </trkpt>
      <trkpt lat="47.33539" lon="-1.89065">
        <ele>49</ele>
        <time>2016-04-24T07:56:10Z</time>
      </trkpt>
      <trkpt lat="47.33538" lon="-1.89058">
        <ele>49</ele>
        <time>2016-04-24T07:56:12Z</time>
      </trkpt>
      <trkpt lat="47.33536" lon="-1.89051">
        <ele>49</ele>
        <time>2016-04-24T07:56:14Z</time>
      </trkpt>
      <trkpt lat="47.33533" lon="-1.89048">
        <ele>49</ele>
        <time>2016-04-24T07:56:16Z</time>
      </trkpt>
      <trkpt lat="47.33531" lon="-1.89051">
        <ele>49</ele>
        <time>2016-04-24T07:56:18Z</time>
      </trkpt>
      <trkpt lat="47.33528" lon="-1.89055">
        <ele>48</ele>
        <time>2016-04-24T07:56:20Z</time>
      </trkpt>
      <trkpt lat="47.33528" lon="-1.89061">
        <ele>48</ele>
        <time>2016-04-24T07:56:22Z</time>
      </trkpt>
      <trkpt lat="47.3353" lon="-1.89066">
        <ele>48</ele>
        <time>2016-04-24T07:56:24Z</time>
      </trkpt>
      <trkpt lat="47.33532" lon="-1.8907">
        <ele>48</ele>
        <time>2016-04-24T07:56:26Z</time>
      </trkpt>
      <trkpt lat="47.33533" lon="-1.89076">
        <ele>48</ele>
        <time>2016-04-24T07:56:28Z</time>
      </trkpt>
      <trkpt lat="47.33531" lon="-1.89083">
        <ele>46</ele>
        <time>2016-04-24T07:56:30Z</time>
      </trkpt>
      <trkpt lat="47.3353" lon="-1.89087">
        <ele>46</ele>
        <time>2016-04-24T07:56:31Z</time>
      </trkpt>
      <trkpt lat="47.33529" lon="-1.89091">
        <ele>46</ele>
        <time>2016-04-24T07:56:32Z</time>
      </trkpt>
      <trkpt lat="47.33529" lon="-1.89096">
        <ele>46</ele>
        <time>2016-04-24T07:56:33Z</time>
      </trkpt>
      <trkpt lat="47.33528" lon="-1.891">
        <ele>46</ele>
        <time>2016-04-24T07:56:34Z</time>
      </trkpt>
      <trkpt lat="47.3353" lon="-1.89105">
        <ele>46</ele>
        <time>2016-04-24T07:56:36Z</time>
      </trkpt>
      <trkpt lat="47.33533" lon="-1.89105">
        <ele>46</ele>
        <time>2016-04-24T07:56:37Z</time>
      </trkpt>
      <trkpt lat="47.33536" lon="-1.89104">
        <ele>46</ele>
        <time>2016-04-24T07:56:38Z</time>
      </trkpt>
      <trkpt lat="47.33539" lon="-1.89104">
        <ele>46</ele>
        <time>2016-04-24T07:56:39Z</time>
      </trkpt>
      <trkpt lat="47.33542" lon="-1.89102">
        <ele>47</ele>
        <time>2016-04-24T07:56:40Z</time>
      </trkpt>
      <trkpt lat="47.33546" lon="-1.891">
        <ele>47</ele>
        <time>2016-04-24T07:56:41Z</time>
      </trkpt>
      <trkpt lat="47.33549" lon="-1.89098">
        <ele>47</ele>
        <time>2016-04-24T07:56:42Z</time>
      </trkpt>
      <trkpt lat="47.33551" lon="-1.89096">
        <ele>47</ele>
        <time>2016-04-24T07:56:43Z</time>
      </trkpt>
      <trkpt lat="47.33554" lon="-1.89093">
        <ele>47</ele>
        <time>2016-04-24T07:56:44Z</time>
      </trkpt>
      <trkpt lat="47.33556" lon="-1.8909">
        <ele>48</ele>
        <time>2016-04-24T07:56:45Z</time>
      </trkpt>
      <trkpt lat="47.33559" lon="-1.89088">
        <ele>48</ele>
        <time>2016-04-24T07:56:46Z</time>
      </trkpt>
      <trkpt lat="47.33561" lon="-1.89087">
        <ele>48</ele>
        <time>2016-04-24T07:56:47Z</time>
      </trkpt>
      <trkpt lat="47.33566" lon="-1.89088">
        <ele>48</ele>
        <time>2016-04-24T07:56:49Z</time>
      </trkpt>
      <trkpt lat="47.33571" lon="-1.8909">
        <ele>49</ele>
        <time>2016-04-24T07:56:51Z</time>
      </trkpt>
      <trkpt lat="47.33575" lon="-1.89091">
        <ele>49</ele>
        <time>2016-04-24T07:56:53Z</time>
      </trkpt>
      <trkpt lat="47.3358" lon="-1.8909">
        <ele>50</ele>
        <time>2016-04-24T07:56:55Z</time>
      </trkpt>
      <trkpt lat="47.33585" lon="-1.89087">
        <ele>51</ele>
        <time>2016-04-24T07:56:57Z</time>
      </trkpt>
      <trkpt lat="47.33589" lon="-1.89086">
        <ele>51</ele>
        <time>2016-04-24T07:56:59Z</time>
      </trkpt>
      <trkpt lat="47.33594" lon="-1.89087">
        <ele>51</ele>
        <time>2016-04-24T07:57:01Z</time>
      </trkpt>
      <trkpt lat="47.33598" lon="-1.89085">
        <ele>51</ele>
        <time>2016-04-24T07:57:03Z</time>
      </trkpt>
      <trkpt lat="47.33602" lon="-1.89084">
        <ele>52</ele>
        <time>2016-04-24T07:57:05Z</time>
      </trkpt>
      <trkpt lat="47.33605" lon="-1.89083">
        <ele>53</ele>
        <time>2016-04-24T07:57:12Z</time>
      </trkpt>
      <trkpt lat="47.33605" lon="-1.89076">
        <ele>53</ele>
        <time>2016-04-24T07:57:15Z</time>
      </trkpt>
      <trkpt lat="47.33604" lon="-1.89072">
        <ele>53</ele>
        <time>2016-04-24T07:57:16Z</time>
      </trkpt>
      <trkpt lat="47.33604" lon="-1.89068">
        <ele>53</ele>
        <time>2016-04-24T07:57:17Z</time>
      </trkpt>
      <trkpt lat="47.33603" lon="-1.89064">
        <ele>53</ele>
        <time>2016-04-24T07:57:18Z</time>
      </trkpt>
      <trkpt lat="47.33602" lon="-1.8906">
        <ele>54</ele>
        <time>2016-04-24T07:57:19Z</time>
      </trkpt>
      <trkpt lat="47.33601" lon="-1.89056">
        <ele>54</ele>
        <time>2016-04-24T07:57:20Z</time>
      </trkpt>
      <trkpt lat="47.336" lon="-1.89051">
        <ele>54</ele>
        <time>2016-04-24T07:57:21Z</time>
      </trkpt>
      <trkpt lat="47.336" lon="-1.89047">
        <ele>54</ele>
        <time>2016-04-24T07:57:22Z</time>
      </trkpt>
      <trkpt lat="47.33599" lon="-1.89043">
        <ele>54</ele>
        <time>2016-04-24T07:57:23Z</time>
      </trkpt>
      <trkpt lat="47.33598" lon="-1.89039">
        <ele>54</ele>
        <time>2016-04-24T07:57:24Z</time>
      </trkpt>
      <trkpt lat="47.33597" lon="-1.89035">
        <ele>54</ele>
        <time>2016-04-24T07:57:25Z</time>
      </trkpt>
      <trkpt lat="47.33596" lon="-1.89031">
        <ele>55</ele>
        <time>2016-04-24T07:57:26Z</time>
      </trkpt>
      <trkpt lat="47.33595" lon="-1.89027">
        <ele>55</ele>
        <time>2016-04-24T07:57:27Z</time>
      </trkpt>
      <trkpt lat="47.33594" lon="-1.89023">
        <ele>55</ele>
        <time>2016-04-24T07:57:28Z</time>
      </trkpt>
      <trkpt lat="47.33594" lon="-1.89019">
        <ele>55</ele>
        <time>2016-04-24T07:57:29Z</time>
      </trkpt>
      <trkpt lat="47.33593" lon="-1.89015">
        <ele>55</ele>
        <time>2016-04-24T07:57:30Z</time>
      </trkpt>
      <trkpt lat="47.33592" lon="-1.89007">
        <ele>55</ele>
        <time>2016-04-24T07:57:32Z</time>
      </trkpt>
      <trkpt lat="47.33593" lon="-1.89001">
        <ele>56</ele>
        <time>2016-04-24T07:57:34Z</time>
      </trkpt>
      <trkpt lat="47.33596" lon="-1.88996">
        <ele>56</ele>
        <time>2016-04-24T07:57:36Z</time>
      </trkpt>
      <trkpt lat="47.336" lon="-1.88992">
        <ele>56</ele>
        <time>2016-04-24T07:57:38Z</time>
      </trkpt>
      <trkpt lat="47.33604" lon="-1.88987">
        <ele>56</ele>
        <time>2016-04-24T07:57:40Z</time>
      </trkpt>
      <trkpt lat="47.33607" lon="-1.88984">
        <ele>56</ele>
        <time>2016-04-24T07:57:41Z</time>
      </trkpt>
      <trkpt lat="47.33609" lon="-1.88981">
        <ele>56</ele>
        <time>2016-04-24T07:57:42Z</time>
      </trkpt>
      <trkpt lat="47.33612" lon="-1.88978">
        <ele>56</ele>
        <time>2016-04-24T07:57:43Z</time>
      </trkpt>
      <trkpt lat="47.33614" lon="-1.88976">
        <ele>56</ele>
        <time>2016-04-24T07:57:44Z</time>
      </trkpt>
      <trkpt lat="47.33617" lon="-1.88973">
        <ele>56</ele>
        <time>2016-04-24T07:57:45Z</time>
      </trkpt>
      <trkpt lat="47.3362" lon="-1.88971">
        <ele>56</ele>
        <time>2016-04-24T07:57:46Z</time>
      </trkpt>
      <trkpt lat="47.33623" lon="-1.88969">
        <ele>56</ele>
        <time>2016-04-24T07:57:47Z</time>
      </trkpt>
      <trkpt lat="47.33626" lon="-1.88966">
        <ele>57</ele>
        <time>2016-04-24T07:57:48Z</time>
      </trkpt>
      <trkpt lat="47.33628" lon="-1.88964">
        <ele>57</ele>
        <time>2016-04-24T07:57:49Z</time>
      </trkpt>
      <trkpt lat="47.33631" lon="-1.88962">
        <ele>57</ele>
        <time>2016-04-24T07:57:50Z</time>
      </trkpt>
      <trkpt lat="47.33634" lon="-1.8896">
        <ele>57</ele>
        <time>2016-04-24T07:57:51Z</time>
      </trkpt>
      <trkpt lat="47.33637" lon="-1.88959">
        <ele>57</ele>
        <time>2016-04-24T07:57:52Z</time>
      </trkpt>
      <trkpt lat="47.3364" lon="-1.88958">
        <ele>57</ele>
        <time>2016-04-24T07:57:53Z</time>
      </trkpt>
      <trkpt lat="47.33643" lon="-1.88956">
        <ele>57</ele>
        <time>2016-04-24T07:57:54Z</time>
      </trkpt>
      <trkpt lat="47.33646" lon="-1.88955">
        <ele>57</ele>
        <time>2016-04-24T07:57:55Z</time>
      </trkpt>
      <trkpt lat="47.33649" lon="-1.88954">
        <ele>57</ele>
        <time>2016-04-24T07:57:56Z</time>
      </trkpt>
      <trkpt lat="47.33652" lon="-1.88953">
        <ele>57</ele>
        <time>2016-04-24T07:57:57Z</time>
      </trkpt>
      <trkpt lat="47.33655" lon="-1.88952">
        <ele>57</ele>
        <time>2016-04-24T07:57:58Z</time>
      </trkpt>
      <trkpt lat="47.33658" lon="-1.88951">
        <ele>57</ele>
        <time>2016-04-24T07:57:59Z</time>
      </trkpt>
      <trkpt lat="47.33661" lon="-1.8895">
        <ele>57</ele>
        <time>2016-04-24T07:58:00Z</time>
      </trkpt>
      <trkpt lat="47.33664" lon="-1.88949">
        <ele>57</ele>
        <time>2016-04-24T07:58:01Z</time>
      </trkpt>
      <trkpt lat="47.33668" lon="-1.88946">
        <ele>59</ele>
        <time>2016-04-24T07:58:02Z</time>
      </trkpt>
      <trkpt lat="47.33671" lon="-1.88943">
        <ele>59</ele>
        <time>2016-04-24T07:58:03Z</time>
      </trkpt>
      <trkpt lat="47.33673" lon="-1.88939">
        <ele>59</ele>
        <time>2016-04-24T07:58:04Z</time>
      </trkpt>
      <trkpt lat="47.33674" lon="-1.88934">
        <ele>59</ele>
        <time>2016-04-24T07:58:05Z</time>
      </trkpt>
      <trkpt lat="47.33673" lon="-1.88929">
        <ele>58</ele>
        <time>2016-04-24T07:58:06Z</time>
      </trkpt>
      <trkpt lat="47.33672" lon="-1.88924">
        <ele>58</ele>
        <time>2016-04-24T07:58:07Z</time>
      </trkpt>
      <trkpt lat="47.3367" lon="-1.88919">
        <ele>58</ele>
        <time>2016-04-24T07:58:08Z</time>
      </trkpt>
      <trkpt lat="47.33669" lon="-1.88913">
        <ele>58</ele>
        <time>2016-04-24T07:58:09Z</time>
      </trkpt>
      <trkpt lat="47.33668" lon="-1.88906">
        <ele>59</ele>
        <time>2016-04-24T07:58:10Z</time>
      </trkpt>
      <trkpt lat="47.33667" lon="-1.889">
        <ele>59</ele>
        <time>2016-04-24T07:58:11Z</time>
      </trkpt>
      <trkpt lat="47.33666" lon="-1.88893">
        <ele>57</ele>
        <time>2016-04-24T07:58:12Z</time>
      </trkpt>
      <trkpt lat="47.33667" lon="-1.88885">
        <ele>57</ele>
        <time>2016-04-24T07:58:13Z</time>
      </trkpt>
      <trkpt lat="47.33669" lon="-1.88872">
        <ele>59</ele>
        <time>2016-04-24T07:58:14Z</time>
      </trkpt>
      <trkpt lat="47.33669" lon="-1.88866">
        <ele>59</ele>
        <time>2016-04-24T07:58:15Z</time>
      </trkpt>
      <trkpt lat="47.3367" lon="-1.88856">
        <ele>59</ele>
        <time>2016-04-24T07:58:16Z</time>
      </trkpt>
      <trkpt lat="47.3367" lon="-1.88849">
        <ele>59</ele>
        <time>2016-04-24T07:58:17Z</time>
      </trkpt>
      <trkpt lat="47.33674" lon="-1.88841">
        <ele>58</ele>
        <time>2016-04-24T07:58:18Z</time>
      </trkpt>
      <trkpt lat="47.33679" lon="-1.88826">
        <ele>59</ele>
        <time>2016-04-24T07:58:19Z</time>
      </trkpt>
      <trkpt lat="47.33675" lon="-1.88819">
        <ele>59</ele>
        <time>2016-04-24T07:58:20Z</time>
      </trkpt>
      <trkpt lat="47.33673" lon="-1.88812">
        <ele>59</ele>
        <time>2016-04-24T07:58:21Z</time>
      </trkpt>
      <trkpt lat="47.33675" lon="-1.88805">
        <ele>59</ele>
        <time>2016-04-24T07:58:22Z</time>
      </trkpt>
      <trkpt lat="47.33676" lon="-1.88796">
        <ele>59</ele>
        <time>2016-04-24T07:58:23Z</time>
      </trkpt>
      <trkpt lat="47.33677" lon="-1.88788">
        <ele>59</ele>
        <time>2016-04-24T07:58:24Z</time>
      </trkpt>
      <trkpt lat="47.33678" lon="-1.88782">
        <ele>59</ele>
        <time>2016-04-24T07:58:25Z</time>
      </trkpt>
      <trkpt lat="47.33677" lon="-1.88775">
        <ele>60</ele>
        <time>2016-04-24T07:58:26Z</time>
      </trkpt>
      <trkpt lat="47.33675" lon="-1.8877">
        <ele>60</ele>
        <time>2016-04-24T07:58:27Z</time>
      </trkpt>
      <trkpt lat="47.33674" lon="-1.88766">
        <ele>60</ele>
        <time>2016-04-24T07:58:28Z</time>
      </trkpt>
      <trkpt lat="47.33673" lon="-1.88761">
        <ele>60</ele>
        <time>2016-04-24T07:58:29Z</time>
      </trkpt>
      <trkpt lat="47.33672" lon="-1.88756">
        <ele>60</ele>
        <time>2016-04-24T07:58:30Z</time>
      </trkpt>
      <trkpt lat="47.33671" lon="-1.88752">
        <ele>60</ele>
        <time>2016-04-24T07:58:31Z</time>
      </trkpt>
      <trkpt lat="47.33669" lon="-1.88744">
        <ele>60</ele>
        <time>2016-04-24T07:58:33Z</time>
      </trkpt>
      <trkpt lat="47.33669" lon="-1.88739">
        <ele>61</ele>
        <time>2016-04-24T07:58:34Z</time>
      </trkpt>
      <trkpt lat="47.33668" lon="-1.88734">
        <ele>61</ele>
        <time>2016-04-24T07:58:35Z</time>
      </trkpt>
      <trkpt lat="47.33667" lon="-1.88729">
        <ele>61</ele>
        <time>2016-04-24T07:58:36Z</time>
      </trkpt>
      <trkpt lat="47.33666" lon="-1.88726">
        <ele>60</ele>
        <time>2016-04-24T07:58:37Z</time>
      </trkpt>
      <trkpt lat="47.33665" lon="-1.88722">
        <ele>60</ele>
        <time>2016-04-24T07:58:38Z</time>
      </trkpt>
      <trkpt lat="47.33664" lon="-1.88718">
        <ele>60</ele>
        <time>2016-04-24T07:58:39Z</time>
      </trkpt>
      <trkpt lat="47.33663" lon="-1.88714">
        <ele>60</ele>
        <time>2016-04-24T07:58:40Z</time>
      </trkpt>
      <trkpt lat="47.33662" lon="-1.88706">
        <ele>60</ele>
        <time>2016-04-24T07:58:42Z</time>
      </trkpt>
      <trkpt lat="47.33659" lon="-1.887">
        <ele>61</ele>
        <time>2016-04-24T07:58:44Z</time>
      </trkpt>
      <trkpt lat="47.33656" lon="-1.88697">
        <ele>61</ele>
        <time>2016-04-24T07:58:45Z</time>
      </trkpt>
      <trkpt lat="47.33654" lon="-1.88695">
        <ele>61</ele>
        <time>2016-04-24T07:58:46Z</time>
      </trkpt>
      <trkpt lat="47.33652" lon="-1.88692">
        <ele>61</ele>
        <time>2016-04-24T07:58:47Z</time>
      </trkpt>
      <trkpt lat="47.33649" lon="-1.88689">
        <ele>61</ele>
        <time>2016-04-24T07:58:48Z</time>
      </trkpt>
      <trkpt lat="47.33647" lon="-1.88687">
        <ele>61</ele>
        <time>2016-04-24T07:58:49Z</time>
      </trkpt>
      <trkpt lat="47.33645" lon="-1.88684">
        <ele>61</ele>
        <time>2016-04-24T07:58:50Z</time>
      </trkpt>
      <trkpt lat="47.33643" lon="-1.88681">
        <ele>61</ele>
        <time>2016-04-24T07:58:51Z</time>
      </trkpt>
      <trkpt lat="47.33641" lon="-1.88678">
        <ele>61</ele>
        <time>2016-04-24T07:58:52Z</time>
      </trkpt>
      <trkpt lat="47.3364" lon="-1.88674">
        <ele>61</ele>
        <time>2016-04-24T07:58:53Z</time>
      </trkpt>
      <trkpt lat="47.33636" lon="-1.88668">
        <ele>61</ele>
        <time>2016-04-24T07:58:55Z</time>
      </trkpt>
      <trkpt lat="47.33634" lon="-1.88662">
        <ele>61</ele>
        <time>2016-04-24T07:58:57Z</time>
      </trkpt>
      <trkpt lat="47.33632" lon="-1.88659">
        <ele>60</ele>
        <time>2016-04-24T07:58:58Z</time>
      </trkpt>
      <trkpt lat="47.33631" lon="-1.88655">
        <ele>60</ele>
        <time>2016-04-24T07:58:59Z</time>
      </trkpt>
      <trkpt lat="47.3363" lon="-1.88651">
        <ele>60</ele>
        <time>2016-04-24T07:59:00Z</time>
      </trkpt>
      <trkpt lat="47.33628" lon="-1.88647">
        <ele>60</ele>
        <time>2016-04-24T07:59:01Z</time>
      </trkpt>
      <trkpt lat="47.33628" lon="-1.88643">
        <ele>60</ele>
        <time>2016-04-24T07:59:02Z</time>
      </trkpt>
      <trkpt lat="47.33629" lon="-1.88636">
        <ele>60</ele>
        <time>2016-04-24T07:59:04Z</time>
      </trkpt>
      <trkpt lat="47.33632" lon="-1.88632">
        <ele>60</ele>
        <time>2016-04-24T07:59:06Z</time>
      </trkpt>
      <trkpt lat="47.33637" lon="-1.88629">
        <ele>60</ele>
        <time>2016-04-24T07:59:08Z</time>
      </trkpt>
      <trkpt lat="47.33639" lon="-1.88627">
        <ele>60</ele>
        <time>2016-04-24T07:59:09Z</time>
      </trkpt>
      <trkpt lat="47.33644" lon="-1.88625">
        <ele>60</ele>
        <time>2016-04-24T07:59:11Z</time>
      </trkpt>
      <trkpt lat="47.33648" lon="-1.88624">
        <ele>61</ele>
        <time>2016-04-24T07:59:13Z</time>
      </trkpt>
      <trkpt lat="47.33653" lon="-1.88624">
        <ele>61</ele>
        <time>2016-04-24T07:59:15Z</time>
      </trkpt>
      <trkpt lat="47.33655" lon="-1.88625">
        <ele>61</ele>
        <time>2016-04-24T07:59:16Z</time>
      </trkpt>
      <trkpt lat="47.33659" lon="-1.88625">
        <ele>61</ele>
        <time>2016-04-24T07:59:17Z</time>
      </trkpt>
      <trkpt lat="47.33662" lon="-1.88625">
        <ele>61</ele>
        <time>2016-04-24T07:59:18Z</time>
      </trkpt>
      <trkpt lat="47.33666" lon="-1.88625">
        <ele>61</ele>
        <time>2016-04-24T07:59:19Z</time>
      </trkpt>
      <trkpt lat="47.33669" lon="-1.88625">
        <ele>63</ele>
        <time>2016-04-24T07:59:20Z</time>
      </trkpt>
      <trkpt lat="47.33673" lon="-1.88625">
        <ele>63</ele>
        <time>2016-04-24T07:59:21Z</time>
      </trkpt>
      <trkpt lat="47.33676" lon="-1.88624">
        <ele>63</ele>
        <time>2016-04-24T07:59:22Z</time>
      </trkpt>
      <trkpt lat="47.33679" lon="-1.88624">
        <ele>63</ele>
        <time>2016-04-24T07:59:23Z</time>
      </trkpt>
      <trkpt lat="47.33682" lon="-1.88623">
        <ele>63</ele>
        <time>2016-04-24T07:59:24Z</time>
      </trkpt>
      <trkpt lat="47.33685" lon="-1.88622">
        <ele>63</ele>
        <time>2016-04-24T07:59:25Z</time>
      </trkpt>
      <trkpt lat="47.33688" lon="-1.88621">
        <ele>63</ele>
        <time>2016-04-24T07:59:26Z</time>
      </trkpt>
      <trkpt lat="47.33692" lon="-1.8862">
        <ele>63</ele>
        <time>2016-04-24T07:59:27Z</time>
      </trkpt>
      <trkpt lat="47.33696" lon="-1.88619">
        <ele>63</ele>
        <time>2016-04-24T07:59:28Z</time>
      </trkpt>
      <trkpt lat="47.337" lon="-1.88618">
        <ele>63</ele>
        <time>2016-04-24T07:59:29Z</time>
      </trkpt>
      <trkpt lat="47.33704" lon="-1.88616">
        <ele>63</ele>
        <time>2016-04-24T07:59:30Z</time>
      </trkpt>
      <trkpt lat="47.33708" lon="-1.88614">
        <ele>63</ele>
        <time>2016-04-24T07:59:31Z</time>
      </trkpt>
      <trkpt lat="47.33712" lon="-1.88612">
        <ele>63</ele>
        <time>2016-04-24T07:59:32Z</time>
      </trkpt>
      <trkpt lat="47.33716" lon="-1.8861">
        <ele>63</ele>
        <time>2016-04-24T07:59:33Z</time>
      </trkpt>
      <trkpt lat="47.33719" lon="-1.88608">
        <ele>63</ele>
        <time>2016-04-24T07:59:34Z</time>
      </trkpt>
      <trkpt lat="47.33723" lon="-1.88606">
        <ele>63</ele>
        <time>2016-04-24T07:59:35Z</time>
      </trkpt>
      <trkpt lat="47.33727" lon="-1.88604">
        <ele>63</ele>
        <time>2016-04-24T07:59:36Z</time>
      </trkpt>
      <trkpt lat="47.33731" lon="-1.88601">
        <ele>63</ele>
        <time>2016-04-24T07:59:37Z</time>
      </trkpt>
      <trkpt lat="47.33735" lon="-1.88599">
        <ele>63</ele>
        <time>2016-04-24T07:59:38Z</time>
      </trkpt>
      <trkpt lat="47.33738" lon="-1.88597">
        <ele>64</ele>
        <time>2016-04-24T07:59:39Z</time>
      </trkpt>
      <trkpt lat="47.33742" lon="-1.88594">
        <ele>64</ele>
        <time>2016-04-24T07:59:40Z</time>
      </trkpt>
      <trkpt lat="47.33746" lon="-1.88591">
        <ele>64</ele>
        <time>2016-04-24T07:59:41Z</time>
      </trkpt>
      <trkpt lat="47.3375" lon="-1.88589">
        <ele>64</ele>
        <time>2016-04-24T07:59:42Z</time>
      </trkpt>
      <trkpt lat="47.33753" lon="-1.88586">
        <ele>64</ele>
        <time>2016-04-24T07:59:43Z</time>
      </trkpt>
      <trkpt lat="47.33757" lon="-1.88583">
        <ele>64</ele>
        <time>2016-04-24T07:59:44Z</time>
      </trkpt>
      <trkpt lat="47.33761" lon="-1.8858">
        <ele>65</ele>
        <time>2016-04-24T07:59:45Z</time>
      </trkpt>
      <trkpt lat="47.33764" lon="-1.88577">
        <ele>65</ele>
        <time>2016-04-24T07:59:46Z</time>
      </trkpt>
      <trkpt lat="47.33768" lon="-1.88574">
        <ele>65</ele>
        <time>2016-04-24T07:59:47Z</time>
      </trkpt>
      <trkpt lat="47.33772" lon="-1.88571">
        <ele>65</ele>
        <time>2016-04-24T07:59:48Z</time>
      </trkpt>
      <trkpt lat="47.33775" lon="-1.88568">
        <ele>65</ele>
        <time>2016-04-24T07:59:49Z</time>
      </trkpt>
      <trkpt lat="47.33778" lon="-1.88564">
        <ele>65</ele>
        <time>2016-04-24T07:59:50Z</time>
      </trkpt>
      <trkpt lat="47.33782" lon="-1.88561">
        <ele>65</ele>
        <time>2016-04-24T07:59:51Z</time>
      </trkpt>
      <trkpt lat="47.33785" lon="-1.88558">
        <ele>65</ele>
        <time>2016-04-24T07:59:52Z</time>
      </trkpt>
      <trkpt lat="47.33788" lon="-1.88554">
        <ele>65</ele>
        <time>2016-04-24T07:59:53Z</time>
      </trkpt>
      <trkpt lat="47.33791" lon="-1.8855">
        <ele>65</ele>
        <time>2016-04-24T07:59:54Z</time>
      </trkpt>
      <trkpt lat="47.33794" lon="-1.88547">
        <ele>65</ele>
        <time>2016-04-24T07:59:55Z</time>
      </trkpt>
      <trkpt lat="47.33797" lon="-1.88543">
        <ele>66</ele>
        <time>2016-04-24T07:59:56Z</time>
      </trkpt>
      <trkpt lat="47.338" lon="-1.88539">
        <ele>66</ele>
        <time>2016-04-24T07:59:57Z</time>
      </trkpt>
      <trkpt lat="47.33802" lon="-1.88535">
        <ele>66</ele>
        <time>2016-04-24T07:59:58Z</time>
      </trkpt>
      <trkpt lat="47.33805" lon="-1.88531">
        <ele>66</ele>
        <time>2016-04-24T07:59:59Z</time>
      </trkpt>
      <trkpt lat="47.33808" lon="-1.88527">
        <ele>66</ele>
        <time>2016-04-24T08:00:00Z</time>
      </trkpt>
      <trkpt lat="47.3381" lon="-1.88522">
        <ele>66</ele>
        <time>2016-04-24T08:00:01Z</time>
      </trkpt>
      <trkpt lat="47.33812" lon="-1.88518">
        <ele>66</ele>
        <time>2016-04-24T08:00:02Z</time>
      </trkpt>
      <trkpt lat="47.33814" lon="-1.88513">
        <ele>66</ele>
        <time>2016-04-24T08:00:03Z</time>
      </trkpt>
      <trkpt lat="47.33816" lon="-1.88508">
        <ele>66</ele>
        <time>2016-04-24T08:00:04Z</time>
      </trkpt>
      <trkpt lat="47.33817" lon="-1.88502">
        <ele>66</ele>
        <time>2016-04-24T08:00:05Z</time>
      </trkpt>
      <trkpt lat="47.33819" lon="-1.88497">
        <ele>67</ele>
        <time>2016-04-24T08:00:06Z</time>
      </trkpt>
      <trkpt lat="47.33819" lon="-1.88491">
        <ele>67</ele>
        <time>2016-04-24T08:00:07Z</time>
      </trkpt>
      <trkpt lat="47.3382" lon="-1.88485">
        <ele>67</ele>
        <time>2016-04-24T08:00:08Z</time>
      </trkpt>
      <trkpt lat="47.3382" lon="-1.8848">
        <ele>67</ele>
        <time>2016-04-24T08:00:09Z</time>
      </trkpt>
      <trkpt lat="47.33821" lon="-1.88474">
        <ele>67</ele>
        <time>2016-04-24T08:00:10Z</time>
      </trkpt>
      <trkpt lat="47.33821" lon="-1.88469">
        <ele>67</ele>
        <time>2016-04-24T08:00:11Z</time>
      </trkpt>
      <trkpt lat="47.33822" lon="-1.88463">
        <ele>67</ele>
        <time>2016-04-24T08:00:12Z</time>
      </trkpt>
      <trkpt lat="47.33823" lon="-1.88458">
        <ele>67</ele>
        <time>2016-04-24T08:00:13Z</time>
      </trkpt>
      <trkpt lat="47.33825" lon="-1.88453">
        <ele>67</ele>
        <time>2016-04-24T08:00:14Z</time>
      </trkpt>
      <trkpt lat="47.33826" lon="-1.88448">
        <ele>67</ele>
        <time>2016-04-24T08:00:15Z</time>
      </trkpt>
      <trkpt lat="47.33828" lon="-1.88443">
        <ele>67</ele>
        <time>2016-04-24T08:00:16Z</time>
      </trkpt>
      <trkpt lat="47.3383" lon="-1.88438">
        <ele>67</ele>
        <time>2016-04-24T08:00:17Z</time>
      </trkpt>
      <trkpt lat="47.33832" lon="-1.88434">
        <ele>67</ele>
        <time>2016-04-24T08:00:18Z</time>
      </trkpt>
      <trkpt lat="47.33835" lon="-1.88431">
        <ele>67</ele>
        <time>2016-04-24T08:00:19Z</time>
      </trkpt>
      <trkpt lat="47.33837" lon="-1.88427">
        <ele>67</ele>
        <time>2016-04-24T08:00:20Z</time>
      </trkpt>
      <trkpt lat="47.3384" lon="-1.88424">
        <ele>67</ele>
        <time>2016-04-24T08:00:21Z</time>
      </trkpt>
      <trkpt lat="47.33843" lon="-1.88421">
        <ele>67</ele>
        <time>2016-04-24T08:00:22Z</time>
      </trkpt>
      <trkpt lat="47.33846" lon="-1.88418">
        <ele>67</ele>
        <time>2016-04-24T08:00:23Z</time>
      </trkpt>
      <trkpt lat="47.3385" lon="-1.88415">
        <ele>67</ele>
        <time>2016-04-24T08:00:24Z</time>
      </trkpt>
      <trkpt lat="47.33853" lon="-1.88412">
        <ele>67</ele>
        <time>2016-04-24T08:00:25Z</time>
      </trkpt>
      <trkpt lat="47.33856" lon="-1.8841">
        <ele>67</ele>
        <time>2016-04-24T08:00:26Z</time>
      </trkpt>
      <trkpt lat="47.3386" lon="-1.88407">
        <ele>67</ele>
        <time>2016-04-24T08:00:27Z</time>
      </trkpt>
      <trkpt lat="47.33863" lon="-1.88405">
        <ele>67</ele>
        <time>2016-04-24T08:00:28Z</time>
      </trkpt>
      <trkpt lat="47.33867" lon="-1.88403">
        <ele>67</ele>
        <time>2016-04-24T08:00:29Z</time>
      </trkpt>
      <trkpt lat="47.3387" lon="-1.88401">
        <ele>67</ele>
        <time>2016-04-24T08:00:30Z</time>
      </trkpt>
      <trkpt lat="47.33874" lon="-1.88399">
        <ele>67</ele>
        <time>2016-04-24T08:00:31Z</time>
      </trkpt>
      <trkpt lat="47.33878" lon="-1.88397">
        <ele>67</ele>
        <time>2016-04-24T08:00:32Z</time>
      </trkpt>
      <trkpt lat="47.33882" lon="-1.88396">
        <ele>67</ele>
        <time>2016-04-24T08:00:33Z</time>
      </trkpt>
      <trkpt lat="47.33885" lon="-1.88395">
        <ele>67</ele>
        <time>2016-04-24T08:00:34Z</time>
      </trkpt>
      <trkpt lat="47.33889" lon="-1.88394">
        <ele>67</ele>
        <time>2016-04-24T08:00:35Z</time>
      </trkpt>
      <trkpt lat="47.33893" lon="-1.88393">
        <ele>67</ele>
        <time>2016-04-24T08:00:36Z</time>
      </trkpt>
      <trkpt lat="47.33897" lon="-1.88392">
        <ele>67</ele>
        <time>2016-04-24T08:00:37Z</time>
      </trkpt>
      <trkpt lat="47.33901" lon="-1.8839">
        <ele>67</ele>
        <time>2016-04-24T08:00:38Z</time>
      </trkpt>
      <trkpt lat="47.33904" lon="-1.8839">
        <ele>67</ele>
        <time>2016-04-24T08:00:39Z</time>
      </trkpt>
      <trkpt lat="47.33908" lon="-1.88389">
        <ele>67</ele>
        <time>2016-04-24T08:00:40Z</time>
      </trkpt>
      <trkpt lat="47.33912" lon="-1.88389">
        <ele>67</ele>
        <time>2016-04-24T08:00:41Z</time>
      </trkpt>
      <trkpt lat="47.33915" lon="-1.88388">
        <ele>67</ele>
        <time>2016-04-24T08:00:42Z</time>
      </trkpt>
      <trkpt lat="47.33919" lon="-1.88388">
        <ele>68</ele>
        <time>2016-04-24T08:00:43Z</time>
      </trkpt>
      <trkpt lat="47.33922" lon="-1.88387">
        <ele>68</ele>
        <time>2016-04-24T08:00:44Z</time>
      </trkpt>
      <trkpt lat="47.33926" lon="-1.88386">
        <ele>68</ele>
        <time>2016-04-24T08:00:45Z</time>
      </trkpt>
      <trkpt lat="47.3393" lon="-1.88385">
        <ele>68</ele>
        <time>2016-04-24T08:00:46Z</time>
      </trkpt>
      <trkpt lat="47.33933" lon="-1.88384">
        <ele>68</ele>
        <time>2016-04-24T08:00:47Z</time>
      </trkpt>
      <trkpt lat="47.33937" lon="-1.88384">
        <ele>68</ele>
        <time>2016-04-24T08:00:48Z</time>
      </trkpt>
      <trkpt lat="47.3394" lon="-1.88383">
        <ele>68</ele>
        <time>2016-04-24T08:00:49Z</time>
      </trkpt>
      <trkpt lat="47.33943" lon="-1.88382">
        <ele>68</ele>
        <time>2016-04-24T08:00:50Z</time>
      </trkpt>
      <trkpt lat="47.33946" lon="-1.88381">
        <ele>68</ele>
        <time>2016-04-24T08:00:51Z</time>
      </trkpt>
      <trkpt lat="47.33948" lon="-1.8838">
        <ele>68</ele>
        <time>2016-04-24T08:00:52Z</time>
      </trkpt>
      <trkpt lat="47.33953" lon="-1.88379">
        <ele>68</ele>
        <time>2016-04-24T08:00:54Z</time>
      </trkpt>
      <trkpt lat="47.33958" lon="-1.88378">
        <ele>68</ele>
        <time>2016-04-24T08:00:56Z</time>
      </trkpt>
      <trkpt lat="47.33962" lon="-1.88377">
        <ele>69</ele>
        <time>2016-04-24T08:00:58Z</time>
      </trkpt>
      <trkpt lat="47.33967" lon="-1.88376">
        <ele>69</ele>
        <time>2016-04-24T08:01:00Z</time>
      </trkpt>
      <trkpt lat="47.33972" lon="-1.88375">
        <ele>69</ele>
        <time>2016-04-24T08:01:02Z</time>
      </trkpt>
      <trkpt lat="47.33976" lon="-1.88374">
        <ele>69</ele>
        <time>2016-04-24T08:01:03Z</time>
      </trkpt>
      <trkpt lat="47.33979" lon="-1.88373">
        <ele>69</ele>
        <time>2016-04-24T08:01:04Z</time>
      </trkpt>
      <trkpt lat="47.33983" lon="-1.88372">
        <ele>69</ele>
        <time>2016-04-24T08:01:05Z</time>
      </trkpt>
      <trkpt lat="47.33987" lon="-1.88371">
        <ele>69</ele>
        <time>2016-04-24T08:01:06Z</time>
      </trkpt>
      <trkpt lat="47.3399" lon="-1.8837">
        <ele>69</ele>
        <time>2016-04-24T08:01:07Z</time>
      </trkpt>
      <trkpt lat="47.33994" lon="-1.88368">
        <ele>69</ele>
        <time>2016-04-24T08:01:08Z</time>
      </trkpt>
      <trkpt lat="47.33998" lon="-1.88367">
        <ele>69</ele>
        <time>2016-04-24T08:01:09Z</time>
      </trkpt>
      <trkpt lat="47.34002" lon="-1.88366">
        <ele>71</ele>
        <time>2016-04-24T08:01:10Z</time>
      </trkpt>
      <trkpt lat="47.34006" lon="-1.88365">
        <ele>71</ele>
        <time>2016-04-24T08:01:11Z</time>
      </trkpt>
      <trkpt lat="47.34009" lon="-1.88364">
        <ele>71</ele>
        <time>2016-04-24T08:01:12Z</time>
      </trkpt>
      <trkpt lat="47.34013" lon="-1.88363">
        <ele>71</ele>
        <time>2016-04-24T08:01:13Z</time>
      </trkpt>
      <trkpt lat="47.34017" lon="-1.88362">
        <ele>71</ele>
        <time>2016-04-24T08:01:14Z</time>
      </trkpt>
      <trkpt lat="47.34021" lon="-1.88362">
        <ele>71</ele>
        <time>2016-04-24T08:01:15Z</time>
      </trkpt>
      <trkpt lat="47.34025" lon="-1.88361">
        <ele>71</ele>
        <time>2016-04-24T08:01:16Z</time>
      </trkpt>
      <trkpt lat="47.34029" lon="-1.8836">
        <ele>71</ele>
        <time>2016-04-24T08:01:17Z</time>
      </trkpt>
      <trkpt lat="47.34033" lon="-1.88359">
        <ele>72</ele>
        <time>2016-04-24T08:01:18Z</time>
      </trkpt>
      <trkpt lat="47.34037" lon="-1.88358">
        <ele>72</ele>
        <time>2016-04-24T08:01:19Z</time>
      </trkpt>
      <trkpt lat="47.34041" lon="-1.88357">
        <ele>72</ele>
        <time>2016-04-24T08:01:20Z</time>
      </trkpt>
      <trkpt lat="47.34044" lon="-1.88356">
        <ele>72</ele>
        <time>2016-04-24T08:01:21Z</time>
      </trkpt>
      <trkpt lat="47.34048" lon="-1.88355">
        <ele>72</ele>
        <time>2016-04-24T08:01:22Z</time>
      </trkpt>
      <trkpt lat="47.34053" lon="-1.88354">
        <ele>72</ele>
        <time>2016-04-24T08:01:23Z</time>
      </trkpt>
      <trkpt lat="47.34057" lon="-1.88353">
        <ele>72</ele>
        <time>2016-04-24T08:01:24Z</time>
      </trkpt>
      <trkpt lat="47.34061" lon="-1.88352">
        <ele>72</ele>
        <time>2016-04-24T08:01:25Z</time>
      </trkpt>
      <trkpt lat="47.34065" lon="-1.88351">
        <ele>72</ele>
        <time>2016-04-24T08:01:26Z</time>
      </trkpt>
      <trkpt lat="47.34068" lon="-1.8835">
        <ele>73</ele>
        <time>2016-04-24T08:01:27Z</time>
      </trkpt>
      <trkpt lat="47.34072" lon="-1.88349">
        <ele>73</ele>
        <time>2016-04-24T08:01:28Z</time>
      </trkpt>
      <trkpt lat="47.34076" lon="-1.88348">
        <ele>73</ele>
        <time>2016-04-24T08:01:29Z</time>
      </trkpt>
      <trkpt lat="47.3408" lon="-1.88347">
        <ele>73</ele>
        <time>2016-04-24T08:01:30Z</time>
      </trkpt>
      <trkpt lat="47.34084" lon="-1.88346">
        <ele>74</ele>
        <time>2016-04-24T08:01:31Z</time>
      </trkpt>
      <trkpt lat="47.34088" lon="-1.88345">
        <ele>74</ele>
        <time>2016-04-24T08:01:32Z</time>
      </trkpt>
      <trkpt lat="47.34092" lon="-1.88344">
        <ele>74</ele>
        <time>2016-04-24T08:01:33Z</time>
      </trkpt>
      <trkpt lat="47.34096" lon="-1.88344">
        <ele>74</ele>
        <time>2016-04-24T08:01:34Z</time>
      </trkpt>
      <trkpt lat="47.341" lon="-1.88343">
        <ele>74</ele>
        <time>2016-04-24T08:01:35Z</time>
      </trkpt>
      <trkpt lat="47.34104" lon="-1.88342">
        <ele>74</ele>
        <time>2016-04-24T08:01:36Z</time>
      </trkpt>
      <trkpt lat="47.34108" lon="-1.88341">
        <ele>74</ele>
        <time>2016-04-24T08:01:37Z</time>
      </trkpt>
      <trkpt lat="47.34112" lon="-1.8834">
        <ele>74</ele>
        <time>2016-04-24T08:01:38Z</time>
      </trkpt>
      <trkpt lat="47.34115" lon="-1.88339">
        <ele>74</ele>
        <time>2016-04-24T08:01:39Z</time>
      </trkpt>
      <trkpt lat="47.34119" lon="-1.88338">
        <ele>74</ele>
        <time>2016-04-24T08:01:40Z</time>
      </trkpt>
      <trkpt lat="47.34123" lon="-1.88337">
        <ele>74</ele>
        <time>2016-04-24T08:01:41Z</time>
      </trkpt>
      <trkpt lat="47.34127" lon="-1.88336">
        <ele>74</ele>
        <time>2016-04-24T08:01:42Z</time>
      </trkpt>
      <trkpt lat="47.34131" lon="-1.88335">
        <ele>74</ele>
        <time>2016-04-24T08:01:43Z</time>
      </trkpt>
      <trkpt lat="47.34135" lon="-1.88334">
        <ele>74</ele>
        <time>2016-04-24T08:01:44Z</time>
      </trkpt>
      <trkpt lat="47.34139" lon="-1.88332">
        <ele>75</ele>
        <time>2016-04-24T08:01:45Z</time>
      </trkpt>
      <trkpt lat="47.34143" lon="-1.88331">
        <ele>75</ele>
        <time>2016-04-24T08:01:46Z</time>
      </trkpt>
      <trkpt lat="47.34147" lon="-1.8833">
        <ele>75</ele>
        <time>2016-04-24T08:01:47Z</time>
      </trkpt>
      <trkpt lat="47.34151" lon="-1.88329">
        <ele>75</ele>
        <time>2016-04-24T08:01:48Z</time>
      </trkpt>
      <trkpt lat="47.34155" lon="-1.88328">
        <ele>75</ele>
        <time>2016-04-24T08:01:49Z</time>
      </trkpt>
      <trkpt lat="47.34159" lon="-1.88327">
        <ele>75</ele>
        <time>2016-04-24T08:01:50Z</time>
      </trkpt>
      <trkpt lat="47.34163" lon="-1.88325">
        <ele>76</ele>
        <time>2016-04-24T08:01:51Z</time>
      </trkpt>
      <trkpt lat="47.34166" lon="-1.88324">
        <ele>76</ele>
        <time>2016-04-24T08:01:52Z</time>
      </trkpt>
      <trkpt lat="47.3417" lon="-1.88323">
        <ele>76</ele>
        <time>2016-04-24T08:01:53Z</time>
      </trkpt>
      <trkpt lat="47.34174" lon="-1.88322">
        <ele>76</ele>
        <time>2016-04-24T08:01:54Z</time>
      </trkpt>
      <trkpt lat="47.34177" lon="-1.88321">
        <ele>76</ele>
        <time>2016-04-24T08:01:55Z</time>
      </trkpt>
      <trkpt lat="47.34181" lon="-1.8832">
        <ele>76</ele>
        <time>2016-04-24T08:01:56Z</time>
      </trkpt>
      <trkpt lat="47.34184" lon="-1.88318">
        <ele>76</ele>
        <time>2016-04-24T08:01:57Z</time>
      </trkpt>
      <trkpt lat="47.34188" lon="-1.88317">
        <ele>76</ele>
        <time>2016-04-24T08:01:58Z</time>
      </trkpt>
      <trkpt lat="47.34192" lon="-1.88316">
        <ele>76</ele>
        <time>2016-04-24T08:01:59Z</time>
      </trkpt>
      <trkpt lat="47.34195" lon="-1.88314">
        <ele>76</ele>
        <time>2016-04-24T08:02:00Z</time>
      </trkpt>
      <trkpt lat="47.34199" lon="-1.88313">
        <ele>76</ele>
        <time>2016-04-24T08:02:01Z</time>
      </trkpt>
      <trkpt lat="47.34202" lon="-1.88311">
        <ele>76</ele>
        <time>2016-04-24T08:02:02Z</time>
      </trkpt>
      <trkpt lat="47.34206" lon="-1.88309">
        <ele>76</ele>
        <time>2016-04-24T08:02:03Z</time>
      </trkpt>
      <trkpt lat="47.3421" lon="-1.88308">
        <ele>75</ele>
        <time>2016-04-24T08:02:04Z</time>
      </trkpt>
      <trkpt lat="47.34213" lon="-1.88306">
        <ele>75</ele>
        <time>2016-04-24T08:02:05Z</time>
      </trkpt>
      <trkpt lat="47.34217" lon="-1.88304">
        <ele>75</ele>
        <time>2016-04-24T08:02:06Z</time>
      </trkpt>
      <trkpt lat="47.3422" lon="-1.88302">
        <ele>75</ele>
        <time>2016-04-24T08:02:07Z</time>
      </trkpt>
      <trkpt lat="47.34224" lon="-1.88301">
        <ele>75</ele>
        <time>2016-04-24T08:02:08Z</time>
      </trkpt>
      <trkpt lat="47.34227" lon="-1.88299">
        <ele>75</ele>
        <time>2016-04-24T08:02:09Z</time>
      </trkpt>
      <trkpt lat="47.34231" lon="-1.88297">
        <ele>75</ele>
        <time>2016-04-24T08:02:10Z</time>
      </trkpt>
      <trkpt lat="47.34234" lon="-1.88296">
        <ele>75</ele>
        <time>2016-04-24T08:02:11Z</time>
      </trkpt>
      <trkpt lat="47.34238" lon="-1.88294">
        <ele>75</ele>
        <time>2016-04-24T08:02:12Z</time>
      </trkpt>
      <trkpt lat="47.34241" lon="-1.88291">
        <ele>76</ele>
        <time>2016-04-24T08:02:13Z</time>
      </trkpt>
      <trkpt lat="47.34245" lon="-1.88289">
        <ele>76</ele>
        <time>2016-04-24T08:02:14Z</time>
      </trkpt>
      <trkpt lat="47.34249" lon="-1.88287">
        <ele>76</ele>
        <time>2016-04-24T08:02:15Z</time>
      </trkpt>
      <trkpt lat="47.34252" lon="-1.88285">
        <ele>75</ele>
        <time>2016-04-24T08:02:16Z</time>
      </trkpt>
      <trkpt lat="47.34256" lon="-1.88283">
        <ele>75</ele>
        <time>2016-04-24T08:02:17Z</time>
      </trkpt>
      <trkpt lat="47.3426" lon="-1.88281">
        <ele>75</ele>
        <time>2016-04-24T08:02:18Z</time>
      </trkpt>
      <trkpt lat="47.34264" lon="-1.88279">
        <ele>75</ele>
        <time>2016-04-24T08:02:19Z</time>
      </trkpt>
      <trkpt lat="47.34268" lon="-1.88277">
        <ele>75</ele>
        <time>2016-04-24T08:02:20Z</time>
      </trkpt>
      <trkpt lat="47.34272" lon="-1.88275">
        <ele>75</ele>
        <time>2016-04-24T08:02:21Z</time>
      </trkpt>
      <trkpt lat="47.34276" lon="-1.88273">
        <ele>75</ele>
        <time>2016-04-24T08:02:22Z</time>
      </trkpt>
      <trkpt lat="47.3428" lon="-1.88271">
        <ele>75</ele>
        <time>2016-04-24T08:02:23Z</time>
      </trkpt>
      <trkpt lat="47.34283" lon="-1.88269">
        <ele>75</ele>
        <time>2016-04-24T08:02:24Z</time>
      </trkpt>
      <trkpt lat="47.34287" lon="-1.88268">
        <ele>75</ele>
        <time>2016-04-24T08:02:25Z</time>
      </trkpt>
      <trkpt lat="47.34291" lon="-1.88266">
        <ele>75</ele>
        <time>2016-04-24T08:02:26Z</time>
      </trkpt>
      <trkpt lat="47.34295" lon="-1.88264">
        <ele>75</ele>
        <time>2016-04-24T08:02:27Z</time>
      </trkpt>
      <trkpt lat="47.34299" lon="-1.88262">
        <ele>75</ele>
        <time>2016-04-24T08:02:28Z</time>
      </trkpt>
      <trkpt lat="47.34303" lon="-1.8826">
        <ele>76</ele>
        <time>2016-04-24T08:02:29Z</time>
      </trkpt>
      <trkpt lat="47.34306" lon="-1.88259">
        <ele>76</ele>
        <time>2016-04-24T08:02:30Z</time>
      </trkpt>
      <trkpt lat="47.3431" lon="-1.88257">
        <ele>76</ele>
        <time>2016-04-24T08:02:31Z</time>
      </trkpt>
      <trkpt lat="47.34314" lon="-1.88256">
        <ele>76</ele>
        <time>2016-04-24T08:02:32Z</time>
      </trkpt>
      <trkpt lat="47.34318" lon="-1.88254">
        <ele>76</ele>
        <time>2016-04-24T08:02:33Z</time>
      </trkpt>
      <trkpt lat="47.34321" lon="-1.88252">
        <ele>76</ele>
        <time>2016-04-24T08:02:34Z</time>
      </trkpt>
      <trkpt lat="47.34325" lon="-1.8825">
        <ele>76</ele>
        <time>2016-04-24T08:02:35Z</time>
      </trkpt>
      <trkpt lat="47.34329" lon="-1.88247">
        <ele>76</ele>
        <time>2016-04-24T08:02:36Z</time>
      </trkpt>
      <trkpt lat="47.34332" lon="-1.88245">
        <ele>76</ele>
        <time>2016-04-24T08:02:37Z</time>
      </trkpt>
      <trkpt lat="47.34335" lon="-1.88243">
        <ele>76</ele>
        <time>2016-04-24T08:02:38Z</time>
      </trkpt>
      <trkpt lat="47.34339" lon="-1.8824">
        <ele>76</ele>
        <time>2016-04-24T08:02:39Z</time>
      </trkpt>
      <trkpt lat="47.34342" lon="-1.88237">
        <ele>76</ele>
        <time>2016-04-24T08:02:40Z</time>
      </trkpt>
      <trkpt lat="47.34345" lon="-1.88234">
        <ele>76</ele>
        <time>2016-04-24T08:02:41Z</time>
      </trkpt>
      <trkpt lat="47.34349" lon="-1.88231">
        <ele>76</ele>
        <time>2016-04-24T08:02:42Z</time>
      </trkpt>
      <trkpt lat="47.34353" lon="-1.88228">
        <ele>76</ele>
        <time>2016-04-24T08:02:43Z</time>
      </trkpt>
      <trkpt lat="47.34356" lon="-1.88225">
        <ele>76</ele>
        <time>2016-04-24T08:02:44Z</time>
      </trkpt>
      <trkpt lat="47.34359" lon="-1.88222">
        <ele>76</ele>
        <time>2016-04-24T08:02:45Z</time>
      </trkpt>
      <trkpt lat="47.34363" lon="-1.88218">
        <ele>76</ele>
        <time>2016-04-24T08:02:46Z</time>
      </trkpt>
      <trkpt lat="47.34367" lon="-1.88215">
        <ele>76</ele>
        <time>2016-04-24T08:02:47Z</time>
      </trkpt>
      <trkpt lat="47.3437" lon="-1.88212">
        <ele>76</ele>
        <time>2016-04-24T08:02:48Z</time>
      </trkpt>
      <trkpt lat="47.34374" lon="-1.88209">
        <ele>76</ele>
        <time>2016-04-24T08:02:49Z</time>
      </trkpt>
      <trkpt lat="47.34377" lon="-1.88206">
        <ele>77</ele>
        <time>2016-04-24T08:02:50Z</time>
      </trkpt>
      <trkpt lat="47.34381" lon="-1.88203">
        <ele>77</ele>
        <time>2016-04-24T08:02:51Z</time>
      </trkpt>
      <trkpt lat="47.34384" lon="-1.882">
        <ele>77</ele>
        <time>2016-04-24T08:02:52Z</time>
      </trkpt>
      <trkpt lat="47.34388" lon="-1.88197">
        <ele>77</ele>
        <time>2016-04-24T08:02:53Z</time>
      </trkpt>
      <trkpt lat="47.34391" lon="-1.88194">
        <ele>77</ele>
        <time>2016-04-24T08:02:54Z</time>
      </trkpt>
      <trkpt lat="47.34395" lon="-1.88192">
        <ele>77</ele>
        <time>2016-04-24T08:02:55Z</time>
      </trkpt>
      <trkpt lat="47.34398" lon="-1.8819">
        <ele>77</ele>
        <time>2016-04-24T08:02:56Z</time>
      </trkpt>
      <trkpt lat="47.34402" lon="-1.88188">
        <ele>77</ele>
        <time>2016-04-24T08:02:57Z</time>
      </trkpt>
      <trkpt lat="47.3441" lon="-1.88185">
        <ele>77</ele>
        <time>2016-04-24T08:02:59Z</time>
      </trkpt>
      <trkpt lat="47.34414" lon="-1.88183">
        <ele>77</ele>
        <time>2016-04-24T08:03:00Z</time>
      </trkpt>
      <trkpt lat="47.34418" lon="-1.88182">
        <ele>77</ele>
        <time>2016-04-24T08:03:01Z</time>
      </trkpt>
      <trkpt lat="47.34422" lon="-1.8818">
        <ele>77</ele>
        <time>2016-04-24T08:03:02Z</time>
      </trkpt>
      <trkpt lat="47.34426" lon="-1.88179">
        <ele>77</ele>
        <time>2016-04-24T08:03:03Z</time>
      </trkpt>
      <trkpt lat="47.3443" lon="-1.88177">
        <ele>77</ele>
        <time>2016-04-24T08:03:04Z</time>
      </trkpt>
      <trkpt lat="47.34434" lon="-1.88175">
        <ele>77</ele>
        <time>2016-04-24T08:03:05Z</time>
      </trkpt>
      <trkpt lat="47.3444" lon="-1.88172">
        <ele>78</ele>
        <time>2016-04-24T08:03:06Z</time>
      </trkpt>
      <trkpt lat="47.34445" lon="-1.8817">
        <ele>78</ele>
        <time>2016-04-24T08:03:07Z</time>
      </trkpt>
      <trkpt lat="47.3445" lon="-1.88168">
        <ele>78</ele>
        <time>2016-04-24T08:03:08Z</time>
      </trkpt>
      <trkpt lat="47.34454" lon="-1.88166">
        <ele>78</ele>
        <time>2016-04-24T08:03:09Z</time>
      </trkpt>
      <trkpt lat="47.34459" lon="-1.88163">
        <ele>78</ele>
        <time>2016-04-24T08:03:10Z</time>
      </trkpt>
      <trkpt lat="47.34465" lon="-1.88159">
        <ele>78</ele>
        <time>2016-04-24T08:03:11Z</time>
      </trkpt>
      <trkpt lat="47.3447" lon="-1.88156">
        <ele>78</ele>
        <time>2016-04-24T08:03:12Z</time>
      </trkpt>
      <trkpt lat="47.34474" lon="-1.88155">
        <ele>78</ele>
        <time>2016-04-24T08:03:13Z</time>
      </trkpt>
      <trkpt lat="47.34478" lon="-1.88153">
        <ele>78</ele>
        <time>2016-04-24T08:03:14Z</time>
      </trkpt>
      <trkpt lat="47.34483" lon="-1.88154">
        <ele>78</ele>
        <time>2016-04-24T08:03:15Z</time>
      </trkpt>
      <trkpt lat="47.34487" lon="-1.88151">
        <ele>78</ele>
        <time>2016-04-24T08:03:16Z</time>
      </trkpt>
      <trkpt lat="47.34491" lon="-1.88149">
        <ele>78</ele>
        <time>2016-04-24T08:03:17Z</time>
      </trkpt>
      <trkpt lat="47.34498" lon="-1.8815">
        <ele>78</ele>
        <time>2016-04-24T08:03:18Z</time>
      </trkpt>
      <trkpt lat="47.34503" lon="-1.88144">
        <ele>79</ele>
        <time>2016-04-24T08:03:19Z</time>
      </trkpt>
      <trkpt lat="47.34506" lon="-1.88142">
        <ele>79</ele>
        <time>2016-04-24T08:03:20Z</time>
      </trkpt>
      <trkpt lat="47.3451" lon="-1.88142">
        <ele>79</ele>
        <time>2016-04-24T08:03:21Z</time>
      </trkpt>
      <trkpt lat="47.34515" lon="-1.88141">
        <ele>79</ele>
        <time>2016-04-24T08:03:22Z</time>
      </trkpt>
      <trkpt lat="47.34518" lon="-1.88139">
        <ele>79</ele>
        <time>2016-04-24T08:03:23Z</time>
      </trkpt>
      <trkpt lat="47.34522" lon="-1.88138">
        <ele>80</ele>
        <time>2016-04-24T08:03:24Z</time>
      </trkpt>
      <trkpt lat="47.34526" lon="-1.88138">
        <ele>80</ele>
        <time>2016-04-24T08:03:25Z</time>
      </trkpt>
      <trkpt lat="47.34533" lon="-1.88132">
        <ele>80</ele>
        <time>2016-04-24T08:03:26Z</time>
      </trkpt>
      <trkpt lat="47.34537" lon="-1.8813">
        <ele>80</ele>
        <time>2016-04-24T08:03:27Z</time>
      </trkpt>
      <trkpt lat="47.34541" lon="-1.88128">
        <ele>80</ele>
        <time>2016-04-24T08:03:28Z</time>
      </trkpt>
      <trkpt lat="47.34546" lon="-1.88125">
        <ele>80</ele>
        <time>2016-04-24T08:03:29Z</time>
      </trkpt>
      <trkpt lat="47.34549" lon="-1.88125">
        <ele>80</ele>
        <time>2016-04-24T08:03:30Z</time>
      </trkpt>
      <trkpt lat="47.34554" lon="-1.88121">
        <ele>80</ele>
        <time>2016-04-24T08:03:31Z</time>
      </trkpt>
      <trkpt lat="47.34559" lon="-1.8812">
        <ele>80</ele>
        <time>2016-04-24T08:03:32Z</time>
      </trkpt>
      <trkpt lat="47.34564" lon="-1.88118">
        <ele>80</ele>
        <time>2016-04-24T08:03:33Z</time>
      </trkpt>
      <trkpt lat="47.34567" lon="-1.88118">
        <ele>80</ele>
        <time>2016-04-24T08:03:34Z</time>
      </trkpt>
      <trkpt lat="47.34571" lon="-1.88119">
        <ele>80</ele>
        <time>2016-04-24T08:03:35Z</time>
      </trkpt>
      <trkpt lat="47.34575" lon="-1.8812">
        <ele>80</ele>
        <time>2016-04-24T08:03:36Z</time>
      </trkpt>
      <trkpt lat="47.34579" lon="-1.88122">
        <ele>80</ele>
        <time>2016-04-24T08:03:37Z</time>
      </trkpt>
      <trkpt lat="47.34583" lon="-1.88124">
        <ele>80</ele>
        <time>2016-04-24T08:03:38Z</time>
      </trkpt>
      <trkpt lat="47.34587" lon="-1.88127">
        <ele>82</ele>
        <time>2016-04-24T08:03:39Z</time>
      </trkpt>
      <trkpt lat="47.34591" lon="-1.8813">
        <ele>82</ele>
        <time>2016-04-24T08:03:40Z</time>
      </trkpt>
      <trkpt lat="47.34594" lon="-1.88133">
        <ele>82</ele>
        <time>2016-04-24T08:03:41Z</time>
      </trkpt>
      <trkpt lat="47.34598" lon="-1.88136">
        <ele>82</ele>
        <time>2016-04-24T08:03:42Z</time>
      </trkpt>
      <trkpt lat="47.34601" lon="-1.8814">
        <ele>82</ele>
        <time>2016-04-24T08:03:43Z</time>
      </trkpt>
      <trkpt lat="47.34604" lon="-1.88144">
        <ele>82</ele>
        <time>2016-04-24T08:03:44Z</time>
      </trkpt>
      <trkpt lat="47.34607" lon="-1.88148">
        <ele>82</ele>
        <time>2016-04-24T08:03:45Z</time>
      </trkpt>
      <trkpt lat="47.3461" lon="-1.88152">
        <ele>82</ele>
        <time>2016-04-24T08:03:46Z</time>
      </trkpt>
      <trkpt lat="47.34613" lon="-1.88157">
        <ele>82</ele>
        <time>2016-04-24T08:03:47Z</time>
      </trkpt>
      <trkpt lat="47.34616" lon="-1.88162">
        <ele>83</ele>
        <time>2016-04-24T08:03:48Z</time>
      </trkpt>
      <trkpt lat="47.34619" lon="-1.88168">
        <ele>83</ele>
        <time>2016-04-24T08:03:49Z</time>
      </trkpt>
      <trkpt lat="47.34621" lon="-1.88175">
        <ele>83</ele>
        <time>2016-04-24T08:03:50Z</time>
      </trkpt>
      <trkpt lat="47.34625" lon="-1.88179">
        <ele>83</ele>
        <time>2016-04-24T08:03:51Z</time>
      </trkpt>
      <trkpt lat="47.34628" lon="-1.88185">
        <ele>83</ele>
        <time>2016-04-24T08:03:52Z</time>
      </trkpt>
      <trkpt lat="47.3463" lon="-1.88189">
        <ele>83</ele>
        <time>2016-04-24T08:03:53Z</time>
      </trkpt>
      <trkpt lat="47.34634" lon="-1.88194">
        <ele>83</ele>
        <time>2016-04-24T08:03:54Z</time>
      </trkpt>
      <trkpt lat="47.34637" lon="-1.88199">
        <ele>83</ele>
        <time>2016-04-24T08:03:55Z</time>
      </trkpt>
      <trkpt lat="47.3464" lon="-1.88204">
        <ele>83</ele>
        <time>2016-04-24T08:03:56Z</time>
      </trkpt>
      <trkpt lat="47.34643" lon="-1.88209">
        <ele>83</ele>
        <time>2016-04-24T08:03:57Z</time>
      </trkpt>
      <trkpt lat="47.34646" lon="-1.88215">
        <ele>83</ele>
        <time>2016-04-24T08:03:58Z</time>
      </trkpt>
      <trkpt lat="47.34649" lon="-1.88219">
        <ele>83</ele>
        <time>2016-04-24T08:03:59Z</time>
      </trkpt>
      <trkpt lat="47.34653" lon="-1.88224">
        <ele>83</ele>
        <time>2016-04-24T08:04:00Z</time>
      </trkpt>
      <trkpt lat="47.34657" lon="-1.88231">
        <ele>83</ele>
        <time>2016-04-24T08:04:01Z</time>
      </trkpt>
      <trkpt lat="47.34659" lon="-1.88234">
        <ele>83</ele>
        <time>2016-04-24T08:04:02Z</time>
      </trkpt>
      <trkpt lat="47.34662" lon="-1.88239">
        <ele>84</ele>
        <time>2016-04-24T08:04:03Z</time>
      </trkpt>
      <trkpt lat="47.34665" lon="-1.88245">
        <ele>84</ele>
        <time>2016-04-24T08:04:04Z</time>
      </trkpt>
      <trkpt lat="47.34668" lon="-1.88249">
        <ele>84</ele>
        <time>2016-04-24T08:04:05Z</time>
      </trkpt>
      <trkpt lat="47.34672" lon="-1.88254">
        <ele>84</ele>
        <time>2016-04-24T08:04:06Z</time>
      </trkpt>
      <trkpt lat="47.34677" lon="-1.88259">
        <ele>84</ele>
        <time>2016-04-24T08:04:07Z</time>
      </trkpt>
      <trkpt lat="47.34681" lon="-1.8826">
        <ele>84</ele>
        <time>2016-04-24T08:04:08Z</time>
      </trkpt>
      <trkpt lat="47.34686" lon="-1.88262">
        <ele>84</ele>
        <time>2016-04-24T08:04:09Z</time>
      </trkpt>
      <trkpt lat="47.34693" lon="-1.88264">
        <ele>84</ele>
        <time>2016-04-24T08:04:11Z</time>
      </trkpt>
      <trkpt lat="47.34697" lon="-1.88265">
        <ele>84</ele>
        <time>2016-04-24T08:04:12Z</time>
      </trkpt>
      <trkpt lat="47.34702" lon="-1.88265">
        <ele>84</ele>
        <time>2016-04-24T08:04:13Z</time>
      </trkpt>
      <trkpt lat="47.34707" lon="-1.88263">
        <ele>84</ele>
        <time>2016-04-24T08:04:14Z</time>
      </trkpt>
      <trkpt lat="47.34712" lon="-1.88261">
        <ele>85</ele>
        <time>2016-04-24T08:04:15Z</time>
      </trkpt>
      <trkpt lat="47.34717" lon="-1.88261">
        <ele>85</ele>
        <time>2016-04-24T08:04:16Z</time>
      </trkpt>
      <trkpt lat="47.34722" lon="-1.8826">
        <ele>85</ele>
        <time>2016-04-24T08:04:17Z</time>
      </trkpt>
      <trkpt lat="47.34728" lon="-1.88259">
        <ele>85</ele>
        <time>2016-04-24T08:04:18Z</time>
      </trkpt>
      <trkpt lat="47.34732" lon="-1.88261">
        <ele>85</ele>
        <time>2016-04-24T08:04:19Z</time>
      </trkpt>
      <trkpt lat="47.34737" lon="-1.88258">
        <ele>85</ele>
        <time>2016-04-24T08:04:20Z</time>
      </trkpt>
      <trkpt lat="47.34742" lon="-1.88252">
        <ele>85</ele>
        <time>2016-04-24T08:04:21Z</time>
      </trkpt>
      <trkpt lat="47.34745" lon="-1.88251">
        <ele>85</ele>
        <time>2016-04-24T08:04:22Z</time>
      </trkpt>
      <trkpt lat="47.34751" lon="-1.88252">
        <ele>85</ele>
        <time>2016-04-24T08:04:23Z</time>
      </trkpt>
      <trkpt lat="47.34755" lon="-1.8825">
        <ele>85</ele>
        <time>2016-04-24T08:04:24Z</time>
      </trkpt>
      <trkpt lat="47.34759" lon="-1.88252">
        <ele>85</ele>
        <time>2016-04-24T08:04:25Z</time>
      </trkpt>
      <trkpt lat="47.34764" lon="-1.88253">
        <ele>86</ele>
        <time>2016-04-24T08:04:26Z</time>
      </trkpt>
      <trkpt lat="47.34771" lon="-1.88253">
        <ele>86</ele>
        <time>2016-04-24T08:04:27Z</time>
      </trkpt>
      <trkpt lat="47.34777" lon="-1.88253">
        <ele>86</ele>
        <time>2016-04-24T08:04:28Z</time>
      </trkpt>
      <trkpt lat="47.34782" lon="-1.88252">
        <ele>86</ele>
        <time>2016-04-24T08:04:29Z</time>
      </trkpt>
      <trkpt lat="47.34786" lon="-1.88251">
        <ele>86</ele>
        <time>2016-04-24T08:04:30Z</time>
      </trkpt>
      <trkpt lat="47.3479" lon="-1.88249">
        <ele>86</ele>
        <time>2016-04-24T08:04:31Z</time>
      </trkpt>
      <trkpt lat="47.34795" lon="-1.88253">
        <ele>86</ele>
        <time>2016-04-24T08:04:32Z</time>
      </trkpt>
      <trkpt lat="47.348" lon="-1.88255">
        <ele>86</ele>
        <time>2016-04-24T08:04:33Z</time>
      </trkpt>
      <trkpt lat="47.34805" lon="-1.88257">
        <ele>86</ele>
        <time>2016-04-24T08:04:34Z</time>
      </trkpt>
      <trkpt lat="47.34809" lon="-1.88257">
        <ele>86</ele>
        <time>2016-04-24T08:04:35Z</time>
      </trkpt>
      <trkpt lat="47.34813" lon="-1.88255">
        <ele>86</ele>
        <time>2016-04-24T08:04:36Z</time>
      </trkpt>
      <trkpt lat="47.34817" lon="-1.88255">
        <ele>86</ele>
        <time>2016-04-24T08:04:37Z</time>
      </trkpt>
      <trkpt lat="47.34825" lon="-1.88253">
        <ele>86</ele>
        <time>2016-04-24T08:04:39Z</time>
      </trkpt>
      <trkpt lat="47.34829" lon="-1.88253">
        <ele>86</ele>
        <time>2016-04-24T08:04:40Z</time>
      </trkpt>
      <trkpt lat="47.34832" lon="-1.88255">
        <ele>86</ele>
        <time>2016-04-24T08:04:41Z</time>
      </trkpt>
      <trkpt lat="47.34839" lon="-1.8827">
        <ele>86</ele>
        <time>2016-04-24T08:04:43Z</time>
      </trkpt>
      <trkpt lat="47.34839" lon="-1.88278">
        <ele>86</ele>
        <time>2016-04-24T08:04:44Z</time>
      </trkpt>
      <trkpt lat="47.34841" lon="-1.88285">
        <ele>86</ele>
        <time>2016-04-24T08:04:45Z</time>
      </trkpt>
      <trkpt lat="47.34839" lon="-1.88294">
        <ele>86</ele>
        <time>2016-04-24T08:04:46Z</time>
      </trkpt>
      <trkpt lat="47.34839" lon="-1.88304">
        <ele>86</ele>
        <time>2016-04-24T08:04:47Z</time>
      </trkpt>
      <trkpt lat="47.34839" lon="-1.88313">
        <ele>86</ele>
        <time>2016-04-24T08:04:48Z</time>
      </trkpt>
      <trkpt lat="47.34838" lon="-1.88323">
        <ele>86</ele>
        <time>2016-04-24T08:04:49Z</time>
      </trkpt>
      <trkpt lat="47.34838" lon="-1.88333">
        <ele>87</ele>
        <time>2016-04-24T08:04:50Z</time>
      </trkpt>
      <trkpt lat="47.3484" lon="-1.88343">
        <ele>86</ele>
        <time>2016-04-24T08:04:51Z</time>
      </trkpt>
      <trkpt lat="47.34845" lon="-1.88351">
        <ele>85</ele>
        <time>2016-04-24T08:04:52Z</time>
      </trkpt>
      <trkpt lat="47.34847" lon="-1.88361">
        <ele>85</ele>
        <time>2016-04-24T08:04:53Z</time>
      </trkpt>
      <trkpt lat="47.3485" lon="-1.8837">
        <ele>84</ele>
        <time>2016-04-24T08:04:54Z</time>
      </trkpt>
      <trkpt lat="47.34853" lon="-1.88382">
        <ele>84</ele>
        <time>2016-04-24T08:04:55Z</time>
      </trkpt>
      <trkpt lat="47.34856" lon="-1.88391">
        <ele>84</ele>
        <time>2016-04-24T08:04:56Z</time>
      </trkpt>
      <trkpt lat="47.34859" lon="-1.88402">
        <ele>84</ele>
        <time>2016-04-24T08:04:57Z</time>
      </trkpt>
      <trkpt lat="47.34862" lon="-1.88407">
        <ele>84</ele>
        <time>2016-04-24T08:04:58Z</time>
      </trkpt>
      <trkpt lat="47.34868" lon="-1.88414">
        <ele>83</ele>
        <time>2016-04-24T08:04:59Z</time>
      </trkpt>
      <trkpt lat="47.34874" lon="-1.88422">
        <ele>82</ele>
        <time>2016-04-24T08:05:00Z</time>
      </trkpt>
      <trkpt lat="47.34879" lon="-1.88428">
        <ele>82</ele>
        <time>2016-04-24T08:05:01Z</time>
      </trkpt>
      <trkpt lat="47.34886" lon="-1.88429">
        <ele>82</ele>
        <time>2016-04-24T08:05:02Z</time>
      </trkpt>
      <trkpt lat="47.34895" lon="-1.88423">
        <ele>82</ele>
        <time>2016-04-24T08:05:03Z</time>
      </trkpt>
      <trkpt lat="47.34902" lon="-1.88416">
        <ele>83</ele>
        <time>2016-04-24T08:05:04Z</time>
      </trkpt>
      <trkpt lat="47.34907" lon="-1.88417">
        <ele>82</ele>
        <time>2016-04-24T08:05:05Z</time>
      </trkpt>
      <trkpt lat="47.34912" lon="-1.8842">
        <ele>82</ele>
        <time>2016-04-24T08:05:06Z</time>
      </trkpt>
      <trkpt lat="47.34928" lon="-1.88431">
        <ele>82</ele>
        <time>2016-04-24T08:05:08Z</time>
      </trkpt>
      <trkpt lat="47.34933" lon="-1.88437">
        <ele>82</ele>
        <time>2016-04-24T08:05:09Z</time>
      </trkpt>
      <trkpt lat="47.34939" lon="-1.88444">
        <ele>82</ele>
        <time>2016-04-24T08:05:10Z</time>
      </trkpt>
      <trkpt lat="47.34942" lon="-1.88451">
        <ele>82</ele>
        <time>2016-04-24T08:05:11Z</time>
      </trkpt>
      <trkpt lat="47.34948" lon="-1.88456">
        <ele>82</ele>
        <time>2016-04-24T08:05:12Z</time>
      </trkpt>
      <trkpt lat="47.34951" lon="-1.88462">
        <ele>82</ele>
        <time>2016-04-24T08:05:13Z</time>
      </trkpt>
      <trkpt lat="47.34955" lon="-1.88467">
        <ele>82</ele>
        <time>2016-04-24T08:05:14Z</time>
      </trkpt>
      <trkpt lat="47.34958" lon="-1.88475">
        <ele>82</ele>
        <time>2016-04-24T08:05:15Z</time>
      </trkpt>
      <trkpt lat="47.34961" lon="-1.88482">
        <ele>82</ele>
        <time>2016-04-24T08:05:16Z</time>
      </trkpt>
      <trkpt lat="47.34964" lon="-1.88491">
        <ele>82</ele>
        <time>2016-04-24T08:05:17Z</time>
      </trkpt>
      <trkpt lat="47.34968" lon="-1.88497">
        <ele>81</ele>
        <time>2016-04-24T08:05:18Z</time>
      </trkpt>
      <trkpt lat="47.34971" lon="-1.88502">
        <ele>81</ele>
        <time>2016-04-24T08:05:19Z</time>
      </trkpt>
      <trkpt lat="47.34974" lon="-1.88509">
        <ele>81</ele>
        <time>2016-04-24T08:05:20Z</time>
      </trkpt>
      <trkpt lat="47.34977" lon="-1.88517">
        <ele>81</ele>
        <time>2016-04-24T08:05:21Z</time>
      </trkpt>
      <trkpt lat="47.34981" lon="-1.88524">
        <ele>81</ele>
        <time>2016-04-24T08:05:22Z</time>
      </trkpt>
      <trkpt lat="47.34986" lon="-1.8853">
        <ele>81</ele>
        <time>2016-04-24T08:05:23Z</time>
      </trkpt>
      <trkpt lat="47.34988" lon="-1.88536">
        <ele>81</ele>
        <time>2016-04-24T08:05:24Z</time>
      </trkpt>
      <trkpt lat="47.34994" lon="-1.88544">
        <ele>81</ele>
        <time>2016-04-24T08:05:25Z</time>
      </trkpt>
      <trkpt lat="47.34997" lon="-1.88551">
        <ele>81</ele>
        <time>2016-04-24T08:05:26Z</time>
      </trkpt>
      <trkpt lat="47.35001" lon="-1.8856">
        <ele>82</ele>
        <time>2016-04-24T08:05:27Z</time>
      </trkpt>
      <trkpt lat="47.35004" lon="-1.88565">
        <ele>82</ele>
        <time>2016-04-24T08:05:28Z</time>
      </trkpt>
      <trkpt lat="47.35005" lon="-1.88569">
        <ele>82</ele>
        <time>2016-04-24T08:05:29Z</time>
      </trkpt>
      <trkpt lat="47.3501" lon="-1.88578">
        <ele>82</ele>
        <time>2016-04-24T08:05:30Z</time>
      </trkpt>
      <trkpt lat="47.35012" lon="-1.88584">
        <ele>83</ele>
        <time>2016-04-24T08:05:31Z</time>
      </trkpt>
      <trkpt lat="47.35015" lon="-1.8859">
        <ele>83</ele>
        <time>2016-04-24T08:05:32Z</time>
      </trkpt>
      <trkpt lat="47.35017" lon="-1.88596">
        <ele>83</ele>
        <time>2016-04-24T08:05:33Z</time>
      </trkpt>
      <trkpt lat="47.35022" lon="-1.88593">
        <ele>83</ele>
        <time>2016-04-24T08:05:34Z</time>
      </trkpt>
      <trkpt lat="47.35026" lon="-1.88592">
        <ele>83</ele>
        <time>2016-04-24T08:05:35Z</time>
      </trkpt>
      <trkpt lat="47.35029" lon="-1.8859">
        <ele>83</ele>
        <time>2016-04-24T08:05:36Z</time>
      </trkpt>
      <trkpt lat="47.35032" lon="-1.88587">
        <ele>84</ele>
        <time>2016-04-24T08:05:37Z</time>
      </trkpt>
      <trkpt lat="47.35036" lon="-1.88585">
        <ele>84</ele>
        <time>2016-04-24T08:05:38Z</time>
      </trkpt>
      <trkpt lat="47.35038" lon="-1.88582">
        <ele>83</ele>
        <time>2016-04-24T08:05:39Z</time>
      </trkpt>
      <trkpt lat="47.35043" lon="-1.88579">
        <ele>83</ele>
        <time>2016-04-24T08:05:40Z</time>
      </trkpt>
      <trkpt lat="47.35049" lon="-1.88576">
        <ele>83</ele>
        <time>2016-04-24T08:05:41Z</time>
      </trkpt>
      <trkpt lat="47.35053" lon="-1.88573">
        <ele>83</ele>
        <time>2016-04-24T08:05:42Z</time>
      </trkpt>
      <trkpt lat="47.35059" lon="-1.88569">
        <ele>84</ele>
        <time>2016-04-24T08:05:43Z</time>
      </trkpt>
      <trkpt lat="47.35062" lon="-1.88566">
        <ele>84</ele>
        <time>2016-04-24T08:05:44Z</time>
      </trkpt>
      <trkpt lat="47.35067" lon="-1.88564">
        <ele>84</ele>
        <time>2016-04-24T08:05:45Z</time>
      </trkpt>
      <trkpt lat="47.35071" lon="-1.88562">
        <ele>84</ele>
        <time>2016-04-24T08:05:46Z</time>
      </trkpt>
      <trkpt lat="47.35075" lon="-1.88559">
        <ele>84</ele>
        <time>2016-04-24T08:05:47Z</time>
      </trkpt>
      <trkpt lat="47.35078" lon="-1.88558">
        <ele>84</ele>
        <time>2016-04-24T08:05:48Z</time>
      </trkpt>
      <trkpt lat="47.35082" lon="-1.88557">
        <ele>84</ele>
        <time>2016-04-24T08:05:50Z</time>
      </trkpt>
      <trkpt lat="47.35085" lon="-1.88555">
        <ele>85</ele>
        <time>2016-04-24T08:05:51Z</time>
      </trkpt>
      <trkpt lat="47.35088" lon="-1.88553">
        <ele>85</ele>
        <time>2016-04-24T08:05:52Z</time>
      </trkpt>
      <trkpt lat="47.35094" lon="-1.88547">
        <ele>85</ele>
        <time>2016-04-24T08:05:54Z</time>
      </trkpt>
      <trkpt lat="47.35096" lon="-1.88546">
        <ele>85</ele>
        <time>2016-04-24T08:05:55Z</time>
      </trkpt>
      <trkpt lat="47.35099" lon="-1.88543">
        <ele>85</ele>
        <time>2016-04-24T08:05:57Z</time>
      </trkpt>
      <trkpt lat="47.35097" lon="-1.88546">
        <ele>85</ele>
        <time>2016-04-24T08:06:01Z</time>
      </trkpt>
      <trkpt lat="47.35094" lon="-1.88548">
        <ele>85</ele>
        <time>2016-04-24T08:06:05Z</time>
      </trkpt>
      <trkpt lat="47.3509" lon="-1.8855">
        <ele>85</ele>
        <time>2016-04-24T08:06:07Z</time>
      </trkpt>
      <trkpt lat="47.35087" lon="-1.88551">
        <ele>85</ele>
        <time>2016-04-24T08:06:09Z</time>
      </trkpt>
      <trkpt lat="47.35083" lon="-1.88554">
        <ele>84</ele>
        <time>2016-04-24T08:06:11Z</time>
      </trkpt>
      <trkpt lat="47.35079" lon="-1.88556">
        <ele>84</ele>
        <time>2016-04-24T08:06:12Z</time>
      </trkpt>
      <trkpt lat="47.35076" lon="-1.88558">
        <ele>84</ele>
        <time>2016-04-24T08:06:13Z</time>
      </trkpt>
      <trkpt lat="47.35072" lon="-1.8856">
        <ele>84</ele>
        <time>2016-04-24T08:06:14Z</time>
      </trkpt>
      <trkpt lat="47.35069" lon="-1.88562">
        <ele>84</ele>
        <time>2016-04-24T08:06:15Z</time>
      </trkpt>
      <trkpt lat="47.35065" lon="-1.88565">
        <ele>84</ele>
        <time>2016-04-24T08:06:16Z</time>
      </trkpt>
      <trkpt lat="47.35061" lon="-1.88567">
        <ele>84</ele>
        <time>2016-04-24T08:06:17Z</time>
      </trkpt>
      <trkpt lat="47.35057" lon="-1.8857">
        <ele>84</ele>
        <time>2016-04-24T08:06:18Z</time>
      </trkpt>
      <trkpt lat="47.35053" lon="-1.88573">
        <ele>83</ele>
        <time>2016-04-24T08:06:19Z</time>
      </trkpt>
      <trkpt lat="47.35048" lon="-1.88575">
        <ele>83</ele>
        <time>2016-04-24T08:06:20Z</time>
      </trkpt>
      <trkpt lat="47.35042" lon="-1.88578">
        <ele>83</ele>
        <time>2016-04-24T08:06:21Z</time>
      </trkpt>
      <trkpt lat="47.35038" lon="-1.88581">
        <ele>83</ele>
        <time>2016-04-24T08:06:22Z</time>
      </trkpt>
      <trkpt lat="47.35034" lon="-1.88584">
        <ele>84</ele>
        <time>2016-04-24T08:06:23Z</time>
      </trkpt>
      <trkpt lat="47.3503" lon="-1.88587">
        <ele>83</ele>
        <time>2016-04-24T08:06:24Z</time>
      </trkpt>
      <trkpt lat="47.35026" lon="-1.8859">
        <ele>83</ele>
        <time>2016-04-24T08:06:25Z</time>
      </trkpt>
      <trkpt lat="47.35024" lon="-1.88593">
        <ele>83</ele>
        <time>2016-04-24T08:06:26Z</time>
      </trkpt>
      <trkpt lat="47.35023" lon="-1.88599">
        <ele>83</ele>
        <time>2016-04-24T08:06:27Z</time>
      </trkpt>
      <trkpt lat="47.35023" lon="-1.88604">
        <ele>83</ele>
        <time>2016-04-24T08:06:28Z</time>
      </trkpt>
      <trkpt lat="47.35024" lon="-1.8861">
        <ele>84</ele>
        <time>2016-04-24T08:06:29Z</time>
      </trkpt>
      <trkpt lat="47.35025" lon="-1.88617">
        <ele>84</ele>
        <time>2016-04-24T08:06:30Z</time>
      </trkpt>
      <trkpt lat="47.35025" lon="-1.88623">
        <ele>84</ele>
        <time>2016-04-24T08:06:31Z</time>
      </trkpt>
      <trkpt lat="47.35027" lon="-1.8863">
        <ele>84</ele>
        <time>2016-04-24T08:06:32Z</time>
      </trkpt>
      <trkpt lat="47.35028" lon="-1.88637">
        <ele>84</ele>
        <time>2016-04-24T08:06:33Z</time>
      </trkpt>
      <trkpt lat="47.3503" lon="-1.88643">
        <ele>84</ele>
        <time>2016-04-24T08:06:34Z</time>
      </trkpt>
      <trkpt lat="47.35032" lon="-1.88649">
        <ele>84</ele>
        <time>2016-04-24T08:06:35Z</time>
      </trkpt>
      <trkpt lat="47.35033" lon="-1.88656">
        <ele>84</ele>
        <time>2016-04-24T08:06:36Z</time>
      </trkpt>
      <trkpt lat="47.35032" lon="-1.88665">
        <ele>84</ele>
        <time>2016-04-24T08:06:37Z</time>
      </trkpt>
      <trkpt lat="47.35032" lon="-1.88672">
        <ele>84</ele>
        <time>2016-04-24T08:06:38Z</time>
      </trkpt>
      <trkpt lat="47.35034" lon="-1.88679">
        <ele>84</ele>
        <time>2016-04-24T08:06:39Z</time>
      </trkpt>
      <trkpt lat="47.35035" lon="-1.88686">
        <ele>84</ele>
        <time>2016-04-24T08:06:40Z</time>
      </trkpt>
      <trkpt lat="47.35035" lon="-1.88694">
        <ele>84</ele>
        <time>2016-04-24T08:06:41Z</time>
      </trkpt>
      <trkpt lat="47.35035" lon="-1.88701">
        <ele>84</ele>
        <time>2016-04-24T08:06:42Z</time>
      </trkpt>
      <trkpt lat="47.35034" lon="-1.88709">
        <ele>84</ele>
        <time>2016-04-24T08:06:43Z</time>
      </trkpt>
      <trkpt lat="47.35032" lon="-1.88717">
        <ele>84</ele>
        <time>2016-04-24T08:06:44Z</time>
      </trkpt>
      <trkpt lat="47.35031" lon="-1.88724">
        <ele>84</ele>
        <time>2016-04-24T08:06:45Z</time>
      </trkpt>
      <trkpt lat="47.35029" lon="-1.88731">
        <ele>84</ele>
        <time>2016-04-24T08:06:46Z</time>
      </trkpt>
      <trkpt lat="47.35028" lon="-1.88738">
        <ele>83</ele>
        <time>2016-04-24T08:06:47Z</time>
      </trkpt>
      <trkpt lat="47.35027" lon="-1.88745">
        <ele>83</ele>
        <time>2016-04-24T08:06:48Z</time>
      </trkpt>
      <trkpt lat="47.35024" lon="-1.88755">
        <ele>83</ele>
        <time>2016-04-24T08:06:49Z</time>
      </trkpt>
      <trkpt lat="47.35023" lon="-1.88764">
        <ele>83</ele>
        <time>2016-04-24T08:06:50Z</time>
      </trkpt>
      <trkpt lat="47.35023" lon="-1.88772">
        <ele>83</ele>
        <time>2016-04-24T08:06:51Z</time>
      </trkpt>
      <trkpt lat="47.35024" lon="-1.88779">
        <ele>83</ele>
        <time>2016-04-24T08:06:52Z</time>
      </trkpt>
      <trkpt lat="47.35026" lon="-1.88788">
        <ele>83</ele>
        <time>2016-04-24T08:06:53Z</time>
      </trkpt>
      <trkpt lat="47.35025" lon="-1.88797">
        <ele>83</ele>
        <time>2016-04-24T08:06:54Z</time>
      </trkpt>
      <trkpt lat="47.35024" lon="-1.88804">
        <ele>83</ele>
        <time>2016-04-24T08:06:55Z</time>
      </trkpt>
      <trkpt lat="47.35026" lon="-1.88813">
        <ele>83</ele>
        <time>2016-04-24T08:06:56Z</time>
      </trkpt>
      <trkpt lat="47.35028" lon="-1.88821">
        <ele>83</ele>
        <time>2016-04-24T08:06:57Z</time>
      </trkpt>
      <trkpt lat="47.35027" lon="-1.88832">
        <ele>83</ele>
        <time>2016-04-24T08:06:58Z</time>
      </trkpt>
      <trkpt lat="47.35026" lon="-1.8884">
        <ele>83</ele>
        <time>2016-04-24T08:06:59Z</time>
      </trkpt>
      <trkpt lat="47.35027" lon="-1.88849">
        <ele>83</ele>
        <time>2016-04-24T08:07:00Z</time>
      </trkpt>
      <trkpt lat="47.35028" lon="-1.88856">
        <ele>83</ele>
        <time>2016-04-24T08:07:01Z</time>
      </trkpt>
      <trkpt lat="47.35027" lon="-1.88866">
        <ele>83</ele>
        <time>2016-04-24T08:07:02Z</time>
      </trkpt>
      <trkpt lat="47.35032" lon="-1.88872">
        <ele>83</ele>
        <time>2016-04-24T08:07:03Z</time>
      </trkpt>
      <trkpt lat="47.35033" lon="-1.88878">
        <ele>83</ele>
        <time>2016-04-24T08:07:04Z</time>
      </trkpt>
      <trkpt lat="47.35032" lon="-1.88891">
        <ele>83</ele>
        <time>2016-04-24T08:07:05Z</time>
      </trkpt>
      <trkpt lat="47.35033" lon="-1.88902">
        <ele>83</ele>
        <time>2016-04-24T08:07:06Z</time>
      </trkpt>
      <trkpt lat="47.35031" lon="-1.88914">
        <ele>84</ele>
        <time>2016-04-24T08:07:07Z</time>
      </trkpt>
      <trkpt lat="47.35037" lon="-1.88919">
        <ele>84</ele>
        <time>2016-04-24T08:07:08Z</time>
      </trkpt>
      <trkpt lat="47.35036" lon="-1.88931">
        <ele>83</ele>
        <time>2016-04-24T08:07:09Z</time>
      </trkpt>
      <trkpt lat="47.35034" lon="-1.88943">
        <ele>83</ele>
        <time>2016-04-24T08:07:10Z</time>
      </trkpt>
      <trkpt lat="47.35034" lon="-1.88953">
        <ele>83</ele>
        <time>2016-04-24T08:07:11Z</time>
      </trkpt>
      <trkpt lat="47.35034" lon="-1.88964">
        <ele>83</ele>
        <time>2016-04-24T08:07:12Z</time>
      </trkpt>
      <trkpt lat="47.35034" lon="-1.88976">
        <ele>83</ele>
        <time>2016-04-24T08:07:13Z</time>
      </trkpt>
      <trkpt lat="47.35036" lon="-1.88988">
        <ele>83</ele>
        <time>2016-04-24T08:07:14Z</time>
      </trkpt>
      <trkpt lat="47.35039" lon="-1.88998">
        <ele>83</ele>
        <time>2016-04-24T08:07:15Z</time>
      </trkpt>
      <trkpt lat="47.35042" lon="-1.89008">
        <ele>83</ele>
        <time>2016-04-24T08:07:16Z</time>
      </trkpt>
      <trkpt lat="47.35048" lon="-1.8902">
        <ele>83</ele>
        <time>2016-04-24T08:07:17Z</time>
      </trkpt>
      <trkpt lat="47.35051" lon="-1.89024">
        <ele>83</ele>
        <time>2016-04-24T08:07:18Z</time>
      </trkpt>
      <trkpt lat="47.35057" lon="-1.89029">
        <ele>83</ele>
        <time>2016-04-24T08:07:19Z</time>
      </trkpt>
      <trkpt lat="47.35062" lon="-1.89034">
        <ele>83</ele>
        <time>2016-04-24T08:07:20Z</time>
      </trkpt>
      <trkpt lat="47.35067" lon="-1.89036">
        <ele>83</ele>
        <time>2016-04-24T08:07:21Z</time>
      </trkpt>
      <trkpt lat="47.3507" lon="-1.89036">
        <ele>83</ele>
        <time>2016-04-24T08:07:22Z</time>
      </trkpt>
      <trkpt lat="47.35075" lon="-1.89038">
        <ele>83</ele>
        <time>2016-04-24T08:07:23Z</time>
      </trkpt>
      <trkpt lat="47.35079" lon="-1.89039">
        <ele>83</ele>
        <time>2016-04-24T08:07:24Z</time>
      </trkpt>
      <trkpt lat="47.35083" lon="-1.8904">
        <ele>83</ele>
        <time>2016-04-24T08:07:25Z</time>
      </trkpt>
      <trkpt lat="47.35088" lon="-1.8904">
        <ele>84</ele>
        <time>2016-04-24T08:07:26Z</time>
      </trkpt>
      <trkpt lat="47.3509" lon="-1.89038">
        <ele>84</ele>
        <time>2016-04-24T08:07:27Z</time>
      </trkpt>
      <trkpt lat="47.35093" lon="-1.89038">
        <ele>84</ele>
        <time>2016-04-24T08:07:28Z</time>
      </trkpt>
      <trkpt lat="47.35097" lon="-1.89038">
        <ele>84</ele>
        <time>2016-04-24T08:07:29Z</time>
      </trkpt>
      <trkpt lat="47.35103" lon="-1.89038">
        <ele>84</ele>
        <time>2016-04-24T08:07:30Z</time>
      </trkpt>
      <trkpt lat="47.35109" lon="-1.89035">
        <ele>84</ele>
        <time>2016-04-24T08:07:31Z</time>
      </trkpt>
      <trkpt lat="47.35115" lon="-1.89033">
        <ele>84</ele>
        <time>2016-04-24T08:07:32Z</time>
      </trkpt>
      <trkpt lat="47.35122" lon="-1.89032">
        <ele>84</ele>
        <time>2016-04-24T08:07:33Z</time>
      </trkpt>
      <trkpt lat="47.35127" lon="-1.89031">
        <ele>84</ele>
        <time>2016-04-24T08:07:34Z</time>
      </trkpt>
      <trkpt lat="47.35133" lon="-1.89029">
        <ele>84</ele>
        <time>2016-04-24T08:07:35Z</time>
      </trkpt>
      <trkpt lat="47.35136" lon="-1.89027">
        <ele>84</ele>
        <time>2016-04-24T08:07:36Z</time>
      </trkpt>
      <trkpt lat="47.35142" lon="-1.89028">
        <ele>84</ele>
        <time>2016-04-24T08:07:37Z</time>
      </trkpt>
      <trkpt lat="47.35146" lon="-1.89028">
        <ele>84</ele>
        <time>2016-04-24T08:07:38Z</time>
      </trkpt>
      <trkpt lat="47.35151" lon="-1.89026">
        <ele>84</ele>
        <time>2016-04-24T08:07:39Z</time>
      </trkpt>
      <trkpt lat="47.35155" lon="-1.89026">
        <ele>84</ele>
        <time>2016-04-24T08:07:40Z</time>
      </trkpt>
      <trkpt lat="47.35159" lon="-1.89025">
        <ele>84</ele>
        <time>2016-04-24T08:07:41Z</time>
      </trkpt>
      <trkpt lat="47.35163" lon="-1.89025">
        <ele>84</ele>
        <time>2016-04-24T08:07:42Z</time>
      </trkpt>
      <trkpt lat="47.35167" lon="-1.89024">
        <ele>84</ele>
        <time>2016-04-24T08:07:43Z</time>
      </trkpt>
      <trkpt lat="47.35171" lon="-1.89023">
        <ele>84</ele>
        <time>2016-04-24T08:07:44Z</time>
      </trkpt>
      <trkpt lat="47.35176" lon="-1.89021">
        <ele>84</ele>
        <time>2016-04-24T08:07:45Z</time>
      </trkpt>
      <trkpt lat="47.35182" lon="-1.8902">
        <ele>84</ele>
        <time>2016-04-24T08:07:46Z</time>
      </trkpt>
      <trkpt lat="47.3519" lon="-1.89018">
        <ele>85</ele>
        <time>2016-04-24T08:07:47Z</time>
      </trkpt>
      <trkpt lat="47.35198" lon="-1.89016">
        <ele>85</ele>
        <time>2016-04-24T08:07:48Z</time>
      </trkpt>
      <trkpt lat="47.35202" lon="-1.89015">
        <ele>85</ele>
        <time>2016-04-24T08:07:49Z</time>
      </trkpt>
      <trkpt lat="47.35208" lon="-1.89013">
        <ele>85</ele>
        <time>2016-04-24T08:07:50Z</time>
      </trkpt>
      <trkpt lat="47.35212" lon="-1.89012">
        <ele>85</ele>
        <time>2016-04-24T08:07:51Z</time>
      </trkpt>
      <trkpt lat="47.35217" lon="-1.89012">
        <ele>85</ele>
        <time>2016-04-24T08:07:52Z</time>
      </trkpt>
      <trkpt lat="47.35223" lon="-1.89012">
        <ele>85</ele>
        <time>2016-04-24T08:07:53Z</time>
      </trkpt>
      <trkpt lat="47.35229" lon="-1.8901">
        <ele>85</ele>
        <time>2016-04-24T08:07:54Z</time>
      </trkpt>
      <trkpt lat="47.35236" lon="-1.89008">
        <ele>85</ele>
        <time>2016-04-24T08:07:55Z</time>
      </trkpt>
      <trkpt lat="47.35241" lon="-1.89007">
        <ele>85</ele>
        <time>2016-04-24T08:07:56Z</time>
      </trkpt>
      <trkpt lat="47.35246" lon="-1.89006">
        <ele>85</ele>
        <time>2016-04-24T08:07:57Z</time>
      </trkpt>
      <trkpt lat="47.35252" lon="-1.89006">
        <ele>85</ele>
        <time>2016-04-24T08:07:58Z</time>
      </trkpt>
      <trkpt lat="47.35256" lon="-1.89004">
        <ele>85</ele>
        <time>2016-04-24T08:07:59Z</time>
      </trkpt>
      <trkpt lat="47.35262" lon="-1.89004">
        <ele>85</ele>
        <time>2016-04-24T08:08:00Z</time>
      </trkpt>
      <trkpt lat="47.35267" lon="-1.89003">
        <ele>86</ele>
        <time>2016-04-24T08:08:01Z</time>
      </trkpt>
      <trkpt lat="47.35271" lon="-1.89001">
        <ele>86</ele>
        <time>2016-04-24T08:08:02Z</time>
      </trkpt>
      <trkpt lat="47.35276" lon="-1.88999">
        <ele>85</ele>
        <time>2016-04-24T08:08:03Z</time>
      </trkpt>
      <trkpt lat="47.35279" lon="-1.88999">
        <ele>85</ele>
        <time>2016-04-24T08:08:04Z</time>
      </trkpt>
      <trkpt lat="47.35284" lon="-1.88998">
        <ele>85</ele>
        <time>2016-04-24T08:08:05Z</time>
      </trkpt>
      <trkpt lat="47.35289" lon="-1.88997">
        <ele>85</ele>
        <time>2016-04-24T08:08:06Z</time>
      </trkpt>
      <trkpt lat="47.35293" lon="-1.88996">
        <ele>85</ele>
        <time>2016-04-24T08:08:07Z</time>
      </trkpt>
      <trkpt lat="47.35298" lon="-1.88995">
        <ele>85</ele>
        <time>2016-04-24T08:08:08Z</time>
      </trkpt>
      <trkpt lat="47.35303" lon="-1.88993">
        <ele>85</ele>
        <time>2016-04-24T08:08:09Z</time>
      </trkpt>
      <trkpt lat="47.35307" lon="-1.88991">
        <ele>85</ele>
        <time>2016-04-24T08:08:10Z</time>
      </trkpt>
      <trkpt lat="47.35311" lon="-1.88989">
        <ele>86</ele>
        <time>2016-04-24T08:08:11Z</time>
      </trkpt>
      <trkpt lat="47.35316" lon="-1.88988">
        <ele>86</ele>
        <time>2016-04-24T08:08:12Z</time>
      </trkpt>
      <trkpt lat="47.35321" lon="-1.88986">
        <ele>86</ele>
        <time>2016-04-24T08:08:13Z</time>
      </trkpt>
      <trkpt lat="47.35325" lon="-1.88984">
        <ele>86</ele>
        <time>2016-04-24T08:08:14Z</time>
      </trkpt>
      <trkpt lat="47.35329" lon="-1.88983">
        <ele>86</ele>
        <time>2016-04-24T08:08:15Z</time>
      </trkpt>
      <trkpt lat="47.35334" lon="-1.88982">
        <ele>86</ele>
        <time>2016-04-24T08:08:16Z</time>
      </trkpt>
      <trkpt lat="47.35337" lon="-1.88982">
        <ele>86</ele>
        <time>2016-04-24T08:08:17Z</time>
      </trkpt>
      <trkpt lat="47.35341" lon="-1.88982">
        <ele>86</ele>
        <time>2016-04-24T08:08:18Z</time>
      </trkpt>
      <trkpt lat="47.35346" lon="-1.88982">
        <ele>86</ele>
        <time>2016-04-24T08:08:19Z</time>
      </trkpt>
      <trkpt lat="47.35352" lon="-1.88978">
        <ele>87</ele>
        <time>2016-04-24T08:08:21Z</time>
      </trkpt>
      <trkpt lat="47.35356" lon="-1.88978">
        <ele>87</ele>
        <time>2016-04-24T08:08:23Z</time>
      </trkpt>
      <trkpt lat="47.35362" lon="-1.88977">
        <ele>87</ele>
        <time>2016-04-24T08:08:25Z</time>
      </trkpt>
      <trkpt lat="47.35365" lon="-1.88976">
        <ele>87</ele>
        <time>2016-04-24T08:08:26Z</time>
      </trkpt>
      <trkpt lat="47.35369" lon="-1.88975">
        <ele>87</ele>
        <time>2016-04-24T08:08:27Z</time>
      </trkpt>
      <trkpt lat="47.35373" lon="-1.88973">
        <ele>87</ele>
        <time>2016-04-24T08:08:28Z</time>
      </trkpt>
      <trkpt lat="47.35377" lon="-1.88972">
        <ele>87</ele>
        <time>2016-04-24T08:08:29Z</time>
      </trkpt>
      <trkpt lat="47.35381" lon="-1.88971">
        <ele>87</ele>
        <time>2016-04-24T08:08:30Z</time>
      </trkpt>
      <trkpt lat="47.35385" lon="-1.88969">
        <ele>87</ele>
        <time>2016-04-24T08:08:31Z</time>
      </trkpt>
      <trkpt lat="47.35389" lon="-1.88968">
        <ele>87</ele>
        <time>2016-04-24T08:08:32Z</time>
      </trkpt>
      <trkpt lat="47.35393" lon="-1.88966">
        <ele>87</ele>
        <time>2016-04-24T08:08:33Z</time>
      </trkpt>
      <trkpt lat="47.35398" lon="-1.88964">
        <ele>87</ele>
        <time>2016-04-24T08:08:34Z</time>
      </trkpt>
      <trkpt lat="47.35402" lon="-1.88963">
        <ele>87</ele>
        <time>2016-04-24T08:08:35Z</time>
      </trkpt>
      <trkpt lat="47.35406" lon="-1.88962">
        <ele>87</ele>
        <time>2016-04-24T08:08:36Z</time>
      </trkpt>
      <trkpt lat="47.3541" lon="-1.88961">
        <ele>87</ele>
        <time>2016-04-24T08:08:37Z</time>
      </trkpt>
      <trkpt lat="47.35414" lon="-1.8896">
        <ele>87</ele>
        <time>2016-04-24T08:08:38Z</time>
      </trkpt>
      <trkpt lat="47.35418" lon="-1.88958">
        <ele>87</ele>
        <time>2016-04-24T08:08:39Z</time>
      </trkpt>
      <trkpt lat="47.35422" lon="-1.88957">
        <ele>87</ele>
        <time>2016-04-24T08:08:40Z</time>
      </trkpt>
      <trkpt lat="47.35427" lon="-1.88956">
        <ele>87</ele>
        <time>2016-04-24T08:08:41Z</time>
      </trkpt>
      <trkpt lat="47.35431" lon="-1.88955">
        <ele>87</ele>
        <time>2016-04-24T08:08:42Z</time>
      </trkpt>
      <trkpt lat="47.35435" lon="-1.88955">
        <ele>87</ele>
        <time>2016-04-24T08:08:43Z</time>
      </trkpt>
      <trkpt lat="47.35439" lon="-1.88953">
        <ele>87</ele>
        <time>2016-04-24T08:08:44Z</time>
      </trkpt>
      <trkpt lat="47.35442" lon="-1.8895">
        <ele>87</ele>
        <time>2016-04-24T08:08:45Z</time>
      </trkpt>
      <trkpt lat="47.35445" lon="-1.88944">
        <ele>87</ele>
        <time>2016-04-24T08:08:47Z</time>
      </trkpt>
      <trkpt lat="47.35449" lon="-1.8894">
        <ele>87</ele>
        <time>2016-04-24T08:08:49Z</time>
      </trkpt>
      <trkpt lat="47.35452" lon="-1.88944">
        <ele>87</ele>
        <time>2016-04-24T08:08:51Z</time>
      </trkpt>
      <trkpt lat="47.3545" lon="-1.8895">
        <ele>87</ele>
        <time>2016-04-24T08:08:53Z</time>
      </trkpt>
      <trkpt lat="47.35445" lon="-1.8895">
        <ele>87</ele>
        <time>2016-04-24T08:08:55Z</time>
      </trkpt>
      <trkpt lat="47.35441" lon="-1.8895">
        <ele>87</ele>
        <time>2016-04-24T08:08:57Z</time>
      </trkpt>
      <trkpt lat="47.35438" lon="-1.8895">
        <ele>87</ele>
        <time>2016-04-24T08:08:58Z</time>
      </trkpt>
      <trkpt lat="47.35435" lon="-1.88951">
        <ele>87</ele>
        <time>2016-04-24T08:08:59Z</time>
      </trkpt>
      <trkpt lat="47.35432" lon="-1.88952">
        <ele>87</ele>
        <time>2016-04-24T08:09:00Z</time>
      </trkpt>
      <trkpt lat="47.35428" lon="-1.88953">
        <ele>87</ele>
        <time>2016-04-24T08:09:01Z</time>
      </trkpt>
      <trkpt lat="47.35425" lon="-1.88954">
        <ele>87</ele>
        <time>2016-04-24T08:09:02Z</time>
      </trkpt>
      <trkpt lat="47.35421" lon="-1.88956">
        <ele>87</ele>
        <time>2016-04-24T08:09:03Z</time>
      </trkpt>
      <trkpt lat="47.35417" lon="-1.88957">
        <ele>87</ele>
        <time>2016-04-24T08:09:04Z</time>
      </trkpt>
      <trkpt lat="47.35413" lon="-1.88958">
        <ele>87</ele>
        <time>2016-04-24T08:09:05Z</time>
      </trkpt>
      <trkpt lat="47.35409" lon="-1.88959">
        <ele>87</ele>
        <time>2016-04-24T08:09:06Z</time>
      </trkpt>
      <trkpt lat="47.35405" lon="-1.8896">
        <ele>87</ele>
        <time>2016-04-24T08:09:07Z</time>
      </trkpt>
      <trkpt lat="47.35401" lon="-1.88961">
        <ele>87</ele>
        <time>2016-04-24T08:09:08Z</time>
      </trkpt>
      <trkpt lat="47.35397" lon="-1.88963">
        <ele>87</ele>
        <time>2016-04-24T08:09:09Z</time>
      </trkpt>
      <trkpt lat="47.35393" lon="-1.88964">
        <ele>87</ele>
        <time>2016-04-24T08:09:10Z</time>
      </trkpt>
      <trkpt lat="47.35389" lon="-1.88965">
        <ele>87</ele>
        <time>2016-04-24T08:09:11Z</time>
      </trkpt>
      <trkpt lat="47.35385" lon="-1.88967">
        <ele>87</ele>
        <time>2016-04-24T08:09:12Z</time>
      </trkpt>
      <trkpt lat="47.35383" lon="-1.88974">
        <ele>87</ele>
        <time>2016-04-24T08:09:13Z</time>
      </trkpt>
      <trkpt lat="47.35382" lon="-1.8898">
        <ele>87</ele>
        <time>2016-04-24T08:09:14Z</time>
      </trkpt>
      <trkpt lat="47.35383" lon="-1.88987">
        <ele>87</ele>
        <time>2016-04-24T08:09:15Z</time>
      </trkpt>
      <trkpt lat="47.35384" lon="-1.88994">
        <ele>87</ele>
        <time>2016-04-24T08:09:16Z</time>
      </trkpt>
      <trkpt lat="47.35386" lon="-1.89">
        <ele>87</ele>
        <time>2016-04-24T08:09:17Z</time>
      </trkpt>
      <trkpt lat="47.35388" lon="-1.89007">
        <ele>87</ele>
        <time>2016-04-24T08:09:18Z</time>
      </trkpt>
      <trkpt lat="47.3539" lon="-1.89014">
        <ele>87</ele>
        <time>2016-04-24T08:09:19Z</time>
      </trkpt>
      <trkpt lat="47.35391" lon="-1.8902">
        <ele>87</ele>
        <time>2016-04-24T08:09:20Z</time>
      </trkpt>
      <trkpt lat="47.35393" lon="-1.89027">
        <ele>87</ele>
        <time>2016-04-24T08:09:21Z</time>
      </trkpt>
      <trkpt lat="47.35395" lon="-1.89034">
        <ele>87</ele>
        <time>2016-04-24T08:09:22Z</time>
      </trkpt>
      <trkpt lat="47.35397" lon="-1.89041">
        <ele>87</ele>
        <time>2016-04-24T08:09:23Z</time>
      </trkpt>
      <trkpt lat="47.35399" lon="-1.89048">
        <ele>87</ele>
        <time>2016-04-24T08:09:24Z</time>
      </trkpt>
      <trkpt lat="47.354" lon="-1.89055">
        <ele>87</ele>
        <time>2016-04-24T08:09:25Z</time>
      </trkpt>
      <trkpt lat="47.35402" lon="-1.89062">
        <ele>87</ele>
        <time>2016-04-24T08:09:26Z</time>
      </trkpt>
      <trkpt lat="47.35403" lon="-1.89069">
        <ele>87</ele>
        <time>2016-04-24T08:09:27Z</time>
      </trkpt>
      <trkpt lat="47.35404" lon="-1.89075">
        <ele>87</ele>
        <time>2016-04-24T08:09:28Z</time>
      </trkpt>
      <trkpt lat="47.35406" lon="-1.89081">
        <ele>87</ele>
        <time>2016-04-24T08:09:29Z</time>
      </trkpt>
      <trkpt lat="47.35407" lon="-1.89087">
        <ele>87</ele>
        <time>2016-04-24T08:09:30Z</time>
      </trkpt>
      <trkpt lat="47.35409" lon="-1.89094">
        <ele>87</ele>
        <time>2016-04-24T08:09:31Z</time>
      </trkpt>
      <trkpt lat="47.35411" lon="-1.89101">
        <ele>87</ele>
        <time>2016-04-24T08:09:32Z</time>
      </trkpt>
      <trkpt lat="47.35412" lon="-1.89108">
        <ele>87</ele>
        <time>2016-04-24T08:09:33Z</time>
      </trkpt>
      <trkpt lat="47.35414" lon="-1.89115">
        <ele>88</ele>
        <time>2016-04-24T08:09:34Z</time>
      </trkpt>
      <trkpt lat="47.35415" lon="-1.89121">
        <ele>88</ele>
        <time>2016-04-24T08:09:35Z</time>
      </trkpt>
      <trkpt lat="47.35417" lon="-1.89128">
        <ele>88</ele>
        <time>2016-04-24T08:09:36Z</time>
      </trkpt>
      <trkpt lat="47.35418" lon="-1.89135">
        <ele>87</ele>
        <time>2016-04-24T08:09:37Z</time>
      </trkpt>
      <trkpt lat="47.35419" lon="-1.89142">
        <ele>88</ele>
        <time>2016-04-24T08:09:38Z</time>
      </trkpt>
      <trkpt lat="47.35419" lon="-1.89149">
        <ele>88</ele>
        <time>2016-04-24T08:09:39Z</time>
      </trkpt>
      <trkpt lat="47.35421" lon="-1.89154">
        <ele>88</ele>
        <time>2016-04-24T08:09:40Z</time>
      </trkpt>
      <trkpt lat="47.35422" lon="-1.89161">
        <ele>88</ele>
        <time>2016-04-24T08:09:41Z</time>
      </trkpt>
      <trkpt lat="47.35424" lon="-1.89167">
        <ele>88</ele>
        <time>2016-04-24T08:09:42Z</time>
      </trkpt>
      <trkpt lat="47.35426" lon="-1.89174">
        <ele>88</ele>
        <time>2016-04-24T08:09:43Z</time>
      </trkpt>
      <trkpt lat="47.35427" lon="-1.8918">
        <ele>88</ele>
        <time>2016-04-24T08:09:44Z</time>
      </trkpt>
      <trkpt lat="47.35428" lon="-1.89186">
        <ele>87</ele>
        <time>2016-04-24T08:09:45Z</time>
      </trkpt>
      <trkpt lat="47.35429" lon="-1.89193">
        <ele>87</ele>
        <time>2016-04-24T08:09:46Z</time>
      </trkpt>
      <trkpt lat="47.35431" lon="-1.892">
        <ele>87</ele>
        <time>2016-04-24T08:09:47Z</time>
      </trkpt>
      <trkpt lat="47.35432" lon="-1.89206">
        <ele>87</ele>
        <time>2016-04-24T08:09:48Z</time>
      </trkpt>
      <trkpt lat="47.35434" lon="-1.89213">
        <ele>87</ele>
        <time>2016-04-24T08:09:49Z</time>
      </trkpt>
      <trkpt lat="47.35435" lon="-1.89219">
        <ele>87</ele>
        <time>2016-04-24T08:09:50Z</time>
      </trkpt>
      <trkpt lat="47.35436" lon="-1.89225">
        <ele>87</ele>
        <time>2016-04-24T08:09:51Z</time>
      </trkpt>
      <trkpt lat="47.35438" lon="-1.89231">
        <ele>87</ele>
        <time>2016-04-24T08:09:52Z</time>
      </trkpt>
      <trkpt lat="47.35439" lon="-1.89237">
        <ele>87</ele>
        <time>2016-04-24T08:09:53Z</time>
      </trkpt>
      <trkpt lat="47.3544" lon="-1.89243">
        <ele>87</ele>
        <time>2016-04-24T08:09:54Z</time>
      </trkpt>
      <trkpt lat="47.35441" lon="-1.89251">
        <ele>87</ele>
        <time>2016-04-24T08:09:55Z</time>
      </trkpt>
      <trkpt lat="47.35443" lon="-1.89257">
        <ele>87</ele>
        <time>2016-04-24T08:09:56Z</time>
      </trkpt>
      <trkpt lat="47.35449" lon="-1.89259">
        <ele>87</ele>
        <time>2016-04-24T08:09:57Z</time>
      </trkpt>
      <trkpt lat="47.35454" lon="-1.89259">
        <ele>87</ele>
        <time>2016-04-24T08:09:58Z</time>
      </trkpt>
      <trkpt lat="47.35457" lon="-1.89258">
        <ele>87</ele>
        <time>2016-04-24T08:09:59Z</time>
      </trkpt>
      <trkpt lat="47.35461" lon="-1.89255">
        <ele>87</ele>
        <time>2016-04-24T08:10:00Z</time>
      </trkpt>
      <trkpt lat="47.35464" lon="-1.89253">
        <ele>87</ele>
        <time>2016-04-24T08:10:01Z</time>
      </trkpt>
      <trkpt lat="47.35469" lon="-1.89252">
        <ele>87</ele>
        <time>2016-04-24T08:10:02Z</time>
      </trkpt>
      <trkpt lat="47.35473" lon="-1.89251">
        <ele>87</ele>
        <time>2016-04-24T08:10:03Z</time>
      </trkpt>
      <trkpt lat="47.35476" lon="-1.8925">
        <ele>86</ele>
        <time>2016-04-24T08:10:04Z</time>
      </trkpt>
      <trkpt lat="47.3548" lon="-1.8925">
        <ele>86</ele>
        <time>2016-04-24T08:10:05Z</time>
      </trkpt>
      <trkpt lat="47.35484" lon="-1.8925">
        <ele>86</ele>
        <time>2016-04-24T08:10:06Z</time>
      </trkpt>
      <trkpt lat="47.35489" lon="-1.89251">
        <ele>86</ele>
        <time>2016-04-24T08:10:07Z</time>
      </trkpt>
      <trkpt lat="47.35493" lon="-1.89252">
        <ele>86</ele>
        <time>2016-04-24T08:10:08Z</time>
      </trkpt>
      <trkpt lat="47.35497" lon="-1.89252">
        <ele>86</ele>
        <time>2016-04-24T08:10:09Z</time>
      </trkpt>
      <trkpt lat="47.35501" lon="-1.89254">
        <ele>86</ele>
        <time>2016-04-24T08:10:10Z</time>
      </trkpt>
      <trkpt lat="47.35504" lon="-1.89255">
        <ele>86</ele>
        <time>2016-04-24T08:10:11Z</time>
      </trkpt>
      <trkpt lat="47.35508" lon="-1.89255">
        <ele>86</ele>
        <time>2016-04-24T08:10:12Z</time>
      </trkpt>
      <trkpt lat="47.35512" lon="-1.89255">
        <ele>86</ele>
        <time>2016-04-24T08:10:13Z</time>
      </trkpt>
      <trkpt lat="47.35516" lon="-1.89255">
        <ele>86</ele>
        <time>2016-04-24T08:10:14Z</time>
      </trkpt>
      <trkpt lat="47.3552" lon="-1.89255">
        <ele>86</ele>
        <time>2016-04-24T08:10:15Z</time>
      </trkpt>
      <trkpt lat="47.35524" lon="-1.89255">
        <ele>86</ele>
        <time>2016-04-24T08:10:16Z</time>
      </trkpt>
      <trkpt lat="47.35528" lon="-1.89254">
        <ele>86</ele>
        <time>2016-04-24T08:10:17Z</time>
      </trkpt>
      <trkpt lat="47.35532" lon="-1.89253">
        <ele>86</ele>
        <time>2016-04-24T08:10:18Z</time>
      </trkpt>
      <trkpt lat="47.35535" lon="-1.89248">
        <ele>86</ele>
        <time>2016-04-24T08:10:19Z</time>
      </trkpt>
      <trkpt lat="47.35539" lon="-1.89245">
        <ele>86</ele>
        <time>2016-04-24T08:10:20Z</time>
      </trkpt>
      <trkpt lat="47.35542" lon="-1.89242">
        <ele>85</ele>
        <time>2016-04-24T08:10:21Z</time>
      </trkpt>
      <trkpt lat="47.35545" lon="-1.89239">
        <ele>85</ele>
        <time>2016-04-24T08:10:22Z</time>
      </trkpt>
      <trkpt lat="47.35549" lon="-1.89236">
        <ele>85</ele>
        <time>2016-04-24T08:10:23Z</time>
      </trkpt>
      <trkpt lat="47.35553" lon="-1.89234">
        <ele>85</ele>
        <time>2016-04-24T08:10:24Z</time>
      </trkpt>
      <trkpt lat="47.35556" lon="-1.89232">
        <ele>85</ele>
        <time>2016-04-24T08:10:25Z</time>
      </trkpt>
      <trkpt lat="47.3556" lon="-1.89229">
        <ele>85</ele>
        <time>2016-04-24T08:10:26Z</time>
      </trkpt>
      <trkpt lat="47.35564" lon="-1.89225">
        <ele>85</ele>
        <time>2016-04-24T08:10:27Z</time>
      </trkpt>
      <trkpt lat="47.35567" lon="-1.89221">
        <ele>85</ele>
        <time>2016-04-24T08:10:28Z</time>
      </trkpt>
      <trkpt lat="47.3557" lon="-1.89216">
        <ele>85</ele>
        <time>2016-04-24T08:10:29Z</time>
      </trkpt>
      <trkpt lat="47.35572" lon="-1.89211">
        <ele>85</ele>
        <time>2016-04-24T08:10:30Z</time>
      </trkpt>
      <trkpt lat="47.35575" lon="-1.89206">
        <ele>85</ele>
        <time>2016-04-24T08:10:31Z</time>
      </trkpt>
      <trkpt lat="47.35577" lon="-1.89201">
        <ele>85</ele>
        <time>2016-04-24T08:10:32Z</time>
      </trkpt>
      <trkpt lat="47.3558" lon="-1.89195">
        <ele>85</ele>
        <time>2016-04-24T08:10:33Z</time>
      </trkpt>
      <trkpt lat="47.35582" lon="-1.8919">
        <ele>85</ele>
        <time>2016-04-24T08:10:34Z</time>
      </trkpt>
      <trkpt lat="47.35584" lon="-1.89184">
        <ele>84</ele>
        <time>2016-04-24T08:10:35Z</time>
      </trkpt>
      <trkpt lat="47.35586" lon="-1.89178">
        <ele>84</ele>
        <time>2016-04-24T08:10:36Z</time>
      </trkpt>
      <trkpt lat="47.35588" lon="-1.89172">
        <ele>84</ele>
        <time>2016-04-24T08:10:37Z</time>
      </trkpt>
      <trkpt lat="47.3559" lon="-1.89167">
        <ele>84</ele>
        <time>2016-04-24T08:10:38Z</time>
      </trkpt>
      <trkpt lat="47.35592" lon="-1.89161">
        <ele>84</ele>
        <time>2016-04-24T08:10:39Z</time>
      </trkpt>
      <trkpt lat="47.35594" lon="-1.89156">
        <ele>84</ele>
        <time>2016-04-24T08:10:40Z</time>
      </trkpt>
      <trkpt lat="47.35596" lon="-1.8915">
        <ele>84</ele>
        <time>2016-04-24T08:10:41Z</time>
      </trkpt>
      <trkpt lat="47.35599" lon="-1.89145">
        <ele>84</ele>
        <time>2016-04-24T08:10:42Z</time>
      </trkpt>
      <trkpt lat="47.35601" lon="-1.89139">
        <ele>84</ele>
        <time>2016-04-24T08:10:43Z</time>
      </trkpt>
      <trkpt lat="47.35603" lon="-1.89134">
        <ele>84</ele>
        <time>2016-04-24T08:10:44Z</time>
      </trkpt>
      <trkpt lat="47.35605" lon="-1.89128">
        <ele>84</ele>
        <time>2016-04-24T08:10:45Z</time>
      </trkpt>
      <trkpt lat="47.35607" lon="-1.89123">
        <ele>84</ele>
        <time>2016-04-24T08:10:46Z</time>
      </trkpt>
      <trkpt lat="47.35609" lon="-1.89117">
        <ele>84</ele>
        <time>2016-04-24T08:10:47Z</time>
      </trkpt>
      <trkpt lat="47.35611" lon="-1.89112">
        <ele>85</ele>
        <time>2016-04-24T08:10:48Z</time>
      </trkpt>
      <trkpt lat="47.35613" lon="-1.89106">
        <ele>85</ele>
        <time>2016-04-24T08:10:49Z</time>
      </trkpt>
      <trkpt lat="47.35615" lon="-1.891">
        <ele>85</ele>
        <time>2016-04-24T08:10:50Z</time>
      </trkpt>
      <trkpt lat="47.35617" lon="-1.89093">
        <ele>85</ele>
        <time>2016-04-24T08:10:51Z</time>
      </trkpt>
      <trkpt lat="47.35619" lon="-1.89088">
        <ele>85</ele>
        <time>2016-04-24T08:10:52Z</time>
      </trkpt>
      <trkpt lat="47.35621" lon="-1.89081">
        <ele>86</ele>
        <time>2016-04-24T08:10:53Z</time>
      </trkpt>
      <trkpt lat="47.35624" lon="-1.89075">
        <ele>86</ele>
        <time>2016-04-24T08:10:54Z</time>
      </trkpt>
      <trkpt lat="47.35626" lon="-1.8907">
        <ele>86</ele>
        <time>2016-04-24T08:10:55Z</time>
      </trkpt>
      <trkpt lat="47.35629" lon="-1.89065">
        <ele>86</ele>
        <time>2016-04-24T08:10:56Z</time>
      </trkpt>
      <trkpt lat="47.35631" lon="-1.89059">
        <ele>86</ele>
        <time>2016-04-24T08:10:57Z</time>
      </trkpt>
      <trkpt lat="47.35633" lon="-1.89053">
        <ele>86</ele>
        <time>2016-04-24T08:10:58Z</time>
      </trkpt>
      <trkpt lat="47.35634" lon="-1.89046">
        <ele>86</ele>
        <time>2016-04-24T08:10:59Z</time>
      </trkpt>
      <trkpt lat="47.35637" lon="-1.8904">
        <ele>86</ele>
        <time>2016-04-24T08:11:00Z</time>
      </trkpt>
      <trkpt lat="47.35639" lon="-1.89033">
        <ele>86</ele>
        <time>2016-04-24T08:11:01Z</time>
      </trkpt>
      <trkpt lat="47.35641" lon="-1.89026">
        <ele>86</ele>
        <time>2016-04-24T08:11:02Z</time>
      </trkpt>
      <trkpt lat="47.35642" lon="-1.8902">
        <ele>86</ele>
        <time>2016-04-24T08:11:03Z</time>
      </trkpt>
      <trkpt lat="47.35643" lon="-1.89013">
        <ele>86</ele>
        <time>2016-04-24T08:11:04Z</time>
      </trkpt>
      <trkpt lat="47.35645" lon="-1.89007">
        <ele>86</ele>
        <time>2016-04-24T08:11:05Z</time>
      </trkpt>
      <trkpt lat="47.35646" lon="-1.89">
        <ele>86</ele>
        <time>2016-04-24T08:11:06Z</time>
      </trkpt>
      <trkpt lat="47.35647" lon="-1.88993">
        <ele>86</ele>
        <time>2016-04-24T08:11:07Z</time>
      </trkpt>
      <trkpt lat="47.35647" lon="-1.88986">
        <ele>86</ele>
        <time>2016-04-24T08:11:08Z</time>
      </trkpt>
      <trkpt lat="47.35647" lon="-1.88979">
        <ele>86</ele>
        <time>2016-04-24T08:11:09Z</time>
      </trkpt>
      <trkpt lat="47.35647" lon="-1.88972">
        <ele>86</ele>
        <time>2016-04-24T08:11:10Z</time>
      </trkpt>
      <trkpt lat="47.35647" lon="-1.88965">
        <ele>86</ele>
        <time>2016-04-24T08:11:11Z</time>
      </trkpt>
      <trkpt lat="47.35646" lon="-1.88958">
        <ele>86</ele>
        <time>2016-04-24T08:11:12Z</time>
      </trkpt>
      <trkpt lat="47.35647" lon="-1.88952">
        <ele>86</ele>
        <time>2016-04-24T08:11:13Z</time>
      </trkpt>
      <trkpt lat="47.35649" lon="-1.88946">
        <ele>86</ele>
        <time>2016-04-24T08:11:14Z</time>
      </trkpt>
      <trkpt lat="47.35651" lon="-1.88941">
        <ele>86</ele>
        <time>2016-04-24T08:11:15Z</time>
      </trkpt>
      <trkpt lat="47.35655" lon="-1.88938">
        <ele>86</ele>
        <time>2016-04-24T08:11:16Z</time>
      </trkpt>
      <trkpt lat="47.35658" lon="-1.88933">
        <ele>86</ele>
        <time>2016-04-24T08:11:17Z</time>
      </trkpt>
      <trkpt lat="47.35662" lon="-1.88929">
        <ele>86</ele>
        <time>2016-04-24T08:11:18Z</time>
      </trkpt>
      <trkpt lat="47.35666" lon="-1.88926">
        <ele>86</ele>
        <time>2016-04-24T08:11:19Z</time>
      </trkpt>
      <trkpt lat="47.3567" lon="-1.88923">
        <ele>86</ele>
        <time>2016-04-24T08:11:20Z</time>
      </trkpt>
      <trkpt lat="47.35674" lon="-1.8893">
        <ele>85</ele>
        <time>2016-04-24T08:11:21Z</time>
      </trkpt>
      <trkpt lat="47.35678" lon="-1.88932">
        <ele>85</ele>
        <time>2016-04-24T08:11:22Z</time>
      </trkpt>
      <trkpt lat="47.35682" lon="-1.88934">
        <ele>85</ele>
        <time>2016-04-24T08:11:23Z</time>
      </trkpt>
      <trkpt lat="47.35687" lon="-1.88936">
        <ele>85</ele>
        <time>2016-04-24T08:11:24Z</time>
      </trkpt>
      <trkpt lat="47.35691" lon="-1.88936">
        <ele>85</ele>
        <time>2016-04-24T08:11:25Z</time>
      </trkpt>
      <trkpt lat="47.35695" lon="-1.88936">
        <ele>85</ele>
        <time>2016-04-24T08:11:26Z</time>
      </trkpt>
      <trkpt lat="47.35699" lon="-1.88934">
        <ele>85</ele>
        <time>2016-04-24T08:11:27Z</time>
      </trkpt>
      <trkpt lat="47.35703" lon="-1.88931">
        <ele>85</ele>
        <time>2016-04-24T08:11:28Z</time>
      </trkpt>
      <trkpt lat="47.35707" lon="-1.88928">
        <ele>85</ele>
        <time>2016-04-24T08:11:29Z</time>
      </trkpt>
      <trkpt lat="47.35712" lon="-1.88924">
        <ele>85</ele>
        <time>2016-04-24T08:11:30Z</time>
      </trkpt>
      <trkpt lat="47.35717" lon="-1.88919">
        <ele>85</ele>
        <time>2016-04-24T08:11:31Z</time>
      </trkpt>
      <trkpt lat="47.3572" lon="-1.88913">
        <ele>85</ele>
        <time>2016-04-24T08:11:32Z</time>
      </trkpt>
      <trkpt lat="47.35724" lon="-1.88907">
        <ele>85</ele>
        <time>2016-04-24T08:11:33Z</time>
      </trkpt>
      <trkpt lat="47.35726" lon="-1.88901">
        <ele>85</ele>
        <time>2016-04-24T08:11:34Z</time>
      </trkpt>
      <trkpt lat="47.35729" lon="-1.88893">
        <ele>85</ele>
        <time>2016-04-24T08:11:35Z</time>
      </trkpt>
      <trkpt lat="47.35731" lon="-1.88885">
        <ele>86</ele>
        <time>2016-04-24T08:11:36Z</time>
      </trkpt>
      <trkpt lat="47.35734" lon="-1.88877">
        <ele>86</ele>
        <time>2016-04-24T08:11:37Z</time>
      </trkpt>
      <trkpt lat="47.35736" lon="-1.88868">
        <ele>86</ele>
        <time>2016-04-24T08:11:38Z</time>
      </trkpt>
      <trkpt lat="47.35737" lon="-1.88858">
        <ele>86</ele>
        <time>2016-04-24T08:11:39Z</time>
      </trkpt>
      <trkpt lat="47.35737" lon="-1.88849">
        <ele>86</ele>
        <time>2016-04-24T08:11:40Z</time>
      </trkpt>
      <trkpt lat="47.35737" lon="-1.88839">
        <ele>86</ele>
        <time>2016-04-24T08:11:41Z</time>
      </trkpt>
      <trkpt lat="47.35737" lon="-1.8883">
        <ele>87</ele>
        <time>2016-04-24T08:11:42Z</time>
      </trkpt>
      <trkpt lat="47.35736" lon="-1.88821">
        <ele>87</ele>
        <time>2016-04-24T08:11:43Z</time>
      </trkpt>
      <trkpt lat="47.35736" lon="-1.88812">
        <ele>87</ele>
        <time>2016-04-24T08:11:44Z</time>
      </trkpt>
      <trkpt lat="47.35736" lon="-1.88804">
        <ele>87</ele>
        <time>2016-04-24T08:11:45Z</time>
      </trkpt>
      <trkpt lat="47.35737" lon="-1.88795">
        <ele>86</ele>
        <time>2016-04-24T08:11:46Z</time>
      </trkpt>
      <trkpt lat="47.35739" lon="-1.88788">
        <ele>86</ele>
        <time>2016-04-24T08:11:47Z</time>
      </trkpt>
      <trkpt lat="47.35741" lon="-1.88783">
        <ele>87</ele>
        <time>2016-04-24T08:11:48Z</time>
      </trkpt>
      <trkpt lat="47.35747" lon="-1.88777">
        <ele>87</ele>
        <time>2016-04-24T08:11:49Z</time>
      </trkpt>
      <trkpt lat="47.35752" lon="-1.88773">
        <ele>87</ele>
        <time>2016-04-24T08:11:50Z</time>
      </trkpt>
      <trkpt lat="47.35758" lon="-1.88769">
        <ele>87</ele>
        <time>2016-04-24T08:11:51Z</time>
      </trkpt>
      <trkpt lat="47.35763" lon="-1.88766">
        <ele>87</ele>
        <time>2016-04-24T08:11:52Z</time>
      </trkpt>
      <trkpt lat="47.35768" lon="-1.88763">
        <ele>87</ele>
        <time>2016-04-24T08:11:53Z</time>
      </trkpt>
      <trkpt lat="47.35773" lon="-1.8876">
        <ele>86</ele>
        <time>2016-04-24T08:11:54Z</time>
      </trkpt>
      <trkpt lat="47.35779" lon="-1.88756">
        <ele>86</ele>
        <time>2016-04-24T08:11:55Z</time>
      </trkpt>
      <trkpt lat="47.35786" lon="-1.88751">
        <ele>86</ele>
        <time>2016-04-24T08:11:56Z</time>
      </trkpt>
      <trkpt lat="47.3579" lon="-1.88749">
        <ele>86</ele>
        <time>2016-04-24T08:11:57Z</time>
      </trkpt>
      <trkpt lat="47.35795" lon="-1.88747">
        <ele>86</ele>
        <time>2016-04-24T08:11:58Z</time>
      </trkpt>
      <trkpt lat="47.35801" lon="-1.88742">
        <ele>86</ele>
        <time>2016-04-24T08:11:59Z</time>
      </trkpt>
      <trkpt lat="47.35807" lon="-1.88739">
        <ele>86</ele>
        <time>2016-04-24T08:12:00Z</time>
      </trkpt>
      <trkpt lat="47.35811" lon="-1.88738">
        <ele>86</ele>
        <time>2016-04-24T08:12:01Z</time>
      </trkpt>
      <trkpt lat="47.35816" lon="-1.88733">
        <ele>85</ele>
        <time>2016-04-24T08:12:02Z</time>
      </trkpt>
      <trkpt lat="47.35821" lon="-1.88731">
        <ele>85</ele>
        <time>2016-04-24T08:12:03Z</time>
      </trkpt>
      <trkpt lat="47.35825" lon="-1.88729">
        <ele>85</ele>
        <time>2016-04-24T08:12:04Z</time>
      </trkpt>
      <trkpt lat="47.3583" lon="-1.88724">
        <ele>85</ele>
        <time>2016-04-24T08:12:05Z</time>
      </trkpt>
      <trkpt lat="47.35837" lon="-1.8872">
        <ele>85</ele>
        <time>2016-04-24T08:12:06Z</time>
      </trkpt>
      <trkpt lat="47.35842" lon="-1.88718">
        <ele>85</ele>
        <time>2016-04-24T08:12:07Z</time>
      </trkpt>
      <trkpt lat="47.35846" lon="-1.88715">
        <ele>85</ele>
        <time>2016-04-24T08:12:08Z</time>
      </trkpt>
      <trkpt lat="47.35853" lon="-1.88711">
        <ele>85</ele>
        <time>2016-04-24T08:12:09Z</time>
      </trkpt>
      <trkpt lat="47.35859" lon="-1.88706">
        <ele>85</ele>
        <time>2016-04-24T08:12:10Z</time>
      </trkpt>
      <trkpt lat="47.35864" lon="-1.88706">
        <ele>85</ele>
        <time>2016-04-24T08:12:11Z</time>
      </trkpt>
      <trkpt lat="47.3587" lon="-1.88702">
        <ele>85</ele>
        <time>2016-04-24T08:12:12Z</time>
      </trkpt>
      <trkpt lat="47.35874" lon="-1.88699">
        <ele>85</ele>
        <time>2016-04-24T08:12:13Z</time>
      </trkpt>
      <trkpt lat="47.35879" lon="-1.88697">
        <ele>86</ele>
        <time>2016-04-24T08:12:14Z</time>
      </trkpt>
      <trkpt lat="47.35884" lon="-1.88694">
        <ele>86</ele>
        <time>2016-04-24T08:12:15Z</time>
      </trkpt>
      <trkpt lat="47.3589" lon="-1.8869">
        <ele>86</ele>
        <time>2016-04-24T08:12:16Z</time>
      </trkpt>
      <trkpt lat="47.35895" lon="-1.88688">
        <ele>86</ele>
        <time>2016-04-24T08:12:17Z</time>
      </trkpt>
      <trkpt lat="47.359" lon="-1.88684">
        <ele>86</ele>
        <time>2016-04-24T08:12:18Z</time>
      </trkpt>
      <trkpt lat="47.35906" lon="-1.88681">
        <ele>86</ele>
        <time>2016-04-24T08:12:19Z</time>
      </trkpt>
      <trkpt lat="47.35912" lon="-1.88677">
        <ele>86</ele>
        <time>2016-04-24T08:12:20Z</time>
      </trkpt>
      <trkpt lat="47.35917" lon="-1.88673">
        <ele>86</ele>
        <time>2016-04-24T08:12:21Z</time>
      </trkpt>
      <trkpt lat="47.35923" lon="-1.8867">
        <ele>86</ele>
        <time>2016-04-24T08:12:22Z</time>
      </trkpt>
      <trkpt lat="47.35929" lon="-1.88666">
        <ele>85</ele>
        <time>2016-04-24T08:12:23Z</time>
      </trkpt>
      <trkpt lat="47.35934" lon="-1.88663">
        <ele>85</ele>
        <time>2016-04-24T08:12:24Z</time>
      </trkpt>
      <trkpt lat="47.35939" lon="-1.8866">
        <ele>85</ele>
        <time>2016-04-24T08:12:25Z</time>
      </trkpt>
      <trkpt lat="47.35945" lon="-1.88656">
        <ele>85</ele>
        <time>2016-04-24T08:12:26Z</time>
      </trkpt>
      <trkpt lat="47.35949" lon="-1.88654">
        <ele>85</ele>
        <time>2016-04-24T08:12:27Z</time>
      </trkpt>
      <trkpt lat="47.35954" lon="-1.88651">
        <ele>85</ele>
        <time>2016-04-24T08:12:28Z</time>
      </trkpt>
      <trkpt lat="47.35961" lon="-1.88649">
        <ele>85</ele>
        <time>2016-04-24T08:12:29Z</time>
      </trkpt>
      <trkpt lat="47.35965" lon="-1.88647">
        <ele>85</ele>
        <time>2016-04-24T08:12:30Z</time>
      </trkpt>
      <trkpt lat="47.3597" lon="-1.88643">
        <ele>84</ele>
        <time>2016-04-24T08:12:31Z</time>
      </trkpt>
      <trkpt lat="47.35976" lon="-1.88638">
        <ele>84</ele>
        <time>2016-04-24T08:12:32Z</time>
      </trkpt>
      <trkpt lat="47.35981" lon="-1.88635">
        <ele>84</ele>
        <time>2016-04-24T08:12:33Z</time>
      </trkpt>
      <trkpt lat="47.35989" lon="-1.88633">
        <ele>84</ele>
        <time>2016-04-24T08:12:34Z</time>
      </trkpt>
      <trkpt lat="47.35994" lon="-1.88629">
        <ele>84</ele>
        <time>2016-04-24T08:12:35Z</time>
      </trkpt>
      <trkpt lat="47.35999" lon="-1.88628">
        <ele>84</ele>
        <time>2016-04-24T08:12:36Z</time>
      </trkpt>
      <trkpt lat="47.36006" lon="-1.88624">
        <ele>84</ele>
        <time>2016-04-24T08:12:37Z</time>
      </trkpt>
      <trkpt lat="47.3601" lon="-1.88621">
        <ele>84</ele>
        <time>2016-04-24T08:12:38Z</time>
      </trkpt>
      <trkpt lat="47.36016" lon="-1.88619">
        <ele>84</ele>
        <time>2016-04-24T08:12:39Z</time>
      </trkpt>
      <trkpt lat="47.36022" lon="-1.88615">
        <ele>84</ele>
        <time>2016-04-24T08:12:40Z</time>
      </trkpt>
      <trkpt lat="47.36028" lon="-1.88611">
        <ele>84</ele>
        <time>2016-04-24T08:12:41Z</time>
      </trkpt>
      <trkpt lat="47.36035" lon="-1.88607">
        <ele>84</ele>
        <time>2016-04-24T08:12:42Z</time>
      </trkpt>
      <trkpt lat="47.3604" lon="-1.88603">
        <ele>84</ele>
        <time>2016-04-24T08:12:43Z</time>
      </trkpt>
      <trkpt lat="47.36046" lon="-1.88599">
        <ele>83</ele>
        <time>2016-04-24T08:12:44Z</time>
      </trkpt>
      <trkpt lat="47.36051" lon="-1.88596">
        <ele>83</ele>
        <time>2016-04-24T08:12:45Z</time>
      </trkpt>
      <trkpt lat="47.36057" lon="-1.88593">
        <ele>83</ele>
        <time>2016-04-24T08:12:46Z</time>
      </trkpt>
      <trkpt lat="47.36063" lon="-1.88588">
        <ele>83</ele>
        <time>2016-04-24T08:12:47Z</time>
      </trkpt>
      <trkpt lat="47.36068" lon="-1.88586">
        <ele>83</ele>
        <time>2016-04-24T08:12:48Z</time>
      </trkpt>
      <trkpt lat="47.36074" lon="-1.88583">
        <ele>83</ele>
        <time>2016-04-24T08:12:49Z</time>
      </trkpt>
      <trkpt lat="47.3608" lon="-1.88579">
        <ele>83</ele>
        <time>2016-04-24T08:12:50Z</time>
      </trkpt>
      <trkpt lat="47.36086" lon="-1.88575">
        <ele>83</ele>
        <time>2016-04-24T08:12:51Z</time>
      </trkpt>
      <trkpt lat="47.36092" lon="-1.8857">
        <ele>82</ele>
        <time>2016-04-24T08:12:52Z</time>
      </trkpt>
      <trkpt lat="47.36098" lon="-1.88566">
        <ele>82</ele>
        <time>2016-04-24T08:12:53Z</time>
      </trkpt>
      <trkpt lat="47.36105" lon="-1.88562">
        <ele>82</ele>
        <time>2016-04-24T08:12:54Z</time>
      </trkpt>
      <trkpt lat="47.36111" lon="-1.88558">
        <ele>82</ele>
        <time>2016-04-24T08:12:55Z</time>
      </trkpt>
      <trkpt lat="47.36116" lon="-1.88554">
        <ele>82</ele>
        <time>2016-04-24T08:12:56Z</time>
      </trkpt>
      <trkpt lat="47.36123" lon="-1.8855">
        <ele>82</ele>
        <time>2016-04-24T08:12:57Z</time>
      </trkpt>
      <trkpt lat="47.36127" lon="-1.88549">
        <ele>82</ele>
        <time>2016-04-24T08:12:58Z</time>
      </trkpt>
      <trkpt lat="47.36133" lon="-1.88546">
        <ele>81</ele>
        <time>2016-04-24T08:12:59Z</time>
      </trkpt>
      <trkpt lat="47.36139" lon="-1.88544">
        <ele>81</ele>
        <time>2016-04-24T08:13:00Z</time>
      </trkpt>
      <trkpt lat="47.36145" lon="-1.8854">
        <ele>81</ele>
        <time>2016-04-24T08:13:01Z</time>
      </trkpt>
      <trkpt lat="47.3615" lon="-1.88537">
        <ele>81</ele>
        <time>2016-04-24T08:13:02Z</time>
      </trkpt>
      <trkpt lat="47.36157" lon="-1.88533">
        <ele>81</ele>
        <time>2016-04-24T08:13:03Z</time>
      </trkpt>
      <trkpt lat="47.36163" lon="-1.88529">
        <ele>81</ele>
        <time>2016-04-24T08:13:04Z</time>
      </trkpt>
      <trkpt lat="47.36169" lon="-1.88526">
        <ele>81</ele>
        <time>2016-04-24T08:13:05Z</time>
      </trkpt>
      <trkpt lat="47.36174" lon="-1.88523">
        <ele>81</ele>
        <time>2016-04-24T08:13:06Z</time>
      </trkpt>
      <trkpt lat="47.36182" lon="-1.8852">
        <ele>81</ele>
        <time>2016-04-24T08:13:07Z</time>
      </trkpt>
      <trkpt lat="47.36189" lon="-1.88516">
        <ele>81</ele>
        <time>2016-04-24T08:13:08Z</time>
      </trkpt>
      <trkpt lat="47.36195" lon="-1.88513">
        <ele>81</ele>
        <time>2016-04-24T08:13:09Z</time>
      </trkpt>
      <trkpt lat="47.36202" lon="-1.88507">
        <ele>81</ele>
        <time>2016-04-24T08:13:10Z</time>
      </trkpt>
      <trkpt lat="47.36209" lon="-1.88502">
        <ele>81</ele>
        <time>2016-04-24T08:13:11Z</time>
      </trkpt>
      <trkpt lat="47.36216" lon="-1.88497">
        <ele>81</ele>
        <time>2016-04-24T08:13:12Z</time>
      </trkpt>
      <trkpt lat="47.36223" lon="-1.88493">
        <ele>81</ele>
        <time>2016-04-24T08:13:13Z</time>
      </trkpt>
      <trkpt lat="47.3623" lon="-1.88488">
        <ele>81</ele>
        <time>2016-04-24T08:13:14Z</time>
      </trkpt>
      <trkpt lat="47.36237" lon="-1.88484">
        <ele>81</ele>
        <time>2016-04-24T08:13:15Z</time>
      </trkpt>
      <trkpt lat="47.36243" lon="-1.88481">
        <ele>81</ele>
        <time>2016-04-24T08:13:16Z</time>
      </trkpt>
      <trkpt lat="47.3625" lon="-1.88477">
        <ele>81</ele>
        <time>2016-04-24T08:13:17Z</time>
      </trkpt>
      <trkpt lat="47.36256" lon="-1.88473">
        <ele>80</ele>
        <time>2016-04-24T08:13:18Z</time>
      </trkpt>
      <trkpt lat="47.36263" lon="-1.88469">
        <ele>80</ele>
        <time>2016-04-24T08:13:19Z</time>
      </trkpt>
      <trkpt lat="47.3627" lon="-1.88466">
        <ele>80</ele>
        <time>2016-04-24T08:13:20Z</time>
      </trkpt>
      <trkpt lat="47.36276" lon="-1.88462">
        <ele>80</ele>
        <time>2016-04-24T08:13:21Z</time>
      </trkpt>
      <trkpt lat="47.36282" lon="-1.88458">
        <ele>80</ele>
        <time>2016-04-24T08:13:22Z</time>
      </trkpt>
      <trkpt lat="47.36288" lon="-1.88455">
        <ele>80</ele>
        <time>2016-04-24T08:13:23Z</time>
      </trkpt>
      <trkpt lat="47.36296" lon="-1.88449">
        <ele>79</ele>
        <time>2016-04-24T08:13:24Z</time>
      </trkpt>
      <trkpt lat="47.36301" lon="-1.88447">
        <ele>79</ele>
        <time>2016-04-24T08:13:25Z</time>
      </trkpt>
      <trkpt lat="47.36305" lon="-1.88445">
        <ele>79</ele>
        <time>2016-04-24T08:13:26Z</time>
      </trkpt>
      <trkpt lat="47.36311" lon="-1.88442">
        <ele>79</ele>
        <time>2016-04-24T08:13:27Z</time>
      </trkpt>
      <trkpt lat="47.36317" lon="-1.88439">
        <ele>79</ele>
        <time>2016-04-24T08:13:28Z</time>
      </trkpt>
      <trkpt lat="47.36324" lon="-1.88436">
        <ele>79</ele>
        <time>2016-04-24T08:13:29Z</time>
      </trkpt>
      <trkpt lat="47.36329" lon="-1.88432">
        <ele>79</ele>
        <time>2016-04-24T08:13:30Z</time>
      </trkpt>
      <trkpt lat="47.36337" lon="-1.88427">
        <ele>78</ele>
        <time>2016-04-24T08:13:31Z</time>
      </trkpt>
      <trkpt lat="47.36343" lon="-1.88424">
        <ele>78</ele>
        <time>2016-04-24T08:13:32Z</time>
      </trkpt>
      <trkpt lat="47.36349" lon="-1.8842">
        <ele>79</ele>
        <time>2016-04-24T08:13:33Z</time>
      </trkpt>
      <trkpt lat="47.36358" lon="-1.88414">
        <ele>78</ele>
        <time>2016-04-24T08:13:34Z</time>
      </trkpt>
      <trkpt lat="47.36364" lon="-1.88411">
        <ele>78</ele>
        <time>2016-04-24T08:13:35Z</time>
      </trkpt>
      <trkpt lat="47.36372" lon="-1.88406">
        <ele>78</ele>
        <time>2016-04-24T08:13:36Z</time>
      </trkpt>
      <trkpt lat="47.36379" lon="-1.88401">
        <ele>78</ele>
        <time>2016-04-24T08:13:37Z</time>
      </trkpt>
      <trkpt lat="47.36383" lon="-1.88399">
        <ele>78</ele>
        <time>2016-04-24T08:13:38Z</time>
      </trkpt>
      <trkpt lat="47.36389" lon="-1.88396">
        <ele>78</ele>
        <time>2016-04-24T08:13:39Z</time>
      </trkpt>
      <trkpt lat="47.36394" lon="-1.88393">
        <ele>78</ele>
        <time>2016-04-24T08:13:40Z</time>
      </trkpt>
      <trkpt lat="47.364" lon="-1.88389">
        <ele>78</ele>
        <time>2016-04-24T08:13:41Z</time>
      </trkpt>
      <trkpt lat="47.36404" lon="-1.88386">
        <ele>78</ele>
        <time>2016-04-24T08:13:42Z</time>
      </trkpt>
      <trkpt lat="47.36409" lon="-1.88382">
        <ele>78</ele>
        <time>2016-04-24T08:13:43Z</time>
      </trkpt>
      <trkpt lat="47.36414" lon="-1.88378">
        <ele>78</ele>
        <time>2016-04-24T08:13:44Z</time>
      </trkpt>
      <trkpt lat="47.36418" lon="-1.88376">
        <ele>78</ele>
        <time>2016-04-24T08:13:45Z</time>
      </trkpt>
      <trkpt lat="47.36422" lon="-1.88375">
        <ele>78</ele>
        <time>2016-04-24T08:13:46Z</time>
      </trkpt>
      <trkpt lat="47.36429" lon="-1.8837">
        <ele>78</ele>
        <time>2016-04-24T08:13:47Z</time>
      </trkpt>
      <trkpt lat="47.36436" lon="-1.88366">
        <ele>78</ele>
        <time>2016-04-24T08:13:48Z</time>
      </trkpt>
      <trkpt lat="47.36442" lon="-1.88362">
        <ele>78</ele>
        <time>2016-04-24T08:13:49Z</time>
      </trkpt>
      <trkpt lat="47.36447" lon="-1.88359">
        <ele>78</ele>
        <time>2016-04-24T08:13:50Z</time>
      </trkpt>
      <trkpt lat="47.36452" lon="-1.88357">
        <ele>78</ele>
        <time>2016-04-24T08:13:51Z</time>
      </trkpt>
      <trkpt lat="47.36457" lon="-1.88352">
        <ele>78</ele>
        <time>2016-04-24T08:13:52Z</time>
      </trkpt>
      <trkpt lat="47.3646" lon="-1.8835">
        <ele>78</ele>
        <time>2016-04-24T08:13:53Z</time>
      </trkpt>
      <trkpt lat="47.36465" lon="-1.88347">
        <ele>78</ele>
        <time>2016-04-24T08:13:54Z</time>
      </trkpt>
      <trkpt lat="47.36469" lon="-1.88349">
        <ele>78</ele>
        <time>2016-04-24T08:13:55Z</time>
      </trkpt>
      <trkpt lat="47.36474" lon="-1.88344">
        <ele>78</ele>
        <time>2016-04-24T08:13:56Z</time>
      </trkpt>
      <trkpt lat="47.36481" lon="-1.88339">
        <ele>78</ele>
        <time>2016-04-24T08:13:57Z</time>
      </trkpt>
      <trkpt lat="47.3649" lon="-1.88333">
        <ele>77</ele>
        <time>2016-04-24T08:13:58Z</time>
      </trkpt>
      <trkpt lat="47.36498" lon="-1.88327">
        <ele>77</ele>
        <time>2016-04-24T08:13:59Z</time>
      </trkpt>
      <trkpt lat="47.36506" lon="-1.88322">
        <ele>77</ele>
        <time>2016-04-24T08:14:00Z</time>
      </trkpt>
      <trkpt lat="47.36509" lon="-1.88322">
        <ele>77</ele>
        <time>2016-04-24T08:14:01Z</time>
      </trkpt>
      <trkpt lat="47.36515" lon="-1.88319">
        <ele>76</ele>
        <time>2016-04-24T08:14:02Z</time>
      </trkpt>
      <trkpt lat="47.36521" lon="-1.88317">
        <ele>76</ele>
        <time>2016-04-24T08:14:03Z</time>
      </trkpt>
      <trkpt lat="47.36524" lon="-1.88315">
        <ele>76</ele>
        <time>2016-04-24T08:14:04Z</time>
      </trkpt>
      <trkpt lat="47.36529" lon="-1.88312">
        <ele>76</ele>
        <time>2016-04-24T08:14:05Z</time>
      </trkpt>
      <trkpt lat="47.36535" lon="-1.88309">
        <ele>76</ele>
        <time>2016-04-24T08:14:06Z</time>
      </trkpt>
      <trkpt lat="47.36542" lon="-1.88304">
        <ele>76</ele>
        <time>2016-04-24T08:14:07Z</time>
      </trkpt>
      <trkpt lat="47.36548" lon="-1.88301">
        <ele>76</ele>
        <time>2016-04-24T08:14:08Z</time>
      </trkpt>
      <trkpt lat="47.36552" lon="-1.88298">
        <ele>76</ele>
        <time>2016-04-24T08:14:09Z</time>
      </trkpt>
      <trkpt lat="47.36557" lon="-1.88296">
        <ele>76</ele>
        <time>2016-04-24T08:14:10Z</time>
      </trkpt>
      <trkpt lat="47.36563" lon="-1.88292">
        <ele>76</ele>
        <time>2016-04-24T08:14:11Z</time>
      </trkpt>
      <trkpt lat="47.36567" lon="-1.88291">
        <ele>76</ele>
        <time>2016-04-24T08:14:12Z</time>
      </trkpt>
      <trkpt lat="47.36574" lon="-1.88288">
        <ele>76</ele>
        <time>2016-04-24T08:14:13Z</time>
      </trkpt>
      <trkpt lat="47.36581" lon="-1.88285">
        <ele>76</ele>
        <time>2016-04-24T08:14:14Z</time>
      </trkpt>
      <trkpt lat="47.36587" lon="-1.8828">
        <ele>76</ele>
        <time>2016-04-24T08:14:15Z</time>
      </trkpt>
      <trkpt lat="47.36594" lon="-1.88275">
        <ele>76</ele>
        <time>2016-04-24T08:14:16Z</time>
      </trkpt>
      <trkpt lat="47.36599" lon="-1.88273">
        <ele>76</ele>
        <time>2016-04-24T08:14:17Z</time>
      </trkpt>
      <trkpt lat="47.36608" lon="-1.88268">
        <ele>76</ele>
        <time>2016-04-24T08:14:18Z</time>
      </trkpt>
      <trkpt lat="47.36615" lon="-1.8826">
        <ele>76</ele>
        <time>2016-04-24T08:14:19Z</time>
      </trkpt>
      <trkpt lat="47.36625" lon="-1.88252">
        <ele>76</ele>
        <time>2016-04-24T08:14:20Z</time>
      </trkpt>
      <trkpt lat="47.36633" lon="-1.88249">
        <ele>75</ele>
        <time>2016-04-24T08:14:21Z</time>
      </trkpt>
      <trkpt lat="47.36638" lon="-1.88246">
        <ele>75</ele>
        <time>2016-04-24T08:14:22Z</time>
      </trkpt>
      <trkpt lat="47.36644" lon="-1.88243">
        <ele>75</ele>
        <time>2016-04-24T08:14:23Z</time>
      </trkpt>
      <trkpt lat="47.3665" lon="-1.88242">
        <ele>75</ele>
        <time>2016-04-24T08:14:24Z</time>
      </trkpt>
      <trkpt lat="47.36658" lon="-1.88235">
        <ele>75</ele>
        <time>2016-04-24T08:14:25Z</time>
      </trkpt>
      <trkpt lat="47.36665" lon="-1.88231">
        <ele>75</ele>
        <time>2016-04-24T08:14:26Z</time>
      </trkpt>
      <trkpt lat="47.36671" lon="-1.88229">
        <ele>76</ele>
        <time>2016-04-24T08:14:27Z</time>
      </trkpt>
      <trkpt lat="47.36676" lon="-1.88229">
        <ele>76</ele>
        <time>2016-04-24T08:14:28Z</time>
      </trkpt>
      <trkpt lat="47.36682" lon="-1.88226">
        <ele>76</ele>
        <time>2016-04-24T08:14:29Z</time>
      </trkpt>
      <trkpt lat="47.36687" lon="-1.88223">
        <ele>76</ele>
        <time>2016-04-24T08:14:30Z</time>
      </trkpt>
      <trkpt lat="47.36691" lon="-1.88219">
        <ele>76</ele>
        <time>2016-04-24T08:14:31Z</time>
      </trkpt>
      <trkpt lat="47.36695" lon="-1.88217">
        <ele>76</ele>
        <time>2016-04-24T08:14:32Z</time>
      </trkpt>
      <trkpt lat="47.36698" lon="-1.88213">
        <ele>76</ele>
        <time>2016-04-24T08:14:33Z</time>
      </trkpt>
      <trkpt lat="47.36702" lon="-1.8821">
        <ele>76</ele>
        <time>2016-04-24T08:14:34Z</time>
      </trkpt>
      <trkpt lat="47.36709" lon="-1.88203">
        <ele>76</ele>
        <time>2016-04-24T08:14:35Z</time>
      </trkpt>
      <trkpt lat="47.36712" lon="-1.88198">
        <ele>76</ele>
        <time>2016-04-24T08:14:36Z</time>
      </trkpt>
      <trkpt lat="47.36717" lon="-1.88192">
        <ele>76</ele>
        <time>2016-04-24T08:14:37Z</time>
      </trkpt>
      <trkpt lat="47.36721" lon="-1.88187">
        <ele>76</ele>
        <time>2016-04-24T08:14:38Z</time>
      </trkpt>
      <trkpt lat="47.36724" lon="-1.88183">
        <ele>76</ele>
        <time>2016-04-24T08:14:39Z</time>
      </trkpt>
      <trkpt lat="47.3673" lon="-1.88177">
        <ele>76</ele>
        <time>2016-04-24T08:14:40Z</time>
      </trkpt>
      <trkpt lat="47.36734" lon="-1.88172">
        <ele>76</ele>
        <time>2016-04-24T08:14:41Z</time>
      </trkpt>
      <trkpt lat="47.36739" lon="-1.88167">
        <ele>76</ele>
        <time>2016-04-24T08:14:42Z</time>
      </trkpt>
      <trkpt lat="47.36744" lon="-1.88162">
        <ele>76</ele>
        <time>2016-04-24T08:14:43Z</time>
      </trkpt>
      <trkpt lat="47.36748" lon="-1.88157">
        <ele>76</ele>
        <time>2016-04-24T08:14:44Z</time>
      </trkpt>
      <trkpt lat="47.36753" lon="-1.88151">
        <ele>77</ele>
        <time>2016-04-24T08:14:45Z</time>
      </trkpt>
      <trkpt lat="47.36757" lon="-1.88146">
        <ele>77</ele>
        <time>2016-04-24T08:14:46Z</time>
      </trkpt>
      <trkpt lat="47.3676" lon="-1.88139">
        <ele>77</ele>
        <time>2016-04-24T08:14:47Z</time>
      </trkpt>
      <trkpt lat="47.36763" lon="-1.88132">
        <ele>77</ele>
        <time>2016-04-24T08:14:48Z</time>
      </trkpt>
      <trkpt lat="47.36765" lon="-1.88125">
        <ele>77</ele>
        <time>2016-04-24T08:14:49Z</time>
      </trkpt>
      <trkpt lat="47.3677" lon="-1.88119">
        <ele>77</ele>
        <time>2016-04-24T08:14:50Z</time>
      </trkpt>
      <trkpt lat="47.36773" lon="-1.88113">
        <ele>78</ele>
        <time>2016-04-24T08:14:51Z</time>
      </trkpt>
      <trkpt lat="47.36775" lon="-1.88105">
        <ele>78</ele>
        <time>2016-04-24T08:14:52Z</time>
      </trkpt>
      <trkpt lat="47.36779" lon="-1.88099">
        <ele>78</ele>
        <time>2016-04-24T08:14:53Z</time>
      </trkpt>
      <trkpt lat="47.36782" lon="-1.88092">
        <ele>78</ele>
        <time>2016-04-24T08:14:54Z</time>
      </trkpt>
      <trkpt lat="47.36783" lon="-1.88086">
        <ele>78</ele>
        <time>2016-04-24T08:14:55Z</time>
      </trkpt>
      <trkpt lat="47.36786" lon="-1.8808">
        <ele>78</ele>
        <time>2016-04-24T08:14:56Z</time>
      </trkpt>
      <trkpt lat="47.36788" lon="-1.88076">
        <ele>78</ele>
        <time>2016-04-24T08:14:57Z</time>
      </trkpt>
      <trkpt lat="47.36791" lon="-1.8807">
        <ele>78</ele>
        <time>2016-04-24T08:14:58Z</time>
      </trkpt>
      <trkpt lat="47.36795" lon="-1.88064">
        <ele>78</ele>
        <time>2016-04-24T08:14:59Z</time>
      </trkpt>
      <trkpt lat="47.36798" lon="-1.8806">
        <ele>78</ele>
        <time>2016-04-24T08:15:00Z</time>
      </trkpt>
      <trkpt lat="47.36803" lon="-1.88054">
        <ele>78</ele>
        <time>2016-04-24T08:15:01Z</time>
      </trkpt>
      <trkpt lat="47.36805" lon="-1.88048">
        <ele>78</ele>
        <time>2016-04-24T08:15:02Z</time>
      </trkpt>
      <trkpt lat="47.36808" lon="-1.88042">
        <ele>78</ele>
        <time>2016-04-24T08:15:03Z</time>
      </trkpt>
      <trkpt lat="47.36811" lon="-1.88038">
        <ele>78</ele>
        <time>2016-04-24T08:15:04Z</time>
      </trkpt>
      <trkpt lat="47.36814" lon="-1.88035">
        <ele>78</ele>
        <time>2016-04-24T08:15:05Z</time>
      </trkpt>
      <trkpt lat="47.36817" lon="-1.88031">
        <ele>78</ele>
        <time>2016-04-24T08:15:06Z</time>
      </trkpt>
      <trkpt lat="47.3682" lon="-1.88027">
        <ele>78</ele>
        <time>2016-04-24T08:15:07Z</time>
      </trkpt>
      <trkpt lat="47.36822" lon="-1.88024">
        <ele>78</ele>
        <time>2016-04-24T08:15:08Z</time>
      </trkpt>
      <trkpt lat="47.36825" lon="-1.8802">
        <ele>79</ele>
        <time>2016-04-24T08:15:09Z</time>
      </trkpt>
      <trkpt lat="47.36828" lon="-1.88016">
        <ele>79</ele>
        <time>2016-04-24T08:15:10Z</time>
      </trkpt>
      <trkpt lat="47.36833" lon="-1.88012">
        <ele>79</ele>
        <time>2016-04-24T08:15:11Z</time>
      </trkpt>
      <trkpt lat="47.36835" lon="-1.88008">
        <ele>79</ele>
        <time>2016-04-24T08:15:12Z</time>
      </trkpt>
      <trkpt lat="47.36839" lon="-1.88002">
        <ele>79</ele>
        <time>2016-04-24T08:15:13Z</time>
      </trkpt>
      <trkpt lat="47.36845" lon="-1.87996">
        <ele>79</ele>
        <time>2016-04-24T08:15:14Z</time>
      </trkpt>
      <trkpt lat="47.36848" lon="-1.87991">
        <ele>79</ele>
        <time>2016-04-24T08:15:15Z</time>
      </trkpt>
      <trkpt lat="47.36852" lon="-1.87985">
        <ele>80</ele>
        <time>2016-04-24T08:15:16Z</time>
      </trkpt>
      <trkpt lat="47.36855" lon="-1.87981">
        <ele>80</ele>
        <time>2016-04-24T08:15:17Z</time>
      </trkpt>
      <trkpt lat="47.36861" lon="-1.87976">
        <ele>80</ele>
        <time>2016-04-24T08:15:18Z</time>
      </trkpt>
      <trkpt lat="47.36862" lon="-1.87971">
        <ele>80</ele>
        <time>2016-04-24T08:15:19Z</time>
      </trkpt>
      <trkpt lat="47.36866" lon="-1.87967">
        <ele>80</ele>
        <time>2016-04-24T08:15:20Z</time>
      </trkpt>
      <trkpt lat="47.36869" lon="-1.87963">
        <ele>80</ele>
        <time>2016-04-24T08:15:21Z</time>
      </trkpt>
      <trkpt lat="47.36873" lon="-1.8796">
        <ele>80</ele>
        <time>2016-04-24T08:15:22Z</time>
      </trkpt>
      <trkpt lat="47.36877" lon="-1.87957">
        <ele>80</ele>
        <time>2016-04-24T08:15:23Z</time>
      </trkpt>
      <trkpt lat="47.36882" lon="-1.87952">
        <ele>80</ele>
        <time>2016-04-24T08:15:24Z</time>
      </trkpt>
      <trkpt lat="47.36885" lon="-1.87947">
        <ele>80</ele>
        <time>2016-04-24T08:15:25Z</time>
      </trkpt>
      <trkpt lat="47.36889" lon="-1.87941">
        <ele>80</ele>
        <time>2016-04-24T08:15:26Z</time>
      </trkpt>
      <trkpt lat="47.3689" lon="-1.87937">
        <ele>80</ele>
        <time>2016-04-24T08:15:27Z</time>
      </trkpt>
      <trkpt lat="47.36895" lon="-1.87931">
        <ele>80</ele>
        <time>2016-04-24T08:15:28Z</time>
      </trkpt>
      <trkpt lat="47.369" lon="-1.87925">
        <ele>80</ele>
        <time>2016-04-24T08:15:29Z</time>
      </trkpt>
      <trkpt lat="47.36905" lon="-1.87921">
        <ele>81</ele>
        <time>2016-04-24T08:15:30Z</time>
      </trkpt>
      <trkpt lat="47.36908" lon="-1.87917">
        <ele>81</ele>
        <time>2016-04-24T08:15:31Z</time>
      </trkpt>
      <trkpt lat="47.36911" lon="-1.8791">
        <ele>81</ele>
        <time>2016-04-24T08:15:32Z</time>
      </trkpt>
      <trkpt lat="47.36915" lon="-1.87906">
        <ele>81</ele>
        <time>2016-04-24T08:15:33Z</time>
      </trkpt>
      <trkpt lat="47.36918" lon="-1.87901">
        <ele>81</ele>
        <time>2016-04-24T08:15:34Z</time>
      </trkpt>
      <trkpt lat="47.36922" lon="-1.87895">
        <ele>81</ele>
        <time>2016-04-24T08:15:35Z</time>
      </trkpt>
      <trkpt lat="47.36926" lon="-1.87889">
        <ele>81</ele>
        <time>2016-04-24T08:15:36Z</time>
      </trkpt>
      <trkpt lat="47.36929" lon="-1.87883">
        <ele>81</ele>
        <time>2016-04-24T08:15:37Z</time>
      </trkpt>
      <trkpt lat="47.36933" lon="-1.87878">
        <ele>81</ele>
        <time>2016-04-24T08:15:38Z</time>
      </trkpt>
      <trkpt lat="47.36934" lon="-1.87873">
        <ele>81</ele>
        <time>2016-04-24T08:15:39Z</time>
      </trkpt>
      <trkpt lat="47.36937" lon="-1.87867">
        <ele>81</ele>
        <time>2016-04-24T08:15:40Z</time>
      </trkpt>
      <trkpt lat="47.36939" lon="-1.87861">
        <ele>81</ele>
        <time>2016-04-24T08:15:41Z</time>
      </trkpt>
      <trkpt lat="47.36942" lon="-1.87856">
        <ele>81</ele>
        <time>2016-04-24T08:15:42Z</time>
      </trkpt>
      <trkpt lat="47.36944" lon="-1.8785">
        <ele>81</ele>
        <time>2016-04-24T08:15:43Z</time>
      </trkpt>
      <trkpt lat="47.36947" lon="-1.87843">
        <ele>81</ele>
        <time>2016-04-24T08:15:44Z</time>
      </trkpt>
      <trkpt lat="47.3695" lon="-1.87838">
        <ele>81</ele>
        <time>2016-04-24T08:15:45Z</time>
      </trkpt>
      <trkpt lat="47.36952" lon="-1.87832">
        <ele>81</ele>
        <time>2016-04-24T08:15:46Z</time>
      </trkpt>
      <trkpt lat="47.36956" lon="-1.87825">
        <ele>81</ele>
        <time>2016-04-24T08:15:47Z</time>
      </trkpt>
      <trkpt lat="47.36958" lon="-1.8782">
        <ele>81</ele>
        <time>2016-04-24T08:15:48Z</time>
      </trkpt>
      <trkpt lat="47.36961" lon="-1.87814">
        <ele>81</ele>
        <time>2016-04-24T08:15:49Z</time>
      </trkpt>
      <trkpt lat="47.36965" lon="-1.87808">
        <ele>81</ele>
        <time>2016-04-24T08:15:50Z</time>
      </trkpt>
      <trkpt lat="47.36967" lon="-1.87801">
        <ele>81</ele>
        <time>2016-04-24T08:15:51Z</time>
      </trkpt>
      <trkpt lat="47.36969" lon="-1.87793">
        <ele>81</ele>
        <time>2016-04-24T08:15:52Z</time>
      </trkpt>
      <trkpt lat="47.36971" lon="-1.87787">
        <ele>81</ele>
        <time>2016-04-24T08:15:53Z</time>
      </trkpt>
      <trkpt lat="47.36973" lon="-1.87783">
        <ele>81</ele>
        <time>2016-04-24T08:15:54Z</time>
      </trkpt>
      <trkpt lat="47.36975" lon="-1.87778">
        <ele>81</ele>
        <time>2016-04-24T08:15:55Z</time>
      </trkpt>
      <trkpt lat="47.36978" lon="-1.87769">
        <ele>81</ele>
        <time>2016-04-24T08:15:56Z</time>
      </trkpt>
      <trkpt lat="47.36981" lon="-1.87762">
        <ele>80</ele>
        <time>2016-04-24T08:15:57Z</time>
      </trkpt>
      <trkpt lat="47.36983" lon="-1.87758">
        <ele>80</ele>
        <time>2016-04-24T08:15:58Z</time>
      </trkpt>
      <trkpt lat="47.36985" lon="-1.8775">
        <ele>80</ele>
        <time>2016-04-24T08:15:59Z</time>
      </trkpt>
      <trkpt lat="47.36987" lon="-1.87743">
        <ele>80</ele>
        <time>2016-04-24T08:16:00Z</time>
      </trkpt>
      <trkpt lat="47.36988" lon="-1.87735">
        <ele>80</ele>
        <time>2016-04-24T08:16:01Z</time>
      </trkpt>
      <trkpt lat="47.36989" lon="-1.87727">
        <ele>80</ele>
        <time>2016-04-24T08:16:02Z</time>
      </trkpt>
      <trkpt lat="47.36994" lon="-1.87719">
        <ele>81</ele>
        <time>2016-04-24T08:16:03Z</time>
      </trkpt>
      <trkpt lat="47.36995" lon="-1.87712">
        <ele>81</ele>
        <time>2016-04-24T08:16:04Z</time>
      </trkpt>
      <trkpt lat="47.36998" lon="-1.87705">
        <ele>81</ele>
        <time>2016-04-24T08:16:05Z</time>
      </trkpt>
      <trkpt lat="47.36999" lon="-1.87699">
        <ele>81</ele>
        <time>2016-04-24T08:16:06Z</time>
      </trkpt>
      <trkpt lat="47.37" lon="-1.87692">
        <ele>82</ele>
        <time>2016-04-24T08:16:07Z</time>
      </trkpt>
      <trkpt lat="47.37002" lon="-1.87682">
        <ele>82</ele>
        <time>2016-04-24T08:16:08Z</time>
      </trkpt>
      <trkpt lat="47.37003" lon="-1.87675">
        <ele>82</ele>
        <time>2016-04-24T08:16:09Z</time>
      </trkpt>
      <trkpt lat="47.37004" lon="-1.87669">
        <ele>82</ele>
        <time>2016-04-24T08:16:10Z</time>
      </trkpt>
      <trkpt lat="47.37006" lon="-1.87663">
        <ele>82</ele>
        <time>2016-04-24T08:16:11Z</time>
      </trkpt>
      <trkpt lat="47.3701" lon="-1.87657">
        <ele>82</ele>
        <time>2016-04-24T08:16:12Z</time>
      </trkpt>
      <trkpt lat="47.37012" lon="-1.8765">
        <ele>82</ele>
        <time>2016-04-24T08:16:13Z</time>
      </trkpt>
      <trkpt lat="47.37015" lon="-1.87646">
        <ele>82</ele>
        <time>2016-04-24T08:16:14Z</time>
      </trkpt>
      <trkpt lat="47.37018" lon="-1.87639">
        <ele>82</ele>
        <time>2016-04-24T08:16:15Z</time>
      </trkpt>
      <trkpt lat="47.37021" lon="-1.87634">
        <ele>82</ele>
        <time>2016-04-24T08:16:16Z</time>
      </trkpt>
      <trkpt lat="47.37024" lon="-1.87627">
        <ele>82</ele>
        <time>2016-04-24T08:16:17Z</time>
      </trkpt>
      <trkpt lat="47.37026" lon="-1.87621">
        <ele>82</ele>
        <time>2016-04-24T08:16:18Z</time>
      </trkpt>
      <trkpt lat="47.37029" lon="-1.87614">
        <ele>82</ele>
        <time>2016-04-24T08:16:19Z</time>
      </trkpt>
      <trkpt lat="47.37031" lon="-1.87607">
        <ele>82</ele>
        <time>2016-04-24T08:16:20Z</time>
      </trkpt>
      <trkpt lat="47.37034" lon="-1.87601">
        <ele>82</ele>
        <time>2016-04-24T08:16:21Z</time>
      </trkpt>
      <trkpt lat="47.37036" lon="-1.87595">
        <ele>82</ele>
        <time>2016-04-24T08:16:22Z</time>
      </trkpt>
      <trkpt lat="47.37037" lon="-1.87589">
        <ele>82</ele>
        <time>2016-04-24T08:16:23Z</time>
      </trkpt>
      <trkpt lat="47.37039" lon="-1.87583">
        <ele>81</ele>
        <time>2016-04-24T08:16:24Z</time>
      </trkpt>
      <trkpt lat="47.37041" lon="-1.87578">
        <ele>81</ele>
        <time>2016-04-24T08:16:25Z</time>
      </trkpt>
      <trkpt lat="47.37042" lon="-1.87571">
        <ele>81</ele>
        <time>2016-04-24T08:16:26Z</time>
      </trkpt>
      <trkpt lat="47.37043" lon="-1.87566">
        <ele>81</ele>
        <time>2016-04-24T08:16:27Z</time>
      </trkpt>
      <trkpt lat="47.37045" lon="-1.87559">
        <ele>81</ele>
        <time>2016-04-24T08:16:28Z</time>
      </trkpt>
      <trkpt lat="47.37047" lon="-1.87551">
        <ele>81</ele>
        <time>2016-04-24T08:16:29Z</time>
      </trkpt>
      <trkpt lat="47.37047" lon="-1.87545">
        <ele>81</ele>
        <time>2016-04-24T08:16:30Z</time>
      </trkpt>
      <trkpt lat="47.37051" lon="-1.87537">
        <ele>81</ele>
        <time>2016-04-24T08:16:31Z</time>
      </trkpt>
      <trkpt lat="47.37054" lon="-1.87529">
        <ele>81</ele>
        <time>2016-04-24T08:16:32Z</time>
      </trkpt>
      <trkpt lat="47.3706" lon="-1.8752">
        <ele>81</ele>
        <time>2016-04-24T08:16:33Z</time>
      </trkpt>
      <trkpt lat="47.37061" lon="-1.87515">
        <ele>81</ele>
        <time>2016-04-24T08:16:34Z</time>
      </trkpt>
      <trkpt lat="47.37064" lon="-1.87509">
        <ele>81</ele>
        <time>2016-04-24T08:16:35Z</time>
      </trkpt>
      <trkpt lat="47.37067" lon="-1.87501">
        <ele>81</ele>
        <time>2016-04-24T08:16:36Z</time>
      </trkpt>
      <trkpt lat="47.37067" lon="-1.87494">
        <ele>81</ele>
        <time>2016-04-24T08:16:37Z</time>
      </trkpt>
      <trkpt lat="47.37069" lon="-1.87488">
        <ele>81</ele>
        <time>2016-04-24T08:16:38Z</time>
      </trkpt>
      <trkpt lat="47.37071" lon="-1.8748">
        <ele>81</ele>
        <time>2016-04-24T08:16:39Z</time>
      </trkpt>
      <trkpt lat="47.37073" lon="-1.87472">
        <ele>81</ele>
        <time>2016-04-24T08:16:40Z</time>
      </trkpt>
      <trkpt lat="47.37074" lon="-1.87465">
        <ele>81</ele>
        <time>2016-04-24T08:16:41Z</time>
      </trkpt>
      <trkpt lat="47.37076" lon="-1.8746">
        <ele>81</ele>
        <time>2016-04-24T08:16:42Z</time>
      </trkpt>
      <trkpt lat="47.37077" lon="-1.87453">
        <ele>81</ele>
        <time>2016-04-24T08:16:43Z</time>
      </trkpt>
      <trkpt lat="47.37079" lon="-1.87446">
        <ele>81</ele>
        <time>2016-04-24T08:16:44Z</time>
      </trkpt>
      <trkpt lat="47.37079" lon="-1.87439">
        <ele>81</ele>
        <time>2016-04-24T08:16:45Z</time>
      </trkpt>
      <trkpt lat="47.37079" lon="-1.87433">
        <ele>81</ele>
        <time>2016-04-24T08:16:46Z</time>
      </trkpt>
      <trkpt lat="47.37079" lon="-1.87425">
        <ele>81</ele>
        <time>2016-04-24T08:16:47Z</time>
      </trkpt>
      <trkpt lat="47.37078" lon="-1.87418">
        <ele>81</ele>
        <time>2016-04-24T08:16:48Z</time>
      </trkpt>
      <trkpt lat="47.3708" lon="-1.8741">
        <ele>81</ele>
        <time>2016-04-24T08:16:49Z</time>
      </trkpt>
      <trkpt lat="47.3708" lon="-1.87402">
        <ele>81</ele>
        <time>2016-04-24T08:16:50Z</time>
      </trkpt>
      <trkpt lat="47.3708" lon="-1.87394">
        <ele>81</ele>
        <time>2016-04-24T08:16:51Z</time>
      </trkpt>
      <trkpt lat="47.37079" lon="-1.87384">
        <ele>81</ele>
        <time>2016-04-24T08:16:52Z</time>
      </trkpt>
      <trkpt lat="47.37077" lon="-1.87376">
        <ele>81</ele>
        <time>2016-04-24T08:16:53Z</time>
      </trkpt>
      <trkpt lat="47.37076" lon="-1.87369">
        <ele>81</ele>
        <time>2016-04-24T08:16:54Z</time>
      </trkpt>
      <trkpt lat="47.37074" lon="-1.8736">
        <ele>81</ele>
        <time>2016-04-24T08:16:55Z</time>
      </trkpt>
      <trkpt lat="47.37074" lon="-1.87352">
        <ele>81</ele>
        <time>2016-04-24T08:16:56Z</time>
      </trkpt>
      <trkpt lat="47.37071" lon="-1.87347">
        <ele>81</ele>
        <time>2016-04-24T08:16:57Z</time>
      </trkpt>
      <trkpt lat="47.37069" lon="-1.8734">
        <ele>81</ele>
        <time>2016-04-24T08:16:58Z</time>
      </trkpt>
      <trkpt lat="47.37065" lon="-1.87331">
        <ele>81</ele>
        <time>2016-04-24T08:16:59Z</time>
      </trkpt>
      <trkpt lat="47.37062" lon="-1.87324">
        <ele>81</ele>
        <time>2016-04-24T08:17:00Z</time>
      </trkpt>
      <trkpt lat="47.3706" lon="-1.87316">
        <ele>81</ele>
        <time>2016-04-24T08:17:01Z</time>
      </trkpt>
      <trkpt lat="47.37056" lon="-1.87308">
        <ele>81</ele>
        <time>2016-04-24T08:17:02Z</time>
      </trkpt>
      <trkpt lat="47.37052" lon="-1.87302">
        <ele>81</ele>
        <time>2016-04-24T08:17:03Z</time>
      </trkpt>
      <trkpt lat="47.37049" lon="-1.87297">
        <ele>81</ele>
        <time>2016-04-24T08:17:04Z</time>
      </trkpt>
      <trkpt lat="47.37046" lon="-1.87291">
        <ele>80</ele>
        <time>2016-04-24T08:17:05Z</time>
      </trkpt>
      <trkpt lat="47.37044" lon="-1.87286">
        <ele>80</ele>
        <time>2016-04-24T08:17:06Z</time>
      </trkpt>
      <trkpt lat="47.3704" lon="-1.87279">
        <ele>80</ele>
        <time>2016-04-24T08:17:07Z</time>
      </trkpt>
      <trkpt lat="47.37036" lon="-1.87272">
        <ele>80</ele>
        <time>2016-04-24T08:17:08Z</time>
      </trkpt>
      <trkpt lat="47.37032" lon="-1.87266">
        <ele>80</ele>
        <time>2016-04-24T08:17:09Z</time>
      </trkpt>
      <trkpt lat="47.37027" lon="-1.87262">
        <ele>80</ele>
        <time>2016-04-24T08:17:10Z</time>
      </trkpt>
      <trkpt lat="47.37024" lon="-1.87257">
        <ele>80</ele>
        <time>2016-04-24T08:17:11Z</time>
      </trkpt>
      <trkpt lat="47.37021" lon="-1.8725">
        <ele>80</ele>
        <time>2016-04-24T08:17:12Z</time>
      </trkpt>
      <trkpt lat="47.37018" lon="-1.87244">
        <ele>80</ele>
        <time>2016-04-24T08:17:13Z</time>
      </trkpt>
      <trkpt lat="47.37017" lon="-1.87236">
        <ele>80</ele>
        <time>2016-04-24T08:17:14Z</time>
      </trkpt>
      <trkpt lat="47.37016" lon="-1.87227">
        <ele>80</ele>
        <time>2016-04-24T08:17:15Z</time>
      </trkpt>
      <trkpt lat="47.37017" lon="-1.87217">
        <ele>79</ele>
        <time>2016-04-24T08:17:16Z</time>
      </trkpt>
      <trkpt lat="47.37017" lon="-1.87209">
        <ele>79</ele>
        <time>2016-04-24T08:17:17Z</time>
      </trkpt>
      <trkpt lat="47.37017" lon="-1.87199">
        <ele>79</ele>
        <time>2016-04-24T08:17:18Z</time>
      </trkpt>
      <trkpt lat="47.37016" lon="-1.87192">
        <ele>79</ele>
        <time>2016-04-24T08:17:19Z</time>
      </trkpt>
      <trkpt lat="47.37017" lon="-1.87184">
        <ele>79</ele>
        <time>2016-04-24T08:17:20Z</time>
      </trkpt>
      <trkpt lat="47.37018" lon="-1.87175">
        <ele>79</ele>
        <time>2016-04-24T08:17:21Z</time>
      </trkpt>
      <trkpt lat="47.37018" lon="-1.87164">
        <ele>78</ele>
        <time>2016-04-24T08:17:22Z</time>
      </trkpt>
      <trkpt lat="47.37017" lon="-1.87156">
        <ele>78</ele>
        <time>2016-04-24T08:17:23Z</time>
      </trkpt>
      <trkpt lat="47.37017" lon="-1.87147">
        <ele>79</ele>
        <time>2016-04-24T08:17:24Z</time>
      </trkpt>
      <trkpt lat="47.37018" lon="-1.87136">
        <ele>79</ele>
        <time>2016-04-24T08:17:25Z</time>
      </trkpt>
      <trkpt lat="47.37018" lon="-1.87127">
        <ele>79</ele>
        <time>2016-04-24T08:17:26Z</time>
      </trkpt>
      <trkpt lat="47.37017" lon="-1.87117">
        <ele>79</ele>
        <time>2016-04-24T08:17:27Z</time>
      </trkpt>
      <trkpt lat="47.37017" lon="-1.87108">
        <ele>78</ele>
        <time>2016-04-24T08:17:28Z</time>
      </trkpt>
      <trkpt lat="47.37017" lon="-1.87099">
        <ele>78</ele>
        <time>2016-04-24T08:17:29Z</time>
      </trkpt>
      <trkpt lat="47.37017" lon="-1.87091">
        <ele>78</ele>
        <time>2016-04-24T08:17:30Z</time>
      </trkpt>
      <trkpt lat="47.37018" lon="-1.87085">
        <ele>78</ele>
        <time>2016-04-24T08:17:31Z</time>
      </trkpt>
      <trkpt lat="47.37024" lon="-1.8708">
        <ele>78</ele>
        <time>2016-04-24T08:17:32Z</time>
      </trkpt>
      <trkpt lat="47.3702" lon="-1.87075">
        <ele>78</ele>
        <time>2016-04-24T08:17:33Z</time>
      </trkpt>
      <trkpt lat="47.37019" lon="-1.87061">
        <ele>78</ele>
        <time>2016-04-24T08:17:34Z</time>
      </trkpt>
      <trkpt lat="47.3702" lon="-1.87052">
        <ele>78</ele>
        <time>2016-04-24T08:17:35Z</time>
      </trkpt>
      <trkpt lat="47.37021" lon="-1.87043">
        <ele>78</ele>
        <time>2016-04-24T08:17:36Z</time>
      </trkpt>
      <trkpt lat="47.37022" lon="-1.87031">
        <ele>78</ele>
        <time>2016-04-24T08:17:37Z</time>
      </trkpt>
      <trkpt lat="47.37021" lon="-1.87027">
        <ele>78</ele>
        <time>2016-04-24T08:17:38Z</time>
      </trkpt>
      <trkpt lat="47.3702" lon="-1.87016">
        <ele>78</ele>
        <time>2016-04-24T08:17:39Z</time>
      </trkpt>
      <trkpt lat="47.37017" lon="-1.87011">
        <ele>78</ele>
        <time>2016-04-24T08:17:40Z</time>
      </trkpt>
      <trkpt lat="47.37015" lon="-1.87001">
        <ele>77</ele>
        <time>2016-04-24T08:17:41Z</time>
      </trkpt>
      <trkpt lat="47.37016" lon="-1.8699">
        <ele>77</ele>
        <time>2016-04-24T08:17:42Z</time>
      </trkpt>
      <trkpt lat="47.37016" lon="-1.86977">
        <ele>77</ele>
        <time>2016-04-24T08:17:43Z</time>
      </trkpt>
      <trkpt lat="47.37017" lon="-1.86972">
        <ele>77</ele>
        <time>2016-04-24T08:17:44Z</time>
      </trkpt>
      <trkpt lat="47.37019" lon="-1.86963">
        <ele>77</ele>
        <time>2016-04-24T08:17:45Z</time>
      </trkpt>
      <trkpt lat="47.37018" lon="-1.86954">
        <ele>77</ele>
        <time>2016-04-24T08:17:46Z</time>
      </trkpt>
      <trkpt lat="47.37016" lon="-1.86945">
        <ele>77</ele>
        <time>2016-04-24T08:17:47Z</time>
      </trkpt>
      <trkpt lat="47.37017" lon="-1.86937">
        <ele>77</ele>
        <time>2016-04-24T08:17:48Z</time>
      </trkpt>
      <trkpt lat="47.37015" lon="-1.86927">
        <ele>77</ele>
        <time>2016-04-24T08:17:49Z</time>
      </trkpt>
      <trkpt lat="47.37016" lon="-1.86916">
        <ele>76</ele>
        <time>2016-04-24T08:17:50Z</time>
      </trkpt>
      <trkpt lat="47.37018" lon="-1.86906">
        <ele>76</ele>
        <time>2016-04-24T08:17:51Z</time>
      </trkpt>
      <trkpt lat="47.37018" lon="-1.86898">
        <ele>76</ele>
        <time>2016-04-24T08:17:52Z</time>
      </trkpt>
      <trkpt lat="47.37018" lon="-1.8689">
        <ele>76</ele>
        <time>2016-04-24T08:17:53Z</time>
      </trkpt>
      <trkpt lat="47.37017" lon="-1.86884">
        <ele>76</ele>
        <time>2016-04-24T08:17:54Z</time>
      </trkpt>
      <trkpt lat="47.37018" lon="-1.86874">
        <ele>76</ele>
        <time>2016-04-24T08:17:55Z</time>
      </trkpt>
      <trkpt lat="47.37016" lon="-1.86866">
        <ele>76</ele>
        <time>2016-04-24T08:17:56Z</time>
      </trkpt>
      <trkpt lat="47.37017" lon="-1.86857">
        <ele>76</ele>
        <time>2016-04-24T08:17:57Z</time>
      </trkpt>
      <trkpt lat="47.37016" lon="-1.86849">
        <ele>76</ele>
        <time>2016-04-24T08:17:58Z</time>
      </trkpt>
      <trkpt lat="47.37017" lon="-1.86839">
        <ele>76</ele>
        <time>2016-04-24T08:17:59Z</time>
      </trkpt>
      <trkpt lat="47.37018" lon="-1.86832">
        <ele>76</ele>
        <time>2016-04-24T08:18:00Z</time>
      </trkpt>
      <trkpt lat="47.37017" lon="-1.86824">
        <ele>76</ele>
        <time>2016-04-24T08:18:01Z</time>
      </trkpt>
      <trkpt lat="47.37015" lon="-1.86815">
        <ele>76</ele>
        <time>2016-04-24T08:18:02Z</time>
      </trkpt>
      <trkpt lat="47.37018" lon="-1.86804">
        <ele>77</ele>
        <time>2016-04-24T08:18:03Z</time>
      </trkpt>
      <trkpt lat="47.37016" lon="-1.86796">
        <ele>77</ele>
        <time>2016-04-24T08:18:04Z</time>
      </trkpt>
      <trkpt lat="47.37018" lon="-1.86786">
        <ele>77</ele>
        <time>2016-04-24T08:18:05Z</time>
      </trkpt>
      <trkpt lat="47.37016" lon="-1.86775">
        <ele>77</ele>
        <time>2016-04-24T08:18:06Z</time>
      </trkpt>
      <trkpt lat="47.37017" lon="-1.86765">
        <ele>77</ele>
        <time>2016-04-24T08:18:07Z</time>
      </trkpt>
      <trkpt lat="47.37018" lon="-1.86756">
        <ele>77</ele>
        <time>2016-04-24T08:18:08Z</time>
      </trkpt>
      <trkpt lat="47.37016" lon="-1.8675">
        <ele>78</ele>
        <time>2016-04-24T08:18:09Z</time>
      </trkpt>
      <trkpt lat="47.37017" lon="-1.86743">
        <ele>78</ele>
        <time>2016-04-24T08:18:10Z</time>
      </trkpt>
      <trkpt lat="47.3702" lon="-1.86735">
        <ele>78</ele>
        <time>2016-04-24T08:18:11Z</time>
      </trkpt>
      <trkpt lat="47.3702" lon="-1.86725">
        <ele>78</ele>
        <time>2016-04-24T08:18:12Z</time>
      </trkpt>
      <trkpt lat="47.3702" lon="-1.86719">
        <ele>78</ele>
        <time>2016-04-24T08:18:13Z</time>
      </trkpt>
      <trkpt lat="47.37015" lon="-1.86711">
        <ele>78</ele>
        <time>2016-04-24T08:18:14Z</time>
      </trkpt>
      <trkpt lat="47.37015" lon="-1.86704">
        <ele>78</ele>
        <time>2016-04-24T08:18:15Z</time>
      </trkpt>
      <trkpt lat="47.37018" lon="-1.86696">
        <ele>78</ele>
        <time>2016-04-24T08:18:16Z</time>
      </trkpt>
      <trkpt lat="47.37018" lon="-1.86689">
        <ele>78</ele>
        <time>2016-04-24T08:18:18Z</time>
      </trkpt>
      <trkpt lat="47.3702" lon="-1.86684">
        <ele>78</ele>
        <time>2016-04-24T08:18:20Z</time>
      </trkpt>
      <trkpt lat="47.37023" lon="-1.8668">
        <ele>78</ele>
        <time>2016-04-24T08:18:22Z</time>
      </trkpt>
      <trkpt lat="47.3702" lon="-1.86675">
        <ele>78</ele>
        <time>2016-04-24T08:18:26Z</time>
      </trkpt>
      <trkpt lat="47.37018" lon="-1.86673">
        <ele>78</ele>
        <time>2016-04-24T08:18:28Z</time>
      </trkpt>
      <trkpt lat="47.37015" lon="-1.86668">
        <ele>78</ele>
        <time>2016-04-24T08:18:30Z</time>
      </trkpt>
      <trkpt lat="47.37014" lon="-1.86663">
        <ele>78</ele>
        <time>2016-04-24T08:18:32Z</time>
      </trkpt>
      <trkpt lat="47.37013" lon="-1.86658">
        <ele>78</ele>
        <time>2016-04-24T08:21:39Z</time>
      </trkpt>
      <trkpt lat="47.37013" lon="-1.8665">
        <ele>79</ele>
        <time>2016-04-24T08:21:41Z</time>
      </trkpt>
      <trkpt lat="47.37013" lon="-1.86645">
        <ele>79</ele>
        <time>2016-04-24T08:21:42Z</time>
      </trkpt>
      <trkpt lat="47.37013" lon="-1.8664">
        <ele>79</ele>
        <time>2016-04-24T08:21:43Z</time>
      </trkpt>
      <trkpt lat="47.37014" lon="-1.86635">
        <ele>79</ele>
        <time>2016-04-24T08:21:44Z</time>
      </trkpt>
      <trkpt lat="47.37014" lon="-1.86629">
        <ele>79</ele>
        <time>2016-04-24T08:21:45Z</time>
      </trkpt>
      <trkpt lat="47.37014" lon="-1.86623">
        <ele>79</ele>
        <time>2016-04-24T08:21:46Z</time>
      </trkpt>
      <trkpt lat="47.37015" lon="-1.86618">
        <ele>79</ele>
        <time>2016-04-24T08:21:47Z</time>
      </trkpt>
      <trkpt lat="47.37016" lon="-1.86612">
        <ele>79</ele>
        <time>2016-04-24T08:21:48Z</time>
      </trkpt>
      <trkpt lat="47.37016" lon="-1.86607">
        <ele>79</ele>
        <time>2016-04-24T08:21:49Z</time>
      </trkpt>
      <trkpt lat="47.37016" lon="-1.86601">
        <ele>79</ele>
        <time>2016-04-24T08:21:50Z</time>
      </trkpt>
      <trkpt lat="47.37016" lon="-1.86595">
        <ele>79</ele>
        <time>2016-04-24T08:21:51Z</time>
      </trkpt>
      <trkpt lat="47.37016" lon="-1.86588">
        <ele>79</ele>
        <time>2016-04-24T08:21:52Z</time>
      </trkpt>
      <trkpt lat="47.37016" lon="-1.86582">
        <ele>78</ele>
        <time>2016-04-24T08:21:53Z</time>
      </trkpt>
      <trkpt lat="47.37015" lon="-1.86576">
        <ele>78</ele>
        <time>2016-04-24T08:21:54Z</time>
      </trkpt>
      <trkpt lat="47.37016" lon="-1.8657">
        <ele>78</ele>
        <time>2016-04-24T08:21:55Z</time>
      </trkpt>
      <trkpt lat="47.37016" lon="-1.86563">
        <ele>78</ele>
        <time>2016-04-24T08:21:56Z</time>
      </trkpt>
      <trkpt lat="47.37016" lon="-1.86557">
        <ele>78</ele>
        <time>2016-04-24T08:21:57Z</time>
      </trkpt>
      <trkpt lat="47.37015" lon="-1.8655">
        <ele>78</ele>
        <time>2016-04-24T08:21:58Z</time>
      </trkpt>
      <trkpt lat="47.37015" lon="-1.86544">
        <ele>78</ele>
        <time>2016-04-24T08:21:59Z</time>
      </trkpt>
      <trkpt lat="47.37014" lon="-1.86538">
        <ele>78</ele>
        <time>2016-04-24T08:22:00Z</time>
      </trkpt>
      <trkpt lat="47.37012" lon="-1.86532">
        <ele>78</ele>
        <time>2016-04-24T08:22:01Z</time>
      </trkpt>
      <trkpt lat="47.37011" lon="-1.86526">
        <ele>78</ele>
        <time>2016-04-24T08:22:02Z</time>
      </trkpt>
      <trkpt lat="47.3701" lon="-1.8652">
        <ele>78</ele>
        <time>2016-04-24T08:22:03Z</time>
      </trkpt>
      <trkpt lat="47.37009" lon="-1.86513">
        <ele>78</ele>
        <time>2016-04-24T08:22:04Z</time>
      </trkpt>
      <trkpt lat="47.37008" lon="-1.86507">
        <ele>78</ele>
        <time>2016-04-24T08:22:05Z</time>
      </trkpt>
      <trkpt lat="47.37007" lon="-1.86501">
        <ele>77</ele>
        <time>2016-04-24T08:22:06Z</time>
      </trkpt>
      <trkpt lat="47.37006" lon="-1.86495">
        <ele>77</ele>
        <time>2016-04-24T08:22:07Z</time>
      </trkpt>
      <trkpt lat="47.37005" lon="-1.86489">
        <ele>77</ele>
        <time>2016-04-24T08:22:08Z</time>
      </trkpt>
      <trkpt lat="47.37004" lon="-1.86483">
        <ele>77</ele>
        <time>2016-04-24T08:22:09Z</time>
      </trkpt>
      <trkpt lat="47.37003" lon="-1.86477">
        <ele>77</ele>
        <time>2016-04-24T08:22:10Z</time>
      </trkpt>
      <trkpt lat="47.37002" lon="-1.86471">
        <ele>77</ele>
        <time>2016-04-24T08:22:11Z</time>
      </trkpt>
      <trkpt lat="47.37" lon="-1.86465">
        <ele>77</ele>
        <time>2016-04-24T08:22:12Z</time>
      </trkpt>
      <trkpt lat="47.36999" lon="-1.86459">
        <ele>76</ele>
        <time>2016-04-24T08:22:13Z</time>
      </trkpt>
      <trkpt lat="47.36997" lon="-1.86454">
        <ele>76</ele>
        <time>2016-04-24T08:22:14Z</time>
      </trkpt>
      <trkpt lat="47.36996" lon="-1.86448">
        <ele>76</ele>
        <time>2016-04-24T08:22:15Z</time>
      </trkpt>
      <trkpt lat="47.36995" lon="-1.86442">
        <ele>76</ele>
        <time>2016-04-24T08:22:16Z</time>
      </trkpt>
      <trkpt lat="47.36994" lon="-1.86436">
        <ele>76</ele>
        <time>2016-04-24T08:22:17Z</time>
      </trkpt>
      <trkpt lat="47.36993" lon="-1.8643">
        <ele>76</ele>
        <time>2016-04-24T08:22:18Z</time>
      </trkpt>
      <trkpt lat="47.36992" lon="-1.86424">
        <ele>76</ele>
        <time>2016-04-24T08:22:19Z</time>
      </trkpt>
      <trkpt lat="47.36992" lon="-1.86418">
        <ele>76</ele>
        <time>2016-04-24T08:22:20Z</time>
      </trkpt>
      <trkpt lat="47.36991" lon="-1.86411">
        <ele>76</ele>
        <time>2016-04-24T08:22:21Z</time>
      </trkpt>
      <trkpt lat="47.36989" lon="-1.86405">
        <ele>77</ele>
        <time>2016-04-24T08:22:22Z</time>
      </trkpt>
      <trkpt lat="47.36988" lon="-1.86398">
        <ele>77</ele>
        <time>2016-04-24T08:22:23Z</time>
      </trkpt>
      <trkpt lat="47.36987" lon="-1.86391">
        <ele>77</ele>
        <time>2016-04-24T08:22:24Z</time>
      </trkpt>
      <trkpt lat="47.36985" lon="-1.86385">
        <ele>77</ele>
        <time>2016-04-24T08:22:25Z</time>
      </trkpt>
      <trkpt lat="47.36984" lon="-1.86378">
        <ele>77</ele>
        <time>2016-04-24T08:22:26Z</time>
      </trkpt>
      <trkpt lat="47.36983" lon="-1.86371">
        <ele>77</ele>
        <time>2016-04-24T08:22:27Z</time>
      </trkpt>
      <trkpt lat="47.36982" lon="-1.86365">
        <ele>78</ele>
        <time>2016-04-24T08:22:28Z</time>
      </trkpt>
      <trkpt lat="47.36981" lon="-1.86358">
        <ele>78</ele>
        <time>2016-04-24T08:22:29Z</time>
      </trkpt>
      <trkpt lat="47.3698" lon="-1.86351">
        <ele>78</ele>
        <time>2016-04-24T08:22:30Z</time>
      </trkpt>
      <trkpt lat="47.3698" lon="-1.8634">
        <ele>78</ele>
        <time>2016-04-24T08:22:31Z</time>
      </trkpt>
      <trkpt lat="47.36978" lon="-1.86333">
        <ele>79</ele>
        <time>2016-04-24T08:22:32Z</time>
      </trkpt>
      <trkpt lat="47.36976" lon="-1.86327">
        <ele>79</ele>
        <time>2016-04-24T08:22:33Z</time>
      </trkpt>
      <trkpt lat="47.36975" lon="-1.86321">
        <ele>79</ele>
        <time>2016-04-24T08:22:34Z</time>
      </trkpt>
      <trkpt lat="47.36974" lon="-1.86315">
        <ele>79</ele>
        <time>2016-04-24T08:22:35Z</time>
      </trkpt>
      <trkpt lat="47.36971" lon="-1.86309">
        <ele>79</ele>
        <time>2016-04-24T08:22:36Z</time>
      </trkpt>
      <trkpt lat="47.3697" lon="-1.86303">
        <ele>79</ele>
        <time>2016-04-24T08:22:37Z</time>
      </trkpt>
      <trkpt lat="47.36968" lon="-1.86297">
        <ele>79</ele>
        <time>2016-04-24T08:22:38Z</time>
      </trkpt>
      <trkpt lat="47.36967" lon="-1.86292">
        <ele>79</ele>
        <time>2016-04-24T08:22:39Z</time>
      </trkpt>
      <trkpt lat="47.36967" lon="-1.86286">
        <ele>79</ele>
        <time>2016-04-24T08:22:40Z</time>
      </trkpt>
      <trkpt lat="47.36966" lon="-1.8628">
        <ele>79</ele>
        <time>2016-04-24T08:22:41Z</time>
      </trkpt>
      <trkpt lat="47.36965" lon="-1.86273">
        <ele>79</ele>
        <time>2016-04-24T08:22:42Z</time>
      </trkpt>
      <trkpt lat="47.36964" lon="-1.86267">
        <ele>79</ele>
        <time>2016-04-24T08:22:43Z</time>
      </trkpt>
      <trkpt lat="47.36963" lon="-1.86261">
        <ele>79</ele>
        <time>2016-04-24T08:22:44Z</time>
      </trkpt>
      <trkpt lat="47.36961" lon="-1.86256">
        <ele>79</ele>
        <time>2016-04-24T08:22:45Z</time>
      </trkpt>
      <trkpt lat="47.3696" lon="-1.86249">
        <ele>79</ele>
        <time>2016-04-24T08:22:46Z</time>
      </trkpt>
      <trkpt lat="47.36958" lon="-1.86242">
        <ele>79</ele>
        <time>2016-04-24T08:22:47Z</time>
      </trkpt>
      <trkpt lat="47.36957" lon="-1.86236">
        <ele>79</ele>
        <time>2016-04-24T08:22:48Z</time>
      </trkpt>
      <trkpt lat="47.36955" lon="-1.86229">
        <ele>79</ele>
        <time>2016-04-24T08:22:49Z</time>
      </trkpt>
      <trkpt lat="47.36954" lon="-1.86221">
        <ele>79</ele>
        <time>2016-04-24T08:22:50Z</time>
      </trkpt>
      <trkpt lat="47.36953" lon="-1.86214">
        <ele>79</ele>
        <time>2016-04-24T08:22:51Z</time>
      </trkpt>
      <trkpt lat="47.36951" lon="-1.86207">
        <ele>79</ele>
        <time>2016-04-24T08:22:52Z</time>
      </trkpt>
      <trkpt lat="47.36949" lon="-1.86201">
        <ele>79</ele>
        <time>2016-04-24T08:22:53Z</time>
      </trkpt>
      <trkpt lat="47.36947" lon="-1.86195">
        <ele>79</ele>
        <time>2016-04-24T08:22:54Z</time>
      </trkpt>
      <trkpt lat="47.36945" lon="-1.86186">
        <ele>79</ele>
        <time>2016-04-24T08:22:55Z</time>
      </trkpt>
      <trkpt lat="47.36943" lon="-1.86179">
        <ele>79</ele>
        <time>2016-04-24T08:22:56Z</time>
      </trkpt>
      <trkpt lat="47.36941" lon="-1.86172">
        <ele>79</ele>
        <time>2016-04-24T08:22:57Z</time>
      </trkpt>
      <trkpt lat="47.3694" lon="-1.86164">
        <ele>79</ele>
        <time>2016-04-24T08:22:58Z</time>
      </trkpt>
      <trkpt lat="47.36939" lon="-1.86157">
        <ele>79</ele>
        <time>2016-04-24T08:22:59Z</time>
      </trkpt>
      <trkpt lat="47.36938" lon="-1.86151">
        <ele>79</ele>
        <time>2016-04-24T08:23:00Z</time>
      </trkpt>
      <trkpt lat="47.36935" lon="-1.86145">
        <ele>79</ele>
        <time>2016-04-24T08:23:01Z</time>
      </trkpt>
      <trkpt lat="47.36932" lon="-1.86137">
        <ele>79</ele>
        <time>2016-04-24T08:23:02Z</time>
      </trkpt>
      <trkpt lat="47.3693" lon="-1.86132">
        <ele>79</ele>
        <time>2016-04-24T08:23:03Z</time>
      </trkpt>
      <trkpt lat="47.36928" lon="-1.86125">
        <ele>79</ele>
        <time>2016-04-24T08:23:04Z</time>
      </trkpt>
      <trkpt lat="47.36927" lon="-1.86119">
        <ele>79</ele>
        <time>2016-04-24T08:23:05Z</time>
      </trkpt>
      <trkpt lat="47.36923" lon="-1.86112">
        <ele>79</ele>
        <time>2016-04-24T08:23:06Z</time>
      </trkpt>
      <trkpt lat="47.36922" lon="-1.86103">
        <ele>80</ele>
        <time>2016-04-24T08:23:07Z</time>
      </trkpt>
      <trkpt lat="47.36921" lon="-1.86096">
        <ele>80</ele>
        <time>2016-04-24T08:23:08Z</time>
      </trkpt>
      <trkpt lat="47.36917" lon="-1.86088">
        <ele>80</ele>
        <time>2016-04-24T08:23:09Z</time>
      </trkpt>
      <trkpt lat="47.36914" lon="-1.8608">
        <ele>80</ele>
        <time>2016-04-24T08:23:10Z</time>
      </trkpt>
      <trkpt lat="47.36913" lon="-1.86071">
        <ele>79</ele>
        <time>2016-04-24T08:23:11Z</time>
      </trkpt>
      <trkpt lat="47.3691" lon="-1.86066">
        <ele>79</ele>
        <time>2016-04-24T08:23:12Z</time>
      </trkpt>
      <trkpt lat="47.36907" lon="-1.86059">
        <ele>78</ele>
        <time>2016-04-24T08:23:13Z</time>
      </trkpt>
      <trkpt lat="47.36907" lon="-1.86053">
        <ele>78</ele>
        <time>2016-04-24T08:23:14Z</time>
      </trkpt>
      <trkpt lat="47.36905" lon="-1.86046">
        <ele>78</ele>
        <time>2016-04-24T08:23:15Z</time>
      </trkpt>
      <trkpt lat="47.36905" lon="-1.86038">
        <ele>78</ele>
        <time>2016-04-24T08:23:16Z</time>
      </trkpt>
      <trkpt lat="47.36901" lon="-1.8603">
        <ele>78</ele>
        <time>2016-04-24T08:23:17Z</time>
      </trkpt>
      <trkpt lat="47.369" lon="-1.86025">
        <ele>78</ele>
        <time>2016-04-24T08:23:18Z</time>
      </trkpt>
      <trkpt lat="47.36901" lon="-1.8602">
        <ele>78</ele>
        <time>2016-04-24T08:23:19Z</time>
      </trkpt>
      <trkpt lat="47.36901" lon="-1.86015">
        <ele>78</ele>
        <time>2016-04-24T08:23:21Z</time>
      </trkpt>
      <trkpt lat="47.36901" lon="-1.8601">
        <ele>78</ele>
        <time>2016-04-24T08:23:23Z</time>
      </trkpt>
      <trkpt lat="47.36897" lon="-1.86005">
        <ele>78</ele>
        <time>2016-04-24T08:23:25Z</time>
      </trkpt>
      <trkpt lat="47.36896" lon="-1.86">
        <ele>78</ele>
        <time>2016-04-24T08:23:26Z</time>
      </trkpt>
      <trkpt lat="47.36894" lon="-1.85997">
        <ele>77</ele>
        <time>2016-04-24T08:23:27Z</time>
      </trkpt>
      <trkpt lat="47.36893" lon="-1.85992">
        <ele>77</ele>
        <time>2016-04-24T08:23:28Z</time>
      </trkpt>
      <trkpt lat="47.36892" lon="-1.85987">
        <ele>77</ele>
        <time>2016-04-24T08:23:29Z</time>
      </trkpt>
      <trkpt lat="47.36891" lon="-1.85981">
        <ele>77</ele>
        <time>2016-04-24T08:23:30Z</time>
      </trkpt>
      <trkpt lat="47.3689" lon="-1.85974">
        <ele>76</ele>
        <time>2016-04-24T08:23:31Z</time>
      </trkpt>
      <trkpt lat="47.36888" lon="-1.85968">
        <ele>76</ele>
        <time>2016-04-24T08:23:32Z</time>
      </trkpt>
      <trkpt lat="47.36886" lon="-1.8596">
        <ele>76</ele>
        <time>2016-04-24T08:23:33Z</time>
      </trkpt>
      <trkpt lat="47.36885" lon="-1.85953">
        <ele>76</ele>
        <time>2016-04-24T08:23:34Z</time>
      </trkpt>
      <trkpt lat="47.36884" lon="-1.85946">
        <ele>76</ele>
        <time>2016-04-24T08:23:35Z</time>
      </trkpt>
      <trkpt lat="47.36883" lon="-1.85938">
        <ele>76</ele>
        <time>2016-04-24T08:23:36Z</time>
      </trkpt>
      <trkpt lat="47.36882" lon="-1.8593">
        <ele>76</ele>
        <time>2016-04-24T08:23:37Z</time>
      </trkpt>
      <trkpt lat="47.3688" lon="-1.85923">
        <ele>76</ele>
        <time>2016-04-24T08:23:38Z</time>
      </trkpt>
      <trkpt lat="47.36879" lon="-1.85914">
        <ele>75</ele>
        <time>2016-04-24T08:23:39Z</time>
      </trkpt>
      <trkpt lat="47.36878" lon="-1.85907">
        <ele>75</ele>
        <time>2016-04-24T08:23:40Z</time>
      </trkpt>
      <trkpt lat="47.36875" lon="-1.85897">
        <ele>75</ele>
        <time>2016-04-24T08:23:41Z</time>
      </trkpt>
      <trkpt lat="47.36875" lon="-1.85889">
        <ele>75</ele>
        <time>2016-04-24T08:23:42Z</time>
      </trkpt>
      <trkpt lat="47.36873" lon="-1.85881">
        <ele>75</ele>
        <time>2016-04-24T08:23:43Z</time>
      </trkpt>
      <trkpt lat="47.36868" lon="-1.8587">
        <ele>75</ele>
        <time>2016-04-24T08:23:44Z</time>
      </trkpt>
      <trkpt lat="47.36867" lon="-1.85863">
        <ele>75</ele>
        <time>2016-04-24T08:23:45Z</time>
      </trkpt>
      <trkpt lat="47.36865" lon="-1.85853">
        <ele>75</ele>
        <time>2016-04-24T08:23:46Z</time>
      </trkpt>
      <trkpt lat="47.36864" lon="-1.85843">
        <ele>75</ele>
        <time>2016-04-24T08:23:47Z</time>
      </trkpt>
      <trkpt lat="47.36862" lon="-1.85833">
        <ele>75</ele>
        <time>2016-04-24T08:23:48Z</time>
      </trkpt>
      <trkpt lat="47.36866" lon="-1.85826">
        <ele>75</ele>
        <time>2016-04-24T08:23:49Z</time>
      </trkpt>
      <trkpt lat="47.36869" lon="-1.85822">
        <ele>75</ele>
        <time>2016-04-24T08:23:50Z</time>
      </trkpt>
      <trkpt lat="47.36877" lon="-1.85812">
        <ele>75</ele>
        <time>2016-04-24T08:23:51Z</time>
      </trkpt>
      <trkpt lat="47.36883" lon="-1.85806">
        <ele>75</ele>
        <time>2016-04-24T08:23:52Z</time>
      </trkpt>
      <trkpt lat="47.36886" lon="-1.858">
        <ele>75</ele>
        <time>2016-04-24T08:23:53Z</time>
      </trkpt>
      <trkpt lat="47.36889" lon="-1.85791">
        <ele>75</ele>
        <time>2016-04-24T08:23:54Z</time>
      </trkpt>
      <trkpt lat="47.3689" lon="-1.85782">
        <ele>75</ele>
        <time>2016-04-24T08:23:55Z</time>
      </trkpt>
      <trkpt lat="47.36885" lon="-1.85774">
        <ele>75</ele>
        <time>2016-04-24T08:23:56Z</time>
      </trkpt>
      <trkpt lat="47.36883" lon="-1.85761">
        <ele>75</ele>
        <time>2016-04-24T08:23:57Z</time>
      </trkpt>
      <trkpt lat="47.36883" lon="-1.85752">
        <ele>75</ele>
        <time>2016-04-24T08:23:58Z</time>
      </trkpt>
      <trkpt lat="47.36881" lon="-1.85743">
        <ele>74</ele>
        <time>2016-04-24T08:23:59Z</time>
      </trkpt>
      <trkpt lat="47.3688" lon="-1.85739">
        <ele>74</ele>
        <time>2016-04-24T08:24:00Z</time>
      </trkpt>
      <trkpt lat="47.36878" lon="-1.85736">
        <ele>74</ele>
        <time>2016-04-24T08:24:01Z</time>
      </trkpt>
      <trkpt lat="47.36878" lon="-1.85729">
        <ele>74</ele>
        <time>2016-04-24T08:24:02Z</time>
      </trkpt>
      <trkpt lat="47.36878" lon="-1.85721">
        <ele>74</ele>
        <time>2016-04-24T08:24:03Z</time>
      </trkpt>
      <trkpt lat="47.36875" lon="-1.85709">
        <ele>74</ele>
        <time>2016-04-24T08:24:04Z</time>
      </trkpt>
      <trkpt lat="47.36872" lon="-1.85697">
        <ele>73</ele>
        <time>2016-04-24T08:24:05Z</time>
      </trkpt>
      <trkpt lat="47.36873" lon="-1.85689">
        <ele>73</ele>
        <time>2016-04-24T08:24:06Z</time>
      </trkpt>
      <trkpt lat="47.36874" lon="-1.85683">
        <ele>73</ele>
        <time>2016-04-24T08:24:07Z</time>
      </trkpt>
      <trkpt lat="47.36874" lon="-1.85671">
        <ele>73</ele>
        <time>2016-04-24T08:24:08Z</time>
      </trkpt>
      <trkpt lat="47.36871" lon="-1.8566">
        <ele>71</ele>
        <time>2016-04-24T08:24:09Z</time>
      </trkpt>
      <trkpt lat="47.36866" lon="-1.85649">
        <ele>71</ele>
        <time>2016-04-24T08:24:10Z</time>
      </trkpt>
      <trkpt lat="47.36862" lon="-1.85639">
        <ele>71</ele>
        <time>2016-04-24T08:24:11Z</time>
      </trkpt>
      <trkpt lat="47.36859" lon="-1.8563">
        <ele>71</ele>
        <time>2016-04-24T08:24:12Z</time>
      </trkpt>
      <trkpt lat="47.36857" lon="-1.85622">
        <ele>71</ele>
        <time>2016-04-24T08:24:13Z</time>
      </trkpt>
      <trkpt lat="47.3686" lon="-1.85618">
        <ele>71</ele>
        <time>2016-04-24T08:24:14Z</time>
      </trkpt>
      <trkpt lat="47.36862" lon="-1.85615">
        <ele>70</ele>
        <time>2016-04-24T08:24:15Z</time>
      </trkpt>
      <trkpt lat="47.36868" lon="-1.85614">
        <ele>71</ele>
        <time>2016-04-24T08:24:16Z</time>
      </trkpt>
      <trkpt lat="47.36871" lon="-1.85615">
        <ele>71</ele>
        <time>2016-04-24T08:24:17Z</time>
      </trkpt>
      <trkpt lat="47.36877" lon="-1.85613">
        <ele>71</ele>
        <time>2016-04-24T08:24:18Z</time>
      </trkpt>
      <trkpt lat="47.36883" lon="-1.85613">
        <ele>71</ele>
        <time>2016-04-24T08:24:19Z</time>
      </trkpt>
      <trkpt lat="47.36888" lon="-1.85606">
        <ele>71</ele>
        <time>2016-04-24T08:24:20Z</time>
      </trkpt>
      <trkpt lat="47.36892" lon="-1.85607">
        <ele>71</ele>
        <time>2016-04-24T08:24:21Z</time>
      </trkpt>
      <trkpt lat="47.36897" lon="-1.85605">
        <ele>71</ele>
        <time>2016-04-24T08:24:22Z</time>
      </trkpt>
      <trkpt lat="47.36904" lon="-1.856">
        <ele>70</ele>
        <time>2016-04-24T08:24:23Z</time>
      </trkpt>
      <trkpt lat="47.36908" lon="-1.85597">
        <ele>70</ele>
        <time>2016-04-24T08:24:24Z</time>
      </trkpt>
      <trkpt lat="47.36915" lon="-1.85593">
        <ele>70</ele>
        <time>2016-04-24T08:24:25Z</time>
      </trkpt>
      <trkpt lat="47.3692" lon="-1.8559">
        <ele>71</ele>
        <time>2016-04-24T08:24:26Z</time>
      </trkpt>
      <trkpt lat="47.36923" lon="-1.85591">
        <ele>71</ele>
        <time>2016-04-24T08:24:27Z</time>
      </trkpt>
      <trkpt lat="47.36931" lon="-1.85585">
        <ele>71</ele>
        <time>2016-04-24T08:24:28Z</time>
      </trkpt>
      <trkpt lat="47.36936" lon="-1.85586">
        <ele>71</ele>
        <time>2016-04-24T08:24:29Z</time>
      </trkpt>
      <trkpt lat="47.36939" lon="-1.85586">
        <ele>72</ele>
        <time>2016-04-24T08:24:30Z</time>
      </trkpt>
      <trkpt lat="47.36944" lon="-1.85584">
        <ele>72</ele>
        <time>2016-04-24T08:24:31Z</time>
      </trkpt>
      <trkpt lat="47.36948" lon="-1.85581">
        <ele>70</ele>
        <time>2016-04-24T08:24:32Z</time>
      </trkpt>
      <trkpt lat="47.36957" lon="-1.85576">
        <ele>70</ele>
        <time>2016-04-24T08:24:33Z</time>
      </trkpt>
      <trkpt lat="47.36961" lon="-1.85573">
        <ele>70</ele>
        <time>2016-04-24T08:24:34Z</time>
      </trkpt>
      <trkpt lat="47.36966" lon="-1.85573">
        <ele>70</ele>
        <time>2016-04-24T08:24:35Z</time>
      </trkpt>
      <trkpt lat="47.36975" lon="-1.85567">
        <ele>70</ele>
        <time>2016-04-24T08:24:36Z</time>
      </trkpt>
      <trkpt lat="47.3698" lon="-1.85565">
        <ele>71</ele>
        <time>2016-04-24T08:24:37Z</time>
      </trkpt>
      <trkpt lat="47.36985" lon="-1.85565">
        <ele>71</ele>
        <time>2016-04-24T08:24:38Z</time>
      </trkpt>
      <trkpt lat="47.36992" lon="-1.85561">
        <ele>71</ele>
        <time>2016-04-24T08:24:39Z</time>
      </trkpt>
      <trkpt lat="47.36999" lon="-1.85558">
        <ele>71</ele>
        <time>2016-04-24T08:24:40Z</time>
      </trkpt>
      <trkpt lat="47.37008" lon="-1.8555">
        <ele>74</ele>
        <time>2016-04-24T08:24:41Z</time>
      </trkpt>
      <trkpt lat="47.37009" lon="-1.85554">
        <ele>74</ele>
        <time>2016-04-24T08:24:43Z</time>
      </trkpt>
      <trkpt lat="47.37015" lon="-1.85552">
        <ele>74</ele>
        <time>2016-04-24T08:24:45Z</time>
      </trkpt>
      <trkpt lat="47.37018" lon="-1.85551">
        <ele>74</ele>
        <time>2016-04-24T08:24:46Z</time>
      </trkpt>
      <trkpt lat="47.37022" lon="-1.85549">
        <ele>74</ele>
        <time>2016-04-24T08:24:47Z</time>
      </trkpt>
      <trkpt lat="47.37026" lon="-1.85548">
        <ele>74</ele>
        <time>2016-04-24T08:24:48Z</time>
      </trkpt>
      <trkpt lat="47.37029" lon="-1.85549">
        <ele>74</ele>
        <time>2016-04-24T08:24:51Z</time>
      </trkpt>
      <trkpt lat="47.37032" lon="-1.85549">
        <ele>74</ele>
        <time>2016-04-24T08:24:53Z</time>
      </trkpt>
      <trkpt lat="47.37035" lon="-1.85547">
        <ele>74</ele>
        <time>2016-04-24T08:24:54Z</time>
      </trkpt>
      <trkpt lat="47.37038" lon="-1.85545">
        <ele>74</ele>
        <time>2016-04-24T08:24:56Z</time>
      </trkpt>
      <trkpt lat="47.3704" lon="-1.85543">
        <ele>74</ele>
        <time>2016-04-24T08:25:04Z</time>
      </trkpt>
      <trkpt lat="47.37044" lon="-1.85541">
        <ele>75</ele>
        <time>2016-04-24T08:25:08Z</time>
      </trkpt>
      <trkpt lat="47.37047" lon="-1.85541">
        <ele>75</ele>
        <time>2016-04-24T08:25:12Z</time>
      </trkpt>
      <trkpt lat="47.37049" lon="-1.85539">
        <ele>75</ele>
        <time>2016-04-24T08:25:16Z</time>
      </trkpt>
      <trkpt lat="47.37052" lon="-1.8554">
        <ele>75</ele>
        <time>2016-04-24T08:25:20Z</time>
      </trkpt>
      <trkpt lat="47.37055" lon="-1.8554">
        <ele>75</ele>
        <time>2016-04-24T08:25:23Z</time>
      </trkpt>
      <trkpt lat="47.37058" lon="-1.85539">
        <ele>75</ele>
        <time>2016-04-24T08:25:27Z</time>
      </trkpt>
      <trkpt lat="47.37061" lon="-1.85539">
        <ele>75</ele>
        <time>2016-04-24T08:25:31Z</time>
      </trkpt>
      <trkpt lat="47.37064" lon="-1.85539">
        <ele>75</ele>
        <time>2016-04-24T08:25:38Z</time>
      </trkpt>
      <trkpt lat="47.3707" lon="-1.85539">
        <ele>76</ele>
        <time>2016-04-24T08:26:09Z</time>
      </trkpt>
      <trkpt lat="47.37074" lon="-1.85538">
        <ele>76</ele>
        <time>2016-04-24T08:26:12Z</time>
      </trkpt>
      <trkpt lat="47.37077" lon="-1.85537">
        <ele>76</ele>
        <time>2016-04-24T08:26:15Z</time>
      </trkpt>
      <trkpt lat="47.3708" lon="-1.85534">
        <ele>76</ele>
        <time>2016-04-24T08:26:18Z</time>
      </trkpt>
      <trkpt lat="47.37083" lon="-1.85531">
        <ele>76</ele>
        <time>2016-04-24T08:26:20Z</time>
      </trkpt>
      <trkpt lat="47.37086" lon="-1.85528">
        <ele>79</ele>
        <time>2016-04-24T08:26:22Z</time>
      </trkpt>
      <trkpt lat="47.3709" lon="-1.85525">
        <ele>79</ele>
        <time>2016-04-24T08:26:24Z</time>
      </trkpt>
      <trkpt lat="47.37092" lon="-1.85521">
        <ele>78</ele>
        <time>2016-04-24T08:26:26Z</time>
      </trkpt>
      <trkpt lat="47.37089" lon="-1.85519">
        <ele>78</ele>
        <time>2016-04-24T08:26:28Z</time>
      </trkpt>
      <trkpt lat="47.37086" lon="-1.85519">
        <ele>78</ele>
        <time>2016-04-24T08:26:34Z</time>
      </trkpt>
      <trkpt lat="47.37086" lon="-1.85515">
        <ele>78</ele>
        <time>2016-04-24T08:26:51Z</time>
      </trkpt>
      <trkpt lat="47.37086" lon="-1.85509">
        <ele>78</ele>
        <time>2016-04-24T08:26:54Z</time>
      </trkpt>
      <trkpt lat="47.37086" lon="-1.85503">
        <ele>77</ele>
        <time>2016-04-24T08:26:57Z</time>
      </trkpt>
      <trkpt lat="47.37084" lon="-1.85498">
        <ele>77</ele>
        <time>2016-04-24T08:27:00Z</time>
      </trkpt>
      <trkpt lat="47.37082" lon="-1.85493">
        <ele>75</ele>
        <time>2016-04-24T08:27:02Z</time>
      </trkpt>
      <trkpt lat="47.37082" lon="-1.85487">
        <ele>75</ele>
        <time>2016-04-24T08:27:04Z</time>
      </trkpt>
      <trkpt lat="47.37082" lon="-1.85482">
        <ele>74</ele>
        <time>2016-04-24T08:27:06Z</time>
      </trkpt>
      <trkpt lat="47.37081" lon="-1.85479">
        <ele>74</ele>
        <time>2016-04-24T08:27:10Z</time>
      </trkpt>
      <trkpt lat="47.3708" lon="-1.85472">
        <ele>73</ele>
        <time>2016-04-24T08:27:14Z</time>
      </trkpt>
      <trkpt lat="47.37079" lon="-1.85467">
        <ele>73</ele>
        <time>2016-04-24T08:27:16Z</time>
      </trkpt>
      <trkpt lat="47.37079" lon="-1.8546">
        <ele>72</ele>
        <time>2016-04-24T08:27:18Z</time>
      </trkpt>
      <trkpt lat="47.37079" lon="-1.85455">
        <ele>72</ele>
        <time>2016-04-24T08:27:20Z</time>
      </trkpt>
      <trkpt lat="47.37078" lon="-1.85451">
        <ele>72</ele>
        <time>2016-04-24T08:27:26Z</time>
      </trkpt>
      <trkpt lat="47.37076" lon="-1.85447">
        <ele>72</ele>
        <time>2016-04-24T08:27:30Z</time>
      </trkpt>
      <trkpt lat="47.37075" lon="-1.85442">
        <ele>72</ele>
        <time>2016-04-24T08:27:33Z</time>
      </trkpt>
      <trkpt lat="47.37074" lon="-1.85438">
        <ele>71</ele>
        <time>2016-04-24T08:27:36Z</time>
      </trkpt>
      <trkpt lat="47.37073" lon="-1.85433">
        <ele>71</ele>
        <time>2016-04-24T08:27:39Z</time>
      </trkpt>
      <trkpt lat="47.37071" lon="-1.8543">
        <ele>71</ele>
        <time>2016-04-24T08:27:42Z</time>
      </trkpt>
      <trkpt lat="47.3707" lon="-1.85426">
        <ele>71</ele>
        <time>2016-04-24T08:27:46Z</time>
      </trkpt>
      <trkpt lat="47.37069" lon="-1.85422">
        <ele>71</ele>
        <time>2016-04-24T08:27:50Z</time>
      </trkpt>
      <trkpt lat="47.37071" lon="-1.85419">
        <ele>71</ele>
        <time>2016-04-24T08:27:58Z</time>
      </trkpt>
      <trkpt lat="47.37072" lon="-1.85415">
        <ele>70</ele>
        <time>2016-04-24T08:28:14Z</time>
      </trkpt>
      <trkpt lat="47.37071" lon="-1.85411">
        <ele>70</ele>
        <time>2016-04-24T08:28:16Z</time>
      </trkpt>
      <trkpt lat="47.3707" lon="-1.85403">
        <ele>69</ele>
        <time>2016-04-24T08:28:18Z</time>
      </trkpt>
      <trkpt lat="47.37071" lon="-1.85396">
        <ele>69</ele>
        <time>2016-04-24T08:28:20Z</time>
      </trkpt>
      <trkpt lat="47.3707" lon="-1.85389">
        <ele>69</ele>
        <time>2016-04-24T08:28:22Z</time>
      </trkpt>
      <trkpt lat="47.3707" lon="-1.85382">
        <ele>69</ele>
        <time>2016-04-24T08:28:24Z</time>
      </trkpt>
      <trkpt lat="47.37069" lon="-1.85377">
        <ele>69</ele>
        <time>2016-04-24T08:28:27Z</time>
      </trkpt>
      <trkpt lat="47.37068" lon="-1.85373">
        <ele>68</ele>
        <time>2016-04-24T08:28:30Z</time>
      </trkpt>
      <trkpt lat="47.37066" lon="-1.85368">
        <ele>68</ele>
        <time>2016-04-24T08:28:33Z</time>
      </trkpt>
      <trkpt lat="47.37066" lon="-1.85364">
        <ele>68</ele>
        <time>2016-04-24T08:28:35Z</time>
      </trkpt>
      <trkpt lat="47.37065" lon="-1.85359">
        <ele>68</ele>
        <time>2016-04-24T08:28:37Z</time>
      </trkpt>
      <trkpt lat="47.37065" lon="-1.85354">
        <ele>68</ele>
        <time>2016-04-24T08:28:39Z</time>
      </trkpt>
      <trkpt lat="47.37066" lon="-1.8535">
        <ele>68</ele>
        <time>2016-04-24T08:28:41Z</time>
      </trkpt>
      <trkpt lat="47.37067" lon="-1.85346">
        <ele>68</ele>
        <time>2016-04-24T08:28:43Z</time>
      </trkpt>
      <trkpt lat="47.37069" lon="-1.85342">
        <ele>68</ele>
        <time>2016-04-24T08:28:45Z</time>
      </trkpt>
      <trkpt lat="47.37072" lon="-1.85338">
        <ele>68</ele>
        <time>2016-04-24T08:28:47Z</time>
      </trkpt>
      <trkpt lat="47.37076" lon="-1.85334">
        <ele>67</ele>
        <time>2016-04-24T08:28:49Z</time>
      </trkpt>
      <trkpt lat="47.37079" lon="-1.85329">
        <ele>67</ele>
        <time>2016-04-24T08:28:51Z</time>
      </trkpt>
      <trkpt lat="47.37083" lon="-1.85323">
        <ele>67</ele>
        <time>2016-04-24T08:28:53Z</time>
      </trkpt>
      <trkpt lat="47.37086" lon="-1.85318">
        <ele>67</ele>
        <time>2016-04-24T08:28:55Z</time>
      </trkpt>
      <trkpt lat="47.3709" lon="-1.85313">
        <ele>67</ele>
        <time>2016-04-24T08:28:57Z</time>
      </trkpt>
      <trkpt lat="47.37093" lon="-1.85308">
        <ele>67</ele>
        <time>2016-04-24T08:28:59Z</time>
      </trkpt>
      <trkpt lat="47.37096" lon="-1.85303">
        <ele>67</ele>
        <time>2016-04-24T08:29:01Z</time>
      </trkpt>
      <trkpt lat="47.37099" lon="-1.85299">
        <ele>67</ele>
        <time>2016-04-24T08:29:03Z</time>
      </trkpt>
      <trkpt lat="47.37101" lon="-1.85293">
        <ele>67</ele>
        <time>2016-04-24T08:29:05Z</time>
      </trkpt>
      <trkpt lat="47.37106" lon="-1.85287">
        <ele>67</ele>
        <time>2016-04-24T08:29:07Z</time>
      </trkpt>
      <trkpt lat="47.37108" lon="-1.85283">
        <ele>67</ele>
        <time>2016-04-24T08:29:08Z</time>
      </trkpt>
      <trkpt lat="47.37111" lon="-1.85279">
        <ele>67</ele>
        <time>2016-04-24T08:29:09Z</time>
      </trkpt>
      <trkpt lat="47.37113" lon="-1.85276">
        <ele>67</ele>
        <time>2016-04-24T08:29:10Z</time>
      </trkpt>
      <trkpt lat="47.37116" lon="-1.85273">
        <ele>67</ele>
        <time>2016-04-24T08:29:11Z</time>
      </trkpt>
      <trkpt lat="47.37118" lon="-1.8527">
        <ele>67</ele>
        <time>2016-04-24T08:29:12Z</time>
      </trkpt>
      <trkpt lat="47.3712" lon="-1.85266">
        <ele>67</ele>
        <time>2016-04-24T08:29:13Z</time>
      </trkpt>
      <trkpt lat="47.37122" lon="-1.85263">
        <ele>67</ele>
        <time>2016-04-24T08:29:14Z</time>
      </trkpt>
      <trkpt lat="47.37124" lon="-1.85259">
        <ele>67</ele>
        <time>2016-04-24T08:29:15Z</time>
      </trkpt>
      <trkpt lat="47.37126" lon="-1.85255">
        <ele>67</ele>
        <time>2016-04-24T08:29:16Z</time>
      </trkpt>
      <trkpt lat="47.37128" lon="-1.85251">
        <ele>67</ele>
        <time>2016-04-24T08:29:17Z</time>
      </trkpt>
      <trkpt lat="47.3713" lon="-1.85248">
        <ele>66</ele>
        <time>2016-04-24T08:29:18Z</time>
      </trkpt>
      <trkpt lat="47.37132" lon="-1.85245">
        <ele>66</ele>
        <time>2016-04-24T08:29:19Z</time>
      </trkpt>
      <trkpt lat="47.37135" lon="-1.85241">
        <ele>66</ele>
        <time>2016-04-24T08:29:20Z</time>
      </trkpt>
      <trkpt lat="47.37137" lon="-1.85238">
        <ele>66</ele>
        <time>2016-04-24T08:29:21Z</time>
      </trkpt>
      <trkpt lat="47.37139" lon="-1.85235">
        <ele>66</ele>
        <time>2016-04-24T08:29:22Z</time>
      </trkpt>
      <trkpt lat="47.37141" lon="-1.85232">
        <ele>66</ele>
        <time>2016-04-24T08:29:23Z</time>
      </trkpt>
      <trkpt lat="47.37144" lon="-1.85229">
        <ele>66</ele>
        <time>2016-04-24T08:29:24Z</time>
      </trkpt>
      <trkpt lat="47.37146" lon="-1.85226">
        <ele>66</ele>
        <time>2016-04-24T08:29:25Z</time>
      </trkpt>
      <trkpt lat="47.37148" lon="-1.85223">
        <ele>66</ele>
        <time>2016-04-24T08:29:26Z</time>
      </trkpt>
      <trkpt lat="47.37151" lon="-1.85219">
        <ele>66</ele>
        <time>2016-04-24T08:29:27Z</time>
      </trkpt>
      <trkpt lat="47.37153" lon="-1.85216">
        <ele>66</ele>
        <time>2016-04-24T08:29:28Z</time>
      </trkpt>
      <trkpt lat="47.37155" lon="-1.85213">
        <ele>66</ele>
        <time>2016-04-24T08:29:29Z</time>
      </trkpt>
      <trkpt lat="47.37158" lon="-1.8521">
        <ele>66</ele>
        <time>2016-04-24T08:29:30Z</time>
      </trkpt>
      <trkpt lat="47.3716" lon="-1.85206">
        <ele>66</ele>
        <time>2016-04-24T08:29:31Z</time>
      </trkpt>
      <trkpt lat="47.37162" lon="-1.85203">
        <ele>66</ele>
        <time>2016-04-24T08:29:32Z</time>
      </trkpt>
      <trkpt lat="47.37164" lon="-1.85199">
        <ele>66</ele>
        <time>2016-04-24T08:29:33Z</time>
      </trkpt>
      <trkpt lat="47.37167" lon="-1.85196">
        <ele>66</ele>
        <time>2016-04-24T08:29:34Z</time>
      </trkpt>
      <trkpt lat="47.3717" lon="-1.85192">
        <ele>65</ele>
        <time>2016-04-24T08:29:36Z</time>
      </trkpt>
      <trkpt lat="47.37174" lon="-1.85191">
        <ele>65</ele>
        <time>2016-04-24T08:29:38Z</time>
      </trkpt>
      <trkpt lat="47.37177" lon="-1.85193">
        <ele>65</ele>
        <time>2016-04-24T08:29:39Z</time>
      </trkpt>
      <trkpt lat="47.37179" lon="-1.85196">
        <ele>65</ele>
        <time>2016-04-24T08:29:40Z</time>
      </trkpt>
      <trkpt lat="47.37182" lon="-1.85199">
        <ele>65</ele>
        <time>2016-04-24T08:29:41Z</time>
      </trkpt>
      <trkpt lat="47.37183" lon="-1.85203">
        <ele>65</ele>
        <time>2016-04-24T08:29:42Z</time>
      </trkpt>
      <trkpt lat="47.37185" lon="-1.85206">
        <ele>65</ele>
        <time>2016-04-24T08:29:43Z</time>
      </trkpt>
      <trkpt lat="47.37187" lon="-1.85209">
        <ele>65</ele>
        <time>2016-04-24T08:29:44Z</time>
      </trkpt>
      <trkpt lat="47.37189" lon="-1.85213">
        <ele>65</ele>
        <time>2016-04-24T08:29:45Z</time>
      </trkpt>
      <trkpt lat="47.37191" lon="-1.85216">
        <ele>65</ele>
        <time>2016-04-24T08:29:46Z</time>
      </trkpt>
      <trkpt lat="47.37192" lon="-1.85219">
        <ele>65</ele>
        <time>2016-04-24T08:29:47Z</time>
      </trkpt>
      <trkpt lat="47.37194" lon="-1.85222">
        <ele>65</ele>
        <time>2016-04-24T08:29:48Z</time>
      </trkpt>
      <trkpt lat="47.37196" lon="-1.85229">
        <ele>65</ele>
        <time>2016-04-24T08:29:50Z</time>
      </trkpt>
      <trkpt lat="47.37199" lon="-1.85236">
        <ele>65</ele>
        <time>2016-04-24T08:29:52Z</time>
      </trkpt>
      <trkpt lat="47.37203" lon="-1.85241">
        <ele>65</ele>
        <time>2016-04-24T08:29:54Z</time>
      </trkpt>
      <trkpt lat="47.37206" lon="-1.85247">
        <ele>65</ele>
        <time>2016-04-24T08:29:56Z</time>
      </trkpt>
      <trkpt lat="47.37209" lon="-1.85252">
        <ele>66</ele>
        <time>2016-04-24T08:29:58Z</time>
      </trkpt>
      <trkpt lat="47.37212" lon="-1.85259">
        <ele>66</ele>
        <time>2016-04-24T08:30:00Z</time>
      </trkpt>
      <trkpt lat="47.37216" lon="-1.85264">
        <ele>66</ele>
        <time>2016-04-24T08:30:02Z</time>
      </trkpt>
      <trkpt lat="47.37218" lon="-1.85266">
        <ele>66</ele>
        <time>2016-04-24T08:30:04Z</time>
      </trkpt>
      <trkpt lat="47.37217" lon="-1.8527">
        <ele>66</ele>
        <time>2016-04-24T08:30:07Z</time>
      </trkpt>
      <trkpt lat="47.37213" lon="-1.85267">
        <ele>66</ele>
        <time>2016-04-24T08:30:09Z</time>
      </trkpt>
      <trkpt lat="47.37211" lon="-1.85262">
        <ele>66</ele>
        <time>2016-04-24T08:30:11Z</time>
      </trkpt>
      <trkpt lat="47.37209" lon="-1.85256">
        <ele>66</ele>
        <time>2016-04-24T08:30:13Z</time>
      </trkpt>
      <trkpt lat="47.37207" lon="-1.85252">
        <ele>66</ele>
        <time>2016-04-24T08:30:14Z</time>
      </trkpt>
      <trkpt lat="47.37206" lon="-1.85249">
        <ele>65</ele>
        <time>2016-04-24T08:30:15Z</time>
      </trkpt>
      <trkpt lat="47.37204" lon="-1.85245">
        <ele>65</ele>
        <time>2016-04-24T08:30:16Z</time>
      </trkpt>
      <trkpt lat="47.37202" lon="-1.85241">
        <ele>65</ele>
        <time>2016-04-24T08:30:17Z</time>
      </trkpt>
      <trkpt lat="47.372" lon="-1.85237">
        <ele>65</ele>
        <time>2016-04-24T08:30:18Z</time>
      </trkpt>
      <trkpt lat="47.37197" lon="-1.85233">
        <ele>65</ele>
        <time>2016-04-24T08:30:19Z</time>
      </trkpt>
      <trkpt lat="47.37195" lon="-1.85229">
        <ele>65</ele>
        <time>2016-04-24T08:30:20Z</time>
      </trkpt>
      <trkpt lat="47.37192" lon="-1.85225">
        <ele>65</ele>
        <time>2016-04-24T08:30:21Z</time>
      </trkpt>
      <trkpt lat="47.3719" lon="-1.8522">
        <ele>65</ele>
        <time>2016-04-24T08:30:22Z</time>
      </trkpt>
      <trkpt lat="47.37186" lon="-1.85213">
        <ele>65</ele>
        <time>2016-04-24T08:30:23Z</time>
      </trkpt>
      <trkpt lat="47.37179" lon="-1.85201">
        <ele>65</ele>
        <time>2016-04-24T08:30:24Z</time>
      </trkpt>
      <trkpt lat="47.37176" lon="-1.85194">
        <ele>65</ele>
        <time>2016-04-24T08:30:25Z</time>
      </trkpt>
      <trkpt lat="47.37174" lon="-1.85189">
        <ele>65</ele>
        <time>2016-04-24T08:30:26Z</time>
      </trkpt>
      <trkpt lat="47.37171" lon="-1.85183">
        <ele>65</ele>
        <time>2016-04-24T08:30:27Z</time>
      </trkpt>
      <trkpt lat="47.37166" lon="-1.85175">
        <ele>65</ele>
        <time>2016-04-24T08:30:28Z</time>
      </trkpt>
      <trkpt lat="47.37162" lon="-1.85168">
        <ele>65</ele>
        <time>2016-04-24T08:30:29Z</time>
      </trkpt>
      <trkpt lat="47.37159" lon="-1.85161">
        <ele>65</ele>
        <time>2016-04-24T08:30:30Z</time>
      </trkpt>
      <trkpt lat="47.37156" lon="-1.85152">
        <ele>64</ele>
        <time>2016-04-24T08:30:31Z</time>
      </trkpt>
      <trkpt lat="47.37156" lon="-1.85144">
        <ele>64</ele>
        <time>2016-04-24T08:30:32Z</time>
      </trkpt>
      <trkpt lat="47.37156" lon="-1.85132">
        <ele>64</ele>
        <time>2016-04-24T08:30:33Z</time>
      </trkpt>
      <trkpt lat="47.37162" lon="-1.85127">
        <ele>64</ele>
        <time>2016-04-24T08:30:34Z</time>
      </trkpt>
      <trkpt lat="47.37165" lon="-1.85113">
        <ele>64</ele>
        <time>2016-04-24T08:30:36Z</time>
      </trkpt>
      <trkpt lat="47.37168" lon="-1.85108">
        <ele>64</ele>
        <time>2016-04-24T08:30:37Z</time>
      </trkpt>
      <trkpt lat="47.37171" lon="-1.851">
        <ele>64</ele>
        <time>2016-04-24T08:30:38Z</time>
      </trkpt>
      <trkpt lat="47.37175" lon="-1.85093">
        <ele>64</ele>
        <time>2016-04-24T08:30:39Z</time>
      </trkpt>
      <trkpt lat="47.37176" lon="-1.85085">
        <ele>64</ele>
        <time>2016-04-24T08:30:40Z</time>
      </trkpt>
      <trkpt lat="47.37179" lon="-1.8508">
        <ele>63</ele>
        <time>2016-04-24T08:30:41Z</time>
      </trkpt>
      <trkpt lat="47.37181" lon="-1.85074">
        <ele>63</ele>
        <time>2016-04-24T08:30:42Z</time>
      </trkpt>
      <trkpt lat="47.37182" lon="-1.85063">
        <ele>63</ele>
        <time>2016-04-24T08:30:43Z</time>
      </trkpt>
      <trkpt lat="47.3718" lon="-1.85054">
        <ele>63</ele>
        <time>2016-04-24T08:30:44Z</time>
      </trkpt>
      <trkpt lat="47.3718" lon="-1.85046">
        <ele>63</ele>
        <time>2016-04-24T08:30:45Z</time>
      </trkpt>
      <trkpt lat="47.37176" lon="-1.85041">
        <ele>63</ele>
        <time>2016-04-24T08:30:46Z</time>
      </trkpt>
      <trkpt lat="47.37174" lon="-1.85033">
        <ele>63</ele>
        <time>2016-04-24T08:30:47Z</time>
      </trkpt>
      <trkpt lat="47.3717" lon="-1.85027">
        <ele>62</ele>
        <time>2016-04-24T08:30:48Z</time>
      </trkpt>
      <trkpt lat="47.37164" lon="-1.85019">
        <ele>60</ele>
        <time>2016-04-24T08:30:49Z</time>
      </trkpt>
      <trkpt lat="47.37162" lon="-1.85014">
        <ele>60</ele>
        <time>2016-04-24T08:30:50Z</time>
      </trkpt>
      <trkpt lat="47.3716" lon="-1.85008">
        <ele>60</ele>
        <time>2016-04-24T08:30:51Z</time>
      </trkpt>
      <trkpt lat="47.37159" lon="-1.85001">
        <ele>60</ele>
        <time>2016-04-24T08:30:52Z</time>
      </trkpt>
      <trkpt lat="47.37158" lon="-1.84992">
        <ele>59</ele>
        <time>2016-04-24T08:30:53Z</time>
      </trkpt>
      <trkpt lat="47.37156" lon="-1.84982">
        <ele>59</ele>
        <time>2016-04-24T08:30:54Z</time>
      </trkpt>
      <trkpt lat="47.37158" lon="-1.84972">
        <ele>59</ele>
        <time>2016-04-24T08:30:55Z</time>
      </trkpt>
      <trkpt lat="47.3716" lon="-1.84963">
        <ele>58</ele>
        <time>2016-04-24T08:30:56Z</time>
      </trkpt>
      <trkpt lat="47.37165" lon="-1.84955">
        <ele>58</ele>
        <time>2016-04-24T08:30:57Z</time>
      </trkpt>
      <trkpt lat="47.3717" lon="-1.84948">
        <ele>60</ele>
        <time>2016-04-24T08:30:58Z</time>
      </trkpt>
      <trkpt lat="47.37175" lon="-1.84943">
        <ele>60</ele>
        <time>2016-04-24T08:30:59Z</time>
      </trkpt>
      <trkpt lat="47.37182" lon="-1.84938">
        <ele>60</ele>
        <time>2016-04-24T08:31:00Z</time>
      </trkpt>
      <trkpt lat="47.37188" lon="-1.84932">
        <ele>60</ele>
        <time>2016-04-24T08:31:01Z</time>
      </trkpt>
      <trkpt lat="47.37193" lon="-1.84927">
        <ele>60</ele>
        <time>2016-04-24T08:31:02Z</time>
      </trkpt>
      <trkpt lat="47.37198" lon="-1.84924">
        <ele>60</ele>
        <time>2016-04-24T08:31:03Z</time>
      </trkpt>
      <trkpt lat="47.37202" lon="-1.84916">
        <ele>58</ele>
        <time>2016-04-24T08:31:04Z</time>
      </trkpt>
      <trkpt lat="47.37207" lon="-1.84911">
        <ele>59</ele>
        <time>2016-04-24T08:31:05Z</time>
      </trkpt>
      <trkpt lat="47.37213" lon="-1.84904">
        <ele>59</ele>
        <time>2016-04-24T08:31:06Z</time>
      </trkpt>
      <trkpt lat="47.37219" lon="-1.84899">
        <ele>59</ele>
        <time>2016-04-24T08:31:07Z</time>
      </trkpt>
      <trkpt lat="47.37225" lon="-1.84895">
        <ele>59</ele>
        <time>2016-04-24T08:31:08Z</time>
      </trkpt>
      <trkpt lat="47.37231" lon="-1.84889">
        <ele>59</ele>
        <time>2016-04-24T08:31:09Z</time>
      </trkpt>
      <trkpt lat="47.37237" lon="-1.84885">
        <ele>59</ele>
        <time>2016-04-24T08:31:10Z</time>
      </trkpt>
      <trkpt lat="47.37242" lon="-1.84881">
        <ele>59</ele>
        <time>2016-04-24T08:31:11Z</time>
      </trkpt>
      <trkpt lat="47.37248" lon="-1.84877">
        <ele>59</ele>
        <time>2016-04-24T08:31:12Z</time>
      </trkpt>
      <trkpt lat="47.37253" lon="-1.84876">
        <ele>62</ele>
        <time>2016-04-24T08:31:13Z</time>
      </trkpt>
      <trkpt lat="47.37258" lon="-1.84873">
        <ele>62</ele>
        <time>2016-04-24T08:31:14Z</time>
      </trkpt>
      <trkpt lat="47.37263" lon="-1.84872">
        <ele>62</ele>
        <time>2016-04-24T08:31:15Z</time>
      </trkpt>
      <trkpt lat="47.37268" lon="-1.84871">
        <ele>62</ele>
        <time>2016-04-24T08:31:16Z</time>
      </trkpt>
      <trkpt lat="47.37276" lon="-1.84867">
        <ele>62</ele>
        <time>2016-04-24T08:31:17Z</time>
      </trkpt>
      <trkpt lat="47.37284" lon="-1.84863">
        <ele>62</ele>
        <time>2016-04-24T08:31:18Z</time>
      </trkpt>
      <trkpt lat="47.37288" lon="-1.84866">
        <ele>62</ele>
        <time>2016-04-24T08:31:19Z</time>
      </trkpt>
      <trkpt lat="47.37293" lon="-1.84865">
        <ele>62</ele>
        <time>2016-04-24T08:31:20Z</time>
      </trkpt>
      <trkpt lat="47.37299" lon="-1.84862">
        <ele>62</ele>
        <time>2016-04-24T08:31:21Z</time>
      </trkpt>
      <trkpt lat="47.37306" lon="-1.84861">
        <ele>62</ele>
        <time>2016-04-24T08:31:22Z</time>
      </trkpt>
      <trkpt lat="47.37312" lon="-1.8486">
        <ele>62</ele>
        <time>2016-04-24T08:31:23Z</time>
      </trkpt>
      <trkpt lat="47.37317" lon="-1.84858">
        <ele>62</ele>
        <time>2016-04-24T08:31:24Z</time>
      </trkpt>
      <trkpt lat="47.37322" lon="-1.84859">
        <ele>63</ele>
        <time>2016-04-24T08:31:25Z</time>
      </trkpt>
      <trkpt lat="47.37325" lon="-1.84862">
        <ele>63</ele>
        <time>2016-04-24T08:31:26Z</time>
      </trkpt>
      <trkpt lat="47.3733" lon="-1.84862">
        <ele>63</ele>
        <time>2016-04-24T08:31:27Z</time>
      </trkpt>
      <trkpt lat="47.37337" lon="-1.8486">
        <ele>64</ele>
        <time>2016-04-24T08:31:28Z</time>
      </trkpt>
      <trkpt lat="47.37341" lon="-1.84859">
        <ele>64</ele>
        <time>2016-04-24T08:31:29Z</time>
      </trkpt>
      <trkpt lat="47.37344" lon="-1.84859">
        <ele>65</ele>
        <time>2016-04-24T08:31:30Z</time>
      </trkpt>
      <trkpt lat="47.37349" lon="-1.84859">
        <ele>65</ele>
        <time>2016-04-24T08:31:31Z</time>
      </trkpt>
      <trkpt lat="47.37357" lon="-1.84854">
        <ele>65</ele>
        <time>2016-04-24T08:31:32Z</time>
      </trkpt>
      <trkpt lat="47.37363" lon="-1.84854">
        <ele>65</ele>
        <time>2016-04-24T08:31:33Z</time>
      </trkpt>
      <trkpt lat="47.37366" lon="-1.84858">
        <ele>65</ele>
        <time>2016-04-24T08:31:35Z</time>
      </trkpt>
      <trkpt lat="47.37369" lon="-1.84857">
        <ele>65</ele>
        <time>2016-04-24T08:31:36Z</time>
      </trkpt>
      <trkpt lat="47.37373" lon="-1.84855">
        <ele>65</ele>
        <time>2016-04-24T08:31:37Z</time>
      </trkpt>
      <trkpt lat="47.37378" lon="-1.84854">
        <ele>65</ele>
        <time>2016-04-24T08:31:38Z</time>
      </trkpt>
      <trkpt lat="47.37383" lon="-1.84853">
        <ele>66</ele>
        <time>2016-04-24T08:31:39Z</time>
      </trkpt>
      <trkpt lat="47.37387" lon="-1.8485">
        <ele>66</ele>
        <time>2016-04-24T08:31:40Z</time>
      </trkpt>
      <trkpt lat="47.37391" lon="-1.84849">
        <ele>66</ele>
        <time>2016-04-24T08:31:41Z</time>
      </trkpt>
      <trkpt lat="47.37395" lon="-1.84851">
        <ele>66</ele>
        <time>2016-04-24T08:31:42Z</time>
      </trkpt>
      <trkpt lat="47.37399" lon="-1.84851">
        <ele>66</ele>
        <time>2016-04-24T08:31:43Z</time>
      </trkpt>
      <trkpt lat="47.37404" lon="-1.84851">
        <ele>66</ele>
        <time>2016-04-24T08:31:44Z</time>
      </trkpt>
      <trkpt lat="47.37407" lon="-1.84851">
        <ele>66</ele>
        <time>2016-04-24T08:31:45Z</time>
      </trkpt>
      <trkpt lat="47.37411" lon="-1.84851">
        <ele>66</ele>
        <time>2016-04-24T08:31:46Z</time>
      </trkpt>
      <trkpt lat="47.37415" lon="-1.84851">
        <ele>66</ele>
        <time>2016-04-24T08:31:47Z</time>
      </trkpt>
      <trkpt lat="47.37419" lon="-1.84851">
        <ele>68</ele>
        <time>2016-04-24T08:31:48Z</time>
      </trkpt>
      <trkpt lat="47.37422" lon="-1.8485">
        <ele>68</ele>
        <time>2016-04-24T08:31:49Z</time>
      </trkpt>
      <trkpt lat="47.37425" lon="-1.8485">
        <ele>68</ele>
        <time>2016-04-24T08:31:50Z</time>
      </trkpt>
      <trkpt lat="47.37429" lon="-1.8485">
        <ele>68</ele>
        <time>2016-04-24T08:31:51Z</time>
      </trkpt>
      <trkpt lat="47.37432" lon="-1.8485">
        <ele>68</ele>
        <time>2016-04-24T08:31:52Z</time>
      </trkpt>
      <trkpt lat="47.37435" lon="-1.8485">
        <ele>68</ele>
        <time>2016-04-24T08:31:53Z</time>
      </trkpt>
      <trkpt lat="47.37438" lon="-1.8485">
        <ele>68</ele>
        <time>2016-04-24T08:31:54Z</time>
      </trkpt>
      <trkpt lat="47.37441" lon="-1.84851">
        <ele>68</ele>
        <time>2016-04-24T08:31:55Z</time>
      </trkpt>
      <trkpt lat="47.37444" lon="-1.84851">
        <ele>69</ele>
        <time>2016-04-24T08:31:56Z</time>
      </trkpt>
      <trkpt lat="47.37446" lon="-1.84851">
        <ele>69</ele>
        <time>2016-04-24T08:31:57Z</time>
      </trkpt>
      <trkpt lat="47.37449" lon="-1.84852">
        <ele>69</ele>
        <time>2016-04-24T08:31:58Z</time>
      </trkpt>
      <trkpt lat="47.37452" lon="-1.84852">
        <ele>69</ele>
        <time>2016-04-24T08:31:59Z</time>
      </trkpt>
      <trkpt lat="47.37455" lon="-1.84852">
        <ele>69</ele>
        <time>2016-04-24T08:32:00Z</time>
      </trkpt>
      <trkpt lat="47.37458" lon="-1.84852">
        <ele>69</ele>
        <time>2016-04-24T08:32:01Z</time>
      </trkpt>
      <trkpt lat="47.37461" lon="-1.84851">
        <ele>69</ele>
        <time>2016-04-24T08:32:02Z</time>
      </trkpt>
      <trkpt lat="47.37464" lon="-1.8485">
        <ele>69</ele>
        <time>2016-04-24T08:32:03Z</time>
      </trkpt>
      <trkpt lat="47.37467" lon="-1.84849">
        <ele>69</ele>
        <time>2016-04-24T08:32:04Z</time>
      </trkpt>
      <trkpt lat="47.37472" lon="-1.84848">
        <ele>69</ele>
        <time>2016-04-24T08:32:06Z</time>
      </trkpt>
      <trkpt lat="47.37476" lon="-1.84846">
        <ele>70</ele>
        <time>2016-04-24T08:32:08Z</time>
      </trkpt>
      <trkpt lat="47.3748" lon="-1.84842">
        <ele>70</ele>
        <time>2016-04-24T08:32:10Z</time>
      </trkpt>
      <trkpt lat="47.37483" lon="-1.8484">
        <ele>70</ele>
        <time>2016-04-24T08:32:11Z</time>
      </trkpt>
      <trkpt lat="47.37486" lon="-1.84837">
        <ele>70</ele>
        <time>2016-04-24T08:32:12Z</time>
      </trkpt>
      <trkpt lat="47.37489" lon="-1.84834">
        <ele>70</ele>
        <time>2016-04-24T08:32:13Z</time>
      </trkpt>
      <trkpt lat="47.37492" lon="-1.84831">
        <ele>69</ele>
        <time>2016-04-24T08:32:14Z</time>
      </trkpt>
      <trkpt lat="47.37496" lon="-1.84827">
        <ele>69</ele>
        <time>2016-04-24T08:32:15Z</time>
      </trkpt>
      <trkpt lat="47.37501" lon="-1.84824">
        <ele>70</ele>
        <time>2016-04-24T08:32:16Z</time>
      </trkpt>
      <trkpt lat="47.37505" lon="-1.84821">
        <ele>70</ele>
        <time>2016-04-24T08:32:17Z</time>
      </trkpt>
      <trkpt lat="47.3751" lon="-1.84817">
        <ele>69</ele>
        <time>2016-04-24T08:32:18Z</time>
      </trkpt>
      <trkpt lat="47.37514" lon="-1.84813">
        <ele>69</ele>
        <time>2016-04-24T08:32:19Z</time>
      </trkpt>
      <trkpt lat="47.37518" lon="-1.8481">
        <ele>69</ele>
        <time>2016-04-24T08:32:20Z</time>
      </trkpt>
      <trkpt lat="47.37521" lon="-1.84806">
        <ele>69</ele>
        <time>2016-04-24T08:32:21Z</time>
      </trkpt>
      <trkpt lat="47.37525" lon="-1.84803">
        <ele>69</ele>
        <time>2016-04-24T08:32:22Z</time>
      </trkpt>
      <trkpt lat="47.37528" lon="-1.848">
        <ele>69</ele>
        <time>2016-04-24T08:32:23Z</time>
      </trkpt>
      <trkpt lat="47.37531" lon="-1.84797">
        <ele>69</ele>
        <time>2016-04-24T08:32:24Z</time>
      </trkpt>
      <trkpt lat="47.37534" lon="-1.84794">
        <ele>69</ele>
        <time>2016-04-24T08:32:25Z</time>
      </trkpt>
      <trkpt lat="47.37538" lon="-1.84791">
        <ele>69</ele>
        <time>2016-04-24T08:32:26Z</time>
      </trkpt>
      <trkpt lat="47.37542" lon="-1.84788">
        <ele>69</ele>
        <time>2016-04-24T08:32:27Z</time>
      </trkpt>
      <trkpt lat="47.37545" lon="-1.84785">
        <ele>69</ele>
        <time>2016-04-24T08:32:28Z</time>
      </trkpt>
      <trkpt lat="47.37549" lon="-1.84781">
        <ele>69</ele>
        <time>2016-04-24T08:32:29Z</time>
      </trkpt>
      <trkpt lat="47.37553" lon="-1.84778">
        <ele>69</ele>
        <time>2016-04-24T08:32:30Z</time>
      </trkpt>
      <trkpt lat="47.37557" lon="-1.84775">
        <ele>69</ele>
        <time>2016-04-24T08:32:31Z</time>
      </trkpt>
      <trkpt lat="47.3756" lon="-1.8477">
        <ele>69</ele>
        <time>2016-04-24T08:32:32Z</time>
      </trkpt>
      <trkpt lat="47.37564" lon="-1.84766">
        <ele>69</ele>
        <time>2016-04-24T08:32:33Z</time>
      </trkpt>
      <trkpt lat="47.37568" lon="-1.8476">
        <ele>70</ele>
        <time>2016-04-24T08:32:34Z</time>
      </trkpt>
      <trkpt lat="47.37573" lon="-1.84748">
        <ele>69</ele>
        <time>2016-04-24T08:32:35Z</time>
      </trkpt>
      <trkpt lat="47.37575" lon="-1.84744">
        <ele>69</ele>
        <time>2016-04-24T08:32:36Z</time>
      </trkpt>
      <trkpt lat="47.37577" lon="-1.84738">
        <ele>69</ele>
        <time>2016-04-24T08:32:37Z</time>
      </trkpt>
      <trkpt lat="47.37579" lon="-1.84733">
        <ele>69</ele>
        <time>2016-04-24T08:32:38Z</time>
      </trkpt>
      <trkpt lat="47.37581" lon="-1.84727">
        <ele>69</ele>
        <time>2016-04-24T08:32:39Z</time>
      </trkpt>
      <trkpt lat="47.37585" lon="-1.84719">
        <ele>70</ele>
        <time>2016-04-24T08:32:40Z</time>
      </trkpt>
      <trkpt lat="47.37587" lon="-1.84714">
        <ele>70</ele>
        <time>2016-04-24T08:32:41Z</time>
      </trkpt>
      <trkpt lat="47.37589" lon="-1.84707">
        <ele>70</ele>
        <time>2016-04-24T08:32:42Z</time>
      </trkpt>
      <trkpt lat="47.37593" lon="-1.84699">
        <ele>70</ele>
        <time>2016-04-24T08:32:43Z</time>
      </trkpt>
      <trkpt lat="47.37595" lon="-1.84691">
        <ele>70</ele>
        <time>2016-04-24T08:32:44Z</time>
      </trkpt>
      <trkpt lat="47.37596" lon="-1.84685">
        <ele>70</ele>
        <time>2016-04-24T08:32:45Z</time>
      </trkpt>
      <trkpt lat="47.37599" lon="-1.84678">
        <ele>70</ele>
        <time>2016-04-24T08:32:46Z</time>
      </trkpt>
      <trkpt lat="47.37604" lon="-1.84671">
        <ele>70</ele>
        <time>2016-04-24T08:32:47Z</time>
      </trkpt>
      <trkpt lat="47.37607" lon="-1.84664">
        <ele>69</ele>
        <time>2016-04-24T08:32:48Z</time>
      </trkpt>
      <trkpt lat="47.3761" lon="-1.84656">
        <ele>69</ele>
        <time>2016-04-24T08:32:49Z</time>
      </trkpt>
      <trkpt lat="47.37613" lon="-1.84648">
        <ele>69</ele>
        <time>2016-04-24T08:32:50Z</time>
      </trkpt>
      <trkpt lat="47.37619" lon="-1.84639">
        <ele>69</ele>
        <time>2016-04-24T08:32:51Z</time>
      </trkpt>
      <trkpt lat="47.37621" lon="-1.84633">
        <ele>69</ele>
        <time>2016-04-24T08:32:52Z</time>
      </trkpt>
      <trkpt lat="47.37622" lon="-1.84627">
        <ele>68</ele>
        <time>2016-04-24T08:32:53Z</time>
      </trkpt>
      <trkpt lat="47.37628" lon="-1.84619">
        <ele>68</ele>
        <time>2016-04-24T08:32:54Z</time>
      </trkpt>
      <trkpt lat="47.37632" lon="-1.84612">
        <ele>68</ele>
        <time>2016-04-24T08:32:55Z</time>
      </trkpt>
      <trkpt lat="47.37636" lon="-1.84608">
        <ele>68</ele>
        <time>2016-04-24T08:32:56Z</time>
      </trkpt>
      <trkpt lat="47.37638" lon="-1.84603">
        <ele>68</ele>
        <time>2016-04-24T08:32:57Z</time>
      </trkpt>
      <trkpt lat="47.37642" lon="-1.84596">
        <ele>69</ele>
        <time>2016-04-24T08:32:58Z</time>
      </trkpt>
      <trkpt lat="47.37645" lon="-1.84589">
        <ele>69</ele>
        <time>2016-04-24T08:32:59Z</time>
      </trkpt>
      <trkpt lat="47.37651" lon="-1.84583">
        <ele>67</ele>
        <time>2016-04-24T08:33:00Z</time>
      </trkpt>
      <trkpt lat="47.37655" lon="-1.84578">
        <ele>68</ele>
        <time>2016-04-24T08:33:01Z</time>
      </trkpt>
      <trkpt lat="47.37657" lon="-1.84572">
        <ele>67</ele>
        <time>2016-04-24T08:33:02Z</time>
      </trkpt>
      <trkpt lat="47.3766" lon="-1.84566">
        <ele>67</ele>
        <time>2016-04-24T08:33:03Z</time>
      </trkpt>
      <trkpt lat="47.37664" lon="-1.8456">
        <ele>67</ele>
        <time>2016-04-24T08:33:04Z</time>
      </trkpt>
      <trkpt lat="47.37667" lon="-1.84553">
        <ele>68</ele>
        <time>2016-04-24T08:33:05Z</time>
      </trkpt>
      <trkpt lat="47.3767" lon="-1.84546">
        <ele>68</ele>
        <time>2016-04-24T08:33:06Z</time>
      </trkpt>
      <trkpt lat="47.37673" lon="-1.84541">
        <ele>68</ele>
        <time>2016-04-24T08:33:07Z</time>
      </trkpt>
      <trkpt lat="47.37677" lon="-1.84535">
        <ele>68</ele>
        <time>2016-04-24T08:33:08Z</time>
      </trkpt>
      <trkpt lat="47.3768" lon="-1.8453">
        <ele>68</ele>
        <time>2016-04-24T08:33:09Z</time>
      </trkpt>
      <trkpt lat="47.37684" lon="-1.84523">
        <ele>67</ele>
        <time>2016-04-24T08:33:10Z</time>
      </trkpt>
      <trkpt lat="47.37688" lon="-1.84517">
        <ele>67</ele>
        <time>2016-04-24T08:33:11Z</time>
      </trkpt>
      <trkpt lat="47.37691" lon="-1.8451">
        <ele>67</ele>
        <time>2016-04-24T08:33:12Z</time>
      </trkpt>
      <trkpt lat="47.37695" lon="-1.84504">
        <ele>67</ele>
        <time>2016-04-24T08:33:13Z</time>
      </trkpt>
      <trkpt lat="47.37699" lon="-1.84498">
        <ele>66</ele>
        <time>2016-04-24T08:33:14Z</time>
      </trkpt>
      <trkpt lat="47.37703" lon="-1.84493">
        <ele>66</ele>
        <time>2016-04-24T08:33:15Z</time>
      </trkpt>
      <trkpt lat="47.37706" lon="-1.84488">
        <ele>66</ele>
        <time>2016-04-24T08:33:16Z</time>
      </trkpt>
      <trkpt lat="47.37711" lon="-1.84483">
        <ele>66</ele>
        <time>2016-04-24T08:33:17Z</time>
      </trkpt>
      <trkpt lat="47.37715" lon="-1.84479">
        <ele>66</ele>
        <time>2016-04-24T08:33:18Z</time>
      </trkpt>
      <trkpt lat="47.3772" lon="-1.84474">
        <ele>66</ele>
        <time>2016-04-24T08:33:19Z</time>
      </trkpt>
      <trkpt lat="47.37724" lon="-1.8447">
        <ele>66</ele>
        <time>2016-04-24T08:33:20Z</time>
      </trkpt>
      <trkpt lat="47.37729" lon="-1.84465">
        <ele>66</ele>
        <time>2016-04-24T08:33:21Z</time>
      </trkpt>
      <trkpt lat="47.37734" lon="-1.8446">
        <ele>66</ele>
        <time>2016-04-24T08:33:22Z</time>
      </trkpt>
      <trkpt lat="47.37738" lon="-1.84457">
        <ele>66</ele>
        <time>2016-04-24T08:33:23Z</time>
      </trkpt>
      <trkpt lat="47.37742" lon="-1.84452">
        <ele>66</ele>
        <time>2016-04-24T08:33:24Z</time>
      </trkpt>
      <trkpt lat="47.37745" lon="-1.84447">
        <ele>66</ele>
        <time>2016-04-24T08:33:25Z</time>
      </trkpt>
      <trkpt lat="47.3775" lon="-1.84444">
        <ele>66</ele>
        <time>2016-04-24T08:33:26Z</time>
      </trkpt>
      <trkpt lat="47.37755" lon="-1.8444">
        <ele>66</ele>
        <time>2016-04-24T08:33:27Z</time>
      </trkpt>
      <trkpt lat="47.37762" lon="-1.84435">
        <ele>66</ele>
        <time>2016-04-24T08:33:28Z</time>
      </trkpt>
      <trkpt lat="47.37767" lon="-1.8443">
        <ele>66</ele>
        <time>2016-04-24T08:33:29Z</time>
      </trkpt>
      <trkpt lat="47.37773" lon="-1.84427">
        <ele>66</ele>
        <time>2016-04-24T08:33:30Z</time>
      </trkpt>
      <trkpt lat="47.37777" lon="-1.84424">
        <ele>66</ele>
        <time>2016-04-24T08:33:31Z</time>
      </trkpt>
      <trkpt lat="47.37782" lon="-1.84422">
        <ele>66</ele>
        <time>2016-04-24T08:33:32Z</time>
      </trkpt>
      <trkpt lat="47.37786" lon="-1.84419">
        <ele>65</ele>
        <time>2016-04-24T08:33:33Z</time>
      </trkpt>
      <trkpt lat="47.37791" lon="-1.84413">
        <ele>64</ele>
        <time>2016-04-24T08:33:34Z</time>
      </trkpt>
      <trkpt lat="47.37797" lon="-1.84408">
        <ele>64</ele>
        <time>2016-04-24T08:33:35Z</time>
      </trkpt>
      <trkpt lat="47.37802" lon="-1.84405">
        <ele>64</ele>
        <time>2016-04-24T08:33:36Z</time>
      </trkpt>
      <trkpt lat="47.37806" lon="-1.84403">
        <ele>64</ele>
        <time>2016-04-24T08:33:37Z</time>
      </trkpt>
      <trkpt lat="47.37811" lon="-1.84404">
        <ele>64</ele>
        <time>2016-04-24T08:33:38Z</time>
      </trkpt>
      <trkpt lat="47.37814" lon="-1.84406">
        <ele>64</ele>
        <time>2016-04-24T08:33:39Z</time>
      </trkpt>
      <trkpt lat="47.37817" lon="-1.84411">
        <ele>64</ele>
        <time>2016-04-24T08:33:40Z</time>
      </trkpt>
      <trkpt lat="47.37822" lon="-1.84414">
        <ele>64</ele>
        <time>2016-04-24T08:33:41Z</time>
      </trkpt>
      <trkpt lat="47.37825" lon="-1.84418">
        <ele>65</ele>
        <time>2016-04-24T08:33:42Z</time>
      </trkpt>
      <trkpt lat="47.37827" lon="-1.84423">
        <ele>65</ele>
        <time>2016-04-24T08:33:43Z</time>
      </trkpt>
      <trkpt lat="47.37829" lon="-1.84428">
        <ele>65</ele>
        <time>2016-04-24T08:33:44Z</time>
      </trkpt>
      <trkpt lat="47.37832" lon="-1.84434">
        <ele>65</ele>
        <time>2016-04-24T08:33:45Z</time>
      </trkpt>
      <trkpt lat="47.37833" lon="-1.8444">
        <ele>65</ele>
        <time>2016-04-24T08:33:46Z</time>
      </trkpt>
      <trkpt lat="47.37835" lon="-1.84445">
        <ele>65</ele>
        <time>2016-04-24T08:33:47Z</time>
      </trkpt>
      <trkpt lat="47.37836" lon="-1.84452">
        <ele>65</ele>
        <time>2016-04-24T08:33:48Z</time>
      </trkpt>
      <trkpt lat="47.37837" lon="-1.84457">
        <ele>65</ele>
        <time>2016-04-24T08:33:49Z</time>
      </trkpt>
      <trkpt lat="47.37838" lon="-1.84462">
        <ele>66</ele>
        <time>2016-04-24T08:33:50Z</time>
      </trkpt>
      <trkpt lat="47.37839" lon="-1.84468">
        <ele>66</ele>
        <time>2016-04-24T08:33:51Z</time>
      </trkpt>
      <trkpt lat="47.37841" lon="-1.84473">
        <ele>66</ele>
        <time>2016-04-24T08:33:52Z</time>
      </trkpt>
      <trkpt lat="47.37842" lon="-1.84478">
        <ele>66</ele>
        <time>2016-04-24T08:33:53Z</time>
      </trkpt>
      <trkpt lat="47.37844" lon="-1.84483">
        <ele>66</ele>
        <time>2016-04-24T08:33:54Z</time>
      </trkpt>
      <trkpt lat="47.37845" lon="-1.84489">
        <ele>66</ele>
        <time>2016-04-24T08:33:55Z</time>
      </trkpt>
      <trkpt lat="47.37847" lon="-1.84494">
        <ele>66</ele>
        <time>2016-04-24T08:33:56Z</time>
      </trkpt>
      <trkpt lat="47.37848" lon="-1.84499">
        <ele>66</ele>
        <time>2016-04-24T08:33:57Z</time>
      </trkpt>
      <trkpt lat="47.3785" lon="-1.84504">
        <ele>67</ele>
        <time>2016-04-24T08:33:58Z</time>
      </trkpt>
      <trkpt lat="47.37853" lon="-1.84515">
        <ele>66</ele>
        <time>2016-04-24T08:34:00Z</time>
      </trkpt>
      <trkpt lat="47.37855" lon="-1.84521">
        <ele>66</ele>
        <time>2016-04-24T08:34:01Z</time>
      </trkpt>
      <trkpt lat="47.37856" lon="-1.84527">
        <ele>66</ele>
        <time>2016-04-24T08:34:02Z</time>
      </trkpt>
      <trkpt lat="47.37857" lon="-1.84535">
        <ele>66</ele>
        <time>2016-04-24T08:34:03Z</time>
      </trkpt>
      <trkpt lat="47.37859" lon="-1.84541">
        <ele>66</ele>
        <time>2016-04-24T08:34:04Z</time>
      </trkpt>
      <trkpt lat="47.3786" lon="-1.84547">
        <ele>66</ele>
        <time>2016-04-24T08:34:05Z</time>
      </trkpt>
      <trkpt lat="47.37863" lon="-1.84553">
        <ele>66</ele>
        <time>2016-04-24T08:34:06Z</time>
      </trkpt>
      <trkpt lat="47.37865" lon="-1.84558">
        <ele>66</ele>
        <time>2016-04-24T08:34:07Z</time>
      </trkpt>
      <trkpt lat="47.37867" lon="-1.84565">
        <ele>66</ele>
        <time>2016-04-24T08:34:08Z</time>
      </trkpt>
      <trkpt lat="47.37869" lon="-1.84572">
        <ele>66</ele>
        <time>2016-04-24T08:34:09Z</time>
      </trkpt>
      <trkpt lat="47.37871" lon="-1.84579">
        <ele>66</ele>
        <time>2016-04-24T08:34:10Z</time>
      </trkpt>
      <trkpt lat="47.37872" lon="-1.84587">
        <ele>65</ele>
        <time>2016-04-24T08:34:11Z</time>
      </trkpt>
      <trkpt lat="47.37873" lon="-1.84595">
        <ele>65</ele>
        <time>2016-04-24T08:34:12Z</time>
      </trkpt>
      <trkpt lat="47.37876" lon="-1.84601">
        <ele>65</ele>
        <time>2016-04-24T08:34:13Z</time>
      </trkpt>
      <trkpt lat="47.37877" lon="-1.84608">
        <ele>65</ele>
        <time>2016-04-24T08:34:14Z</time>
      </trkpt>
      <trkpt lat="47.37881" lon="-1.84616">
        <ele>65</ele>
        <time>2016-04-24T08:34:15Z</time>
      </trkpt>
      <trkpt lat="47.37883" lon="-1.84623">
        <ele>65</ele>
        <time>2016-04-24T08:34:16Z</time>
      </trkpt>
      <trkpt lat="47.37886" lon="-1.8463">
        <ele>65</ele>
        <time>2016-04-24T08:34:17Z</time>
      </trkpt>
      <trkpt lat="47.37889" lon="-1.84638">
        <ele>65</ele>
        <time>2016-04-24T08:34:18Z</time>
      </trkpt>
      <trkpt lat="47.37891" lon="-1.84645">
        <ele>65</ele>
        <time>2016-04-24T08:34:19Z</time>
      </trkpt>
      <trkpt lat="47.37893" lon="-1.84653">
        <ele>65</ele>
        <time>2016-04-24T08:34:20Z</time>
      </trkpt>
      <trkpt lat="47.37897" lon="-1.84662">
        <ele>64</ele>
        <time>2016-04-24T08:34:21Z</time>
      </trkpt>
      <trkpt lat="47.37903" lon="-1.84671">
        <ele>64</ele>
        <time>2016-04-24T08:34:22Z</time>
      </trkpt>
      <trkpt lat="47.37906" lon="-1.8468">
        <ele>64</ele>
        <time>2016-04-24T08:34:23Z</time>
      </trkpt>
      <trkpt lat="47.37912" lon="-1.84689">
        <ele>63</ele>
        <time>2016-04-24T08:34:24Z</time>
      </trkpt>
      <trkpt lat="47.37917" lon="-1.84698">
        <ele>60</ele>
        <time>2016-04-24T08:34:25Z</time>
      </trkpt>
      <trkpt lat="47.37922" lon="-1.84706">
        <ele>59</ele>
        <time>2016-04-24T08:34:26Z</time>
      </trkpt>
      <trkpt lat="47.37928" lon="-1.84715">
        <ele>59</ele>
        <time>2016-04-24T08:34:27Z</time>
      </trkpt>
      <trkpt lat="47.37932" lon="-1.84724">
        <ele>59</ele>
        <time>2016-04-24T08:34:28Z</time>
      </trkpt>
      <trkpt lat="47.37935" lon="-1.84733">
        <ele>59</ele>
        <time>2016-04-24T08:34:29Z</time>
      </trkpt>
      <trkpt lat="47.37937" lon="-1.84743">
        <ele>59</ele>
        <time>2016-04-24T08:34:30Z</time>
      </trkpt>
      <trkpt lat="47.37941" lon="-1.84749">
        <ele>59</ele>
        <time>2016-04-24T08:34:31Z</time>
      </trkpt>
      <trkpt lat="47.37945" lon="-1.84754">
        <ele>57</ele>
        <time>2016-04-24T08:34:32Z</time>
      </trkpt>
      <trkpt lat="47.3795" lon="-1.84758">
        <ele>56</ele>
        <time>2016-04-24T08:34:33Z</time>
      </trkpt>
      <trkpt lat="47.37957" lon="-1.8476">
        <ele>56</ele>
        <time>2016-04-24T08:34:34Z</time>
      </trkpt>
      <trkpt lat="47.37963" lon="-1.84763">
        <ele>55</ele>
        <time>2016-04-24T08:34:35Z</time>
      </trkpt>
      <trkpt lat="47.37966" lon="-1.84762">
        <ele>55</ele>
        <time>2016-04-24T08:34:36Z</time>
      </trkpt>
      <trkpt lat="47.37975" lon="-1.84766">
        <ele>55</ele>
        <time>2016-04-24T08:34:37Z</time>
      </trkpt>
      <trkpt lat="47.37981" lon="-1.84772">
        <ele>54</ele>
        <time>2016-04-24T08:34:38Z</time>
      </trkpt>
      <trkpt lat="47.37989" lon="-1.84777">
        <ele>54</ele>
        <time>2016-04-24T08:34:39Z</time>
      </trkpt>
      <trkpt lat="47.37996" lon="-1.84785">
        <ele>54</ele>
        <time>2016-04-24T08:34:40Z</time>
      </trkpt>
      <trkpt lat="47.38005" lon="-1.84791">
        <ele>52</ele>
        <time>2016-04-24T08:34:41Z</time>
      </trkpt>
      <trkpt lat="47.38013" lon="-1.84799">
        <ele>52</ele>
        <time>2016-04-24T08:34:42Z</time>
      </trkpt>
      <trkpt lat="47.38019" lon="-1.84805">
        <ele>52</ele>
        <time>2016-04-24T08:34:43Z</time>
      </trkpt>
      <trkpt lat="47.38026" lon="-1.84812">
        <ele>52</ele>
        <time>2016-04-24T08:34:44Z</time>
      </trkpt>
      <trkpt lat="47.38032" lon="-1.84817">
        <ele>52</ele>
        <time>2016-04-24T08:34:45Z</time>
      </trkpt>
      <trkpt lat="47.38038" lon="-1.84821">
        <ele>52</ele>
        <time>2016-04-24T08:34:46Z</time>
      </trkpt>
      <trkpt lat="47.38044" lon="-1.84826">
        <ele>52</ele>
        <time>2016-04-24T08:34:47Z</time>
      </trkpt>
      <trkpt lat="47.38051" lon="-1.84831">
        <ele>52</ele>
        <time>2016-04-24T08:34:48Z</time>
      </trkpt>
      <trkpt lat="47.38053" lon="-1.84837">
        <ele>53</ele>
        <time>2016-04-24T08:34:49Z</time>
      </trkpt>
      <trkpt lat="47.38054" lon="-1.84845">
        <ele>53</ele>
        <time>2016-04-24T08:34:50Z</time>
      </trkpt>
      <trkpt lat="47.38056" lon="-1.84853">
        <ele>53</ele>
        <time>2016-04-24T08:34:51Z</time>
      </trkpt>
      <trkpt lat="47.38056" lon="-1.84861">
        <ele>53</ele>
        <time>2016-04-24T08:34:52Z</time>
      </trkpt>
      <trkpt lat="47.38057" lon="-1.84871">
        <ele>53</ele>
        <time>2016-04-24T08:34:53Z</time>
      </trkpt>
      <trkpt lat="47.38056" lon="-1.8488">
        <ele>53</ele>
        <time>2016-04-24T08:34:54Z</time>
      </trkpt>
      <trkpt lat="47.38055" lon="-1.84888">
        <ele>54</ele>
        <time>2016-04-24T08:34:55Z</time>
      </trkpt>
      <trkpt lat="47.38054" lon="-1.84896">
        <ele>54</ele>
        <time>2016-04-24T08:34:56Z</time>
      </trkpt>
      <trkpt lat="47.38053" lon="-1.84903">
        <ele>54</ele>
        <time>2016-04-24T08:34:57Z</time>
      </trkpt>
      <trkpt lat="47.38054" lon="-1.84914">
        <ele>54</ele>
        <time>2016-04-24T08:34:58Z</time>
      </trkpt>
      <trkpt lat="47.38053" lon="-1.84923">
        <ele>55</ele>
        <time>2016-04-24T08:34:59Z</time>
      </trkpt>
      <trkpt lat="47.38049" lon="-1.84929">
        <ele>55</ele>
        <time>2016-04-24T08:35:00Z</time>
      </trkpt>
      <trkpt lat="47.38046" lon="-1.84936">
        <ele>55</ele>
        <time>2016-04-24T08:35:01Z</time>
      </trkpt>
      <trkpt lat="47.38046" lon="-1.84942">
        <ele>55</ele>
        <time>2016-04-24T08:35:02Z</time>
      </trkpt>
      <trkpt lat="47.38052" lon="-1.84947">
        <ele>56</ele>
        <time>2016-04-24T08:35:03Z</time>
      </trkpt>
      <trkpt lat="47.38054" lon="-1.84953">
        <ele>56</ele>
        <time>2016-04-24T08:35:04Z</time>
      </trkpt>
      <trkpt lat="47.38055" lon="-1.84959">
        <ele>56</ele>
        <time>2016-04-24T08:35:05Z</time>
      </trkpt>
      <trkpt lat="47.38058" lon="-1.84968">
        <ele>56</ele>
        <time>2016-04-24T08:35:06Z</time>
      </trkpt>
      <trkpt lat="47.38059" lon="-1.84975">
        <ele>56</ele>
        <time>2016-04-24T08:35:07Z</time>
      </trkpt>
      <trkpt lat="47.38061" lon="-1.84978">
        <ele>57</ele>
        <time>2016-04-24T08:35:08Z</time>
      </trkpt>
      <trkpt lat="47.38061" lon="-1.84983">
        <ele>57</ele>
        <time>2016-04-24T08:35:09Z</time>
      </trkpt>
      <trkpt lat="47.38065" lon="-1.84987">
        <ele>57</ele>
        <time>2016-04-24T08:35:10Z</time>
      </trkpt>
      <trkpt lat="47.38067" lon="-1.84991">
        <ele>57</ele>
        <time>2016-04-24T08:35:11Z</time>
      </trkpt>
      <trkpt lat="47.38068" lon="-1.84996">
        <ele>58</ele>
        <time>2016-04-24T08:35:12Z</time>
      </trkpt>
      <trkpt lat="47.38072" lon="-1.84998">
        <ele>58</ele>
        <time>2016-04-24T08:35:13Z</time>
      </trkpt>
      <trkpt lat="47.38074" lon="-1.85002">
        <ele>59</ele>
        <time>2016-04-24T08:35:14Z</time>
      </trkpt>
      <trkpt lat="47.38076" lon="-1.85005">
        <ele>59</ele>
        <time>2016-04-24T08:35:15Z</time>
      </trkpt>
      <trkpt lat="47.38079" lon="-1.85011">
        <ele>59</ele>
        <time>2016-04-24T08:35:17Z</time>
      </trkpt>
      <trkpt lat="47.38081" lon="-1.85014">
        <ele>59</ele>
        <time>2016-04-24T08:35:18Z</time>
      </trkpt>
      <trkpt lat="47.38083" lon="-1.85016">
        <ele>60</ele>
        <time>2016-04-24T08:35:19Z</time>
      </trkpt>
      <trkpt lat="47.38085" lon="-1.85019">
        <ele>61</ele>
        <time>2016-04-24T08:35:20Z</time>
      </trkpt>
      <trkpt lat="47.38088" lon="-1.85022">
        <ele>61</ele>
        <time>2016-04-24T08:35:21Z</time>
      </trkpt>
      <trkpt lat="47.3809" lon="-1.85025">
        <ele>61</ele>
        <time>2016-04-24T08:35:22Z</time>
      </trkpt>
      <trkpt lat="47.38093" lon="-1.85031">
        <ele>62</ele>
        <time>2016-04-24T08:35:24Z</time>
      </trkpt>
      <trkpt lat="47.38095" lon="-1.85034">
        <ele>62</ele>
        <time>2016-04-24T08:35:25Z</time>
      </trkpt>
      <trkpt lat="47.38097" lon="-1.85038">
        <ele>62</ele>
        <time>2016-04-24T08:35:26Z</time>
      </trkpt>
      <trkpt lat="47.38098" lon="-1.85041">
        <ele>62</ele>
        <time>2016-04-24T08:35:27Z</time>
      </trkpt>
      <trkpt lat="47.38101" lon="-1.85047">
        <ele>62</ele>
        <time>2016-04-24T08:35:29Z</time>
      </trkpt>
      <trkpt lat="47.38103" lon="-1.85051">
        <ele>63</ele>
        <time>2016-04-24T08:35:30Z</time>
      </trkpt>
      <trkpt lat="47.38104" lon="-1.85054">
        <ele>63</ele>
        <time>2016-04-24T08:35:31Z</time>
      </trkpt>
      <trkpt lat="47.38106" lon="-1.85057">
        <ele>63</ele>
        <time>2016-04-24T08:35:32Z</time>
      </trkpt>
      <trkpt lat="47.38107" lon="-1.85061">
        <ele>63</ele>
        <time>2016-04-24T08:35:33Z</time>
      </trkpt>
      <trkpt lat="47.38108" lon="-1.85065">
        <ele>63</ele>
        <time>2016-04-24T08:35:34Z</time>
      </trkpt>
      <trkpt lat="47.38111" lon="-1.85072">
        <ele>63</ele>
        <time>2016-04-24T08:35:36Z</time>
      </trkpt>
      <trkpt lat="47.38112" lon="-1.85075">
        <ele>63</ele>
        <time>2016-04-24T08:35:37Z</time>
      </trkpt>
      <trkpt lat="47.38113" lon="-1.85079">
        <ele>63</ele>
        <time>2016-04-24T08:35:38Z</time>
      </trkpt>
      <trkpt lat="47.38113" lon="-1.85083">
        <ele>63</ele>
        <time>2016-04-24T08:35:39Z</time>
      </trkpt>
      <trkpt lat="47.38114" lon="-1.85087">
        <ele>65</ele>
        <time>2016-04-24T08:35:40Z</time>
      </trkpt>
      <trkpt lat="47.38115" lon="-1.85092">
        <ele>65</ele>
        <time>2016-04-24T08:35:41Z</time>
      </trkpt>
      <trkpt lat="47.38116" lon="-1.85096">
        <ele>65</ele>
        <time>2016-04-24T08:35:42Z</time>
      </trkpt>
      <trkpt lat="47.38116" lon="-1.85101">
        <ele>65</ele>
        <time>2016-04-24T08:35:43Z</time>
      </trkpt>
      <trkpt lat="47.38116" lon="-1.85106">
        <ele>65</ele>
        <time>2016-04-24T08:35:44Z</time>
      </trkpt>
      <trkpt lat="47.38117" lon="-1.85111">
        <ele>65</ele>
        <time>2016-04-24T08:35:45Z</time>
      </trkpt>
      <trkpt lat="47.38117" lon="-1.85116">
        <ele>65</ele>
        <time>2016-04-24T08:35:46Z</time>
      </trkpt>
      <trkpt lat="47.38118" lon="-1.85121">
        <ele>66</ele>
        <time>2016-04-24T08:35:47Z</time>
      </trkpt>
      <trkpt lat="47.3812" lon="-1.85125">
        <ele>66</ele>
        <time>2016-04-24T08:35:48Z</time>
      </trkpt>
      <trkpt lat="47.38121" lon="-1.85129">
        <ele>66</ele>
        <time>2016-04-24T08:35:49Z</time>
      </trkpt>
      <trkpt lat="47.38123" lon="-1.85133">
        <ele>66</ele>
        <time>2016-04-24T08:35:50Z</time>
      </trkpt>
      <trkpt lat="47.38124" lon="-1.85138">
        <ele>66</ele>
        <time>2016-04-24T08:35:51Z</time>
      </trkpt>
      <trkpt lat="47.38125" lon="-1.85142">
        <ele>66</ele>
        <time>2016-04-24T08:35:52Z</time>
      </trkpt>
      <trkpt lat="47.38126" lon="-1.85145">
        <ele>66</ele>
        <time>2016-04-24T08:35:53Z</time>
      </trkpt>
      <trkpt lat="47.38128" lon="-1.85149">
        <ele>66</ele>
        <time>2016-04-24T08:35:54Z</time>
      </trkpt>
      <trkpt lat="47.38129" lon="-1.85153">
        <ele>66</ele>
        <time>2016-04-24T08:35:55Z</time>
      </trkpt>
      <trkpt lat="47.38131" lon="-1.85156">
        <ele>66</ele>
        <time>2016-04-24T08:35:56Z</time>
      </trkpt>
      <trkpt lat="47.38133" lon="-1.8516">
        <ele>66</ele>
        <time>2016-04-24T08:35:57Z</time>
      </trkpt>
      <trkpt lat="47.38134" lon="-1.85163">
        <ele>67</ele>
        <time>2016-04-24T08:35:58Z</time>
      </trkpt>
      <trkpt lat="47.38135" lon="-1.85167">
        <ele>68</ele>
        <time>2016-04-24T08:35:59Z</time>
      </trkpt>
      <trkpt lat="47.38137" lon="-1.85171">
        <ele>68</ele>
        <time>2016-04-24T08:36:00Z</time>
      </trkpt>
      <trkpt lat="47.38138" lon="-1.85174">
        <ele>68</ele>
        <time>2016-04-24T08:36:01Z</time>
      </trkpt>
      <trkpt lat="47.3814" lon="-1.85178">
        <ele>68</ele>
        <time>2016-04-24T08:36:02Z</time>
      </trkpt>
      <trkpt lat="47.38141" lon="-1.85182">
        <ele>68</ele>
        <time>2016-04-24T08:36:03Z</time>
      </trkpt>
      <trkpt lat="47.38143" lon="-1.85185">
        <ele>68</ele>
        <time>2016-04-24T08:36:04Z</time>
      </trkpt>
      <trkpt lat="47.38145" lon="-1.85188">
        <ele>68</ele>
        <time>2016-04-24T08:36:05Z</time>
      </trkpt>
      <trkpt lat="47.38147" lon="-1.85192">
        <ele>68</ele>
        <time>2016-04-24T08:36:06Z</time>
      </trkpt>
      <trkpt lat="47.38148" lon="-1.85195">
        <ele>68</ele>
        <time>2016-04-24T08:36:07Z</time>
      </trkpt>
      <trkpt lat="47.38149" lon="-1.85199">
        <ele>68</ele>
        <time>2016-04-24T08:36:08Z</time>
      </trkpt>
      <trkpt lat="47.38151" lon="-1.85202">
        <ele>68</ele>
        <time>2016-04-24T08:36:09Z</time>
      </trkpt>
      <trkpt lat="47.38152" lon="-1.85206">
        <ele>69</ele>
        <time>2016-04-24T08:36:10Z</time>
      </trkpt>
      <trkpt lat="47.38154" lon="-1.8521">
        <ele>69</ele>
        <time>2016-04-24T08:36:11Z</time>
      </trkpt>
      <trkpt lat="47.38156" lon="-1.85213">
        <ele>69</ele>
        <time>2016-04-24T08:36:12Z</time>
      </trkpt>
      <trkpt lat="47.38157" lon="-1.85217">
        <ele>69</ele>
        <time>2016-04-24T08:36:13Z</time>
      </trkpt>
      <trkpt lat="47.38158" lon="-1.85221">
        <ele>69</ele>
        <time>2016-04-24T08:36:14Z</time>
      </trkpt>
      <trkpt lat="47.3816" lon="-1.85225">
        <ele>69</ele>
        <time>2016-04-24T08:36:15Z</time>
      </trkpt>
      <trkpt lat="47.38161" lon="-1.85228">
        <ele>69</ele>
        <time>2016-04-24T08:36:16Z</time>
      </trkpt>
      <trkpt lat="47.38163" lon="-1.85231">
        <ele>69</ele>
        <time>2016-04-24T08:36:17Z</time>
      </trkpt>
      <trkpt lat="47.38164" lon="-1.85235">
        <ele>70</ele>
        <time>2016-04-24T08:36:18Z</time>
      </trkpt>
      <trkpt lat="47.38166" lon="-1.85238">
        <ele>70</ele>
        <time>2016-04-24T08:36:19Z</time>
      </trkpt>
      <trkpt lat="47.38167" lon="-1.85242">
        <ele>71</ele>
        <time>2016-04-24T08:36:20Z</time>
      </trkpt>
      <trkpt lat="47.38169" lon="-1.85245">
        <ele>71</ele>
        <time>2016-04-24T08:36:21Z</time>
      </trkpt>
      <trkpt lat="47.38171" lon="-1.85248">
        <ele>71</ele>
        <time>2016-04-24T08:36:22Z</time>
      </trkpt>
      <trkpt lat="47.38173" lon="-1.85252">
        <ele>71</ele>
        <time>2016-04-24T08:36:23Z</time>
      </trkpt>
      <trkpt lat="47.38174" lon="-1.85255">
        <ele>72</ele>
        <time>2016-04-24T08:36:24Z</time>
      </trkpt>
      <trkpt lat="47.38176" lon="-1.85259">
        <ele>72</ele>
        <time>2016-04-24T08:36:25Z</time>
      </trkpt>
      <trkpt lat="47.38178" lon="-1.85263">
        <ele>72</ele>
        <time>2016-04-24T08:36:26Z</time>
      </trkpt>
      <trkpt lat="47.38179" lon="-1.85266">
        <ele>72</ele>
        <time>2016-04-24T08:36:27Z</time>
      </trkpt>
      <trkpt lat="47.38181" lon="-1.8527">
        <ele>72</ele>
        <time>2016-04-24T08:36:28Z</time>
      </trkpt>
      <trkpt lat="47.38183" lon="-1.85274">
        <ele>73</ele>
        <time>2016-04-24T08:36:29Z</time>
      </trkpt>
      <trkpt lat="47.38184" lon="-1.85277">
        <ele>73</ele>
        <time>2016-04-24T08:36:30Z</time>
      </trkpt>
      <trkpt lat="47.38186" lon="-1.8528">
        <ele>73</ele>
        <time>2016-04-24T08:36:31Z</time>
      </trkpt>
      <trkpt lat="47.38188" lon="-1.85284">
        <ele>73</ele>
        <time>2016-04-24T08:36:32Z</time>
      </trkpt>
      <trkpt lat="47.38189" lon="-1.85288">
        <ele>73</ele>
        <time>2016-04-24T08:36:33Z</time>
      </trkpt>
      <trkpt lat="47.38191" lon="-1.85291">
        <ele>73</ele>
        <time>2016-04-24T08:36:34Z</time>
      </trkpt>
      <trkpt lat="47.38192" lon="-1.85295">
        <ele>73</ele>
        <time>2016-04-24T08:36:35Z</time>
      </trkpt>
      <trkpt lat="47.38194" lon="-1.85299">
        <ele>73</ele>
        <time>2016-04-24T08:36:36Z</time>
      </trkpt>
      <trkpt lat="47.38195" lon="-1.85303">
        <ele>73</ele>
        <time>2016-04-24T08:36:37Z</time>
      </trkpt>
      <trkpt lat="47.38196" lon="-1.85307">
        <ele>73</ele>
        <time>2016-04-24T08:36:38Z</time>
      </trkpt>
      <trkpt lat="47.38198" lon="-1.85311">
        <ele>73</ele>
        <time>2016-04-24T08:36:39Z</time>
      </trkpt>
      <trkpt lat="47.38199" lon="-1.85314">
        <ele>73</ele>
        <time>2016-04-24T08:36:40Z</time>
      </trkpt>
      <trkpt lat="47.38201" lon="-1.85318">
        <ele>73</ele>
        <time>2016-04-24T08:36:41Z</time>
      </trkpt>
      <trkpt lat="47.38202" lon="-1.85322">
        <ele>74</ele>
        <time>2016-04-24T08:36:42Z</time>
      </trkpt>
      <trkpt lat="47.38204" lon="-1.85326">
        <ele>74</ele>
        <time>2016-04-24T08:36:43Z</time>
      </trkpt>
      <trkpt lat="47.38206" lon="-1.8533">
        <ele>74</ele>
        <time>2016-04-24T08:36:44Z</time>
      </trkpt>
      <trkpt lat="47.38208" lon="-1.85334">
        <ele>74</ele>
        <time>2016-04-24T08:36:45Z</time>
      </trkpt>
      <trkpt lat="47.38209" lon="-1.85337">
        <ele>74</ele>
        <time>2016-04-24T08:36:46Z</time>
      </trkpt>
      <trkpt lat="47.38211" lon="-1.85341">
        <ele>74</ele>
        <time>2016-04-24T08:36:47Z</time>
      </trkpt>
      <trkpt lat="47.38214" lon="-1.85346">
        <ele>74</ele>
        <time>2016-04-24T08:36:49Z</time>
      </trkpt>
      <trkpt lat="47.38216" lon="-1.85351">
        <ele>74</ele>
        <time>2016-04-24T08:36:51Z</time>
      </trkpt>
      <trkpt lat="47.38218" lon="-1.85356">
        <ele>75</ele>
        <time>2016-04-24T08:36:53Z</time>
      </trkpt>
      <trkpt lat="47.38221" lon="-1.85359">
        <ele>75</ele>
        <time>2016-04-24T08:36:56Z</time>
      </trkpt>
      <trkpt lat="47.38218" lon="-1.85356">
        <ele>75</ele>
        <time>2016-04-24T08:37:05Z</time>
      </trkpt>
      <trkpt lat="47.38224" lon="-1.8535">
        <ele>75</ele>
        <time>2016-04-24T08:38:02Z</time>
      </trkpt>
      <trkpt lat="47.38228" lon="-1.85347">
        <ele>75</ele>
        <time>2016-04-24T08:38:04Z</time>
      </trkpt>
      <trkpt lat="47.3823" lon="-1.85344">
        <ele>75</ele>
        <time>2016-04-24T08:38:05Z</time>
      </trkpt>
      <trkpt lat="47.38232" lon="-1.85342">
        <ele>75</ele>
        <time>2016-04-24T08:38:06Z</time>
      </trkpt>
      <trkpt lat="47.38235" lon="-1.8534">
        <ele>75</ele>
        <time>2016-04-24T08:38:07Z</time>
      </trkpt>
      <trkpt lat="47.38238" lon="-1.85338">
        <ele>75</ele>
        <time>2016-04-24T08:38:08Z</time>
      </trkpt>
      <trkpt lat="47.3824" lon="-1.85336">
        <ele>75</ele>
        <time>2016-04-24T08:38:09Z</time>
      </trkpt>
      <trkpt lat="47.38243" lon="-1.85334">
        <ele>76</ele>
        <time>2016-04-24T08:38:10Z</time>
      </trkpt>
      <trkpt lat="47.38247" lon="-1.85329">
        <ele>75</ele>
        <time>2016-04-24T08:38:12Z</time>
      </trkpt>
      <trkpt lat="47.38251" lon="-1.85323">
        <ele>76</ele>
        <time>2016-04-24T08:38:14Z</time>
      </trkpt>
      <trkpt lat="47.38254" lon="-1.8532">
        <ele>75</ele>
        <time>2016-04-24T08:38:15Z</time>
      </trkpt>
      <trkpt lat="47.38257" lon="-1.85316">
        <ele>75</ele>
        <time>2016-04-24T08:38:16Z</time>
      </trkpt>
      <trkpt lat="47.3826" lon="-1.85311">
        <ele>75</ele>
        <time>2016-04-24T08:38:17Z</time>
      </trkpt>
      <trkpt lat="47.38263" lon="-1.85307">
        <ele>75</ele>
        <time>2016-04-24T08:38:18Z</time>
      </trkpt>
      <trkpt lat="47.38267" lon="-1.85304">
        <ele>75</ele>
        <time>2016-04-24T08:38:19Z</time>
      </trkpt>
      <trkpt lat="47.3827" lon="-1.85301">
        <ele>75</ele>
        <time>2016-04-24T08:38:20Z</time>
      </trkpt>
      <trkpt lat="47.38273" lon="-1.85299">
        <ele>75</ele>
        <time>2016-04-24T08:38:21Z</time>
      </trkpt>
      <trkpt lat="47.38276" lon="-1.85296">
        <ele>75</ele>
        <time>2016-04-24T08:38:22Z</time>
      </trkpt>
      <trkpt lat="47.38279" lon="-1.85293">
        <ele>75</ele>
        <time>2016-04-24T08:38:23Z</time>
      </trkpt>
      <trkpt lat="47.38282" lon="-1.85291">
        <ele>75</ele>
        <time>2016-04-24T08:38:24Z</time>
      </trkpt>
      <trkpt lat="47.38285" lon="-1.85289">
        <ele>75</ele>
        <time>2016-04-24T08:38:25Z</time>
      </trkpt>
      <trkpt lat="47.38288" lon="-1.85287">
        <ele>75</ele>
        <time>2016-04-24T08:38:26Z</time>
      </trkpt>
      <trkpt lat="47.38292" lon="-1.85285">
        <ele>75</ele>
        <time>2016-04-24T08:38:27Z</time>
      </trkpt>
      <trkpt lat="47.38296" lon="-1.85284">
        <ele>75</ele>
        <time>2016-04-24T08:38:28Z</time>
      </trkpt>
      <trkpt lat="47.38301" lon="-1.85283">
        <ele>75</ele>
        <time>2016-04-24T08:38:29Z</time>
      </trkpt>
      <trkpt lat="47.38305" lon="-1.85282">
        <ele>75</ele>
        <time>2016-04-24T08:38:30Z</time>
      </trkpt>
      <trkpt lat="47.38308" lon="-1.85282">
        <ele>75</ele>
        <time>2016-04-24T08:38:31Z</time>
      </trkpt>
      <trkpt lat="47.38312" lon="-1.85282">
        <ele>75</ele>
        <time>2016-04-24T08:38:32Z</time>
      </trkpt>
      <trkpt lat="47.38316" lon="-1.85282">
        <ele>75</ele>
        <time>2016-04-24T08:38:34Z</time>
      </trkpt>
      <trkpt lat="47.38322" lon="-1.85282">
        <ele>75</ele>
        <time>2016-04-24T08:38:36Z</time>
      </trkpt>
      <trkpt lat="47.38325" lon="-1.85282">
        <ele>75</ele>
        <time>2016-04-24T08:38:37Z</time>
      </trkpt>
      <trkpt lat="47.38329" lon="-1.85281">
        <ele>75</ele>
        <time>2016-04-24T08:38:38Z</time>
      </trkpt>
      <trkpt lat="47.38334" lon="-1.85279">
        <ele>75</ele>
        <time>2016-04-24T08:38:39Z</time>
      </trkpt>
      <trkpt lat="47.38339" lon="-1.85278">
        <ele>75</ele>
        <time>2016-04-24T08:38:40Z</time>
      </trkpt>
      <trkpt lat="47.38344" lon="-1.85276">
        <ele>75</ele>
        <time>2016-04-24T08:38:41Z</time>
      </trkpt>
      <trkpt lat="47.38348" lon="-1.85274">
        <ele>75</ele>
        <time>2016-04-24T08:38:42Z</time>
      </trkpt>
      <trkpt lat="47.38353" lon="-1.85272">
        <ele>75</ele>
        <time>2016-04-24T08:38:43Z</time>
      </trkpt>
      <trkpt lat="47.38357" lon="-1.85269">
        <ele>75</ele>
        <time>2016-04-24T08:38:44Z</time>
      </trkpt>
      <trkpt lat="47.38361" lon="-1.85267">
        <ele>75</ele>
        <time>2016-04-24T08:38:45Z</time>
      </trkpt>
      <trkpt lat="47.38365" lon="-1.85264">
        <ele>75</ele>
        <time>2016-04-24T08:38:46Z</time>
      </trkpt>
      <trkpt lat="47.38369" lon="-1.85262">
        <ele>75</ele>
        <time>2016-04-24T08:38:47Z</time>
      </trkpt>
      <trkpt lat="47.38373" lon="-1.8526">
        <ele>75</ele>
        <time>2016-04-24T08:38:48Z</time>
      </trkpt>
      <trkpt lat="47.38377" lon="-1.85259">
        <ele>74</ele>
        <time>2016-04-24T08:38:49Z</time>
      </trkpt>
      <trkpt lat="47.38381" lon="-1.85258">
        <ele>74</ele>
        <time>2016-04-24T08:38:50Z</time>
      </trkpt>
      <trkpt lat="47.38385" lon="-1.85257">
        <ele>74</ele>
        <time>2016-04-24T08:38:51Z</time>
      </trkpt>
      <trkpt lat="47.38389" lon="-1.85255">
        <ele>74</ele>
        <time>2016-04-24T08:38:52Z</time>
      </trkpt>
      <trkpt lat="47.38394" lon="-1.85252">
        <ele>74</ele>
        <time>2016-04-24T08:38:53Z</time>
      </trkpt>
      <trkpt lat="47.38399" lon="-1.85249">
        <ele>73</ele>
        <time>2016-04-24T08:38:54Z</time>
      </trkpt>
      <trkpt lat="47.38404" lon="-1.85246">
        <ele>74</ele>
        <time>2016-04-24T08:38:55Z</time>
      </trkpt>
      <trkpt lat="47.38409" lon="-1.85243">
        <ele>74</ele>
        <time>2016-04-24T08:38:56Z</time>
      </trkpt>
      <trkpt lat="47.38413" lon="-1.8524">
        <ele>74</ele>
        <time>2016-04-24T08:38:57Z</time>
      </trkpt>
      <trkpt lat="47.38417" lon="-1.85236">
        <ele>74</ele>
        <time>2016-04-24T08:38:58Z</time>
      </trkpt>
      <trkpt lat="47.38421" lon="-1.85233">
        <ele>74</ele>
        <time>2016-04-24T08:38:59Z</time>
      </trkpt>
      <trkpt lat="47.38425" lon="-1.85231">
        <ele>74</ele>
        <time>2016-04-24T08:39:00Z</time>
      </trkpt>
      <trkpt lat="47.38428" lon="-1.85229">
        <ele>74</ele>
        <time>2016-04-24T08:39:01Z</time>
      </trkpt>
      <trkpt lat="47.38431" lon="-1.85227">
        <ele>74</ele>
        <time>2016-04-24T08:39:02Z</time>
      </trkpt>
      <trkpt lat="47.38433" lon="-1.85224">
        <ele>74</ele>
        <time>2016-04-24T08:39:03Z</time>
      </trkpt>
      <trkpt lat="47.38435" lon="-1.85221">
        <ele>74</ele>
        <time>2016-04-24T08:39:04Z</time>
      </trkpt>
      <trkpt lat="47.38439" lon="-1.85218">
        <ele>74</ele>
        <time>2016-04-24T08:39:06Z</time>
      </trkpt>
      <trkpt lat="47.38442" lon="-1.85214">
        <ele>74</ele>
        <time>2016-04-24T08:39:08Z</time>
      </trkpt>
      <trkpt lat="47.38443" lon="-1.85208">
        <ele>74</ele>
        <time>2016-04-24T08:39:10Z</time>
      </trkpt>
      <trkpt lat="47.38443" lon="-1.85202">
        <ele>74</ele>
        <time>2016-04-24T08:39:12Z</time>
      </trkpt>
      <trkpt lat="47.38442" lon="-1.85196">
        <ele>74</ele>
        <time>2016-04-24T08:39:14Z</time>
      </trkpt>
      <trkpt lat="47.38445" lon="-1.85192">
        <ele>74</ele>
        <time>2016-04-24T08:39:17Z</time>
      </trkpt>
      <trkpt lat="47.38446" lon="-1.85196">
        <ele>74</ele>
        <time>2016-04-24T08:39:21Z</time>
      </trkpt>
      <trkpt lat="47.38445" lon="-1.852">
        <ele>74</ele>
        <time>2016-04-24T08:39:22Z</time>
      </trkpt>
      <trkpt lat="47.38445" lon="-1.85211">
        <ele>74</ele>
        <time>2016-04-24T08:39:24Z</time>
      </trkpt>
      <trkpt lat="47.38445" lon="-1.85217">
        <ele>74</ele>
        <time>2016-04-24T08:39:25Z</time>
      </trkpt>
      <trkpt lat="47.38446" lon="-1.85222">
        <ele>74</ele>
        <time>2016-04-24T08:39:26Z</time>
      </trkpt>
      <trkpt lat="47.38446" lon="-1.85226">
        <ele>74</ele>
        <time>2016-04-24T08:39:27Z</time>
      </trkpt>
      <trkpt lat="47.38448" lon="-1.85233">
        <ele>74</ele>
        <time>2016-04-24T08:39:29Z</time>
      </trkpt>
      <trkpt lat="47.38448" lon="-1.85239">
        <ele>74</ele>
        <time>2016-04-24T08:39:31Z</time>
      </trkpt>
      <trkpt lat="47.38449" lon="-1.85245">
        <ele>74</ele>
        <time>2016-04-24T08:39:33Z</time>
      </trkpt>
      <trkpt lat="47.3845" lon="-1.85249">
        <ele>74</ele>
        <time>2016-04-24T08:39:38Z</time>
      </trkpt>
      <trkpt lat="47.38447" lon="-1.85247">
        <ele>74</ele>
        <time>2016-04-24T08:39:46Z</time>
      </trkpt>
      <trkpt lat="47.38448" lon="-1.85241">
        <ele>74</ele>
        <time>2016-04-24T08:39:49Z</time>
      </trkpt>
      <trkpt lat="47.38448" lon="-1.85235">
        <ele>74</ele>
        <time>2016-04-24T08:39:51Z</time>
      </trkpt>
      <trkpt lat="47.38448" lon="-1.85229">
        <ele>74</ele>
        <time>2016-04-24T08:39:53Z</time>
      </trkpt>
      <trkpt lat="47.38446" lon="-1.85224">
        <ele>74</ele>
        <time>2016-04-24T08:39:55Z</time>
      </trkpt>
      <trkpt lat="47.38443" lon="-1.8522">
        <ele>74</ele>
        <time>2016-04-24T08:39:57Z</time>
      </trkpt>
      <trkpt lat="47.38443" lon="-1.85214">
        <ele>74</ele>
        <time>2016-04-24T08:39:59Z</time>
      </trkpt>
      <trkpt lat="47.38443" lon="-1.85207">
        <ele>74</ele>
        <time>2016-04-24T08:40:01Z</time>
      </trkpt>
      <trkpt lat="47.38443" lon="-1.85202">
        <ele>74</ele>
        <time>2016-04-24T08:40:02Z</time>
      </trkpt>
      <trkpt lat="47.38443" lon="-1.85198">
        <ele>74</ele>
        <time>2016-04-24T08:40:03Z</time>
      </trkpt>
      <trkpt lat="47.38444" lon="-1.85194">
        <ele>74</ele>
        <time>2016-04-24T08:40:04Z</time>
      </trkpt>
      <trkpt lat="47.38445" lon="-1.85189">
        <ele>74</ele>
        <time>2016-04-24T08:40:05Z</time>
      </trkpt>
      <trkpt lat="47.38446" lon="-1.85185">
        <ele>74</ele>
        <time>2016-04-24T08:40:06Z</time>
      </trkpt>
      <trkpt lat="47.38446" lon="-1.8518">
        <ele>73</ele>
        <time>2016-04-24T08:40:07Z</time>
      </trkpt>
      <trkpt lat="47.38446" lon="-1.85175">
        <ele>73</ele>
        <time>2016-04-24T08:40:08Z</time>
      </trkpt>
      <trkpt lat="47.38446" lon="-1.85168">
        <ele>73</ele>
        <time>2016-04-24T08:40:09Z</time>
      </trkpt>
      <trkpt lat="47.38445" lon="-1.85162">
        <ele>73</ele>
        <time>2016-04-24T08:40:10Z</time>
      </trkpt>
      <trkpt lat="47.38444" lon="-1.85157">
        <ele>73</ele>
        <time>2016-04-24T08:40:11Z</time>
      </trkpt>
      <trkpt lat="47.38443" lon="-1.85152">
        <ele>73</ele>
        <time>2016-04-24T08:40:12Z</time>
      </trkpt>
      <trkpt lat="47.38441" lon="-1.85146">
        <ele>73</ele>
        <time>2016-04-24T08:40:13Z</time>
      </trkpt>
      <trkpt lat="47.3844" lon="-1.85141">
        <ele>73</ele>
        <time>2016-04-24T08:40:14Z</time>
      </trkpt>
      <trkpt lat="47.38439" lon="-1.85136">
        <ele>73</ele>
        <time>2016-04-24T08:40:15Z</time>
      </trkpt>
      <trkpt lat="47.38437" lon="-1.85131">
        <ele>73</ele>
        <time>2016-04-24T08:40:16Z</time>
      </trkpt>
      <trkpt lat="47.38436" lon="-1.85126">
        <ele>73</ele>
        <time>2016-04-24T08:40:17Z</time>
      </trkpt>
      <trkpt lat="47.38434" lon="-1.85121">
        <ele>73</ele>
        <time>2016-04-24T08:40:18Z</time>
      </trkpt>
      <trkpt lat="47.38432" lon="-1.85115">
        <ele>73</ele>
        <time>2016-04-24T08:40:19Z</time>
      </trkpt>
      <trkpt lat="47.3843" lon="-1.8511">
        <ele>72</ele>
        <time>2016-04-24T08:40:20Z</time>
      </trkpt>
      <trkpt lat="47.38429" lon="-1.85105">
        <ele>72</ele>
        <time>2016-04-24T08:40:21Z</time>
      </trkpt>
      <trkpt lat="47.38428" lon="-1.851">
        <ele>72</ele>
        <time>2016-04-24T08:40:22Z</time>
      </trkpt>
      <trkpt lat="47.38426" lon="-1.85094">
        <ele>72</ele>
        <time>2016-04-24T08:40:23Z</time>
      </trkpt>
      <trkpt lat="47.38425" lon="-1.85088">
        <ele>72</ele>
        <time>2016-04-24T08:40:24Z</time>
      </trkpt>
      <trkpt lat="47.38424" lon="-1.85082">
        <ele>72</ele>
        <time>2016-04-24T08:40:25Z</time>
      </trkpt>
      <trkpt lat="47.38422" lon="-1.85077">
        <ele>72</ele>
        <time>2016-04-24T08:40:26Z</time>
      </trkpt>
      <trkpt lat="47.38421" lon="-1.85072">
        <ele>72</ele>
        <time>2016-04-24T08:40:27Z</time>
      </trkpt>
      <trkpt lat="47.38419" lon="-1.85067">
        <ele>72</ele>
        <time>2016-04-24T08:40:28Z</time>
      </trkpt>
      <trkpt lat="47.38418" lon="-1.85063">
        <ele>72</ele>
        <time>2016-04-24T08:40:29Z</time>
      </trkpt>
      <trkpt lat="47.38416" lon="-1.85058">
        <ele>71</ele>
        <time>2016-04-24T08:40:30Z</time>
      </trkpt>
      <trkpt lat="47.38414" lon="-1.85052">
        <ele>71</ele>
        <time>2016-04-24T08:40:31Z</time>
      </trkpt>
      <trkpt lat="47.38412" lon="-1.85046">
        <ele>71</ele>
        <time>2016-04-24T08:40:32Z</time>
      </trkpt>
      <trkpt lat="47.38409" lon="-1.85039">
        <ele>71</ele>
        <time>2016-04-24T08:40:33Z</time>
      </trkpt>
      <trkpt lat="47.38406" lon="-1.85031">
        <ele>71</ele>
        <time>2016-04-24T08:40:34Z</time>
      </trkpt>
      <trkpt lat="47.38403" lon="-1.85024">
        <ele>71</ele>
        <time>2016-04-24T08:40:35Z</time>
      </trkpt>
      <trkpt lat="47.38401" lon="-1.85016">
        <ele>71</ele>
        <time>2016-04-24T08:40:36Z</time>
      </trkpt>
      <trkpt lat="47.38397" lon="-1.85007">
        <ele>71</ele>
        <time>2016-04-24T08:40:37Z</time>
      </trkpt>
      <trkpt lat="47.38395" lon="-1.84999">
        <ele>71</ele>
        <time>2016-04-24T08:40:38Z</time>
      </trkpt>
      <trkpt lat="47.38393" lon="-1.84992">
        <ele>71</ele>
        <time>2016-04-24T08:40:39Z</time>
      </trkpt>
      <trkpt lat="47.38391" lon="-1.84988">
        <ele>71</ele>
        <time>2016-04-24T08:40:40Z</time>
      </trkpt>
      <trkpt lat="47.38386" lon="-1.84979">
        <ele>71</ele>
        <time>2016-04-24T08:40:41Z</time>
      </trkpt>
      <trkpt lat="47.38385" lon="-1.84973">
        <ele>71</ele>
        <time>2016-04-24T08:40:42Z</time>
      </trkpt>
      <trkpt lat="47.38382" lon="-1.84968">
        <ele>71</ele>
        <time>2016-04-24T08:40:43Z</time>
      </trkpt>
      <trkpt lat="47.38379" lon="-1.84962">
        <ele>71</ele>
        <time>2016-04-24T08:40:44Z</time>
      </trkpt>
      <trkpt lat="47.38376" lon="-1.84956">
        <ele>71</ele>
        <time>2016-04-24T08:40:45Z</time>
      </trkpt>
      <trkpt lat="47.38373" lon="-1.84952">
        <ele>71</ele>
        <time>2016-04-24T08:40:46Z</time>
      </trkpt>
      <trkpt lat="47.3837" lon="-1.84946">
        <ele>71</ele>
        <time>2016-04-24T08:40:47Z</time>
      </trkpt>
      <trkpt lat="47.38368" lon="-1.84938">
        <ele>71</ele>
        <time>2016-04-24T08:40:48Z</time>
      </trkpt>
      <trkpt lat="47.38364" lon="-1.84931">
        <ele>71</ele>
        <time>2016-04-24T08:40:49Z</time>
      </trkpt>
      <trkpt lat="47.38361" lon="-1.84924">
        <ele>71</ele>
        <time>2016-04-24T08:40:50Z</time>
      </trkpt>
      <trkpt lat="47.38359" lon="-1.84916">
        <ele>71</ele>
        <time>2016-04-24T08:40:51Z</time>
      </trkpt>
      <trkpt lat="47.38358" lon="-1.84908">
        <ele>71</ele>
        <time>2016-04-24T08:40:52Z</time>
      </trkpt>
      <trkpt lat="47.38354" lon="-1.849">
        <ele>71</ele>
        <time>2016-04-24T08:40:53Z</time>
      </trkpt>
      <trkpt lat="47.38356" lon="-1.84896">
        <ele>71</ele>
        <time>2016-04-24T08:40:54Z</time>
      </trkpt>
      <trkpt lat="47.38356" lon="-1.84883">
        <ele>70</ele>
        <time>2016-04-24T08:40:55Z</time>
      </trkpt>
      <trkpt lat="47.38356" lon="-1.84875">
        <ele>70</ele>
        <time>2016-04-24T08:40:56Z</time>
      </trkpt>
      <trkpt lat="47.38356" lon="-1.84868">
        <ele>70</ele>
        <time>2016-04-24T08:40:57Z</time>
      </trkpt>
      <trkpt lat="47.38352" lon="-1.84859">
        <ele>70</ele>
        <time>2016-04-24T08:40:58Z</time>
      </trkpt>
      <trkpt lat="47.38352" lon="-1.8485">
        <ele>70</ele>
        <time>2016-04-24T08:40:59Z</time>
      </trkpt>
      <trkpt lat="47.38349" lon="-1.84842">
        <ele>70</ele>
        <time>2016-04-24T08:41:00Z</time>
      </trkpt>
      <trkpt lat="47.38349" lon="-1.84835">
        <ele>70</ele>
        <time>2016-04-24T08:41:01Z</time>
      </trkpt>
      <trkpt lat="47.38346" lon="-1.84827">
        <ele>69</ele>
        <time>2016-04-24T08:41:02Z</time>
      </trkpt>
      <trkpt lat="47.38345" lon="-1.8482">
        <ele>69</ele>
        <time>2016-04-24T08:41:03Z</time>
      </trkpt>
      <trkpt lat="47.38342" lon="-1.84813">
        <ele>69</ele>
        <time>2016-04-24T08:41:04Z</time>
      </trkpt>
      <trkpt lat="47.38339" lon="-1.84803">
        <ele>69</ele>
        <time>2016-04-24T08:41:05Z</time>
      </trkpt>
      <trkpt lat="47.38338" lon="-1.84793">
        <ele>69</ele>
        <time>2016-04-24T08:41:06Z</time>
      </trkpt>
      <trkpt lat="47.38335" lon="-1.84785">
        <ele>69</ele>
        <time>2016-04-24T08:41:07Z</time>
      </trkpt>
      <trkpt lat="47.3833" lon="-1.84777">
        <ele>66</ele>
        <time>2016-04-24T08:41:08Z</time>
      </trkpt>
      <trkpt lat="47.38329" lon="-1.84769">
        <ele>66</ele>
        <time>2016-04-24T08:41:09Z</time>
      </trkpt>
      <trkpt lat="47.38327" lon="-1.84763">
        <ele>67</ele>
        <time>2016-04-24T08:41:10Z</time>
      </trkpt>
      <trkpt lat="47.38325" lon="-1.84757">
        <ele>67</ele>
        <time>2016-04-24T08:41:11Z</time>
      </trkpt>
      <trkpt lat="47.38323" lon="-1.84753">
        <ele>67</ele>
        <time>2016-04-24T08:41:12Z</time>
      </trkpt>
      <trkpt lat="47.38321" lon="-1.84749">
        <ele>66</ele>
        <time>2016-04-24T08:41:13Z</time>
      </trkpt>
      <trkpt lat="47.38321" lon="-1.84745">
        <ele>66</ele>
        <time>2016-04-24T08:41:14Z</time>
      </trkpt>
      <trkpt lat="47.38323" lon="-1.8474">
        <ele>66</ele>
        <time>2016-04-24T08:41:15Z</time>
      </trkpt>
      <trkpt lat="47.38325" lon="-1.84737">
        <ele>66</ele>
        <time>2016-04-24T08:41:16Z</time>
      </trkpt>
      <trkpt lat="47.38328" lon="-1.84735">
        <ele>66</ele>
        <time>2016-04-24T08:41:17Z</time>
      </trkpt>
      <trkpt lat="47.38335" lon="-1.84733">
        <ele>68</ele>
        <time>2016-04-24T08:41:19Z</time>
      </trkpt>
      <trkpt lat="47.3834" lon="-1.84734">
        <ele>68</ele>
        <time>2016-04-24T08:41:21Z</time>
      </trkpt>
      <trkpt lat="47.38344" lon="-1.84734">
        <ele>68</ele>
        <time>2016-04-24T08:41:22Z</time>
      </trkpt>
      <trkpt lat="47.38348" lon="-1.84734">
        <ele>68</ele>
        <time>2016-04-24T08:41:23Z</time>
      </trkpt>
      <trkpt lat="47.38352" lon="-1.84734">
        <ele>68</ele>
        <time>2016-04-24T08:41:24Z</time>
      </trkpt>
      <trkpt lat="47.38356" lon="-1.84734">
        <ele>68</ele>
        <time>2016-04-24T08:41:25Z</time>
      </trkpt>
      <trkpt lat="47.3836" lon="-1.84734">
        <ele>68</ele>
        <time>2016-04-24T08:41:26Z</time>
      </trkpt>
      <trkpt lat="47.38369" lon="-1.84733">
        <ele>68</ele>
        <time>2016-04-24T08:41:28Z</time>
      </trkpt>
      <trkpt lat="47.38374" lon="-1.84732">
        <ele>68</ele>
        <time>2016-04-24T08:41:29Z</time>
      </trkpt>
      <trkpt lat="47.38378" lon="-1.84732">
        <ele>68</ele>
        <time>2016-04-24T08:41:30Z</time>
      </trkpt>
      <trkpt lat="47.38383" lon="-1.84731">
        <ele>68</ele>
        <time>2016-04-24T08:41:31Z</time>
      </trkpt>
      <trkpt lat="47.38388" lon="-1.8473">
        <ele>68</ele>
        <time>2016-04-24T08:41:32Z</time>
      </trkpt>
      <trkpt lat="47.38392" lon="-1.84729">
        <ele>68</ele>
        <time>2016-04-24T08:41:33Z</time>
      </trkpt>
      <trkpt lat="47.38397" lon="-1.84727">
        <ele>68</ele>
        <time>2016-04-24T08:41:34Z</time>
      </trkpt>
      <trkpt lat="47.38402" lon="-1.84725">
        <ele>68</ele>
        <time>2016-04-24T08:41:35Z</time>
      </trkpt>
      <trkpt lat="47.38407" lon="-1.84722">
        <ele>68</ele>
        <time>2016-04-24T08:41:36Z</time>
      </trkpt>
      <trkpt lat="47.38411" lon="-1.84719">
        <ele>68</ele>
        <time>2016-04-24T08:41:37Z</time>
      </trkpt>
      <trkpt lat="47.38416" lon="-1.84716">
        <ele>68</ele>
        <time>2016-04-24T08:41:38Z</time>
      </trkpt>
      <trkpt lat="47.38424" lon="-1.8471">
        <ele>69</ele>
        <time>2016-04-24T08:41:39Z</time>
      </trkpt>
      <trkpt lat="47.38427" lon="-1.84707">
        <ele>69</ele>
        <time>2016-04-24T08:41:40Z</time>
      </trkpt>
      <trkpt lat="47.38432" lon="-1.84702">
        <ele>69</ele>
        <time>2016-04-24T08:41:41Z</time>
      </trkpt>
      <trkpt lat="47.38436" lon="-1.84699">
        <ele>69</ele>
        <time>2016-04-24T08:41:42Z</time>
      </trkpt>
      <trkpt lat="47.38439" lon="-1.84698">
        <ele>69</ele>
        <time>2016-04-24T08:41:43Z</time>
      </trkpt>
      <trkpt lat="47.38443" lon="-1.84695">
        <ele>69</ele>
        <time>2016-04-24T08:41:44Z</time>
      </trkpt>
      <trkpt lat="47.38446" lon="-1.84693">
        <ele>69</ele>
        <time>2016-04-24T08:41:45Z</time>
      </trkpt>
      <trkpt lat="47.38452" lon="-1.84691">
        <ele>69</ele>
        <time>2016-04-24T08:41:47Z</time>
      </trkpt>
      <trkpt lat="47.38454" lon="-1.8469">
        <ele>69</ele>
        <time>2016-04-24T08:41:48Z</time>
      </trkpt>
      <trkpt lat="47.38458" lon="-1.84688">
        <ele>69</ele>
        <time>2016-04-24T08:41:49Z</time>
      </trkpt>
      <trkpt lat="47.38461" lon="-1.8469">
        <ele>69</ele>
        <time>2016-04-24T08:41:50Z</time>
      </trkpt>
      <trkpt lat="47.38466" lon="-1.84687">
        <ele>69</ele>
        <time>2016-04-24T08:41:51Z</time>
      </trkpt>
      <trkpt lat="47.38472" lon="-1.84684">
        <ele>69</ele>
        <time>2016-04-24T08:41:52Z</time>
      </trkpt>
      <trkpt lat="47.38477" lon="-1.84682">
        <ele>69</ele>
        <time>2016-04-24T08:41:53Z</time>
      </trkpt>
      <trkpt lat="47.38483" lon="-1.8468">
        <ele>68</ele>
        <time>2016-04-24T08:41:54Z</time>
      </trkpt>
      <trkpt lat="47.3849" lon="-1.84677">
        <ele>68</ele>
        <time>2016-04-24T08:41:55Z</time>
      </trkpt>
      <trkpt lat="47.38495" lon="-1.84675">
        <ele>68</ele>
        <time>2016-04-24T08:41:56Z</time>
      </trkpt>
      <trkpt lat="47.38501" lon="-1.84675">
        <ele>68</ele>
        <time>2016-04-24T08:41:57Z</time>
      </trkpt>
      <trkpt lat="47.38507" lon="-1.84674">
        <ele>68</ele>
        <time>2016-04-24T08:41:58Z</time>
      </trkpt>
      <trkpt lat="47.38511" lon="-1.84673">
        <ele>68</ele>
        <time>2016-04-24T08:41:59Z</time>
      </trkpt>
      <trkpt lat="47.38515" lon="-1.84671">
        <ele>68</ele>
        <time>2016-04-24T08:42:00Z</time>
      </trkpt>
      <trkpt lat="47.38521" lon="-1.8467">
        <ele>68</ele>
        <time>2016-04-24T08:42:01Z</time>
      </trkpt>
      <trkpt lat="47.38526" lon="-1.84668">
        <ele>68</ele>
        <time>2016-04-24T08:42:02Z</time>
      </trkpt>
      <trkpt lat="47.3853" lon="-1.84666">
        <ele>67</ele>
        <time>2016-04-24T08:42:03Z</time>
      </trkpt>
      <trkpt lat="47.38533" lon="-1.84665">
        <ele>67</ele>
        <time>2016-04-24T08:42:04Z</time>
      </trkpt>
      <trkpt lat="47.38537" lon="-1.84664">
        <ele>67</ele>
        <time>2016-04-24T08:42:05Z</time>
      </trkpt>
      <trkpt lat="47.38542" lon="-1.84662">
        <ele>67</ele>
        <time>2016-04-24T08:42:06Z</time>
      </trkpt>
      <trkpt lat="47.38545" lon="-1.84661">
        <ele>67</ele>
        <time>2016-04-24T08:42:07Z</time>
      </trkpt>
      <trkpt lat="47.38552" lon="-1.84659">
        <ele>67</ele>
        <time>2016-04-24T08:42:08Z</time>
      </trkpt>
      <trkpt lat="47.38555" lon="-1.84658">
        <ele>67</ele>
        <time>2016-04-24T08:42:09Z</time>
      </trkpt>
      <trkpt lat="47.3856" lon="-1.84656">
        <ele>67</ele>
        <time>2016-04-24T08:42:10Z</time>
      </trkpt>
      <trkpt lat="47.38564" lon="-1.84653">
        <ele>67</ele>
        <time>2016-04-24T08:42:11Z</time>
      </trkpt>
      <trkpt lat="47.38569" lon="-1.84651">
        <ele>67</ele>
        <time>2016-04-24T08:42:12Z</time>
      </trkpt>
      <trkpt lat="47.3858" lon="-1.84645">
        <ele>67</ele>
        <time>2016-04-24T08:42:13Z</time>
      </trkpt>
      <trkpt lat="47.38586" lon="-1.84643">
        <ele>66</ele>
        <time>2016-04-24T08:42:14Z</time>
      </trkpt>
      <trkpt lat="47.38592" lon="-1.84641">
        <ele>66</ele>
        <time>2016-04-24T08:42:15Z</time>
      </trkpt>
      <trkpt lat="47.38598" lon="-1.84639">
        <ele>66</ele>
        <time>2016-04-24T08:42:16Z</time>
      </trkpt>
      <trkpt lat="47.38603" lon="-1.84633">
        <ele>66</ele>
        <time>2016-04-24T08:42:17Z</time>
      </trkpt>
      <trkpt lat="47.38609" lon="-1.8463">
        <ele>66</ele>
        <time>2016-04-24T08:42:18Z</time>
      </trkpt>
      <trkpt lat="47.38617" lon="-1.84626">
        <ele>65</ele>
        <time>2016-04-24T08:42:19Z</time>
      </trkpt>
      <trkpt lat="47.38623" lon="-1.8462">
        <ele>65</ele>
        <time>2016-04-24T08:42:20Z</time>
      </trkpt>
      <trkpt lat="47.38628" lon="-1.84615">
        <ele>65</ele>
        <time>2016-04-24T08:42:21Z</time>
      </trkpt>
      <trkpt lat="47.38634" lon="-1.84609">
        <ele>65</ele>
        <time>2016-04-24T08:42:22Z</time>
      </trkpt>
      <trkpt lat="47.3864" lon="-1.84605">
        <ele>65</ele>
        <time>2016-04-24T08:42:23Z</time>
      </trkpt>
      <trkpt lat="47.38647" lon="-1.84601">
        <ele>65</ele>
        <time>2016-04-24T08:42:24Z</time>
      </trkpt>
      <trkpt lat="47.38654" lon="-1.84595">
        <ele>64</ele>
        <time>2016-04-24T08:42:25Z</time>
      </trkpt>
      <trkpt lat="47.3866" lon="-1.8459">
        <ele>64</ele>
        <time>2016-04-24T08:42:26Z</time>
      </trkpt>
      <trkpt lat="47.38667" lon="-1.84584">
        <ele>63</ele>
        <time>2016-04-24T08:42:27Z</time>
      </trkpt>
      <trkpt lat="47.38675" lon="-1.84578">
        <ele>63</ele>
        <time>2016-04-24T08:42:28Z</time>
      </trkpt>
      <trkpt lat="47.38684" lon="-1.8457">
        <ele>63</ele>
        <time>2016-04-24T08:42:29Z</time>
      </trkpt>
      <trkpt lat="47.38692" lon="-1.84565">
        <ele>64</ele>
        <time>2016-04-24T08:42:30Z</time>
      </trkpt>
      <trkpt lat="47.38698" lon="-1.8456">
        <ele>64</ele>
        <time>2016-04-24T08:42:31Z</time>
      </trkpt>
      <trkpt lat="47.38702" lon="-1.84557">
        <ele>64</ele>
        <time>2016-04-24T08:42:32Z</time>
      </trkpt>
      <trkpt lat="47.38711" lon="-1.84549">
        <ele>64</ele>
        <time>2016-04-24T08:42:33Z</time>
      </trkpt>
      <trkpt lat="47.38718" lon="-1.84545">
        <ele>64</ele>
        <time>2016-04-24T08:42:34Z</time>
      </trkpt>
      <trkpt lat="47.38725" lon="-1.8454">
        <ele>64</ele>
        <time>2016-04-24T08:42:35Z</time>
      </trkpt>
      <trkpt lat="47.38731" lon="-1.84535">
        <ele>64</ele>
        <time>2016-04-24T08:42:36Z</time>
      </trkpt>
      <trkpt lat="47.38739" lon="-1.8453">
        <ele>64</ele>
        <time>2016-04-24T08:42:37Z</time>
      </trkpt>
      <trkpt lat="47.38745" lon="-1.84525">
        <ele>64</ele>
        <time>2016-04-24T08:42:38Z</time>
      </trkpt>
      <trkpt lat="47.3875" lon="-1.84518">
        <ele>64</ele>
        <time>2016-04-24T08:42:39Z</time>
      </trkpt>
      <trkpt lat="47.38756" lon="-1.84513">
        <ele>66</ele>
        <time>2016-04-24T08:42:40Z</time>
      </trkpt>
      <trkpt lat="47.38762" lon="-1.84509">
        <ele>66</ele>
        <time>2016-04-24T08:42:41Z</time>
      </trkpt>
      <trkpt lat="47.38768" lon="-1.84505">
        <ele>66</ele>
        <time>2016-04-24T08:42:42Z</time>
      </trkpt>
      <trkpt lat="47.38774" lon="-1.84498">
        <ele>66</ele>
        <time>2016-04-24T08:42:43Z</time>
      </trkpt>
      <trkpt lat="47.38778" lon="-1.84494">
        <ele>66</ele>
        <time>2016-04-24T08:42:44Z</time>
      </trkpt>
      <trkpt lat="47.38782" lon="-1.84488">
        <ele>67</ele>
        <time>2016-04-24T08:42:45Z</time>
      </trkpt>
      <trkpt lat="47.38787" lon="-1.84481">
        <ele>67</ele>
        <time>2016-04-24T08:42:46Z</time>
      </trkpt>
      <trkpt lat="47.38792" lon="-1.84474">
        <ele>67</ele>
        <time>2016-04-24T08:42:47Z</time>
      </trkpt>
      <trkpt lat="47.38797" lon="-1.84468">
        <ele>67</ele>
        <time>2016-04-24T08:42:48Z</time>
      </trkpt>
      <trkpt lat="47.38802" lon="-1.84464">
        <ele>67</ele>
        <time>2016-04-24T08:42:49Z</time>
      </trkpt>
      <trkpt lat="47.38806" lon="-1.84459">
        <ele>67</ele>
        <time>2016-04-24T08:42:50Z</time>
      </trkpt>
      <trkpt lat="47.38811" lon="-1.84456">
        <ele>67</ele>
        <time>2016-04-24T08:42:51Z</time>
      </trkpt>
      <trkpt lat="47.38815" lon="-1.84454">
        <ele>67</ele>
        <time>2016-04-24T08:42:52Z</time>
      </trkpt>
      <trkpt lat="47.38818" lon="-1.8445">
        <ele>67</ele>
        <time>2016-04-24T08:42:53Z</time>
      </trkpt>
      <trkpt lat="47.38823" lon="-1.84447">
        <ele>67</ele>
        <time>2016-04-24T08:42:54Z</time>
      </trkpt>
      <trkpt lat="47.38827" lon="-1.84446">
        <ele>67</ele>
        <time>2016-04-24T08:42:55Z</time>
      </trkpt>
      <trkpt lat="47.38835" lon="-1.84445">
        <ele>69</ele>
        <time>2016-04-24T08:42:57Z</time>
      </trkpt>
      <trkpt lat="47.38839" lon="-1.84445">
        <ele>69</ele>
        <time>2016-04-24T08:42:58Z</time>
      </trkpt>
      <trkpt lat="47.3885" lon="-1.84443">
        <ele>69</ele>
        <time>2016-04-24T08:43:00Z</time>
      </trkpt>
      <trkpt lat="47.38856" lon="-1.84439">
        <ele>69</ele>
        <time>2016-04-24T08:43:01Z</time>
      </trkpt>
      <trkpt lat="47.38861" lon="-1.84439">
        <ele>69</ele>
        <time>2016-04-24T08:43:02Z</time>
      </trkpt>
      <trkpt lat="47.38865" lon="-1.84437">
        <ele>69</ele>
        <time>2016-04-24T08:43:03Z</time>
      </trkpt>
      <trkpt lat="47.38875" lon="-1.84434">
        <ele>69</ele>
        <time>2016-04-24T08:43:05Z</time>
      </trkpt>
      <trkpt lat="47.3888" lon="-1.84431">
        <ele>69</ele>
        <time>2016-04-24T08:43:06Z</time>
      </trkpt>
      <trkpt lat="47.38883" lon="-1.84432">
        <ele>69</ele>
        <time>2016-04-24T08:43:07Z</time>
      </trkpt>
      <trkpt lat="47.3889" lon="-1.84429">
        <ele>69</ele>
        <time>2016-04-24T08:43:08Z</time>
      </trkpt>
      <trkpt lat="47.38893" lon="-1.84427">
        <ele>69</ele>
        <time>2016-04-24T08:43:09Z</time>
      </trkpt>
      <trkpt lat="47.38896" lon="-1.84428">
        <ele>69</ele>
        <time>2016-04-24T08:43:10Z</time>
      </trkpt>
      <trkpt lat="47.38901" lon="-1.84426">
        <ele>69</ele>
        <time>2016-04-24T08:43:11Z</time>
      </trkpt>
      <trkpt lat="47.38908" lon="-1.84422">
        <ele>70</ele>
        <time>2016-04-24T08:43:12Z</time>
      </trkpt>
      <trkpt lat="47.38911" lon="-1.84423">
        <ele>70</ele>
        <time>2016-04-24T08:43:13Z</time>
      </trkpt>
      <trkpt lat="47.38916" lon="-1.84422">
        <ele>70</ele>
        <time>2016-04-24T08:43:14Z</time>
      </trkpt>
      <trkpt lat="47.3892" lon="-1.84423">
        <ele>70</ele>
        <time>2016-04-24T08:43:15Z</time>
      </trkpt>
      <trkpt lat="47.38924" lon="-1.84423">
        <ele>70</ele>
        <time>2016-04-24T08:43:16Z</time>
      </trkpt>
      <trkpt lat="47.38929" lon="-1.84422">
        <ele>70</ele>
        <time>2016-04-24T08:43:17Z</time>
      </trkpt>
      <trkpt lat="47.38933" lon="-1.84422">
        <ele>70</ele>
        <time>2016-04-24T08:43:18Z</time>
      </trkpt>
      <trkpt lat="47.38936" lon="-1.84421">
        <ele>70</ele>
        <time>2016-04-24T08:43:19Z</time>
      </trkpt>
      <trkpt lat="47.38939" lon="-1.84422">
        <ele>70</ele>
        <time>2016-04-24T08:43:20Z</time>
      </trkpt>
      <trkpt lat="47.38947" lon="-1.84417">
        <ele>70</ele>
        <time>2016-04-24T08:43:21Z</time>
      </trkpt>
      <trkpt lat="47.38955" lon="-1.84415">
        <ele>70</ele>
        <time>2016-04-24T08:43:23Z</time>
      </trkpt>
      <trkpt lat="47.38961" lon="-1.84413">
        <ele>70</ele>
        <time>2016-04-24T08:43:24Z</time>
      </trkpt>
      <trkpt lat="47.38966" lon="-1.84411">
        <ele>70</ele>
        <time>2016-04-24T08:43:25Z</time>
      </trkpt>
      <trkpt lat="47.3897" lon="-1.84412">
        <ele>70</ele>
        <time>2016-04-24T08:43:26Z</time>
      </trkpt>
      <trkpt lat="47.38976" lon="-1.84411">
        <ele>70</ele>
        <time>2016-04-24T08:43:27Z</time>
      </trkpt>
      <trkpt lat="47.38982" lon="-1.84412">
        <ele>70</ele>
        <time>2016-04-24T08:43:29Z</time>
      </trkpt>
      <trkpt lat="47.38987" lon="-1.84412">
        <ele>70</ele>
        <time>2016-04-24T08:43:30Z</time>
      </trkpt>
      <trkpt lat="47.38991" lon="-1.8441">
        <ele>70</ele>
        <time>2016-04-24T08:43:31Z</time>
      </trkpt>
      <trkpt lat="47.38995" lon="-1.8441">
        <ele>70</ele>
        <time>2016-04-24T08:43:32Z</time>
      </trkpt>
      <trkpt lat="47.39002" lon="-1.84407">
        <ele>70</ele>
        <time>2016-04-24T08:43:33Z</time>
      </trkpt>
      <trkpt lat="47.39007" lon="-1.84405">
        <ele>70</ele>
        <time>2016-04-24T08:43:34Z</time>
      </trkpt>
      <trkpt lat="47.39011" lon="-1.84404">
        <ele>70</ele>
        <time>2016-04-24T08:43:35Z</time>
      </trkpt>
      <trkpt lat="47.39016" lon="-1.84401">
        <ele>70</ele>
        <time>2016-04-24T08:43:36Z</time>
      </trkpt>
      <trkpt lat="47.3902" lon="-1.844">
        <ele>70</ele>
        <time>2016-04-24T08:43:37Z</time>
      </trkpt>
      <trkpt lat="47.39024" lon="-1.844">
        <ele>70</ele>
        <time>2016-04-24T08:43:38Z</time>
      </trkpt>
      <trkpt lat="47.39029" lon="-1.84399">
        <ele>70</ele>
        <time>2016-04-24T08:43:39Z</time>
      </trkpt>
      <trkpt lat="47.39032" lon="-1.84398">
        <ele>70</ele>
        <time>2016-04-24T08:43:40Z</time>
      </trkpt>
      <trkpt lat="47.39036" lon="-1.84398">
        <ele>70</ele>
        <time>2016-04-24T08:43:41Z</time>
      </trkpt>
      <trkpt lat="47.39043" lon="-1.84395">
        <ele>70</ele>
        <time>2016-04-24T08:43:43Z</time>
      </trkpt>
      <trkpt lat="47.39046" lon="-1.84394">
        <ele>70</ele>
        <time>2016-04-24T08:43:44Z</time>
      </trkpt>
      <trkpt lat="47.39051" lon="-1.84393">
        <ele>70</ele>
        <time>2016-04-24T08:43:45Z</time>
      </trkpt>
      <trkpt lat="47.39055" lon="-1.84392">
        <ele>70</ele>
        <time>2016-04-24T08:43:46Z</time>
      </trkpt>
      <trkpt lat="47.3906" lon="-1.84391">
        <ele>70</ele>
        <time>2016-04-24T08:43:47Z</time>
      </trkpt>
      <trkpt lat="47.39063" lon="-1.84391">
        <ele>70</ele>
        <time>2016-04-24T08:43:48Z</time>
      </trkpt>
      <trkpt lat="47.39067" lon="-1.8439">
        <ele>70</ele>
        <time>2016-04-24T08:43:49Z</time>
      </trkpt>
      <trkpt lat="47.3907" lon="-1.8439">
        <ele>70</ele>
        <time>2016-04-24T08:43:50Z</time>
      </trkpt>
      <trkpt lat="47.39076" lon="-1.84389">
        <ele>70</ele>
        <time>2016-04-24T08:43:52Z</time>
      </trkpt>
      <trkpt lat="47.39078" lon="-1.84388">
        <ele>70</ele>
        <time>2016-04-24T08:43:53Z</time>
      </trkpt>
      <trkpt lat="47.39084" lon="-1.84387">
        <ele>69</ele>
        <time>2016-04-24T08:43:55Z</time>
      </trkpt>
      <trkpt lat="47.39087" lon="-1.84386">
        <ele>69</ele>
        <time>2016-04-24T08:43:56Z</time>
      </trkpt>
      <trkpt lat="47.3909" lon="-1.84385">
        <ele>69</ele>
        <time>2016-04-24T08:43:57Z</time>
      </trkpt>
      <trkpt lat="47.39093" lon="-1.84384">
        <ele>69</ele>
        <time>2016-04-24T08:43:58Z</time>
      </trkpt>
      <trkpt lat="47.39096" lon="-1.84383">
        <ele>69</ele>
        <time>2016-04-24T08:43:59Z</time>
      </trkpt>
      <trkpt lat="47.39099" lon="-1.84382">
        <ele>69</ele>
        <time>2016-04-24T08:44:00Z</time>
      </trkpt>
      <trkpt lat="47.39103" lon="-1.84381">
        <ele>69</ele>
        <time>2016-04-24T08:44:01Z</time>
      </trkpt>
      <trkpt lat="47.39106" lon="-1.84381">
        <ele>69</ele>
        <time>2016-04-24T08:44:02Z</time>
      </trkpt>
      <trkpt lat="47.39109" lon="-1.8438">
        <ele>69</ele>
        <time>2016-04-24T08:44:03Z</time>
      </trkpt>
      <trkpt lat="47.39112" lon="-1.8438">
        <ele>69</ele>
        <time>2016-04-24T08:44:04Z</time>
      </trkpt>
      <trkpt lat="47.39116" lon="-1.8438">
        <ele>69</ele>
        <time>2016-04-24T08:44:05Z</time>
      </trkpt>
      <trkpt lat="47.3912" lon="-1.8438">
        <ele>69</ele>
        <time>2016-04-24T08:44:06Z</time>
      </trkpt>
      <trkpt lat="47.39123" lon="-1.84379">
        <ele>69</ele>
        <time>2016-04-24T08:44:07Z</time>
      </trkpt>
      <trkpt lat="47.39127" lon="-1.84378">
        <ele>69</ele>
        <time>2016-04-24T08:44:08Z</time>
      </trkpt>
      <trkpt lat="47.39132" lon="-1.84377">
        <ele>69</ele>
        <time>2016-04-24T08:44:09Z</time>
      </trkpt>
      <trkpt lat="47.39137" lon="-1.84376">
        <ele>69</ele>
        <time>2016-04-24T08:44:10Z</time>
      </trkpt>
      <trkpt lat="47.39141" lon="-1.84375">
        <ele>69</ele>
        <time>2016-04-24T08:44:11Z</time>
      </trkpt>
      <trkpt lat="47.39146" lon="-1.84374">
        <ele>69</ele>
        <time>2016-04-24T08:44:12Z</time>
      </trkpt>
      <trkpt lat="47.3915" lon="-1.84373">
        <ele>69</ele>
        <time>2016-04-24T08:44:13Z</time>
      </trkpt>
      <trkpt lat="47.39154" lon="-1.84374">
        <ele>69</ele>
        <time>2016-04-24T08:44:14Z</time>
      </trkpt>
      <trkpt lat="47.39158" lon="-1.84376">
        <ele>69</ele>
        <time>2016-04-24T08:44:15Z</time>
      </trkpt>
      <trkpt lat="47.39161" lon="-1.84379">
        <ele>69</ele>
        <time>2016-04-24T08:44:16Z</time>
      </trkpt>
      <trkpt lat="47.39164" lon="-1.8438">
        <ele>69</ele>
        <time>2016-04-24T08:44:19Z</time>
      </trkpt>
      <trkpt lat="47.39167" lon="-1.84374">
        <ele>69</ele>
        <time>2016-04-24T08:44:21Z</time>
      </trkpt>
      <trkpt lat="47.3917" lon="-1.8437">
        <ele>68</ele>
        <time>2016-04-24T08:44:22Z</time>
      </trkpt>
      <trkpt lat="47.39174" lon="-1.84367">
        <ele>68</ele>
        <time>2016-04-24T08:44:23Z</time>
      </trkpt>
      <trkpt lat="47.39178" lon="-1.84365">
        <ele>68</ele>
        <time>2016-04-24T08:44:24Z</time>
      </trkpt>
      <trkpt lat="47.39183" lon="-1.84363">
        <ele>68</ele>
        <time>2016-04-24T08:44:25Z</time>
      </trkpt>
      <trkpt lat="47.3919" lon="-1.8436">
        <ele>68</ele>
        <time>2016-04-24T08:44:26Z</time>
      </trkpt>
      <trkpt lat="47.39195" lon="-1.84359">
        <ele>68</ele>
        <time>2016-04-24T08:44:27Z</time>
      </trkpt>
      <trkpt lat="47.39202" lon="-1.84357">
        <ele>68</ele>
        <time>2016-04-24T08:44:28Z</time>
      </trkpt>
      <trkpt lat="47.39208" lon="-1.84357">
        <ele>68</ele>
        <time>2016-04-24T08:44:29Z</time>
      </trkpt>
      <trkpt lat="47.39213" lon="-1.84355">
        <ele>68</ele>
        <time>2016-04-24T08:44:30Z</time>
      </trkpt>
      <trkpt lat="47.39218" lon="-1.84355">
        <ele>68</ele>
        <time>2016-04-24T08:44:31Z</time>
      </trkpt>
      <trkpt lat="47.39224" lon="-1.84354">
        <ele>68</ele>
        <time>2016-04-24T08:44:32Z</time>
      </trkpt>
      <trkpt lat="47.39229" lon="-1.84355">
        <ele>68</ele>
        <time>2016-04-24T08:44:33Z</time>
      </trkpt>
      <trkpt lat="47.39235" lon="-1.84356">
        <ele>68</ele>
        <time>2016-04-24T08:44:34Z</time>
      </trkpt>
      <trkpt lat="47.3924" lon="-1.84357">
        <ele>68</ele>
        <time>2016-04-24T08:44:35Z</time>
      </trkpt>
      <trkpt lat="47.39244" lon="-1.84359">
        <ele>68</ele>
        <time>2016-04-24T08:44:36Z</time>
      </trkpt>
      <trkpt lat="47.39248" lon="-1.8436">
        <ele>68</ele>
        <time>2016-04-24T08:44:37Z</time>
      </trkpt>
      <trkpt lat="47.39253" lon="-1.84362">
        <ele>67</ele>
        <time>2016-04-24T08:44:38Z</time>
      </trkpt>
      <trkpt lat="47.39259" lon="-1.84364">
        <ele>67</ele>
        <time>2016-04-24T08:44:39Z</time>
      </trkpt>
      <trkpt lat="47.39262" lon="-1.84367">
        <ele>67</ele>
        <time>2016-04-24T08:44:40Z</time>
      </trkpt>
      <trkpt lat="47.39266" lon="-1.84369">
        <ele>67</ele>
        <time>2016-04-24T08:44:41Z</time>
      </trkpt>
      <trkpt lat="47.39271" lon="-1.84372">
        <ele>67</ele>
        <time>2016-04-24T08:44:42Z</time>
      </trkpt>
      <trkpt lat="47.39277" lon="-1.84375">
        <ele>67</ele>
        <time>2016-04-24T08:44:43Z</time>
      </trkpt>
      <trkpt lat="47.39283" lon="-1.84378">
        <ele>67</ele>
        <time>2016-04-24T08:44:44Z</time>
      </trkpt>
      <trkpt lat="47.39288" lon="-1.84381">
        <ele>67</ele>
        <time>2016-04-24T08:44:45Z</time>
      </trkpt>
      <trkpt lat="47.39293" lon="-1.84384">
        <ele>66</ele>
        <time>2016-04-24T08:44:46Z</time>
      </trkpt>
      <trkpt lat="47.39299" lon="-1.84387">
        <ele>66</ele>
        <time>2016-04-24T08:44:47Z</time>
      </trkpt>
      <trkpt lat="47.39304" lon="-1.8439">
        <ele>66</ele>
        <time>2016-04-24T08:44:48Z</time>
      </trkpt>
      <trkpt lat="47.3931" lon="-1.84392">
        <ele>66</ele>
        <time>2016-04-24T08:44:49Z</time>
      </trkpt>
      <trkpt lat="47.39317" lon="-1.84396">
        <ele>66</ele>
        <time>2016-04-24T08:44:50Z</time>
      </trkpt>
      <trkpt lat="47.39324" lon="-1.84399">
        <ele>66</ele>
        <time>2016-04-24T08:44:51Z</time>
      </trkpt>
      <trkpt lat="47.39334" lon="-1.844">
        <ele>66</ele>
        <time>2016-04-24T08:44:52Z</time>
      </trkpt>
      <trkpt lat="47.39337" lon="-1.84404">
        <ele>66</ele>
        <time>2016-04-24T08:44:53Z</time>
      </trkpt>
      <trkpt lat="47.3934" lon="-1.84408">
        <ele>66</ele>
        <time>2016-04-24T08:44:54Z</time>
      </trkpt>
      <trkpt lat="47.39337" lon="-1.84409">
        <ele>66</ele>
        <time>2016-04-24T08:44:55Z</time>
      </trkpt>
      <trkpt lat="47.39345" lon="-1.84412">
        <ele>66</ele>
        <time>2016-04-24T08:44:56Z</time>
      </trkpt>
      <trkpt lat="47.39351" lon="-1.84416">
        <ele>66</ele>
        <time>2016-04-24T08:44:57Z</time>
      </trkpt>
      <trkpt lat="47.39358" lon="-1.84421">
        <ele>66</ele>
        <time>2016-04-24T08:44:59Z</time>
      </trkpt>
      <trkpt lat="47.39364" lon="-1.84423">
        <ele>66</ele>
        <time>2016-04-24T08:45:00Z</time>
      </trkpt>
      <trkpt lat="47.3937" lon="-1.84425">
        <ele>66</ele>
        <time>2016-04-24T08:45:01Z</time>
      </trkpt>
      <trkpt lat="47.39375" lon="-1.84428">
        <ele>66</ele>
        <time>2016-04-24T08:45:02Z</time>
      </trkpt>
      <trkpt lat="47.39382" lon="-1.84432">
        <ele>66</ele>
        <time>2016-04-24T08:45:03Z</time>
      </trkpt>
      <trkpt lat="47.39385" lon="-1.84434">
        <ele>66</ele>
        <time>2016-04-24T08:45:04Z</time>
      </trkpt>
      <trkpt lat="47.39391" lon="-1.84437">
        <ele>66</ele>
        <time>2016-04-24T08:45:05Z</time>
      </trkpt>
      <trkpt lat="47.39398" lon="-1.8444">
        <ele>66</ele>
        <time>2016-04-24T08:45:06Z</time>
      </trkpt>
      <trkpt lat="47.39402" lon="-1.84443">
        <ele>66</ele>
        <time>2016-04-24T08:45:07Z</time>
      </trkpt>
      <trkpt lat="47.39406" lon="-1.84446">
        <ele>66</ele>
        <time>2016-04-24T08:45:08Z</time>
      </trkpt>
      <trkpt lat="47.39413" lon="-1.84449">
        <ele>66</ele>
        <time>2016-04-24T08:45:09Z</time>
      </trkpt>
      <trkpt lat="47.39418" lon="-1.84452">
        <ele>66</ele>
        <time>2016-04-24T08:45:10Z</time>
      </trkpt>
      <trkpt lat="47.39422" lon="-1.84456">
        <ele>66</ele>
        <time>2016-04-24T08:45:11Z</time>
      </trkpt>
      <trkpt lat="47.39424" lon="-1.84461">
        <ele>67</ele>
        <time>2016-04-24T08:45:12Z</time>
      </trkpt>
      <trkpt lat="47.39426" lon="-1.84465">
        <ele>67</ele>
        <time>2016-04-24T08:45:13Z</time>
      </trkpt>
      <trkpt lat="47.39431" lon="-1.8447">
        <ele>67</ele>
        <time>2016-04-24T08:45:14Z</time>
      </trkpt>
      <trkpt lat="47.39437" lon="-1.84477">
        <ele>67</ele>
        <time>2016-04-24T08:45:15Z</time>
      </trkpt>
      <trkpt lat="47.3944" lon="-1.84482">
        <ele>67</ele>
        <time>2016-04-24T08:45:16Z</time>
      </trkpt>
      <trkpt lat="47.39444" lon="-1.84489">
        <ele>67</ele>
        <time>2016-04-24T08:45:17Z</time>
      </trkpt>
      <trkpt lat="47.39445" lon="-1.84493">
        <ele>67</ele>
        <time>2016-04-24T08:45:18Z</time>
      </trkpt>
      <trkpt lat="47.3945" lon="-1.84498">
        <ele>67</ele>
        <time>2016-04-24T08:45:19Z</time>
      </trkpt>
      <trkpt lat="47.39452" lon="-1.84502">
        <ele>67</ele>
        <time>2016-04-24T08:45:20Z</time>
      </trkpt>
      <trkpt lat="47.39455" lon="-1.84507">
        <ele>67</ele>
        <time>2016-04-24T08:45:21Z</time>
      </trkpt>
      <trkpt lat="47.3946" lon="-1.84511">
        <ele>67</ele>
        <time>2016-04-24T08:45:22Z</time>
      </trkpt>
      <trkpt lat="47.39465" lon="-1.84516">
        <ele>67</ele>
        <time>2016-04-24T08:45:23Z</time>
      </trkpt>
      <trkpt lat="47.39469" lon="-1.8452">
        <ele>67</ele>
        <time>2016-04-24T08:45:24Z</time>
      </trkpt>
      <trkpt lat="47.39473" lon="-1.84523">
        <ele>67</ele>
        <time>2016-04-24T08:45:25Z</time>
      </trkpt>
      <trkpt lat="47.39479" lon="-1.84526">
        <ele>67</ele>
        <time>2016-04-24T08:45:26Z</time>
      </trkpt>
      <trkpt lat="47.39484" lon="-1.84528">
        <ele>67</ele>
        <time>2016-04-24T08:45:27Z</time>
      </trkpt>
      <trkpt lat="47.39491" lon="-1.84529">
        <ele>67</ele>
        <time>2016-04-24T08:45:28Z</time>
      </trkpt>
      <trkpt lat="47.39495" lon="-1.84528">
        <ele>67</ele>
        <time>2016-04-24T08:45:29Z</time>
      </trkpt>
      <trkpt lat="47.39501" lon="-1.84529">
        <ele>66</ele>
        <time>2016-04-24T08:45:30Z</time>
      </trkpt>
      <trkpt lat="47.39506" lon="-1.84528">
        <ele>66</ele>
        <time>2016-04-24T08:45:31Z</time>
      </trkpt>
      <trkpt lat="47.39511" lon="-1.84525">
        <ele>67</ele>
        <time>2016-04-24T08:45:32Z</time>
      </trkpt>
      <trkpt lat="47.39515" lon="-1.84521">
        <ele>67</ele>
        <time>2016-04-24T08:45:33Z</time>
      </trkpt>
      <trkpt lat="47.39522" lon="-1.84516">
        <ele>67</ele>
        <time>2016-04-24T08:45:34Z</time>
      </trkpt>
      <trkpt lat="47.39526" lon="-1.84513">
        <ele>67</ele>
        <time>2016-04-24T08:45:35Z</time>
      </trkpt>
      <trkpt lat="47.39531" lon="-1.8451">
        <ele>67</ele>
        <time>2016-04-24T08:45:36Z</time>
      </trkpt>
      <trkpt lat="47.39537" lon="-1.84511">
        <ele>67</ele>
        <time>2016-04-24T08:45:37Z</time>
      </trkpt>
      <trkpt lat="47.39541" lon="-1.84513">
        <ele>66</ele>
        <time>2016-04-24T08:45:38Z</time>
      </trkpt>
      <trkpt lat="47.39545" lon="-1.84517">
        <ele>66</ele>
        <time>2016-04-24T08:45:39Z</time>
      </trkpt>
      <trkpt lat="47.39548" lon="-1.84523">
        <ele>66</ele>
        <time>2016-04-24T08:45:40Z</time>
      </trkpt>
      <trkpt lat="47.39552" lon="-1.84527">
        <ele>66</ele>
        <time>2016-04-24T08:45:41Z</time>
      </trkpt>
      <trkpt lat="47.39555" lon="-1.84531">
        <ele>66</ele>
        <time>2016-04-24T08:45:42Z</time>
      </trkpt>
      <trkpt lat="47.3956" lon="-1.84536">
        <ele>66</ele>
        <time>2016-04-24T08:45:43Z</time>
      </trkpt>
      <trkpt lat="47.39563" lon="-1.84538">
        <ele>66</ele>
        <time>2016-04-24T08:45:44Z</time>
      </trkpt>
      <trkpt lat="47.39566" lon="-1.8454">
        <ele>66</ele>
        <time>2016-04-24T08:45:45Z</time>
      </trkpt>
      <trkpt lat="47.39571" lon="-1.84543">
        <ele>66</ele>
        <time>2016-04-24T08:45:46Z</time>
      </trkpt>
      <trkpt lat="47.39578" lon="-1.84545">
        <ele>66</ele>
        <time>2016-04-24T08:45:47Z</time>
      </trkpt>
      <trkpt lat="47.39583" lon="-1.84545">
        <ele>66</ele>
        <time>2016-04-24T08:45:48Z</time>
      </trkpt>
      <trkpt lat="47.3959" lon="-1.84547">
        <ele>66</ele>
        <time>2016-04-24T08:45:49Z</time>
      </trkpt>
      <trkpt lat="47.39596" lon="-1.84547">
        <ele>66</ele>
        <time>2016-04-24T08:45:50Z</time>
      </trkpt>
      <trkpt lat="47.39602" lon="-1.84548">
        <ele>66</ele>
        <time>2016-04-24T08:45:51Z</time>
      </trkpt>
      <trkpt lat="47.39606" lon="-1.84549">
        <ele>66</ele>
        <time>2016-04-24T08:45:52Z</time>
      </trkpt>
      <trkpt lat="47.39613" lon="-1.84549">
        <ele>66</ele>
        <time>2016-04-24T08:45:53Z</time>
      </trkpt>
      <trkpt lat="47.39618" lon="-1.8455">
        <ele>66</ele>
        <time>2016-04-24T08:45:54Z</time>
      </trkpt>
      <trkpt lat="47.39627" lon="-1.84551">
        <ele>66</ele>
        <time>2016-04-24T08:45:55Z</time>
      </trkpt>
      <trkpt lat="47.39633" lon="-1.8455">
        <ele>66</ele>
        <time>2016-04-24T08:45:56Z</time>
      </trkpt>
      <trkpt lat="47.39639" lon="-1.8455">
        <ele>66</ele>
        <time>2016-04-24T08:45:57Z</time>
      </trkpt>
      <trkpt lat="47.39644" lon="-1.84552">
        <ele>66</ele>
        <time>2016-04-24T08:45:58Z</time>
      </trkpt>
      <trkpt lat="47.39649" lon="-1.84552">
        <ele>66</ele>
        <time>2016-04-24T08:45:59Z</time>
      </trkpt>
      <trkpt lat="47.39654" lon="-1.84552">
        <ele>66</ele>
        <time>2016-04-24T08:46:00Z</time>
      </trkpt>
      <trkpt lat="47.39658" lon="-1.84552">
        <ele>66</ele>
        <time>2016-04-24T08:46:01Z</time>
      </trkpt>
      <trkpt lat="47.39661" lon="-1.84554">
        <ele>66</ele>
        <time>2016-04-24T08:46:02Z</time>
      </trkpt>
      <trkpt lat="47.39667" lon="-1.84554">
        <ele>66</ele>
        <time>2016-04-24T08:46:03Z</time>
      </trkpt>
      <trkpt lat="47.39672" lon="-1.84555">
        <ele>66</ele>
        <time>2016-04-24T08:46:04Z</time>
      </trkpt>
      <trkpt lat="47.39678" lon="-1.84555">
        <ele>66</ele>
        <time>2016-04-24T08:46:05Z</time>
      </trkpt>
      <trkpt lat="47.39684" lon="-1.84558">
        <ele>66</ele>
        <time>2016-04-24T08:46:06Z</time>
      </trkpt>
      <trkpt lat="47.39689" lon="-1.8456">
        <ele>66</ele>
        <time>2016-04-24T08:46:07Z</time>
      </trkpt>
      <trkpt lat="47.39692" lon="-1.84562">
        <ele>66</ele>
        <time>2016-04-24T08:46:08Z</time>
      </trkpt>
      <trkpt lat="47.39695" lon="-1.84565">
        <ele>66</ele>
        <time>2016-04-24T08:46:09Z</time>
      </trkpt>
      <trkpt lat="47.39704" lon="-1.84566">
        <ele>66</ele>
        <time>2016-04-24T08:46:10Z</time>
      </trkpt>
      <trkpt lat="47.3971" lon="-1.84567">
        <ele>66</ele>
        <time>2016-04-24T08:46:11Z</time>
      </trkpt>
      <trkpt lat="47.39717" lon="-1.84568">
        <ele>66</ele>
        <time>2016-04-24T08:46:12Z</time>
      </trkpt>
      <trkpt lat="47.39723" lon="-1.8457">
        <ele>66</ele>
        <time>2016-04-24T08:46:13Z</time>
      </trkpt>
      <trkpt lat="47.39727" lon="-1.84572">
        <ele>66</ele>
        <time>2016-04-24T08:46:14Z</time>
      </trkpt>
      <trkpt lat="47.39731" lon="-1.84576">
        <ele>67</ele>
        <time>2016-04-24T08:46:15Z</time>
      </trkpt>
      <trkpt lat="47.39737" lon="-1.8458">
        <ele>67</ele>
        <time>2016-04-24T08:46:16Z</time>
      </trkpt>
      <trkpt lat="47.39743" lon="-1.8458">
        <ele>67</ele>
        <time>2016-04-24T08:46:17Z</time>
      </trkpt>
      <trkpt lat="47.3975" lon="-1.84583">
        <ele>67</ele>
        <time>2016-04-24T08:46:18Z</time>
      </trkpt>
      <trkpt lat="47.39756" lon="-1.84584">
        <ele>67</ele>
        <time>2016-04-24T08:46:19Z</time>
      </trkpt>
      <trkpt lat="47.39762" lon="-1.84587">
        <ele>67</ele>
        <time>2016-04-24T08:46:20Z</time>
      </trkpt>
      <trkpt lat="47.39769" lon="-1.84589">
        <ele>67</ele>
        <time>2016-04-24T08:46:21Z</time>
      </trkpt>
      <trkpt lat="47.39775" lon="-1.84591">
        <ele>67</ele>
        <time>2016-04-24T08:46:22Z</time>
      </trkpt>
      <trkpt lat="47.39778" lon="-1.84593">
        <ele>67</ele>
        <time>2016-04-24T08:46:23Z</time>
      </trkpt>
      <trkpt lat="47.39784" lon="-1.84595">
        <ele>67</ele>
        <time>2016-04-24T08:46:24Z</time>
      </trkpt>
      <trkpt lat="47.39787" lon="-1.84596">
        <ele>67</ele>
        <time>2016-04-24T08:46:25Z</time>
      </trkpt>
      <trkpt lat="47.39793" lon="-1.84601">
        <ele>67</ele>
        <time>2016-04-24T08:46:26Z</time>
      </trkpt>
      <trkpt lat="47.398" lon="-1.84601">
        <ele>67</ele>
        <time>2016-04-24T08:46:27Z</time>
      </trkpt>
      <trkpt lat="47.39805" lon="-1.84603">
        <ele>67</ele>
        <time>2016-04-24T08:46:28Z</time>
      </trkpt>
      <trkpt lat="47.39811" lon="-1.84603">
        <ele>67</ele>
        <time>2016-04-24T08:46:29Z</time>
      </trkpt>
      <trkpt lat="47.39815" lon="-1.84605">
        <ele>67</ele>
        <time>2016-04-24T08:46:30Z</time>
      </trkpt>
      <trkpt lat="47.39821" lon="-1.84609">
        <ele>67</ele>
        <time>2016-04-24T08:46:31Z</time>
      </trkpt>
      <trkpt lat="47.39824" lon="-1.84611">
        <ele>67</ele>
        <time>2016-04-24T08:46:32Z</time>
      </trkpt>
      <trkpt lat="47.3983" lon="-1.84616">
        <ele>67</ele>
        <time>2016-04-24T08:46:33Z</time>
      </trkpt>
      <trkpt lat="47.39835" lon="-1.84618">
        <ele>69</ele>
        <time>2016-04-24T08:46:34Z</time>
      </trkpt>
      <trkpt lat="47.39841" lon="-1.84621">
        <ele>69</ele>
        <time>2016-04-24T08:46:35Z</time>
      </trkpt>
      <trkpt lat="47.39845" lon="-1.84625">
        <ele>69</ele>
        <time>2016-04-24T08:46:36Z</time>
      </trkpt>
      <trkpt lat="47.39851" lon="-1.84632">
        <ele>69</ele>
        <time>2016-04-24T08:46:37Z</time>
      </trkpt>
      <trkpt lat="47.39854" lon="-1.84637">
        <ele>69</ele>
        <time>2016-04-24T08:46:38Z</time>
      </trkpt>
      <trkpt lat="47.39856" lon="-1.84641">
        <ele>68</ele>
        <time>2016-04-24T08:46:39Z</time>
      </trkpt>
      <trkpt lat="47.3986" lon="-1.84647">
        <ele>68</ele>
        <time>2016-04-24T08:46:40Z</time>
      </trkpt>
      <trkpt lat="47.39865" lon="-1.84655">
        <ele>68</ele>
        <time>2016-04-24T08:46:41Z</time>
      </trkpt>
      <trkpt lat="47.39868" lon="-1.84663">
        <ele>68</ele>
        <time>2016-04-24T08:46:42Z</time>
      </trkpt>
      <trkpt lat="47.39873" lon="-1.84669">
        <ele>66</ele>
        <time>2016-04-24T08:46:43Z</time>
      </trkpt>
      <trkpt lat="47.39876" lon="-1.84674">
        <ele>66</ele>
        <time>2016-04-24T08:46:44Z</time>
      </trkpt>
      <trkpt lat="47.39882" lon="-1.8468">
        <ele>66</ele>
        <time>2016-04-24T08:46:45Z</time>
      </trkpt>
      <trkpt lat="47.39879" lon="-1.84684">
        <ele>65</ele>
        <time>2016-04-24T08:46:46Z</time>
      </trkpt>
      <trkpt lat="47.39883" lon="-1.84688">
        <ele>65</ele>
        <time>2016-04-24T08:46:47Z</time>
      </trkpt>
      <trkpt lat="47.39885" lon="-1.84693">
        <ele>65</ele>
        <time>2016-04-24T08:46:48Z</time>
      </trkpt>
      <trkpt lat="47.39882" lon="-1.84695">
        <ele>65</ele>
        <time>2016-04-24T08:46:49Z</time>
      </trkpt>
      <trkpt lat="47.39886" lon="-1.84698">
        <ele>65</ele>
        <time>2016-04-24T08:46:51Z</time>
      </trkpt>
      <trkpt lat="47.39889" lon="-1.84693">
        <ele>65</ele>
        <time>2016-04-24T08:46:53Z</time>
      </trkpt>
      <trkpt lat="47.39887" lon="-1.84688">
        <ele>65</ele>
        <time>2016-04-24T08:46:55Z</time>
      </trkpt>
      <trkpt lat="47.39884" lon="-1.84683">
        <ele>66</ele>
        <time>2016-04-24T08:46:57Z</time>
      </trkpt>
      <trkpt lat="47.39883" lon="-1.84679">
        <ele>66</ele>
        <time>2016-04-24T08:46:59Z</time>
      </trkpt>
      <trkpt lat="47.39882" lon="-1.84675">
        <ele>66</ele>
        <time>2016-04-24T08:47:03Z</time>
      </trkpt>
      <trkpt lat="47.39883" lon="-1.84682">
        <ele>66</ele>
        <time>2016-04-24T08:47:18Z</time>
      </trkpt>
      <trkpt lat="47.39884" lon="-1.84686">
        <ele>65</ele>
        <time>2016-04-24T08:47:19Z</time>
      </trkpt>
      <trkpt lat="47.39886" lon="-1.84692">
        <ele>65</ele>
        <time>2016-04-24T08:47:20Z</time>
      </trkpt>
      <trkpt lat="47.39887" lon="-1.84698">
        <ele>65</ele>
        <time>2016-04-24T08:47:21Z</time>
      </trkpt>
      <trkpt lat="47.3989" lon="-1.84704">
        <ele>65</ele>
        <time>2016-04-24T08:47:22Z</time>
      </trkpt>
      <trkpt lat="47.39892" lon="-1.8471">
        <ele>65</ele>
        <time>2016-04-24T08:47:23Z</time>
      </trkpt>
      <trkpt lat="47.39896" lon="-1.84716">
        <ele>65</ele>
        <time>2016-04-24T08:47:24Z</time>
      </trkpt>
      <trkpt lat="47.39899" lon="-1.84722">
        <ele>64</ele>
        <time>2016-04-24T08:47:25Z</time>
      </trkpt>
      <trkpt lat="47.39903" lon="-1.84728">
        <ele>64</ele>
        <time>2016-04-24T08:47:26Z</time>
      </trkpt>
      <trkpt lat="47.39906" lon="-1.84735">
        <ele>64</ele>
        <time>2016-04-24T08:47:27Z</time>
      </trkpt>
      <trkpt lat="47.3991" lon="-1.8474">
        <ele>63</ele>
        <time>2016-04-24T08:47:28Z</time>
      </trkpt>
      <trkpt lat="47.39915" lon="-1.84745">
        <ele>63</ele>
        <time>2016-04-24T08:47:29Z</time>
      </trkpt>
      <trkpt lat="47.3992" lon="-1.8475">
        <ele>62</ele>
        <time>2016-04-24T08:47:30Z</time>
      </trkpt>
      <trkpt lat="47.3993" lon="-1.84759">
        <ele>61</ele>
        <time>2016-04-24T08:47:31Z</time>
      </trkpt>
      <trkpt lat="47.39935" lon="-1.84764">
        <ele>61</ele>
        <time>2016-04-24T08:47:32Z</time>
      </trkpt>
      <trkpt lat="47.3994" lon="-1.84767">
        <ele>60</ele>
        <time>2016-04-24T08:47:33Z</time>
      </trkpt>
      <trkpt lat="47.39946" lon="-1.84771">
        <ele>60</ele>
        <time>2016-04-24T08:47:34Z</time>
      </trkpt>
      <trkpt lat="47.39951" lon="-1.84775">
        <ele>60</ele>
        <time>2016-04-24T08:47:35Z</time>
      </trkpt>
      <trkpt lat="47.39955" lon="-1.84778">
        <ele>60</ele>
        <time>2016-04-24T08:47:36Z</time>
      </trkpt>
      <trkpt lat="47.39962" lon="-1.84779">
        <ele>60</ele>
        <time>2016-04-24T08:47:37Z</time>
      </trkpt>
      <trkpt lat="47.39968" lon="-1.84781">
        <ele>60</ele>
        <time>2016-04-24T08:47:38Z</time>
      </trkpt>
      <trkpt lat="47.39974" lon="-1.84782">
        <ele>60</ele>
        <time>2016-04-24T08:47:39Z</time>
      </trkpt>
      <trkpt lat="47.39979" lon="-1.84782">
        <ele>60</ele>
        <time>2016-04-24T08:47:40Z</time>
      </trkpt>
      <trkpt lat="47.39985" lon="-1.84783">
        <ele>60</ele>
        <time>2016-04-24T08:47:41Z</time>
      </trkpt>
      <trkpt lat="47.39985" lon="-1.84787">
        <ele>60</ele>
        <time>2016-04-24T08:47:42Z</time>
      </trkpt>
      <trkpt lat="47.39989" lon="-1.8479">
        <ele>60</ele>
        <time>2016-04-24T08:47:43Z</time>
      </trkpt>
      <trkpt lat="47.39994" lon="-1.84791">
        <ele>60</ele>
        <time>2016-04-24T08:47:44Z</time>
      </trkpt>
      <trkpt lat="47.39999" lon="-1.84793">
        <ele>60</ele>
        <time>2016-04-24T08:47:45Z</time>
      </trkpt>
      <trkpt lat="47.40007" lon="-1.84793">
        <ele>59</ele>
        <time>2016-04-24T08:47:46Z</time>
      </trkpt>
      <trkpt lat="47.40013" lon="-1.84794">
        <ele>59</ele>
        <time>2016-04-24T08:47:47Z</time>
      </trkpt>
      <trkpt lat="47.40016" lon="-1.84797">
        <ele>59</ele>
        <time>2016-04-24T08:47:48Z</time>
      </trkpt>
      <trkpt lat="47.40021" lon="-1.84798">
        <ele>59</ele>
        <time>2016-04-24T08:47:49Z</time>
      </trkpt>
      <trkpt lat="47.40028" lon="-1.84798">
        <ele>58</ele>
        <time>2016-04-24T08:47:50Z</time>
      </trkpt>
      <trkpt lat="47.40032" lon="-1.84799">
        <ele>58</ele>
        <time>2016-04-24T08:47:51Z</time>
      </trkpt>
      <trkpt lat="47.40041" lon="-1.848">
        <ele>58</ele>
        <time>2016-04-24T08:47:52Z</time>
      </trkpt>
      <trkpt lat="47.40047" lon="-1.84799">
        <ele>58</ele>
        <time>2016-04-24T08:47:53Z</time>
      </trkpt>
      <trkpt lat="47.40053" lon="-1.84799">
        <ele>58</ele>
        <time>2016-04-24T08:47:54Z</time>
      </trkpt>
      <trkpt lat="47.40059" lon="-1.84801">
        <ele>58</ele>
        <time>2016-04-24T08:47:55Z</time>
      </trkpt>
      <trkpt lat="47.40066" lon="-1.84802">
        <ele>58</ele>
        <time>2016-04-24T08:47:56Z</time>
      </trkpt>
      <trkpt lat="47.40072" lon="-1.84803">
        <ele>58</ele>
        <time>2016-04-24T08:47:57Z</time>
      </trkpt>
      <trkpt lat="47.40076" lon="-1.84804">
        <ele>58</ele>
        <time>2016-04-24T08:47:58Z</time>
      </trkpt>
      <trkpt lat="47.40082" lon="-1.84807">
        <ele>58</ele>
        <time>2016-04-24T08:47:59Z</time>
      </trkpt>
      <trkpt lat="47.40088" lon="-1.8481">
        <ele>56</ele>
        <time>2016-04-24T08:48:00Z</time>
      </trkpt>
      <trkpt lat="47.40093" lon="-1.8481">
        <ele>56</ele>
        <time>2016-04-24T08:48:01Z</time>
      </trkpt>
      <trkpt lat="47.40098" lon="-1.84815">
        <ele>56</ele>
        <time>2016-04-24T08:48:02Z</time>
      </trkpt>
      <trkpt lat="47.40105" lon="-1.84816">
        <ele>56</ele>
        <time>2016-04-24T08:48:03Z</time>
      </trkpt>
      <trkpt lat="47.40113" lon="-1.84817">
        <ele>56</ele>
        <time>2016-04-24T08:48:04Z</time>
      </trkpt>
      <trkpt lat="47.40118" lon="-1.84819">
        <ele>56</ele>
        <time>2016-04-24T08:48:05Z</time>
      </trkpt>
      <trkpt lat="47.40127" lon="-1.84819">
        <ele>55</ele>
        <time>2016-04-24T08:48:06Z</time>
      </trkpt>
      <trkpt lat="47.40134" lon="-1.84823">
        <ele>55</ele>
        <time>2016-04-24T08:48:07Z</time>
      </trkpt>
      <trkpt lat="47.40143" lon="-1.84826">
        <ele>55</ele>
        <time>2016-04-24T08:48:08Z</time>
      </trkpt>
      <trkpt lat="47.40153" lon="-1.8483">
        <ele>55</ele>
        <time>2016-04-24T08:48:09Z</time>
      </trkpt>
      <trkpt lat="47.40158" lon="-1.84838">
        <ele>54</ele>
        <time>2016-04-24T08:48:10Z</time>
      </trkpt>
      <trkpt lat="47.40167" lon="-1.84836">
        <ele>54</ele>
        <time>2016-04-24T08:48:11Z</time>
      </trkpt>
      <trkpt lat="47.40176" lon="-1.84838">
        <ele>54</ele>
        <time>2016-04-24T08:48:12Z</time>
      </trkpt>
      <trkpt lat="47.40184" lon="-1.8484">
        <ele>53</ele>
        <time>2016-04-24T08:48:13Z</time>
      </trkpt>
      <trkpt lat="47.4019" lon="-1.8484">
        <ele>53</ele>
        <time>2016-04-24T08:48:14Z</time>
      </trkpt>
      <trkpt lat="47.40196" lon="-1.84841">
        <ele>53</ele>
        <time>2016-04-24T08:48:15Z</time>
      </trkpt>
      <trkpt lat="47.40204" lon="-1.84843">
        <ele>53</ele>
        <time>2016-04-24T08:48:16Z</time>
      </trkpt>
      <trkpt lat="47.40211" lon="-1.84846">
        <ele>53</ele>
        <time>2016-04-24T08:48:17Z</time>
      </trkpt>
      <trkpt lat="47.40216" lon="-1.84849">
        <ele>53</ele>
        <time>2016-04-24T08:48:18Z</time>
      </trkpt>
      <trkpt lat="47.40226" lon="-1.8485">
        <ele>53</ele>
        <time>2016-04-24T08:48:19Z</time>
      </trkpt>
      <trkpt lat="47.40234" lon="-1.84852">
        <ele>52</ele>
        <time>2016-04-24T08:48:20Z</time>
      </trkpt>
      <trkpt lat="47.40242" lon="-1.84855">
        <ele>52</ele>
        <time>2016-04-24T08:48:21Z</time>
      </trkpt>
      <trkpt lat="47.40251" lon="-1.84856">
        <ele>53</ele>
        <time>2016-04-24T08:48:22Z</time>
      </trkpt>
      <trkpt lat="47.4026" lon="-1.84857">
        <ele>53</ele>
        <time>2016-04-24T08:48:23Z</time>
      </trkpt>
      <trkpt lat="47.40271" lon="-1.84861">
        <ele>53</ele>
        <time>2016-04-24T08:48:24Z</time>
      </trkpt>
      <trkpt lat="47.40278" lon="-1.84864">
        <ele>53</ele>
        <time>2016-04-24T08:48:25Z</time>
      </trkpt>
      <trkpt lat="47.40286" lon="-1.84867">
        <ele>53</ele>
        <time>2016-04-24T08:48:26Z</time>
      </trkpt>
      <trkpt lat="47.40293" lon="-1.84869">
        <ele>53</ele>
        <time>2016-04-24T08:48:27Z</time>
      </trkpt>
      <trkpt lat="47.403" lon="-1.84871">
        <ele>53</ele>
        <time>2016-04-24T08:48:28Z</time>
      </trkpt>
      <trkpt lat="47.40308" lon="-1.84873">
        <ele>53</ele>
        <time>2016-04-24T08:48:29Z</time>
      </trkpt>
      <trkpt lat="47.40313" lon="-1.84874">
        <ele>53</ele>
        <time>2016-04-24T08:48:30Z</time>
      </trkpt>
      <trkpt lat="47.40316" lon="-1.84874">
        <ele>53</ele>
        <time>2016-04-24T08:48:31Z</time>
      </trkpt>
      <trkpt lat="47.40322" lon="-1.84875">
        <ele>53</ele>
        <time>2016-04-24T08:48:32Z</time>
      </trkpt>
      <trkpt lat="47.4033" lon="-1.84874">
        <ele>53</ele>
        <time>2016-04-24T08:48:33Z</time>
      </trkpt>
      <trkpt lat="47.40335" lon="-1.84875">
        <ele>54</ele>
        <time>2016-04-24T08:48:34Z</time>
      </trkpt>
      <trkpt lat="47.40342" lon="-1.84874">
        <ele>54</ele>
        <time>2016-04-24T08:48:35Z</time>
      </trkpt>
      <trkpt lat="47.40348" lon="-1.84873">
        <ele>55</ele>
        <time>2016-04-24T08:48:36Z</time>
      </trkpt>
      <trkpt lat="47.40353" lon="-1.84873">
        <ele>55</ele>
        <time>2016-04-24T08:48:37Z</time>
      </trkpt>
      <trkpt lat="47.40361" lon="-1.84872">
        <ele>55</ele>
        <time>2016-04-24T08:48:38Z</time>
      </trkpt>
      <trkpt lat="47.40367" lon="-1.8487">
        <ele>55</ele>
        <time>2016-04-24T08:48:39Z</time>
      </trkpt>
      <trkpt lat="47.40373" lon="-1.84869">
        <ele>55</ele>
        <time>2016-04-24T08:48:40Z</time>
      </trkpt>
      <trkpt lat="47.40378" lon="-1.84868">
        <ele>55</ele>
        <time>2016-04-24T08:48:41Z</time>
      </trkpt>
      <trkpt lat="47.40383" lon="-1.84867">
        <ele>55</ele>
        <time>2016-04-24T08:48:42Z</time>
      </trkpt>
      <trkpt lat="47.40388" lon="-1.84867">
        <ele>55</ele>
        <time>2016-04-24T08:48:43Z</time>
      </trkpt>
      <trkpt lat="47.40394" lon="-1.84869">
        <ele>55</ele>
        <time>2016-04-24T08:48:44Z</time>
      </trkpt>
      <trkpt lat="47.404" lon="-1.84871">
        <ele>55</ele>
        <time>2016-04-24T08:48:45Z</time>
      </trkpt>
      <trkpt lat="47.40408" lon="-1.84872">
        <ele>55</ele>
        <time>2016-04-24T08:48:46Z</time>
      </trkpt>
      <trkpt lat="47.40411" lon="-1.8487">
        <ele>55</ele>
        <time>2016-04-24T08:48:47Z</time>
      </trkpt>
      <trkpt lat="47.40416" lon="-1.84868">
        <ele>55</ele>
        <time>2016-04-24T08:48:48Z</time>
      </trkpt>
      <trkpt lat="47.40421" lon="-1.84868">
        <ele>55</ele>
        <time>2016-04-24T08:48:49Z</time>
      </trkpt>
      <trkpt lat="47.40432" lon="-1.84863">
        <ele>55</ele>
        <time>2016-04-24T08:48:50Z</time>
      </trkpt>
      <trkpt lat="47.40435" lon="-1.84864">
        <ele>55</ele>
        <time>2016-04-24T08:48:51Z</time>
      </trkpt>
      <trkpt lat="47.4044" lon="-1.84863">
        <ele>55</ele>
        <time>2016-04-24T08:48:52Z</time>
      </trkpt>
      <trkpt lat="47.40445" lon="-1.84863">
        <ele>55</ele>
        <time>2016-04-24T08:48:53Z</time>
      </trkpt>
      <trkpt lat="47.40454" lon="-1.84861">
        <ele>54</ele>
        <time>2016-04-24T08:48:54Z</time>
      </trkpt>
      <trkpt lat="47.4046" lon="-1.84857">
        <ele>54</ele>
        <time>2016-04-24T08:48:55Z</time>
      </trkpt>
      <trkpt lat="47.40466" lon="-1.84856">
        <ele>54</ele>
        <time>2016-04-24T08:48:56Z</time>
      </trkpt>
      <trkpt lat="47.4047" lon="-1.84855">
        <ele>54</ele>
        <time>2016-04-24T08:48:57Z</time>
      </trkpt>
      <trkpt lat="47.40477" lon="-1.84855">
        <ele>54</ele>
        <time>2016-04-24T08:48:58Z</time>
      </trkpt>
      <trkpt lat="47.40485" lon="-1.84853">
        <ele>54</ele>
        <time>2016-04-24T08:48:59Z</time>
      </trkpt>
      <trkpt lat="47.40488" lon="-1.84851">
        <ele>54</ele>
        <time>2016-04-24T08:49:00Z</time>
      </trkpt>
      <trkpt lat="47.40496" lon="-1.84847">
        <ele>54</ele>
        <time>2016-04-24T08:49:01Z</time>
      </trkpt>
      <trkpt lat="47.405" lon="-1.84847">
        <ele>54</ele>
        <time>2016-04-24T08:49:02Z</time>
      </trkpt>
      <trkpt lat="47.40509" lon="-1.84845">
        <ele>53</ele>
        <time>2016-04-24T08:49:03Z</time>
      </trkpt>
      <trkpt lat="47.40517" lon="-1.84845">
        <ele>53</ele>
        <time>2016-04-24T08:49:04Z</time>
      </trkpt>
      <trkpt lat="47.4052" lon="-1.84849">
        <ele>53</ele>
        <time>2016-04-24T08:49:05Z</time>
      </trkpt>
      <trkpt lat="47.40528" lon="-1.84842">
        <ele>53</ele>
        <time>2016-04-24T08:49:06Z</time>
      </trkpt>
      <trkpt lat="47.40532" lon="-1.8484">
        <ele>53</ele>
        <time>2016-04-24T08:49:07Z</time>
      </trkpt>
      <trkpt lat="47.40536" lon="-1.84842">
        <ele>53</ele>
        <time>2016-04-24T08:49:08Z</time>
      </trkpt>
      <trkpt lat="47.40544" lon="-1.8484">
        <ele>53</ele>
        <time>2016-04-24T08:49:09Z</time>
      </trkpt>
      <trkpt lat="47.4055" lon="-1.8484">
        <ele>53</ele>
        <time>2016-04-24T08:49:10Z</time>
      </trkpt>
      <trkpt lat="47.40557" lon="-1.84837">
        <ele>53</ele>
        <time>2016-04-24T08:49:11Z</time>
      </trkpt>
      <trkpt lat="47.40562" lon="-1.84836">
        <ele>53</ele>
        <time>2016-04-24T08:49:12Z</time>
      </trkpt>
      <trkpt lat="47.40568" lon="-1.84834">
        <ele>52</ele>
        <time>2016-04-24T08:49:13Z</time>
      </trkpt>
      <trkpt lat="47.40573" lon="-1.84834">
        <ele>52</ele>
        <time>2016-04-24T08:49:14Z</time>
      </trkpt>
      <trkpt lat="47.40581" lon="-1.8483">
        <ele>52</ele>
        <time>2016-04-24T08:49:15Z</time>
      </trkpt>
      <trkpt lat="47.40589" lon="-1.84829">
        <ele>52</ele>
        <time>2016-04-24T08:49:16Z</time>
      </trkpt>
      <trkpt lat="47.40598" lon="-1.84827">
        <ele>52</ele>
        <time>2016-04-24T08:49:17Z</time>
      </trkpt>
      <trkpt lat="47.4061" lon="-1.84823">
        <ele>52</ele>
        <time>2016-04-24T08:49:18Z</time>
      </trkpt>
      <trkpt lat="47.40616" lon="-1.84825">
        <ele>52</ele>
        <time>2016-04-24T08:49:19Z</time>
      </trkpt>
      <trkpt lat="47.40624" lon="-1.84826">
        <ele>52</ele>
        <time>2016-04-24T08:49:20Z</time>
      </trkpt>
      <trkpt lat="47.4063" lon="-1.84828">
        <ele>52</ele>
        <time>2016-04-24T08:49:21Z</time>
      </trkpt>
      <trkpt lat="47.40638" lon="-1.84827">
        <ele>52</ele>
        <time>2016-04-24T08:49:22Z</time>
      </trkpt>
      <trkpt lat="47.40644" lon="-1.84826">
        <ele>52</ele>
        <time>2016-04-24T08:49:23Z</time>
      </trkpt>
      <trkpt lat="47.4065" lon="-1.84827">
        <ele>52</ele>
        <time>2016-04-24T08:49:24Z</time>
      </trkpt>
      <trkpt lat="47.40656" lon="-1.84829">
        <ele>52</ele>
        <time>2016-04-24T08:49:25Z</time>
      </trkpt>
      <trkpt lat="47.40663" lon="-1.8483">
        <ele>52</ele>
        <time>2016-04-24T08:49:26Z</time>
      </trkpt>
      <trkpt lat="47.40672" lon="-1.8483">
        <ele>51</ele>
        <time>2016-04-24T08:49:27Z</time>
      </trkpt>
      <trkpt lat="47.40679" lon="-1.8483">
        <ele>51</ele>
        <time>2016-04-24T08:49:28Z</time>
      </trkpt>
      <trkpt lat="47.40686" lon="-1.8483">
        <ele>51</ele>
        <time>2016-04-24T08:49:29Z</time>
      </trkpt>
      <trkpt lat="47.40694" lon="-1.84831">
        <ele>50</ele>
        <time>2016-04-24T08:49:30Z</time>
      </trkpt>
      <trkpt lat="47.40701" lon="-1.84831">
        <ele>50</ele>
        <time>2016-04-24T08:49:31Z</time>
      </trkpt>
      <trkpt lat="47.40709" lon="-1.8483">
        <ele>50</ele>
        <time>2016-04-24T08:49:32Z</time>
      </trkpt>
      <trkpt lat="47.40716" lon="-1.84831">
        <ele>50</ele>
        <time>2016-04-24T08:49:33Z</time>
      </trkpt>
      <trkpt lat="47.40724" lon="-1.84831">
        <ele>50</ele>
        <time>2016-04-24T08:49:34Z</time>
      </trkpt>
      <trkpt lat="47.40731" lon="-1.84829">
        <ele>49</ele>
        <time>2016-04-24T08:49:35Z</time>
      </trkpt>
      <trkpt lat="47.4074" lon="-1.84827">
        <ele>49</ele>
        <time>2016-04-24T08:49:36Z</time>
      </trkpt>
      <trkpt lat="47.40748" lon="-1.84824">
        <ele>49</ele>
        <time>2016-04-24T08:49:37Z</time>
      </trkpt>
      <trkpt lat="47.40756" lon="-1.84822">
        <ele>49</ele>
        <time>2016-04-24T08:49:38Z</time>
      </trkpt>
      <trkpt lat="47.40763" lon="-1.84819">
        <ele>49</ele>
        <time>2016-04-24T08:49:39Z</time>
      </trkpt>
      <trkpt lat="47.40771" lon="-1.84816">
        <ele>49</ele>
        <time>2016-04-24T08:49:40Z</time>
      </trkpt>
      <trkpt lat="47.40779" lon="-1.84814">
        <ele>49</ele>
        <time>2016-04-24T08:49:41Z</time>
      </trkpt>
      <trkpt lat="47.40785" lon="-1.84813">
        <ele>49</ele>
        <time>2016-04-24T08:49:42Z</time>
      </trkpt>
      <trkpt lat="47.40791" lon="-1.84811">
        <ele>49</ele>
        <time>2016-04-24T08:49:43Z</time>
      </trkpt>
      <trkpt lat="47.40801" lon="-1.84806">
        <ele>49</ele>
        <time>2016-04-24T08:49:44Z</time>
      </trkpt>
      <trkpt lat="47.40806" lon="-1.84803">
        <ele>48</ele>
        <time>2016-04-24T08:49:45Z</time>
      </trkpt>
      <trkpt lat="47.40812" lon="-1.84799">
        <ele>48</ele>
        <time>2016-04-24T08:49:46Z</time>
      </trkpt>
      <trkpt lat="47.4082" lon="-1.84794">
        <ele>48</ele>
        <time>2016-04-24T08:49:47Z</time>
      </trkpt>
      <trkpt lat="47.40826" lon="-1.84789">
        <ele>48</ele>
        <time>2016-04-24T08:49:48Z</time>
      </trkpt>
      <trkpt lat="47.40832" lon="-1.84786">
        <ele>48</ele>
        <time>2016-04-24T08:49:49Z</time>
      </trkpt>
      <trkpt lat="47.40839" lon="-1.84782">
        <ele>48</ele>
        <time>2016-04-24T08:49:50Z</time>
      </trkpt>
      <trkpt lat="47.40846" lon="-1.84777">
        <ele>48</ele>
        <time>2016-04-24T08:49:51Z</time>
      </trkpt>
      <trkpt lat="47.40854" lon="-1.84773">
        <ele>48</ele>
        <time>2016-04-24T08:49:52Z</time>
      </trkpt>
      <trkpt lat="47.40862" lon="-1.84769">
        <ele>48</ele>
        <time>2016-04-24T08:49:53Z</time>
      </trkpt>
      <trkpt lat="47.40869" lon="-1.84765">
        <ele>48</ele>
        <time>2016-04-24T08:49:54Z</time>
      </trkpt>
      <trkpt lat="47.40876" lon="-1.84761">
        <ele>48</ele>
        <time>2016-04-24T08:49:55Z</time>
      </trkpt>
      <trkpt lat="47.40882" lon="-1.84756">
        <ele>48</ele>
        <time>2016-04-24T08:49:56Z</time>
      </trkpt>
      <trkpt lat="47.40889" lon="-1.84753">
        <ele>48</ele>
        <time>2016-04-24T08:49:57Z</time>
      </trkpt>
      <trkpt lat="47.40894" lon="-1.84749">
        <ele>47</ele>
        <time>2016-04-24T08:49:58Z</time>
      </trkpt>
      <trkpt lat="47.409" lon="-1.84745">
        <ele>47</ele>
        <time>2016-04-24T08:49:59Z</time>
      </trkpt>
      <trkpt lat="47.40907" lon="-1.84741">
        <ele>47</ele>
        <time>2016-04-24T08:50:00Z</time>
      </trkpt>
      <trkpt lat="47.40913" lon="-1.84737">
        <ele>47</ele>
        <time>2016-04-24T08:50:01Z</time>
      </trkpt>
      <trkpt lat="47.4092" lon="-1.84733">
        <ele>47</ele>
        <time>2016-04-24T08:50:02Z</time>
      </trkpt>
      <trkpt lat="47.40927" lon="-1.8473">
        <ele>48</ele>
        <time>2016-04-24T08:50:03Z</time>
      </trkpt>
      <trkpt lat="47.40933" lon="-1.84726">
        <ele>48</ele>
        <time>2016-04-24T08:50:04Z</time>
      </trkpt>
      <trkpt lat="47.40939" lon="-1.84721">
        <ele>48</ele>
        <time>2016-04-24T08:50:05Z</time>
      </trkpt>
      <trkpt lat="47.40943" lon="-1.84719">
        <ele>48</ele>
        <time>2016-04-24T08:50:06Z</time>
      </trkpt>
      <trkpt lat="47.4095" lon="-1.84716">
        <ele>48</ele>
        <time>2016-04-24T08:50:07Z</time>
      </trkpt>
      <trkpt lat="47.40954" lon="-1.84714">
        <ele>48</ele>
        <time>2016-04-24T08:50:08Z</time>
      </trkpt>
      <trkpt lat="47.40961" lon="-1.84712">
        <ele>48</ele>
        <time>2016-04-24T08:50:09Z</time>
      </trkpt>
      <trkpt lat="47.40967" lon="-1.8471">
        <ele>48</ele>
        <time>2016-04-24T08:50:10Z</time>
      </trkpt>
      <trkpt lat="47.40972" lon="-1.84709">
        <ele>48</ele>
        <time>2016-04-24T08:50:11Z</time>
      </trkpt>
      <trkpt lat="47.40979" lon="-1.84707">
        <ele>48</ele>
        <time>2016-04-24T08:50:12Z</time>
      </trkpt>
      <trkpt lat="47.40985" lon="-1.84706">
        <ele>48</ele>
        <time>2016-04-24T08:50:13Z</time>
      </trkpt>
      <trkpt lat="47.40991" lon="-1.84705">
        <ele>48</ele>
        <time>2016-04-24T08:50:14Z</time>
      </trkpt>
      <trkpt lat="47.40999" lon="-1.84702">
        <ele>48</ele>
        <time>2016-04-24T08:50:15Z</time>
      </trkpt>
      <trkpt lat="47.41007" lon="-1.84701">
        <ele>47</ele>
        <time>2016-04-24T08:50:16Z</time>
      </trkpt>
      <trkpt lat="47.41013" lon="-1.847">
        <ele>47</ele>
        <time>2016-04-24T08:50:17Z</time>
      </trkpt>
      <trkpt lat="47.41019" lon="-1.84699">
        <ele>47</ele>
        <time>2016-04-24T08:50:18Z</time>
      </trkpt>
      <trkpt lat="47.41024" lon="-1.847">
        <ele>47</ele>
        <time>2016-04-24T08:50:19Z</time>
      </trkpt>
      <trkpt lat="47.41032" lon="-1.84697">
        <ele>47</ele>
        <time>2016-04-24T08:50:20Z</time>
      </trkpt>
      <trkpt lat="47.41036" lon="-1.84696">
        <ele>47</ele>
        <time>2016-04-24T08:50:21Z</time>
      </trkpt>
      <trkpt lat="47.41042" lon="-1.84696">
        <ele>47</ele>
        <time>2016-04-24T08:50:22Z</time>
      </trkpt>
      <trkpt lat="47.4105" lon="-1.84694">
        <ele>47</ele>
        <time>2016-04-24T08:50:23Z</time>
      </trkpt>
      <trkpt lat="47.41057" lon="-1.84694">
        <ele>46</ele>
        <time>2016-04-24T08:50:25Z</time>
      </trkpt>
      <trkpt lat="47.41067" lon="-1.84691">
        <ele>46</ele>
        <time>2016-04-24T08:50:26Z</time>
      </trkpt>
      <trkpt lat="47.41072" lon="-1.84689">
        <ele>46</ele>
        <time>2016-04-24T08:50:27Z</time>
      </trkpt>
      <trkpt lat="47.4108" lon="-1.84687">
        <ele>46</ele>
        <time>2016-04-24T08:50:28Z</time>
      </trkpt>
      <trkpt lat="47.41087" lon="-1.84687">
        <ele>45</ele>
        <time>2016-04-24T08:50:29Z</time>
      </trkpt>
      <trkpt lat="47.41094" lon="-1.84684">
        <ele>45</ele>
        <time>2016-04-24T08:50:30Z</time>
      </trkpt>
      <trkpt lat="47.41101" lon="-1.84681">
        <ele>45</ele>
        <time>2016-04-24T08:50:31Z</time>
      </trkpt>
      <trkpt lat="47.41109" lon="-1.84679">
        <ele>45</ele>
        <time>2016-04-24T08:50:32Z</time>
      </trkpt>
      <trkpt lat="47.41117" lon="-1.84678">
        <ele>45</ele>
        <time>2016-04-24T08:50:33Z</time>
      </trkpt>
      <trkpt lat="47.41126" lon="-1.84676">
        <ele>45</ele>
        <time>2016-04-24T08:50:34Z</time>
      </trkpt>
      <trkpt lat="47.41131" lon="-1.84675">
        <ele>45</ele>
        <time>2016-04-24T08:50:35Z</time>
      </trkpt>
      <trkpt lat="47.41134" lon="-1.84676">
        <ele>45</ele>
        <time>2016-04-24T08:50:36Z</time>
      </trkpt>
      <trkpt lat="47.41141" lon="-1.84675">
        <ele>45</ele>
        <time>2016-04-24T08:50:37Z</time>
      </trkpt>
      <trkpt lat="47.41146" lon="-1.84675">
        <ele>45</ele>
        <time>2016-04-24T08:50:38Z</time>
      </trkpt>
      <trkpt lat="47.41149" lon="-1.84676">
        <ele>45</ele>
        <time>2016-04-24T08:50:39Z</time>
      </trkpt>
      <trkpt lat="47.41154" lon="-1.84676">
        <ele>45</ele>
        <time>2016-04-24T08:50:40Z</time>
      </trkpt>
      <trkpt lat="47.41161" lon="-1.84674">
        <ele>45</ele>
        <time>2016-04-24T08:50:41Z</time>
      </trkpt>
      <trkpt lat="47.41168" lon="-1.84673">
        <ele>45</ele>
        <time>2016-04-24T08:50:42Z</time>
      </trkpt>
      <trkpt lat="47.41175" lon="-1.8467">
        <ele>45</ele>
        <time>2016-04-24T08:50:43Z</time>
      </trkpt>
      <trkpt lat="47.41184" lon="-1.84668">
        <ele>45</ele>
        <time>2016-04-24T08:50:44Z</time>
      </trkpt>
      <trkpt lat="47.41191" lon="-1.84667">
        <ele>46</ele>
        <time>2016-04-24T08:50:45Z</time>
      </trkpt>
      <trkpt lat="47.41196" lon="-1.84665">
        <ele>46</ele>
        <time>2016-04-24T08:50:46Z</time>
      </trkpt>
      <trkpt lat="47.41199" lon="-1.84663">
        <ele>46</ele>
        <time>2016-04-24T08:50:47Z</time>
      </trkpt>
      <trkpt lat="47.41207" lon="-1.84661">
        <ele>46</ele>
        <time>2016-04-24T08:50:48Z</time>
      </trkpt>
      <trkpt lat="47.41213" lon="-1.84658">
        <ele>46</ele>
        <time>2016-04-24T08:50:49Z</time>
      </trkpt>
      <trkpt lat="47.4122" lon="-1.84656">
        <ele>46</ele>
        <time>2016-04-24T08:50:50Z</time>
      </trkpt>
      <trkpt lat="47.41225" lon="-1.84653">
        <ele>46</ele>
        <time>2016-04-24T08:50:51Z</time>
      </trkpt>
      <trkpt lat="47.4123" lon="-1.84652">
        <ele>46</ele>
        <time>2016-04-24T08:50:52Z</time>
      </trkpt>
      <trkpt lat="47.41235" lon="-1.8465">
        <ele>47</ele>
        <time>2016-04-24T08:50:53Z</time>
      </trkpt>
      <trkpt lat="47.4124" lon="-1.84648">
        <ele>47</ele>
        <time>2016-04-24T08:50:54Z</time>
      </trkpt>
      <trkpt lat="47.41245" lon="-1.84646">
        <ele>47</ele>
        <time>2016-04-24T08:50:55Z</time>
      </trkpt>
      <trkpt lat="47.41249" lon="-1.84645">
        <ele>47</ele>
        <time>2016-04-24T08:50:56Z</time>
      </trkpt>
      <trkpt lat="47.41254" lon="-1.84644">
        <ele>47</ele>
        <time>2016-04-24T08:50:57Z</time>
      </trkpt>
      <trkpt lat="47.4126" lon="-1.84641">
        <ele>47</ele>
        <time>2016-04-24T08:50:58Z</time>
      </trkpt>
      <trkpt lat="47.41266" lon="-1.84639">
        <ele>48</ele>
        <time>2016-04-24T08:50:59Z</time>
      </trkpt>
      <trkpt lat="47.41272" lon="-1.84638">
        <ele>48</ele>
        <time>2016-04-24T08:51:00Z</time>
      </trkpt>
      <trkpt lat="47.41277" lon="-1.84635">
        <ele>48</ele>
        <time>2016-04-24T08:51:01Z</time>
      </trkpt>
      <trkpt lat="47.41281" lon="-1.84635">
        <ele>48</ele>
        <time>2016-04-24T08:51:02Z</time>
      </trkpt>
      <trkpt lat="47.41285" lon="-1.84634">
        <ele>48</ele>
        <time>2016-04-24T08:51:03Z</time>
      </trkpt>
      <trkpt lat="47.41292" lon="-1.84631">
        <ele>48</ele>
        <time>2016-04-24T08:51:04Z</time>
      </trkpt>
      <trkpt lat="47.41299" lon="-1.8463">
        <ele>48</ele>
        <time>2016-04-24T08:51:05Z</time>
      </trkpt>
      <trkpt lat="47.41305" lon="-1.84628">
        <ele>48</ele>
        <time>2016-04-24T08:51:06Z</time>
      </trkpt>
      <trkpt lat="47.41311" lon="-1.84627">
        <ele>48</ele>
        <time>2016-04-24T08:51:07Z</time>
      </trkpt>
      <trkpt lat="47.41315" lon="-1.84626">
        <ele>48</ele>
        <time>2016-04-24T08:51:08Z</time>
      </trkpt>
      <trkpt lat="47.41319" lon="-1.84625">
        <ele>48</ele>
        <time>2016-04-24T08:51:09Z</time>
      </trkpt>
      <trkpt lat="47.41326" lon="-1.84623">
        <ele>48</ele>
        <time>2016-04-24T08:51:10Z</time>
      </trkpt>
      <trkpt lat="47.41332" lon="-1.84622">
        <ele>48</ele>
        <time>2016-04-24T08:51:12Z</time>
      </trkpt>
      <trkpt lat="47.41335" lon="-1.84621">
        <ele>49</ele>
        <time>2016-04-24T08:51:13Z</time>
      </trkpt>
      <trkpt lat="47.4134" lon="-1.84619">
        <ele>49</ele>
        <time>2016-04-24T08:51:14Z</time>
      </trkpt>
      <trkpt lat="47.41346" lon="-1.84614">
        <ele>49</ele>
        <time>2016-04-24T08:51:15Z</time>
      </trkpt>
      <trkpt lat="47.41357" lon="-1.84606">
        <ele>49</ele>
        <time>2016-04-24T08:51:16Z</time>
      </trkpt>
      <trkpt lat="47.41348" lon="-1.84599">
        <ele>49</ele>
        <time>2016-04-24T08:51:17Z</time>
      </trkpt>
      <trkpt lat="47.41347" lon="-1.84593">
        <ele>49</ele>
        <time>2016-04-24T08:51:18Z</time>
      </trkpt>
      <trkpt lat="47.41345" lon="-1.84583">
        <ele>48</ele>
        <time>2016-04-24T08:51:19Z</time>
      </trkpt>
      <trkpt lat="47.41344" lon="-1.84577">
        <ele>48</ele>
        <time>2016-04-24T08:51:20Z</time>
      </trkpt>
      <trkpt lat="47.41345" lon="-1.84572">
        <ele>48</ele>
        <time>2016-04-24T08:51:21Z</time>
      </trkpt>
      <trkpt lat="47.41347" lon="-1.84565">
        <ele>48</ele>
        <time>2016-04-24T08:51:22Z</time>
      </trkpt>
      <trkpt lat="47.41352" lon="-1.84563">
        <ele>48</ele>
        <time>2016-04-24T08:51:23Z</time>
      </trkpt>
      <trkpt lat="47.41355" lon="-1.84563">
        <ele>49</ele>
        <time>2016-04-24T08:51:24Z</time>
      </trkpt>
      <trkpt lat="47.4136" lon="-1.84563">
        <ele>49</ele>
        <time>2016-04-24T08:51:25Z</time>
      </trkpt>
      <trkpt lat="47.41364" lon="-1.84565">
        <ele>49</ele>
        <time>2016-04-24T08:51:26Z</time>
      </trkpt>
      <trkpt lat="47.41368" lon="-1.84567">
        <ele>49</ele>
        <time>2016-04-24T08:51:27Z</time>
      </trkpt>
      <trkpt lat="47.41374" lon="-1.84571">
        <ele>49</ele>
        <time>2016-04-24T08:51:29Z</time>
      </trkpt>
      <trkpt lat="47.41378" lon="-1.84571">
        <ele>49</ele>
        <time>2016-04-24T08:51:30Z</time>
      </trkpt>
      <trkpt lat="47.41383" lon="-1.84573">
        <ele>49</ele>
        <time>2016-04-24T08:51:31Z</time>
      </trkpt>
      <trkpt lat="47.41388" lon="-1.84575">
        <ele>49</ele>
        <time>2016-04-24T08:51:32Z</time>
      </trkpt>
      <trkpt lat="47.41392" lon="-1.84577">
        <ele>49</ele>
        <time>2016-04-24T08:51:33Z</time>
      </trkpt>
      <trkpt lat="47.41396" lon="-1.84578">
        <ele>49</ele>
        <time>2016-04-24T08:51:34Z</time>
      </trkpt>
      <trkpt lat="47.414" lon="-1.8458">
        <ele>49</ele>
        <time>2016-04-24T08:51:35Z</time>
      </trkpt>
      <trkpt lat="47.41404" lon="-1.84582">
        <ele>50</ele>
        <time>2016-04-24T08:51:36Z</time>
      </trkpt>
      <trkpt lat="47.41408" lon="-1.84583">
        <ele>50</ele>
        <time>2016-04-24T08:51:37Z</time>
      </trkpt>
      <trkpt lat="47.41412" lon="-1.84584">
        <ele>50</ele>
        <time>2016-04-24T08:51:38Z</time>
      </trkpt>
      <trkpt lat="47.41415" lon="-1.84585">
        <ele>50</ele>
        <time>2016-04-24T08:51:39Z</time>
      </trkpt>
      <trkpt lat="47.41419" lon="-1.84587">
        <ele>50</ele>
        <time>2016-04-24T08:51:40Z</time>
      </trkpt>
      <trkpt lat="47.41422" lon="-1.84589">
        <ele>50</ele>
        <time>2016-04-24T08:51:41Z</time>
      </trkpt>
      <trkpt lat="47.41426" lon="-1.84591">
        <ele>50</ele>
        <time>2016-04-24T08:51:42Z</time>
      </trkpt>
      <trkpt lat="47.41429" lon="-1.84592">
        <ele>50</ele>
        <time>2016-04-24T08:51:43Z</time>
      </trkpt>
      <trkpt lat="47.41433" lon="-1.84594">
        <ele>51</ele>
        <time>2016-04-24T08:51:44Z</time>
      </trkpt>
      <trkpt lat="47.41436" lon="-1.84596">
        <ele>51</ele>
        <time>2016-04-24T08:51:45Z</time>
      </trkpt>
      <trkpt lat="47.4144" lon="-1.84598">
        <ele>51</ele>
        <time>2016-04-24T08:51:46Z</time>
      </trkpt>
      <trkpt lat="47.41445" lon="-1.84599">
        <ele>51</ele>
        <time>2016-04-24T08:51:47Z</time>
      </trkpt>
      <trkpt lat="47.41451" lon="-1.84601">
        <ele>51</ele>
        <time>2016-04-24T08:51:48Z</time>
      </trkpt>
      <trkpt lat="47.41456" lon="-1.84603">
        <ele>51</ele>
        <time>2016-04-24T08:51:49Z</time>
      </trkpt>
      <trkpt lat="47.41459" lon="-1.84605">
        <ele>51</ele>
        <time>2016-04-24T08:51:50Z</time>
      </trkpt>
      <trkpt lat="47.41465" lon="-1.84606">
        <ele>51</ele>
        <time>2016-04-24T08:51:51Z</time>
      </trkpt>
      <trkpt lat="47.4147" lon="-1.84608">
        <ele>51</ele>
        <time>2016-04-24T08:51:52Z</time>
      </trkpt>
      <trkpt lat="47.41475" lon="-1.84611">
        <ele>51</ele>
        <time>2016-04-24T08:51:53Z</time>
      </trkpt>
      <trkpt lat="47.4148" lon="-1.84612">
        <ele>51</ele>
        <time>2016-04-24T08:51:54Z</time>
      </trkpt>
      <trkpt lat="47.41484" lon="-1.84614">
        <ele>51</ele>
        <time>2016-04-24T08:51:55Z</time>
      </trkpt>
      <trkpt lat="47.41489" lon="-1.84615">
        <ele>51</ele>
        <time>2016-04-24T08:51:56Z</time>
      </trkpt>
      <trkpt lat="47.41494" lon="-1.84616">
        <ele>51</ele>
        <time>2016-04-24T08:51:57Z</time>
      </trkpt>
      <trkpt lat="47.41499" lon="-1.84619">
        <ele>51</ele>
        <time>2016-04-24T08:51:58Z</time>
      </trkpt>
      <trkpt lat="47.41503" lon="-1.8462">
        <ele>50</ele>
        <time>2016-04-24T08:51:59Z</time>
      </trkpt>
      <trkpt lat="47.41507" lon="-1.84621">
        <ele>50</ele>
        <time>2016-04-24T08:52:00Z</time>
      </trkpt>
      <trkpt lat="47.41512" lon="-1.84623">
        <ele>50</ele>
        <time>2016-04-24T08:52:01Z</time>
      </trkpt>
      <trkpt lat="47.41516" lon="-1.84625">
        <ele>50</ele>
        <time>2016-04-24T08:52:02Z</time>
      </trkpt>
      <trkpt lat="47.41522" lon="-1.84627">
        <ele>50</ele>
        <time>2016-04-24T08:52:03Z</time>
      </trkpt>
      <trkpt lat="47.41526" lon="-1.84629">
        <ele>50</ele>
        <time>2016-04-24T08:52:04Z</time>
      </trkpt>
      <trkpt lat="47.41531" lon="-1.84632">
        <ele>50</ele>
        <time>2016-04-24T08:52:05Z</time>
      </trkpt>
      <trkpt lat="47.41535" lon="-1.84634">
        <ele>50</ele>
        <time>2016-04-24T08:52:06Z</time>
      </trkpt>
      <trkpt lat="47.4154" lon="-1.84636">
        <ele>50</ele>
        <time>2016-04-24T08:52:07Z</time>
      </trkpt>
      <trkpt lat="47.41546" lon="-1.84637">
        <ele>50</ele>
        <time>2016-04-24T08:52:08Z</time>
      </trkpt>
      <trkpt lat="47.41551" lon="-1.84639">
        <ele>50</ele>
        <time>2016-04-24T08:52:09Z</time>
      </trkpt>
      <trkpt lat="47.41556" lon="-1.84641">
        <ele>50</ele>
        <time>2016-04-24T08:52:10Z</time>
      </trkpt>
      <trkpt lat="47.41561" lon="-1.84642">
        <ele>50</ele>
        <time>2016-04-24T08:52:11Z</time>
      </trkpt>
      <trkpt lat="47.41565" lon="-1.84644">
        <ele>50</ele>
        <time>2016-04-24T08:52:12Z</time>
      </trkpt>
      <trkpt lat="47.41569" lon="-1.84645">
        <ele>50</ele>
        <time>2016-04-24T08:52:13Z</time>
      </trkpt>
      <trkpt lat="47.41574" lon="-1.84644">
        <ele>50</ele>
        <time>2016-04-24T08:52:14Z</time>
      </trkpt>
      <trkpt lat="47.41578" lon="-1.84643">
        <ele>50</ele>
        <time>2016-04-24T08:52:15Z</time>
      </trkpt>
      <trkpt lat="47.41584" lon="-1.84642">
        <ele>49</ele>
        <time>2016-04-24T08:52:16Z</time>
      </trkpt>
      <trkpt lat="47.41588" lon="-1.84643">
        <ele>49</ele>
        <time>2016-04-24T08:52:17Z</time>
      </trkpt>
      <trkpt lat="47.41594" lon="-1.84643">
        <ele>49</ele>
        <time>2016-04-24T08:52:18Z</time>
      </trkpt>
      <trkpt lat="47.41602" lon="-1.84645">
        <ele>49</ele>
        <time>2016-04-24T08:52:19Z</time>
      </trkpt>
      <trkpt lat="47.41605" lon="-1.84645">
        <ele>48</ele>
        <time>2016-04-24T08:52:20Z</time>
      </trkpt>
      <trkpt lat="47.41611" lon="-1.84646">
        <ele>48</ele>
        <time>2016-04-24T08:52:21Z</time>
      </trkpt>
      <trkpt lat="47.41616" lon="-1.84646">
        <ele>48</ele>
        <time>2016-04-24T08:52:22Z</time>
      </trkpt>
      <trkpt lat="47.41621" lon="-1.84647">
        <ele>48</ele>
        <time>2016-04-24T08:52:23Z</time>
      </trkpt>
      <trkpt lat="47.41627" lon="-1.84646">
        <ele>48</ele>
        <time>2016-04-24T08:52:24Z</time>
      </trkpt>
      <trkpt lat="47.41632" lon="-1.84645">
        <ele>48</ele>
        <time>2016-04-24T08:52:25Z</time>
      </trkpt>
      <trkpt lat="47.41636" lon="-1.84646">
        <ele>48</ele>
        <time>2016-04-24T08:52:26Z</time>
      </trkpt>
      <trkpt lat="47.4164" lon="-1.84646">
        <ele>48</ele>
        <time>2016-04-24T08:52:27Z</time>
      </trkpt>
      <trkpt lat="47.41643" lon="-1.84647">
        <ele>48</ele>
        <time>2016-04-24T08:52:28Z</time>
      </trkpt>
      <trkpt lat="47.41649" lon="-1.84648">
        <ele>48</ele>
        <time>2016-04-24T08:52:30Z</time>
      </trkpt>
      <trkpt lat="47.41654" lon="-1.84648">
        <ele>48</ele>
        <time>2016-04-24T08:52:31Z</time>
      </trkpt>
      <trkpt lat="47.41658" lon="-1.84648">
        <ele>48</ele>
        <time>2016-04-24T08:52:32Z</time>
      </trkpt>
      <trkpt lat="47.41663" lon="-1.84645">
        <ele>48</ele>
        <time>2016-04-24T08:52:33Z</time>
      </trkpt>
      <trkpt lat="47.41667" lon="-1.84645">
        <ele>47</ele>
        <time>2016-04-24T08:52:34Z</time>
      </trkpt>
      <trkpt lat="47.41672" lon="-1.84644">
        <ele>47</ele>
        <time>2016-04-24T08:52:35Z</time>
      </trkpt>
      <trkpt lat="47.41677" lon="-1.84643">
        <ele>47</ele>
        <time>2016-04-24T08:52:36Z</time>
      </trkpt>
      <trkpt lat="47.41683" lon="-1.84643">
        <ele>47</ele>
        <time>2016-04-24T08:52:37Z</time>
      </trkpt>
      <trkpt lat="47.41687" lon="-1.84643">
        <ele>47</ele>
        <time>2016-04-24T08:52:38Z</time>
      </trkpt>
      <trkpt lat="47.41691" lon="-1.84645">
        <ele>47</ele>
        <time>2016-04-24T08:52:39Z</time>
      </trkpt>
      <trkpt lat="47.41694" lon="-1.84647">
        <ele>47</ele>
        <time>2016-04-24T08:52:40Z</time>
      </trkpt>
      <trkpt lat="47.41697" lon="-1.8465">
        <ele>47</ele>
        <time>2016-04-24T08:52:41Z</time>
      </trkpt>
      <trkpt lat="47.41705" lon="-1.84648">
        <ele>47</ele>
        <time>2016-04-24T08:52:42Z</time>
      </trkpt>
      <trkpt lat="47.4171" lon="-1.8465">
        <ele>47</ele>
        <time>2016-04-24T08:52:43Z</time>
      </trkpt>
      <trkpt lat="47.41713" lon="-1.84652">
        <ele>47</ele>
        <time>2016-04-24T08:52:44Z</time>
      </trkpt>
      <trkpt lat="47.41718" lon="-1.84654">
        <ele>47</ele>
        <time>2016-04-24T08:52:45Z</time>
      </trkpt>
      <trkpt lat="47.41724" lon="-1.84654">
        <ele>47</ele>
        <time>2016-04-24T08:52:48Z</time>
      </trkpt>
      <trkpt lat="47.41727" lon="-1.84653">
        <ele>47</ele>
        <time>2016-04-24T08:52:49Z</time>
      </trkpt>
      <trkpt lat="47.41731" lon="-1.84652">
        <ele>47</ele>
        <time>2016-04-24T08:52:50Z</time>
      </trkpt>
      <trkpt lat="47.41736" lon="-1.84652">
        <ele>47</ele>
        <time>2016-04-24T08:52:51Z</time>
      </trkpt>
      <trkpt lat="47.41741" lon="-1.84652">
        <ele>47</ele>
        <time>2016-04-24T08:52:52Z</time>
      </trkpt>
      <trkpt lat="47.41745" lon="-1.84649">
        <ele>47</ele>
        <time>2016-04-24T08:52:54Z</time>
      </trkpt>
      <trkpt lat="47.41748" lon="-1.84645">
        <ele>47</ele>
        <time>2016-04-24T08:52:55Z</time>
      </trkpt>
      <trkpt lat="47.41752" lon="-1.84643">
        <ele>46</ele>
        <time>2016-04-24T08:52:57Z</time>
      </trkpt>
      <trkpt lat="47.41754" lon="-1.84646">
        <ele>46</ele>
        <time>2016-04-24T08:53:07Z</time>
      </trkpt>
      <trkpt lat="47.41758" lon="-1.84647">
        <ele>46</ele>
        <time>2016-04-24T08:53:29Z</time>
      </trkpt>
      <trkpt lat="47.41761" lon="-1.84646">
        <ele>46</ele>
        <time>2016-04-24T08:53:30Z</time>
      </trkpt>
      <trkpt lat="47.41764" lon="-1.84646">
        <ele>46</ele>
        <time>2016-04-24T08:53:31Z</time>
      </trkpt>
      <trkpt lat="47.41767" lon="-1.84646">
        <ele>46</ele>
        <time>2016-04-24T08:53:32Z</time>
      </trkpt>
      <trkpt lat="47.41771" lon="-1.84647">
        <ele>46</ele>
        <time>2016-04-24T08:53:33Z</time>
      </trkpt>
      <trkpt lat="47.41773" lon="-1.84648">
        <ele>46</ele>
        <time>2016-04-24T08:53:34Z</time>
      </trkpt>
      <trkpt lat="47.41777" lon="-1.84652">
        <ele>46</ele>
        <time>2016-04-24T08:53:36Z</time>
      </trkpt>
      <trkpt lat="47.41779" lon="-1.84656">
        <ele>46</ele>
        <time>2016-04-24T08:53:54Z</time>
      </trkpt>
      <trkpt lat="47.41781" lon="-1.84665">
        <ele>46</ele>
        <time>2016-04-24T08:53:56Z</time>
      </trkpt>
      <trkpt lat="47.41781" lon="-1.8467">
        <ele>46</ele>
        <time>2016-04-24T08:53:57Z</time>
      </trkpt>
      <trkpt lat="47.41781" lon="-1.84676">
        <ele>46</ele>
        <time>2016-04-24T08:53:58Z</time>
      </trkpt>
      <trkpt lat="47.41782" lon="-1.84681">
        <ele>46</ele>
        <time>2016-04-24T08:53:59Z</time>
      </trkpt>
      <trkpt lat="47.41782" lon="-1.84686">
        <ele>46</ele>
        <time>2016-04-24T08:54:00Z</time>
      </trkpt>
      <trkpt lat="47.41782" lon="-1.84691">
        <ele>46</ele>
        <time>2016-04-24T08:54:01Z</time>
      </trkpt>
      <trkpt lat="47.41783" lon="-1.84696">
        <ele>46</ele>
        <time>2016-04-24T08:54:02Z</time>
      </trkpt>
      <trkpt lat="47.41784" lon="-1.84701">
        <ele>46</ele>
        <time>2016-04-24T08:54:03Z</time>
      </trkpt>
      <trkpt lat="47.41785" lon="-1.84706">
        <ele>46</ele>
        <time>2016-04-24T08:54:04Z</time>
      </trkpt>
      <trkpt lat="47.41786" lon="-1.84711">
        <ele>46</ele>
        <time>2016-04-24T08:54:05Z</time>
      </trkpt>
      <trkpt lat="47.41788" lon="-1.84716">
        <ele>46</ele>
        <time>2016-04-24T08:54:06Z</time>
      </trkpt>
      <trkpt lat="47.41789" lon="-1.84721">
        <ele>46</ele>
        <time>2016-04-24T08:54:07Z</time>
      </trkpt>
      <trkpt lat="47.4179" lon="-1.84726">
        <ele>46</ele>
        <time>2016-04-24T08:54:08Z</time>
      </trkpt>
      <trkpt lat="47.41792" lon="-1.84731">
        <ele>46</ele>
        <time>2016-04-24T08:54:09Z</time>
      </trkpt>
      <trkpt lat="47.41792" lon="-1.84736">
        <ele>45</ele>
        <time>2016-04-24T08:54:10Z</time>
      </trkpt>
      <trkpt lat="47.41794" lon="-1.84741">
        <ele>45</ele>
        <time>2016-04-24T08:54:11Z</time>
      </trkpt>
      <trkpt lat="47.41795" lon="-1.84746">
        <ele>45</ele>
        <time>2016-04-24T08:54:12Z</time>
      </trkpt>
      <trkpt lat="47.41796" lon="-1.84751">
        <ele>46</ele>
        <time>2016-04-24T08:54:13Z</time>
      </trkpt>
      <trkpt lat="47.41796" lon="-1.84755">
        <ele>46</ele>
        <time>2016-04-24T08:54:14Z</time>
      </trkpt>
      <trkpt lat="47.41797" lon="-1.8476">
        <ele>46</ele>
        <time>2016-04-24T08:54:15Z</time>
      </trkpt>
      <trkpt lat="47.41798" lon="-1.84765">
        <ele>46</ele>
        <time>2016-04-24T08:54:16Z</time>
      </trkpt>
      <trkpt lat="47.41798" lon="-1.8477">
        <ele>46</ele>
        <time>2016-04-24T08:54:17Z</time>
      </trkpt>
      <trkpt lat="47.41799" lon="-1.84774">
        <ele>46</ele>
        <time>2016-04-24T08:54:18Z</time>
      </trkpt>
      <trkpt lat="47.418" lon="-1.84778">
        <ele>46</ele>
        <time>2016-04-24T08:54:19Z</time>
      </trkpt>
      <trkpt lat="47.41803" lon="-1.84784">
        <ele>46</ele>
        <time>2016-04-24T08:54:21Z</time>
      </trkpt>
      <trkpt lat="47.41806" lon="-1.84787">
        <ele>46</ele>
        <time>2016-04-24T08:54:23Z</time>
      </trkpt>
      <trkpt lat="47.41808" lon="-1.84785">
        <ele>46</ele>
        <time>2016-04-24T08:54:28Z</time>
      </trkpt>
      <trkpt lat="47.41811" lon="-1.84788">
        <ele>46</ele>
        <time>2016-04-24T08:54:41Z</time>
      </trkpt>
      <trkpt lat="47.41812" lon="-1.84796">
        <ele>46</ele>
        <time>2016-04-24T08:54:43Z</time>
      </trkpt>
      <trkpt lat="47.41812" lon="-1.848">
        <ele>46</ele>
        <time>2016-04-24T08:54:44Z</time>
      </trkpt>
      <trkpt lat="47.41814" lon="-1.84808">
        <ele>46</ele>
        <time>2016-04-24T08:54:46Z</time>
      </trkpt>
      <trkpt lat="47.41815" lon="-1.84812">
        <ele>46</ele>
        <time>2016-04-24T08:54:47Z</time>
      </trkpt>
      <trkpt lat="47.41816" lon="-1.84817">
        <ele>46</ele>
        <time>2016-04-24T08:54:48Z</time>
      </trkpt>
      <trkpt lat="47.41817" lon="-1.84822">
        <ele>46</ele>
        <time>2016-04-24T08:54:49Z</time>
      </trkpt>
      <trkpt lat="47.41818" lon="-1.84827">
        <ele>46</ele>
        <time>2016-04-24T08:54:50Z</time>
      </trkpt>
      <trkpt lat="47.41819" lon="-1.84832">
        <ele>46</ele>
        <time>2016-04-24T08:54:51Z</time>
      </trkpt>
      <trkpt lat="47.4182" lon="-1.84838">
        <ele>46</ele>
        <time>2016-04-24T08:54:52Z</time>
      </trkpt>
      <trkpt lat="47.41821" lon="-1.84843">
        <ele>46</ele>
        <time>2016-04-24T08:54:53Z</time>
      </trkpt>
      <trkpt lat="47.41822" lon="-1.84848">
        <ele>47</ele>
        <time>2016-04-24T08:54:54Z</time>
      </trkpt>
      <trkpt lat="47.41823" lon="-1.84854">
        <ele>47</ele>
        <time>2016-04-24T08:54:55Z</time>
      </trkpt>
      <trkpt lat="47.41824" lon="-1.84859">
        <ele>47</ele>
        <time>2016-04-24T08:54:56Z</time>
      </trkpt>
      <trkpt lat="47.41825" lon="-1.84865">
        <ele>47</ele>
        <time>2016-04-24T08:54:57Z</time>
      </trkpt>
      <trkpt lat="47.41826" lon="-1.8487">
        <ele>47</ele>
        <time>2016-04-24T08:54:58Z</time>
      </trkpt>
      <trkpt lat="47.41827" lon="-1.84876">
        <ele>47</ele>
        <time>2016-04-24T08:54:59Z</time>
      </trkpt>
      <trkpt lat="47.41829" lon="-1.84882">
        <ele>47</ele>
        <time>2016-04-24T08:55:00Z</time>
      </trkpt>
      <trkpt lat="47.4183" lon="-1.84888">
        <ele>47</ele>
        <time>2016-04-24T08:55:01Z</time>
      </trkpt>
      <trkpt lat="47.41832" lon="-1.84894">
        <ele>47</ele>
        <time>2016-04-24T08:55:02Z</time>
      </trkpt>
      <trkpt lat="47.41833" lon="-1.849">
        <ele>47</ele>
        <time>2016-04-24T08:55:03Z</time>
      </trkpt>
      <trkpt lat="47.41834" lon="-1.84906">
        <ele>47</ele>
        <time>2016-04-24T08:55:04Z</time>
      </trkpt>
      <trkpt lat="47.41835" lon="-1.84912">
        <ele>47</ele>
        <time>2016-04-24T08:55:05Z</time>
      </trkpt>
      <trkpt lat="47.41837" lon="-1.84918">
        <ele>47</ele>
        <time>2016-04-24T08:55:06Z</time>
      </trkpt>
      <trkpt lat="47.41838" lon="-1.84924">
        <ele>47</ele>
        <time>2016-04-24T08:55:07Z</time>
      </trkpt>
      <trkpt lat="47.41839" lon="-1.8493">
        <ele>47</ele>
        <time>2016-04-24T08:55:08Z</time>
      </trkpt>
      <trkpt lat="47.41841" lon="-1.84936">
        <ele>47</ele>
        <time>2016-04-24T08:55:09Z</time>
      </trkpt>
      <trkpt lat="47.41842" lon="-1.84942">
        <ele>47</ele>
        <time>2016-04-24T08:55:10Z</time>
      </trkpt>
      <trkpt lat="47.41843" lon="-1.84948">
        <ele>47</ele>
        <time>2016-04-24T08:55:11Z</time>
      </trkpt>
      <trkpt lat="47.41845" lon="-1.84954">
        <ele>47</ele>
        <time>2016-04-24T08:55:12Z</time>
      </trkpt>
      <trkpt lat="47.41846" lon="-1.8496">
        <ele>47</ele>
        <time>2016-04-24T08:55:13Z</time>
      </trkpt>
      <trkpt lat="47.41847" lon="-1.84966">
        <ele>47</ele>
        <time>2016-04-24T08:55:14Z</time>
      </trkpt>
      <trkpt lat="47.41847" lon="-1.84972">
        <ele>47</ele>
        <time>2016-04-24T08:55:15Z</time>
      </trkpt>
      <trkpt lat="47.41847" lon="-1.84979">
        <ele>47</ele>
        <time>2016-04-24T08:55:16Z</time>
      </trkpt>
      <trkpt lat="47.41846" lon="-1.84985">
        <ele>47</ele>
        <time>2016-04-24T08:55:17Z</time>
      </trkpt>
      <trkpt lat="47.41845" lon="-1.84991">
        <ele>47</ele>
        <time>2016-04-24T08:55:18Z</time>
      </trkpt>
      <trkpt lat="47.41845" lon="-1.84998">
        <ele>48</ele>
        <time>2016-04-24T08:55:19Z</time>
      </trkpt>
      <trkpt lat="47.41844" lon="-1.85005">
        <ele>47</ele>
        <time>2016-04-24T08:55:20Z</time>
      </trkpt>
      <trkpt lat="47.41845" lon="-1.85012">
        <ele>47</ele>
        <time>2016-04-24T08:55:21Z</time>
      </trkpt>
      <trkpt lat="47.41845" lon="-1.85019">
        <ele>47</ele>
        <time>2016-04-24T08:55:22Z</time>
      </trkpt>
      <trkpt lat="47.41847" lon="-1.85025">
        <ele>47</ele>
        <time>2016-04-24T08:55:23Z</time>
      </trkpt>
      <trkpt lat="47.41848" lon="-1.85032">
        <ele>47</ele>
        <time>2016-04-24T08:55:24Z</time>
      </trkpt>
      <trkpt lat="47.41848" lon="-1.85039">
        <ele>47</ele>
        <time>2016-04-24T08:55:25Z</time>
      </trkpt>
      <trkpt lat="47.41849" lon="-1.85047">
        <ele>47</ele>
        <time>2016-04-24T08:55:26Z</time>
      </trkpt>
      <trkpt lat="47.41848" lon="-1.85055">
        <ele>47</ele>
        <time>2016-04-24T08:55:27Z</time>
      </trkpt>
      <trkpt lat="47.41848" lon="-1.85061">
        <ele>47</ele>
        <time>2016-04-24T08:55:28Z</time>
      </trkpt>
      <trkpt lat="47.41847" lon="-1.85067">
        <ele>47</ele>
        <time>2016-04-24T08:55:29Z</time>
      </trkpt>
      <trkpt lat="47.41848" lon="-1.85072">
        <ele>47</ele>
        <time>2016-04-24T08:55:30Z</time>
      </trkpt>
      <trkpt lat="47.41847" lon="-1.85078">
        <ele>47</ele>
        <time>2016-04-24T08:55:31Z</time>
      </trkpt>
      <trkpt lat="47.41847" lon="-1.85085">
        <ele>47</ele>
        <time>2016-04-24T08:55:32Z</time>
      </trkpt>
      <trkpt lat="47.41846" lon="-1.85092">
        <ele>47</ele>
        <time>2016-04-24T08:55:33Z</time>
      </trkpt>
      <trkpt lat="47.41845" lon="-1.85098">
        <ele>47</ele>
        <time>2016-04-24T08:55:34Z</time>
      </trkpt>
      <trkpt lat="47.41844" lon="-1.85105">
        <ele>47</ele>
        <time>2016-04-24T08:55:35Z</time>
      </trkpt>
      <trkpt lat="47.41842" lon="-1.85112">
        <ele>47</ele>
        <time>2016-04-24T08:55:36Z</time>
      </trkpt>
      <trkpt lat="47.41839" lon="-1.8512">
        <ele>47</ele>
        <time>2016-04-24T08:55:37Z</time>
      </trkpt>
      <trkpt lat="47.4184" lon="-1.85125">
        <ele>47</ele>
        <time>2016-04-24T08:55:38Z</time>
      </trkpt>
      <trkpt lat="47.41839" lon="-1.85132">
        <ele>47</ele>
        <time>2016-04-24T08:55:39Z</time>
      </trkpt>
      <trkpt lat="47.41839" lon="-1.8514">
        <ele>47</ele>
        <time>2016-04-24T08:55:40Z</time>
      </trkpt>
      <trkpt lat="47.41839" lon="-1.85147">
        <ele>47</ele>
        <time>2016-04-24T08:55:41Z</time>
      </trkpt>
      <trkpt lat="47.41837" lon="-1.85155">
        <ele>47</ele>
        <time>2016-04-24T08:55:42Z</time>
      </trkpt>
      <trkpt lat="47.41835" lon="-1.8516">
        <ele>47</ele>
        <time>2016-04-24T08:55:43Z</time>
      </trkpt>
      <trkpt lat="47.41836" lon="-1.85166">
        <ele>47</ele>
        <time>2016-04-24T08:55:44Z</time>
      </trkpt>
      <trkpt lat="47.41836" lon="-1.85173">
        <ele>47</ele>
        <time>2016-04-24T08:55:45Z</time>
      </trkpt>
      <trkpt lat="47.41836" lon="-1.85178">
        <ele>47</ele>
        <time>2016-04-24T08:55:46Z</time>
      </trkpt>
      <trkpt lat="47.41836" lon="-1.85185">
        <ele>46</ele>
        <time>2016-04-24T08:55:47Z</time>
      </trkpt>
      <trkpt lat="47.41835" lon="-1.85193">
        <ele>46</ele>
        <time>2016-04-24T08:55:48Z</time>
      </trkpt>
      <trkpt lat="47.41835" lon="-1.852">
        <ele>46</ele>
        <time>2016-04-24T08:55:49Z</time>
      </trkpt>
      <trkpt lat="47.41837" lon="-1.85206">
        <ele>46</ele>
        <time>2016-04-24T08:55:50Z</time>
      </trkpt>
      <trkpt lat="47.41837" lon="-1.85212">
        <ele>46</ele>
        <time>2016-04-24T08:55:51Z</time>
      </trkpt>
      <trkpt lat="47.41837" lon="-1.85219">
        <ele>46</ele>
        <time>2016-04-24T08:55:52Z</time>
      </trkpt>
      <trkpt lat="47.41837" lon="-1.85226">
        <ele>46</ele>
        <time>2016-04-24T08:55:53Z</time>
      </trkpt>
      <trkpt lat="47.41838" lon="-1.85233">
        <ele>46</ele>
        <time>2016-04-24T08:55:54Z</time>
      </trkpt>
      <trkpt lat="47.41839" lon="-1.85242">
        <ele>47</ele>
        <time>2016-04-24T08:55:55Z</time>
      </trkpt>
      <trkpt lat="47.41839" lon="-1.8525">
        <ele>47</ele>
        <time>2016-04-24T08:55:56Z</time>
      </trkpt>
      <trkpt lat="47.41837" lon="-1.85257">
        <ele>47</ele>
        <time>2016-04-24T08:55:57Z</time>
      </trkpt>
      <trkpt lat="47.41832" lon="-1.85263">
        <ele>47</ele>
        <time>2016-04-24T08:55:58Z</time>
      </trkpt>
      <trkpt lat="47.41835" lon="-1.8527">
        <ele>46</ele>
        <time>2016-04-24T08:55:59Z</time>
      </trkpt>
      <trkpt lat="47.41834" lon="-1.85276">
        <ele>46</ele>
        <time>2016-04-24T08:56:00Z</time>
      </trkpt>
      <trkpt lat="47.41832" lon="-1.85285">
        <ele>47</ele>
        <time>2016-04-24T08:56:01Z</time>
      </trkpt>
      <trkpt lat="47.41833" lon="-1.8529">
        <ele>47</ele>
        <time>2016-04-24T08:56:02Z</time>
      </trkpt>
      <trkpt lat="47.41833" lon="-1.85304">
        <ele>47</ele>
        <time>2016-04-24T08:56:03Z</time>
      </trkpt>
      <trkpt lat="47.41835" lon="-1.8531">
        <ele>46</ele>
        <time>2016-04-24T08:56:04Z</time>
      </trkpt>
      <trkpt lat="47.41834" lon="-1.85315">
        <ele>47</ele>
        <time>2016-04-24T08:56:05Z</time>
      </trkpt>
      <trkpt lat="47.41836" lon="-1.85325">
        <ele>47</ele>
        <time>2016-04-24T08:56:06Z</time>
      </trkpt>
      <trkpt lat="47.41835" lon="-1.85332">
        <ele>47</ele>
        <time>2016-04-24T08:56:07Z</time>
      </trkpt>
      <trkpt lat="47.41834" lon="-1.85338">
        <ele>47</ele>
        <time>2016-04-24T08:56:08Z</time>
      </trkpt>
      <trkpt lat="47.41832" lon="-1.85347">
        <ele>47</ele>
        <time>2016-04-24T08:56:09Z</time>
      </trkpt>
      <trkpt lat="47.41833" lon="-1.85356">
        <ele>47</ele>
        <time>2016-04-24T08:56:10Z</time>
      </trkpt>
      <trkpt lat="47.41834" lon="-1.85367">
        <ele>47</ele>
        <time>2016-04-24T08:56:11Z</time>
      </trkpt>
      <trkpt lat="47.41833" lon="-1.85375">
        <ele>47</ele>
        <time>2016-04-24T08:56:12Z</time>
      </trkpt>
      <trkpt lat="47.41833" lon="-1.85384">
        <ele>47</ele>
        <time>2016-04-24T08:56:13Z</time>
      </trkpt>
      <trkpt lat="47.41832" lon="-1.8539">
        <ele>47</ele>
        <time>2016-04-24T08:56:14Z</time>
      </trkpt>
      <trkpt lat="47.41828" lon="-1.854">
        <ele>47</ele>
        <time>2016-04-24T08:56:15Z</time>
      </trkpt>
      <trkpt lat="47.41829" lon="-1.85407">
        <ele>47</ele>
        <time>2016-04-24T08:56:16Z</time>
      </trkpt>
      <trkpt lat="47.41829" lon="-1.85416">
        <ele>47</ele>
        <time>2016-04-24T08:56:17Z</time>
      </trkpt>
      <trkpt lat="47.41828" lon="-1.85424">
        <ele>47</ele>
        <time>2016-04-24T08:56:18Z</time>
      </trkpt>
      <trkpt lat="47.41829" lon="-1.85432">
        <ele>47</ele>
        <time>2016-04-24T08:56:19Z</time>
      </trkpt>
      <trkpt lat="47.41827" lon="-1.85439">
        <ele>47</ele>
        <time>2016-04-24T08:56:20Z</time>
      </trkpt>
      <trkpt lat="47.41828" lon="-1.85448">
        <ele>47</ele>
        <time>2016-04-24T08:56:21Z</time>
      </trkpt>
      <trkpt lat="47.41832" lon="-1.85456">
        <ele>47</ele>
        <time>2016-04-24T08:56:22Z</time>
      </trkpt>
      <trkpt lat="47.4183" lon="-1.85467">
        <ele>47</ele>
        <time>2016-04-24T08:56:23Z</time>
      </trkpt>
      <trkpt lat="47.4183" lon="-1.85478">
        <ele>47</ele>
        <time>2016-04-24T08:56:24Z</time>
      </trkpt>
      <trkpt lat="47.41828" lon="-1.85486">
        <ele>47</ele>
        <time>2016-04-24T08:56:25Z</time>
      </trkpt>
      <trkpt lat="47.41831" lon="-1.85495">
        <ele>46</ele>
        <time>2016-04-24T08:56:26Z</time>
      </trkpt>
      <trkpt lat="47.41829" lon="-1.85504">
        <ele>46</ele>
        <time>2016-04-24T08:56:27Z</time>
      </trkpt>
      <trkpt lat="47.41829" lon="-1.8551">
        <ele>46</ele>
        <time>2016-04-24T08:56:28Z</time>
      </trkpt>
      <trkpt lat="47.41831" lon="-1.85522">
        <ele>47</ele>
        <time>2016-04-24T08:56:29Z</time>
      </trkpt>
      <trkpt lat="47.41832" lon="-1.85529">
        <ele>47</ele>
        <time>2016-04-24T08:56:30Z</time>
      </trkpt>
      <trkpt lat="47.41831" lon="-1.85539">
        <ele>47</ele>
        <time>2016-04-24T08:56:31Z</time>
      </trkpt>
      <trkpt lat="47.41832" lon="-1.85546">
        <ele>47</ele>
        <time>2016-04-24T08:56:32Z</time>
      </trkpt>
      <trkpt lat="47.41831" lon="-1.85554">
        <ele>47</ele>
        <time>2016-04-24T08:56:33Z</time>
      </trkpt>
      <trkpt lat="47.4183" lon="-1.85567">
        <ele>47</ele>
        <time>2016-04-24T08:56:34Z</time>
      </trkpt>
      <trkpt lat="47.41832" lon="-1.85574">
        <ele>47</ele>
        <time>2016-04-24T08:56:35Z</time>
      </trkpt>
      <trkpt lat="47.41828" lon="-1.85585">
        <ele>47</ele>
        <time>2016-04-24T08:56:36Z</time>
      </trkpt>
      <trkpt lat="47.41824" lon="-1.85593">
        <ele>47</ele>
        <time>2016-04-24T08:56:37Z</time>
      </trkpt>
      <trkpt lat="47.41825" lon="-1.85601">
        <ele>47</ele>
        <time>2016-04-24T08:56:38Z</time>
      </trkpt>
      <trkpt lat="47.41824" lon="-1.85611">
        <ele>47</ele>
        <time>2016-04-24T08:56:39Z</time>
      </trkpt>
      <trkpt lat="47.41825" lon="-1.85618">
        <ele>47</ele>
        <time>2016-04-24T08:56:40Z</time>
      </trkpt>
      <trkpt lat="47.41825" lon="-1.85628">
        <ele>46</ele>
        <time>2016-04-24T08:56:41Z</time>
      </trkpt>
      <trkpt lat="47.41825" lon="-1.85636">
        <ele>46</ele>
        <time>2016-04-24T08:56:42Z</time>
      </trkpt>
      <trkpt lat="47.41824" lon="-1.85645">
        <ele>46</ele>
        <time>2016-04-24T08:56:43Z</time>
      </trkpt>
      <trkpt lat="47.41824" lon="-1.85655">
        <ele>46</ele>
        <time>2016-04-24T08:56:44Z</time>
      </trkpt>
      <trkpt lat="47.41825" lon="-1.85664">
        <ele>46</ele>
        <time>2016-04-24T08:56:45Z</time>
      </trkpt>
      <trkpt lat="47.41835" lon="-1.85669">
        <ele>45</ele>
        <time>2016-04-24T08:56:46Z</time>
      </trkpt>
      <trkpt lat="47.41832" lon="-1.85683">
        <ele>45</ele>
        <time>2016-04-24T08:56:47Z</time>
      </trkpt>
      <trkpt lat="47.41831" lon="-1.85695">
        <ele>45</ele>
        <time>2016-04-24T08:56:48Z</time>
      </trkpt>
      <trkpt lat="47.4183" lon="-1.85706">
        <ele>45</ele>
        <time>2016-04-24T08:56:49Z</time>
      </trkpt>
      <trkpt lat="47.4183" lon="-1.85717">
        <ele>45</ele>
        <time>2016-04-24T08:56:50Z</time>
      </trkpt>
      <trkpt lat="47.41831" lon="-1.85726">
        <ele>45</ele>
        <time>2016-04-24T08:56:51Z</time>
      </trkpt>
      <trkpt lat="47.41835" lon="-1.85736">
        <ele>43</ele>
        <time>2016-04-24T08:56:52Z</time>
      </trkpt>
      <trkpt lat="47.41837" lon="-1.85747">
        <ele>43</ele>
        <time>2016-04-24T08:56:53Z</time>
      </trkpt>
      <trkpt lat="47.41833" lon="-1.85756">
        <ele>43</ele>
        <time>2016-04-24T08:56:54Z</time>
      </trkpt>
      <trkpt lat="47.41834" lon="-1.85763">
        <ele>43</ele>
        <time>2016-04-24T08:56:55Z</time>
      </trkpt>
      <trkpt lat="47.41833" lon="-1.85772">
        <ele>43</ele>
        <time>2016-04-24T08:56:56Z</time>
      </trkpt>
      <trkpt lat="47.41831" lon="-1.85779">
        <ele>44</ele>
        <time>2016-04-24T08:56:57Z</time>
      </trkpt>
      <trkpt lat="47.41824" lon="-1.85785">
        <ele>45</ele>
        <time>2016-04-24T08:56:58Z</time>
      </trkpt>
      <trkpt lat="47.41818" lon="-1.85788">
        <ele>45</ele>
        <time>2016-04-24T08:56:59Z</time>
      </trkpt>
      <trkpt lat="47.41814" lon="-1.8579">
        <ele>45</ele>
        <time>2016-04-24T08:57:00Z</time>
      </trkpt>
      <trkpt lat="47.41808" lon="-1.85792">
        <ele>45</ele>
        <time>2016-04-24T08:57:01Z</time>
      </trkpt>
      <trkpt lat="47.41802" lon="-1.85792">
        <ele>45</ele>
        <time>2016-04-24T08:57:02Z</time>
      </trkpt>
      <trkpt lat="47.41795" lon="-1.85794">
        <ele>45</ele>
        <time>2016-04-24T08:57:03Z</time>
      </trkpt>
      <trkpt lat="47.41789" lon="-1.85795">
        <ele>45</ele>
        <time>2016-04-24T08:57:04Z</time>
      </trkpt>
      <trkpt lat="47.41783" lon="-1.85796">
        <ele>45</ele>
        <time>2016-04-24T08:57:05Z</time>
      </trkpt>
      <trkpt lat="47.41777" lon="-1.85797">
        <ele>46</ele>
        <time>2016-04-24T08:57:06Z</time>
      </trkpt>
      <trkpt lat="47.41772" lon="-1.85797">
        <ele>46</ele>
        <time>2016-04-24T08:57:07Z</time>
      </trkpt>
      <trkpt lat="47.41766" lon="-1.85798">
        <ele>46</ele>
        <time>2016-04-24T08:57:08Z</time>
      </trkpt>
      <trkpt lat="47.41761" lon="-1.85798">
        <ele>46</ele>
        <time>2016-04-24T08:57:09Z</time>
      </trkpt>
      <trkpt lat="47.41755" lon="-1.85798">
        <ele>46</ele>
        <time>2016-04-24T08:57:10Z</time>
      </trkpt>
      <trkpt lat="47.41749" lon="-1.85801">
        <ele>47</ele>
        <time>2016-04-24T08:57:11Z</time>
      </trkpt>
      <trkpt lat="47.41745" lon="-1.85803">
        <ele>47</ele>
        <time>2016-04-24T08:57:12Z</time>
      </trkpt>
      <trkpt lat="47.41738" lon="-1.85803">
        <ele>47</ele>
        <time>2016-04-24T08:57:13Z</time>
      </trkpt>
      <trkpt lat="47.41733" lon="-1.85805">
        <ele>48</ele>
        <time>2016-04-24T08:57:14Z</time>
      </trkpt>
      <trkpt lat="47.41728" lon="-1.85806">
        <ele>48</ele>
        <time>2016-04-24T08:57:15Z</time>
      </trkpt>
      <trkpt lat="47.41723" lon="-1.85806">
        <ele>48</ele>
        <time>2016-04-24T08:57:16Z</time>
      </trkpt>
      <trkpt lat="47.4172" lon="-1.85809">
        <ele>48</ele>
        <time>2016-04-24T08:57:17Z</time>
      </trkpt>
      <trkpt lat="47.41713" lon="-1.85809">
        <ele>48</ele>
        <time>2016-04-24T08:57:18Z</time>
      </trkpt>
      <trkpt lat="47.41707" lon="-1.8581">
        <ele>48</ele>
        <time>2016-04-24T08:57:19Z</time>
      </trkpt>
      <trkpt lat="47.417" lon="-1.85811">
        <ele>48</ele>
        <time>2016-04-24T08:57:20Z</time>
      </trkpt>
      <trkpt lat="47.41694" lon="-1.85812">
        <ele>48</ele>
        <time>2016-04-24T08:57:21Z</time>
      </trkpt>
      <trkpt lat="47.41689" lon="-1.85813">
        <ele>48</ele>
        <time>2016-04-24T08:57:22Z</time>
      </trkpt>
      <trkpt lat="47.41684" lon="-1.85813">
        <ele>48</ele>
        <time>2016-04-24T08:57:23Z</time>
      </trkpt>
      <trkpt lat="47.41681" lon="-1.85814">
        <ele>48</ele>
        <time>2016-04-24T08:57:24Z</time>
      </trkpt>
      <trkpt lat="47.41675" lon="-1.85815">
        <ele>48</ele>
        <time>2016-04-24T08:57:25Z</time>
      </trkpt>
      <trkpt lat="47.41668" lon="-1.85815">
        <ele>48</ele>
        <time>2016-04-24T08:57:26Z</time>
      </trkpt>
      <trkpt lat="47.41665" lon="-1.85818">
        <ele>48</ele>
        <time>2016-04-24T08:57:27Z</time>
      </trkpt>
      <trkpt lat="47.41661" lon="-1.8582">
        <ele>48</ele>
        <time>2016-04-24T08:57:28Z</time>
      </trkpt>
      <trkpt lat="47.41655" lon="-1.85821">
        <ele>48</ele>
        <time>2016-04-24T08:57:29Z</time>
      </trkpt>
      <trkpt lat="47.4165" lon="-1.85822">
        <ele>48</ele>
        <time>2016-04-24T08:57:30Z</time>
      </trkpt>
      <trkpt lat="47.41646" lon="-1.85824">
        <ele>48</ele>
        <time>2016-04-24T08:57:31Z</time>
      </trkpt>
      <trkpt lat="47.41641" lon="-1.85826">
        <ele>49</ele>
        <time>2016-04-24T08:57:32Z</time>
      </trkpt>
      <trkpt lat="47.41637" lon="-1.85827">
        <ele>49</ele>
        <time>2016-04-24T08:57:33Z</time>
      </trkpt>
      <trkpt lat="47.41631" lon="-1.85827">
        <ele>49</ele>
        <time>2016-04-24T08:57:34Z</time>
      </trkpt>
      <trkpt lat="47.41626" lon="-1.85828">
        <ele>49</ele>
        <time>2016-04-24T08:57:35Z</time>
      </trkpt>
      <trkpt lat="47.41622" lon="-1.8583">
        <ele>49</ele>
        <time>2016-04-24T08:57:36Z</time>
      </trkpt>
      <trkpt lat="47.41616" lon="-1.85831">
        <ele>49</ele>
        <time>2016-04-24T08:57:37Z</time>
      </trkpt>
      <trkpt lat="47.41611" lon="-1.85833">
        <ele>49</ele>
        <time>2016-04-24T08:57:38Z</time>
      </trkpt>
      <trkpt lat="47.41606" lon="-1.85837">
        <ele>49</ele>
        <time>2016-04-24T08:57:39Z</time>
      </trkpt>
      <trkpt lat="47.41601" lon="-1.8584">
        <ele>49</ele>
        <time>2016-04-24T08:57:40Z</time>
      </trkpt>
      <trkpt lat="47.41596" lon="-1.85845">
        <ele>49</ele>
        <time>2016-04-24T08:57:41Z</time>
      </trkpt>
      <trkpt lat="47.41592" lon="-1.85849">
        <ele>49</ele>
        <time>2016-04-24T08:57:42Z</time>
      </trkpt>
      <trkpt lat="47.41588" lon="-1.85857">
        <ele>49</ele>
        <time>2016-04-24T08:57:43Z</time>
      </trkpt>
      <trkpt lat="47.41584" lon="-1.85862">
        <ele>49</ele>
        <time>2016-04-24T08:57:44Z</time>
      </trkpt>
      <trkpt lat="47.4158" lon="-1.85868">
        <ele>49</ele>
        <time>2016-04-24T08:57:45Z</time>
      </trkpt>
      <trkpt lat="47.41575" lon="-1.85874">
        <ele>49</ele>
        <time>2016-04-24T08:57:46Z</time>
      </trkpt>
      <trkpt lat="47.41569" lon="-1.8588">
        <ele>49</ele>
        <time>2016-04-24T08:57:47Z</time>
      </trkpt>
      <trkpt lat="47.41564" lon="-1.85886">
        <ele>49</ele>
        <time>2016-04-24T08:57:48Z</time>
      </trkpt>
      <trkpt lat="47.41558" lon="-1.85891">
        <ele>49</ele>
        <time>2016-04-24T08:57:49Z</time>
      </trkpt>
      <trkpt lat="47.41553" lon="-1.85893">
        <ele>49</ele>
        <time>2016-04-24T08:57:50Z</time>
      </trkpt>
      <trkpt lat="47.41547" lon="-1.85894">
        <ele>49</ele>
        <time>2016-04-24T08:57:51Z</time>
      </trkpt>
      <trkpt lat="47.4154" lon="-1.85891">
        <ele>49</ele>
        <time>2016-04-24T08:57:52Z</time>
      </trkpt>
      <trkpt lat="47.41535" lon="-1.85889">
        <ele>49</ele>
        <time>2016-04-24T08:57:53Z</time>
      </trkpt>
      <trkpt lat="47.41531" lon="-1.85888">
        <ele>49</ele>
        <time>2016-04-24T08:57:54Z</time>
      </trkpt>
      <trkpt lat="47.41525" lon="-1.85886">
        <ele>49</ele>
        <time>2016-04-24T08:57:55Z</time>
      </trkpt>
      <trkpt lat="47.41519" lon="-1.85885">
        <ele>49</ele>
        <time>2016-04-24T08:57:56Z</time>
      </trkpt>
      <trkpt lat="47.41513" lon="-1.85882">
        <ele>49</ele>
        <time>2016-04-24T08:57:57Z</time>
      </trkpt>
      <trkpt lat="47.41508" lon="-1.85881">
        <ele>49</ele>
        <time>2016-04-24T08:57:58Z</time>
      </trkpt>
      <trkpt lat="47.41505" lon="-1.85878">
        <ele>49</ele>
        <time>2016-04-24T08:57:59Z</time>
      </trkpt>
      <trkpt lat="47.41499" lon="-1.85877">
        <ele>49</ele>
        <time>2016-04-24T08:58:00Z</time>
      </trkpt>
      <trkpt lat="47.41495" lon="-1.85875">
        <ele>49</ele>
        <time>2016-04-24T08:58:01Z</time>
      </trkpt>
      <trkpt lat="47.41491" lon="-1.85874">
        <ele>49</ele>
        <time>2016-04-24T08:58:02Z</time>
      </trkpt>
      <trkpt lat="47.41485" lon="-1.85873">
        <ele>49</ele>
        <time>2016-04-24T08:58:03Z</time>
      </trkpt>
      <trkpt lat="47.41479" lon="-1.85871">
        <ele>49</ele>
        <time>2016-04-24T08:58:04Z</time>
      </trkpt>
      <trkpt lat="47.4147" lon="-1.8587">
        <ele>49</ele>
        <time>2016-04-24T08:58:05Z</time>
      </trkpt>
      <trkpt lat="47.41465" lon="-1.85869">
        <ele>49</ele>
        <time>2016-04-24T08:58:06Z</time>
      </trkpt>
      <trkpt lat="47.4146" lon="-1.85866">
        <ele>49</ele>
        <time>2016-04-24T08:58:07Z</time>
      </trkpt>
      <trkpt lat="47.41456" lon="-1.85864">
        <ele>49</ele>
        <time>2016-04-24T08:58:08Z</time>
      </trkpt>
      <trkpt lat="47.41451" lon="-1.85862">
        <ele>49</ele>
        <time>2016-04-24T08:58:09Z</time>
      </trkpt>
      <trkpt lat="47.41447" lon="-1.8586">
        <ele>49</ele>
        <time>2016-04-24T08:58:10Z</time>
      </trkpt>
      <trkpt lat="47.41441" lon="-1.85858">
        <ele>49</ele>
        <time>2016-04-24T08:58:11Z</time>
      </trkpt>
      <trkpt lat="47.41435" lon="-1.85856">
        <ele>49</ele>
        <time>2016-04-24T08:58:12Z</time>
      </trkpt>
      <trkpt lat="47.4143" lon="-1.85855">
        <ele>50</ele>
        <time>2016-04-24T08:58:13Z</time>
      </trkpt>
      <trkpt lat="47.41424" lon="-1.85854">
        <ele>50</ele>
        <time>2016-04-24T08:58:14Z</time>
      </trkpt>
      <trkpt lat="47.41419" lon="-1.85851">
        <ele>50</ele>
        <time>2016-04-24T08:58:15Z</time>
      </trkpt>
      <trkpt lat="47.41414" lon="-1.8585">
        <ele>50</ele>
        <time>2016-04-24T08:58:16Z</time>
      </trkpt>
      <trkpt lat="47.4141" lon="-1.8585">
        <ele>50</ele>
        <time>2016-04-24T08:58:17Z</time>
      </trkpt>
      <trkpt lat="47.41404" lon="-1.85849">
        <ele>51</ele>
        <time>2016-04-24T08:58:18Z</time>
      </trkpt>
      <trkpt lat="47.41399" lon="-1.85848">
        <ele>51</ele>
        <time>2016-04-24T08:58:19Z</time>
      </trkpt>
      <trkpt lat="47.41389" lon="-1.85845">
        <ele>51</ele>
        <time>2016-04-24T08:58:20Z</time>
      </trkpt>
      <trkpt lat="47.41385" lon="-1.85842">
        <ele>51</ele>
        <time>2016-04-24T08:58:21Z</time>
      </trkpt>
      <trkpt lat="47.41381" lon="-1.85839">
        <ele>51</ele>
        <time>2016-04-24T08:58:22Z</time>
      </trkpt>
      <trkpt lat="47.41377" lon="-1.85837">
        <ele>51</ele>
        <time>2016-04-24T08:58:23Z</time>
      </trkpt>
      <trkpt lat="47.4137" lon="-1.85836">
        <ele>51</ele>
        <time>2016-04-24T08:58:24Z</time>
      </trkpt>
      <trkpt lat="47.41364" lon="-1.85834">
        <ele>51</ele>
        <time>2016-04-24T08:58:25Z</time>
      </trkpt>
      <trkpt lat="47.41361" lon="-1.85833">
        <ele>52</ele>
        <time>2016-04-24T08:58:26Z</time>
      </trkpt>
      <trkpt lat="47.41356" lon="-1.85831">
        <ele>52</ele>
        <time>2016-04-24T08:58:27Z</time>
      </trkpt>
      <trkpt lat="47.41351" lon="-1.8583">
        <ele>53</ele>
        <time>2016-04-24T08:58:28Z</time>
      </trkpt>
      <trkpt lat="47.41347" lon="-1.85829">
        <ele>53</ele>
        <time>2016-04-24T08:58:29Z</time>
      </trkpt>
      <trkpt lat="47.41343" lon="-1.85827">
        <ele>53</ele>
        <time>2016-04-24T08:58:30Z</time>
      </trkpt>
      <trkpt lat="47.41338" lon="-1.85827">
        <ele>53</ele>
        <time>2016-04-24T08:58:31Z</time>
      </trkpt>
      <trkpt lat="47.41334" lon="-1.85828">
        <ele>53</ele>
        <time>2016-04-24T08:58:32Z</time>
      </trkpt>
      <trkpt lat="47.41329" lon="-1.8583">
        <ele>53</ele>
        <time>2016-04-24T08:58:33Z</time>
      </trkpt>
      <trkpt lat="47.41325" lon="-1.85834">
        <ele>53</ele>
        <time>2016-04-24T08:58:34Z</time>
      </trkpt>
      <trkpt lat="47.41321" lon="-1.85839">
        <ele>53</ele>
        <time>2016-04-24T08:58:35Z</time>
      </trkpt>
      <trkpt lat="47.41315" lon="-1.85845">
        <ele>53</ele>
        <time>2016-04-24T08:58:36Z</time>
      </trkpt>
      <trkpt lat="47.41312" lon="-1.85851">
        <ele>53</ele>
        <time>2016-04-24T08:58:37Z</time>
      </trkpt>
      <trkpt lat="47.41308" lon="-1.85858">
        <ele>53</ele>
        <time>2016-04-24T08:58:38Z</time>
      </trkpt>
      <trkpt lat="47.41305" lon="-1.85862">
        <ele>53</ele>
        <time>2016-04-24T08:58:39Z</time>
      </trkpt>
      <trkpt lat="47.41301" lon="-1.85866">
        <ele>53</ele>
        <time>2016-04-24T08:58:40Z</time>
      </trkpt>
      <trkpt lat="47.41295" lon="-1.85871">
        <ele>53</ele>
        <time>2016-04-24T08:58:41Z</time>
      </trkpt>
      <trkpt lat="47.41291" lon="-1.85875">
        <ele>53</ele>
        <time>2016-04-24T08:58:42Z</time>
      </trkpt>
      <trkpt lat="47.41288" lon="-1.8588">
        <ele>53</ele>
        <time>2016-04-24T08:58:43Z</time>
      </trkpt>
      <trkpt lat="47.41283" lon="-1.85884">
        <ele>53</ele>
        <time>2016-04-24T08:58:44Z</time>
      </trkpt>
      <trkpt lat="47.41279" lon="-1.8589">
        <ele>53</ele>
        <time>2016-04-24T08:58:45Z</time>
      </trkpt>
      <trkpt lat="47.41275" lon="-1.85894">
        <ele>53</ele>
        <time>2016-04-24T08:58:46Z</time>
      </trkpt>
      <trkpt lat="47.41269" lon="-1.85899">
        <ele>53</ele>
        <time>2016-04-24T08:58:47Z</time>
      </trkpt>
      <trkpt lat="47.41265" lon="-1.85906">
        <ele>54</ele>
        <time>2016-04-24T08:58:48Z</time>
      </trkpt>
      <trkpt lat="47.4126" lon="-1.85912">
        <ele>54</ele>
        <time>2016-04-24T08:58:49Z</time>
      </trkpt>
      <trkpt lat="47.41256" lon="-1.85917">
        <ele>54</ele>
        <time>2016-04-24T08:58:50Z</time>
      </trkpt>
      <trkpt lat="47.41252" lon="-1.85922">
        <ele>54</ele>
        <time>2016-04-24T08:58:51Z</time>
      </trkpt>
      <trkpt lat="47.4125" lon="-1.85925">
        <ele>54</ele>
        <time>2016-04-24T08:58:52Z</time>
      </trkpt>
      <trkpt lat="47.41249" lon="-1.85931">
        <ele>54</ele>
        <time>2016-04-24T08:58:53Z</time>
      </trkpt>
      <trkpt lat="47.41245" lon="-1.85936">
        <ele>54</ele>
        <time>2016-04-24T08:58:54Z</time>
      </trkpt>
      <trkpt lat="47.41241" lon="-1.85942">
        <ele>54</ele>
        <time>2016-04-24T08:58:55Z</time>
      </trkpt>
      <trkpt lat="47.41237" lon="-1.85949">
        <ele>54</ele>
        <time>2016-04-24T08:58:56Z</time>
      </trkpt>
      <trkpt lat="47.41234" lon="-1.85955">
        <ele>54</ele>
        <time>2016-04-24T08:58:57Z</time>
      </trkpt>
      <trkpt lat="47.41231" lon="-1.85961">
        <ele>53</ele>
        <time>2016-04-24T08:58:58Z</time>
      </trkpt>
      <trkpt lat="47.41228" lon="-1.85974">
        <ele>53</ele>
        <time>2016-04-24T08:58:59Z</time>
      </trkpt>
      <trkpt lat="47.41225" lon="-1.8598">
        <ele>53</ele>
        <time>2016-04-24T08:59:00Z</time>
      </trkpt>
      <trkpt lat="47.41222" lon="-1.85987">
        <ele>53</ele>
        <time>2016-04-24T08:59:01Z</time>
      </trkpt>
      <trkpt lat="47.41219" lon="-1.85994">
        <ele>53</ele>
        <time>2016-04-24T08:59:02Z</time>
      </trkpt>
      <trkpt lat="47.41214" lon="-1.86003">
        <ele>53</ele>
        <time>2016-04-24T08:59:03Z</time>
      </trkpt>
      <trkpt lat="47.41213" lon="-1.8601">
        <ele>53</ele>
        <time>2016-04-24T08:59:04Z</time>
      </trkpt>
      <trkpt lat="47.41212" lon="-1.86016">
        <ele>53</ele>
        <time>2016-04-24T08:59:05Z</time>
      </trkpt>
      <trkpt lat="47.4121" lon="-1.86026">
        <ele>53</ele>
        <time>2016-04-24T08:59:06Z</time>
      </trkpt>
      <trkpt lat="47.41206" lon="-1.86033">
        <ele>53</ele>
        <time>2016-04-24T08:59:07Z</time>
      </trkpt>
      <trkpt lat="47.41203" lon="-1.86038">
        <ele>53</ele>
        <time>2016-04-24T08:59:08Z</time>
      </trkpt>
      <trkpt lat="47.41199" lon="-1.86046">
        <ele>53</ele>
        <time>2016-04-24T08:59:09Z</time>
      </trkpt>
      <trkpt lat="47.41197" lon="-1.86053">
        <ele>53</ele>
        <time>2016-04-24T08:59:10Z</time>
      </trkpt>
      <trkpt lat="47.41194" lon="-1.86061">
        <ele>53</ele>
        <time>2016-04-24T08:59:11Z</time>
      </trkpt>
      <trkpt lat="47.41192" lon="-1.86069">
        <ele>53</ele>
        <time>2016-04-24T08:59:12Z</time>
      </trkpt>
      <trkpt lat="47.41188" lon="-1.86076">
        <ele>53</ele>
        <time>2016-04-24T08:59:13Z</time>
      </trkpt>
      <trkpt lat="47.41186" lon="-1.86084">
        <ele>52</ele>
        <time>2016-04-24T08:59:14Z</time>
      </trkpt>
      <trkpt lat="47.41184" lon="-1.8609">
        <ele>52</ele>
        <time>2016-04-24T08:59:15Z</time>
      </trkpt>
      <trkpt lat="47.41182" lon="-1.86097">
        <ele>52</ele>
        <time>2016-04-24T08:59:16Z</time>
      </trkpt>
      <trkpt lat="47.41178" lon="-1.86104">
        <ele>52</ele>
        <time>2016-04-24T08:59:17Z</time>
      </trkpt>
      <trkpt lat="47.41175" lon="-1.86111">
        <ele>52</ele>
        <time>2016-04-24T08:59:18Z</time>
      </trkpt>
      <trkpt lat="47.41171" lon="-1.86117">
        <ele>52</ele>
        <time>2016-04-24T08:59:19Z</time>
      </trkpt>
      <trkpt lat="47.41167" lon="-1.86123">
        <ele>52</ele>
        <time>2016-04-24T08:59:20Z</time>
      </trkpt>
      <trkpt lat="47.41164" lon="-1.86128">
        <ele>53</ele>
        <time>2016-04-24T08:59:21Z</time>
      </trkpt>
      <trkpt lat="47.41161" lon="-1.86135">
        <ele>53</ele>
        <time>2016-04-24T08:59:22Z</time>
      </trkpt>
      <trkpt lat="47.4116" lon="-1.8614">
        <ele>53</ele>
        <time>2016-04-24T08:59:23Z</time>
      </trkpt>
      <trkpt lat="47.41156" lon="-1.86148">
        <ele>53</ele>
        <time>2016-04-24T08:59:24Z</time>
      </trkpt>
      <trkpt lat="47.41154" lon="-1.86156">
        <ele>53</ele>
        <time>2016-04-24T08:59:25Z</time>
      </trkpt>
      <trkpt lat="47.41152" lon="-1.86163">
        <ele>53</ele>
        <time>2016-04-24T08:59:26Z</time>
      </trkpt>
      <trkpt lat="47.41148" lon="-1.86169">
        <ele>53</ele>
        <time>2016-04-24T08:59:27Z</time>
      </trkpt>
      <trkpt lat="47.41145" lon="-1.86175">
        <ele>53</ele>
        <time>2016-04-24T08:59:28Z</time>
      </trkpt>
      <trkpt lat="47.41142" lon="-1.8618">
        <ele>53</ele>
        <time>2016-04-24T08:59:29Z</time>
      </trkpt>
      <trkpt lat="47.4114" lon="-1.8619">
        <ele>53</ele>
        <time>2016-04-24T08:59:31Z</time>
      </trkpt>
      <trkpt lat="47.41138" lon="-1.86194">
        <ele>53</ele>
        <time>2016-04-24T08:59:32Z</time>
      </trkpt>
      <trkpt lat="47.41137" lon="-1.86199">
        <ele>53</ele>
        <time>2016-04-24T08:59:33Z</time>
      </trkpt>
      <trkpt lat="47.41133" lon="-1.86205">
        <ele>53</ele>
        <time>2016-04-24T08:59:34Z</time>
      </trkpt>
      <trkpt lat="47.41133" lon="-1.86211">
        <ele>53</ele>
        <time>2016-04-24T08:59:35Z</time>
      </trkpt>
      <trkpt lat="47.41132" lon="-1.86217">
        <ele>53</ele>
        <time>2016-04-24T08:59:36Z</time>
      </trkpt>
      <trkpt lat="47.41129" lon="-1.86223">
        <ele>53</ele>
        <time>2016-04-24T08:59:37Z</time>
      </trkpt>
      <trkpt lat="47.41127" lon="-1.8623">
        <ele>53</ele>
        <time>2016-04-24T08:59:38Z</time>
      </trkpt>
      <trkpt lat="47.41126" lon="-1.86236">
        <ele>53</ele>
        <time>2016-04-24T08:59:39Z</time>
      </trkpt>
      <trkpt lat="47.41125" lon="-1.86243">
        <ele>52</ele>
        <time>2016-04-24T08:59:40Z</time>
      </trkpt>
      <trkpt lat="47.41125" lon="-1.8625">
        <ele>51</ele>
        <time>2016-04-24T08:59:41Z</time>
      </trkpt>
      <trkpt lat="47.41126" lon="-1.86257">
        <ele>51</ele>
        <time>2016-04-24T08:59:42Z</time>
      </trkpt>
      <trkpt lat="47.41127" lon="-1.86266">
        <ele>51</ele>
        <time>2016-04-24T08:59:43Z</time>
      </trkpt>
      <trkpt lat="47.41126" lon="-1.86273">
        <ele>51</ele>
        <time>2016-04-24T08:59:44Z</time>
      </trkpt>
      <trkpt lat="47.41123" lon="-1.86281">
        <ele>51</ele>
        <time>2016-04-24T08:59:45Z</time>
      </trkpt>
      <trkpt lat="47.41121" lon="-1.86291">
        <ele>51</ele>
        <time>2016-04-24T08:59:46Z</time>
      </trkpt>
      <trkpt lat="47.41126" lon="-1.86298">
        <ele>51</ele>
        <time>2016-04-24T08:59:47Z</time>
      </trkpt>
      <trkpt lat="47.41133" lon="-1.86304">
        <ele>51</ele>
        <time>2016-04-24T08:59:48Z</time>
      </trkpt>
      <trkpt lat="47.41131" lon="-1.86314">
        <ele>51</ele>
        <time>2016-04-24T08:59:49Z</time>
      </trkpt>
      <trkpt lat="47.41132" lon="-1.86323">
        <ele>51</ele>
        <time>2016-04-24T08:59:50Z</time>
      </trkpt>
      <trkpt lat="47.41132" lon="-1.86332">
        <ele>50</ele>
        <time>2016-04-24T08:59:51Z</time>
      </trkpt>
      <trkpt lat="47.41134" lon="-1.8634">
        <ele>50</ele>
        <time>2016-04-24T08:59:52Z</time>
      </trkpt>
      <trkpt lat="47.41133" lon="-1.86348">
        <ele>50</ele>
        <time>2016-04-24T08:59:53Z</time>
      </trkpt>
      <trkpt lat="47.41127" lon="-1.86359">
        <ele>50</ele>
        <time>2016-04-24T08:59:54Z</time>
      </trkpt>
      <trkpt lat="47.41127" lon="-1.86368">
        <ele>50</ele>
        <time>2016-04-24T08:59:55Z</time>
      </trkpt>
      <trkpt lat="47.41131" lon="-1.86373">
        <ele>49</ele>
        <time>2016-04-24T08:59:56Z</time>
      </trkpt>
      <trkpt lat="47.41129" lon="-1.86382">
        <ele>49</ele>
        <time>2016-04-24T08:59:57Z</time>
      </trkpt>
      <trkpt lat="47.41127" lon="-1.86392">
        <ele>49</ele>
        <time>2016-04-24T08:59:58Z</time>
      </trkpt>
      <trkpt lat="47.41126" lon="-1.864">
        <ele>49</ele>
        <time>2016-04-24T08:59:59Z</time>
      </trkpt>
      <trkpt lat="47.41121" lon="-1.86411">
        <ele>49</ele>
        <time>2016-04-24T09:00:00Z</time>
      </trkpt>
      <trkpt lat="47.41118" lon="-1.86422">
        <ele>48</ele>
        <time>2016-04-24T09:00:01Z</time>
      </trkpt>
      <trkpt lat="47.41115" lon="-1.8643">
        <ele>48</ele>
        <time>2016-04-24T09:00:02Z</time>
      </trkpt>
      <trkpt lat="47.41118" lon="-1.86437">
        <ele>48</ele>
        <time>2016-04-24T09:00:03Z</time>
      </trkpt>
      <trkpt lat="47.41118" lon="-1.86443">
        <ele>48</ele>
        <time>2016-04-24T09:00:04Z</time>
      </trkpt>
      <trkpt lat="47.41112" lon="-1.86457">
        <ele>48</ele>
        <time>2016-04-24T09:00:05Z</time>
      </trkpt>
      <trkpt lat="47.41105" lon="-1.86469">
        <ele>48</ele>
        <time>2016-04-24T09:00:06Z</time>
      </trkpt>
      <trkpt lat="47.41108" lon="-1.86475">
        <ele>48</ele>
        <time>2016-04-24T09:00:07Z</time>
      </trkpt>
      <trkpt lat="47.41109" lon="-1.86483">
        <ele>48</ele>
        <time>2016-04-24T09:00:08Z</time>
      </trkpt>
      <trkpt lat="47.41108" lon="-1.86492">
        <ele>48</ele>
        <time>2016-04-24T09:00:09Z</time>
      </trkpt>
      <trkpt lat="47.41107" lon="-1.86502">
        <ele>47</ele>
        <time>2016-04-24T09:00:10Z</time>
      </trkpt>
      <trkpt lat="47.41105" lon="-1.86508">
        <ele>47</ele>
        <time>2016-04-24T09:00:11Z</time>
      </trkpt>
      <trkpt lat="47.41105" lon="-1.86517">
        <ele>47</ele>
        <time>2016-04-24T09:00:12Z</time>
      </trkpt>
      <trkpt lat="47.41106" lon="-1.86524">
        <ele>47</ele>
        <time>2016-04-24T09:00:13Z</time>
      </trkpt>
      <trkpt lat="47.41102" lon="-1.86535">
        <ele>47</ele>
        <time>2016-04-24T09:00:14Z</time>
      </trkpt>
      <trkpt lat="47.41102" lon="-1.86544">
        <ele>47</ele>
        <time>2016-04-24T09:00:15Z</time>
      </trkpt>
      <trkpt lat="47.411" lon="-1.86553">
        <ele>47</ele>
        <time>2016-04-24T09:00:16Z</time>
      </trkpt>
      <trkpt lat="47.41097" lon="-1.86562">
        <ele>47</ele>
        <time>2016-04-24T09:00:17Z</time>
      </trkpt>
      <trkpt lat="47.41095" lon="-1.86572">
        <ele>47</ele>
        <time>2016-04-24T09:00:18Z</time>
      </trkpt>
      <trkpt lat="47.41095" lon="-1.86586">
        <ele>46</ele>
        <time>2016-04-24T09:00:19Z</time>
      </trkpt>
      <trkpt lat="47.41093" lon="-1.86597">
        <ele>46</ele>
        <time>2016-04-24T09:00:20Z</time>
      </trkpt>
      <trkpt lat="47.4109" lon="-1.86608">
        <ele>46</ele>
        <time>2016-04-24T09:00:21Z</time>
      </trkpt>
      <trkpt lat="47.41088" lon="-1.86617">
        <ele>46</ele>
        <time>2016-04-24T09:00:22Z</time>
      </trkpt>
      <trkpt lat="47.41085" lon="-1.86628">
        <ele>46</ele>
        <time>2016-04-24T09:00:23Z</time>
      </trkpt>
      <trkpt lat="47.41085" lon="-1.8664">
        <ele>46</ele>
        <time>2016-04-24T09:00:24Z</time>
      </trkpt>
      <trkpt lat="47.41082" lon="-1.86655">
        <ele>46</ele>
        <time>2016-04-24T09:00:25Z</time>
      </trkpt>
      <trkpt lat="47.41082" lon="-1.86667">
        <ele>46</ele>
        <time>2016-04-24T09:00:26Z</time>
      </trkpt>
      <trkpt lat="47.41081" lon="-1.86679">
        <ele>46</ele>
        <time>2016-04-24T09:00:27Z</time>
      </trkpt>
      <trkpt lat="47.41079" lon="-1.86693">
        <ele>46</ele>
        <time>2016-04-24T09:00:28Z</time>
      </trkpt>
      <trkpt lat="47.41079" lon="-1.86704">
        <ele>46</ele>
        <time>2016-04-24T09:00:29Z</time>
      </trkpt>
      <trkpt lat="47.41076" lon="-1.86718">
        <ele>46</ele>
        <time>2016-04-24T09:00:30Z</time>
      </trkpt>
      <trkpt lat="47.41073" lon="-1.86732">
        <ele>46</ele>
        <time>2016-04-24T09:00:31Z</time>
      </trkpt>
      <trkpt lat="47.41073" lon="-1.86744">
        <ele>46</ele>
        <time>2016-04-24T09:00:32Z</time>
      </trkpt>
      <trkpt lat="47.41074" lon="-1.86757">
        <ele>46</ele>
        <time>2016-04-24T09:00:33Z</time>
      </trkpt>
      <trkpt lat="47.4107" lon="-1.86765">
        <ele>47</ele>
        <time>2016-04-24T09:00:34Z</time>
      </trkpt>
      <trkpt lat="47.41072" lon="-1.86776">
        <ele>47</ele>
        <time>2016-04-24T09:00:35Z</time>
      </trkpt>
      <trkpt lat="47.41071" lon="-1.86784">
        <ele>47</ele>
        <time>2016-04-24T09:00:36Z</time>
      </trkpt>
      <trkpt lat="47.41073" lon="-1.86796">
        <ele>47</ele>
        <time>2016-04-24T09:00:37Z</time>
      </trkpt>
      <trkpt lat="47.41071" lon="-1.86806">
        <ele>47</ele>
        <time>2016-04-24T09:00:38Z</time>
      </trkpt>
      <trkpt lat="47.4107" lon="-1.86815">
        <ele>48</ele>
        <time>2016-04-24T09:00:39Z</time>
      </trkpt>
      <trkpt lat="47.4107" lon="-1.86823">
        <ele>48</ele>
        <time>2016-04-24T09:00:40Z</time>
      </trkpt>
      <trkpt lat="47.41071" lon="-1.86832">
        <ele>48</ele>
        <time>2016-04-24T09:00:41Z</time>
      </trkpt>
      <trkpt lat="47.41072" lon="-1.8684">
        <ele>49</ele>
        <time>2016-04-24T09:00:42Z</time>
      </trkpt>
      <trkpt lat="47.41073" lon="-1.86847">
        <ele>49</ele>
        <time>2016-04-24T09:00:43Z</time>
      </trkpt>
      <trkpt lat="47.41072" lon="-1.86855">
        <ele>49</ele>
        <time>2016-04-24T09:00:44Z</time>
      </trkpt>
      <trkpt lat="47.41072" lon="-1.86862">
        <ele>49</ele>
        <time>2016-04-24T09:00:45Z</time>
      </trkpt>
      <trkpt lat="47.41073" lon="-1.86868">
        <ele>49</ele>
        <time>2016-04-24T09:00:46Z</time>
      </trkpt>
      <trkpt lat="47.41077" lon="-1.86874">
        <ele>49</ele>
        <time>2016-04-24T09:00:47Z</time>
      </trkpt>
      <trkpt lat="47.41078" lon="-1.8688">
        <ele>49</ele>
        <time>2016-04-24T09:00:48Z</time>
      </trkpt>
      <trkpt lat="47.41078" lon="-1.86887">
        <ele>50</ele>
        <time>2016-04-24T09:00:49Z</time>
      </trkpt>
      <trkpt lat="47.41078" lon="-1.86892">
        <ele>50</ele>
        <time>2016-04-24T09:00:50Z</time>
      </trkpt>
      <trkpt lat="47.41078" lon="-1.86897">
        <ele>50</ele>
        <time>2016-04-24T09:00:51Z</time>
      </trkpt>
      <trkpt lat="47.41077" lon="-1.86903">
        <ele>50</ele>
        <time>2016-04-24T09:00:52Z</time>
      </trkpt>
      <trkpt lat="47.41077" lon="-1.86909">
        <ele>50</ele>
        <time>2016-04-24T09:00:53Z</time>
      </trkpt>
      <trkpt lat="47.41077" lon="-1.86915">
        <ele>51</ele>
        <time>2016-04-24T09:00:54Z</time>
      </trkpt>
      <trkpt lat="47.41078" lon="-1.86921">
        <ele>51</ele>
        <time>2016-04-24T09:00:55Z</time>
      </trkpt>
      <trkpt lat="47.41078" lon="-1.86927">
        <ele>51</ele>
        <time>2016-04-24T09:00:56Z</time>
      </trkpt>
      <trkpt lat="47.41078" lon="-1.86932">
        <ele>52</ele>
        <time>2016-04-24T09:00:57Z</time>
      </trkpt>
      <trkpt lat="47.41077" lon="-1.86938">
        <ele>52</ele>
        <time>2016-04-24T09:00:58Z</time>
      </trkpt>
      <trkpt lat="47.41076" lon="-1.86943">
        <ele>52</ele>
        <time>2016-04-24T09:00:59Z</time>
      </trkpt>
      <trkpt lat="47.41074" lon="-1.86949">
        <ele>52</ele>
        <time>2016-04-24T09:01:00Z</time>
      </trkpt>
      <trkpt lat="47.41072" lon="-1.86955">
        <ele>52</ele>
        <time>2016-04-24T09:01:01Z</time>
      </trkpt>
      <trkpt lat="47.41069" lon="-1.86962">
        <ele>52</ele>
        <time>2016-04-24T09:01:02Z</time>
      </trkpt>
      <trkpt lat="47.41062" lon="-1.86973">
        <ele>52</ele>
        <time>2016-04-24T09:01:03Z</time>
      </trkpt>
      <trkpt lat="47.41061" lon="-1.8698">
        <ele>53</ele>
        <time>2016-04-24T09:01:04Z</time>
      </trkpt>
      <trkpt lat="47.41063" lon="-1.86985">
        <ele>53</ele>
        <time>2016-04-24T09:01:05Z</time>
      </trkpt>
      <trkpt lat="47.41061" lon="-1.86992">
        <ele>53</ele>
        <time>2016-04-24T09:01:06Z</time>
      </trkpt>
      <trkpt lat="47.41061" lon="-1.87002">
        <ele>54</ele>
        <time>2016-04-24T09:01:07Z</time>
      </trkpt>
      <trkpt lat="47.41059" lon="-1.8701">
        <ele>55</ele>
        <time>2016-04-24T09:01:08Z</time>
      </trkpt>
      <trkpt lat="47.41056" lon="-1.87021">
        <ele>55</ele>
        <time>2016-04-24T09:01:09Z</time>
      </trkpt>
      <trkpt lat="47.41052" lon="-1.8703">
        <ele>55</ele>
        <time>2016-04-24T09:01:10Z</time>
      </trkpt>
      <trkpt lat="47.41051" lon="-1.87038">
        <ele>55</ele>
        <time>2016-04-24T09:01:11Z</time>
      </trkpt>
      <trkpt lat="47.41045" lon="-1.87042">
        <ele>55</ele>
        <time>2016-04-24T09:01:13Z</time>
      </trkpt>
      <trkpt lat="47.4104" lon="-1.8705">
        <ele>55</ele>
        <time>2016-04-24T09:01:14Z</time>
      </trkpt>
      <trkpt lat="47.41039" lon="-1.87058">
        <ele>55</ele>
        <time>2016-04-24T09:01:15Z</time>
      </trkpt>
      <trkpt lat="47.41042" lon="-1.87064">
        <ele>55</ele>
        <time>2016-04-24T09:01:16Z</time>
      </trkpt>
      <trkpt lat="47.41038" lon="-1.8707">
        <ele>55</ele>
        <time>2016-04-24T09:01:17Z</time>
      </trkpt>
      <trkpt lat="47.41037" lon="-1.87074">
        <ele>55</ele>
        <time>2016-04-24T09:01:18Z</time>
      </trkpt>
      <trkpt lat="47.41035" lon="-1.87085">
        <ele>57</ele>
        <time>2016-04-24T09:01:20Z</time>
      </trkpt>
      <trkpt lat="47.41033" lon="-1.87091">
        <ele>57</ele>
        <time>2016-04-24T09:01:22Z</time>
      </trkpt>
      <trkpt lat="47.41033" lon="-1.87095">
        <ele>57</ele>
        <time>2016-04-24T09:01:23Z</time>
      </trkpt>
      <trkpt lat="47.41032" lon="-1.871">
        <ele>57</ele>
        <time>2016-04-24T09:01:24Z</time>
      </trkpt>
      <trkpt lat="47.41031" lon="-1.87105">
        <ele>58</ele>
        <time>2016-04-24T09:01:25Z</time>
      </trkpt>
      <trkpt lat="47.4103" lon="-1.8711">
        <ele>58</ele>
        <time>2016-04-24T09:01:26Z</time>
      </trkpt>
      <trkpt lat="47.41029" lon="-1.87116">
        <ele>58</ele>
        <time>2016-04-24T09:01:27Z</time>
      </trkpt>
      <trkpt lat="47.41028" lon="-1.87122">
        <ele>58</ele>
        <time>2016-04-24T09:01:28Z</time>
      </trkpt>
      <trkpt lat="47.41026" lon="-1.87128">
        <ele>58</ele>
        <time>2016-04-24T09:01:29Z</time>
      </trkpt>
      <trkpt lat="47.41026" lon="-1.87134">
        <ele>58</ele>
        <time>2016-04-24T09:01:30Z</time>
      </trkpt>
      <trkpt lat="47.41025" lon="-1.8714">
        <ele>58</ele>
        <time>2016-04-24T09:01:31Z</time>
      </trkpt>
      <trkpt lat="47.41024" lon="-1.87146">
        <ele>58</ele>
        <time>2016-04-24T09:01:32Z</time>
      </trkpt>
      <trkpt lat="47.41024" lon="-1.87152">
        <ele>58</ele>
        <time>2016-04-24T09:01:33Z</time>
      </trkpt>
      <trkpt lat="47.41024" lon="-1.87159">
        <ele>58</ele>
        <time>2016-04-24T09:01:34Z</time>
      </trkpt>
      <trkpt lat="47.41023" lon="-1.87166">
        <ele>59</ele>
        <time>2016-04-24T09:01:35Z</time>
      </trkpt>
      <trkpt lat="47.41023" lon="-1.87173">
        <ele>59</ele>
        <time>2016-04-24T09:01:36Z</time>
      </trkpt>
      <trkpt lat="47.41023" lon="-1.87179">
        <ele>59</ele>
        <time>2016-04-24T09:01:37Z</time>
      </trkpt>
      <trkpt lat="47.41023" lon="-1.87185">
        <ele>59</ele>
        <time>2016-04-24T09:01:38Z</time>
      </trkpt>
      <trkpt lat="47.41024" lon="-1.8719">
        <ele>59</ele>
        <time>2016-04-24T09:01:39Z</time>
      </trkpt>
      <trkpt lat="47.41025" lon="-1.87195">
        <ele>59</ele>
        <time>2016-04-24T09:01:40Z</time>
      </trkpt>
      <trkpt lat="47.41027" lon="-1.87203">
        <ele>59</ele>
        <time>2016-04-24T09:01:42Z</time>
      </trkpt>
      <trkpt lat="47.41027" lon="-1.87207">
        <ele>59</ele>
        <time>2016-04-24T09:01:43Z</time>
      </trkpt>
      <trkpt lat="47.41027" lon="-1.87212">
        <ele>60</ele>
        <time>2016-04-24T09:01:44Z</time>
      </trkpt>
      <trkpt lat="47.41027" lon="-1.87216">
        <ele>60</ele>
        <time>2016-04-24T09:01:45Z</time>
      </trkpt>
      <trkpt lat="47.41027" lon="-1.87221">
        <ele>60</ele>
        <time>2016-04-24T09:01:46Z</time>
      </trkpt>
      <trkpt lat="47.41027" lon="-1.87225">
        <ele>60</ele>
        <time>2016-04-24T09:01:47Z</time>
      </trkpt>
      <trkpt lat="47.41027" lon="-1.8723">
        <ele>60</ele>
        <time>2016-04-24T09:01:48Z</time>
      </trkpt>
      <trkpt lat="47.41027" lon="-1.87238">
        <ele>60</ele>
        <time>2016-04-24T09:01:49Z</time>
      </trkpt>
      <trkpt lat="47.41028" lon="-1.87244">
        <ele>60</ele>
        <time>2016-04-24T09:01:50Z</time>
      </trkpt>
      <trkpt lat="47.41028" lon="-1.87251">
        <ele>59</ele>
        <time>2016-04-24T09:01:51Z</time>
      </trkpt>
      <trkpt lat="47.41028" lon="-1.87258">
        <ele>59</ele>
        <time>2016-04-24T09:01:52Z</time>
      </trkpt>
      <trkpt lat="47.41028" lon="-1.87265">
        <ele>59</ele>
        <time>2016-04-24T09:01:53Z</time>
      </trkpt>
      <trkpt lat="47.41028" lon="-1.87273">
        <ele>59</ele>
        <time>2016-04-24T09:01:54Z</time>
      </trkpt>
      <trkpt lat="47.41028" lon="-1.87279">
        <ele>59</ele>
        <time>2016-04-24T09:01:55Z</time>
      </trkpt>
      <trkpt lat="47.41027" lon="-1.87287">
        <ele>59</ele>
        <time>2016-04-24T09:01:56Z</time>
      </trkpt>
      <trkpt lat="47.41026" lon="-1.87294">
        <ele>59</ele>
        <time>2016-04-24T09:01:57Z</time>
      </trkpt>
      <trkpt lat="47.41025" lon="-1.87301">
        <ele>59</ele>
        <time>2016-04-24T09:01:58Z</time>
      </trkpt>
      <trkpt lat="47.41024" lon="-1.87307">
        <ele>59</ele>
        <time>2016-04-24T09:01:59Z</time>
      </trkpt>
      <trkpt lat="47.41023" lon="-1.87313">
        <ele>59</ele>
        <time>2016-04-24T09:02:00Z</time>
      </trkpt>
      <trkpt lat="47.41022" lon="-1.8732">
        <ele>59</ele>
        <time>2016-04-24T09:02:01Z</time>
      </trkpt>
      <trkpt lat="47.4102" lon="-1.87326">
        <ele>59</ele>
        <time>2016-04-24T09:02:02Z</time>
      </trkpt>
      <trkpt lat="47.41018" lon="-1.87331">
        <ele>59</ele>
        <time>2016-04-24T09:02:03Z</time>
      </trkpt>
      <trkpt lat="47.41016" lon="-1.87337">
        <ele>59</ele>
        <time>2016-04-24T09:02:04Z</time>
      </trkpt>
      <trkpt lat="47.41014" lon="-1.87343">
        <ele>59</ele>
        <time>2016-04-24T09:02:05Z</time>
      </trkpt>
      <trkpt lat="47.41012" lon="-1.87348">
        <ele>59</ele>
        <time>2016-04-24T09:02:06Z</time>
      </trkpt>
      <trkpt lat="47.41011" lon="-1.87354">
        <ele>59</ele>
        <time>2016-04-24T09:02:07Z</time>
      </trkpt>
      <trkpt lat="47.41008" lon="-1.87361">
        <ele>59</ele>
        <time>2016-04-24T09:02:08Z</time>
      </trkpt>
      <trkpt lat="47.41006" lon="-1.87367">
        <ele>59</ele>
        <time>2016-04-24T09:02:09Z</time>
      </trkpt>
      <trkpt lat="47.41004" lon="-1.87373">
        <ele>59</ele>
        <time>2016-04-24T09:02:10Z</time>
      </trkpt>
      <trkpt lat="47.41002" lon="-1.87379">
        <ele>59</ele>
        <time>2016-04-24T09:02:11Z</time>
      </trkpt>
      <trkpt lat="47.41" lon="-1.87385">
        <ele>60</ele>
        <time>2016-04-24T09:02:12Z</time>
      </trkpt>
      <trkpt lat="47.40998" lon="-1.87391">
        <ele>60</ele>
        <time>2016-04-24T09:02:13Z</time>
      </trkpt>
      <trkpt lat="47.40995" lon="-1.87397">
        <ele>61</ele>
        <time>2016-04-24T09:02:14Z</time>
      </trkpt>
      <trkpt lat="47.40993" lon="-1.87403">
        <ele>61</ele>
        <time>2016-04-24T09:02:15Z</time>
      </trkpt>
      <trkpt lat="47.4099" lon="-1.87408">
        <ele>61</ele>
        <time>2016-04-24T09:02:16Z</time>
      </trkpt>
      <trkpt lat="47.40988" lon="-1.87414">
        <ele>61</ele>
        <time>2016-04-24T09:02:17Z</time>
      </trkpt>
      <trkpt lat="47.40985" lon="-1.8742">
        <ele>61</ele>
        <time>2016-04-24T09:02:18Z</time>
      </trkpt>
      <trkpt lat="47.40983" lon="-1.87426">
        <ele>61</ele>
        <time>2016-04-24T09:02:19Z</time>
      </trkpt>
      <trkpt lat="47.40981" lon="-1.87432">
        <ele>61</ele>
        <time>2016-04-24T09:02:20Z</time>
      </trkpt>
      <trkpt lat="47.40978" lon="-1.87438">
        <ele>61</ele>
        <time>2016-04-24T09:02:21Z</time>
      </trkpt>
      <trkpt lat="47.40976" lon="-1.87444">
        <ele>61</ele>
        <time>2016-04-24T09:02:22Z</time>
      </trkpt>
      <trkpt lat="47.40974" lon="-1.8745">
        <ele>61</ele>
        <time>2016-04-24T09:02:23Z</time>
      </trkpt>
      <trkpt lat="47.40972" lon="-1.87456">
        <ele>61</ele>
        <time>2016-04-24T09:02:24Z</time>
      </trkpt>
      <trkpt lat="47.4097" lon="-1.87462">
        <ele>61</ele>
        <time>2016-04-24T09:02:25Z</time>
      </trkpt>
      <trkpt lat="47.40968" lon="-1.87468">
        <ele>61</ele>
        <time>2016-04-24T09:02:26Z</time>
      </trkpt>
      <trkpt lat="47.40966" lon="-1.87474">
        <ele>61</ele>
        <time>2016-04-24T09:02:27Z</time>
      </trkpt>
      <trkpt lat="47.40964" lon="-1.8748">
        <ele>61</ele>
        <time>2016-04-24T09:02:28Z</time>
      </trkpt>
      <trkpt lat="47.40962" lon="-1.87485">
        <ele>61</ele>
        <time>2016-04-24T09:02:29Z</time>
      </trkpt>
      <trkpt lat="47.4096" lon="-1.87491">
        <ele>61</ele>
        <time>2016-04-24T09:02:30Z</time>
      </trkpt>
      <trkpt lat="47.40958" lon="-1.87498">
        <ele>61</ele>
        <time>2016-04-24T09:02:31Z</time>
      </trkpt>
      <trkpt lat="47.40955" lon="-1.8751">
        <ele>62</ele>
        <time>2016-04-24T09:02:32Z</time>
      </trkpt>
      <trkpt lat="47.40953" lon="-1.87518">
        <ele>62</ele>
        <time>2016-04-24T09:02:33Z</time>
      </trkpt>
      <trkpt lat="47.4095" lon="-1.87526">
        <ele>62</ele>
        <time>2016-04-24T09:02:34Z</time>
      </trkpt>
      <trkpt lat="47.40947" lon="-1.87533">
        <ele>62</ele>
        <time>2016-04-24T09:02:35Z</time>
      </trkpt>
      <trkpt lat="47.40946" lon="-1.87539">
        <ele>62</ele>
        <time>2016-04-24T09:02:36Z</time>
      </trkpt>
      <trkpt lat="47.40943" lon="-1.87544">
        <ele>62</ele>
        <time>2016-04-24T09:02:37Z</time>
      </trkpt>
      <trkpt lat="47.40941" lon="-1.87551">
        <ele>62</ele>
        <time>2016-04-24T09:02:38Z</time>
      </trkpt>
      <trkpt lat="47.40937" lon="-1.87557">
        <ele>62</ele>
        <time>2016-04-24T09:02:39Z</time>
      </trkpt>
      <trkpt lat="47.40934" lon="-1.87563">
        <ele>62</ele>
        <time>2016-04-24T09:02:40Z</time>
      </trkpt>
      <trkpt lat="47.40929" lon="-1.87568">
        <ele>62</ele>
        <time>2016-04-24T09:02:41Z</time>
      </trkpt>
      <trkpt lat="47.40925" lon="-1.87573">
        <ele>63</ele>
        <time>2016-04-24T09:02:42Z</time>
      </trkpt>
      <trkpt lat="47.40923" lon="-1.87579">
        <ele>63</ele>
        <time>2016-04-24T09:02:43Z</time>
      </trkpt>
      <trkpt lat="47.40919" lon="-1.87587">
        <ele>63</ele>
        <time>2016-04-24T09:02:44Z</time>
      </trkpt>
      <trkpt lat="47.40915" lon="-1.87593">
        <ele>63</ele>
        <time>2016-04-24T09:02:45Z</time>
      </trkpt>
      <trkpt lat="47.40913" lon="-1.87599">
        <ele>63</ele>
        <time>2016-04-24T09:02:46Z</time>
      </trkpt>
      <trkpt lat="47.4091" lon="-1.87606">
        <ele>63</ele>
        <time>2016-04-24T09:02:47Z</time>
      </trkpt>
      <trkpt lat="47.40907" lon="-1.87615">
        <ele>63</ele>
        <time>2016-04-24T09:02:48Z</time>
      </trkpt>
      <trkpt lat="47.40904" lon="-1.8762">
        <ele>63</ele>
        <time>2016-04-24T09:02:49Z</time>
      </trkpt>
      <trkpt lat="47.40901" lon="-1.87626">
        <ele>63</ele>
        <time>2016-04-24T09:02:50Z</time>
      </trkpt>
      <trkpt lat="47.40898" lon="-1.87632">
        <ele>63</ele>
        <time>2016-04-24T09:02:51Z</time>
      </trkpt>
      <trkpt lat="47.40894" lon="-1.8764">
        <ele>63</ele>
        <time>2016-04-24T09:02:52Z</time>
      </trkpt>
      <trkpt lat="47.40891" lon="-1.87645">
        <ele>63</ele>
        <time>2016-04-24T09:02:53Z</time>
      </trkpt>
      <trkpt lat="47.40888" lon="-1.87651">
        <ele>63</ele>
        <time>2016-04-24T09:02:54Z</time>
      </trkpt>
      <trkpt lat="47.40882" lon="-1.87654">
        <ele>63</ele>
        <time>2016-04-24T09:02:55Z</time>
      </trkpt>
      <trkpt lat="47.4088" lon="-1.87662">
        <ele>63</ele>
        <time>2016-04-24T09:02:56Z</time>
      </trkpt>
      <trkpt lat="47.40878" lon="-1.87667">
        <ele>63</ele>
        <time>2016-04-24T09:02:57Z</time>
      </trkpt>
      <trkpt lat="47.40876" lon="-1.87675">
        <ele>63</ele>
        <time>2016-04-24T09:02:58Z</time>
      </trkpt>
      <trkpt lat="47.40872" lon="-1.87682">
        <ele>63</ele>
        <time>2016-04-24T09:02:59Z</time>
      </trkpt>
      <trkpt lat="47.40871" lon="-1.87689">
        <ele>63</ele>
        <time>2016-04-24T09:03:00Z</time>
      </trkpt>
      <trkpt lat="47.40864" lon="-1.87696">
        <ele>63</ele>
        <time>2016-04-24T09:03:01Z</time>
      </trkpt>
      <trkpt lat="47.4086" lon="-1.877">
        <ele>63</ele>
        <time>2016-04-24T09:03:02Z</time>
      </trkpt>
      <trkpt lat="47.40853" lon="-1.87707">
        <ele>63</ele>
        <time>2016-04-24T09:03:04Z</time>
      </trkpt>
      <trkpt lat="47.4085" lon="-1.87712">
        <ele>63</ele>
        <time>2016-04-24T09:03:05Z</time>
      </trkpt>
      <trkpt lat="47.40847" lon="-1.87718">
        <ele>63</ele>
        <time>2016-04-24T09:03:06Z</time>
      </trkpt>
      <trkpt lat="47.40844" lon="-1.87722">
        <ele>63</ele>
        <time>2016-04-24T09:03:07Z</time>
      </trkpt>
      <trkpt lat="47.40841" lon="-1.87727">
        <ele>63</ele>
        <time>2016-04-24T09:03:08Z</time>
      </trkpt>
      <trkpt lat="47.40837" lon="-1.87731">
        <ele>63</ele>
        <time>2016-04-24T09:03:09Z</time>
      </trkpt>
      <trkpt lat="47.40832" lon="-1.87735">
        <ele>62</ele>
        <time>2016-04-24T09:03:10Z</time>
      </trkpt>
      <trkpt lat="47.40828" lon="-1.87739">
        <ele>62</ele>
        <time>2016-04-24T09:03:11Z</time>
      </trkpt>
      <trkpt lat="47.40825" lon="-1.87744">
        <ele>62</ele>
        <time>2016-04-24T09:03:12Z</time>
      </trkpt>
      <trkpt lat="47.40821" lon="-1.87748">
        <ele>62</ele>
        <time>2016-04-24T09:03:13Z</time>
      </trkpt>
      <trkpt lat="47.40816" lon="-1.87751">
        <ele>62</ele>
        <time>2016-04-24T09:03:14Z</time>
      </trkpt>
      <trkpt lat="47.40811" lon="-1.87754">
        <ele>62</ele>
        <time>2016-04-24T09:03:15Z</time>
      </trkpt>
      <trkpt lat="47.40805" lon="-1.87757">
        <ele>62</ele>
        <time>2016-04-24T09:03:16Z</time>
      </trkpt>
      <trkpt lat="47.408" lon="-1.87761">
        <ele>62</ele>
        <time>2016-04-24T09:03:17Z</time>
      </trkpt>
      <trkpt lat="47.40795" lon="-1.87764">
        <ele>62</ele>
        <time>2016-04-24T09:03:18Z</time>
      </trkpt>
      <trkpt lat="47.40791" lon="-1.87768">
        <ele>62</ele>
        <time>2016-04-24T09:03:19Z</time>
      </trkpt>
      <trkpt lat="47.40786" lon="-1.87773">
        <ele>62</ele>
        <time>2016-04-24T09:03:20Z</time>
      </trkpt>
      <trkpt lat="47.40783" lon="-1.87777">
        <ele>62</ele>
        <time>2016-04-24T09:03:21Z</time>
      </trkpt>
      <trkpt lat="47.40779" lon="-1.87782">
        <ele>62</ele>
        <time>2016-04-24T09:03:22Z</time>
      </trkpt>
      <trkpt lat="47.40774" lon="-1.87789">
        <ele>62</ele>
        <time>2016-04-24T09:03:23Z</time>
      </trkpt>
      <trkpt lat="47.40771" lon="-1.87795">
        <ele>62</ele>
        <time>2016-04-24T09:03:24Z</time>
      </trkpt>
      <trkpt lat="47.40768" lon="-1.87801">
        <ele>62</ele>
        <time>2016-04-24T09:03:25Z</time>
      </trkpt>
      <trkpt lat="47.40766" lon="-1.87805">
        <ele>62</ele>
        <time>2016-04-24T09:03:26Z</time>
      </trkpt>
      <trkpt lat="47.40763" lon="-1.87813">
        <ele>62</ele>
        <time>2016-04-24T09:03:27Z</time>
      </trkpt>
      <trkpt lat="47.4076" lon="-1.87819">
        <ele>62</ele>
        <time>2016-04-24T09:03:28Z</time>
      </trkpt>
      <trkpt lat="47.40758" lon="-1.87825">
        <ele>63</ele>
        <time>2016-04-24T09:03:29Z</time>
      </trkpt>
      <trkpt lat="47.40754" lon="-1.87832">
        <ele>63</ele>
        <time>2016-04-24T09:03:30Z</time>
      </trkpt>
      <trkpt lat="47.40751" lon="-1.87839">
        <ele>63</ele>
        <time>2016-04-24T09:03:31Z</time>
      </trkpt>
      <trkpt lat="47.40748" lon="-1.87845">
        <ele>63</ele>
        <time>2016-04-24T09:03:32Z</time>
      </trkpt>
      <trkpt lat="47.40745" lon="-1.87851">
        <ele>63</ele>
        <time>2016-04-24T09:03:33Z</time>
      </trkpt>
      <trkpt lat="47.40741" lon="-1.8786">
        <ele>63</ele>
        <time>2016-04-24T09:03:34Z</time>
      </trkpt>
      <trkpt lat="47.40739" lon="-1.87865">
        <ele>63</ele>
        <time>2016-04-24T09:03:35Z</time>
      </trkpt>
      <trkpt lat="47.40737" lon="-1.87871">
        <ele>63</ele>
        <time>2016-04-24T09:03:36Z</time>
      </trkpt>
      <trkpt lat="47.40734" lon="-1.87878">
        <ele>63</ele>
        <time>2016-04-24T09:03:37Z</time>
      </trkpt>
      <trkpt lat="47.40733" lon="-1.87883">
        <ele>63</ele>
        <time>2016-04-24T09:03:38Z</time>
      </trkpt>
      <trkpt lat="47.40732" lon="-1.87889">
        <ele>63</ele>
        <time>2016-04-24T09:03:39Z</time>
      </trkpt>
      <trkpt lat="47.4073" lon="-1.87896">
        <ele>63</ele>
        <time>2016-04-24T09:03:40Z</time>
      </trkpt>
      <trkpt lat="47.40727" lon="-1.87902">
        <ele>63</ele>
        <time>2016-04-24T09:03:41Z</time>
      </trkpt>
      <trkpt lat="47.40724" lon="-1.8791">
        <ele>63</ele>
        <time>2016-04-24T09:03:42Z</time>
      </trkpt>
      <trkpt lat="47.40723" lon="-1.87917">
        <ele>63</ele>
        <time>2016-04-24T09:03:43Z</time>
      </trkpt>
      <trkpt lat="47.40719" lon="-1.87924">
        <ele>63</ele>
        <time>2016-04-24T09:03:44Z</time>
      </trkpt>
      <trkpt lat="47.40717" lon="-1.87931">
        <ele>63</ele>
        <time>2016-04-24T09:03:45Z</time>
      </trkpt>
      <trkpt lat="47.40715" lon="-1.87937">
        <ele>63</ele>
        <time>2016-04-24T09:03:46Z</time>
      </trkpt>
      <trkpt lat="47.40713" lon="-1.87944">
        <ele>63</ele>
        <time>2016-04-24T09:03:47Z</time>
      </trkpt>
      <trkpt lat="47.4071" lon="-1.87949">
        <ele>63</ele>
        <time>2016-04-24T09:03:48Z</time>
      </trkpt>
      <trkpt lat="47.40708" lon="-1.87955">
        <ele>63</ele>
        <time>2016-04-24T09:03:49Z</time>
      </trkpt>
      <trkpt lat="47.40706" lon="-1.87963">
        <ele>64</ele>
        <time>2016-04-24T09:03:50Z</time>
      </trkpt>
      <trkpt lat="47.40703" lon="-1.87971">
        <ele>64</ele>
        <time>2016-04-24T09:03:51Z</time>
      </trkpt>
      <trkpt lat="47.40699" lon="-1.87973">
        <ele>64</ele>
        <time>2016-04-24T09:03:52Z</time>
      </trkpt>
      <trkpt lat="47.40697" lon="-1.87978">
        <ele>64</ele>
        <time>2016-04-24T09:03:53Z</time>
      </trkpt>
      <trkpt lat="47.40694" lon="-1.87984">
        <ele>64</ele>
        <time>2016-04-24T09:03:54Z</time>
      </trkpt>
      <trkpt lat="47.40691" lon="-1.87992">
        <ele>64</ele>
        <time>2016-04-24T09:03:55Z</time>
      </trkpt>
      <trkpt lat="47.40687" lon="-1.88002">
        <ele>64</ele>
        <time>2016-04-24T09:03:56Z</time>
      </trkpt>
      <trkpt lat="47.40685" lon="-1.88008">
        <ele>64</ele>
        <time>2016-04-24T09:03:57Z</time>
      </trkpt>
      <trkpt lat="47.40683" lon="-1.88017">
        <ele>64</ele>
        <time>2016-04-24T09:03:58Z</time>
      </trkpt>
      <trkpt lat="47.4068" lon="-1.88026">
        <ele>64</ele>
        <time>2016-04-24T09:03:59Z</time>
      </trkpt>
      <trkpt lat="47.40678" lon="-1.88036">
        <ele>64</ele>
        <time>2016-04-24T09:04:00Z</time>
      </trkpt>
      <trkpt lat="47.40675" lon="-1.88043">
        <ele>63</ele>
        <time>2016-04-24T09:04:01Z</time>
      </trkpt>
      <trkpt lat="47.40673" lon="-1.88053">
        <ele>63</ele>
        <time>2016-04-24T09:04:02Z</time>
      </trkpt>
      <trkpt lat="47.40671" lon="-1.8806">
        <ele>63</ele>
        <time>2016-04-24T09:04:03Z</time>
      </trkpt>
      <trkpt lat="47.40667" lon="-1.88069">
        <ele>63</ele>
        <time>2016-04-24T09:04:04Z</time>
      </trkpt>
      <trkpt lat="47.40666" lon="-1.88076">
        <ele>63</ele>
        <time>2016-04-24T09:04:05Z</time>
      </trkpt>
      <trkpt lat="47.40665" lon="-1.88083">
        <ele>63</ele>
        <time>2016-04-24T09:04:06Z</time>
      </trkpt>
      <trkpt lat="47.40663" lon="-1.88092">
        <ele>63</ele>
        <time>2016-04-24T09:04:07Z</time>
      </trkpt>
      <trkpt lat="47.40661" lon="-1.88099">
        <ele>63</ele>
        <time>2016-04-24T09:04:08Z</time>
      </trkpt>
      <trkpt lat="47.40657" lon="-1.88105">
        <ele>63</ele>
        <time>2016-04-24T09:04:09Z</time>
      </trkpt>
      <trkpt lat="47.40652" lon="-1.88111">
        <ele>63</ele>
        <time>2016-04-24T09:04:10Z</time>
      </trkpt>
      <trkpt lat="47.40649" lon="-1.88119">
        <ele>63</ele>
        <time>2016-04-24T09:04:11Z</time>
      </trkpt>
      <trkpt lat="47.40647" lon="-1.88126">
        <ele>63</ele>
        <time>2016-04-24T09:04:12Z</time>
      </trkpt>
      <trkpt lat="47.40644" lon="-1.88133">
        <ele>63</ele>
        <time>2016-04-24T09:04:13Z</time>
      </trkpt>
      <trkpt lat="47.40641" lon="-1.88139">
        <ele>63</ele>
        <time>2016-04-24T09:04:14Z</time>
      </trkpt>
      <trkpt lat="47.40639" lon="-1.88147">
        <ele>63</ele>
        <time>2016-04-24T09:04:15Z</time>
      </trkpt>
      <trkpt lat="47.40637" lon="-1.88154">
        <ele>63</ele>
        <time>2016-04-24T09:04:16Z</time>
      </trkpt>
      <trkpt lat="47.40635" lon="-1.88162">
        <ele>63</ele>
        <time>2016-04-24T09:04:17Z</time>
      </trkpt>
      <trkpt lat="47.40634" lon="-1.88169">
        <ele>63</ele>
        <time>2016-04-24T09:04:18Z</time>
      </trkpt>
      <trkpt lat="47.40632" lon="-1.88176">
        <ele>63</ele>
        <time>2016-04-24T09:04:19Z</time>
      </trkpt>
      <trkpt lat="47.40631" lon="-1.88185">
        <ele>63</ele>
        <time>2016-04-24T09:04:20Z</time>
      </trkpt>
      <trkpt lat="47.4063" lon="-1.88193">
        <ele>63</ele>
        <time>2016-04-24T09:04:21Z</time>
      </trkpt>
      <trkpt lat="47.4063" lon="-1.88199">
        <ele>63</ele>
        <time>2016-04-24T09:04:22Z</time>
      </trkpt>
      <trkpt lat="47.40629" lon="-1.88207">
        <ele>63</ele>
        <time>2016-04-24T09:04:23Z</time>
      </trkpt>
      <trkpt lat="47.40629" lon="-1.88213">
        <ele>63</ele>
        <time>2016-04-24T09:04:24Z</time>
      </trkpt>
      <trkpt lat="47.40629" lon="-1.88222">
        <ele>64</ele>
        <time>2016-04-24T09:04:25Z</time>
      </trkpt>
      <trkpt lat="47.40629" lon="-1.88228">
        <ele>64</ele>
        <time>2016-04-24T09:04:26Z</time>
      </trkpt>
      <trkpt lat="47.4063" lon="-1.88235">
        <ele>64</ele>
        <time>2016-04-24T09:04:27Z</time>
      </trkpt>
      <trkpt lat="47.40634" lon="-1.88242">
        <ele>64</ele>
        <time>2016-04-24T09:04:28Z</time>
      </trkpt>
      <trkpt lat="47.40631" lon="-1.88252">
        <ele>64</ele>
        <time>2016-04-24T09:04:29Z</time>
      </trkpt>
      <trkpt lat="47.4063" lon="-1.88258">
        <ele>64</ele>
        <time>2016-04-24T09:04:30Z</time>
      </trkpt>
      <trkpt lat="47.40631" lon="-1.88268">
        <ele>64</ele>
        <time>2016-04-24T09:04:31Z</time>
      </trkpt>
      <trkpt lat="47.40631" lon="-1.88275">
        <ele>64</ele>
        <time>2016-04-24T09:04:32Z</time>
      </trkpt>
      <trkpt lat="47.40622" lon="-1.88287">
        <ele>64</ele>
        <time>2016-04-24T09:04:33Z</time>
      </trkpt>
      <trkpt lat="47.40624" lon="-1.88292">
        <ele>64</ele>
        <time>2016-04-24T09:04:34Z</time>
      </trkpt>
      <trkpt lat="47.40628" lon="-1.88297">
        <ele>64</ele>
        <time>2016-04-24T09:04:35Z</time>
      </trkpt>
      <trkpt lat="47.40629" lon="-1.88305">
        <ele>64</ele>
        <time>2016-04-24T09:04:36Z</time>
      </trkpt>
      <trkpt lat="47.40627" lon="-1.88313">
        <ele>64</ele>
        <time>2016-04-24T09:04:37Z</time>
      </trkpt>
      <trkpt lat="47.40627" lon="-1.88322">
        <ele>64</ele>
        <time>2016-04-24T09:04:38Z</time>
      </trkpt>
      <trkpt lat="47.40628" lon="-1.8833">
        <ele>64</ele>
        <time>2016-04-24T09:04:39Z</time>
      </trkpt>
      <trkpt lat="47.40629" lon="-1.88339">
        <ele>63</ele>
        <time>2016-04-24T09:04:40Z</time>
      </trkpt>
      <trkpt lat="47.40629" lon="-1.88347">
        <ele>63</ele>
        <time>2016-04-24T09:04:41Z</time>
      </trkpt>
      <trkpt lat="47.40629" lon="-1.88355">
        <ele>63</ele>
        <time>2016-04-24T09:04:42Z</time>
      </trkpt>
      <trkpt lat="47.4063" lon="-1.88362">
        <ele>63</ele>
        <time>2016-04-24T09:04:43Z</time>
      </trkpt>
      <trkpt lat="47.40628" lon="-1.8837">
        <ele>63</ele>
        <time>2016-04-24T09:04:44Z</time>
      </trkpt>
      <trkpt lat="47.40626" lon="-1.88377">
        <ele>63</ele>
        <time>2016-04-24T09:04:45Z</time>
      </trkpt>
      <trkpt lat="47.40625" lon="-1.88385">
        <ele>63</ele>
        <time>2016-04-24T09:04:46Z</time>
      </trkpt>
      <trkpt lat="47.40626" lon="-1.88393">
        <ele>63</ele>
        <time>2016-04-24T09:04:47Z</time>
      </trkpt>
      <trkpt lat="47.40622" lon="-1.88402">
        <ele>63</ele>
        <time>2016-04-24T09:04:48Z</time>
      </trkpt>
      <trkpt lat="47.40621" lon="-1.88412">
        <ele>63</ele>
        <time>2016-04-24T09:04:49Z</time>
      </trkpt>
      <trkpt lat="47.40618" lon="-1.88422">
        <ele>63</ele>
        <time>2016-04-24T09:04:50Z</time>
      </trkpt>
      <trkpt lat="47.40618" lon="-1.88431">
        <ele>63</ele>
        <time>2016-04-24T09:04:51Z</time>
      </trkpt>
      <trkpt lat="47.40619" lon="-1.88438">
        <ele>63</ele>
        <time>2016-04-24T09:04:52Z</time>
      </trkpt>
      <trkpt lat="47.40616" lon="-1.88447">
        <ele>63</ele>
        <time>2016-04-24T09:04:53Z</time>
      </trkpt>
      <trkpt lat="47.40613" lon="-1.88453">
        <ele>63</ele>
        <time>2016-04-24T09:04:54Z</time>
      </trkpt>
      <trkpt lat="47.40609" lon="-1.88459">
        <ele>63</ele>
        <time>2016-04-24T09:04:55Z</time>
      </trkpt>
      <trkpt lat="47.40609" lon="-1.88467">
        <ele>63</ele>
        <time>2016-04-24T09:04:56Z</time>
      </trkpt>
      <trkpt lat="47.40608" lon="-1.88475">
        <ele>63</ele>
        <time>2016-04-24T09:04:57Z</time>
      </trkpt>
      <trkpt lat="47.40607" lon="-1.88484">
        <ele>64</ele>
        <time>2016-04-24T09:04:58Z</time>
      </trkpt>
      <trkpt lat="47.40605" lon="-1.88495">
        <ele>64</ele>
        <time>2016-04-24T09:04:59Z</time>
      </trkpt>
      <trkpt lat="47.40605" lon="-1.88503">
        <ele>64</ele>
        <time>2016-04-24T09:05:00Z</time>
      </trkpt>
      <trkpt lat="47.40603" lon="-1.88508">
        <ele>64</ele>
        <time>2016-04-24T09:05:01Z</time>
      </trkpt>
      <trkpt lat="47.40602" lon="-1.88517">
        <ele>64</ele>
        <time>2016-04-24T09:05:02Z</time>
      </trkpt>
      <trkpt lat="47.406" lon="-1.88525">
        <ele>64</ele>
        <time>2016-04-24T09:05:03Z</time>
      </trkpt>
      <trkpt lat="47.40598" lon="-1.88532">
        <ele>63</ele>
        <time>2016-04-24T09:05:04Z</time>
      </trkpt>
      <trkpt lat="47.40598" lon="-1.8854">
        <ele>63</ele>
        <time>2016-04-24T09:05:05Z</time>
      </trkpt>
      <trkpt lat="47.40598" lon="-1.88546">
        <ele>63</ele>
        <time>2016-04-24T09:05:06Z</time>
      </trkpt>
      <trkpt lat="47.40598" lon="-1.88552">
        <ele>63</ele>
        <time>2016-04-24T09:05:07Z</time>
      </trkpt>
      <trkpt lat="47.40598" lon="-1.8856">
        <ele>64</ele>
        <time>2016-04-24T09:05:08Z</time>
      </trkpt>
      <trkpt lat="47.40596" lon="-1.88567">
        <ele>64</ele>
        <time>2016-04-24T09:05:09Z</time>
      </trkpt>
      <trkpt lat="47.40593" lon="-1.88576">
        <ele>64</ele>
        <time>2016-04-24T09:05:10Z</time>
      </trkpt>
      <trkpt lat="47.40592" lon="-1.88585">
        <ele>64</ele>
        <time>2016-04-24T09:05:11Z</time>
      </trkpt>
      <trkpt lat="47.4059" lon="-1.88596">
        <ele>64</ele>
        <time>2016-04-24T09:05:12Z</time>
      </trkpt>
      <trkpt lat="47.40589" lon="-1.88606">
        <ele>63</ele>
        <time>2016-04-24T09:05:13Z</time>
      </trkpt>
      <trkpt lat="47.40589" lon="-1.88614">
        <ele>63</ele>
        <time>2016-04-24T09:05:14Z</time>
      </trkpt>
      <trkpt lat="47.40588" lon="-1.88621">
        <ele>63</ele>
        <time>2016-04-24T09:05:15Z</time>
      </trkpt>
      <trkpt lat="47.40586" lon="-1.88628">
        <ele>63</ele>
        <time>2016-04-24T09:05:16Z</time>
      </trkpt>
      <trkpt lat="47.40585" lon="-1.88636">
        <ele>63</ele>
        <time>2016-04-24T09:05:17Z</time>
      </trkpt>
      <trkpt lat="47.40583" lon="-1.88643">
        <ele>64</ele>
        <time>2016-04-24T09:05:18Z</time>
      </trkpt>
      <trkpt lat="47.40583" lon="-1.8865">
        <ele>64</ele>
        <time>2016-04-24T09:05:19Z</time>
      </trkpt>
      <trkpt lat="47.40581" lon="-1.88655">
        <ele>64</ele>
        <time>2016-04-24T09:05:20Z</time>
      </trkpt>
      <trkpt lat="47.40582" lon="-1.88661">
        <ele>64</ele>
        <time>2016-04-24T09:05:21Z</time>
      </trkpt>
      <trkpt lat="47.40582" lon="-1.88666">
        <ele>64</ele>
        <time>2016-04-24T09:05:22Z</time>
      </trkpt>
      <trkpt lat="47.40582" lon="-1.88671">
        <ele>64</ele>
        <time>2016-04-24T09:05:24Z</time>
      </trkpt>
      <trkpt lat="47.4058" lon="-1.88674">
        <ele>64</ele>
        <time>2016-04-24T09:05:25Z</time>
      </trkpt>
      <trkpt lat="47.40579" lon="-1.88679">
        <ele>64</ele>
        <time>2016-04-24T09:05:27Z</time>
      </trkpt>
      <trkpt lat="47.4058" lon="-1.88683">
        <ele>64</ele>
        <time>2016-04-24T09:05:35Z</time>
      </trkpt>
      <trkpt lat="47.4058" lon="-1.88689">
        <ele>64</ele>
        <time>2016-04-24T09:06:44Z</time>
      </trkpt>
      <trkpt lat="47.40582" lon="-1.88695">
        <ele>64</ele>
        <time>2016-04-24T09:06:46Z</time>
      </trkpt>
      <trkpt lat="47.40581" lon="-1.88702">
        <ele>64</ele>
        <time>2016-04-24T09:06:48Z</time>
      </trkpt>
      <trkpt lat="47.40579" lon="-1.88705">
        <ele>64</ele>
        <time>2016-04-24T09:06:50Z</time>
      </trkpt>
      <trkpt lat="47.40578" lon="-1.88702">
        <ele>64</ele>
        <time>2016-04-24T09:06:57Z</time>
      </trkpt>
      <trkpt lat="47.40577" lon="-1.88697">
        <ele>64</ele>
        <time>2016-04-24T09:07:00Z</time>
      </trkpt>
      <trkpt lat="47.40574" lon="-1.88695">
        <ele>64</ele>
        <time>2016-04-24T09:07:02Z</time>
      </trkpt>
      <trkpt lat="47.40569" lon="-1.88695">
        <ele>64</ele>
        <time>2016-04-24T09:07:04Z</time>
      </trkpt>
      <trkpt lat="47.40567" lon="-1.88695">
        <ele>64</ele>
        <time>2016-04-24T09:07:05Z</time>
      </trkpt>
      <trkpt lat="47.40562" lon="-1.88693">
        <ele>64</ele>
        <time>2016-04-24T09:07:07Z</time>
      </trkpt>
      <trkpt lat="47.40557" lon="-1.8869">
        <ele>64</ele>
        <time>2016-04-24T09:07:09Z</time>
      </trkpt>
      <trkpt lat="47.40554" lon="-1.88689">
        <ele>64</ele>
        <time>2016-04-24T09:07:10Z</time>
      </trkpt>
      <trkpt lat="47.40552" lon="-1.88688">
        <ele>64</ele>
        <time>2016-04-24T09:07:11Z</time>
      </trkpt>
      <trkpt lat="47.40549" lon="-1.88687">
        <ele>64</ele>
        <time>2016-04-24T09:07:12Z</time>
      </trkpt>
      <trkpt lat="47.40546" lon="-1.88686">
        <ele>64</ele>
        <time>2016-04-24T09:07:13Z</time>
      </trkpt>
      <trkpt lat="47.40543" lon="-1.88685">
        <ele>64</ele>
        <time>2016-04-24T09:07:14Z</time>
      </trkpt>
      <trkpt lat="47.4054" lon="-1.88683">
        <ele>64</ele>
        <time>2016-04-24T09:07:15Z</time>
      </trkpt>
      <trkpt lat="47.40538" lon="-1.88682">
        <ele>64</ele>
        <time>2016-04-24T09:07:16Z</time>
      </trkpt>
      <trkpt lat="47.40535" lon="-1.88681">
        <ele>64</ele>
        <time>2016-04-24T09:07:17Z</time>
      </trkpt>
      <trkpt lat="47.4053" lon="-1.88679">
        <ele>64</ele>
        <time>2016-04-24T09:07:19Z</time>
      </trkpt>
      <trkpt lat="47.40525" lon="-1.88677">
        <ele>64</ele>
        <time>2016-04-24T09:07:21Z</time>
      </trkpt>
      <trkpt lat="47.40522" lon="-1.88675">
        <ele>65</ele>
        <time>2016-04-24T09:07:23Z</time>
      </trkpt>
      <trkpt lat="47.40516" lon="-1.88675">
        <ele>65</ele>
        <time>2016-04-24T09:07:26Z</time>
      </trkpt>
      <trkpt lat="47.40515" lon="-1.88673">
        <ele>65</ele>
        <time>2016-04-24T09:07:30Z</time>
      </trkpt>
      <trkpt lat="47.40513" lon="-1.88672">
        <ele>65</ele>
        <time>2016-04-24T09:08:09Z</time>
      </trkpt>
      <trkpt lat="47.40511" lon="-1.88671">
        <ele>65</ele>
        <time>2016-04-24T09:08:10Z</time>
      </trkpt>
      <trkpt lat="47.40505" lon="-1.88667">
        <ele>65</ele>
        <time>2016-04-24T09:08:11Z</time>
      </trkpt>
      <trkpt lat="47.40501" lon="-1.88664">
        <ele>65</ele>
        <time>2016-04-24T09:08:12Z</time>
      </trkpt>
      <trkpt lat="47.40497" lon="-1.88662">
        <ele>65</ele>
        <time>2016-04-24T09:08:13Z</time>
      </trkpt>
      <trkpt lat="47.40492" lon="-1.8866">
        <ele>65</ele>
        <time>2016-04-24T09:08:14Z</time>
      </trkpt>
      <trkpt lat="47.40489" lon="-1.88658">
        <ele>65</ele>
        <time>2016-04-24T09:08:15Z</time>
      </trkpt>
      <trkpt lat="47.40484" lon="-1.88656">
        <ele>65</ele>
        <time>2016-04-24T09:08:16Z</time>
      </trkpt>
      <trkpt lat="47.4048" lon="-1.88655">
        <ele>65</ele>
        <time>2016-04-24T09:08:17Z</time>
      </trkpt>
      <trkpt lat="47.40476" lon="-1.88653">
        <ele>65</ele>
        <time>2016-04-24T09:08:18Z</time>
      </trkpt>
      <trkpt lat="47.40472" lon="-1.88651">
        <ele>65</ele>
        <time>2016-04-24T09:08:19Z</time>
      </trkpt>
      <trkpt lat="47.40467" lon="-1.88649">
        <ele>65</ele>
        <time>2016-04-24T09:08:20Z</time>
      </trkpt>
      <trkpt lat="47.40463" lon="-1.88647">
        <ele>65</ele>
        <time>2016-04-24T09:08:21Z</time>
      </trkpt>
      <trkpt lat="47.40458" lon="-1.88644">
        <ele>65</ele>
        <time>2016-04-24T09:08:22Z</time>
      </trkpt>
      <trkpt lat="47.40455" lon="-1.88642">
        <ele>65</ele>
        <time>2016-04-24T09:08:23Z</time>
      </trkpt>
      <trkpt lat="47.4045" lon="-1.8864">
        <ele>65</ele>
        <time>2016-04-24T09:08:24Z</time>
      </trkpt>
      <trkpt lat="47.40446" lon="-1.88639">
        <ele>65</ele>
        <time>2016-04-24T09:08:25Z</time>
      </trkpt>
      <trkpt lat="47.40442" lon="-1.88637">
        <ele>65</ele>
        <time>2016-04-24T09:08:26Z</time>
      </trkpt>
      <trkpt lat="47.40438" lon="-1.88635">
        <ele>65</ele>
        <time>2016-04-24T09:08:27Z</time>
      </trkpt>
      <trkpt lat="47.40433" lon="-1.88632">
        <ele>65</ele>
        <time>2016-04-24T09:08:28Z</time>
      </trkpt>
      <trkpt lat="47.40429" lon="-1.8863">
        <ele>65</ele>
        <time>2016-04-24T09:08:29Z</time>
      </trkpt>
      <trkpt lat="47.40425" lon="-1.88628">
        <ele>65</ele>
        <time>2016-04-24T09:08:30Z</time>
      </trkpt>
      <trkpt lat="47.40421" lon="-1.88625">
        <ele>65</ele>
        <time>2016-04-24T09:08:31Z</time>
      </trkpt>
      <trkpt lat="47.40413" lon="-1.88621">
        <ele>65</ele>
        <time>2016-04-24T09:08:32Z</time>
      </trkpt>
      <trkpt lat="47.40409" lon="-1.88619">
        <ele>65</ele>
        <time>2016-04-24T09:08:33Z</time>
      </trkpt>
      <trkpt lat="47.40405" lon="-1.88617">
        <ele>65</ele>
        <time>2016-04-24T09:08:34Z</time>
      </trkpt>
      <trkpt lat="47.404" lon="-1.88615">
        <ele>65</ele>
        <time>2016-04-24T09:08:35Z</time>
      </trkpt>
      <trkpt lat="47.40394" lon="-1.88612">
        <ele>65</ele>
        <time>2016-04-24T09:08:36Z</time>
      </trkpt>
      <trkpt lat="47.40387" lon="-1.88608">
        <ele>65</ele>
        <time>2016-04-24T09:08:37Z</time>
      </trkpt>
      <trkpt lat="47.40382" lon="-1.88606">
        <ele>65</ele>
        <time>2016-04-24T09:08:38Z</time>
      </trkpt>
      <trkpt lat="47.40377" lon="-1.88603">
        <ele>65</ele>
        <time>2016-04-24T09:08:39Z</time>
      </trkpt>
      <trkpt lat="47.40374" lon="-1.886">
        <ele>65</ele>
        <time>2016-04-24T09:08:40Z</time>
      </trkpt>
      <trkpt lat="47.4037" lon="-1.88598">
        <ele>65</ele>
        <time>2016-04-24T09:08:41Z</time>
      </trkpt>
      <trkpt lat="47.40367" lon="-1.88594">
        <ele>66</ele>
        <time>2016-04-24T09:08:42Z</time>
      </trkpt>
      <trkpt lat="47.40363" lon="-1.88595">
        <ele>66</ele>
        <time>2016-04-24T09:08:43Z</time>
      </trkpt>
      <trkpt lat="47.40357" lon="-1.88592">
        <ele>66</ele>
        <time>2016-04-24T09:08:44Z</time>
      </trkpt>
      <trkpt lat="47.40347" lon="-1.88589">
        <ele>66</ele>
        <time>2016-04-24T09:08:45Z</time>
      </trkpt>
      <trkpt lat="47.40339" lon="-1.88587">
        <ele>66</ele>
        <time>2016-04-24T09:08:46Z</time>
      </trkpt>
      <trkpt lat="47.40335" lon="-1.88584">
        <ele>66</ele>
        <time>2016-04-24T09:08:47Z</time>
      </trkpt>
      <trkpt lat="47.40333" lon="-1.88581">
        <ele>66</ele>
        <time>2016-04-24T09:08:48Z</time>
      </trkpt>
      <trkpt lat="47.40325" lon="-1.88577">
        <ele>66</ele>
        <time>2016-04-24T09:08:50Z</time>
      </trkpt>
      <trkpt lat="47.4032" lon="-1.88575">
        <ele>66</ele>
        <time>2016-04-24T09:08:51Z</time>
      </trkpt>
      <trkpt lat="47.40315" lon="-1.88573">
        <ele>66</ele>
        <time>2016-04-24T09:08:52Z</time>
      </trkpt>
      <trkpt lat="47.40308" lon="-1.88571">
        <ele>66</ele>
        <time>2016-04-24T09:08:53Z</time>
      </trkpt>
      <trkpt lat="47.40305" lon="-1.88569">
        <ele>66</ele>
        <time>2016-04-24T09:08:54Z</time>
      </trkpt>
      <trkpt lat="47.40299" lon="-1.88565">
        <ele>66</ele>
        <time>2016-04-24T09:08:55Z</time>
      </trkpt>
      <trkpt lat="47.40295" lon="-1.88563">
        <ele>66</ele>
        <time>2016-04-24T09:08:56Z</time>
      </trkpt>
      <trkpt lat="47.4029" lon="-1.88561">
        <ele>66</ele>
        <time>2016-04-24T09:08:57Z</time>
      </trkpt>
      <trkpt lat="47.40287" lon="-1.8856">
        <ele>66</ele>
        <time>2016-04-24T09:08:58Z</time>
      </trkpt>
      <trkpt lat="47.4028" lon="-1.88557">
        <ele>66</ele>
        <time>2016-04-24T09:08:59Z</time>
      </trkpt>
      <trkpt lat="47.40273" lon="-1.88555">
        <ele>66</ele>
        <time>2016-04-24T09:09:00Z</time>
      </trkpt>
      <trkpt lat="47.40269" lon="-1.88554">
        <ele>66</ele>
        <time>2016-04-24T09:09:01Z</time>
      </trkpt>
      <trkpt lat="47.40263" lon="-1.88551">
        <ele>66</ele>
        <time>2016-04-24T09:09:02Z</time>
      </trkpt>
      <trkpt lat="47.40256" lon="-1.88548">
        <ele>66</ele>
        <time>2016-04-24T09:09:03Z</time>
      </trkpt>
      <trkpt lat="47.40251" lon="-1.88547">
        <ele>66</ele>
        <time>2016-04-24T09:09:04Z</time>
      </trkpt>
      <trkpt lat="47.40246" lon="-1.88545">
        <ele>66</ele>
        <time>2016-04-24T09:09:05Z</time>
      </trkpt>
      <trkpt lat="47.40239" lon="-1.88543">
        <ele>66</ele>
        <time>2016-04-24T09:09:06Z</time>
      </trkpt>
      <trkpt lat="47.40231" lon="-1.88544">
        <ele>66</ele>
        <time>2016-04-24T09:09:07Z</time>
      </trkpt>
      <trkpt lat="47.40225" lon="-1.8854">
        <ele>66</ele>
        <time>2016-04-24T09:09:08Z</time>
      </trkpt>
      <trkpt lat="47.40218" lon="-1.88538">
        <ele>66</ele>
        <time>2016-04-24T09:09:09Z</time>
      </trkpt>
      <trkpt lat="47.40213" lon="-1.88534">
        <ele>66</ele>
        <time>2016-04-24T09:09:10Z</time>
      </trkpt>
      <trkpt lat="47.40209" lon="-1.8853">
        <ele>66</ele>
        <time>2016-04-24T09:09:11Z</time>
      </trkpt>
      <trkpt lat="47.40201" lon="-1.88527">
        <ele>67</ele>
        <time>2016-04-24T09:09:12Z</time>
      </trkpt>
      <trkpt lat="47.40197" lon="-1.88525">
        <ele>67</ele>
        <time>2016-04-24T09:09:13Z</time>
      </trkpt>
      <trkpt lat="47.40193" lon="-1.88524">
        <ele>67</ele>
        <time>2016-04-24T09:09:14Z</time>
      </trkpt>
      <trkpt lat="47.40186" lon="-1.88523">
        <ele>67</ele>
        <time>2016-04-24T09:09:15Z</time>
      </trkpt>
      <trkpt lat="47.4018" lon="-1.88522">
        <ele>67</ele>
        <time>2016-04-24T09:09:16Z</time>
      </trkpt>
      <trkpt lat="47.40173" lon="-1.88519">
        <ele>67</ele>
        <time>2016-04-24T09:09:17Z</time>
      </trkpt>
      <trkpt lat="47.40165" lon="-1.88516">
        <ele>67</ele>
        <time>2016-04-24T09:09:18Z</time>
      </trkpt>
      <trkpt lat="47.40158" lon="-1.88514">
        <ele>67</ele>
        <time>2016-04-24T09:09:19Z</time>
      </trkpt>
      <trkpt lat="47.40153" lon="-1.88513">
        <ele>67</ele>
        <time>2016-04-24T09:09:20Z</time>
      </trkpt>
      <trkpt lat="47.40145" lon="-1.88508">
        <ele>67</ele>
        <time>2016-04-24T09:09:21Z</time>
      </trkpt>
      <trkpt lat="47.40138" lon="-1.88507">
        <ele>67</ele>
        <time>2016-04-24T09:09:22Z</time>
      </trkpt>
      <trkpt lat="47.4013" lon="-1.88504">
        <ele>67</ele>
        <time>2016-04-24T09:09:23Z</time>
      </trkpt>
      <trkpt lat="47.40126" lon="-1.88502">
        <ele>67</ele>
        <time>2016-04-24T09:09:24Z</time>
      </trkpt>
      <trkpt lat="47.40119" lon="-1.88499">
        <ele>67</ele>
        <time>2016-04-24T09:09:25Z</time>
      </trkpt>
      <trkpt lat="47.40115" lon="-1.88495">
        <ele>67</ele>
        <time>2016-04-24T09:09:26Z</time>
      </trkpt>
      <trkpt lat="47.40107" lon="-1.88492">
        <ele>67</ele>
        <time>2016-04-24T09:09:27Z</time>
      </trkpt>
      <trkpt lat="47.401" lon="-1.88488">
        <ele>67</ele>
        <time>2016-04-24T09:09:28Z</time>
      </trkpt>
      <trkpt lat="47.40094" lon="-1.88484">
        <ele>67</ele>
        <time>2016-04-24T09:09:29Z</time>
      </trkpt>
      <trkpt lat="47.40089" lon="-1.88482">
        <ele>67</ele>
        <time>2016-04-24T09:09:30Z</time>
      </trkpt>
      <trkpt lat="47.40078" lon="-1.88476">
        <ele>66</ele>
        <time>2016-04-24T09:09:31Z</time>
      </trkpt>
      <trkpt lat="47.4007" lon="-1.88472">
        <ele>66</ele>
        <time>2016-04-24T09:09:32Z</time>
      </trkpt>
      <trkpt lat="47.40063" lon="-1.8847">
        <ele>66</ele>
        <time>2016-04-24T09:09:33Z</time>
      </trkpt>
      <trkpt lat="47.40059" lon="-1.88469">
        <ele>66</ele>
        <time>2016-04-24T09:09:34Z</time>
      </trkpt>
      <trkpt lat="47.40055" lon="-1.88467">
        <ele>66</ele>
        <time>2016-04-24T09:09:35Z</time>
      </trkpt>
      <trkpt lat="47.40052" lon="-1.88463">
        <ele>66</ele>
        <time>2016-04-24T09:09:36Z</time>
      </trkpt>
      <trkpt lat="47.40044" lon="-1.8846">
        <ele>66</ele>
        <time>2016-04-24T09:09:37Z</time>
      </trkpt>
      <trkpt lat="47.40036" lon="-1.88458">
        <ele>66</ele>
        <time>2016-04-24T09:09:38Z</time>
      </trkpt>
      <trkpt lat="47.40031" lon="-1.88456">
        <ele>66</ele>
        <time>2016-04-24T09:09:39Z</time>
      </trkpt>
      <trkpt lat="47.40024" lon="-1.88453">
        <ele>66</ele>
        <time>2016-04-24T09:09:40Z</time>
      </trkpt>
      <trkpt lat="47.4002" lon="-1.88451">
        <ele>66</ele>
        <time>2016-04-24T09:09:41Z</time>
      </trkpt>
      <trkpt lat="47.40013" lon="-1.88448">
        <ele>66</ele>
        <time>2016-04-24T09:09:42Z</time>
      </trkpt>
      <trkpt lat="47.40007" lon="-1.88445">
        <ele>66</ele>
        <time>2016-04-24T09:09:43Z</time>
      </trkpt>
      <trkpt lat="47.40002" lon="-1.88444">
        <ele>66</ele>
        <time>2016-04-24T09:09:44Z</time>
      </trkpt>
      <trkpt lat="47.39998" lon="-1.8844">
        <ele>65</ele>
        <time>2016-04-24T09:09:45Z</time>
      </trkpt>
      <trkpt lat="47.39993" lon="-1.88438">
        <ele>65</ele>
        <time>2016-04-24T09:09:46Z</time>
      </trkpt>
      <trkpt lat="47.39985" lon="-1.88438">
        <ele>65</ele>
        <time>2016-04-24T09:09:47Z</time>
      </trkpt>
      <trkpt lat="47.39981" lon="-1.88435">
        <ele>65</ele>
        <time>2016-04-24T09:09:48Z</time>
      </trkpt>
      <trkpt lat="47.39975" lon="-1.88431">
        <ele>65</ele>
        <time>2016-04-24T09:09:49Z</time>
      </trkpt>
      <trkpt lat="47.3997" lon="-1.88428">
        <ele>65</ele>
        <time>2016-04-24T09:09:50Z</time>
      </trkpt>
      <trkpt lat="47.39964" lon="-1.88427">
        <ele>65</ele>
        <time>2016-04-24T09:09:51Z</time>
      </trkpt>
      <trkpt lat="47.39958" lon="-1.88423">
        <ele>66</ele>
        <time>2016-04-24T09:09:52Z</time>
      </trkpt>
      <trkpt lat="47.39952" lon="-1.8842">
        <ele>66</ele>
        <time>2016-04-24T09:09:53Z</time>
      </trkpt>
      <trkpt lat="47.39948" lon="-1.88418">
        <ele>66</ele>
        <time>2016-04-24T09:09:54Z</time>
      </trkpt>
      <trkpt lat="47.39942" lon="-1.88415">
        <ele>66</ele>
        <time>2016-04-24T09:09:55Z</time>
      </trkpt>
      <trkpt lat="47.39935" lon="-1.88411">
        <ele>66</ele>
        <time>2016-04-24T09:09:56Z</time>
      </trkpt>
      <trkpt lat="47.3993" lon="-1.88409">
        <ele>66</ele>
        <time>2016-04-24T09:09:57Z</time>
      </trkpt>
      <trkpt lat="47.39925" lon="-1.88405">
        <ele>66</ele>
        <time>2016-04-24T09:09:58Z</time>
      </trkpt>
      <trkpt lat="47.39919" lon="-1.88404">
        <ele>66</ele>
        <time>2016-04-24T09:09:59Z</time>
      </trkpt>
      <trkpt lat="47.39914" lon="-1.88401">
        <ele>66</ele>
        <time>2016-04-24T09:10:00Z</time>
      </trkpt>
      <trkpt lat="47.39907" lon="-1.88399">
        <ele>66</ele>
        <time>2016-04-24T09:10:01Z</time>
      </trkpt>
      <trkpt lat="47.39901" lon="-1.88396">
        <ele>66</ele>
        <time>2016-04-24T09:10:02Z</time>
      </trkpt>
      <trkpt lat="47.39895" lon="-1.88393">
        <ele>66</ele>
        <time>2016-04-24T09:10:03Z</time>
      </trkpt>
      <trkpt lat="47.39888" lon="-1.8839">
        <ele>66</ele>
        <time>2016-04-24T09:10:04Z</time>
      </trkpt>
      <trkpt lat="47.39881" lon="-1.88387">
        <ele>66</ele>
        <time>2016-04-24T09:10:05Z</time>
      </trkpt>
      <trkpt lat="47.39875" lon="-1.88386">
        <ele>66</ele>
        <time>2016-04-24T09:10:06Z</time>
      </trkpt>
      <trkpt lat="47.39869" lon="-1.88382">
        <ele>66</ele>
        <time>2016-04-24T09:10:07Z</time>
      </trkpt>
      <trkpt lat="47.39862" lon="-1.88379">
        <ele>66</ele>
        <time>2016-04-24T09:10:08Z</time>
      </trkpt>
      <trkpt lat="47.39857" lon="-1.88376">
        <ele>66</ele>
        <time>2016-04-24T09:10:09Z</time>
      </trkpt>
      <trkpt lat="47.39851" lon="-1.88374">
        <ele>66</ele>
        <time>2016-04-24T09:10:10Z</time>
      </trkpt>
      <trkpt lat="47.39846" lon="-1.88372">
        <ele>66</ele>
        <time>2016-04-24T09:10:11Z</time>
      </trkpt>
      <trkpt lat="47.3984" lon="-1.88369">
        <ele>66</ele>
        <time>2016-04-24T09:10:12Z</time>
      </trkpt>
      <trkpt lat="47.39834" lon="-1.88365">
        <ele>66</ele>
        <time>2016-04-24T09:10:13Z</time>
      </trkpt>
      <trkpt lat="47.39828" lon="-1.88363">
        <ele>66</ele>
        <time>2016-04-24T09:10:14Z</time>
      </trkpt>
      <trkpt lat="47.39823" lon="-1.88361">
        <ele>66</ele>
        <time>2016-04-24T09:10:15Z</time>
      </trkpt>
      <trkpt lat="47.39818" lon="-1.88362">
        <ele>66</ele>
        <time>2016-04-24T09:10:16Z</time>
      </trkpt>
      <trkpt lat="47.39813" lon="-1.88367">
        <ele>66</ele>
        <time>2016-04-24T09:10:17Z</time>
      </trkpt>
      <trkpt lat="47.39808" lon="-1.88372">
        <ele>66</ele>
        <time>2016-04-24T09:10:18Z</time>
      </trkpt>
      <trkpt lat="47.39806" lon="-1.8838">
        <ele>66</ele>
        <time>2016-04-24T09:10:19Z</time>
      </trkpt>
      <trkpt lat="47.39804" lon="-1.88388">
        <ele>66</ele>
        <time>2016-04-24T09:10:20Z</time>
      </trkpt>
      <trkpt lat="47.39803" lon="-1.88397">
        <ele>66</ele>
        <time>2016-04-24T09:10:21Z</time>
      </trkpt>
      <trkpt lat="47.39803" lon="-1.88404">
        <ele>66</ele>
        <time>2016-04-24T09:10:22Z</time>
      </trkpt>
      <trkpt lat="47.39802" lon="-1.88413">
        <ele>66</ele>
        <time>2016-04-24T09:10:23Z</time>
      </trkpt>
      <trkpt lat="47.39801" lon="-1.88422">
        <ele>66</ele>
        <time>2016-04-24T09:10:24Z</time>
      </trkpt>
      <trkpt lat="47.39799" lon="-1.88428">
        <ele>66</ele>
        <time>2016-04-24T09:10:25Z</time>
      </trkpt>
      <trkpt lat="47.39797" lon="-1.88438">
        <ele>66</ele>
        <time>2016-04-24T09:10:26Z</time>
      </trkpt>
      <trkpt lat="47.39796" lon="-1.88446">
        <ele>66</ele>
        <time>2016-04-24T09:10:27Z</time>
      </trkpt>
      <trkpt lat="47.39794" lon="-1.88454">
        <ele>66</ele>
        <time>2016-04-24T09:10:28Z</time>
      </trkpt>
      <trkpt lat="47.39792" lon="-1.88462">
        <ele>66</ele>
        <time>2016-04-24T09:10:29Z</time>
      </trkpt>
      <trkpt lat="47.3979" lon="-1.88471">
        <ele>66</ele>
        <time>2016-04-24T09:10:30Z</time>
      </trkpt>
      <trkpt lat="47.39786" lon="-1.88478">
        <ele>66</ele>
        <time>2016-04-24T09:10:31Z</time>
      </trkpt>
      <trkpt lat="47.39781" lon="-1.88487">
        <ele>66</ele>
        <time>2016-04-24T09:10:32Z</time>
      </trkpt>
      <trkpt lat="47.39777" lon="-1.88493">
        <ele>66</ele>
        <time>2016-04-24T09:10:33Z</time>
      </trkpt>
      <trkpt lat="47.39772" lon="-1.885">
        <ele>67</ele>
        <time>2016-04-24T09:10:34Z</time>
      </trkpt>
      <trkpt lat="47.39765" lon="-1.88506">
        <ele>67</ele>
        <time>2016-04-24T09:10:35Z</time>
      </trkpt>
      <trkpt lat="47.3976" lon="-1.88512">
        <ele>67</ele>
        <time>2016-04-24T09:10:36Z</time>
      </trkpt>
      <trkpt lat="47.39755" lon="-1.88519">
        <ele>67</ele>
        <time>2016-04-24T09:10:37Z</time>
      </trkpt>
      <trkpt lat="47.3975" lon="-1.88524">
        <ele>67</ele>
        <time>2016-04-24T09:10:38Z</time>
      </trkpt>
      <trkpt lat="47.39744" lon="-1.8853">
        <ele>67</ele>
        <time>2016-04-24T09:10:39Z</time>
      </trkpt>
      <trkpt lat="47.39739" lon="-1.88535">
        <ele>67</ele>
        <time>2016-04-24T09:10:40Z</time>
      </trkpt>
      <trkpt lat="47.39734" lon="-1.8854">
        <ele>67</ele>
        <time>2016-04-24T09:10:41Z</time>
      </trkpt>
      <trkpt lat="47.39728" lon="-1.88544">
        <ele>67</ele>
        <time>2016-04-24T09:10:42Z</time>
      </trkpt>
      <trkpt lat="47.39723" lon="-1.88549">
        <ele>67</ele>
        <time>2016-04-24T09:10:43Z</time>
      </trkpt>
      <trkpt lat="47.39717" lon="-1.88554">
        <ele>67</ele>
        <time>2016-04-24T09:10:44Z</time>
      </trkpt>
      <trkpt lat="47.39712" lon="-1.88559">
        <ele>67</ele>
        <time>2016-04-24T09:10:45Z</time>
      </trkpt>
      <trkpt lat="47.39706" lon="-1.88563">
        <ele>67</ele>
        <time>2016-04-24T09:10:46Z</time>
      </trkpt>
      <trkpt lat="47.39701" lon="-1.88568">
        <ele>67</ele>
        <time>2016-04-24T09:10:47Z</time>
      </trkpt>
      <trkpt lat="47.39693" lon="-1.88571">
        <ele>67</ele>
        <time>2016-04-24T09:10:48Z</time>
      </trkpt>
      <trkpt lat="47.39689" lon="-1.88576">
        <ele>68</ele>
        <time>2016-04-24T09:10:49Z</time>
      </trkpt>
      <trkpt lat="47.39683" lon="-1.8858">
        <ele>68</ele>
        <time>2016-04-24T09:10:50Z</time>
      </trkpt>
      <trkpt lat="47.39678" lon="-1.88585">
        <ele>68</ele>
        <time>2016-04-24T09:10:51Z</time>
      </trkpt>
      <trkpt lat="47.39663" lon="-1.88591">
        <ele>68</ele>
        <time>2016-04-24T09:10:52Z</time>
      </trkpt>
      <trkpt lat="47.39658" lon="-1.88596">
        <ele>67</ele>
        <time>2016-04-24T09:10:53Z</time>
      </trkpt>
      <trkpt lat="47.39653" lon="-1.88602">
        <ele>67</ele>
        <time>2016-04-24T09:10:54Z</time>
      </trkpt>
      <trkpt lat="47.39648" lon="-1.88609">
        <ele>67</ele>
        <time>2016-04-24T09:10:55Z</time>
      </trkpt>
      <trkpt lat="47.39644" lon="-1.88615">
        <ele>67</ele>
        <time>2016-04-24T09:10:56Z</time>
      </trkpt>
      <trkpt lat="47.3964" lon="-1.88623">
        <ele>67</ele>
        <time>2016-04-24T09:10:57Z</time>
      </trkpt>
      <trkpt lat="47.39636" lon="-1.8863">
        <ele>67</ele>
        <time>2016-04-24T09:10:58Z</time>
      </trkpt>
      <trkpt lat="47.39634" lon="-1.88638">
        <ele>67</ele>
        <time>2016-04-24T09:10:59Z</time>
      </trkpt>
      <trkpt lat="47.3963" lon="-1.88645">
        <ele>67</ele>
        <time>2016-04-24T09:11:00Z</time>
      </trkpt>
      <trkpt lat="47.39627" lon="-1.88652">
        <ele>67</ele>
        <time>2016-04-24T09:11:01Z</time>
      </trkpt>
      <trkpt lat="47.39624" lon="-1.8866">
        <ele>66</ele>
        <time>2016-04-24T09:11:02Z</time>
      </trkpt>
      <trkpt lat="47.39621" lon="-1.88667">
        <ele>66</ele>
        <time>2016-04-24T09:11:03Z</time>
      </trkpt>
      <trkpt lat="47.39619" lon="-1.88673">
        <ele>66</ele>
        <time>2016-04-24T09:11:04Z</time>
      </trkpt>
      <trkpt lat="47.39617" lon="-1.88683">
        <ele>66</ele>
        <time>2016-04-24T09:11:05Z</time>
      </trkpt>
      <trkpt lat="47.39615" lon="-1.8869">
        <ele>66</ele>
        <time>2016-04-24T09:11:06Z</time>
      </trkpt>
      <trkpt lat="47.39613" lon="-1.88697">
        <ele>66</ele>
        <time>2016-04-24T09:11:07Z</time>
      </trkpt>
      <trkpt lat="47.39612" lon="-1.88705">
        <ele>67</ele>
        <time>2016-04-24T09:11:08Z</time>
      </trkpt>
      <trkpt lat="47.39611" lon="-1.88714">
        <ele>67</ele>
        <time>2016-04-24T09:11:09Z</time>
      </trkpt>
      <trkpt lat="47.39611" lon="-1.88724">
        <ele>67</ele>
        <time>2016-04-24T09:11:10Z</time>
      </trkpt>
      <trkpt lat="47.39609" lon="-1.88732">
        <ele>67</ele>
        <time>2016-04-24T09:11:11Z</time>
      </trkpt>
      <trkpt lat="47.39609" lon="-1.88741">
        <ele>67</ele>
        <time>2016-04-24T09:11:12Z</time>
      </trkpt>
      <trkpt lat="47.3961" lon="-1.88748">
        <ele>67</ele>
        <time>2016-04-24T09:11:13Z</time>
      </trkpt>
      <trkpt lat="47.39611" lon="-1.88758">
        <ele>67</ele>
        <time>2016-04-24T09:11:14Z</time>
      </trkpt>
      <trkpt lat="47.39609" lon="-1.88765">
        <ele>67</ele>
        <time>2016-04-24T09:11:15Z</time>
      </trkpt>
      <trkpt lat="47.39611" lon="-1.88772">
        <ele>67</ele>
        <time>2016-04-24T09:11:16Z</time>
      </trkpt>
      <trkpt lat="47.39611" lon="-1.88782">
        <ele>67</ele>
        <time>2016-04-24T09:11:17Z</time>
      </trkpt>
      <trkpt lat="47.39608" lon="-1.8879">
        <ele>67</ele>
        <time>2016-04-24T09:11:18Z</time>
      </trkpt>
      <trkpt lat="47.39612" lon="-1.88797">
        <ele>67</ele>
        <time>2016-04-24T09:11:19Z</time>
      </trkpt>
      <trkpt lat="47.39612" lon="-1.88805">
        <ele>67</ele>
        <time>2016-04-24T09:11:20Z</time>
      </trkpt>
      <trkpt lat="47.39612" lon="-1.88815">
        <ele>67</ele>
        <time>2016-04-24T09:11:21Z</time>
      </trkpt>
      <trkpt lat="47.39612" lon="-1.88822">
        <ele>67</ele>
        <time>2016-04-24T09:11:22Z</time>
      </trkpt>
      <trkpt lat="47.39611" lon="-1.88833">
        <ele>67</ele>
        <time>2016-04-24T09:11:23Z</time>
      </trkpt>
      <trkpt lat="47.39611" lon="-1.88843">
        <ele>67</ele>
        <time>2016-04-24T09:11:24Z</time>
      </trkpt>
      <trkpt lat="47.3961" lon="-1.88853">
        <ele>67</ele>
        <time>2016-04-24T09:11:25Z</time>
      </trkpt>
      <trkpt lat="47.39608" lon="-1.88864">
        <ele>67</ele>
        <time>2016-04-24T09:11:26Z</time>
      </trkpt>
      <trkpt lat="47.39605" lon="-1.88873">
        <ele>67</ele>
        <time>2016-04-24T09:11:27Z</time>
      </trkpt>
      <trkpt lat="47.396" lon="-1.88883">
        <ele>67</ele>
        <time>2016-04-24T09:11:28Z</time>
      </trkpt>
      <trkpt lat="47.39597" lon="-1.88892">
        <ele>67</ele>
        <time>2016-04-24T09:11:29Z</time>
      </trkpt>
      <trkpt lat="47.39593" lon="-1.889">
        <ele>67</ele>
        <time>2016-04-24T09:11:30Z</time>
      </trkpt>
      <trkpt lat="47.39589" lon="-1.88909">
        <ele>67</ele>
        <time>2016-04-24T09:11:31Z</time>
      </trkpt>
      <trkpt lat="47.39586" lon="-1.88918">
        <ele>67</ele>
        <time>2016-04-24T09:11:32Z</time>
      </trkpt>
      <trkpt lat="47.39583" lon="-1.88928">
        <ele>67</ele>
        <time>2016-04-24T09:11:33Z</time>
      </trkpt>
      <trkpt lat="47.3958" lon="-1.88936">
        <ele>67</ele>
        <time>2016-04-24T09:11:34Z</time>
      </trkpt>
      <trkpt lat="47.39578" lon="-1.88946">
        <ele>67</ele>
        <time>2016-04-24T09:11:35Z</time>
      </trkpt>
      <trkpt lat="47.39576" lon="-1.88955">
        <ele>67</ele>
        <time>2016-04-24T09:11:36Z</time>
      </trkpt>
      <trkpt lat="47.39575" lon="-1.88964">
        <ele>67</ele>
        <time>2016-04-24T09:11:37Z</time>
      </trkpt>
      <trkpt lat="47.39576" lon="-1.88973">
        <ele>67</ele>
        <time>2016-04-24T09:11:38Z</time>
      </trkpt>
      <trkpt lat="47.39576" lon="-1.88981">
        <ele>67</ele>
        <time>2016-04-24T09:11:39Z</time>
      </trkpt>
      <trkpt lat="47.39576" lon="-1.8899">
        <ele>67</ele>
        <time>2016-04-24T09:11:40Z</time>
      </trkpt>
      <trkpt lat="47.39575" lon="-1.88997">
        <ele>67</ele>
        <time>2016-04-24T09:11:41Z</time>
      </trkpt>
      <trkpt lat="47.39578" lon="-1.89003">
        <ele>67</ele>
        <time>2016-04-24T09:11:42Z</time>
      </trkpt>
      <trkpt lat="47.39578" lon="-1.89012">
        <ele>67</ele>
        <time>2016-04-24T09:11:43Z</time>
      </trkpt>
      <trkpt lat="47.39577" lon="-1.89023">
        <ele>67</ele>
        <time>2016-04-24T09:11:44Z</time>
      </trkpt>
      <trkpt lat="47.39576" lon="-1.89032">
        <ele>67</ele>
        <time>2016-04-24T09:11:45Z</time>
      </trkpt>
      <trkpt lat="47.39574" lon="-1.89042">
        <ele>67</ele>
        <time>2016-04-24T09:11:46Z</time>
      </trkpt>
      <trkpt lat="47.39573" lon="-1.89049">
        <ele>67</ele>
        <time>2016-04-24T09:11:47Z</time>
      </trkpt>
      <trkpt lat="47.39573" lon="-1.89058">
        <ele>67</ele>
        <time>2016-04-24T09:11:48Z</time>
      </trkpt>
      <trkpt lat="47.39575" lon="-1.89066">
        <ele>67</ele>
        <time>2016-04-24T09:11:49Z</time>
      </trkpt>
      <trkpt lat="47.39574" lon="-1.89075">
        <ele>67</ele>
        <time>2016-04-24T09:11:50Z</time>
      </trkpt>
      <trkpt lat="47.39573" lon="-1.89083">
        <ele>67</ele>
        <time>2016-04-24T09:11:51Z</time>
      </trkpt>
      <trkpt lat="47.39572" lon="-1.89092">
        <ele>67</ele>
        <time>2016-04-24T09:11:52Z</time>
      </trkpt>
      <trkpt lat="47.39572" lon="-1.89101">
        <ele>67</ele>
        <time>2016-04-24T09:11:53Z</time>
      </trkpt>
      <trkpt lat="47.39571" lon="-1.89111">
        <ele>67</ele>
        <time>2016-04-24T09:11:54Z</time>
      </trkpt>
      <trkpt lat="47.39571" lon="-1.89118">
        <ele>66</ele>
        <time>2016-04-24T09:11:55Z</time>
      </trkpt>
      <trkpt lat="47.39569" lon="-1.89128">
        <ele>66</ele>
        <time>2016-04-24T09:11:56Z</time>
      </trkpt>
      <trkpt lat="47.39568" lon="-1.89136">
        <ele>66</ele>
        <time>2016-04-24T09:11:57Z</time>
      </trkpt>
      <trkpt lat="47.39565" lon="-1.89146">
        <ele>66</ele>
        <time>2016-04-24T09:11:58Z</time>
      </trkpt>
      <trkpt lat="47.39561" lon="-1.89155">
        <ele>66</ele>
        <time>2016-04-24T09:11:59Z</time>
      </trkpt>
      <trkpt lat="47.39561" lon="-1.89166">
        <ele>66</ele>
        <time>2016-04-24T09:12:00Z</time>
      </trkpt>
      <trkpt lat="47.3956" lon="-1.89175">
        <ele>66</ele>
        <time>2016-04-24T09:12:01Z</time>
      </trkpt>
      <trkpt lat="47.39558" lon="-1.89185">
        <ele>66</ele>
        <time>2016-04-24T09:12:02Z</time>
      </trkpt>
      <trkpt lat="47.39557" lon="-1.89195">
        <ele>66</ele>
        <time>2016-04-24T09:12:03Z</time>
      </trkpt>
      <trkpt lat="47.39555" lon="-1.89205">
        <ele>66</ele>
        <time>2016-04-24T09:12:04Z</time>
      </trkpt>
      <trkpt lat="47.39553" lon="-1.89216">
        <ele>66</ele>
        <time>2016-04-24T09:12:05Z</time>
      </trkpt>
      <trkpt lat="47.39551" lon="-1.89226">
        <ele>66</ele>
        <time>2016-04-24T09:12:06Z</time>
      </trkpt>
      <trkpt lat="47.3955" lon="-1.89237">
        <ele>66</ele>
        <time>2016-04-24T09:12:07Z</time>
      </trkpt>
      <trkpt lat="47.39549" lon="-1.89246">
        <ele>66</ele>
        <time>2016-04-24T09:12:08Z</time>
      </trkpt>
      <trkpt lat="47.39547" lon="-1.89256">
        <ele>66</ele>
        <time>2016-04-24T09:12:09Z</time>
      </trkpt>
      <trkpt lat="47.39545" lon="-1.89265">
        <ele>66</ele>
        <time>2016-04-24T09:12:10Z</time>
      </trkpt>
      <trkpt lat="47.39543" lon="-1.89276">
        <ele>66</ele>
        <time>2016-04-24T09:12:11Z</time>
      </trkpt>
      <trkpt lat="47.39541" lon="-1.89285">
        <ele>66</ele>
        <time>2016-04-24T09:12:12Z</time>
      </trkpt>
      <trkpt lat="47.39535" lon="-1.89296">
        <ele>66</ele>
        <time>2016-04-24T09:12:13Z</time>
      </trkpt>
      <trkpt lat="47.39534" lon="-1.89304">
        <ele>66</ele>
        <time>2016-04-24T09:12:14Z</time>
      </trkpt>
      <trkpt lat="47.39531" lon="-1.89312">
        <ele>66</ele>
        <time>2016-04-24T09:12:15Z</time>
      </trkpt>
      <trkpt lat="47.39528" lon="-1.8932">
        <ele>66</ele>
        <time>2016-04-24T09:12:16Z</time>
      </trkpt>
      <trkpt lat="47.39525" lon="-1.89329">
        <ele>65</ele>
        <time>2016-04-24T09:12:17Z</time>
      </trkpt>
      <trkpt lat="47.39523" lon="-1.89339">
        <ele>65</ele>
        <time>2016-04-24T09:12:18Z</time>
      </trkpt>
      <trkpt lat="47.39521" lon="-1.89346">
        <ele>65</ele>
        <time>2016-04-24T09:12:19Z</time>
      </trkpt>
      <trkpt lat="47.39519" lon="-1.89355">
        <ele>65</ele>
        <time>2016-04-24T09:12:20Z</time>
      </trkpt>
      <trkpt lat="47.39516" lon="-1.89364">
        <ele>65</ele>
        <time>2016-04-24T09:12:21Z</time>
      </trkpt>
      <trkpt lat="47.39515" lon="-1.89372">
        <ele>65</ele>
        <time>2016-04-24T09:12:22Z</time>
      </trkpt>
      <trkpt lat="47.39514" lon="-1.89379">
        <ele>65</ele>
        <time>2016-04-24T09:12:23Z</time>
      </trkpt>
      <trkpt lat="47.39513" lon="-1.89388">
        <ele>65</ele>
        <time>2016-04-24T09:12:24Z</time>
      </trkpt>
      <trkpt lat="47.39511" lon="-1.89396">
        <ele>65</ele>
        <time>2016-04-24T09:12:25Z</time>
      </trkpt>
      <trkpt lat="47.3951" lon="-1.89405">
        <ele>65</ele>
        <time>2016-04-24T09:12:26Z</time>
      </trkpt>
      <trkpt lat="47.39508" lon="-1.89413">
        <ele>65</ele>
        <time>2016-04-24T09:12:27Z</time>
      </trkpt>
      <trkpt lat="47.39507" lon="-1.89421">
        <ele>65</ele>
        <time>2016-04-24T09:12:28Z</time>
      </trkpt>
      <trkpt lat="47.39506" lon="-1.8943">
        <ele>65</ele>
        <time>2016-04-24T09:12:29Z</time>
      </trkpt>
      <trkpt lat="47.39505" lon="-1.89438">
        <ele>65</ele>
        <time>2016-04-24T09:12:30Z</time>
      </trkpt>
      <trkpt lat="47.39504" lon="-1.89447">
        <ele>66</ele>
        <time>2016-04-24T09:12:31Z</time>
      </trkpt>
      <trkpt lat="47.39502" lon="-1.89455">
        <ele>66</ele>
        <time>2016-04-24T09:12:32Z</time>
      </trkpt>
      <trkpt lat="47.39501" lon="-1.89465">
        <ele>66</ele>
        <time>2016-04-24T09:12:33Z</time>
      </trkpt>
      <trkpt lat="47.39499" lon="-1.89473">
        <ele>66</ele>
        <time>2016-04-24T09:12:34Z</time>
      </trkpt>
      <trkpt lat="47.39498" lon="-1.89483">
        <ele>66</ele>
        <time>2016-04-24T09:12:35Z</time>
      </trkpt>
      <trkpt lat="47.39497" lon="-1.89491">
        <ele>67</ele>
        <time>2016-04-24T09:12:36Z</time>
      </trkpt>
      <trkpt lat="47.39498" lon="-1.89499">
        <ele>67</ele>
        <time>2016-04-24T09:12:37Z</time>
      </trkpt>
      <trkpt lat="47.39497" lon="-1.89509">
        <ele>67</ele>
        <time>2016-04-24T09:12:38Z</time>
      </trkpt>
      <trkpt lat="47.39496" lon="-1.89518">
        <ele>67</ele>
        <time>2016-04-24T09:12:39Z</time>
      </trkpt>
      <trkpt lat="47.39493" lon="-1.89529">
        <ele>66</ele>
        <time>2016-04-24T09:12:40Z</time>
      </trkpt>
      <trkpt lat="47.39493" lon="-1.89537">
        <ele>66</ele>
        <time>2016-04-24T09:12:41Z</time>
      </trkpt>
      <trkpt lat="47.39489" lon="-1.89546">
        <ele>66</ele>
        <time>2016-04-24T09:12:42Z</time>
      </trkpt>
      <trkpt lat="47.39489" lon="-1.89558">
        <ele>66</ele>
        <time>2016-04-24T09:12:43Z</time>
      </trkpt>
      <trkpt lat="47.39489" lon="-1.89568">
        <ele>66</ele>
        <time>2016-04-24T09:12:44Z</time>
      </trkpt>
      <trkpt lat="47.39488" lon="-1.89578">
        <ele>66</ele>
        <time>2016-04-24T09:12:45Z</time>
      </trkpt>
      <trkpt lat="47.39489" lon="-1.89588">
        <ele>66</ele>
        <time>2016-04-24T09:12:46Z</time>
      </trkpt>
      <trkpt lat="47.3949" lon="-1.89598">
        <ele>66</ele>
        <time>2016-04-24T09:12:47Z</time>
      </trkpt>
      <trkpt lat="47.39491" lon="-1.89607">
        <ele>65</ele>
        <time>2016-04-24T09:12:48Z</time>
      </trkpt>
      <trkpt lat="47.39493" lon="-1.89617">
        <ele>65</ele>
        <time>2016-04-24T09:12:49Z</time>
      </trkpt>
      <trkpt lat="47.39493" lon="-1.89627">
        <ele>65</ele>
        <time>2016-04-24T09:12:50Z</time>
      </trkpt>
      <trkpt lat="47.39493" lon="-1.89637">
        <ele>65</ele>
        <time>2016-04-24T09:12:51Z</time>
      </trkpt>
      <trkpt lat="47.39492" lon="-1.89647">
        <ele>65</ele>
        <time>2016-04-24T09:12:52Z</time>
      </trkpt>
      <trkpt lat="47.39495" lon="-1.89657">
        <ele>64</ele>
        <time>2016-04-24T09:12:53Z</time>
      </trkpt>
      <trkpt lat="47.39496" lon="-1.89666">
        <ele>64</ele>
        <time>2016-04-24T09:12:54Z</time>
      </trkpt>
      <trkpt lat="47.39496" lon="-1.89676">
        <ele>64</ele>
        <time>2016-04-24T09:12:55Z</time>
      </trkpt>
      <trkpt lat="47.39497" lon="-1.89687">
        <ele>64</ele>
        <time>2016-04-24T09:12:56Z</time>
      </trkpt>
      <trkpt lat="47.39498" lon="-1.89696">
        <ele>64</ele>
        <time>2016-04-24T09:12:57Z</time>
      </trkpt>
      <trkpt lat="47.39499" lon="-1.89706">
        <ele>64</ele>
        <time>2016-04-24T09:12:58Z</time>
      </trkpt>
      <trkpt lat="47.395" lon="-1.89717">
        <ele>64</ele>
        <time>2016-04-24T09:12:59Z</time>
      </trkpt>
      <trkpt lat="47.395" lon="-1.89727">
        <ele>64</ele>
        <time>2016-04-24T09:13:00Z</time>
      </trkpt>
      <trkpt lat="47.39501" lon="-1.89738">
        <ele>64</ele>
        <time>2016-04-24T09:13:01Z</time>
      </trkpt>
      <trkpt lat="47.39501" lon="-1.89747">
        <ele>64</ele>
        <time>2016-04-24T09:13:02Z</time>
      </trkpt>
      <trkpt lat="47.39502" lon="-1.89757">
        <ele>64</ele>
        <time>2016-04-24T09:13:03Z</time>
      </trkpt>
      <trkpt lat="47.39503" lon="-1.89767">
        <ele>64</ele>
        <time>2016-04-24T09:13:04Z</time>
      </trkpt>
      <trkpt lat="47.39506" lon="-1.89777">
        <ele>64</ele>
        <time>2016-04-24T09:13:05Z</time>
      </trkpt>
      <trkpt lat="47.39508" lon="-1.89788">
        <ele>64</ele>
        <time>2016-04-24T09:13:06Z</time>
      </trkpt>
      <trkpt lat="47.3951" lon="-1.89796">
        <ele>63</ele>
        <time>2016-04-24T09:13:07Z</time>
      </trkpt>
      <trkpt lat="47.39513" lon="-1.89806">
        <ele>63</ele>
        <time>2016-04-24T09:13:08Z</time>
      </trkpt>
      <trkpt lat="47.39516" lon="-1.89816">
        <ele>63</ele>
        <time>2016-04-24T09:13:09Z</time>
      </trkpt>
      <trkpt lat="47.39519" lon="-1.89826">
        <ele>63</ele>
        <time>2016-04-24T09:13:10Z</time>
      </trkpt>
      <trkpt lat="47.39522" lon="-1.89836">
        <ele>63</ele>
        <time>2016-04-24T09:13:11Z</time>
      </trkpt>
      <trkpt lat="47.39526" lon="-1.89845">
        <ele>63</ele>
        <time>2016-04-24T09:13:12Z</time>
      </trkpt>
      <trkpt lat="47.39528" lon="-1.89853">
        <ele>63</ele>
        <time>2016-04-24T09:13:13Z</time>
      </trkpt>
      <trkpt lat="47.39531" lon="-1.89863">
        <ele>63</ele>
        <time>2016-04-24T09:13:14Z</time>
      </trkpt>
      <trkpt lat="47.39533" lon="-1.89871">
        <ele>63</ele>
        <time>2016-04-24T09:13:15Z</time>
      </trkpt>
      <trkpt lat="47.39536" lon="-1.89881">
        <ele>63</ele>
        <time>2016-04-24T09:13:16Z</time>
      </trkpt>
      <trkpt lat="47.3954" lon="-1.8989">
        <ele>63</ele>
        <time>2016-04-24T09:13:17Z</time>
      </trkpt>
      <trkpt lat="47.39543" lon="-1.899">
        <ele>63</ele>
        <time>2016-04-24T09:13:18Z</time>
      </trkpt>
      <trkpt lat="47.39545" lon="-1.89909">
        <ele>63</ele>
        <time>2016-04-24T09:13:19Z</time>
      </trkpt>
      <trkpt lat="47.39548" lon="-1.89919">
        <ele>62</ele>
        <time>2016-04-24T09:13:20Z</time>
      </trkpt>
      <trkpt lat="47.39551" lon="-1.89928">
        <ele>62</ele>
        <time>2016-04-24T09:13:21Z</time>
      </trkpt>
      <trkpt lat="47.39554" lon="-1.89938">
        <ele>62</ele>
        <time>2016-04-24T09:13:22Z</time>
      </trkpt>
      <trkpt lat="47.39556" lon="-1.89947">
        <ele>62</ele>
        <time>2016-04-24T09:13:23Z</time>
      </trkpt>
      <trkpt lat="47.39558" lon="-1.89956">
        <ele>62</ele>
        <time>2016-04-24T09:13:24Z</time>
      </trkpt>
      <trkpt lat="47.39559" lon="-1.89965">
        <ele>63</ele>
        <time>2016-04-24T09:13:25Z</time>
      </trkpt>
      <trkpt lat="47.39557" lon="-1.89973">
        <ele>63</ele>
        <time>2016-04-24T09:13:26Z</time>
      </trkpt>
      <trkpt lat="47.39551" lon="-1.89977">
        <ele>63</ele>
        <time>2016-04-24T09:13:27Z</time>
      </trkpt>
      <trkpt lat="47.39545" lon="-1.89982">
        <ele>63</ele>
        <time>2016-04-24T09:13:28Z</time>
      </trkpt>
      <trkpt lat="47.39539" lon="-1.89984">
        <ele>62</ele>
        <time>2016-04-24T09:13:29Z</time>
      </trkpt>
      <trkpt lat="47.39533" lon="-1.89986">
        <ele>62</ele>
        <time>2016-04-24T09:13:30Z</time>
      </trkpt>
      <trkpt lat="47.39527" lon="-1.89987">
        <ele>62</ele>
        <time>2016-04-24T09:13:31Z</time>
      </trkpt>
      <trkpt lat="47.3952" lon="-1.89989">
        <ele>62</ele>
        <time>2016-04-24T09:13:32Z</time>
      </trkpt>
      <trkpt lat="47.39514" lon="-1.8999">
        <ele>62</ele>
        <time>2016-04-24T09:13:33Z</time>
      </trkpt>
      <trkpt lat="47.39508" lon="-1.89994">
        <ele>62</ele>
        <time>2016-04-24T09:13:34Z</time>
      </trkpt>
      <trkpt lat="47.39502" lon="-1.89997">
        <ele>62</ele>
        <time>2016-04-24T09:13:35Z</time>
      </trkpt>
      <trkpt lat="47.39495" lon="-1.90001">
        <ele>62</ele>
        <time>2016-04-24T09:13:36Z</time>
      </trkpt>
      <trkpt lat="47.39489" lon="-1.90005">
        <ele>62</ele>
        <time>2016-04-24T09:13:37Z</time>
      </trkpt>
      <trkpt lat="47.39483" lon="-1.90008">
        <ele>62</ele>
        <time>2016-04-24T09:13:38Z</time>
      </trkpt>
      <trkpt lat="47.39477" lon="-1.90012">
        <ele>62</ele>
        <time>2016-04-24T09:13:39Z</time>
      </trkpt>
      <trkpt lat="47.3947" lon="-1.90014">
        <ele>62</ele>
        <time>2016-04-24T09:13:40Z</time>
      </trkpt>
      <trkpt lat="47.39463" lon="-1.90016">
        <ele>62</ele>
        <time>2016-04-24T09:13:41Z</time>
      </trkpt>
      <trkpt lat="47.39458" lon="-1.90019">
        <ele>62</ele>
        <time>2016-04-24T09:13:42Z</time>
      </trkpt>
      <trkpt lat="47.3945" lon="-1.90023">
        <ele>62</ele>
        <time>2016-04-24T09:13:43Z</time>
      </trkpt>
      <trkpt lat="47.39444" lon="-1.90026">
        <ele>62</ele>
        <time>2016-04-24T09:13:44Z</time>
      </trkpt>
      <trkpt lat="47.39438" lon="-1.90028">
        <ele>62</ele>
        <time>2016-04-24T09:13:45Z</time>
      </trkpt>
      <trkpt lat="47.39431" lon="-1.90032">
        <ele>62</ele>
        <time>2016-04-24T09:13:46Z</time>
      </trkpt>
      <trkpt lat="47.39424" lon="-1.90035">
        <ele>62</ele>
        <time>2016-04-24T09:13:47Z</time>
      </trkpt>
      <trkpt lat="47.39417" lon="-1.90036">
        <ele>62</ele>
        <time>2016-04-24T09:13:48Z</time>
      </trkpt>
      <trkpt lat="47.39409" lon="-1.90039">
        <ele>62</ele>
        <time>2016-04-24T09:13:49Z</time>
      </trkpt>
      <trkpt lat="47.39402" lon="-1.90041">
        <ele>62</ele>
        <time>2016-04-24T09:13:50Z</time>
      </trkpt>
      <trkpt lat="47.39393" lon="-1.90044">
        <ele>62</ele>
        <time>2016-04-24T09:13:51Z</time>
      </trkpt>
      <trkpt lat="47.39387" lon="-1.90048">
        <ele>62</ele>
        <time>2016-04-24T09:13:52Z</time>
      </trkpt>
      <trkpt lat="47.3938" lon="-1.90051">
        <ele>62</ele>
        <time>2016-04-24T09:13:53Z</time>
      </trkpt>
      <trkpt lat="47.39374" lon="-1.90064">
        <ele>61</ele>
        <time>2016-04-24T09:13:54Z</time>
      </trkpt>
      <trkpt lat="47.3937" lon="-1.90071">
        <ele>61</ele>
        <time>2016-04-24T09:13:55Z</time>
      </trkpt>
      <trkpt lat="47.39365" lon="-1.90082">
        <ele>61</ele>
        <time>2016-04-24T09:13:56Z</time>
      </trkpt>
      <trkpt lat="47.3936" lon="-1.90093">
        <ele>60</ele>
        <time>2016-04-24T09:13:57Z</time>
      </trkpt>
      <trkpt lat="47.3936" lon="-1.90103">
        <ele>59</ele>
        <time>2016-04-24T09:13:58Z</time>
      </trkpt>
      <trkpt lat="47.39357" lon="-1.90112">
        <ele>59</ele>
        <time>2016-04-24T09:13:59Z</time>
      </trkpt>
      <trkpt lat="47.39354" lon="-1.90125">
        <ele>59</ele>
        <time>2016-04-24T09:14:00Z</time>
      </trkpt>
      <trkpt lat="47.39349" lon="-1.90136">
        <ele>59</ele>
        <time>2016-04-24T09:14:01Z</time>
      </trkpt>
      <trkpt lat="47.39344" lon="-1.90148">
        <ele>58</ele>
        <time>2016-04-24T09:14:02Z</time>
      </trkpt>
      <trkpt lat="47.39339" lon="-1.90159">
        <ele>58</ele>
        <time>2016-04-24T09:14:03Z</time>
      </trkpt>
      <trkpt lat="47.39334" lon="-1.9017">
        <ele>57</ele>
        <time>2016-04-24T09:14:04Z</time>
      </trkpt>
      <trkpt lat="47.39329" lon="-1.90182">
        <ele>57</ele>
        <time>2016-04-24T09:14:05Z</time>
      </trkpt>
      <trkpt lat="47.39323" lon="-1.90195">
        <ele>56</ele>
        <time>2016-04-24T09:14:06Z</time>
      </trkpt>
      <trkpt lat="47.39315" lon="-1.90206">
        <ele>56</ele>
        <time>2016-04-24T09:14:07Z</time>
      </trkpt>
      <trkpt lat="47.39308" lon="-1.90216">
        <ele>56</ele>
        <time>2016-04-24T09:14:08Z</time>
      </trkpt>
      <trkpt lat="47.39302" lon="-1.90227">
        <ele>56</ele>
        <time>2016-04-24T09:14:09Z</time>
      </trkpt>
      <trkpt lat="47.39295" lon="-1.90239">
        <ele>56</ele>
        <time>2016-04-24T09:14:10Z</time>
      </trkpt>
      <trkpt lat="47.39289" lon="-1.90245">
        <ele>57</ele>
        <time>2016-04-24T09:14:11Z</time>
      </trkpt>
      <trkpt lat="47.39281" lon="-1.90253">
        <ele>57</ele>
        <time>2016-04-24T09:14:12Z</time>
      </trkpt>
      <trkpt lat="47.39275" lon="-1.90258">
        <ele>57</ele>
        <time>2016-04-24T09:14:13Z</time>
      </trkpt>
      <trkpt lat="47.39268" lon="-1.90267">
        <ele>57</ele>
        <time>2016-04-24T09:14:14Z</time>
      </trkpt>
      <trkpt lat="47.39263" lon="-1.90274">
        <ele>57</ele>
        <time>2016-04-24T09:14:15Z</time>
      </trkpt>
      <trkpt lat="47.39255" lon="-1.9028">
        <ele>57</ele>
        <time>2016-04-24T09:14:16Z</time>
      </trkpt>
      <trkpt lat="47.3925" lon="-1.90285">
        <ele>59</ele>
        <time>2016-04-24T09:14:17Z</time>
      </trkpt>
      <trkpt lat="47.39243" lon="-1.90291">
        <ele>59</ele>
        <time>2016-04-24T09:14:18Z</time>
      </trkpt>
      <trkpt lat="47.39236" lon="-1.90295">
        <ele>59</ele>
        <time>2016-04-24T09:14:19Z</time>
      </trkpt>
      <trkpt lat="47.3923" lon="-1.903">
        <ele>59</ele>
        <time>2016-04-24T09:14:20Z</time>
      </trkpt>
      <trkpt lat="47.39224" lon="-1.90307">
        <ele>59</ele>
        <time>2016-04-24T09:14:21Z</time>
      </trkpt>
      <trkpt lat="47.39219" lon="-1.90311">
        <ele>59</ele>
        <time>2016-04-24T09:14:22Z</time>
      </trkpt>
      <trkpt lat="47.39213" lon="-1.90317">
        <ele>59</ele>
        <time>2016-04-24T09:14:23Z</time>
      </trkpt>
      <trkpt lat="47.39208" lon="-1.90323">
        <ele>60</ele>
        <time>2016-04-24T09:14:24Z</time>
      </trkpt>
      <trkpt lat="47.39203" lon="-1.90327">
        <ele>60</ele>
        <time>2016-04-24T09:14:25Z</time>
      </trkpt>
      <trkpt lat="47.39198" lon="-1.90333">
        <ele>60</ele>
        <time>2016-04-24T09:14:26Z</time>
      </trkpt>
      <trkpt lat="47.39193" lon="-1.90338">
        <ele>61</ele>
        <time>2016-04-24T09:14:27Z</time>
      </trkpt>
      <trkpt lat="47.39187" lon="-1.90342">
        <ele>61</ele>
        <time>2016-04-24T09:14:28Z</time>
      </trkpt>
      <trkpt lat="47.39181" lon="-1.90349">
        <ele>61</ele>
        <time>2016-04-24T09:14:29Z</time>
      </trkpt>
      <trkpt lat="47.39176" lon="-1.90354">
        <ele>61</ele>
        <time>2016-04-24T09:14:30Z</time>
      </trkpt>
      <trkpt lat="47.39174" lon="-1.90362">
        <ele>61</ele>
        <time>2016-04-24T09:14:31Z</time>
      </trkpt>
      <trkpt lat="47.3917" lon="-1.90367">
        <ele>61</ele>
        <time>2016-04-24T09:14:32Z</time>
      </trkpt>
      <trkpt lat="47.39165" lon="-1.90373">
        <ele>63</ele>
        <time>2016-04-24T09:14:33Z</time>
      </trkpt>
      <trkpt lat="47.39163" lon="-1.90377">
        <ele>63</ele>
        <time>2016-04-24T09:14:34Z</time>
      </trkpt>
      <trkpt lat="47.39159" lon="-1.90382">
        <ele>63</ele>
        <time>2016-04-24T09:14:35Z</time>
      </trkpt>
      <trkpt lat="47.39156" lon="-1.90386">
        <ele>63</ele>
        <time>2016-04-24T09:14:36Z</time>
      </trkpt>
      <trkpt lat="47.39155" lon="-1.90392">
        <ele>63</ele>
        <time>2016-04-24T09:14:37Z</time>
      </trkpt>
      <trkpt lat="47.39153" lon="-1.90396">
        <ele>63</ele>
        <time>2016-04-24T09:14:38Z</time>
      </trkpt>
      <trkpt lat="47.39151" lon="-1.90403">
        <ele>63</ele>
        <time>2016-04-24T09:14:39Z</time>
      </trkpt>
      <trkpt lat="47.39146" lon="-1.90407">
        <ele>63</ele>
        <time>2016-04-24T09:14:40Z</time>
      </trkpt>
      <trkpt lat="47.39144" lon="-1.90412">
        <ele>63</ele>
        <time>2016-04-24T09:14:41Z</time>
      </trkpt>
      <trkpt lat="47.39141" lon="-1.9042">
        <ele>63</ele>
        <time>2016-04-24T09:14:42Z</time>
      </trkpt>
      <trkpt lat="47.39139" lon="-1.90425">
        <ele>63</ele>
        <time>2016-04-24T09:14:43Z</time>
      </trkpt>
      <trkpt lat="47.39135" lon="-1.90431">
        <ele>64</ele>
        <time>2016-04-24T09:14:44Z</time>
      </trkpt>
      <trkpt lat="47.39133" lon="-1.90438">
        <ele>64</ele>
        <time>2016-04-24T09:14:45Z</time>
      </trkpt>
      <trkpt lat="47.39132" lon="-1.90445">
        <ele>64</ele>
        <time>2016-04-24T09:14:46Z</time>
      </trkpt>
      <trkpt lat="47.39131" lon="-1.90453">
        <ele>64</ele>
        <time>2016-04-24T09:14:47Z</time>
      </trkpt>
      <trkpt lat="47.39129" lon="-1.90458">
        <ele>64</ele>
        <time>2016-04-24T09:14:48Z</time>
      </trkpt>
      <trkpt lat="47.39128" lon="-1.90466">
        <ele>64</ele>
        <time>2016-04-24T09:14:49Z</time>
      </trkpt>
      <trkpt lat="47.39127" lon="-1.90474">
        <ele>64</ele>
        <time>2016-04-24T09:14:50Z</time>
      </trkpt>
      <trkpt lat="47.39127" lon="-1.90482">
        <ele>64</ele>
        <time>2016-04-24T09:14:51Z</time>
      </trkpt>
      <trkpt lat="47.39127" lon="-1.90488">
        <ele>64</ele>
        <time>2016-04-24T09:14:52Z</time>
      </trkpt>
      <trkpt lat="47.39126" lon="-1.90493">
        <ele>64</ele>
        <time>2016-04-24T09:14:53Z</time>
      </trkpt>
      <trkpt lat="47.39126" lon="-1.90499">
        <ele>64</ele>
        <time>2016-04-24T09:14:54Z</time>
      </trkpt>
      <trkpt lat="47.3912" lon="-1.90506">
        <ele>64</ele>
        <time>2016-04-24T09:14:55Z</time>
      </trkpt>
      <trkpt lat="47.39121" lon="-1.90511">
        <ele>64</ele>
        <time>2016-04-24T09:14:56Z</time>
      </trkpt>
      <trkpt lat="47.39119" lon="-1.90516">
        <ele>65</ele>
        <time>2016-04-24T09:14:57Z</time>
      </trkpt>
      <trkpt lat="47.39118" lon="-1.90521">
        <ele>65</ele>
        <time>2016-04-24T09:14:58Z</time>
      </trkpt>
      <trkpt lat="47.39113" lon="-1.90528">
        <ele>65</ele>
        <time>2016-04-24T09:14:59Z</time>
      </trkpt>
      <trkpt lat="47.39109" lon="-1.90533">
        <ele>65</ele>
        <time>2016-04-24T09:15:00Z</time>
      </trkpt>
      <trkpt lat="47.39107" lon="-1.90537">
        <ele>65</ele>
        <time>2016-04-24T09:15:01Z</time>
      </trkpt>
      <trkpt lat="47.39104" lon="-1.90542">
        <ele>65</ele>
        <time>2016-04-24T09:15:02Z</time>
      </trkpt>
      <trkpt lat="47.39101" lon="-1.90547">
        <ele>65</ele>
        <time>2016-04-24T09:15:03Z</time>
      </trkpt>
      <trkpt lat="47.39098" lon="-1.9055">
        <ele>65</ele>
        <time>2016-04-24T09:15:04Z</time>
      </trkpt>
      <trkpt lat="47.39093" lon="-1.90554">
        <ele>65</ele>
        <time>2016-04-24T09:15:05Z</time>
      </trkpt>
      <trkpt lat="47.39088" lon="-1.90557">
        <ele>65</ele>
        <time>2016-04-24T09:15:06Z</time>
      </trkpt>
      <trkpt lat="47.39085" lon="-1.90562">
        <ele>66</ele>
        <time>2016-04-24T09:15:07Z</time>
      </trkpt>
      <trkpt lat="47.3908" lon="-1.90566">
        <ele>67</ele>
        <time>2016-04-24T09:15:08Z</time>
      </trkpt>
      <trkpt lat="47.39077" lon="-1.90569">
        <ele>67</ele>
        <time>2016-04-24T09:15:09Z</time>
      </trkpt>
      <trkpt lat="47.39073" lon="-1.90574">
        <ele>67</ele>
        <time>2016-04-24T09:15:10Z</time>
      </trkpt>
      <trkpt lat="47.39069" lon="-1.90577">
        <ele>67</ele>
        <time>2016-04-24T09:15:11Z</time>
      </trkpt>
      <trkpt lat="47.39065" lon="-1.90581">
        <ele>67</ele>
        <time>2016-04-24T09:15:12Z</time>
      </trkpt>
      <trkpt lat="47.39061" lon="-1.90585">
        <ele>67</ele>
        <time>2016-04-24T09:15:13Z</time>
      </trkpt>
      <trkpt lat="47.39056" lon="-1.90589">
        <ele>67</ele>
        <time>2016-04-24T09:15:14Z</time>
      </trkpt>
      <trkpt lat="47.39053" lon="-1.90593">
        <ele>66</ele>
        <time>2016-04-24T09:15:15Z</time>
      </trkpt>
      <trkpt lat="47.39049" lon="-1.90597">
        <ele>66</ele>
        <time>2016-04-24T09:15:16Z</time>
      </trkpt>
      <trkpt lat="47.39045" lon="-1.90601">
        <ele>66</ele>
        <time>2016-04-24T09:15:17Z</time>
      </trkpt>
      <trkpt lat="47.39041" lon="-1.90605">
        <ele>66</ele>
        <time>2016-04-24T09:15:18Z</time>
      </trkpt>
      <trkpt lat="47.39038" lon="-1.9061">
        <ele>66</ele>
        <time>2016-04-24T09:15:19Z</time>
      </trkpt>
      <trkpt lat="47.39034" lon="-1.90613">
        <ele>66</ele>
        <time>2016-04-24T09:15:20Z</time>
      </trkpt>
      <trkpt lat="47.39031" lon="-1.90617">
        <ele>66</ele>
        <time>2016-04-24T09:15:21Z</time>
      </trkpt>
      <trkpt lat="47.39027" lon="-1.90622">
        <ele>66</ele>
        <time>2016-04-24T09:15:22Z</time>
      </trkpt>
      <trkpt lat="47.39024" lon="-1.90627">
        <ele>66</ele>
        <time>2016-04-24T09:15:23Z</time>
      </trkpt>
      <trkpt lat="47.3902" lon="-1.90631">
        <ele>66</ele>
        <time>2016-04-24T09:15:24Z</time>
      </trkpt>
      <trkpt lat="47.39017" lon="-1.90635">
        <ele>66</ele>
        <time>2016-04-24T09:15:25Z</time>
      </trkpt>
      <trkpt lat="47.39012" lon="-1.9064">
        <ele>66</ele>
        <time>2016-04-24T09:15:26Z</time>
      </trkpt>
      <trkpt lat="47.39009" lon="-1.90645">
        <ele>67</ele>
        <time>2016-04-24T09:15:27Z</time>
      </trkpt>
      <trkpt lat="47.39005" lon="-1.90648">
        <ele>67</ele>
        <time>2016-04-24T09:15:28Z</time>
      </trkpt>
      <trkpt lat="47.39001" lon="-1.90652">
        <ele>67</ele>
        <time>2016-04-24T09:15:29Z</time>
      </trkpt>
      <trkpt lat="47.38996" lon="-1.90651">
        <ele>67</ele>
        <time>2016-04-24T09:15:30Z</time>
      </trkpt>
      <trkpt lat="47.38991" lon="-1.90654">
        <ele>67</ele>
        <time>2016-04-24T09:15:31Z</time>
      </trkpt>
      <trkpt lat="47.38986" lon="-1.90659">
        <ele>67</ele>
        <time>2016-04-24T09:15:32Z</time>
      </trkpt>
      <trkpt lat="47.38981" lon="-1.90661">
        <ele>67</ele>
        <time>2016-04-24T09:15:33Z</time>
      </trkpt>
      <trkpt lat="47.38977" lon="-1.90663">
        <ele>67</ele>
        <time>2016-04-24T09:15:34Z</time>
      </trkpt>
      <trkpt lat="47.38973" lon="-1.90665">
        <ele>67</ele>
        <time>2016-04-24T09:15:35Z</time>
      </trkpt>
      <trkpt lat="47.38969" lon="-1.90667">
        <ele>68</ele>
        <time>2016-04-24T09:15:36Z</time>
      </trkpt>
      <trkpt lat="47.38964" lon="-1.90669">
        <ele>68</ele>
        <time>2016-04-24T09:15:37Z</time>
      </trkpt>
      <trkpt lat="47.38959" lon="-1.90669">
        <ele>68</ele>
        <time>2016-04-24T09:15:38Z</time>
      </trkpt>
      <trkpt lat="47.38953" lon="-1.90671">
        <ele>68</ele>
        <time>2016-04-24T09:15:39Z</time>
      </trkpt>
      <trkpt lat="47.38948" lon="-1.90673">
        <ele>68</ele>
        <time>2016-04-24T09:15:40Z</time>
      </trkpt>
      <trkpt lat="47.38943" lon="-1.90675">
        <ele>68</ele>
        <time>2016-04-24T09:15:41Z</time>
      </trkpt>
      <trkpt lat="47.38939" lon="-1.90678">
        <ele>68</ele>
        <time>2016-04-24T09:15:42Z</time>
      </trkpt>
      <trkpt lat="47.38933" lon="-1.90678">
        <ele>68</ele>
        <time>2016-04-24T09:15:43Z</time>
      </trkpt>
      <trkpt lat="47.38929" lon="-1.90681">
        <ele>68</ele>
        <time>2016-04-24T09:15:44Z</time>
      </trkpt>
      <trkpt lat="47.38924" lon="-1.90684">
        <ele>69</ele>
        <time>2016-04-24T09:15:45Z</time>
      </trkpt>
      <trkpt lat="47.3892" lon="-1.90684">
        <ele>69</ele>
        <time>2016-04-24T09:15:46Z</time>
      </trkpt>
      <trkpt lat="47.38916" lon="-1.90686">
        <ele>69</ele>
        <time>2016-04-24T09:15:47Z</time>
      </trkpt>
      <trkpt lat="47.38913" lon="-1.90689">
        <ele>69</ele>
        <time>2016-04-24T09:15:48Z</time>
      </trkpt>
      <trkpt lat="47.38908" lon="-1.90693">
        <ele>69</ele>
        <time>2016-04-24T09:15:50Z</time>
      </trkpt>
      <trkpt lat="47.38901" lon="-1.90697">
        <ele>69</ele>
        <time>2016-04-24T09:15:51Z</time>
      </trkpt>
      <trkpt lat="47.38896" lon="-1.90699">
        <ele>69</ele>
        <time>2016-04-24T09:15:52Z</time>
      </trkpt>
      <trkpt lat="47.38893" lon="-1.90701">
        <ele>69</ele>
        <time>2016-04-24T09:15:53Z</time>
      </trkpt>
      <trkpt lat="47.38888" lon="-1.90703">
        <ele>69</ele>
        <time>2016-04-24T09:15:54Z</time>
      </trkpt>
      <trkpt lat="47.38883" lon="-1.90705">
        <ele>69</ele>
        <time>2016-04-24T09:15:55Z</time>
      </trkpt>
      <trkpt lat="47.38879" lon="-1.90708">
        <ele>69</ele>
        <time>2016-04-24T09:15:56Z</time>
      </trkpt>
      <trkpt lat="47.38872" lon="-1.9071">
        <ele>70</ele>
        <time>2016-04-24T09:15:57Z</time>
      </trkpt>
      <trkpt lat="47.38866" lon="-1.90713">
        <ele>70</ele>
        <time>2016-04-24T09:15:58Z</time>
      </trkpt>
      <trkpt lat="47.38862" lon="-1.90714">
        <ele>70</ele>
        <time>2016-04-24T09:15:59Z</time>
      </trkpt>
      <trkpt lat="47.38857" lon="-1.90716">
        <ele>70</ele>
        <time>2016-04-24T09:16:00Z</time>
      </trkpt>
      <trkpt lat="47.38852" lon="-1.90718">
        <ele>70</ele>
        <time>2016-04-24T09:16:01Z</time>
      </trkpt>
      <trkpt lat="47.38848" lon="-1.9072">
        <ele>69</ele>
        <time>2016-04-24T09:16:02Z</time>
      </trkpt>
      <trkpt lat="47.38844" lon="-1.90723">
        <ele>69</ele>
        <time>2016-04-24T09:16:03Z</time>
      </trkpt>
      <trkpt lat="47.38839" lon="-1.90725">
        <ele>69</ele>
        <time>2016-04-24T09:16:04Z</time>
      </trkpt>
      <trkpt lat="47.38834" lon="-1.90726">
        <ele>69</ele>
        <time>2016-04-24T09:16:05Z</time>
      </trkpt>
      <trkpt lat="47.38829" lon="-1.90728">
        <ele>70</ele>
        <time>2016-04-24T09:16:06Z</time>
      </trkpt>
      <trkpt lat="47.38824" lon="-1.90731">
        <ele>70</ele>
        <time>2016-04-24T09:16:07Z</time>
      </trkpt>
      <trkpt lat="47.38818" lon="-1.90734">
        <ele>71</ele>
        <time>2016-04-24T09:16:08Z</time>
      </trkpt>
      <trkpt lat="47.38813" lon="-1.90735">
        <ele>71</ele>
        <time>2016-04-24T09:16:09Z</time>
      </trkpt>
      <trkpt lat="47.38809" lon="-1.90738">
        <ele>71</ele>
        <time>2016-04-24T09:16:10Z</time>
      </trkpt>
      <trkpt lat="47.38804" lon="-1.90741">
        <ele>71</ele>
        <time>2016-04-24T09:16:11Z</time>
      </trkpt>
      <trkpt lat="47.38799" lon="-1.90744">
        <ele>71</ele>
        <time>2016-04-24T09:16:12Z</time>
      </trkpt>
      <trkpt lat="47.38794" lon="-1.90746">
        <ele>71</ele>
        <time>2016-04-24T09:16:13Z</time>
      </trkpt>
      <trkpt lat="47.3879" lon="-1.90748">
        <ele>71</ele>
        <time>2016-04-24T09:16:14Z</time>
      </trkpt>
      <trkpt lat="47.38785" lon="-1.9075">
        <ele>71</ele>
        <time>2016-04-24T09:16:15Z</time>
      </trkpt>
      <trkpt lat="47.3878" lon="-1.90754">
        <ele>71</ele>
        <time>2016-04-24T09:16:16Z</time>
      </trkpt>
      <trkpt lat="47.38776" lon="-1.90756">
        <ele>71</ele>
        <time>2016-04-24T09:16:17Z</time>
      </trkpt>
      <trkpt lat="47.38771" lon="-1.90758">
        <ele>72</ele>
        <time>2016-04-24T09:16:18Z</time>
      </trkpt>
      <trkpt lat="47.38767" lon="-1.90758">
        <ele>72</ele>
        <time>2016-04-24T09:16:19Z</time>
      </trkpt>
      <trkpt lat="47.38762" lon="-1.90761">
        <ele>72</ele>
        <time>2016-04-24T09:16:20Z</time>
      </trkpt>
      <trkpt lat="47.38757" lon="-1.90763">
        <ele>72</ele>
        <time>2016-04-24T09:16:21Z</time>
      </trkpt>
      <trkpt lat="47.38755" lon="-1.90769">
        <ele>72</ele>
        <time>2016-04-24T09:16:22Z</time>
      </trkpt>
      <trkpt lat="47.3875" lon="-1.9077">
        <ele>73</ele>
        <time>2016-04-24T09:16:23Z</time>
      </trkpt>
      <trkpt lat="47.38745" lon="-1.90771">
        <ele>73</ele>
        <time>2016-04-24T09:16:24Z</time>
      </trkpt>
      <trkpt lat="47.38737" lon="-1.90772">
        <ele>73</ele>
        <time>2016-04-24T09:16:25Z</time>
      </trkpt>
      <trkpt lat="47.38732" lon="-1.90776">
        <ele>73</ele>
        <time>2016-04-24T09:16:26Z</time>
      </trkpt>
      <trkpt lat="47.38726" lon="-1.90779">
        <ele>73</ele>
        <time>2016-04-24T09:16:27Z</time>
      </trkpt>
      <trkpt lat="47.38723" lon="-1.90783">
        <ele>73</ele>
        <time>2016-04-24T09:16:28Z</time>
      </trkpt>
      <trkpt lat="47.38718" lon="-1.90787">
        <ele>73</ele>
        <time>2016-04-24T09:16:29Z</time>
      </trkpt>
      <trkpt lat="47.38714" lon="-1.90791">
        <ele>73</ele>
        <time>2016-04-24T09:16:30Z</time>
      </trkpt>
      <trkpt lat="47.38709" lon="-1.90794">
        <ele>73</ele>
        <time>2016-04-24T09:16:31Z</time>
      </trkpt>
      <trkpt lat="47.38704" lon="-1.90797">
        <ele>73</ele>
        <time>2016-04-24T09:16:32Z</time>
      </trkpt>
      <trkpt lat="47.387" lon="-1.90801">
        <ele>73</ele>
        <time>2016-04-24T09:16:33Z</time>
      </trkpt>
      <trkpt lat="47.38694" lon="-1.90803">
        <ele>73</ele>
        <time>2016-04-24T09:16:34Z</time>
      </trkpt>
      <trkpt lat="47.38688" lon="-1.90806">
        <ele>73</ele>
        <time>2016-04-24T09:16:35Z</time>
      </trkpt>
      <trkpt lat="47.38684" lon="-1.9081">
        <ele>73</ele>
        <time>2016-04-24T09:16:36Z</time>
      </trkpt>
      <trkpt lat="47.38679" lon="-1.90813">
        <ele>73</ele>
        <time>2016-04-24T09:16:37Z</time>
      </trkpt>
      <trkpt lat="47.38675" lon="-1.90818">
        <ele>73</ele>
        <time>2016-04-24T09:16:38Z</time>
      </trkpt>
      <trkpt lat="47.3867" lon="-1.90822">
        <ele>73</ele>
        <time>2016-04-24T09:16:39Z</time>
      </trkpt>
      <trkpt lat="47.38665" lon="-1.90824">
        <ele>73</ele>
        <time>2016-04-24T09:16:40Z</time>
      </trkpt>
      <trkpt lat="47.3866" lon="-1.90825">
        <ele>73</ele>
        <time>2016-04-24T09:16:41Z</time>
      </trkpt>
      <trkpt lat="47.38654" lon="-1.90827">
        <ele>73</ele>
        <time>2016-04-24T09:16:42Z</time>
      </trkpt>
      <trkpt lat="47.38648" lon="-1.9083">
        <ele>74</ele>
        <time>2016-04-24T09:16:43Z</time>
      </trkpt>
      <trkpt lat="47.38642" lon="-1.90833">
        <ele>74</ele>
        <time>2016-04-24T09:16:44Z</time>
      </trkpt>
      <trkpt lat="47.38638" lon="-1.90835">
        <ele>73</ele>
        <time>2016-04-24T09:16:45Z</time>
      </trkpt>
      <trkpt lat="47.38633" lon="-1.90838">
        <ele>73</ele>
        <time>2016-04-24T09:16:46Z</time>
      </trkpt>
      <trkpt lat="47.38628" lon="-1.90843">
        <ele>73</ele>
        <time>2016-04-24T09:16:47Z</time>
      </trkpt>
      <trkpt lat="47.38622" lon="-1.90846">
        <ele>74</ele>
        <time>2016-04-24T09:16:48Z</time>
      </trkpt>
      <trkpt lat="47.38617" lon="-1.9085">
        <ele>74</ele>
        <time>2016-04-24T09:16:49Z</time>
      </trkpt>
      <trkpt lat="47.38612" lon="-1.90852">
        <ele>74</ele>
        <time>2016-04-24T09:16:50Z</time>
      </trkpt>
      <trkpt lat="47.38607" lon="-1.90854">
        <ele>74</ele>
        <time>2016-04-24T09:16:51Z</time>
      </trkpt>
      <trkpt lat="47.38602" lon="-1.90858">
        <ele>74</ele>
        <time>2016-04-24T09:16:52Z</time>
      </trkpt>
      <trkpt lat="47.38598" lon="-1.90861">
        <ele>74</ele>
        <time>2016-04-24T09:16:53Z</time>
      </trkpt>
      <trkpt lat="47.38593" lon="-1.90864">
        <ele>74</ele>
        <time>2016-04-24T09:16:54Z</time>
      </trkpt>
      <trkpt lat="47.38588" lon="-1.90867">
        <ele>74</ele>
        <time>2016-04-24T09:16:55Z</time>
      </trkpt>
      <trkpt lat="47.38582" lon="-1.90869">
        <ele>74</ele>
        <time>2016-04-24T09:16:56Z</time>
      </trkpt>
      <trkpt lat="47.38578" lon="-1.90871">
        <ele>74</ele>
        <time>2016-04-24T09:16:57Z</time>
      </trkpt>
      <trkpt lat="47.38572" lon="-1.90875">
        <ele>74</ele>
        <time>2016-04-24T09:16:58Z</time>
      </trkpt>
      <trkpt lat="47.38567" lon="-1.90879">
        <ele>74</ele>
        <time>2016-04-24T09:16:59Z</time>
      </trkpt>
      <trkpt lat="47.38563" lon="-1.90882">
        <ele>74</ele>
        <time>2016-04-24T09:17:00Z</time>
      </trkpt>
      <trkpt lat="47.38558" lon="-1.90887">
        <ele>74</ele>
        <time>2016-04-24T09:17:01Z</time>
      </trkpt>
      <trkpt lat="47.38552" lon="-1.90891">
        <ele>74</ele>
        <time>2016-04-24T09:17:02Z</time>
      </trkpt>
      <trkpt lat="47.38549" lon="-1.90894">
        <ele>74</ele>
        <time>2016-04-24T09:17:03Z</time>
      </trkpt>
      <trkpt lat="47.38545" lon="-1.90897">
        <ele>74</ele>
        <time>2016-04-24T09:17:04Z</time>
      </trkpt>
      <trkpt lat="47.38541" lon="-1.90901">
        <ele>74</ele>
        <time>2016-04-24T09:17:05Z</time>
      </trkpt>
      <trkpt lat="47.38537" lon="-1.90904">
        <ele>74</ele>
        <time>2016-04-24T09:17:06Z</time>
      </trkpt>
      <trkpt lat="47.38533" lon="-1.90907">
        <ele>73</ele>
        <time>2016-04-24T09:17:07Z</time>
      </trkpt>
      <trkpt lat="47.38527" lon="-1.9091">
        <ele>73</ele>
        <time>2016-04-24T09:17:08Z</time>
      </trkpt>
      <trkpt lat="47.38522" lon="-1.90914">
        <ele>73</ele>
        <time>2016-04-24T09:17:09Z</time>
      </trkpt>
      <trkpt lat="47.38516" lon="-1.90916">
        <ele>73</ele>
        <time>2016-04-24T09:17:10Z</time>
      </trkpt>
      <trkpt lat="47.38511" lon="-1.9092">
        <ele>73</ele>
        <time>2016-04-24T09:17:11Z</time>
      </trkpt>
      <trkpt lat="47.38506" lon="-1.90925">
        <ele>73</ele>
        <time>2016-04-24T09:17:12Z</time>
      </trkpt>
      <trkpt lat="47.385" lon="-1.90928">
        <ele>73</ele>
        <time>2016-04-24T09:17:13Z</time>
      </trkpt>
      <trkpt lat="47.38494" lon="-1.90932">
        <ele>73</ele>
        <time>2016-04-24T09:17:14Z</time>
      </trkpt>
      <trkpt lat="47.38489" lon="-1.90935">
        <ele>73</ele>
        <time>2016-04-24T09:17:15Z</time>
      </trkpt>
      <trkpt lat="47.38483" lon="-1.90938">
        <ele>73</ele>
        <time>2016-04-24T09:17:16Z</time>
      </trkpt>
      <trkpt lat="47.38477" lon="-1.90941">
        <ele>73</ele>
        <time>2016-04-24T09:17:17Z</time>
      </trkpt>
      <trkpt lat="47.38473" lon="-1.90944">
        <ele>73</ele>
        <time>2016-04-24T09:17:18Z</time>
      </trkpt>
      <trkpt lat="47.38466" lon="-1.90948">
        <ele>73</ele>
        <time>2016-04-24T09:17:19Z</time>
      </trkpt>
      <trkpt lat="47.3846" lon="-1.90951">
        <ele>73</ele>
        <time>2016-04-24T09:17:20Z</time>
      </trkpt>
      <trkpt lat="47.38455" lon="-1.90955">
        <ele>73</ele>
        <time>2016-04-24T09:17:21Z</time>
      </trkpt>
      <trkpt lat="47.3845" lon="-1.90959">
        <ele>73</ele>
        <time>2016-04-24T09:17:22Z</time>
      </trkpt>
      <trkpt lat="47.38444" lon="-1.90962">
        <ele>73</ele>
        <time>2016-04-24T09:17:23Z</time>
      </trkpt>
      <trkpt lat="47.38439" lon="-1.90963">
        <ele>73</ele>
        <time>2016-04-24T09:17:24Z</time>
      </trkpt>
      <trkpt lat="47.38433" lon="-1.90967">
        <ele>73</ele>
        <time>2016-04-24T09:17:25Z</time>
      </trkpt>
      <trkpt lat="47.38428" lon="-1.9097">
        <ele>73</ele>
        <time>2016-04-24T09:17:26Z</time>
      </trkpt>
      <trkpt lat="47.38423" lon="-1.9098">
        <ele>73</ele>
        <time>2016-04-24T09:17:27Z</time>
      </trkpt>
      <trkpt lat="47.38419" lon="-1.90988">
        <ele>73</ele>
        <time>2016-04-24T09:17:28Z</time>
      </trkpt>
      <trkpt lat="47.38412" lon="-1.90996">
        <ele>73</ele>
        <time>2016-04-24T09:17:29Z</time>
      </trkpt>
      <trkpt lat="47.3841" lon="-1.91003">
        <ele>73</ele>
        <time>2016-04-24T09:17:30Z</time>
      </trkpt>
      <trkpt lat="47.38409" lon="-1.91013">
        <ele>73</ele>
        <time>2016-04-24T09:17:31Z</time>
      </trkpt>
      <trkpt lat="47.38408" lon="-1.91024">
        <ele>73</ele>
        <time>2016-04-24T09:17:32Z</time>
      </trkpt>
      <trkpt lat="47.38407" lon="-1.91035">
        <ele>73</ele>
        <time>2016-04-24T09:17:33Z</time>
      </trkpt>
      <trkpt lat="47.38407" lon="-1.91045">
        <ele>73</ele>
        <time>2016-04-24T09:17:34Z</time>
      </trkpt>
      <trkpt lat="47.38406" lon="-1.91054">
        <ele>73</ele>
        <time>2016-04-24T09:17:35Z</time>
      </trkpt>
      <trkpt lat="47.38405" lon="-1.91063">
        <ele>73</ele>
        <time>2016-04-24T09:17:36Z</time>
      </trkpt>
      <trkpt lat="47.384" lon="-1.91073">
        <ele>73</ele>
        <time>2016-04-24T09:17:37Z</time>
      </trkpt>
      <trkpt lat="47.38397" lon="-1.91079">
        <ele>73</ele>
        <time>2016-04-24T09:17:38Z</time>
      </trkpt>
      <trkpt lat="47.38394" lon="-1.91088">
        <ele>72</ele>
        <time>2016-04-24T09:17:39Z</time>
      </trkpt>
      <trkpt lat="47.38391" lon="-1.91096">
        <ele>72</ele>
        <time>2016-04-24T09:17:40Z</time>
      </trkpt>
      <trkpt lat="47.38386" lon="-1.91104">
        <ele>72</ele>
        <time>2016-04-24T09:17:41Z</time>
      </trkpt>
      <trkpt lat="47.3838" lon="-1.91109">
        <ele>72</ele>
        <time>2016-04-24T09:17:42Z</time>
      </trkpt>
      <trkpt lat="47.38374" lon="-1.91114">
        <ele>72</ele>
        <time>2016-04-24T09:17:43Z</time>
      </trkpt>
      <trkpt lat="47.38368" lon="-1.91117">
        <ele>72</ele>
        <time>2016-04-24T09:17:44Z</time>
      </trkpt>
      <trkpt lat="47.38362" lon="-1.91122">
        <ele>72</ele>
        <time>2016-04-24T09:17:45Z</time>
      </trkpt>
      <trkpt lat="47.38356" lon="-1.91126">
        <ele>72</ele>
        <time>2016-04-24T09:17:46Z</time>
      </trkpt>
      <trkpt lat="47.38349" lon="-1.91131">
        <ele>72</ele>
        <time>2016-04-24T09:17:47Z</time>
      </trkpt>
      <trkpt lat="47.38343" lon="-1.91135">
        <ele>72</ele>
        <time>2016-04-24T09:17:48Z</time>
      </trkpt>
      <trkpt lat="47.38337" lon="-1.9114">
        <ele>72</ele>
        <time>2016-04-24T09:17:49Z</time>
      </trkpt>
      <trkpt lat="47.38332" lon="-1.91147">
        <ele>72</ele>
        <time>2016-04-24T09:17:50Z</time>
      </trkpt>
      <trkpt lat="47.38327" lon="-1.91154">
        <ele>72</ele>
        <time>2016-04-24T09:17:51Z</time>
      </trkpt>
      <trkpt lat="47.38322" lon="-1.91161">
        <ele>72</ele>
        <time>2016-04-24T09:17:52Z</time>
      </trkpt>
      <trkpt lat="47.3832" lon="-1.91169">
        <ele>71</ele>
        <time>2016-04-24T09:17:53Z</time>
      </trkpt>
      <trkpt lat="47.38318" lon="-1.91178">
        <ele>71</ele>
        <time>2016-04-24T09:17:54Z</time>
      </trkpt>
      <trkpt lat="47.38314" lon="-1.91187">
        <ele>71</ele>
        <time>2016-04-24T09:17:55Z</time>
      </trkpt>
      <trkpt lat="47.38313" lon="-1.91196">
        <ele>71</ele>
        <time>2016-04-24T09:17:56Z</time>
      </trkpt>
      <trkpt lat="47.38308" lon="-1.91202">
        <ele>71</ele>
        <time>2016-04-24T09:17:57Z</time>
      </trkpt>
      <trkpt lat="47.38305" lon="-1.91209">
        <ele>71</ele>
        <time>2016-04-24T09:17:58Z</time>
      </trkpt>
      <trkpt lat="47.38302" lon="-1.91215">
        <ele>71</ele>
        <time>2016-04-24T09:17:59Z</time>
      </trkpt>
      <trkpt lat="47.38298" lon="-1.91223">
        <ele>71</ele>
        <time>2016-04-24T09:18:00Z</time>
      </trkpt>
      <trkpt lat="47.38296" lon="-1.9123">
        <ele>71</ele>
        <time>2016-04-24T09:18:01Z</time>
      </trkpt>
      <trkpt lat="47.38293" lon="-1.9124">
        <ele>71</ele>
        <time>2016-04-24T09:18:02Z</time>
      </trkpt>
      <trkpt lat="47.38291" lon="-1.91249">
        <ele>71</ele>
        <time>2016-04-24T09:18:03Z</time>
      </trkpt>
      <trkpt lat="47.38288" lon="-1.91257">
        <ele>70</ele>
        <time>2016-04-24T09:18:04Z</time>
      </trkpt>
      <trkpt lat="47.38283" lon="-1.91266">
        <ele>70</ele>
        <time>2016-04-24T09:18:05Z</time>
      </trkpt>
      <trkpt lat="47.38281" lon="-1.91275">
        <ele>70</ele>
        <time>2016-04-24T09:18:06Z</time>
      </trkpt>
      <trkpt lat="47.38279" lon="-1.91285">
        <ele>69</ele>
        <time>2016-04-24T09:18:07Z</time>
      </trkpt>
      <trkpt lat="47.38275" lon="-1.91295">
        <ele>69</ele>
        <time>2016-04-24T09:18:08Z</time>
      </trkpt>
      <trkpt lat="47.38273" lon="-1.91305">
        <ele>69</ele>
        <time>2016-04-24T09:18:09Z</time>
      </trkpt>
      <trkpt lat="47.38268" lon="-1.91315">
        <ele>69</ele>
        <time>2016-04-24T09:18:10Z</time>
      </trkpt>
      <trkpt lat="47.38263" lon="-1.91326">
        <ele>69</ele>
        <time>2016-04-24T09:18:11Z</time>
      </trkpt>
      <trkpt lat="47.38258" lon="-1.91334">
        <ele>68</ele>
        <time>2016-04-24T09:18:12Z</time>
      </trkpt>
      <trkpt lat="47.38254" lon="-1.91345">
        <ele>68</ele>
        <time>2016-04-24T09:18:13Z</time>
      </trkpt>
      <trkpt lat="47.38249" lon="-1.91355">
        <ele>67</ele>
        <time>2016-04-24T09:18:14Z</time>
      </trkpt>
      <trkpt lat="47.38245" lon="-1.91364">
        <ele>67</ele>
        <time>2016-04-24T09:18:15Z</time>
      </trkpt>
      <trkpt lat="47.38242" lon="-1.91373">
        <ele>67</ele>
        <time>2016-04-24T09:18:16Z</time>
      </trkpt>
      <trkpt lat="47.38236" lon="-1.91383">
        <ele>67</ele>
        <time>2016-04-24T09:18:17Z</time>
      </trkpt>
      <trkpt lat="47.38231" lon="-1.91392">
        <ele>67</ele>
        <time>2016-04-24T09:18:18Z</time>
      </trkpt>
      <trkpt lat="47.38224" lon="-1.91402">
        <ele>67</ele>
        <time>2016-04-24T09:18:19Z</time>
      </trkpt>
      <trkpt lat="47.38219" lon="-1.91412">
        <ele>67</ele>
        <time>2016-04-24T09:18:20Z</time>
      </trkpt>
      <trkpt lat="47.38212" lon="-1.91422">
        <ele>65</ele>
        <time>2016-04-24T09:18:21Z</time>
      </trkpt>
      <trkpt lat="47.38207" lon="-1.91433">
        <ele>65</ele>
        <time>2016-04-24T09:18:22Z</time>
      </trkpt>
      <trkpt lat="47.382" lon="-1.91443">
        <ele>65</ele>
        <time>2016-04-24T09:18:23Z</time>
      </trkpt>
      <trkpt lat="47.38193" lon="-1.91455">
        <ele>65</ele>
        <time>2016-04-24T09:18:24Z</time>
      </trkpt>
      <trkpt lat="47.38186" lon="-1.91465">
        <ele>64</ele>
        <time>2016-04-24T09:18:25Z</time>
      </trkpt>
      <trkpt lat="47.38174" lon="-1.91474">
        <ele>64</ele>
        <time>2016-04-24T09:18:26Z</time>
      </trkpt>
      <trkpt lat="47.38167" lon="-1.91482">
        <ele>62</ele>
        <time>2016-04-24T09:18:27Z</time>
      </trkpt>
      <trkpt lat="47.38159" lon="-1.91491">
        <ele>62</ele>
        <time>2016-04-24T09:18:28Z</time>
      </trkpt>
      <trkpt lat="47.38151" lon="-1.91503">
        <ele>61</ele>
        <time>2016-04-24T09:18:29Z</time>
      </trkpt>
      <trkpt lat="47.38144" lon="-1.91513">
        <ele>60</ele>
        <time>2016-04-24T09:18:30Z</time>
      </trkpt>
      <trkpt lat="47.38137" lon="-1.91523">
        <ele>60</ele>
        <time>2016-04-24T09:18:31Z</time>
      </trkpt>
      <trkpt lat="47.38128" lon="-1.9153">
        <ele>59</ele>
        <time>2016-04-24T09:18:32Z</time>
      </trkpt>
      <trkpt lat="47.38118" lon="-1.91542">
        <ele>59</ele>
        <time>2016-04-24T09:18:33Z</time>
      </trkpt>
      <trkpt lat="47.38111" lon="-1.91554">
        <ele>58</ele>
        <time>2016-04-24T09:18:34Z</time>
      </trkpt>
      <trkpt lat="47.381" lon="-1.91564">
        <ele>58</ele>
        <time>2016-04-24T09:18:35Z</time>
      </trkpt>
      <trkpt lat="47.38093" lon="-1.91579">
        <ele>57</ele>
        <time>2016-04-24T09:18:36Z</time>
      </trkpt>
      <trkpt lat="47.38087" lon="-1.91595">
        <ele>57</ele>
        <time>2016-04-24T09:18:37Z</time>
      </trkpt>
      <trkpt lat="47.38081" lon="-1.91608">
        <ele>57</ele>
        <time>2016-04-24T09:18:38Z</time>
      </trkpt>
      <trkpt lat="47.3808" lon="-1.91624">
        <ele>57</ele>
        <time>2016-04-24T09:18:39Z</time>
      </trkpt>
      <trkpt lat="47.38078" lon="-1.91638">
        <ele>58</ele>
        <time>2016-04-24T09:18:40Z</time>
      </trkpt>
      <trkpt lat="47.38075" lon="-1.91649">
        <ele>58</ele>
        <time>2016-04-24T09:18:41Z</time>
      </trkpt>
      <trkpt lat="47.38067" lon="-1.9166">
        <ele>58</ele>
        <time>2016-04-24T09:18:42Z</time>
      </trkpt>
      <trkpt lat="47.38063" lon="-1.91672">
        <ele>59</ele>
        <time>2016-04-24T09:18:43Z</time>
      </trkpt>
      <trkpt lat="47.38056" lon="-1.91684">
        <ele>59</ele>
        <time>2016-04-24T09:18:44Z</time>
      </trkpt>
      <trkpt lat="47.3805" lon="-1.91691">
        <ele>59</ele>
        <time>2016-04-24T09:18:45Z</time>
      </trkpt>
      <trkpt lat="47.38045" lon="-1.917">
        <ele>59</ele>
        <time>2016-04-24T09:18:46Z</time>
      </trkpt>
      <trkpt lat="47.38035" lon="-1.91705">
        <ele>59</ele>
        <time>2016-04-24T09:18:47Z</time>
      </trkpt>
      <trkpt lat="47.38028" lon="-1.9171">
        <ele>60</ele>
        <time>2016-04-24T09:18:48Z</time>
      </trkpt>
      <trkpt lat="47.38024" lon="-1.91716">
        <ele>60</ele>
        <time>2016-04-24T09:18:49Z</time>
      </trkpt>
      <trkpt lat="47.3802" lon="-1.91717">
        <ele>60</ele>
        <time>2016-04-24T09:18:50Z</time>
      </trkpt>
      <trkpt lat="47.38014" lon="-1.91722">
        <ele>60</ele>
        <time>2016-04-24T09:18:51Z</time>
      </trkpt>
      <trkpt lat="47.38006" lon="-1.91727">
        <ele>60</ele>
        <time>2016-04-24T09:18:52Z</time>
      </trkpt>
      <trkpt lat="47.38" lon="-1.9173">
        <ele>62</ele>
        <time>2016-04-24T09:18:53Z</time>
      </trkpt>
      <trkpt lat="47.37993" lon="-1.91734">
        <ele>62</ele>
        <time>2016-04-24T09:18:54Z</time>
      </trkpt>
      <trkpt lat="47.37989" lon="-1.91738">
        <ele>62</ele>
        <time>2016-04-24T09:18:55Z</time>
      </trkpt>
      <trkpt lat="47.37981" lon="-1.91741">
        <ele>62</ele>
        <time>2016-04-24T09:18:56Z</time>
      </trkpt>
      <trkpt lat="47.37981" lon="-1.91747">
        <ele>62</ele>
        <time>2016-04-24T09:18:57Z</time>
      </trkpt>
      <trkpt lat="47.37978" lon="-1.91751">
        <ele>64</ele>
        <time>2016-04-24T09:18:58Z</time>
      </trkpt>
      <trkpt lat="47.37974" lon="-1.91757">
        <ele>64</ele>
        <time>2016-04-24T09:18:59Z</time>
      </trkpt>
      <trkpt lat="47.37973" lon="-1.91761">
        <ele>64</ele>
        <time>2016-04-24T09:19:00Z</time>
      </trkpt>
      <trkpt lat="47.37968" lon="-1.91766">
        <ele>64</ele>
        <time>2016-04-24T09:19:01Z</time>
      </trkpt>
      <trkpt lat="47.37965" lon="-1.91769">
        <ele>64</ele>
        <time>2016-04-24T09:19:02Z</time>
      </trkpt>
      <trkpt lat="47.37962" lon="-1.91774">
        <ele>64</ele>
        <time>2016-04-24T09:19:03Z</time>
      </trkpt>
      <trkpt lat="47.37956" lon="-1.91778">
        <ele>65</ele>
        <time>2016-04-24T09:19:05Z</time>
      </trkpt>
      <trkpt lat="47.37954" lon="-1.91781">
        <ele>65</ele>
        <time>2016-04-24T09:19:06Z</time>
      </trkpt>
      <trkpt lat="47.3795" lon="-1.91786">
        <ele>65</ele>
        <time>2016-04-24T09:19:07Z</time>
      </trkpt>
      <trkpt lat="47.37947" lon="-1.91791">
        <ele>65</ele>
        <time>2016-04-24T09:19:08Z</time>
      </trkpt>
      <trkpt lat="47.37947" lon="-1.91795">
        <ele>65</ele>
        <time>2016-04-24T09:19:09Z</time>
      </trkpt>
      <trkpt lat="47.37944" lon="-1.91797">
        <ele>65</ele>
        <time>2016-04-24T09:19:10Z</time>
      </trkpt>
      <trkpt lat="47.3794" lon="-1.918">
        <ele>65</ele>
        <time>2016-04-24T09:19:11Z</time>
      </trkpt>
      <trkpt lat="47.37937" lon="-1.91802">
        <ele>65</ele>
        <time>2016-04-24T09:19:12Z</time>
      </trkpt>
      <trkpt lat="47.37934" lon="-1.91806">
        <ele>66</ele>
        <time>2016-04-24T09:19:13Z</time>
      </trkpt>
      <trkpt lat="47.37932" lon="-1.9181">
        <ele>66</ele>
        <time>2016-04-24T09:19:14Z</time>
      </trkpt>
      <trkpt lat="47.37929" lon="-1.91813">
        <ele>66</ele>
        <time>2016-04-24T09:19:15Z</time>
      </trkpt>
      <trkpt lat="47.37926" lon="-1.91817">
        <ele>66</ele>
        <time>2016-04-24T09:19:16Z</time>
      </trkpt>
      <trkpt lat="47.37923" lon="-1.9182">
        <ele>67</ele>
        <time>2016-04-24T09:19:17Z</time>
      </trkpt>
      <trkpt lat="47.3792" lon="-1.91823">
        <ele>67</ele>
        <time>2016-04-24T09:19:18Z</time>
      </trkpt>
      <trkpt lat="47.37917" lon="-1.91826">
        <ele>67</ele>
        <time>2016-04-24T09:19:19Z</time>
      </trkpt>
      <trkpt lat="47.37915" lon="-1.9183">
        <ele>68</ele>
        <time>2016-04-24T09:19:20Z</time>
      </trkpt>
      <trkpt lat="47.37912" lon="-1.91833">
        <ele>68</ele>
        <time>2016-04-24T09:19:21Z</time>
      </trkpt>
      <trkpt lat="47.37909" lon="-1.91837">
        <ele>68</ele>
        <time>2016-04-24T09:19:22Z</time>
      </trkpt>
      <trkpt lat="47.37907" lon="-1.9184">
        <ele>68</ele>
        <time>2016-04-24T09:19:23Z</time>
      </trkpt>
      <trkpt lat="47.37904" lon="-1.91843">
        <ele>69</ele>
        <time>2016-04-24T09:19:24Z</time>
      </trkpt>
      <trkpt lat="47.37901" lon="-1.91847">
        <ele>69</ele>
        <time>2016-04-24T09:19:25Z</time>
      </trkpt>
      <trkpt lat="47.37898" lon="-1.9185">
        <ele>69</ele>
        <time>2016-04-24T09:19:26Z</time>
      </trkpt>
      <trkpt lat="47.37895" lon="-1.91853">
        <ele>69</ele>
        <time>2016-04-24T09:19:27Z</time>
      </trkpt>
      <trkpt lat="47.3789" lon="-1.91857">
        <ele>69</ele>
        <time>2016-04-24T09:19:28Z</time>
      </trkpt>
      <trkpt lat="47.37887" lon="-1.9186">
        <ele>69</ele>
        <time>2016-04-24T09:19:29Z</time>
      </trkpt>
      <trkpt lat="47.37883" lon="-1.91863">
        <ele>69</ele>
        <time>2016-04-24T09:19:30Z</time>
      </trkpt>
      <trkpt lat="47.3788" lon="-1.91866">
        <ele>69</ele>
        <time>2016-04-24T09:19:31Z</time>
      </trkpt>
      <trkpt lat="47.37877" lon="-1.91869">
        <ele>69</ele>
        <time>2016-04-24T09:19:32Z</time>
      </trkpt>
      <trkpt lat="47.37875" lon="-1.91872">
        <ele>69</ele>
        <time>2016-04-24T09:19:33Z</time>
      </trkpt>
      <trkpt lat="47.37872" lon="-1.91874">
        <ele>69</ele>
        <time>2016-04-24T09:19:34Z</time>
      </trkpt>
      <trkpt lat="47.3787" lon="-1.91878">
        <ele>69</ele>
        <time>2016-04-24T09:19:35Z</time>
      </trkpt>
      <trkpt lat="47.37868" lon="-1.91881">
        <ele>69</ele>
        <time>2016-04-24T09:19:36Z</time>
      </trkpt>
      <trkpt lat="47.37866" lon="-1.91884">
        <ele>69</ele>
        <time>2016-04-24T09:19:37Z</time>
      </trkpt>
      <trkpt lat="47.37864" lon="-1.91887">
        <ele>69</ele>
        <time>2016-04-24T09:19:38Z</time>
      </trkpt>
      <trkpt lat="47.37861" lon="-1.9189">
        <ele>70</ele>
        <time>2016-04-24T09:19:39Z</time>
      </trkpt>
      <trkpt lat="47.37858" lon="-1.91894">
        <ele>70</ele>
        <time>2016-04-24T09:19:40Z</time>
      </trkpt>
      <trkpt lat="47.37855" lon="-1.91897">
        <ele>70</ele>
        <time>2016-04-24T09:19:41Z</time>
      </trkpt>
      <trkpt lat="47.37852" lon="-1.919">
        <ele>70</ele>
        <time>2016-04-24T09:19:42Z</time>
      </trkpt>
      <trkpt lat="47.37849" lon="-1.91904">
        <ele>70</ele>
        <time>2016-04-24T09:19:43Z</time>
      </trkpt>
      <trkpt lat="47.37845" lon="-1.91907">
        <ele>70</ele>
        <time>2016-04-24T09:19:44Z</time>
      </trkpt>
      <trkpt lat="47.37842" lon="-1.9191">
        <ele>70</ele>
        <time>2016-04-24T09:19:45Z</time>
      </trkpt>
      <trkpt lat="47.3784" lon="-1.91914">
        <ele>71</ele>
        <time>2016-04-24T09:19:46Z</time>
      </trkpt>
      <trkpt lat="47.37838" lon="-1.91917">
        <ele>71</ele>
        <time>2016-04-24T09:19:47Z</time>
      </trkpt>
      <trkpt lat="47.37835" lon="-1.91921">
        <ele>71</ele>
        <time>2016-04-24T09:19:48Z</time>
      </trkpt>
      <trkpt lat="47.37833" lon="-1.91924">
        <ele>71</ele>
        <time>2016-04-24T09:19:49Z</time>
      </trkpt>
      <trkpt lat="47.3783" lon="-1.91927">
        <ele>71</ele>
        <time>2016-04-24T09:19:50Z</time>
      </trkpt>
      <trkpt lat="47.37828" lon="-1.91931">
        <ele>71</ele>
        <time>2016-04-24T09:19:51Z</time>
      </trkpt>
      <trkpt lat="47.37825" lon="-1.91934">
        <ele>72</ele>
        <time>2016-04-24T09:19:52Z</time>
      </trkpt>
      <trkpt lat="47.37823" lon="-1.91937">
        <ele>72</ele>
        <time>2016-04-24T09:19:53Z</time>
      </trkpt>
      <trkpt lat="47.3782" lon="-1.9194">
        <ele>72</ele>
        <time>2016-04-24T09:19:54Z</time>
      </trkpt>
      <trkpt lat="47.37818" lon="-1.91943">
        <ele>72</ele>
        <time>2016-04-24T09:19:55Z</time>
      </trkpt>
      <trkpt lat="47.37815" lon="-1.91947">
        <ele>72</ele>
        <time>2016-04-24T09:19:56Z</time>
      </trkpt>
      <trkpt lat="47.37812" lon="-1.9195">
        <ele>72</ele>
        <time>2016-04-24T09:19:57Z</time>
      </trkpt>
      <trkpt lat="47.3781" lon="-1.91954">
        <ele>72</ele>
        <time>2016-04-24T09:19:58Z</time>
      </trkpt>
      <trkpt lat="47.37808" lon="-1.91957">
        <ele>72</ele>
        <time>2016-04-24T09:19:59Z</time>
      </trkpt>
      <trkpt lat="47.37805" lon="-1.91961">
        <ele>72</ele>
        <time>2016-04-24T09:20:00Z</time>
      </trkpt>
      <trkpt lat="47.37803" lon="-1.91965">
        <ele>72</ele>
        <time>2016-04-24T09:20:01Z</time>
      </trkpt>
      <trkpt lat="47.378" lon="-1.91968">
        <ele>72</ele>
        <time>2016-04-24T09:20:02Z</time>
      </trkpt>
      <trkpt lat="47.37797" lon="-1.91971">
        <ele>72</ele>
        <time>2016-04-24T09:20:03Z</time>
      </trkpt>
      <trkpt lat="47.37794" lon="-1.91975">
        <ele>72</ele>
        <time>2016-04-24T09:20:04Z</time>
      </trkpt>
      <trkpt lat="47.37791" lon="-1.91979">
        <ele>72</ele>
        <time>2016-04-24T09:20:05Z</time>
      </trkpt>
      <trkpt lat="47.37788" lon="-1.91982">
        <ele>72</ele>
        <time>2016-04-24T09:20:06Z</time>
      </trkpt>
      <trkpt lat="47.37785" lon="-1.91986">
        <ele>72</ele>
        <time>2016-04-24T09:20:07Z</time>
      </trkpt>
      <trkpt lat="47.37782" lon="-1.9199">
        <ele>72</ele>
        <time>2016-04-24T09:20:08Z</time>
      </trkpt>
      <trkpt lat="47.37779" lon="-1.91994">
        <ele>72</ele>
        <time>2016-04-24T09:20:09Z</time>
      </trkpt>
      <trkpt lat="47.37776" lon="-1.91998">
        <ele>72</ele>
        <time>2016-04-24T09:20:10Z</time>
      </trkpt>
      <trkpt lat="47.37772" lon="-1.92002">
        <ele>73</ele>
        <time>2016-04-24T09:20:11Z</time>
      </trkpt>
      <trkpt lat="47.37769" lon="-1.92005">
        <ele>73</ele>
        <time>2016-04-24T09:20:12Z</time>
      </trkpt>
      <trkpt lat="47.37766" lon="-1.92009">
        <ele>73</ele>
        <time>2016-04-24T09:20:13Z</time>
      </trkpt>
      <trkpt lat="47.37763" lon="-1.92013">
        <ele>73</ele>
        <time>2016-04-24T09:20:14Z</time>
      </trkpt>
      <trkpt lat="47.3776" lon="-1.92017">
        <ele>73</ele>
        <time>2016-04-24T09:20:15Z</time>
      </trkpt>
      <trkpt lat="47.37757" lon="-1.9202">
        <ele>73</ele>
        <time>2016-04-24T09:20:16Z</time>
      </trkpt>
      <trkpt lat="47.37754" lon="-1.92024">
        <ele>73</ele>
        <time>2016-04-24T09:20:17Z</time>
      </trkpt>
      <trkpt lat="47.37751" lon="-1.92028">
        <ele>73</ele>
        <time>2016-04-24T09:20:18Z</time>
      </trkpt>
      <trkpt lat="47.37748" lon="-1.92032">
        <ele>74</ele>
        <time>2016-04-24T09:20:19Z</time>
      </trkpt>
      <trkpt lat="47.37746" lon="-1.92036">
        <ele>74</ele>
        <time>2016-04-24T09:20:20Z</time>
      </trkpt>
      <trkpt lat="47.37743" lon="-1.9204">
        <ele>74</ele>
        <time>2016-04-24T09:20:21Z</time>
      </trkpt>
      <trkpt lat="47.37741" lon="-1.92044">
        <ele>74</ele>
        <time>2016-04-24T09:20:22Z</time>
      </trkpt>
      <trkpt lat="47.37738" lon="-1.92048">
        <ele>74</ele>
        <time>2016-04-24T09:20:23Z</time>
      </trkpt>
      <trkpt lat="47.37735" lon="-1.92052">
        <ele>74</ele>
        <time>2016-04-24T09:20:24Z</time>
      </trkpt>
      <trkpt lat="47.37732" lon="-1.92056">
        <ele>75</ele>
        <time>2016-04-24T09:20:25Z</time>
      </trkpt>
      <trkpt lat="47.37729" lon="-1.9206">
        <ele>75</ele>
        <time>2016-04-24T09:20:26Z</time>
      </trkpt>
      <trkpt lat="47.37726" lon="-1.92064">
        <ele>75</ele>
        <time>2016-04-24T09:20:27Z</time>
      </trkpt>
      <trkpt lat="47.37723" lon="-1.92068">
        <ele>75</ele>
        <time>2016-04-24T09:20:28Z</time>
      </trkpt>
      <trkpt lat="47.3772" lon="-1.92072">
        <ele>75</ele>
        <time>2016-04-24T09:20:29Z</time>
      </trkpt>
      <trkpt lat="47.37716" lon="-1.92076">
        <ele>75</ele>
        <time>2016-04-24T09:20:30Z</time>
      </trkpt>
      <trkpt lat="47.37713" lon="-1.9208">
        <ele>75</ele>
        <time>2016-04-24T09:20:31Z</time>
      </trkpt>
      <trkpt lat="47.37709" lon="-1.92084">
        <ele>75</ele>
        <time>2016-04-24T09:20:32Z</time>
      </trkpt>
      <trkpt lat="47.37704" lon="-1.9209">
        <ele>75</ele>
        <time>2016-04-24T09:20:33Z</time>
      </trkpt>
      <trkpt lat="47.377" lon="-1.92094">
        <ele>75</ele>
        <time>2016-04-24T09:20:34Z</time>
      </trkpt>
      <trkpt lat="47.37697" lon="-1.92097">
        <ele>75</ele>
        <time>2016-04-24T09:20:35Z</time>
      </trkpt>
      <trkpt lat="47.37695" lon="-1.92101">
        <ele>75</ele>
        <time>2016-04-24T09:20:36Z</time>
      </trkpt>
      <trkpt lat="47.37691" lon="-1.92105">
        <ele>75</ele>
        <time>2016-04-24T09:20:37Z</time>
      </trkpt>
      <trkpt lat="47.37689" lon="-1.92109">
        <ele>75</ele>
        <time>2016-04-24T09:20:38Z</time>
      </trkpt>
      <trkpt lat="47.37686" lon="-1.92113">
        <ele>75</ele>
        <time>2016-04-24T09:20:39Z</time>
      </trkpt>
      <trkpt lat="47.37684" lon="-1.92119">
        <ele>75</ele>
        <time>2016-04-24T09:20:40Z</time>
      </trkpt>
      <trkpt lat="47.3768" lon="-1.92125">
        <ele>75</ele>
        <time>2016-04-24T09:20:41Z</time>
      </trkpt>
      <trkpt lat="47.37675" lon="-1.9213">
        <ele>75</ele>
        <time>2016-04-24T09:20:42Z</time>
      </trkpt>
      <trkpt lat="47.3767" lon="-1.92135">
        <ele>75</ele>
        <time>2016-04-24T09:20:43Z</time>
      </trkpt>
      <trkpt lat="47.37665" lon="-1.9214">
        <ele>76</ele>
        <time>2016-04-24T09:20:44Z</time>
      </trkpt>
      <trkpt lat="47.37658" lon="-1.92149">
        <ele>76</ele>
        <time>2016-04-24T09:20:46Z</time>
      </trkpt>
      <trkpt lat="47.37654" lon="-1.92155">
        <ele>76</ele>
        <time>2016-04-24T09:20:47Z</time>
      </trkpt>
      <trkpt lat="47.37652" lon="-1.92161">
        <ele>76</ele>
        <time>2016-04-24T09:20:48Z</time>
      </trkpt>
      <trkpt lat="47.37647" lon="-1.92166">
        <ele>76</ele>
        <time>2016-04-24T09:20:49Z</time>
      </trkpt>
      <trkpt lat="47.3764" lon="-1.92169">
        <ele>76</ele>
        <time>2016-04-24T09:20:50Z</time>
      </trkpt>
      <trkpt lat="47.37633" lon="-1.92174">
        <ele>76</ele>
        <time>2016-04-24T09:20:51Z</time>
      </trkpt>
      <trkpt lat="47.3763" lon="-1.92179">
        <ele>76</ele>
        <time>2016-04-24T09:20:52Z</time>
      </trkpt>
      <trkpt lat="47.37626" lon="-1.92184">
        <ele>76</ele>
        <time>2016-04-24T09:20:53Z</time>
      </trkpt>
      <trkpt lat="47.37621" lon="-1.9219">
        <ele>76</ele>
        <time>2016-04-24T09:20:54Z</time>
      </trkpt>
      <trkpt lat="47.37617" lon="-1.92197">
        <ele>76</ele>
        <time>2016-04-24T09:20:55Z</time>
      </trkpt>
      <trkpt lat="47.37611" lon="-1.92202">
        <ele>76</ele>
        <time>2016-04-24T09:20:56Z</time>
      </trkpt>
      <trkpt lat="47.37607" lon="-1.92207">
        <ele>76</ele>
        <time>2016-04-24T09:20:57Z</time>
      </trkpt>
      <trkpt lat="47.37603" lon="-1.92211">
        <ele>76</ele>
        <time>2016-04-24T09:20:58Z</time>
      </trkpt>
      <trkpt lat="47.37601" lon="-1.92217">
        <ele>76</ele>
        <time>2016-04-24T09:20:59Z</time>
      </trkpt>
      <trkpt lat="47.37599" lon="-1.92224">
        <ele>76</ele>
        <time>2016-04-24T09:21:00Z</time>
      </trkpt>
      <trkpt lat="47.37595" lon="-1.92231">
        <ele>76</ele>
        <time>2016-04-24T09:21:01Z</time>
      </trkpt>
      <trkpt lat="47.3759" lon="-1.92237">
        <ele>76</ele>
        <time>2016-04-24T09:21:02Z</time>
      </trkpt>
      <trkpt lat="47.37585" lon="-1.92239">
        <ele>76</ele>
        <time>2016-04-24T09:21:03Z</time>
      </trkpt>
      <trkpt lat="47.37584" lon="-1.92244">
        <ele>76</ele>
        <time>2016-04-24T09:21:04Z</time>
      </trkpt>
      <trkpt lat="47.37583" lon="-1.92251">
        <ele>76</ele>
        <time>2016-04-24T09:21:05Z</time>
      </trkpt>
      <trkpt lat="47.37576" lon="-1.92257">
        <ele>76</ele>
        <time>2016-04-24T09:21:06Z</time>
      </trkpt>
      <trkpt lat="47.37573" lon="-1.92261">
        <ele>76</ele>
        <time>2016-04-24T09:21:07Z</time>
      </trkpt>
      <trkpt lat="47.37568" lon="-1.92267">
        <ele>76</ele>
        <time>2016-04-24T09:21:08Z</time>
      </trkpt>
      <trkpt lat="47.37563" lon="-1.9227">
        <ele>76</ele>
        <time>2016-04-24T09:21:09Z</time>
      </trkpt>
      <trkpt lat="47.37559" lon="-1.92276">
        <ele>76</ele>
        <time>2016-04-24T09:21:10Z</time>
      </trkpt>
      <trkpt lat="47.37553" lon="-1.92281">
        <ele>76</ele>
        <time>2016-04-24T09:21:11Z</time>
      </trkpt>
      <trkpt lat="47.37549" lon="-1.92284">
        <ele>76</ele>
        <time>2016-04-24T09:21:12Z</time>
      </trkpt>
      <trkpt lat="47.37547" lon="-1.92292">
        <ele>76</ele>
        <time>2016-04-24T09:21:13Z</time>
      </trkpt>
      <trkpt lat="47.37544" lon="-1.92298">
        <ele>76</ele>
        <time>2016-04-24T09:21:14Z</time>
      </trkpt>
      <trkpt lat="47.37543" lon="-1.92302">
        <ele>76</ele>
        <time>2016-04-24T09:21:15Z</time>
      </trkpt>
      <trkpt lat="47.3754" lon="-1.92308">
        <ele>76</ele>
        <time>2016-04-24T09:21:16Z</time>
      </trkpt>
      <trkpt lat="47.37531" lon="-1.92314">
        <ele>76</ele>
        <time>2016-04-24T09:21:17Z</time>
      </trkpt>
      <trkpt lat="47.37528" lon="-1.92319">
        <ele>76</ele>
        <time>2016-04-24T09:21:18Z</time>
      </trkpt>
      <trkpt lat="47.37525" lon="-1.92327">
        <ele>76</ele>
        <time>2016-04-24T09:21:19Z</time>
      </trkpt>
      <trkpt lat="47.37521" lon="-1.92335">
        <ele>76</ele>
        <time>2016-04-24T09:21:20Z</time>
      </trkpt>
      <trkpt lat="47.37518" lon="-1.92338">
        <ele>76</ele>
        <time>2016-04-24T09:21:21Z</time>
      </trkpt>
      <trkpt lat="47.37515" lon="-1.92345">
        <ele>76</ele>
        <time>2016-04-24T09:21:22Z</time>
      </trkpt>
      <trkpt lat="47.37512" lon="-1.9235">
        <ele>76</ele>
        <time>2016-04-24T09:21:23Z</time>
      </trkpt>
      <trkpt lat="47.37509" lon="-1.92356">
        <ele>76</ele>
        <time>2016-04-24T09:21:24Z</time>
      </trkpt>
      <trkpt lat="47.37508" lon="-1.9236">
        <ele>76</ele>
        <time>2016-04-24T09:21:25Z</time>
      </trkpt>
      <trkpt lat="47.37505" lon="-1.92364">
        <ele>76</ele>
        <time>2016-04-24T09:21:26Z</time>
      </trkpt>
      <trkpt lat="47.37503" lon="-1.9237">
        <ele>76</ele>
        <time>2016-04-24T09:21:27Z</time>
      </trkpt>
      <trkpt lat="47.37501" lon="-1.92376">
        <ele>76</ele>
        <time>2016-04-24T09:21:28Z</time>
      </trkpt>
      <trkpt lat="47.37498" lon="-1.92382">
        <ele>78</ele>
        <time>2016-04-24T09:21:29Z</time>
      </trkpt>
      <trkpt lat="47.37497" lon="-1.92386">
        <ele>78</ele>
        <time>2016-04-24T09:21:30Z</time>
      </trkpt>
      <trkpt lat="47.37495" lon="-1.9239">
        <ele>78</ele>
        <time>2016-04-24T09:21:31Z</time>
      </trkpt>
      <trkpt lat="47.37492" lon="-1.92395">
        <ele>78</ele>
        <time>2016-04-24T09:21:32Z</time>
      </trkpt>
      <trkpt lat="47.37489" lon="-1.924">
        <ele>78</ele>
        <time>2016-04-24T09:21:33Z</time>
      </trkpt>
      <trkpt lat="47.37486" lon="-1.92406">
        <ele>78</ele>
        <time>2016-04-24T09:21:34Z</time>
      </trkpt>
      <trkpt lat="47.37481" lon="-1.92415">
        <ele>78</ele>
        <time>2016-04-24T09:21:35Z</time>
      </trkpt>
      <trkpt lat="47.37478" lon="-1.92423">
        <ele>78</ele>
        <time>2016-04-24T09:21:36Z</time>
      </trkpt>
      <trkpt lat="47.37474" lon="-1.92429">
        <ele>78</ele>
        <time>2016-04-24T09:21:37Z</time>
      </trkpt>
      <trkpt lat="47.3747" lon="-1.92436">
        <ele>78</ele>
        <time>2016-04-24T09:21:38Z</time>
      </trkpt>
      <trkpt lat="47.37468" lon="-1.92442">
        <ele>78</ele>
        <time>2016-04-24T09:21:39Z</time>
      </trkpt>
      <trkpt lat="47.37464" lon="-1.9245">
        <ele>78</ele>
        <time>2016-04-24T09:21:40Z</time>
      </trkpt>
      <trkpt lat="47.37461" lon="-1.92456">
        <ele>78</ele>
        <time>2016-04-24T09:21:41Z</time>
      </trkpt>
      <trkpt lat="47.37459" lon="-1.92461">
        <ele>78</ele>
        <time>2016-04-24T09:21:42Z</time>
      </trkpt>
      <trkpt lat="47.37455" lon="-1.92467">
        <ele>78</ele>
        <time>2016-04-24T09:21:43Z</time>
      </trkpt>
      <trkpt lat="47.37452" lon="-1.92473">
        <ele>78</ele>
        <time>2016-04-24T09:21:44Z</time>
      </trkpt>
      <trkpt lat="47.37447" lon="-1.92479">
        <ele>78</ele>
        <time>2016-04-24T09:21:45Z</time>
      </trkpt>
      <trkpt lat="47.37445" lon="-1.92483">
        <ele>78</ele>
        <time>2016-04-24T09:21:46Z</time>
      </trkpt>
      <trkpt lat="47.3744" lon="-1.92489">
        <ele>78</ele>
        <time>2016-04-24T09:21:47Z</time>
      </trkpt>
      <trkpt lat="47.37436" lon="-1.92494">
        <ele>78</ele>
        <time>2016-04-24T09:21:48Z</time>
      </trkpt>
      <trkpt lat="47.37432" lon="-1.92501">
        <ele>78</ele>
        <time>2016-04-24T09:21:49Z</time>
      </trkpt>
      <trkpt lat="47.37429" lon="-1.92506">
        <ele>78</ele>
        <time>2016-04-24T09:21:50Z</time>
      </trkpt>
      <trkpt lat="47.37427" lon="-1.92514">
        <ele>78</ele>
        <time>2016-04-24T09:21:51Z</time>
      </trkpt>
      <trkpt lat="47.37426" lon="-1.92519">
        <ele>78</ele>
        <time>2016-04-24T09:21:52Z</time>
      </trkpt>
      <trkpt lat="47.37422" lon="-1.92525">
        <ele>78</ele>
        <time>2016-04-24T09:21:53Z</time>
      </trkpt>
      <trkpt lat="47.37419" lon="-1.9253">
        <ele>78</ele>
        <time>2016-04-24T09:21:54Z</time>
      </trkpt>
      <trkpt lat="47.37416" lon="-1.92536">
        <ele>79</ele>
        <time>2016-04-24T09:21:55Z</time>
      </trkpt>
      <trkpt lat="47.37413" lon="-1.92542">
        <ele>79</ele>
        <time>2016-04-24T09:21:56Z</time>
      </trkpt>
      <trkpt lat="47.3741" lon="-1.92546">
        <ele>79</ele>
        <time>2016-04-24T09:21:57Z</time>
      </trkpt>
      <trkpt lat="47.37406" lon="-1.92552">
        <ele>79</ele>
        <time>2016-04-24T09:21:58Z</time>
      </trkpt>
      <trkpt lat="47.37404" lon="-1.92556">
        <ele>79</ele>
        <time>2016-04-24T09:21:59Z</time>
      </trkpt>
      <trkpt lat="47.37401" lon="-1.92562">
        <ele>79</ele>
        <time>2016-04-24T09:22:00Z</time>
      </trkpt>
      <trkpt lat="47.37397" lon="-1.92569">
        <ele>79</ele>
        <time>2016-04-24T09:22:01Z</time>
      </trkpt>
      <trkpt lat="47.37392" lon="-1.92574">
        <ele>79</ele>
        <time>2016-04-24T09:22:02Z</time>
      </trkpt>
      <trkpt lat="47.37389" lon="-1.92579">
        <ele>79</ele>
        <time>2016-04-24T09:22:03Z</time>
      </trkpt>
      <trkpt lat="47.37386" lon="-1.92584">
        <ele>79</ele>
        <time>2016-04-24T09:22:04Z</time>
      </trkpt>
      <trkpt lat="47.37383" lon="-1.92588">
        <ele>79</ele>
        <time>2016-04-24T09:22:05Z</time>
      </trkpt>
      <trkpt lat="47.37381" lon="-1.92593">
        <ele>79</ele>
        <time>2016-04-24T09:22:06Z</time>
      </trkpt>
      <trkpt lat="47.37379" lon="-1.92596">
        <ele>79</ele>
        <time>2016-04-24T09:22:07Z</time>
      </trkpt>
      <trkpt lat="47.37376" lon="-1.926">
        <ele>79</ele>
        <time>2016-04-24T09:22:08Z</time>
      </trkpt>
      <trkpt lat="47.37373" lon="-1.92605">
        <ele>80</ele>
        <time>2016-04-24T09:22:10Z</time>
      </trkpt>
      <trkpt lat="47.37371" lon="-1.92609">
        <ele>80</ele>
        <time>2016-04-24T09:22:11Z</time>
      </trkpt>
      <trkpt lat="47.37369" lon="-1.92613">
        <ele>80</ele>
        <time>2016-04-24T09:22:12Z</time>
      </trkpt>
      <trkpt lat="47.37365" lon="-1.92617">
        <ele>80</ele>
        <time>2016-04-24T09:22:13Z</time>
      </trkpt>
      <trkpt lat="47.37362" lon="-1.92621">
        <ele>80</ele>
        <time>2016-04-24T09:22:14Z</time>
      </trkpt>
      <trkpt lat="47.37359" lon="-1.92624">
        <ele>80</ele>
        <time>2016-04-24T09:22:15Z</time>
      </trkpt>
      <trkpt lat="47.37357" lon="-1.92628">
        <ele>80</ele>
        <time>2016-04-24T09:22:16Z</time>
      </trkpt>
      <trkpt lat="47.37354" lon="-1.92631">
        <ele>80</ele>
        <time>2016-04-24T09:22:17Z</time>
      </trkpt>
      <trkpt lat="47.37351" lon="-1.92635">
        <ele>80</ele>
        <time>2016-04-24T09:22:19Z</time>
      </trkpt>
      <trkpt lat="47.37348" lon="-1.92639">
        <ele>80</ele>
        <time>2016-04-24T09:22:21Z</time>
      </trkpt>
      <trkpt lat="47.37346" lon="-1.92644">
        <ele>80</ele>
        <time>2016-04-24T09:22:23Z</time>
      </trkpt>
      <trkpt lat="47.37345" lon="-1.92649">
        <ele>80</ele>
        <time>2016-04-24T09:22:26Z</time>
      </trkpt>
      <trkpt lat="47.37343" lon="-1.92653">
        <ele>80</ele>
        <time>2016-04-24T09:22:29Z</time>
      </trkpt>
      <trkpt lat="47.37345" lon="-1.9266">
        <ele>80</ele>
        <time>2016-04-24T09:22:31Z</time>
      </trkpt>
      <trkpt lat="47.37346" lon="-1.92664">
        <ele>80</ele>
        <time>2016-04-24T09:22:32Z</time>
      </trkpt>
      <trkpt lat="47.37348" lon="-1.92669">
        <ele>80</ele>
        <time>2016-04-24T09:22:33Z</time>
      </trkpt>
      <trkpt lat="47.37349" lon="-1.92673">
        <ele>80</ele>
        <time>2016-04-24T09:22:34Z</time>
      </trkpt>
      <trkpt lat="47.3735" lon="-1.92678">
        <ele>80</ele>
        <time>2016-04-24T09:22:35Z</time>
      </trkpt>
      <trkpt lat="47.37351" lon="-1.92684">
        <ele>80</ele>
        <time>2016-04-24T09:22:36Z</time>
      </trkpt>
      <trkpt lat="47.37351" lon="-1.92689">
        <ele>80</ele>
        <time>2016-04-24T09:22:37Z</time>
      </trkpt>
      <trkpt lat="47.37352" lon="-1.92695">
        <ele>80</ele>
        <time>2016-04-24T09:22:38Z</time>
      </trkpt>
      <trkpt lat="47.37353" lon="-1.927">
        <ele>80</ele>
        <time>2016-04-24T09:22:39Z</time>
      </trkpt>
      <trkpt lat="47.37354" lon="-1.92706">
        <ele>80</ele>
        <time>2016-04-24T09:22:40Z</time>
      </trkpt>
      <trkpt lat="47.37355" lon="-1.92712">
        <ele>80</ele>
        <time>2016-04-24T09:22:41Z</time>
      </trkpt>
      <trkpt lat="47.37357" lon="-1.92718">
        <ele>80</ele>
        <time>2016-04-24T09:22:42Z</time>
      </trkpt>
      <trkpt lat="47.37358" lon="-1.92724">
        <ele>80</ele>
        <time>2016-04-24T09:22:43Z</time>
      </trkpt>
      <trkpt lat="47.37359" lon="-1.9273">
        <ele>80</ele>
        <time>2016-04-24T09:22:44Z</time>
      </trkpt>
      <trkpt lat="47.3736" lon="-1.92736">
        <ele>80</ele>
        <time>2016-04-24T09:22:45Z</time>
      </trkpt>
      <trkpt lat="47.37361" lon="-1.92743">
        <ele>80</ele>
        <time>2016-04-24T09:22:46Z</time>
      </trkpt>
      <trkpt lat="47.37362" lon="-1.92749">
        <ele>80</ele>
        <time>2016-04-24T09:22:47Z</time>
      </trkpt>
      <trkpt lat="47.37363" lon="-1.92756">
        <ele>79</ele>
        <time>2016-04-24T09:22:48Z</time>
      </trkpt>
      <trkpt lat="47.37364" lon="-1.92763">
        <ele>79</ele>
        <time>2016-04-24T09:22:49Z</time>
      </trkpt>
      <trkpt lat="47.37365" lon="-1.9277">
        <ele>79</ele>
        <time>2016-04-24T09:22:50Z</time>
      </trkpt>
      <trkpt lat="47.37366" lon="-1.92777">
        <ele>79</ele>
        <time>2016-04-24T09:22:51Z</time>
      </trkpt>
      <trkpt lat="47.37367" lon="-1.92784">
        <ele>79</ele>
        <time>2016-04-24T09:22:52Z</time>
      </trkpt>
      <trkpt lat="47.37368" lon="-1.92791">
        <ele>79</ele>
        <time>2016-04-24T09:22:53Z</time>
      </trkpt>
      <trkpt lat="47.37369" lon="-1.92798">
        <ele>79</ele>
        <time>2016-04-24T09:22:54Z</time>
      </trkpt>
      <trkpt lat="47.3737" lon="-1.92805">
        <ele>79</ele>
        <time>2016-04-24T09:22:55Z</time>
      </trkpt>
      <trkpt lat="47.37372" lon="-1.92813">
        <ele>79</ele>
        <time>2016-04-24T09:22:56Z</time>
      </trkpt>
      <trkpt lat="47.37374" lon="-1.9282">
        <ele>79</ele>
        <time>2016-04-24T09:22:57Z</time>
      </trkpt>
      <trkpt lat="47.37374" lon="-1.92827">
        <ele>79</ele>
        <time>2016-04-24T09:22:58Z</time>
      </trkpt>
      <trkpt lat="47.37376" lon="-1.92835">
        <ele>79</ele>
        <time>2016-04-24T09:22:59Z</time>
      </trkpt>
      <trkpt lat="47.37377" lon="-1.92843">
        <ele>79</ele>
        <time>2016-04-24T09:23:00Z</time>
      </trkpt>
      <trkpt lat="47.37379" lon="-1.9285">
        <ele>79</ele>
        <time>2016-04-24T09:23:01Z</time>
      </trkpt>
      <trkpt lat="47.3738" lon="-1.92858">
        <ele>79</ele>
        <time>2016-04-24T09:23:02Z</time>
      </trkpt>
      <trkpt lat="47.37381" lon="-1.92866">
        <ele>79</ele>
        <time>2016-04-24T09:23:03Z</time>
      </trkpt>
      <trkpt lat="47.37383" lon="-1.92873">
        <ele>79</ele>
        <time>2016-04-24T09:23:04Z</time>
      </trkpt>
      <trkpt lat="47.37384" lon="-1.92882">
        <ele>79</ele>
        <time>2016-04-24T09:23:05Z</time>
      </trkpt>
      <trkpt lat="47.37386" lon="-1.92889">
        <ele>79</ele>
        <time>2016-04-24T09:23:06Z</time>
      </trkpt>
      <trkpt lat="47.37386" lon="-1.92897">
        <ele>79</ele>
        <time>2016-04-24T09:23:07Z</time>
      </trkpt>
      <trkpt lat="47.37388" lon="-1.92904">
        <ele>79</ele>
        <time>2016-04-24T09:23:08Z</time>
      </trkpt>
      <trkpt lat="47.3739" lon="-1.92911">
        <ele>79</ele>
        <time>2016-04-24T09:23:09Z</time>
      </trkpt>
      <trkpt lat="47.37392" lon="-1.92919">
        <ele>79</ele>
        <time>2016-04-24T09:23:10Z</time>
      </trkpt>
      <trkpt lat="47.37393" lon="-1.92926">
        <ele>79</ele>
        <time>2016-04-24T09:23:11Z</time>
      </trkpt>
      <trkpt lat="47.37394" lon="-1.92933">
        <ele>79</ele>
        <time>2016-04-24T09:23:12Z</time>
      </trkpt>
      <trkpt lat="47.37395" lon="-1.9294">
        <ele>79</ele>
        <time>2016-04-24T09:23:13Z</time>
      </trkpt>
      <trkpt lat="47.37397" lon="-1.92948">
        <ele>79</ele>
        <time>2016-04-24T09:23:14Z</time>
      </trkpt>
      <trkpt lat="47.37398" lon="-1.92955">
        <ele>79</ele>
        <time>2016-04-24T09:23:15Z</time>
      </trkpt>
      <trkpt lat="47.37398" lon="-1.92962">
        <ele>79</ele>
        <time>2016-04-24T09:23:16Z</time>
      </trkpt>
      <trkpt lat="47.374" lon="-1.92969">
        <ele>79</ele>
        <time>2016-04-24T09:23:17Z</time>
      </trkpt>
      <trkpt lat="47.37401" lon="-1.92976">
        <ele>79</ele>
        <time>2016-04-24T09:23:18Z</time>
      </trkpt>
      <trkpt lat="47.37403" lon="-1.92983">
        <ele>79</ele>
        <time>2016-04-24T09:23:19Z</time>
      </trkpt>
      <trkpt lat="47.37402" lon="-1.92988">
        <ele>79</ele>
        <time>2016-04-24T09:23:20Z</time>
      </trkpt>
      <trkpt lat="47.37403" lon="-1.92993">
        <ele>79</ele>
        <time>2016-04-24T09:23:21Z</time>
      </trkpt>
      <trkpt lat="47.37403" lon="-1.92998">
        <ele>79</ele>
        <time>2016-04-24T09:23:22Z</time>
      </trkpt>
      <trkpt lat="47.37404" lon="-1.93004">
        <ele>79</ele>
        <time>2016-04-24T09:23:23Z</time>
      </trkpt>
      <trkpt lat="47.37405" lon="-1.9301">
        <ele>79</ele>
        <time>2016-04-24T09:23:24Z</time>
      </trkpt>
      <trkpt lat="47.37406" lon="-1.93014">
        <ele>79</ele>
        <time>2016-04-24T09:23:25Z</time>
      </trkpt>
      <trkpt lat="47.37408" lon="-1.93018">
        <ele>79</ele>
        <time>2016-04-24T09:23:26Z</time>
      </trkpt>
      <trkpt lat="47.3741" lon="-1.93025">
        <ele>79</ele>
        <time>2016-04-24T09:23:28Z</time>
      </trkpt>
      <trkpt lat="47.3741" lon="-1.9303">
        <ele>79</ele>
        <time>2016-04-24T09:23:29Z</time>
      </trkpt>
      <trkpt lat="47.37412" lon="-1.93037">
        <ele>79</ele>
        <time>2016-04-24T09:23:31Z</time>
      </trkpt>
      <trkpt lat="47.37413" lon="-1.93041">
        <ele>79</ele>
        <time>2016-04-24T09:23:32Z</time>
      </trkpt>
      <trkpt lat="47.37413" lon="-1.93046">
        <ele>79</ele>
        <time>2016-04-24T09:23:33Z</time>
      </trkpt>
      <trkpt lat="47.37414" lon="-1.9305">
        <ele>79</ele>
        <time>2016-04-24T09:23:34Z</time>
      </trkpt>
      <trkpt lat="47.37415" lon="-1.93056">
        <ele>79</ele>
        <time>2016-04-24T09:23:35Z</time>
      </trkpt>
      <trkpt lat="47.37415" lon="-1.93061">
        <ele>79</ele>
        <time>2016-04-24T09:23:36Z</time>
      </trkpt>
      <trkpt lat="47.37416" lon="-1.93066">
        <ele>79</ele>
        <time>2016-04-24T09:23:37Z</time>
      </trkpt>
      <trkpt lat="47.37417" lon="-1.93071">
        <ele>78</ele>
        <time>2016-04-24T09:23:38Z</time>
      </trkpt>
      <trkpt lat="47.37417" lon="-1.93076">
        <ele>78</ele>
        <time>2016-04-24T09:23:39Z</time>
      </trkpt>
      <trkpt lat="47.37418" lon="-1.93081">
        <ele>78</ele>
        <time>2016-04-24T09:23:40Z</time>
      </trkpt>
      <trkpt lat="47.37419" lon="-1.93087">
        <ele>78</ele>
        <time>2016-04-24T09:23:41Z</time>
      </trkpt>
      <trkpt lat="47.3742" lon="-1.93092">
        <ele>78</ele>
        <time>2016-04-24T09:23:42Z</time>
      </trkpt>
      <trkpt lat="47.37422" lon="-1.93098">
        <ele>77</ele>
        <time>2016-04-24T09:23:43Z</time>
      </trkpt>
      <trkpt lat="47.37423" lon="-1.93103">
        <ele>77</ele>
        <time>2016-04-24T09:23:44Z</time>
      </trkpt>
      <trkpt lat="47.37424" lon="-1.93109">
        <ele>77</ele>
        <time>2016-04-24T09:23:45Z</time>
      </trkpt>
      <trkpt lat="47.37425" lon="-1.93115">
        <ele>77</ele>
        <time>2016-04-24T09:23:46Z</time>
      </trkpt>
      <trkpt lat="47.37426" lon="-1.9312">
        <ele>77</ele>
        <time>2016-04-24T09:23:47Z</time>
      </trkpt>
      <trkpt lat="47.37427" lon="-1.93126">
        <ele>77</ele>
        <time>2016-04-24T09:23:48Z</time>
      </trkpt>
      <trkpt lat="47.37428" lon="-1.93132">
        <ele>77</ele>
        <time>2016-04-24T09:23:49Z</time>
      </trkpt>
      <trkpt lat="47.37429" lon="-1.93138">
        <ele>77</ele>
        <time>2016-04-24T09:23:50Z</time>
      </trkpt>
      <trkpt lat="47.37429" lon="-1.93143">
        <ele>77</ele>
        <time>2016-04-24T09:23:51Z</time>
      </trkpt>
      <trkpt lat="47.3743" lon="-1.93148">
        <ele>77</ele>
        <time>2016-04-24T09:23:52Z</time>
      </trkpt>
      <trkpt lat="47.37431" lon="-1.93152">
        <ele>77</ele>
        <time>2016-04-24T09:23:53Z</time>
      </trkpt>
      <trkpt lat="47.37431" lon="-1.93157">
        <ele>77</ele>
        <time>2016-04-24T09:23:54Z</time>
      </trkpt>
      <trkpt lat="47.37431" lon="-1.93161">
        <ele>77</ele>
        <time>2016-04-24T09:23:55Z</time>
      </trkpt>
      <trkpt lat="47.37432" lon="-1.93166">
        <ele>77</ele>
        <time>2016-04-24T09:23:56Z</time>
      </trkpt>
      <trkpt lat="47.37432" lon="-1.9317">
        <ele>77</ele>
        <time>2016-04-24T09:23:57Z</time>
      </trkpt>
      <trkpt lat="47.37432" lon="-1.93174">
        <ele>77</ele>
        <time>2016-04-24T09:23:58Z</time>
      </trkpt>
      <trkpt lat="47.37433" lon="-1.9318">
        <ele>77</ele>
        <time>2016-04-24T09:24:00Z</time>
      </trkpt>
      <trkpt lat="47.37437" lon="-1.93183">
        <ele>77</ele>
        <time>2016-04-24T09:24:02Z</time>
      </trkpt>
      <trkpt lat="47.37439" lon="-1.93176">
        <ele>77</ele>
        <time>2016-04-24T09:24:04Z</time>
      </trkpt>
      <trkpt lat="47.37438" lon="-1.93172">
        <ele>77</ele>
        <time>2016-04-24T09:24:05Z</time>
      </trkpt>
      <trkpt lat="47.37437" lon="-1.93167">
        <ele>77</ele>
        <time>2016-04-24T09:24:06Z</time>
      </trkpt>
      <trkpt lat="47.37436" lon="-1.93162">
        <ele>77</ele>
        <time>2016-04-24T09:24:07Z</time>
      </trkpt>
      <trkpt lat="47.37435" lon="-1.93158">
        <ele>77</ele>
        <time>2016-04-24T09:24:08Z</time>
      </trkpt>
      <trkpt lat="47.37434" lon="-1.93153">
        <ele>77</ele>
        <time>2016-04-24T09:24:09Z</time>
      </trkpt>
      <trkpt lat="47.37433" lon="-1.93148">
        <ele>77</ele>
        <time>2016-04-24T09:24:10Z</time>
      </trkpt>
      <trkpt lat="47.37432" lon="-1.93143">
        <ele>77</ele>
        <time>2016-04-24T09:24:11Z</time>
      </trkpt>
      <trkpt lat="47.37431" lon="-1.93139">
        <ele>77</ele>
        <time>2016-04-24T09:24:12Z</time>
      </trkpt>
      <trkpt lat="47.3743" lon="-1.93133">
        <ele>77</ele>
        <time>2016-04-24T09:24:13Z</time>
      </trkpt>
      <trkpt lat="47.37429" lon="-1.93127">
        <ele>77</ele>
        <time>2016-04-24T09:24:14Z</time>
      </trkpt>
      <trkpt lat="47.37427" lon="-1.93121">
        <ele>77</ele>
        <time>2016-04-24T09:24:15Z</time>
      </trkpt>
      <trkpt lat="47.37426" lon="-1.93114">
        <ele>77</ele>
        <time>2016-04-24T09:24:16Z</time>
      </trkpt>
      <trkpt lat="47.37425" lon="-1.93107">
        <ele>77</ele>
        <time>2016-04-24T09:24:17Z</time>
      </trkpt>
      <trkpt lat="47.37424" lon="-1.93099">
        <ele>77</ele>
        <time>2016-04-24T09:24:18Z</time>
      </trkpt>
      <trkpt lat="47.37422" lon="-1.93092">
        <ele>78</ele>
        <time>2016-04-24T09:24:19Z</time>
      </trkpt>
      <trkpt lat="47.37422" lon="-1.93085">
        <ele>78</ele>
        <time>2016-04-24T09:24:20Z</time>
      </trkpt>
      <trkpt lat="47.37421" lon="-1.93079">
        <ele>78</ele>
        <time>2016-04-24T09:24:21Z</time>
      </trkpt>
      <trkpt lat="47.3742" lon="-1.93072">
        <ele>78</ele>
        <time>2016-04-24T09:24:22Z</time>
      </trkpt>
      <trkpt lat="47.3742" lon="-1.93065">
        <ele>77</ele>
        <time>2016-04-24T09:24:23Z</time>
      </trkpt>
      <trkpt lat="47.37419" lon="-1.93057">
        <ele>77</ele>
        <time>2016-04-24T09:24:24Z</time>
      </trkpt>
      <trkpt lat="47.37417" lon="-1.9305">
        <ele>77</ele>
        <time>2016-04-24T09:24:25Z</time>
      </trkpt>
      <trkpt lat="47.37416" lon="-1.93042">
        <ele>79</ele>
        <time>2016-04-24T09:24:26Z</time>
      </trkpt>
      <trkpt lat="47.37414" lon="-1.93034">
        <ele>79</ele>
        <time>2016-04-24T09:24:27Z</time>
      </trkpt>
      <trkpt lat="47.37413" lon="-1.93027">
        <ele>79</ele>
        <time>2016-04-24T09:24:28Z</time>
      </trkpt>
      <trkpt lat="47.37413" lon="-1.9302">
        <ele>79</ele>
        <time>2016-04-24T09:24:29Z</time>
      </trkpt>
      <trkpt lat="47.37412" lon="-1.93011">
        <ele>78</ele>
        <time>2016-04-24T09:24:30Z</time>
      </trkpt>
      <trkpt lat="47.3741" lon="-1.93006">
        <ele>78</ele>
        <time>2016-04-24T09:24:31Z</time>
      </trkpt>
      <trkpt lat="47.3741" lon="-1.92997">
        <ele>78</ele>
        <time>2016-04-24T09:24:32Z</time>
      </trkpt>
      <trkpt lat="47.37408" lon="-1.9299">
        <ele>79</ele>
        <time>2016-04-24T09:24:33Z</time>
      </trkpt>
      <trkpt lat="47.37407" lon="-1.92984">
        <ele>79</ele>
        <time>2016-04-24T09:24:34Z</time>
      </trkpt>
      <trkpt lat="47.37404" lon="-1.92978">
        <ele>79</ele>
        <time>2016-04-24T09:24:35Z</time>
      </trkpt>
      <trkpt lat="47.37404" lon="-1.9297">
        <ele>79</ele>
        <time>2016-04-24T09:24:36Z</time>
      </trkpt>
      <trkpt lat="47.37401" lon="-1.92964">
        <ele>79</ele>
        <time>2016-04-24T09:24:37Z</time>
      </trkpt>
      <trkpt lat="47.374" lon="-1.92955">
        <ele>79</ele>
        <time>2016-04-24T09:24:38Z</time>
      </trkpt>
      <trkpt lat="47.37397" lon="-1.92947">
        <ele>79</ele>
        <time>2016-04-24T09:24:39Z</time>
      </trkpt>
      <trkpt lat="47.37393" lon="-1.92939">
        <ele>79</ele>
        <time>2016-04-24T09:24:40Z</time>
      </trkpt>
      <trkpt lat="47.37392" lon="-1.92931">
        <ele>79</ele>
        <time>2016-04-24T09:24:41Z</time>
      </trkpt>
      <trkpt lat="47.37391" lon="-1.92923">
        <ele>79</ele>
        <time>2016-04-24T09:24:42Z</time>
      </trkpt>
      <trkpt lat="47.3739" lon="-1.92917">
        <ele>79</ele>
        <time>2016-04-24T09:24:43Z</time>
      </trkpt>
      <trkpt lat="47.37388" lon="-1.92911">
        <ele>79</ele>
        <time>2016-04-24T09:24:44Z</time>
      </trkpt>
      <trkpt lat="47.37387" lon="-1.92904">
        <ele>79</ele>
        <time>2016-04-24T09:24:45Z</time>
      </trkpt>
      <trkpt lat="47.37385" lon="-1.92897">
        <ele>79</ele>
        <time>2016-04-24T09:24:46Z</time>
      </trkpt>
      <trkpt lat="47.37384" lon="-1.9289">
        <ele>79</ele>
        <time>2016-04-24T09:24:47Z</time>
      </trkpt>
      <trkpt lat="47.37383" lon="-1.92883">
        <ele>79</ele>
        <time>2016-04-24T09:24:48Z</time>
      </trkpt>
      <trkpt lat="47.37382" lon="-1.92875">
        <ele>79</ele>
        <time>2016-04-24T09:24:49Z</time>
      </trkpt>
      <trkpt lat="47.3738" lon="-1.92868">
        <ele>79</ele>
        <time>2016-04-24T09:24:50Z</time>
      </trkpt>
      <trkpt lat="47.37379" lon="-1.92861">
        <ele>79</ele>
        <time>2016-04-24T09:24:51Z</time>
      </trkpt>
      <trkpt lat="47.37378" lon="-1.92855">
        <ele>79</ele>
        <time>2016-04-24T09:24:52Z</time>
      </trkpt>
      <trkpt lat="47.37378" lon="-1.92848">
        <ele>79</ele>
        <time>2016-04-24T09:24:53Z</time>
      </trkpt>
      <trkpt lat="47.37375" lon="-1.92841">
        <ele>79</ele>
        <time>2016-04-24T09:24:54Z</time>
      </trkpt>
      <trkpt lat="47.37374" lon="-1.92834">
        <ele>79</ele>
        <time>2016-04-24T09:24:55Z</time>
      </trkpt>
      <trkpt lat="47.37374" lon="-1.92826">
        <ele>79</ele>
        <time>2016-04-24T09:24:56Z</time>
      </trkpt>
      <trkpt lat="47.37372" lon="-1.9282">
        <ele>79</ele>
        <time>2016-04-24T09:24:57Z</time>
      </trkpt>
      <trkpt lat="47.37371" lon="-1.92812">
        <ele>79</ele>
        <time>2016-04-24T09:24:58Z</time>
      </trkpt>
      <trkpt lat="47.37368" lon="-1.92805">
        <ele>79</ele>
        <time>2016-04-24T09:24:59Z</time>
      </trkpt>
      <trkpt lat="47.37366" lon="-1.92797">
        <ele>79</ele>
        <time>2016-04-24T09:25:00Z</time>
      </trkpt>
      <trkpt lat="47.37365" lon="-1.92789">
        <ele>79</ele>
        <time>2016-04-24T09:25:01Z</time>
      </trkpt>
      <trkpt lat="47.37365" lon="-1.92782">
        <ele>79</ele>
        <time>2016-04-24T09:25:02Z</time>
      </trkpt>
      <trkpt lat="47.37364" lon="-1.92776">
        <ele>79</ele>
        <time>2016-04-24T09:25:03Z</time>
      </trkpt>
      <trkpt lat="47.37362" lon="-1.92769">
        <ele>79</ele>
        <time>2016-04-24T09:25:04Z</time>
      </trkpt>
      <trkpt lat="47.37361" lon="-1.92761">
        <ele>79</ele>
        <time>2016-04-24T09:25:05Z</time>
      </trkpt>
      <trkpt lat="47.3736" lon="-1.92754">
        <ele>80</ele>
        <time>2016-04-24T09:25:06Z</time>
      </trkpt>
      <trkpt lat="47.37359" lon="-1.92746">
        <ele>80</ele>
        <time>2016-04-24T09:25:07Z</time>
      </trkpt>
      <trkpt lat="47.37358" lon="-1.9274">
        <ele>80</ele>
        <time>2016-04-24T09:25:08Z</time>
      </trkpt>
      <trkpt lat="47.37356" lon="-1.92733">
        <ele>80</ele>
        <time>2016-04-24T09:25:09Z</time>
      </trkpt>
      <trkpt lat="47.37355" lon="-1.92726">
        <ele>80</ele>
        <time>2016-04-24T09:25:10Z</time>
      </trkpt>
      <trkpt lat="47.37354" lon="-1.92719">
        <ele>80</ele>
        <time>2016-04-24T09:25:11Z</time>
      </trkpt>
      <trkpt lat="47.37353" lon="-1.92712">
        <ele>80</ele>
        <time>2016-04-24T09:25:12Z</time>
      </trkpt>
      <trkpt lat="47.37351" lon="-1.92704">
        <ele>80</ele>
        <time>2016-04-24T09:25:13Z</time>
      </trkpt>
      <trkpt lat="47.37351" lon="-1.92696">
        <ele>80</ele>
        <time>2016-04-24T09:25:14Z</time>
      </trkpt>
      <trkpt lat="47.37349" lon="-1.9269">
        <ele>80</ele>
        <time>2016-04-24T09:25:15Z</time>
      </trkpt>
      <trkpt lat="47.37348" lon="-1.92683">
        <ele>80</ele>
        <time>2016-04-24T09:25:16Z</time>
      </trkpt>
      <trkpt lat="47.37347" lon="-1.92676">
        <ele>80</ele>
        <time>2016-04-24T09:25:17Z</time>
      </trkpt>
      <trkpt lat="47.37347" lon="-1.92669">
        <ele>80</ele>
        <time>2016-04-24T09:25:18Z</time>
      </trkpt>
      <trkpt lat="47.37346" lon="-1.92663">
        <ele>80</ele>
        <time>2016-04-24T09:25:19Z</time>
      </trkpt>
      <trkpt lat="47.37345" lon="-1.92658">
        <ele>80</ele>
        <time>2016-04-24T09:25:20Z</time>
      </trkpt>
      <trkpt lat="47.37344" lon="-1.92653">
        <ele>80</ele>
        <time>2016-04-24T09:25:21Z</time>
      </trkpt>
      <trkpt lat="47.37343" lon="-1.92645">
        <ele>80</ele>
        <time>2016-04-24T09:25:23Z</time>
      </trkpt>
      <trkpt lat="47.37342" lon="-1.92637">
        <ele>80</ele>
        <time>2016-04-24T09:25:25Z</time>
      </trkpt>
      <trkpt lat="47.3734" lon="-1.92632">
        <ele>80</ele>
        <time>2016-04-24T09:25:26Z</time>
      </trkpt>
      <trkpt lat="47.37339" lon="-1.92626">
        <ele>80</ele>
        <time>2016-04-24T09:25:27Z</time>
      </trkpt>
      <trkpt lat="47.37338" lon="-1.92619">
        <ele>80</ele>
        <time>2016-04-24T09:25:28Z</time>
      </trkpt>
      <trkpt lat="47.37337" lon="-1.92614">
        <ele>80</ele>
        <time>2016-04-24T09:25:29Z</time>
      </trkpt>
      <trkpt lat="47.37336" lon="-1.92608">
        <ele>80</ele>
        <time>2016-04-24T09:25:30Z</time>
      </trkpt>
      <trkpt lat="47.37335" lon="-1.92601">
        <ele>80</ele>
        <time>2016-04-24T09:25:31Z</time>
      </trkpt>
      <trkpt lat="47.37334" lon="-1.92594">
        <ele>80</ele>
        <time>2016-04-24T09:25:32Z</time>
      </trkpt>
      <trkpt lat="47.37333" lon="-1.92586">
        <ele>80</ele>
        <time>2016-04-24T09:25:33Z</time>
      </trkpt>
      <trkpt lat="47.37331" lon="-1.9258">
        <ele>80</ele>
        <time>2016-04-24T09:25:34Z</time>
      </trkpt>
      <trkpt lat="47.3733" lon="-1.92574">
        <ele>80</ele>
        <time>2016-04-24T09:25:35Z</time>
      </trkpt>
      <trkpt lat="47.37328" lon="-1.92566">
        <ele>80</ele>
        <time>2016-04-24T09:25:36Z</time>
      </trkpt>
      <trkpt lat="47.37327" lon="-1.92558">
        <ele>80</ele>
        <time>2016-04-24T09:25:37Z</time>
      </trkpt>
      <trkpt lat="47.37324" lon="-1.9255">
        <ele>80</ele>
        <time>2016-04-24T09:25:38Z</time>
      </trkpt>
      <trkpt lat="47.37323" lon="-1.92542">
        <ele>80</ele>
        <time>2016-04-24T09:25:39Z</time>
      </trkpt>
      <trkpt lat="47.37321" lon="-1.92533">
        <ele>80</ele>
        <time>2016-04-24T09:25:40Z</time>
      </trkpt>
      <trkpt lat="47.3732" lon="-1.92526">
        <ele>80</ele>
        <time>2016-04-24T09:25:41Z</time>
      </trkpt>
      <trkpt lat="47.37318" lon="-1.92517">
        <ele>80</ele>
        <time>2016-04-24T09:25:42Z</time>
      </trkpt>
      <trkpt lat="47.37317" lon="-1.92509">
        <ele>80</ele>
        <time>2016-04-24T09:25:43Z</time>
      </trkpt>
      <trkpt lat="47.37315" lon="-1.92501">
        <ele>80</ele>
        <time>2016-04-24T09:25:44Z</time>
      </trkpt>
      <trkpt lat="47.37314" lon="-1.92494">
        <ele>79</ele>
        <time>2016-04-24T09:25:45Z</time>
      </trkpt>
      <trkpt lat="47.37312" lon="-1.92485">
        <ele>79</ele>
        <time>2016-04-24T09:25:46Z</time>
      </trkpt>
      <trkpt lat="47.37311" lon="-1.92476">
        <ele>80</ele>
        <time>2016-04-24T09:25:47Z</time>
      </trkpt>
      <trkpt lat="47.37309" lon="-1.92469">
        <ele>80</ele>
        <time>2016-04-24T09:25:48Z</time>
      </trkpt>
      <trkpt lat="47.37308" lon="-1.92461">
        <ele>80</ele>
        <time>2016-04-24T09:25:49Z</time>
      </trkpt>
      <trkpt lat="47.37307" lon="-1.92454">
        <ele>80</ele>
        <time>2016-04-24T09:25:50Z</time>
      </trkpt>
      <trkpt lat="47.37306" lon="-1.92447">
        <ele>80</ele>
        <time>2016-04-24T09:25:51Z</time>
      </trkpt>
      <trkpt lat="47.37303" lon="-1.92438">
        <ele>80</ele>
        <time>2016-04-24T09:25:52Z</time>
      </trkpt>
      <trkpt lat="47.37303" lon="-1.9243">
        <ele>80</ele>
        <time>2016-04-24T09:25:53Z</time>
      </trkpt>
      <trkpt lat="47.37301" lon="-1.92423">
        <ele>80</ele>
        <time>2016-04-24T09:25:54Z</time>
      </trkpt>
      <trkpt lat="47.37301" lon="-1.92415">
        <ele>80</ele>
        <time>2016-04-24T09:25:55Z</time>
      </trkpt>
      <trkpt lat="47.37299" lon="-1.92406">
        <ele>80</ele>
        <time>2016-04-24T09:25:56Z</time>
      </trkpt>
      <trkpt lat="47.37298" lon="-1.92399">
        <ele>80</ele>
        <time>2016-04-24T09:25:57Z</time>
      </trkpt>
      <trkpt lat="47.37297" lon="-1.92391">
        <ele>80</ele>
        <time>2016-04-24T09:25:58Z</time>
      </trkpt>
      <trkpt lat="47.37295" lon="-1.92382">
        <ele>80</ele>
        <time>2016-04-24T09:25:59Z</time>
      </trkpt>
      <trkpt lat="47.37294" lon="-1.92373">
        <ele>80</ele>
        <time>2016-04-24T09:26:00Z</time>
      </trkpt>
      <trkpt lat="47.37293" lon="-1.92366">
        <ele>80</ele>
        <time>2016-04-24T09:26:01Z</time>
      </trkpt>
      <trkpt lat="47.37291" lon="-1.92358">
        <ele>80</ele>
        <time>2016-04-24T09:26:02Z</time>
      </trkpt>
      <trkpt lat="47.37291" lon="-1.92349">
        <ele>80</ele>
        <time>2016-04-24T09:26:03Z</time>
      </trkpt>
      <trkpt lat="47.37289" lon="-1.92341">
        <ele>80</ele>
        <time>2016-04-24T09:26:04Z</time>
      </trkpt>
      <trkpt lat="47.37288" lon="-1.92333">
        <ele>80</ele>
        <time>2016-04-24T09:26:05Z</time>
      </trkpt>
      <trkpt lat="47.37287" lon="-1.92326">
        <ele>80</ele>
        <time>2016-04-24T09:26:06Z</time>
      </trkpt>
      <trkpt lat="47.37286" lon="-1.92319">
        <ele>80</ele>
        <time>2016-04-24T09:26:07Z</time>
      </trkpt>
      <trkpt lat="47.37285" lon="-1.92311">
        <ele>80</ele>
        <time>2016-04-24T09:26:08Z</time>
      </trkpt>
      <trkpt lat="47.37283" lon="-1.92303">
        <ele>80</ele>
        <time>2016-04-24T09:26:09Z</time>
      </trkpt>
      <trkpt lat="47.37282" lon="-1.92293">
        <ele>80</ele>
        <time>2016-04-24T09:26:10Z</time>
      </trkpt>
      <trkpt lat="47.3728" lon="-1.92286">
        <ele>80</ele>
        <time>2016-04-24T09:26:11Z</time>
      </trkpt>
      <trkpt lat="47.37277" lon="-1.92277">
        <ele>80</ele>
        <time>2016-04-24T09:26:12Z</time>
      </trkpt>
      <trkpt lat="47.37276" lon="-1.92268">
        <ele>80</ele>
        <time>2016-04-24T09:26:13Z</time>
      </trkpt>
      <trkpt lat="47.37275" lon="-1.9226">
        <ele>81</ele>
        <time>2016-04-24T09:26:14Z</time>
      </trkpt>
      <trkpt lat="47.37274" lon="-1.92251">
        <ele>81</ele>
        <time>2016-04-24T09:26:15Z</time>
      </trkpt>
      <trkpt lat="47.37272" lon="-1.92244">
        <ele>82</ele>
        <time>2016-04-24T09:26:16Z</time>
      </trkpt>
      <trkpt lat="47.3727" lon="-1.92235">
        <ele>82</ele>
        <time>2016-04-24T09:26:17Z</time>
      </trkpt>
      <trkpt lat="47.37269" lon="-1.92226">
        <ele>82</ele>
        <time>2016-04-24T09:26:18Z</time>
      </trkpt>
      <trkpt lat="47.37268" lon="-1.92219">
        <ele>82</ele>
        <time>2016-04-24T09:26:19Z</time>
      </trkpt>
      <trkpt lat="47.37267" lon="-1.92211">
        <ele>82</ele>
        <time>2016-04-24T09:26:20Z</time>
      </trkpt>
      <trkpt lat="47.37265" lon="-1.92202">
        <ele>82</ele>
        <time>2016-04-24T09:26:21Z</time>
      </trkpt>
      <trkpt lat="47.37265" lon="-1.92195">
        <ele>82</ele>
        <time>2016-04-24T09:26:22Z</time>
      </trkpt>
      <trkpt lat="47.37264" lon="-1.92188">
        <ele>83</ele>
        <time>2016-04-24T09:26:23Z</time>
      </trkpt>
      <trkpt lat="47.37263" lon="-1.92182">
        <ele>83</ele>
        <time>2016-04-24T09:26:24Z</time>
      </trkpt>
      <trkpt lat="47.37262" lon="-1.92173">
        <ele>83</ele>
        <time>2016-04-24T09:26:25Z</time>
      </trkpt>
      <trkpt lat="47.37261" lon="-1.92166">
        <ele>84</ele>
        <time>2016-04-24T09:26:26Z</time>
      </trkpt>
      <trkpt lat="47.3726" lon="-1.92157">
        <ele>84</ele>
        <time>2016-04-24T09:26:27Z</time>
      </trkpt>
      <trkpt lat="47.37259" lon="-1.9215">
        <ele>83</ele>
        <time>2016-04-24T09:26:28Z</time>
      </trkpt>
      <trkpt lat="47.37258" lon="-1.92142">
        <ele>83</ele>
        <time>2016-04-24T09:26:29Z</time>
      </trkpt>
      <trkpt lat="47.37256" lon="-1.92134">
        <ele>83</ele>
        <time>2016-04-24T09:26:30Z</time>
      </trkpt>
      <trkpt lat="47.37255" lon="-1.92127">
        <ele>82</ele>
        <time>2016-04-24T09:26:31Z</time>
      </trkpt>
      <trkpt lat="47.37253" lon="-1.92119">
        <ele>82</ele>
        <time>2016-04-24T09:26:32Z</time>
      </trkpt>
      <trkpt lat="47.37251" lon="-1.92109">
        <ele>82</ele>
        <time>2016-04-24T09:26:33Z</time>
      </trkpt>
      <trkpt lat="47.37251" lon="-1.92105">
        <ele>82</ele>
        <time>2016-04-24T09:26:34Z</time>
      </trkpt>
      <trkpt lat="47.37249" lon="-1.92091">
        <ele>82</ele>
        <time>2016-04-24T09:26:36Z</time>
      </trkpt>
      <trkpt lat="47.37248" lon="-1.92083">
        <ele>82</ele>
        <time>2016-04-24T09:26:37Z</time>
      </trkpt>
      <trkpt lat="47.37245" lon="-1.92074">
        <ele>82</ele>
        <time>2016-04-24T09:26:38Z</time>
      </trkpt>
      <trkpt lat="47.37243" lon="-1.92063">
        <ele>82</ele>
        <time>2016-04-24T09:26:39Z</time>
      </trkpt>
      <trkpt lat="47.37242" lon="-1.92057">
        <ele>82</ele>
        <time>2016-04-24T09:26:40Z</time>
      </trkpt>
      <trkpt lat="47.3724" lon="-1.92051">
        <ele>82</ele>
        <time>2016-04-24T09:26:41Z</time>
      </trkpt>
      <trkpt lat="47.37239" lon="-1.92043">
        <ele>82</ele>
        <time>2016-04-24T09:26:42Z</time>
      </trkpt>
      <trkpt lat="47.37239" lon="-1.92035">
        <ele>81</ele>
        <time>2016-04-24T09:26:43Z</time>
      </trkpt>
      <trkpt lat="47.37237" lon="-1.92027">
        <ele>81</ele>
        <time>2016-04-24T09:26:44Z</time>
      </trkpt>
      <trkpt lat="47.37235" lon="-1.9202">
        <ele>81</ele>
        <time>2016-04-24T09:26:45Z</time>
      </trkpt>
      <trkpt lat="47.37234" lon="-1.92012">
        <ele>81</ele>
        <time>2016-04-24T09:26:46Z</time>
      </trkpt>
      <trkpt lat="47.37233" lon="-1.92004">
        <ele>81</ele>
        <time>2016-04-24T09:26:47Z</time>
      </trkpt>
      <trkpt lat="47.37231" lon="-1.91997">
        <ele>81</ele>
        <time>2016-04-24T09:26:48Z</time>
      </trkpt>
      <trkpt lat="47.37231" lon="-1.91992">
        <ele>81</ele>
        <time>2016-04-24T09:26:49Z</time>
      </trkpt>
      <trkpt lat="47.37229" lon="-1.91984">
        <ele>81</ele>
        <time>2016-04-24T09:26:50Z</time>
      </trkpt>
      <trkpt lat="47.37228" lon="-1.91977">
        <ele>81</ele>
        <time>2016-04-24T09:26:51Z</time>
      </trkpt>
      <trkpt lat="47.37227" lon="-1.9197">
        <ele>81</ele>
        <time>2016-04-24T09:26:52Z</time>
      </trkpt>
      <trkpt lat="47.37226" lon="-1.91963">
        <ele>81</ele>
        <time>2016-04-24T09:26:53Z</time>
      </trkpt>
      <trkpt lat="47.37224" lon="-1.91956">
        <ele>81</ele>
        <time>2016-04-24T09:26:54Z</time>
      </trkpt>
      <trkpt lat="47.37223" lon="-1.91948">
        <ele>81</ele>
        <time>2016-04-24T09:26:55Z</time>
      </trkpt>
      <trkpt lat="47.37223" lon="-1.91939">
        <ele>81</ele>
        <time>2016-04-24T09:26:56Z</time>
      </trkpt>
      <trkpt lat="47.37222" lon="-1.91931">
        <ele>81</ele>
        <time>2016-04-24T09:26:57Z</time>
      </trkpt>
      <trkpt lat="47.3722" lon="-1.91923">
        <ele>81</ele>
        <time>2016-04-24T09:26:58Z</time>
      </trkpt>
      <trkpt lat="47.37218" lon="-1.91917">
        <ele>81</ele>
        <time>2016-04-24T09:26:59Z</time>
      </trkpt>
      <trkpt lat="47.37216" lon="-1.9191">
        <ele>80</ele>
        <time>2016-04-24T09:27:00Z</time>
      </trkpt>
      <trkpt lat="47.37214" lon="-1.91903">
        <ele>80</ele>
        <time>2016-04-24T09:27:01Z</time>
      </trkpt>
      <trkpt lat="47.37213" lon="-1.91896">
        <ele>80</ele>
        <time>2016-04-24T09:27:02Z</time>
      </trkpt>
      <trkpt lat="47.37211" lon="-1.9189">
        <ele>80</ele>
        <time>2016-04-24T09:27:03Z</time>
      </trkpt>
      <trkpt lat="47.37209" lon="-1.91883">
        <ele>80</ele>
        <time>2016-04-24T09:27:04Z</time>
      </trkpt>
      <trkpt lat="47.37207" lon="-1.91876">
        <ele>80</ele>
        <time>2016-04-24T09:27:05Z</time>
      </trkpt>
      <trkpt lat="47.37205" lon="-1.91869">
        <ele>80</ele>
        <time>2016-04-24T09:27:06Z</time>
      </trkpt>
      <trkpt lat="47.37203" lon="-1.91864">
        <ele>80</ele>
        <time>2016-04-24T09:27:07Z</time>
      </trkpt>
      <trkpt lat="47.37199" lon="-1.91856">
        <ele>80</ele>
        <time>2016-04-24T09:27:08Z</time>
      </trkpt>
      <trkpt lat="47.37198" lon="-1.91851">
        <ele>80</ele>
        <time>2016-04-24T09:27:09Z</time>
      </trkpt>
      <trkpt lat="47.37195" lon="-1.91843">
        <ele>80</ele>
        <time>2016-04-24T09:27:10Z</time>
      </trkpt>
      <trkpt lat="47.37193" lon="-1.91838">
        <ele>80</ele>
        <time>2016-04-24T09:27:11Z</time>
      </trkpt>
      <trkpt lat="47.3719" lon="-1.91831">
        <ele>80</ele>
        <time>2016-04-24T09:27:12Z</time>
      </trkpt>
      <trkpt lat="47.37188" lon="-1.91826">
        <ele>80</ele>
        <time>2016-04-24T09:27:13Z</time>
      </trkpt>
      <trkpt lat="47.37186" lon="-1.91818">
        <ele>80</ele>
        <time>2016-04-24T09:27:14Z</time>
      </trkpt>
      <trkpt lat="47.37184" lon="-1.91812">
        <ele>80</ele>
        <time>2016-04-24T09:27:15Z</time>
      </trkpt>
      <trkpt lat="47.37182" lon="-1.91805">
        <ele>81</ele>
        <time>2016-04-24T09:27:16Z</time>
      </trkpt>
      <trkpt lat="47.37181" lon="-1.918">
        <ele>81</ele>
        <time>2016-04-24T09:27:17Z</time>
      </trkpt>
      <trkpt lat="47.37177" lon="-1.91796">
        <ele>81</ele>
        <time>2016-04-24T09:27:18Z</time>
      </trkpt>
      <trkpt lat="47.37172" lon="-1.91793">
        <ele>81</ele>
        <time>2016-04-24T09:27:19Z</time>
      </trkpt>
      <trkpt lat="47.37167" lon="-1.91791">
        <ele>81</ele>
        <time>2016-04-24T09:27:20Z</time>
      </trkpt>
      <trkpt lat="47.37162" lon="-1.91792">
        <ele>82</ele>
        <time>2016-04-24T09:27:21Z</time>
      </trkpt>
      <trkpt lat="47.37157" lon="-1.91792">
        <ele>82</ele>
        <time>2016-04-24T09:27:22Z</time>
      </trkpt>
      <trkpt lat="47.37152" lon="-1.91792">
        <ele>82</ele>
        <time>2016-04-24T09:27:23Z</time>
      </trkpt>
      <trkpt lat="47.37147" lon="-1.9179">
        <ele>82</ele>
        <time>2016-04-24T09:27:24Z</time>
      </trkpt>
      <trkpt lat="47.37142" lon="-1.91788">
        <ele>82</ele>
        <time>2016-04-24T09:27:25Z</time>
      </trkpt>
      <trkpt lat="47.37137" lon="-1.91784">
        <ele>82</ele>
        <time>2016-04-24T09:27:26Z</time>
      </trkpt>
      <trkpt lat="47.37132" lon="-1.9178">
        <ele>82</ele>
        <time>2016-04-24T09:27:27Z</time>
      </trkpt>
      <trkpt lat="47.37128" lon="-1.91774">
        <ele>82</ele>
        <time>2016-04-24T09:27:28Z</time>
      </trkpt>
      <trkpt lat="47.37124" lon="-1.91767">
        <ele>82</ele>
        <time>2016-04-24T09:27:29Z</time>
      </trkpt>
      <trkpt lat="47.3712" lon="-1.91761">
        <ele>82</ele>
        <time>2016-04-24T09:27:30Z</time>
      </trkpt>
      <trkpt lat="47.37115" lon="-1.91756">
        <ele>82</ele>
        <time>2016-04-24T09:27:31Z</time>
      </trkpt>
      <trkpt lat="47.37109" lon="-1.91754">
        <ele>82</ele>
        <time>2016-04-24T09:27:32Z</time>
      </trkpt>
      <trkpt lat="47.37103" lon="-1.91754">
        <ele>83</ele>
        <time>2016-04-24T09:27:33Z</time>
      </trkpt>
      <trkpt lat="47.37096" lon="-1.91756">
        <ele>83</ele>
        <time>2016-04-24T09:27:34Z</time>
      </trkpt>
      <trkpt lat="47.37088" lon="-1.91757">
        <ele>83</ele>
        <time>2016-04-24T09:27:35Z</time>
      </trkpt>
      <trkpt lat="47.37081" lon="-1.91759">
        <ele>83</ele>
        <time>2016-04-24T09:27:36Z</time>
      </trkpt>
      <trkpt lat="47.37075" lon="-1.91768">
        <ele>83</ele>
        <time>2016-04-24T09:27:37Z</time>
      </trkpt>
      <trkpt lat="47.3707" lon="-1.91775">
        <ele>83</ele>
        <time>2016-04-24T09:27:38Z</time>
      </trkpt>
      <trkpt lat="47.37065" lon="-1.91782">
        <ele>83</ele>
        <time>2016-04-24T09:27:39Z</time>
      </trkpt>
      <trkpt lat="47.37059" lon="-1.9179">
        <ele>83</ele>
        <time>2016-04-24T09:27:40Z</time>
      </trkpt>
      <trkpt lat="47.37055" lon="-1.91798">
        <ele>82</ele>
        <time>2016-04-24T09:27:41Z</time>
      </trkpt>
      <trkpt lat="47.37048" lon="-1.91806">
        <ele>82</ele>
        <time>2016-04-24T09:27:42Z</time>
      </trkpt>
      <trkpt lat="47.37041" lon="-1.91815">
        <ele>83</ele>
        <time>2016-04-24T09:27:43Z</time>
      </trkpt>
      <trkpt lat="47.37037" lon="-1.91823">
        <ele>83</ele>
        <time>2016-04-24T09:27:44Z</time>
      </trkpt>
      <trkpt lat="47.37031" lon="-1.91831">
        <ele>83</ele>
        <time>2016-04-24T09:27:45Z</time>
      </trkpt>
      <trkpt lat="47.37026" lon="-1.91837">
        <ele>83</ele>
        <time>2016-04-24T09:27:46Z</time>
      </trkpt>
      <trkpt lat="47.37021" lon="-1.91844">
        <ele>83</ele>
        <time>2016-04-24T09:27:47Z</time>
      </trkpt>
      <trkpt lat="47.37015" lon="-1.91852">
        <ele>83</ele>
        <time>2016-04-24T09:27:48Z</time>
      </trkpt>
      <trkpt lat="47.37009" lon="-1.9186">
        <ele>83</ele>
        <time>2016-04-24T09:27:49Z</time>
      </trkpt>
      <trkpt lat="47.37003" lon="-1.91867">
        <ele>83</ele>
        <time>2016-04-24T09:27:50Z</time>
      </trkpt>
      <trkpt lat="47.36998" lon="-1.91875">
        <ele>83</ele>
        <time>2016-04-24T09:27:51Z</time>
      </trkpt>
      <trkpt lat="47.36988" lon="-1.91883">
        <ele>83</ele>
        <time>2016-04-24T09:27:52Z</time>
      </trkpt>
      <trkpt lat="47.36986" lon="-1.91891">
        <ele>83</ele>
        <time>2016-04-24T09:27:53Z</time>
      </trkpt>
      <trkpt lat="47.36965" lon="-1.91903">
        <ele>83</ele>
        <time>2016-04-24T09:27:55Z</time>
      </trkpt>
      <trkpt lat="47.3696" lon="-1.91913">
        <ele>83</ele>
        <time>2016-04-24T09:27:56Z</time>
      </trkpt>
      <trkpt lat="47.36958" lon="-1.91923">
        <ele>82</ele>
        <time>2016-04-24T09:27:57Z</time>
      </trkpt>
      <trkpt lat="47.36953" lon="-1.91932">
        <ele>82</ele>
        <time>2016-04-24T09:27:58Z</time>
      </trkpt>
      <trkpt lat="47.36953" lon="-1.9194">
        <ele>82</ele>
        <time>2016-04-24T09:27:59Z</time>
      </trkpt>
      <trkpt lat="47.36952" lon="-1.91949">
        <ele>82</ele>
        <time>2016-04-24T09:28:00Z</time>
      </trkpt>
      <trkpt lat="47.36945" lon="-1.91956">
        <ele>82</ele>
        <time>2016-04-24T09:28:01Z</time>
      </trkpt>
      <trkpt lat="47.36939" lon="-1.91963">
        <ele>82</ele>
        <time>2016-04-24T09:28:02Z</time>
      </trkpt>
      <trkpt lat="47.36937" lon="-1.91971">
        <ele>82</ele>
        <time>2016-04-24T09:28:03Z</time>
      </trkpt>
      <trkpt lat="47.36935" lon="-1.91978">
        <ele>82</ele>
        <time>2016-04-24T09:28:04Z</time>
      </trkpt>
      <trkpt lat="47.36933" lon="-1.91984">
        <ele>82</ele>
        <time>2016-04-24T09:28:05Z</time>
      </trkpt>
      <trkpt lat="47.36928" lon="-1.9199">
        <ele>81</ele>
        <time>2016-04-24T09:28:06Z</time>
      </trkpt>
      <trkpt lat="47.36925" lon="-1.91995">
        <ele>81</ele>
        <time>2016-04-24T09:28:07Z</time>
      </trkpt>
      <trkpt lat="47.36921" lon="-1.92">
        <ele>81</ele>
        <time>2016-04-24T09:28:08Z</time>
      </trkpt>
      <trkpt lat="47.36921" lon="-1.92007">
        <ele>81</ele>
        <time>2016-04-24T09:28:09Z</time>
      </trkpt>
      <trkpt lat="47.36919" lon="-1.92015">
        <ele>81</ele>
        <time>2016-04-24T09:28:10Z</time>
      </trkpt>
      <trkpt lat="47.36918" lon="-1.9202">
        <ele>81</ele>
        <time>2016-04-24T09:28:11Z</time>
      </trkpt>
      <trkpt lat="47.36917" lon="-1.92027">
        <ele>80</ele>
        <time>2016-04-24T09:28:12Z</time>
      </trkpt>
      <trkpt lat="47.36916" lon="-1.92034">
        <ele>80</ele>
        <time>2016-04-24T09:28:13Z</time>
      </trkpt>
      <trkpt lat="47.36914" lon="-1.9204">
        <ele>80</ele>
        <time>2016-04-24T09:28:14Z</time>
      </trkpt>
      <trkpt lat="47.36914" lon="-1.92045">
        <ele>79</ele>
        <time>2016-04-24T09:28:15Z</time>
      </trkpt>
      <trkpt lat="47.36912" lon="-1.92052">
        <ele>79</ele>
        <time>2016-04-24T09:28:16Z</time>
      </trkpt>
      <trkpt lat="47.36908" lon="-1.92058">
        <ele>79</ele>
        <time>2016-04-24T09:28:17Z</time>
      </trkpt>
      <trkpt lat="47.36905" lon="-1.92064">
        <ele>79</ele>
        <time>2016-04-24T09:28:18Z</time>
      </trkpt>
      <trkpt lat="47.36903" lon="-1.92071">
        <ele>79</ele>
        <time>2016-04-24T09:28:19Z</time>
      </trkpt>
      <trkpt lat="47.36901" lon="-1.92078">
        <ele>79</ele>
        <time>2016-04-24T09:28:20Z</time>
      </trkpt>
      <trkpt lat="47.36898" lon="-1.92085">
        <ele>79</ele>
        <time>2016-04-24T09:28:21Z</time>
      </trkpt>
      <trkpt lat="47.36897" lon="-1.92092">
        <ele>79</ele>
        <time>2016-04-24T09:28:22Z</time>
      </trkpt>
      <trkpt lat="47.36899" lon="-1.92101">
        <ele>79</ele>
        <time>2016-04-24T09:28:23Z</time>
      </trkpt>
      <trkpt lat="47.36897" lon="-1.92109">
        <ele>79</ele>
        <time>2016-04-24T09:28:24Z</time>
      </trkpt>
      <trkpt lat="47.36898" lon="-1.92118">
        <ele>79</ele>
        <time>2016-04-24T09:28:25Z</time>
      </trkpt>
      <trkpt lat="47.36898" lon="-1.92128">
        <ele>79</ele>
        <time>2016-04-24T09:28:26Z</time>
      </trkpt>
      <trkpt lat="47.36897" lon="-1.92138">
        <ele>79</ele>
        <time>2016-04-24T09:28:27Z</time>
      </trkpt>
      <trkpt lat="47.36897" lon="-1.92145">
        <ele>79</ele>
        <time>2016-04-24T09:28:28Z</time>
      </trkpt>
      <trkpt lat="47.36897" lon="-1.92153">
        <ele>79</ele>
        <time>2016-04-24T09:28:29Z</time>
      </trkpt>
      <trkpt lat="47.36895" lon="-1.92161">
        <ele>79</ele>
        <time>2016-04-24T09:28:30Z</time>
      </trkpt>
      <trkpt lat="47.36894" lon="-1.9217">
        <ele>79</ele>
        <time>2016-04-24T09:28:31Z</time>
      </trkpt>
      <trkpt lat="47.36894" lon="-1.92178">
        <ele>79</ele>
        <time>2016-04-24T09:28:32Z</time>
      </trkpt>
      <trkpt lat="47.36895" lon="-1.92185">
        <ele>79</ele>
        <time>2016-04-24T09:28:33Z</time>
      </trkpt>
      <trkpt lat="47.36895" lon="-1.92192">
        <ele>79</ele>
        <time>2016-04-24T09:28:34Z</time>
      </trkpt>
      <trkpt lat="47.36896" lon="-1.922">
        <ele>79</ele>
        <time>2016-04-24T09:28:35Z</time>
      </trkpt>
      <trkpt lat="47.36896" lon="-1.92207">
        <ele>79</ele>
        <time>2016-04-24T09:28:36Z</time>
      </trkpt>
      <trkpt lat="47.36897" lon="-1.92215">
        <ele>79</ele>
        <time>2016-04-24T09:28:37Z</time>
      </trkpt>
      <trkpt lat="47.36897" lon="-1.92223">
        <ele>79</ele>
        <time>2016-04-24T09:28:38Z</time>
      </trkpt>
      <trkpt lat="47.36897" lon="-1.92232">
        <ele>80</ele>
        <time>2016-04-24T09:28:39Z</time>
      </trkpt>
      <trkpt lat="47.36897" lon="-1.9224">
        <ele>80</ele>
        <time>2016-04-24T09:28:40Z</time>
      </trkpt>
      <trkpt lat="47.36897" lon="-1.92247">
        <ele>80</ele>
        <time>2016-04-24T09:28:41Z</time>
      </trkpt>
      <trkpt lat="47.36897" lon="-1.92254">
        <ele>80</ele>
        <time>2016-04-24T09:28:42Z</time>
      </trkpt>
      <trkpt lat="47.36896" lon="-1.92262">
        <ele>80</ele>
        <time>2016-04-24T09:28:43Z</time>
      </trkpt>
      <trkpt lat="47.36897" lon="-1.9227">
        <ele>80</ele>
        <time>2016-04-24T09:28:44Z</time>
      </trkpt>
      <trkpt lat="47.36896" lon="-1.92277">
        <ele>80</ele>
        <time>2016-04-24T09:28:45Z</time>
      </trkpt>
      <trkpt lat="47.36896" lon="-1.92284">
        <ele>80</ele>
        <time>2016-04-24T09:28:46Z</time>
      </trkpt>
      <trkpt lat="47.36896" lon="-1.9229">
        <ele>80</ele>
        <time>2016-04-24T09:28:47Z</time>
      </trkpt>
      <trkpt lat="47.36896" lon="-1.92299">
        <ele>80</ele>
        <time>2016-04-24T09:28:48Z</time>
      </trkpt>
      <trkpt lat="47.36897" lon="-1.92305">
        <ele>80</ele>
        <time>2016-04-24T09:28:49Z</time>
      </trkpt>
      <trkpt lat="47.36898" lon="-1.92313">
        <ele>80</ele>
        <time>2016-04-24T09:28:50Z</time>
      </trkpt>
      <trkpt lat="47.36898" lon="-1.92321">
        <ele>81</ele>
        <time>2016-04-24T09:28:51Z</time>
      </trkpt>
      <trkpt lat="47.36899" lon="-1.92328">
        <ele>81</ele>
        <time>2016-04-24T09:28:52Z</time>
      </trkpt>
      <trkpt lat="47.369" lon="-1.92335">
        <ele>81</ele>
        <time>2016-04-24T09:28:53Z</time>
      </trkpt>
      <trkpt lat="47.36899" lon="-1.92341">
        <ele>81</ele>
        <time>2016-04-24T09:28:54Z</time>
      </trkpt>
      <trkpt lat="47.36899" lon="-1.92347">
        <ele>81</ele>
        <time>2016-04-24T09:28:55Z</time>
      </trkpt>
      <trkpt lat="47.369" lon="-1.92354">
        <ele>81</ele>
        <time>2016-04-24T09:28:56Z</time>
      </trkpt>
      <trkpt lat="47.36901" lon="-1.92362">
        <ele>80</ele>
        <time>2016-04-24T09:28:57Z</time>
      </trkpt>
      <trkpt lat="47.36902" lon="-1.92369">
        <ele>80</ele>
        <time>2016-04-24T09:28:58Z</time>
      </trkpt>
      <trkpt lat="47.36902" lon="-1.92376">
        <ele>80</ele>
        <time>2016-04-24T09:28:59Z</time>
      </trkpt>
      <trkpt lat="47.36902" lon="-1.92382">
        <ele>80</ele>
        <time>2016-04-24T09:29:00Z</time>
      </trkpt>
      <trkpt lat="47.36902" lon="-1.9239">
        <ele>80</ele>
        <time>2016-04-24T09:29:01Z</time>
      </trkpt>
      <trkpt lat="47.36903" lon="-1.92397">
        <ele>80</ele>
        <time>2016-04-24T09:29:02Z</time>
      </trkpt>
      <trkpt lat="47.36902" lon="-1.92403">
        <ele>80</ele>
        <time>2016-04-24T09:29:03Z</time>
      </trkpt>
      <trkpt lat="47.36902" lon="-1.92411">
        <ele>80</ele>
        <time>2016-04-24T09:29:04Z</time>
      </trkpt>
      <trkpt lat="47.36903" lon="-1.92418">
        <ele>80</ele>
        <time>2016-04-24T09:29:05Z</time>
      </trkpt>
      <trkpt lat="47.36903" lon="-1.92424">
        <ele>80</ele>
        <time>2016-04-24T09:29:06Z</time>
      </trkpt>
      <trkpt lat="47.36903" lon="-1.92431">
        <ele>80</ele>
        <time>2016-04-24T09:29:07Z</time>
      </trkpt>
      <trkpt lat="47.36902" lon="-1.92439">
        <ele>80</ele>
        <time>2016-04-24T09:29:08Z</time>
      </trkpt>
      <trkpt lat="47.36901" lon="-1.92446">
        <ele>80</ele>
        <time>2016-04-24T09:29:09Z</time>
      </trkpt>
      <trkpt lat="47.36902" lon="-1.92452">
        <ele>80</ele>
        <time>2016-04-24T09:29:10Z</time>
      </trkpt>
      <trkpt lat="47.36903" lon="-1.9246">
        <ele>80</ele>
        <time>2016-04-24T09:29:11Z</time>
      </trkpt>
      <trkpt lat="47.36904" lon="-1.92469">
        <ele>80</ele>
        <time>2016-04-24T09:29:12Z</time>
      </trkpt>
      <trkpt lat="47.36905" lon="-1.92478">
        <ele>80</ele>
        <time>2016-04-24T09:29:13Z</time>
      </trkpt>
      <trkpt lat="47.36907" lon="-1.92484">
        <ele>80</ele>
        <time>2016-04-24T09:29:14Z</time>
      </trkpt>
      <trkpt lat="47.36908" lon="-1.92492">
        <ele>80</ele>
        <time>2016-04-24T09:29:15Z</time>
      </trkpt>
      <trkpt lat="47.36909" lon="-1.925">
        <ele>80</ele>
        <time>2016-04-24T09:29:16Z</time>
      </trkpt>
      <trkpt lat="47.36911" lon="-1.92508">
        <ele>79</ele>
        <time>2016-04-24T09:29:17Z</time>
      </trkpt>
      <trkpt lat="47.36912" lon="-1.92517">
        <ele>79</ele>
        <time>2016-04-24T09:29:18Z</time>
      </trkpt>
      <trkpt lat="47.36912" lon="-1.92527">
        <ele>79</ele>
        <time>2016-04-24T09:29:19Z</time>
      </trkpt>
      <trkpt lat="47.36911" lon="-1.92536">
        <ele>79</ele>
        <time>2016-04-24T09:29:20Z</time>
      </trkpt>
      <trkpt lat="47.36912" lon="-1.92544">
        <ele>78</ele>
        <time>2016-04-24T09:29:21Z</time>
      </trkpt>
      <trkpt lat="47.36913" lon="-1.92553">
        <ele>78</ele>
        <time>2016-04-24T09:29:22Z</time>
      </trkpt>
      <trkpt lat="47.36915" lon="-1.92562">
        <ele>78</ele>
        <time>2016-04-24T09:29:23Z</time>
      </trkpt>
      <trkpt lat="47.36915" lon="-1.9257">
        <ele>78</ele>
        <time>2016-04-24T09:29:24Z</time>
      </trkpt>
      <trkpt lat="47.36916" lon="-1.92578">
        <ele>78</ele>
        <time>2016-04-24T09:29:25Z</time>
      </trkpt>
      <trkpt lat="47.36918" lon="-1.92584">
        <ele>78</ele>
        <time>2016-04-24T09:29:26Z</time>
      </trkpt>
      <trkpt lat="47.36919" lon="-1.92592">
        <ele>78</ele>
        <time>2016-04-24T09:29:27Z</time>
      </trkpt>
      <trkpt lat="47.36922" lon="-1.92601">
        <ele>78</ele>
        <time>2016-04-24T09:29:28Z</time>
      </trkpt>
      <trkpt lat="47.36923" lon="-1.92608">
        <ele>77</ele>
        <time>2016-04-24T09:29:29Z</time>
      </trkpt>
      <trkpt lat="47.36924" lon="-1.92616">
        <ele>77</ele>
        <time>2016-04-24T09:29:30Z</time>
      </trkpt>
      <trkpt lat="47.36925" lon="-1.92624">
        <ele>77</ele>
        <time>2016-04-24T09:29:31Z</time>
      </trkpt>
      <trkpt lat="47.36926" lon="-1.92633">
        <ele>77</ele>
        <time>2016-04-24T09:29:32Z</time>
      </trkpt>
      <trkpt lat="47.36928" lon="-1.92641">
        <ele>77</ele>
        <time>2016-04-24T09:29:33Z</time>
      </trkpt>
      <trkpt lat="47.36928" lon="-1.92648">
        <ele>77</ele>
        <time>2016-04-24T09:29:34Z</time>
      </trkpt>
      <trkpt lat="47.36929" lon="-1.92656">
        <ele>77</ele>
        <time>2016-04-24T09:29:35Z</time>
      </trkpt>
      <trkpt lat="47.3693" lon="-1.92664">
        <ele>77</ele>
        <time>2016-04-24T09:29:36Z</time>
      </trkpt>
      <trkpt lat="47.3693" lon="-1.92671">
        <ele>77</ele>
        <time>2016-04-24T09:29:37Z</time>
      </trkpt>
      <trkpt lat="47.36931" lon="-1.92678">
        <ele>77</ele>
        <time>2016-04-24T09:29:38Z</time>
      </trkpt>
      <trkpt lat="47.36933" lon="-1.92684">
        <ele>77</ele>
        <time>2016-04-24T09:29:39Z</time>
      </trkpt>
      <trkpt lat="47.36935" lon="-1.9269">
        <ele>77</ele>
        <time>2016-04-24T09:29:40Z</time>
      </trkpt>
      <trkpt lat="47.36936" lon="-1.92697">
        <ele>77</ele>
        <time>2016-04-24T09:29:41Z</time>
      </trkpt>
      <trkpt lat="47.36938" lon="-1.92704">
        <ele>77</ele>
        <time>2016-04-24T09:29:42Z</time>
      </trkpt>
      <trkpt lat="47.36938" lon="-1.92711">
        <ele>77</ele>
        <time>2016-04-24T09:29:43Z</time>
      </trkpt>
      <trkpt lat="47.36939" lon="-1.92717">
        <ele>77</ele>
        <time>2016-04-24T09:29:44Z</time>
      </trkpt>
      <trkpt lat="47.36942" lon="-1.92722">
        <ele>77</ele>
        <time>2016-04-24T09:29:45Z</time>
      </trkpt>
      <trkpt lat="47.36942" lon="-1.92729">
        <ele>77</ele>
        <time>2016-04-24T09:29:46Z</time>
      </trkpt>
      <trkpt lat="47.36945" lon="-1.92735">
        <ele>77</ele>
        <time>2016-04-24T09:29:47Z</time>
      </trkpt>
      <trkpt lat="47.36944" lon="-1.9274">
        <ele>77</ele>
        <time>2016-04-24T09:29:48Z</time>
      </trkpt>
      <trkpt lat="47.36943" lon="-1.92744">
        <ele>77</ele>
        <time>2016-04-24T09:29:49Z</time>
      </trkpt>
      <trkpt lat="47.36941" lon="-1.92746">
        <ele>77</ele>
        <time>2016-04-24T09:29:52Z</time>
      </trkpt>
      <trkpt lat="47.36938" lon="-1.92741">
        <ele>77</ele>
        <time>2016-04-24T09:29:54Z</time>
      </trkpt>
      <trkpt lat="47.36938" lon="-1.9273">
        <ele>77</ele>
        <time>2016-04-24T09:29:56Z</time>
      </trkpt>
      <trkpt lat="47.36938" lon="-1.92724">
        <ele>77</ele>
        <time>2016-04-24T09:29:57Z</time>
      </trkpt>
      <trkpt lat="47.36937" lon="-1.92718">
        <ele>77</ele>
        <time>2016-04-24T09:29:58Z</time>
      </trkpt>
      <trkpt lat="47.36936" lon="-1.92712">
        <ele>77</ele>
        <time>2016-04-24T09:29:59Z</time>
      </trkpt>
      <trkpt lat="47.36936" lon="-1.92705">
        <ele>77</ele>
        <time>2016-04-24T09:30:00Z</time>
      </trkpt>
      <trkpt lat="47.36935" lon="-1.92698">
        <ele>77</ele>
        <time>2016-04-24T09:30:01Z</time>
      </trkpt>
      <trkpt lat="47.36934" lon="-1.92691">
        <ele>77</ele>
        <time>2016-04-24T09:30:02Z</time>
      </trkpt>
      <trkpt lat="47.36932" lon="-1.92685">
        <ele>77</ele>
        <time>2016-04-24T09:30:03Z</time>
      </trkpt>
      <trkpt lat="47.36931" lon="-1.92677">
        <ele>77</ele>
        <time>2016-04-24T09:30:04Z</time>
      </trkpt>
      <trkpt lat="47.3693" lon="-1.9267">
        <ele>77</ele>
        <time>2016-04-24T09:30:05Z</time>
      </trkpt>
      <trkpt lat="47.36928" lon="-1.92662">
        <ele>77</ele>
        <time>2016-04-24T09:30:06Z</time>
      </trkpt>
      <trkpt lat="47.36928" lon="-1.92655">
        <ele>77</ele>
        <time>2016-04-24T09:30:07Z</time>
      </trkpt>
      <trkpt lat="47.36927" lon="-1.92648">
        <ele>77</ele>
        <time>2016-04-24T09:30:08Z</time>
      </trkpt>
      <trkpt lat="47.36925" lon="-1.92641">
        <ele>77</ele>
        <time>2016-04-24T09:30:09Z</time>
      </trkpt>
      <trkpt lat="47.36923" lon="-1.92633">
        <ele>77</ele>
        <time>2016-04-24T09:30:10Z</time>
      </trkpt>
      <trkpt lat="47.36923" lon="-1.92626">
        <ele>77</ele>
        <time>2016-04-24T09:30:11Z</time>
      </trkpt>
      <trkpt lat="47.36922" lon="-1.92618">
        <ele>77</ele>
        <time>2016-04-24T09:30:12Z</time>
      </trkpt>
      <trkpt lat="47.3692" lon="-1.92611">
        <ele>77</ele>
        <time>2016-04-24T09:30:13Z</time>
      </trkpt>
      <trkpt lat="47.36919" lon="-1.92604">
        <ele>77</ele>
        <time>2016-04-24T09:30:14Z</time>
      </trkpt>
      <trkpt lat="47.36919" lon="-1.92596">
        <ele>78</ele>
        <time>2016-04-24T09:30:15Z</time>
      </trkpt>
      <trkpt lat="47.36918" lon="-1.92588">
        <ele>78</ele>
        <time>2016-04-24T09:30:16Z</time>
      </trkpt>
      <trkpt lat="47.36916" lon="-1.9258">
        <ele>78</ele>
        <time>2016-04-24T09:30:17Z</time>
      </trkpt>
      <trkpt lat="47.36915" lon="-1.92572">
        <ele>78</ele>
        <time>2016-04-24T09:30:18Z</time>
      </trkpt>
      <trkpt lat="47.36913" lon="-1.92564">
        <ele>78</ele>
        <time>2016-04-24T09:30:19Z</time>
      </trkpt>
      <trkpt lat="47.36912" lon="-1.92557">
        <ele>78</ele>
        <time>2016-04-24T09:30:20Z</time>
      </trkpt>
      <trkpt lat="47.36911" lon="-1.92549">
        <ele>78</ele>
        <time>2016-04-24T09:30:21Z</time>
      </trkpt>
      <trkpt lat="47.3691" lon="-1.92541">
        <ele>79</ele>
        <time>2016-04-24T09:30:22Z</time>
      </trkpt>
      <trkpt lat="47.36909" lon="-1.92532">
        <ele>79</ele>
        <time>2016-04-24T09:30:23Z</time>
      </trkpt>
      <trkpt lat="47.36908" lon="-1.92524">
        <ele>79</ele>
        <time>2016-04-24T09:30:24Z</time>
      </trkpt>
      <trkpt lat="47.36907" lon="-1.92517">
        <ele>79</ele>
        <time>2016-04-24T09:30:25Z</time>
      </trkpt>
      <trkpt lat="47.36906" lon="-1.92508">
        <ele>79</ele>
        <time>2016-04-24T09:30:26Z</time>
      </trkpt>
      <trkpt lat="47.36905" lon="-1.92501">
        <ele>79</ele>
        <time>2016-04-24T09:30:27Z</time>
      </trkpt>
      <trkpt lat="47.36903" lon="-1.92493">
        <ele>80</ele>
        <time>2016-04-24T09:30:28Z</time>
      </trkpt>
      <trkpt lat="47.36901" lon="-1.92486">
        <ele>80</ele>
        <time>2016-04-24T09:30:29Z</time>
      </trkpt>
      <trkpt lat="47.369" lon="-1.9248">
        <ele>80</ele>
        <time>2016-04-24T09:30:30Z</time>
      </trkpt>
      <trkpt lat="47.36897" lon="-1.92475">
        <ele>80</ele>
        <time>2016-04-24T09:30:31Z</time>
      </trkpt>
      <trkpt lat="47.36894" lon="-1.92468">
        <ele>80</ele>
        <time>2016-04-24T09:30:32Z</time>
      </trkpt>
      <trkpt lat="47.36893" lon="-1.9246">
        <ele>80</ele>
        <time>2016-04-24T09:30:33Z</time>
      </trkpt>
      <trkpt lat="47.36893" lon="-1.92453">
        <ele>80</ele>
        <time>2016-04-24T09:30:34Z</time>
      </trkpt>
      <trkpt lat="47.36894" lon="-1.92446">
        <ele>80</ele>
        <time>2016-04-24T09:30:35Z</time>
      </trkpt>
      <trkpt lat="47.36895" lon="-1.92438">
        <ele>80</ele>
        <time>2016-04-24T09:30:36Z</time>
      </trkpt>
      <trkpt lat="47.36895" lon="-1.9243">
        <ele>80</ele>
        <time>2016-04-24T09:30:37Z</time>
      </trkpt>
      <trkpt lat="47.36894" lon="-1.92422">
        <ele>80</ele>
        <time>2016-04-24T09:30:38Z</time>
      </trkpt>
      <trkpt lat="47.36893" lon="-1.92414">
        <ele>80</ele>
        <time>2016-04-24T09:30:39Z</time>
      </trkpt>
      <trkpt lat="47.36893" lon="-1.92407">
        <ele>80</ele>
        <time>2016-04-24T09:30:40Z</time>
      </trkpt>
      <trkpt lat="47.36892" lon="-1.92399">
        <ele>80</ele>
        <time>2016-04-24T09:30:41Z</time>
      </trkpt>
      <trkpt lat="47.36892" lon="-1.92391">
        <ele>80</ele>
        <time>2016-04-24T09:30:42Z</time>
      </trkpt>
      <trkpt lat="47.36892" lon="-1.92382">
        <ele>80</ele>
        <time>2016-04-24T09:30:43Z</time>
      </trkpt>
      <trkpt lat="47.36891" lon="-1.92375">
        <ele>80</ele>
        <time>2016-04-24T09:30:44Z</time>
      </trkpt>
      <trkpt lat="47.36891" lon="-1.92368">
        <ele>80</ele>
        <time>2016-04-24T09:30:45Z</time>
      </trkpt>
      <trkpt lat="47.36891" lon="-1.92358">
        <ele>80</ele>
        <time>2016-04-24T09:30:46Z</time>
      </trkpt>
      <trkpt lat="47.36891" lon="-1.92352">
        <ele>80</ele>
        <time>2016-04-24T09:30:47Z</time>
      </trkpt>
      <trkpt lat="47.3689" lon="-1.92344">
        <ele>80</ele>
        <time>2016-04-24T09:30:48Z</time>
      </trkpt>
      <trkpt lat="47.36891" lon="-1.92337">
        <ele>80</ele>
        <time>2016-04-24T09:30:49Z</time>
      </trkpt>
      <trkpt lat="47.3689" lon="-1.92331">
        <ele>80</ele>
        <time>2016-04-24T09:30:50Z</time>
      </trkpt>
      <trkpt lat="47.3689" lon="-1.92322">
        <ele>80</ele>
        <time>2016-04-24T09:30:51Z</time>
      </trkpt>
      <trkpt lat="47.36889" lon="-1.92314">
        <ele>80</ele>
        <time>2016-04-24T09:30:52Z</time>
      </trkpt>
      <trkpt lat="47.36887" lon="-1.92307">
        <ele>80</ele>
        <time>2016-04-24T09:30:53Z</time>
      </trkpt>
      <trkpt lat="47.36885" lon="-1.92299">
        <ele>80</ele>
        <time>2016-04-24T09:30:54Z</time>
      </trkpt>
      <trkpt lat="47.36884" lon="-1.92291">
        <ele>80</ele>
        <time>2016-04-24T09:30:55Z</time>
      </trkpt>
      <trkpt lat="47.36883" lon="-1.92283">
        <ele>80</ele>
        <time>2016-04-24T09:30:56Z</time>
      </trkpt>
      <trkpt lat="47.36882" lon="-1.92275">
        <ele>80</ele>
        <time>2016-04-24T09:30:57Z</time>
      </trkpt>
      <trkpt lat="47.3688" lon="-1.92267">
        <ele>80</ele>
        <time>2016-04-24T09:30:58Z</time>
      </trkpt>
      <trkpt lat="47.3688" lon="-1.92258">
        <ele>79</ele>
        <time>2016-04-24T09:30:59Z</time>
      </trkpt>
      <trkpt lat="47.3688" lon="-1.92248">
        <ele>79</ele>
        <time>2016-04-24T09:31:00Z</time>
      </trkpt>
      <trkpt lat="47.3688" lon="-1.92239">
        <ele>79</ele>
        <time>2016-04-24T09:31:01Z</time>
      </trkpt>
      <trkpt lat="47.36879" lon="-1.9223">
        <ele>79</ele>
        <time>2016-04-24T09:31:02Z</time>
      </trkpt>
      <trkpt lat="47.36878" lon="-1.92221">
        <ele>79</ele>
        <time>2016-04-24T09:31:03Z</time>
      </trkpt>
      <trkpt lat="47.36879" lon="-1.92213">
        <ele>79</ele>
        <time>2016-04-24T09:31:04Z</time>
      </trkpt>
      <trkpt lat="47.36878" lon="-1.92201">
        <ele>79</ele>
        <time>2016-04-24T09:31:05Z</time>
      </trkpt>
      <trkpt lat="47.36878" lon="-1.92193">
        <ele>79</ele>
        <time>2016-04-24T09:31:06Z</time>
      </trkpt>
      <trkpt lat="47.36877" lon="-1.92182">
        <ele>79</ele>
        <time>2016-04-24T09:31:07Z</time>
      </trkpt>
      <trkpt lat="47.36876" lon="-1.92174">
        <ele>79</ele>
        <time>2016-04-24T09:31:08Z</time>
      </trkpt>
      <trkpt lat="47.36876" lon="-1.92163">
        <ele>79</ele>
        <time>2016-04-24T09:31:09Z</time>
      </trkpt>
      <trkpt lat="47.36876" lon="-1.92153">
        <ele>79</ele>
        <time>2016-04-24T09:31:10Z</time>
      </trkpt>
      <trkpt lat="47.36874" lon="-1.92143">
        <ele>79</ele>
        <time>2016-04-24T09:31:11Z</time>
      </trkpt>
      <trkpt lat="47.36877" lon="-1.92128">
        <ele>79</ele>
        <time>2016-04-24T09:31:12Z</time>
      </trkpt>
      <trkpt lat="47.36876" lon="-1.92116">
        <ele>79</ele>
        <time>2016-04-24T09:31:13Z</time>
      </trkpt>
      <trkpt lat="47.36876" lon="-1.92106">
        <ele>79</ele>
        <time>2016-04-24T09:31:14Z</time>
      </trkpt>
      <trkpt lat="47.36876" lon="-1.92097">
        <ele>79</ele>
        <time>2016-04-24T09:31:15Z</time>
      </trkpt>
      <trkpt lat="47.36878" lon="-1.92086">
        <ele>79</ele>
        <time>2016-04-24T09:31:16Z</time>
      </trkpt>
      <trkpt lat="47.36877" lon="-1.92076">
        <ele>79</ele>
        <time>2016-04-24T09:31:17Z</time>
      </trkpt>
      <trkpt lat="47.36879" lon="-1.92067">
        <ele>79</ele>
        <time>2016-04-24T09:31:18Z</time>
      </trkpt>
      <trkpt lat="47.3688" lon="-1.92058">
        <ele>79</ele>
        <time>2016-04-24T09:31:19Z</time>
      </trkpt>
      <trkpt lat="47.36881" lon="-1.92049">
        <ele>79</ele>
        <time>2016-04-24T09:31:20Z</time>
      </trkpt>
      <trkpt lat="47.3688" lon="-1.92039">
        <ele>79</ele>
        <time>2016-04-24T09:31:21Z</time>
      </trkpt>
      <trkpt lat="47.36881" lon="-1.92031">
        <ele>79</ele>
        <time>2016-04-24T09:31:22Z</time>
      </trkpt>
      <trkpt lat="47.36883" lon="-1.92017">
        <ele>79</ele>
        <time>2016-04-24T09:31:23Z</time>
      </trkpt>
      <trkpt lat="47.36888" lon="-1.92006">
        <ele>80</ele>
        <time>2016-04-24T09:31:24Z</time>
      </trkpt>
      <trkpt lat="47.36885" lon="-1.91996">
        <ele>80</ele>
        <time>2016-04-24T09:31:25Z</time>
      </trkpt>
      <trkpt lat="47.36883" lon="-1.91989">
        <ele>80</ele>
        <time>2016-04-24T09:31:26Z</time>
      </trkpt>
      <trkpt lat="47.36881" lon="-1.9198">
        <ele>80</ele>
        <time>2016-04-24T09:31:27Z</time>
      </trkpt>
      <trkpt lat="47.36882" lon="-1.91971">
        <ele>80</ele>
        <time>2016-04-24T09:31:28Z</time>
      </trkpt>
      <trkpt lat="47.36885" lon="-1.91965">
        <ele>80</ele>
        <time>2016-04-24T09:31:29Z</time>
      </trkpt>
      <trkpt lat="47.36882" lon="-1.91958">
        <ele>80</ele>
        <time>2016-04-24T09:31:30Z</time>
      </trkpt>
      <trkpt lat="47.36885" lon="-1.91948">
        <ele>80</ele>
        <time>2016-04-24T09:31:31Z</time>
      </trkpt>
      <trkpt lat="47.36888" lon="-1.91942">
        <ele>80</ele>
        <time>2016-04-24T09:31:32Z</time>
      </trkpt>
      <trkpt lat="47.36889" lon="-1.91932">
        <ele>80</ele>
        <time>2016-04-24T09:31:33Z</time>
      </trkpt>
      <trkpt lat="47.36889" lon="-1.91925">
        <ele>81</ele>
        <time>2016-04-24T09:31:34Z</time>
      </trkpt>
      <trkpt lat="47.3689" lon="-1.91918">
        <ele>81</ele>
        <time>2016-04-24T09:31:35Z</time>
      </trkpt>
      <trkpt lat="47.36889" lon="-1.91911">
        <ele>81</ele>
        <time>2016-04-24T09:31:36Z</time>
      </trkpt>
      <trkpt lat="47.36891" lon="-1.91904">
        <ele>81</ele>
        <time>2016-04-24T09:31:37Z</time>
      </trkpt>
      <trkpt lat="47.36893" lon="-1.91895">
        <ele>81</ele>
        <time>2016-04-24T09:31:38Z</time>
      </trkpt>
      <trkpt lat="47.36894" lon="-1.91885">
        <ele>81</ele>
        <time>2016-04-24T09:31:39Z</time>
      </trkpt>
      <trkpt lat="47.36893" lon="-1.91877">
        <ele>81</ele>
        <time>2016-04-24T09:31:40Z</time>
      </trkpt>
      <trkpt lat="47.36893" lon="-1.91871">
        <ele>81</ele>
        <time>2016-04-24T09:31:41Z</time>
      </trkpt>
      <trkpt lat="47.36895" lon="-1.91865">
        <ele>81</ele>
        <time>2016-04-24T09:31:42Z</time>
      </trkpt>
      <trkpt lat="47.36896" lon="-1.91858">
        <ele>81</ele>
        <time>2016-04-24T09:31:43Z</time>
      </trkpt>
      <trkpt lat="47.36895" lon="-1.91854">
        <ele>81</ele>
        <time>2016-04-24T09:31:44Z</time>
      </trkpt>
      <trkpt lat="47.36895" lon="-1.91846">
        <ele>82</ele>
        <time>2016-04-24T09:31:45Z</time>
      </trkpt>
      <trkpt lat="47.36896" lon="-1.91839">
        <ele>82</ele>
        <time>2016-04-24T09:31:46Z</time>
      </trkpt>
      <trkpt lat="47.36897" lon="-1.91833">
        <ele>82</ele>
        <time>2016-04-24T09:31:47Z</time>
      </trkpt>
      <trkpt lat="47.36898" lon="-1.91826">
        <ele>82</ele>
        <time>2016-04-24T09:31:48Z</time>
      </trkpt>
      <trkpt lat="47.36899" lon="-1.91818">
        <ele>82</ele>
        <time>2016-04-24T09:31:49Z</time>
      </trkpt>
      <trkpt lat="47.36899" lon="-1.91811">
        <ele>82</ele>
        <time>2016-04-24T09:31:50Z</time>
      </trkpt>
      <trkpt lat="47.36898" lon="-1.91803">
        <ele>82</ele>
        <time>2016-04-24T09:31:51Z</time>
      </trkpt>
      <trkpt lat="47.36899" lon="-1.91795">
        <ele>81</ele>
        <time>2016-04-24T09:31:52Z</time>
      </trkpt>
      <trkpt lat="47.369" lon="-1.91788">
        <ele>81</ele>
        <time>2016-04-24T09:31:53Z</time>
      </trkpt>
      <trkpt lat="47.36902" lon="-1.91779">
        <ele>81</ele>
        <time>2016-04-24T09:31:54Z</time>
      </trkpt>
      <trkpt lat="47.36901" lon="-1.91772">
        <ele>81</ele>
        <time>2016-04-24T09:31:55Z</time>
      </trkpt>
      <trkpt lat="47.36901" lon="-1.91765">
        <ele>81</ele>
        <time>2016-04-24T09:31:56Z</time>
      </trkpt>
      <trkpt lat="47.36902" lon="-1.91757">
        <ele>81</ele>
        <time>2016-04-24T09:31:57Z</time>
      </trkpt>
      <trkpt lat="47.36904" lon="-1.91751">
        <ele>81</ele>
        <time>2016-04-24T09:31:58Z</time>
      </trkpt>
      <trkpt lat="47.36904" lon="-1.91746">
        <ele>81</ele>
        <time>2016-04-24T09:31:59Z</time>
      </trkpt>
      <trkpt lat="47.36903" lon="-1.91741">
        <ele>81</ele>
        <time>2016-04-24T09:32:00Z</time>
      </trkpt>
      <trkpt lat="47.36905" lon="-1.91733">
        <ele>81</ele>
        <time>2016-04-24T09:32:01Z</time>
      </trkpt>
      <trkpt lat="47.36905" lon="-1.91727">
        <ele>81</ele>
        <time>2016-04-24T09:32:02Z</time>
      </trkpt>
      <trkpt lat="47.36905" lon="-1.91719">
        <ele>80</ele>
        <time>2016-04-24T09:32:03Z</time>
      </trkpt>
      <trkpt lat="47.36906" lon="-1.91711">
        <ele>80</ele>
        <time>2016-04-24T09:32:04Z</time>
      </trkpt>
      <trkpt lat="47.36908" lon="-1.91703">
        <ele>80</ele>
        <time>2016-04-24T09:32:05Z</time>
      </trkpt>
      <trkpt lat="47.36907" lon="-1.91694">
        <ele>80</ele>
        <time>2016-04-24T09:32:06Z</time>
      </trkpt>
      <trkpt lat="47.36909" lon="-1.91685">
        <ele>80</ele>
        <time>2016-04-24T09:32:07Z</time>
      </trkpt>
      <trkpt lat="47.36909" lon="-1.91678">
        <ele>80</ele>
        <time>2016-04-24T09:32:08Z</time>
      </trkpt>
      <trkpt lat="47.36909" lon="-1.91667">
        <ele>79</ele>
        <time>2016-04-24T09:32:09Z</time>
      </trkpt>
      <trkpt lat="47.3691" lon="-1.91659">
        <ele>79</ele>
        <time>2016-04-24T09:32:10Z</time>
      </trkpt>
      <trkpt lat="47.3691" lon="-1.9165">
        <ele>80</ele>
        <time>2016-04-24T09:32:11Z</time>
      </trkpt>
      <trkpt lat="47.36909" lon="-1.9164">
        <ele>80</ele>
        <time>2016-04-24T09:32:12Z</time>
      </trkpt>
      <trkpt lat="47.3691" lon="-1.9163">
        <ele>80</ele>
        <time>2016-04-24T09:32:13Z</time>
      </trkpt>
      <trkpt lat="47.3691" lon="-1.91621">
        <ele>80</ele>
        <time>2016-04-24T09:32:14Z</time>
      </trkpt>
      <trkpt lat="47.36908" lon="-1.91612">
        <ele>80</ele>
        <time>2016-04-24T09:32:15Z</time>
      </trkpt>
      <trkpt lat="47.36908" lon="-1.91603">
        <ele>80</ele>
        <time>2016-04-24T09:32:16Z</time>
      </trkpt>
      <trkpt lat="47.36906" lon="-1.91593">
        <ele>80</ele>
        <time>2016-04-24T09:32:17Z</time>
      </trkpt>
      <trkpt lat="47.36905" lon="-1.91584">
        <ele>80</ele>
        <time>2016-04-24T09:32:18Z</time>
      </trkpt>
      <trkpt lat="47.36902" lon="-1.91574">
        <ele>79</ele>
        <time>2016-04-24T09:32:19Z</time>
      </trkpt>
      <trkpt lat="47.36899" lon="-1.91564">
        <ele>79</ele>
        <time>2016-04-24T09:32:20Z</time>
      </trkpt>
      <trkpt lat="47.36899" lon="-1.91553">
        <ele>79</ele>
        <time>2016-04-24T09:32:21Z</time>
      </trkpt>
      <trkpt lat="47.36896" lon="-1.91542">
        <ele>79</ele>
        <time>2016-04-24T09:32:22Z</time>
      </trkpt>
      <trkpt lat="47.36895" lon="-1.9153">
        <ele>79</ele>
        <time>2016-04-24T09:32:23Z</time>
      </trkpt>
      <trkpt lat="47.36894" lon="-1.9152">
        <ele>79</ele>
        <time>2016-04-24T09:32:24Z</time>
      </trkpt>
      <trkpt lat="47.36892" lon="-1.91508">
        <ele>79</ele>
        <time>2016-04-24T09:32:25Z</time>
      </trkpt>
      <trkpt lat="47.3689" lon="-1.91497">
        <ele>78</ele>
        <time>2016-04-24T09:32:26Z</time>
      </trkpt>
      <trkpt lat="47.36888" lon="-1.91485">
        <ele>78</ele>
        <time>2016-04-24T09:32:27Z</time>
      </trkpt>
      <trkpt lat="47.36886" lon="-1.91473">
        <ele>78</ele>
        <time>2016-04-24T09:32:28Z</time>
      </trkpt>
      <trkpt lat="47.36884" lon="-1.91461">
        <ele>78</ele>
        <time>2016-04-24T09:32:29Z</time>
      </trkpt>
      <trkpt lat="47.36881" lon="-1.9145">
        <ele>77</ele>
        <time>2016-04-24T09:32:30Z</time>
      </trkpt>
      <trkpt lat="47.36879" lon="-1.91437">
        <ele>77</ele>
        <time>2016-04-24T09:32:31Z</time>
      </trkpt>
      <trkpt lat="47.36877" lon="-1.91425">
        <ele>77</ele>
        <time>2016-04-24T09:32:32Z</time>
      </trkpt>
      <trkpt lat="47.36874" lon="-1.91415">
        <ele>77</ele>
        <time>2016-04-24T09:32:33Z</time>
      </trkpt>
      <trkpt lat="47.36872" lon="-1.91403">
        <ele>77</ele>
        <time>2016-04-24T09:32:34Z</time>
      </trkpt>
      <trkpt lat="47.36869" lon="-1.91393">
        <ele>76</ele>
        <time>2016-04-24T09:32:35Z</time>
      </trkpt>
      <trkpt lat="47.36866" lon="-1.91383">
        <ele>76</ele>
        <time>2016-04-24T09:32:36Z</time>
      </trkpt>
      <trkpt lat="47.36863" lon="-1.91372">
        <ele>76</ele>
        <time>2016-04-24T09:32:37Z</time>
      </trkpt>
      <trkpt lat="47.3686" lon="-1.91361">
        <ele>76</ele>
        <time>2016-04-24T09:32:38Z</time>
      </trkpt>
      <trkpt lat="47.36857" lon="-1.9135">
        <ele>76</ele>
        <time>2016-04-24T09:32:39Z</time>
      </trkpt>
      <trkpt lat="47.36854" lon="-1.91339">
        <ele>76</ele>
        <time>2016-04-24T09:32:40Z</time>
      </trkpt>
      <trkpt lat="47.36851" lon="-1.9133">
        <ele>76</ele>
        <time>2016-04-24T09:32:41Z</time>
      </trkpt>
      <trkpt lat="47.36847" lon="-1.91318">
        <ele>76</ele>
        <time>2016-04-24T09:32:42Z</time>
      </trkpt>
      <trkpt lat="47.36843" lon="-1.91308">
        <ele>76</ele>
        <time>2016-04-24T09:32:43Z</time>
      </trkpt>
      <trkpt lat="47.36839" lon="-1.91298">
        <ele>77</ele>
        <time>2016-04-24T09:32:44Z</time>
      </trkpt>
      <trkpt lat="47.36835" lon="-1.91287">
        <ele>77</ele>
        <time>2016-04-24T09:32:45Z</time>
      </trkpt>
      <trkpt lat="47.36831" lon="-1.91278">
        <ele>76</ele>
        <time>2016-04-24T09:32:46Z</time>
      </trkpt>
      <trkpt lat="47.36827" lon="-1.91268">
        <ele>77</ele>
        <time>2016-04-24T09:32:47Z</time>
      </trkpt>
      <trkpt lat="47.36822" lon="-1.91259">
        <ele>77</ele>
        <time>2016-04-24T09:32:48Z</time>
      </trkpt>
      <trkpt lat="47.36817" lon="-1.91251">
        <ele>77</ele>
        <time>2016-04-24T09:32:49Z</time>
      </trkpt>
      <trkpt lat="47.36812" lon="-1.91243">
        <ele>79</ele>
        <time>2016-04-24T09:32:50Z</time>
      </trkpt>
      <trkpt lat="47.36807" lon="-1.91235">
        <ele>80</ele>
        <time>2016-04-24T09:32:51Z</time>
      </trkpt>
      <trkpt lat="47.36802" lon="-1.91226">
        <ele>80</ele>
        <time>2016-04-24T09:32:52Z</time>
      </trkpt>
      <trkpt lat="47.36799" lon="-1.91218">
        <ele>80</ele>
        <time>2016-04-24T09:32:53Z</time>
      </trkpt>
      <trkpt lat="47.36797" lon="-1.91211">
        <ele>80</ele>
        <time>2016-04-24T09:32:54Z</time>
      </trkpt>
      <trkpt lat="47.36795" lon="-1.91201">
        <ele>81</ele>
        <time>2016-04-24T09:32:55Z</time>
      </trkpt>
      <trkpt lat="47.36793" lon="-1.9119">
        <ele>81</ele>
        <time>2016-04-24T09:32:56Z</time>
      </trkpt>
      <trkpt lat="47.36793" lon="-1.91183">
        <ele>81</ele>
        <time>2016-04-24T09:32:57Z</time>
      </trkpt>
      <trkpt lat="47.36793" lon="-1.91174">
        <ele>81</ele>
        <time>2016-04-24T09:32:58Z</time>
      </trkpt>
      <trkpt lat="47.36789" lon="-1.91167">
        <ele>81</ele>
        <time>2016-04-24T09:32:59Z</time>
      </trkpt>
      <trkpt lat="47.36786" lon="-1.9116">
        <ele>82</ele>
        <time>2016-04-24T09:33:00Z</time>
      </trkpt>
      <trkpt lat="47.36784" lon="-1.91155">
        <ele>82</ele>
        <time>2016-04-24T09:33:01Z</time>
      </trkpt>
      <trkpt lat="47.36783" lon="-1.91147">
        <ele>82</ele>
        <time>2016-04-24T09:33:02Z</time>
      </trkpt>
      <trkpt lat="47.36781" lon="-1.91141">
        <ele>82</ele>
        <time>2016-04-24T09:33:03Z</time>
      </trkpt>
      <trkpt lat="47.3678" lon="-1.91136">
        <ele>82</ele>
        <time>2016-04-24T09:33:04Z</time>
      </trkpt>
      <trkpt lat="47.36779" lon="-1.91126">
        <ele>82</ele>
        <time>2016-04-24T09:33:05Z</time>
      </trkpt>
      <trkpt lat="47.36774" lon="-1.91118">
        <ele>82</ele>
        <time>2016-04-24T09:33:06Z</time>
      </trkpt>
      <trkpt lat="47.36771" lon="-1.91112">
        <ele>82</ele>
        <time>2016-04-24T09:33:07Z</time>
      </trkpt>
      <trkpt lat="47.36767" lon="-1.91105">
        <ele>82</ele>
        <time>2016-04-24T09:33:08Z</time>
      </trkpt>
      <trkpt lat="47.36763" lon="-1.91099">
        <ele>82</ele>
        <time>2016-04-24T09:33:09Z</time>
      </trkpt>
      <trkpt lat="47.3676" lon="-1.91091">
        <ele>82</ele>
        <time>2016-04-24T09:33:10Z</time>
      </trkpt>
      <trkpt lat="47.36758" lon="-1.91084">
        <ele>82</ele>
        <time>2016-04-24T09:33:11Z</time>
      </trkpt>
      <trkpt lat="47.36755" lon="-1.91077">
        <ele>82</ele>
        <time>2016-04-24T09:33:12Z</time>
      </trkpt>
      <trkpt lat="47.36753" lon="-1.91071">
        <ele>82</ele>
        <time>2016-04-24T09:33:13Z</time>
      </trkpt>
      <trkpt lat="47.36751" lon="-1.91065">
        <ele>82</ele>
        <time>2016-04-24T09:33:14Z</time>
      </trkpt>
      <trkpt lat="47.36748" lon="-1.9106">
        <ele>82</ele>
        <time>2016-04-24T09:33:15Z</time>
      </trkpt>
      <trkpt lat="47.36746" lon="-1.91054">
        <ele>82</ele>
        <time>2016-04-24T09:33:16Z</time>
      </trkpt>
      <trkpt lat="47.36743" lon="-1.91048">
        <ele>82</ele>
        <time>2016-04-24T09:33:17Z</time>
      </trkpt>
      <trkpt lat="47.3674" lon="-1.91042">
        <ele>82</ele>
        <time>2016-04-24T09:33:18Z</time>
      </trkpt>
      <trkpt lat="47.36736" lon="-1.91035">
        <ele>82</ele>
        <time>2016-04-24T09:33:19Z</time>
      </trkpt>
      <trkpt lat="47.36733" lon="-1.9103">
        <ele>82</ele>
        <time>2016-04-24T09:33:20Z</time>
      </trkpt>
      <trkpt lat="47.36729" lon="-1.91024">
        <ele>82</ele>
        <time>2016-04-24T09:33:21Z</time>
      </trkpt>
      <trkpt lat="47.36725" lon="-1.91019">
        <ele>82</ele>
        <time>2016-04-24T09:33:22Z</time>
      </trkpt>
      <trkpt lat="47.36721" lon="-1.91014">
        <ele>82</ele>
        <time>2016-04-24T09:33:23Z</time>
      </trkpt>
      <trkpt lat="47.36719" lon="-1.91007">
        <ele>82</ele>
        <time>2016-04-24T09:33:24Z</time>
      </trkpt>
      <trkpt lat="47.36714" lon="-1.91003">
        <ele>82</ele>
        <time>2016-04-24T09:33:25Z</time>
      </trkpt>
      <trkpt lat="47.36707" lon="-1.91">
        <ele>82</ele>
        <time>2016-04-24T09:33:26Z</time>
      </trkpt>
      <trkpt lat="47.36702" lon="-1.90998">
        <ele>82</ele>
        <time>2016-04-24T09:33:27Z</time>
      </trkpt>
      <trkpt lat="47.36697" lon="-1.90997">
        <ele>82</ele>
        <time>2016-04-24T09:33:28Z</time>
      </trkpt>
      <trkpt lat="47.36693" lon="-1.90997">
        <ele>82</ele>
        <time>2016-04-24T09:33:29Z</time>
      </trkpt>
      <trkpt lat="47.36686" lon="-1.90996">
        <ele>82</ele>
        <time>2016-04-24T09:33:30Z</time>
      </trkpt>
      <trkpt lat="47.36682" lon="-1.90995">
        <ele>81</ele>
        <time>2016-04-24T09:33:31Z</time>
      </trkpt>
      <trkpt lat="47.36676" lon="-1.90995">
        <ele>81</ele>
        <time>2016-04-24T09:33:32Z</time>
      </trkpt>
      <trkpt lat="47.3667" lon="-1.90995">
        <ele>81</ele>
        <time>2016-04-24T09:33:33Z</time>
      </trkpt>
      <trkpt lat="47.36664" lon="-1.90994">
        <ele>81</ele>
        <time>2016-04-24T09:33:34Z</time>
      </trkpt>
      <trkpt lat="47.36658" lon="-1.90994">
        <ele>81</ele>
        <time>2016-04-24T09:33:35Z</time>
      </trkpt>
      <trkpt lat="47.36652" lon="-1.90997">
        <ele>81</ele>
        <time>2016-04-24T09:33:36Z</time>
      </trkpt>
      <trkpt lat="47.36646" lon="-1.90999">
        <ele>81</ele>
        <time>2016-04-24T09:33:37Z</time>
      </trkpt>
      <trkpt lat="47.3664" lon="-1.91001">
        <ele>80</ele>
        <time>2016-04-24T09:33:38Z</time>
      </trkpt>
      <trkpt lat="47.36633" lon="-1.91004">
        <ele>80</ele>
        <time>2016-04-24T09:33:39Z</time>
      </trkpt>
      <trkpt lat="47.36629" lon="-1.91008">
        <ele>79</ele>
        <time>2016-04-24T09:33:40Z</time>
      </trkpt>
      <trkpt lat="47.36624" lon="-1.91013">
        <ele>79</ele>
        <time>2016-04-24T09:33:41Z</time>
      </trkpt>
      <trkpt lat="47.36619" lon="-1.91015">
        <ele>79</ele>
        <time>2016-04-24T09:33:42Z</time>
      </trkpt>
      <trkpt lat="47.36612" lon="-1.91015">
        <ele>79</ele>
        <time>2016-04-24T09:33:43Z</time>
      </trkpt>
      <trkpt lat="47.36609" lon="-1.9101">
        <ele>79</ele>
        <time>2016-04-24T09:33:44Z</time>
      </trkpt>
      <trkpt lat="47.36606" lon="-1.91001">
        <ele>79</ele>
        <time>2016-04-24T09:33:45Z</time>
      </trkpt>
      <trkpt lat="47.36604" lon="-1.90997">
        <ele>79</ele>
        <time>2016-04-24T09:33:46Z</time>
      </trkpt>
      <trkpt lat="47.36602" lon="-1.90986">
        <ele>80</ele>
        <time>2016-04-24T09:33:47Z</time>
      </trkpt>
      <trkpt lat="47.36598" lon="-1.90976">
        <ele>80</ele>
        <time>2016-04-24T09:33:48Z</time>
      </trkpt>
      <trkpt lat="47.36595" lon="-1.90965">
        <ele>80</ele>
        <time>2016-04-24T09:33:49Z</time>
      </trkpt>
      <trkpt lat="47.36593" lon="-1.90957">
        <ele>80</ele>
        <time>2016-04-24T09:33:50Z</time>
      </trkpt>
      <trkpt lat="47.3659" lon="-1.90948">
        <ele>80</ele>
        <time>2016-04-24T09:33:51Z</time>
      </trkpt>
      <trkpt lat="47.36585" lon="-1.9094">
        <ele>80</ele>
        <time>2016-04-24T09:33:52Z</time>
      </trkpt>
      <trkpt lat="47.36583" lon="-1.90934">
        <ele>78</ele>
        <time>2016-04-24T09:33:53Z</time>
      </trkpt>
      <trkpt lat="47.36578" lon="-1.90927">
        <ele>79</ele>
        <time>2016-04-24T09:33:54Z</time>
      </trkpt>
      <trkpt lat="47.36575" lon="-1.9092">
        <ele>79</ele>
        <time>2016-04-24T09:33:55Z</time>
      </trkpt>
      <trkpt lat="47.36572" lon="-1.90912">
        <ele>79</ele>
        <time>2016-04-24T09:33:56Z</time>
      </trkpt>
      <trkpt lat="47.36567" lon="-1.90904">
        <ele>78</ele>
        <time>2016-04-24T09:33:57Z</time>
      </trkpt>
      <trkpt lat="47.36564" lon="-1.90895">
        <ele>78</ele>
        <time>2016-04-24T09:33:58Z</time>
      </trkpt>
      <trkpt lat="47.36562" lon="-1.90887">
        <ele>78</ele>
        <time>2016-04-24T09:33:59Z</time>
      </trkpt>
      <trkpt lat="47.3656" lon="-1.90874">
        <ele>78</ele>
        <time>2016-04-24T09:34:00Z</time>
      </trkpt>
      <trkpt lat="47.36559" lon="-1.90864">
        <ele>78</ele>
        <time>2016-04-24T09:34:01Z</time>
      </trkpt>
      <trkpt lat="47.36559" lon="-1.90856">
        <ele>78</ele>
        <time>2016-04-24T09:34:02Z</time>
      </trkpt>
      <trkpt lat="47.36561" lon="-1.90847">
        <ele>78</ele>
        <time>2016-04-24T09:34:03Z</time>
      </trkpt>
      <trkpt lat="47.36562" lon="-1.90836">
        <ele>79</ele>
        <time>2016-04-24T09:34:04Z</time>
      </trkpt>
      <trkpt lat="47.36563" lon="-1.90825">
        <ele>78</ele>
        <time>2016-04-24T09:34:05Z</time>
      </trkpt>
      <trkpt lat="47.36564" lon="-1.90816">
        <ele>78</ele>
        <time>2016-04-24T09:34:06Z</time>
      </trkpt>
      <trkpt lat="47.36563" lon="-1.90804">
        <ele>77</ele>
        <time>2016-04-24T09:34:07Z</time>
      </trkpt>
      <trkpt lat="47.3656" lon="-1.90791">
        <ele>77</ele>
        <time>2016-04-24T09:34:08Z</time>
      </trkpt>
      <trkpt lat="47.3656" lon="-1.90779">
        <ele>77</ele>
        <time>2016-04-24T09:34:09Z</time>
      </trkpt>
      <trkpt lat="47.36557" lon="-1.90773">
        <ele>77</ele>
        <time>2016-04-24T09:34:10Z</time>
      </trkpt>
      <trkpt lat="47.36552" lon="-1.90764">
        <ele>77</ele>
        <time>2016-04-24T09:34:11Z</time>
      </trkpt>
      <trkpt lat="47.36547" lon="-1.90754">
        <ele>76</ele>
        <time>2016-04-24T09:34:12Z</time>
      </trkpt>
      <trkpt lat="47.36541" lon="-1.90743">
        <ele>74</ele>
        <time>2016-04-24T09:34:13Z</time>
      </trkpt>
      <trkpt lat="47.36536" lon="-1.90733">
        <ele>74</ele>
        <time>2016-04-24T09:34:14Z</time>
      </trkpt>
      <trkpt lat="47.36532" lon="-1.90723">
        <ele>73</ele>
        <time>2016-04-24T09:34:15Z</time>
      </trkpt>
      <trkpt lat="47.36527" lon="-1.90711">
        <ele>73</ele>
        <time>2016-04-24T09:34:16Z</time>
      </trkpt>
      <trkpt lat="47.36522" lon="-1.90699">
        <ele>72</ele>
        <time>2016-04-24T09:34:17Z</time>
      </trkpt>
      <trkpt lat="47.36517" lon="-1.90686">
        <ele>72</ele>
        <time>2016-04-24T09:34:18Z</time>
      </trkpt>
      <trkpt lat="47.36511" lon="-1.90673">
        <ele>70</ele>
        <time>2016-04-24T09:34:19Z</time>
      </trkpt>
      <trkpt lat="47.36505" lon="-1.90663">
        <ele>69</ele>
        <time>2016-04-24T09:34:20Z</time>
      </trkpt>
      <trkpt lat="47.365" lon="-1.90652">
        <ele>67</ele>
        <time>2016-04-24T09:34:21Z</time>
      </trkpt>
      <trkpt lat="47.36489" lon="-1.90643">
        <ele>67</ele>
        <time>2016-04-24T09:34:22Z</time>
      </trkpt>
      <trkpt lat="47.36482" lon="-1.90632">
        <ele>66</ele>
        <time>2016-04-24T09:34:23Z</time>
      </trkpt>
      <trkpt lat="47.36479" lon="-1.90622">
        <ele>66</ele>
        <time>2016-04-24T09:34:24Z</time>
      </trkpt>
      <trkpt lat="47.3647" lon="-1.90611">
        <ele>66</ele>
        <time>2016-04-24T09:34:25Z</time>
      </trkpt>
      <trkpt lat="47.36465" lon="-1.90601">
        <ele>66</ele>
        <time>2016-04-24T09:34:26Z</time>
      </trkpt>
      <trkpt lat="47.36462" lon="-1.9059">
        <ele>66</ele>
        <time>2016-04-24T09:34:27Z</time>
      </trkpt>
      <trkpt lat="47.36454" lon="-1.90581">
        <ele>66</ele>
        <time>2016-04-24T09:34:28Z</time>
      </trkpt>
      <trkpt lat="47.36448" lon="-1.90571">
        <ele>66</ele>
        <time>2016-04-24T09:34:29Z</time>
      </trkpt>
      <trkpt lat="47.36444" lon="-1.90562">
        <ele>66</ele>
        <time>2016-04-24T09:34:30Z</time>
      </trkpt>
      <trkpt lat="47.36435" lon="-1.9055">
        <ele>67</ele>
        <time>2016-04-24T09:34:31Z</time>
      </trkpt>
      <trkpt lat="47.36427" lon="-1.90538">
        <ele>67</ele>
        <time>2016-04-24T09:34:32Z</time>
      </trkpt>
      <trkpt lat="47.36425" lon="-1.90534">
        <ele>67</ele>
        <time>2016-04-24T09:34:33Z</time>
      </trkpt>
      <trkpt lat="47.36416" lon="-1.90525">
        <ele>66</ele>
        <time>2016-04-24T09:34:34Z</time>
      </trkpt>
      <trkpt lat="47.36413" lon="-1.90518">
        <ele>66</ele>
        <time>2016-04-24T09:34:35Z</time>
      </trkpt>
      <trkpt lat="47.36408" lon="-1.90508">
        <ele>66</ele>
        <time>2016-04-24T09:34:36Z</time>
      </trkpt>
      <trkpt lat="47.36399" lon="-1.90496">
        <ele>67</ele>
        <time>2016-04-24T09:34:37Z</time>
      </trkpt>
      <trkpt lat="47.36393" lon="-1.90485">
        <ele>67</ele>
        <time>2016-04-24T09:34:38Z</time>
      </trkpt>
      <trkpt lat="47.36389" lon="-1.90476">
        <ele>67</ele>
        <time>2016-04-24T09:34:39Z</time>
      </trkpt>
      <trkpt lat="47.36382" lon="-1.90465">
        <ele>67</ele>
        <time>2016-04-24T09:34:40Z</time>
      </trkpt>
      <trkpt lat="47.36373" lon="-1.90453">
        <ele>68</ele>
        <time>2016-04-24T09:34:41Z</time>
      </trkpt>
      <trkpt lat="47.3637" lon="-1.90445">
        <ele>68</ele>
        <time>2016-04-24T09:34:42Z</time>
      </trkpt>
      <trkpt lat="47.3636" lon="-1.90434">
        <ele>68</ele>
        <time>2016-04-24T09:34:43Z</time>
      </trkpt>
      <trkpt lat="47.36353" lon="-1.90424">
        <ele>68</ele>
        <time>2016-04-24T09:34:44Z</time>
      </trkpt>
      <trkpt lat="47.36347" lon="-1.90413">
        <ele>68</ele>
        <time>2016-04-24T09:34:45Z</time>
      </trkpt>
      <trkpt lat="47.36342" lon="-1.90405">
        <ele>68</ele>
        <time>2016-04-24T09:34:46Z</time>
      </trkpt>
      <trkpt lat="47.36333" lon="-1.90392">
        <ele>69</ele>
        <time>2016-04-24T09:34:47Z</time>
      </trkpt>
      <trkpt lat="47.36328" lon="-1.90383">
        <ele>70</ele>
        <time>2016-04-24T09:34:48Z</time>
      </trkpt>
      <trkpt lat="47.36323" lon="-1.90376">
        <ele>70</ele>
        <time>2016-04-24T09:34:49Z</time>
      </trkpt>
      <trkpt lat="47.36318" lon="-1.90365">
        <ele>70</ele>
        <time>2016-04-24T09:34:50Z</time>
      </trkpt>
      <trkpt lat="47.36314" lon="-1.9036">
        <ele>70</ele>
        <time>2016-04-24T09:34:51Z</time>
      </trkpt>
      <trkpt lat="47.36305" lon="-1.90349">
        <ele>70</ele>
        <time>2016-04-24T09:34:52Z</time>
      </trkpt>
      <trkpt lat="47.36299" lon="-1.90338">
        <ele>70</ele>
        <time>2016-04-24T09:34:53Z</time>
      </trkpt>
      <trkpt lat="47.36293" lon="-1.90328">
        <ele>70</ele>
        <time>2016-04-24T09:34:54Z</time>
      </trkpt>
      <trkpt lat="47.36292" lon="-1.90321">
        <ele>70</ele>
        <time>2016-04-24T09:34:55Z</time>
      </trkpt>
      <trkpt lat="47.36288" lon="-1.90312">
        <ele>70</ele>
        <time>2016-04-24T09:34:56Z</time>
      </trkpt>
      <trkpt lat="47.36281" lon="-1.90306">
        <ele>70</ele>
        <time>2016-04-24T09:34:57Z</time>
      </trkpt>
      <trkpt lat="47.36276" lon="-1.90297">
        <ele>70</ele>
        <time>2016-04-24T09:34:58Z</time>
      </trkpt>
      <trkpt lat="47.36266" lon="-1.90285">
        <ele>70</ele>
        <time>2016-04-24T09:35:00Z</time>
      </trkpt>
      <trkpt lat="47.36262" lon="-1.90279">
        <ele>70</ele>
        <time>2016-04-24T09:35:01Z</time>
      </trkpt>
      <trkpt lat="47.36259" lon="-1.90271">
        <ele>70</ele>
        <time>2016-04-24T09:35:02Z</time>
      </trkpt>
      <trkpt lat="47.36254" lon="-1.90264">
        <ele>70</ele>
        <time>2016-04-24T09:35:03Z</time>
      </trkpt>
      <trkpt lat="47.36249" lon="-1.90255">
        <ele>71</ele>
        <time>2016-04-24T09:35:04Z</time>
      </trkpt>
      <trkpt lat="47.36243" lon="-1.90247">
        <ele>71</ele>
        <time>2016-04-24T09:35:05Z</time>
      </trkpt>
      <trkpt lat="47.36239" lon="-1.9024">
        <ele>71</ele>
        <time>2016-04-24T09:35:06Z</time>
      </trkpt>
      <trkpt lat="47.36236" lon="-1.90234">
        <ele>72</ele>
        <time>2016-04-24T09:35:07Z</time>
      </trkpt>
      <trkpt lat="47.36231" lon="-1.90228">
        <ele>72</ele>
        <time>2016-04-24T09:35:08Z</time>
      </trkpt>
      <trkpt lat="47.36227" lon="-1.90223">
        <ele>72</ele>
        <time>2016-04-24T09:35:09Z</time>
      </trkpt>
      <trkpt lat="47.36223" lon="-1.90215">
        <ele>72</ele>
        <time>2016-04-24T09:35:10Z</time>
      </trkpt>
      <trkpt lat="47.3622" lon="-1.90211">
        <ele>72</ele>
        <time>2016-04-24T09:35:11Z</time>
      </trkpt>
      <trkpt lat="47.36216" lon="-1.90205">
        <ele>73</ele>
        <time>2016-04-24T09:35:12Z</time>
      </trkpt>
      <trkpt lat="47.36211" lon="-1.902">
        <ele>73</ele>
        <time>2016-04-24T09:35:13Z</time>
      </trkpt>
      <trkpt lat="47.36206" lon="-1.90195">
        <ele>73</ele>
        <time>2016-04-24T09:35:14Z</time>
      </trkpt>
      <trkpt lat="47.36201" lon="-1.90191">
        <ele>73</ele>
        <time>2016-04-24T09:35:15Z</time>
      </trkpt>
      <trkpt lat="47.36197" lon="-1.90189">
        <ele>73</ele>
        <time>2016-04-24T09:35:16Z</time>
      </trkpt>
      <trkpt lat="47.36191" lon="-1.90184">
        <ele>74</ele>
        <time>2016-04-24T09:35:17Z</time>
      </trkpt>
      <trkpt lat="47.36186" lon="-1.90183">
        <ele>74</ele>
        <time>2016-04-24T09:35:18Z</time>
      </trkpt>
      <trkpt lat="47.36183" lon="-1.9018">
        <ele>74</ele>
        <time>2016-04-24T09:35:19Z</time>
      </trkpt>
      <trkpt lat="47.36178" lon="-1.90177">
        <ele>74</ele>
        <time>2016-04-24T09:35:20Z</time>
      </trkpt>
      <trkpt lat="47.36175" lon="-1.90175">
        <ele>75</ele>
        <time>2016-04-24T09:35:21Z</time>
      </trkpt>
      <trkpt lat="47.36169" lon="-1.90172">
        <ele>75</ele>
        <time>2016-04-24T09:35:22Z</time>
      </trkpt>
      <trkpt lat="47.36166" lon="-1.9017">
        <ele>76</ele>
        <time>2016-04-24T09:35:23Z</time>
      </trkpt>
      <trkpt lat="47.3616" lon="-1.90172">
        <ele>76</ele>
        <time>2016-04-24T09:35:25Z</time>
      </trkpt>
      <trkpt lat="47.36154" lon="-1.9017">
        <ele>77</ele>
        <time>2016-04-24T09:35:27Z</time>
      </trkpt>
      <trkpt lat="47.36148" lon="-1.90169">
        <ele>77</ele>
        <time>2016-04-24T09:35:29Z</time>
      </trkpt>
      <trkpt lat="47.36143" lon="-1.90167">
        <ele>77</ele>
        <time>2016-04-24T09:35:30Z</time>
      </trkpt>
      <trkpt lat="47.36135" lon="-1.90166">
        <ele>78</ele>
        <time>2016-04-24T09:35:32Z</time>
      </trkpt>
      <trkpt lat="47.36132" lon="-1.90165">
        <ele>78</ele>
        <time>2016-04-24T09:35:33Z</time>
      </trkpt>
      <trkpt lat="47.36128" lon="-1.90164">
        <ele>78</ele>
        <time>2016-04-24T09:35:34Z</time>
      </trkpt>
      <trkpt lat="47.36125" lon="-1.90163">
        <ele>78</ele>
        <time>2016-04-24T09:35:35Z</time>
      </trkpt>
      <trkpt lat="47.36121" lon="-1.90162">
        <ele>78</ele>
        <time>2016-04-24T09:35:36Z</time>
      </trkpt>
      <trkpt lat="47.36118" lon="-1.9016">
        <ele>78</ele>
        <time>2016-04-24T09:35:37Z</time>
      </trkpt>
      <trkpt lat="47.36115" lon="-1.90159">
        <ele>78</ele>
        <time>2016-04-24T09:35:38Z</time>
      </trkpt>
      <trkpt lat="47.36111" lon="-1.90158">
        <ele>78</ele>
        <time>2016-04-24T09:35:39Z</time>
      </trkpt>
      <trkpt lat="47.36108" lon="-1.90158">
        <ele>79</ele>
        <time>2016-04-24T09:35:40Z</time>
      </trkpt>
      <trkpt lat="47.36105" lon="-1.90158">
        <ele>79</ele>
        <time>2016-04-24T09:35:41Z</time>
      </trkpt>
      <trkpt lat="47.36102" lon="-1.90158">
        <ele>79</ele>
        <time>2016-04-24T09:35:42Z</time>
      </trkpt>
      <trkpt lat="47.36099" lon="-1.90159">
        <ele>79</ele>
        <time>2016-04-24T09:35:43Z</time>
      </trkpt>
      <trkpt lat="47.36096" lon="-1.90159">
        <ele>79</ele>
        <time>2016-04-24T09:35:44Z</time>
      </trkpt>
      <trkpt lat="47.36092" lon="-1.90163">
        <ele>79</ele>
        <time>2016-04-24T09:35:46Z</time>
      </trkpt>
      <trkpt lat="47.36092" lon="-1.90167">
        <ele>79</ele>
        <time>2016-04-24T09:35:47Z</time>
      </trkpt>
      <trkpt lat="47.36093" lon="-1.90172">
        <ele>79</ele>
        <time>2016-04-24T09:35:48Z</time>
      </trkpt>
      <trkpt lat="47.36094" lon="-1.90177">
        <ele>79</ele>
        <time>2016-04-24T09:35:49Z</time>
      </trkpt>
      <trkpt lat="47.36097" lon="-1.90184">
        <ele>78</ele>
        <time>2016-04-24T09:35:50Z</time>
      </trkpt>
      <trkpt lat="47.36099" lon="-1.90191">
        <ele>78</ele>
        <time>2016-04-24T09:35:51Z</time>
      </trkpt>
      <trkpt lat="47.36101" lon="-1.90197">
        <ele>78</ele>
        <time>2016-04-24T09:35:52Z</time>
      </trkpt>
      <trkpt lat="47.36103" lon="-1.90204">
        <ele>78</ele>
        <time>2016-04-24T09:35:53Z</time>
      </trkpt>
      <trkpt lat="47.36105" lon="-1.9021">
        <ele>78</ele>
        <time>2016-04-24T09:35:54Z</time>
      </trkpt>
      <trkpt lat="47.36106" lon="-1.90216">
        <ele>78</ele>
        <time>2016-04-24T09:35:55Z</time>
      </trkpt>
      <trkpt lat="47.36107" lon="-1.90223">
        <ele>78</ele>
        <time>2016-04-24T09:35:56Z</time>
      </trkpt>
      <trkpt lat="47.36108" lon="-1.90229">
        <ele>78</ele>
        <time>2016-04-24T09:35:57Z</time>
      </trkpt>
      <trkpt lat="47.36109" lon="-1.90236">
        <ele>78</ele>
        <time>2016-04-24T09:35:58Z</time>
      </trkpt>
      <trkpt lat="47.36112" lon="-1.90247">
        <ele>78</ele>
        <time>2016-04-24T09:35:59Z</time>
      </trkpt>
      <trkpt lat="47.36113" lon="-1.90254">
        <ele>77</ele>
        <time>2016-04-24T09:36:00Z</time>
      </trkpt>
      <trkpt lat="47.36116" lon="-1.90266">
        <ele>76</ele>
        <time>2016-04-24T09:36:02Z</time>
      </trkpt>
      <trkpt lat="47.36117" lon="-1.90274">
        <ele>76</ele>
        <time>2016-04-24T09:36:03Z</time>
      </trkpt>
      <trkpt lat="47.36118" lon="-1.90281">
        <ele>76</ele>
        <time>2016-04-24T09:36:04Z</time>
      </trkpt>
      <trkpt lat="47.3612" lon="-1.90287">
        <ele>76</ele>
        <time>2016-04-24T09:36:05Z</time>
      </trkpt>
      <trkpt lat="47.36123" lon="-1.90293">
        <ele>76</ele>
        <time>2016-04-24T09:36:06Z</time>
      </trkpt>
      <trkpt lat="47.36124" lon="-1.90298">
        <ele>76</ele>
        <time>2016-04-24T09:36:07Z</time>
      </trkpt>
      <trkpt lat="47.36125" lon="-1.90307">
        <ele>76</ele>
        <time>2016-04-24T09:36:08Z</time>
      </trkpt>
      <trkpt lat="47.36126" lon="-1.90315">
        <ele>76</ele>
        <time>2016-04-24T09:36:09Z</time>
      </trkpt>
      <trkpt lat="47.36128" lon="-1.90323">
        <ele>75</ele>
        <time>2016-04-24T09:36:10Z</time>
      </trkpt>
      <trkpt lat="47.3613" lon="-1.90331">
        <ele>75</ele>
        <time>2016-04-24T09:36:11Z</time>
      </trkpt>
      <trkpt lat="47.36131" lon="-1.90339">
        <ele>75</ele>
        <time>2016-04-24T09:36:12Z</time>
      </trkpt>
      <trkpt lat="47.36132" lon="-1.90346">
        <ele>75</ele>
        <time>2016-04-24T09:36:13Z</time>
      </trkpt>
      <trkpt lat="47.36134" lon="-1.90356">
        <ele>75</ele>
        <time>2016-04-24T09:36:14Z</time>
      </trkpt>
      <trkpt lat="47.36133" lon="-1.90365">
        <ele>75</ele>
        <time>2016-04-24T09:36:15Z</time>
      </trkpt>
      <trkpt lat="47.36134" lon="-1.90375">
        <ele>75</ele>
        <time>2016-04-24T09:36:16Z</time>
      </trkpt>
      <trkpt lat="47.36136" lon="-1.90384">
        <ele>74</ele>
        <time>2016-04-24T09:36:17Z</time>
      </trkpt>
      <trkpt lat="47.36137" lon="-1.90394">
        <ele>74</ele>
        <time>2016-04-24T09:36:18Z</time>
      </trkpt>
      <trkpt lat="47.36138" lon="-1.90402">
        <ele>74</ele>
        <time>2016-04-24T09:36:19Z</time>
      </trkpt>
      <trkpt lat="47.36139" lon="-1.90409">
        <ele>74</ele>
        <time>2016-04-24T09:36:20Z</time>
      </trkpt>
      <trkpt lat="47.36142" lon="-1.90416">
        <ele>74</ele>
        <time>2016-04-24T09:36:21Z</time>
      </trkpt>
      <trkpt lat="47.36143" lon="-1.90426">
        <ele>74</ele>
        <time>2016-04-24T09:36:22Z</time>
      </trkpt>
      <trkpt lat="47.36146" lon="-1.90434">
        <ele>74</ele>
        <time>2016-04-24T09:36:23Z</time>
      </trkpt>
      <trkpt lat="47.36148" lon="-1.90444">
        <ele>74</ele>
        <time>2016-04-24T09:36:24Z</time>
      </trkpt>
      <trkpt lat="47.36151" lon="-1.90452">
        <ele>74</ele>
        <time>2016-04-24T09:36:25Z</time>
      </trkpt>
      <trkpt lat="47.36154" lon="-1.90462">
        <ele>74</ele>
        <time>2016-04-24T09:36:26Z</time>
      </trkpt>
      <trkpt lat="47.36157" lon="-1.90472">
        <ele>74</ele>
        <time>2016-04-24T09:36:27Z</time>
      </trkpt>
      <trkpt lat="47.36159" lon="-1.90481">
        <ele>74</ele>
        <time>2016-04-24T09:36:28Z</time>
      </trkpt>
      <trkpt lat="47.36159" lon="-1.90488">
        <ele>74</ele>
        <time>2016-04-24T09:36:29Z</time>
      </trkpt>
      <trkpt lat="47.3616" lon="-1.90497">
        <ele>74</ele>
        <time>2016-04-24T09:36:30Z</time>
      </trkpt>
      <trkpt lat="47.36161" lon="-1.90508">
        <ele>74</ele>
        <time>2016-04-24T09:36:31Z</time>
      </trkpt>
      <trkpt lat="47.36162" lon="-1.90519">
        <ele>74</ele>
        <time>2016-04-24T09:36:32Z</time>
      </trkpt>
      <trkpt lat="47.36165" lon="-1.9053">
        <ele>74</ele>
        <time>2016-04-24T09:36:33Z</time>
      </trkpt>
      <trkpt lat="47.36167" lon="-1.90538">
        <ele>74</ele>
        <time>2016-04-24T09:36:34Z</time>
      </trkpt>
      <trkpt lat="47.36169" lon="-1.90548">
        <ele>75</ele>
        <time>2016-04-24T09:36:35Z</time>
      </trkpt>
      <trkpt lat="47.36171" lon="-1.90556">
        <ele>75</ele>
        <time>2016-04-24T09:36:36Z</time>
      </trkpt>
      <trkpt lat="47.36174" lon="-1.90565">
        <ele>75</ele>
        <time>2016-04-24T09:36:37Z</time>
      </trkpt>
      <trkpt lat="47.36175" lon="-1.90571">
        <ele>75</ele>
        <time>2016-04-24T09:36:38Z</time>
      </trkpt>
      <trkpt lat="47.36176" lon="-1.90579">
        <ele>75</ele>
        <time>2016-04-24T09:36:39Z</time>
      </trkpt>
      <trkpt lat="47.36177" lon="-1.90587">
        <ele>75</ele>
        <time>2016-04-24T09:36:40Z</time>
      </trkpt>
      <trkpt lat="47.36176" lon="-1.90595">
        <ele>75</ele>
        <time>2016-04-24T09:36:41Z</time>
      </trkpt>
      <trkpt lat="47.36178" lon="-1.90603">
        <ele>75</ele>
        <time>2016-04-24T09:36:42Z</time>
      </trkpt>
      <trkpt lat="47.36178" lon="-1.9061">
        <ele>75</ele>
        <time>2016-04-24T09:36:43Z</time>
      </trkpt>
      <trkpt lat="47.36177" lon="-1.90617">
        <ele>75</ele>
        <time>2016-04-24T09:36:44Z</time>
      </trkpt>
      <trkpt lat="47.3618" lon="-1.90626">
        <ele>75</ele>
        <time>2016-04-24T09:36:45Z</time>
      </trkpt>
      <trkpt lat="47.36181" lon="-1.90635">
        <ele>75</ele>
        <time>2016-04-24T09:36:46Z</time>
      </trkpt>
      <trkpt lat="47.36185" lon="-1.90646">
        <ele>75</ele>
        <time>2016-04-24T09:36:47Z</time>
      </trkpt>
      <trkpt lat="47.36185" lon="-1.90654">
        <ele>75</ele>
        <time>2016-04-24T09:36:48Z</time>
      </trkpt>
      <trkpt lat="47.36187" lon="-1.90663">
        <ele>75</ele>
        <time>2016-04-24T09:36:49Z</time>
      </trkpt>
      <trkpt lat="47.36186" lon="-1.90668">
        <ele>74</ele>
        <time>2016-04-24T09:36:50Z</time>
      </trkpt>
      <trkpt lat="47.36188" lon="-1.90676">
        <ele>74</ele>
        <time>2016-04-24T09:36:51Z</time>
      </trkpt>
      <trkpt lat="47.36189" lon="-1.90684">
        <ele>74</ele>
        <time>2016-04-24T09:36:52Z</time>
      </trkpt>
      <trkpt lat="47.36189" lon="-1.90692">
        <ele>73</ele>
        <time>2016-04-24T09:36:53Z</time>
      </trkpt>
      <trkpt lat="47.36186" lon="-1.90699">
        <ele>73</ele>
        <time>2016-04-24T09:36:54Z</time>
      </trkpt>
      <trkpt lat="47.3619" lon="-1.90705">
        <ele>73</ele>
        <time>2016-04-24T09:36:55Z</time>
      </trkpt>
      <trkpt lat="47.36194" lon="-1.90712">
        <ele>73</ele>
        <time>2016-04-24T09:36:56Z</time>
      </trkpt>
      <trkpt lat="47.36195" lon="-1.90721">
        <ele>73</ele>
        <time>2016-04-24T09:36:57Z</time>
      </trkpt>
      <trkpt lat="47.36197" lon="-1.90727">
        <ele>73</ele>
        <time>2016-04-24T09:36:58Z</time>
      </trkpt>
      <trkpt lat="47.36198" lon="-1.90735">
        <ele>73</ele>
        <time>2016-04-24T09:36:59Z</time>
      </trkpt>
      <trkpt lat="47.36202" lon="-1.90746">
        <ele>72</ele>
        <time>2016-04-24T09:37:00Z</time>
      </trkpt>
      <trkpt lat="47.36205" lon="-1.90758">
        <ele>70</ele>
        <time>2016-04-24T09:37:01Z</time>
      </trkpt>
      <trkpt lat="47.36207" lon="-1.90762">
        <ele>70</ele>
        <time>2016-04-24T09:37:02Z</time>
      </trkpt>
      <trkpt lat="47.3621" lon="-1.90771">
        <ele>70</ele>
        <time>2016-04-24T09:37:03Z</time>
      </trkpt>
      <trkpt lat="47.36209" lon="-1.90778">
        <ele>70</ele>
        <time>2016-04-24T09:37:04Z</time>
      </trkpt>
      <trkpt lat="47.36209" lon="-1.90785">
        <ele>70</ele>
        <time>2016-04-24T09:37:05Z</time>
      </trkpt>
      <trkpt lat="47.3621" lon="-1.90789">
        <ele>70</ele>
        <time>2016-04-24T09:37:06Z</time>
      </trkpt>
      <trkpt lat="47.36213" lon="-1.90801">
        <ele>70</ele>
        <time>2016-04-24T09:37:07Z</time>
      </trkpt>
      <trkpt lat="47.36212" lon="-1.90807">
        <ele>69</ele>
        <time>2016-04-24T09:37:08Z</time>
      </trkpt>
      <trkpt lat="47.3621" lon="-1.90813">
        <ele>69</ele>
        <time>2016-04-24T09:37:09Z</time>
      </trkpt>
      <trkpt lat="47.36214" lon="-1.90816">
        <ele>69</ele>
        <time>2016-04-24T09:37:10Z</time>
      </trkpt>
      <trkpt lat="47.36218" lon="-1.90812">
        <ele>69</ele>
        <time>2016-04-24T09:37:13Z</time>
      </trkpt>
      <trkpt lat="47.36221" lon="-1.9081">
        <ele>69</ele>
        <time>2016-04-24T09:37:16Z</time>
      </trkpt>
      <trkpt lat="47.36223" lon="-1.90806">
        <ele>70</ele>
        <time>2016-04-24T09:37:18Z</time>
      </trkpt>
      <trkpt lat="47.36225" lon="-1.90801">
        <ele>70</ele>
        <time>2016-04-24T09:37:20Z</time>
      </trkpt>
      <trkpt lat="47.36225" lon="-1.90795">
        <ele>70</ele>
        <time>2016-04-24T09:37:22Z</time>
      </trkpt>
      <trkpt lat="47.36224" lon="-1.90786">
        <ele>70</ele>
        <time>2016-04-24T09:37:24Z</time>
      </trkpt>
      <trkpt lat="47.36224" lon="-1.90782">
        <ele>70</ele>
        <time>2016-04-24T09:37:25Z</time>
      </trkpt>
      <trkpt lat="47.36224" lon="-1.90777">
        <ele>70</ele>
        <time>2016-04-24T09:37:26Z</time>
      </trkpt>
      <trkpt lat="47.36224" lon="-1.90772">
        <ele>70</ele>
        <time>2016-04-24T09:37:27Z</time>
      </trkpt>
      <trkpt lat="47.36224" lon="-1.90767">
        <ele>70</ele>
        <time>2016-04-24T09:37:28Z</time>
      </trkpt>
      <trkpt lat="47.36224" lon="-1.90762">
        <ele>70</ele>
        <time>2016-04-24T09:37:29Z</time>
      </trkpt>
      <trkpt lat="47.36224" lon="-1.90758">
        <ele>70</ele>
        <time>2016-04-24T09:37:30Z</time>
      </trkpt>
      <trkpt lat="47.36224" lon="-1.90754">
        <ele>70</ele>
        <time>2016-04-24T09:37:31Z</time>
      </trkpt>
      <trkpt lat="47.36222" lon="-1.9075">
        <ele>72</ele>
        <time>2016-04-24T09:37:32Z</time>
      </trkpt>
      <trkpt lat="47.36221" lon="-1.90746">
        <ele>72</ele>
        <time>2016-04-24T09:37:33Z</time>
      </trkpt>
      <trkpt lat="47.3622" lon="-1.90742">
        <ele>72</ele>
        <time>2016-04-24T09:37:34Z</time>
      </trkpt>
      <trkpt lat="47.36219" lon="-1.90738">
        <ele>72</ele>
        <time>2016-04-24T09:37:35Z</time>
      </trkpt>
      <trkpt lat="47.36218" lon="-1.90734">
        <ele>72</ele>
        <time>2016-04-24T09:37:36Z</time>
      </trkpt>
      <trkpt lat="47.36217" lon="-1.9073">
        <ele>73</ele>
        <time>2016-04-24T09:37:37Z</time>
      </trkpt>
      <trkpt lat="47.36217" lon="-1.90725">
        <ele>73</ele>
        <time>2016-04-24T09:37:38Z</time>
      </trkpt>
      <trkpt lat="47.36218" lon="-1.9072">
        <ele>73</ele>
        <time>2016-04-24T09:37:39Z</time>
      </trkpt>
      <trkpt lat="47.36218" lon="-1.90714">
        <ele>73</ele>
        <time>2016-04-24T09:37:40Z</time>
      </trkpt>
      <trkpt lat="47.36218" lon="-1.90709">
        <ele>73</ele>
        <time>2016-04-24T09:37:41Z</time>
      </trkpt>
      <trkpt lat="47.36218" lon="-1.90704">
        <ele>73</ele>
        <time>2016-04-24T09:37:42Z</time>
      </trkpt>
      <trkpt lat="47.36217" lon="-1.90699">
        <ele>73</ele>
        <time>2016-04-24T09:37:43Z</time>
      </trkpt>
      <trkpt lat="47.36216" lon="-1.90695">
        <ele>73</ele>
        <time>2016-04-24T09:37:44Z</time>
      </trkpt>
      <trkpt lat="47.36217" lon="-1.9069">
        <ele>73</ele>
        <time>2016-04-24T09:37:45Z</time>
      </trkpt>
      <trkpt lat="47.36217" lon="-1.90684">
        <ele>73</ele>
        <time>2016-04-24T09:37:46Z</time>
      </trkpt>
      <trkpt lat="47.36217" lon="-1.90679">
        <ele>73</ele>
        <time>2016-04-24T09:37:47Z</time>
      </trkpt>
      <trkpt lat="47.36217" lon="-1.90672">
        <ele>73</ele>
        <time>2016-04-24T09:37:48Z</time>
      </trkpt>
      <trkpt lat="47.36217" lon="-1.90666">
        <ele>75</ele>
        <time>2016-04-24T09:37:49Z</time>
      </trkpt>
      <trkpt lat="47.36216" lon="-1.90659">
        <ele>75</ele>
        <time>2016-04-24T09:37:50Z</time>
      </trkpt>
      <trkpt lat="47.36216" lon="-1.90653">
        <ele>75</ele>
        <time>2016-04-24T09:37:51Z</time>
      </trkpt>
      <trkpt lat="47.36215" lon="-1.90646">
        <ele>75</ele>
        <time>2016-04-24T09:37:52Z</time>
      </trkpt>
      <trkpt lat="47.36215" lon="-1.9064">
        <ele>75</ele>
        <time>2016-04-24T09:37:53Z</time>
      </trkpt>
      <trkpt lat="47.36214" lon="-1.90634">
        <ele>75</ele>
        <time>2016-04-24T09:37:54Z</time>
      </trkpt>
      <trkpt lat="47.36212" lon="-1.90629">
        <ele>75</ele>
        <time>2016-04-24T09:37:55Z</time>
      </trkpt>
      <trkpt lat="47.36209" lon="-1.90626">
        <ele>75</ele>
        <time>2016-04-24T09:37:56Z</time>
      </trkpt>
      <trkpt lat="47.36205" lon="-1.9062">
        <ele>75</ele>
        <time>2016-04-24T09:37:58Z</time>
      </trkpt>
      <trkpt lat="47.36204" lon="-1.90615">
        <ele>75</ele>
        <time>2016-04-24T09:37:59Z</time>
      </trkpt>
      <trkpt lat="47.36202" lon="-1.9061">
        <ele>75</ele>
        <time>2016-04-24T09:38:00Z</time>
      </trkpt>
      <trkpt lat="47.362" lon="-1.90606">
        <ele>75</ele>
        <time>2016-04-24T09:38:01Z</time>
      </trkpt>
      <trkpt lat="47.36198" lon="-1.90603">
        <ele>75</ele>
        <time>2016-04-24T09:38:02Z</time>
      </trkpt>
      <trkpt lat="47.36196" lon="-1.906">
        <ele>75</ele>
        <time>2016-04-24T09:38:03Z</time>
      </trkpt>
      <trkpt lat="47.36192" lon="-1.90596">
        <ele>75</ele>
        <time>2016-04-24T09:38:05Z</time>
      </trkpt>
      <trkpt lat="47.36189" lon="-1.90589">
        <ele>75</ele>
        <time>2016-04-24T09:38:07Z</time>
      </trkpt>
      <trkpt lat="47.36193" lon="-1.9059">
        <ele>75</ele>
        <time>2016-04-24T09:38:09Z</time>
      </trkpt>
      <trkpt lat="47.36197" lon="-1.90593">
        <ele>75</ele>
        <time>2016-04-24T09:38:11Z</time>
      </trkpt>
      <trkpt lat="47.36201" lon="-1.90591">
        <ele>75</ele>
        <time>2016-04-24T09:38:13Z</time>
      </trkpt>
      <trkpt lat="47.36203" lon="-1.90585">
        <ele>75</ele>
        <time>2016-04-24T09:38:15Z</time>
      </trkpt>
      <trkpt lat="47.36202" lon="-1.90579">
        <ele>75</ele>
        <time>2016-04-24T09:38:17Z</time>
      </trkpt>
      <trkpt lat="47.36205" lon="-1.90576">
        <ele>75</ele>
        <time>2016-04-24T09:38:19Z</time>
      </trkpt>
      <trkpt lat="47.36209" lon="-1.90578">
        <ele>75</ele>
        <time>2016-04-24T09:38:21Z</time>
      </trkpt>
      <trkpt lat="47.36212" lon="-1.90577">
        <ele>75</ele>
        <time>2016-04-24T09:38:23Z</time>
      </trkpt>
      <trkpt lat="47.36214" lon="-1.90572">
        <ele>75</ele>
        <time>2016-04-24T09:38:26Z</time>
      </trkpt>
      <trkpt lat="47.36217" lon="-1.90566">
        <ele>75</ele>
        <time>2016-04-24T09:38:28Z</time>
      </trkpt>
      <trkpt lat="47.36222" lon="-1.90563">
        <ele>75</ele>
        <time>2016-04-24T09:38:30Z</time>
      </trkpt>
      <trkpt lat="47.36225" lon="-1.90561">
        <ele>75</ele>
        <time>2016-04-24T09:38:31Z</time>
      </trkpt>
      <trkpt lat="47.36228" lon="-1.90556">
        <ele>75</ele>
        <time>2016-04-24T09:38:33Z</time>
      </trkpt>
      <trkpt lat="47.3623" lon="-1.90551">
        <ele>75</ele>
        <time>2016-04-24T09:38:35Z</time>
      </trkpt>
      <trkpt lat="47.36234" lon="-1.90547">
        <ele>75</ele>
        <time>2016-04-24T09:38:37Z</time>
      </trkpt>
      <trkpt lat="47.36238" lon="-1.90542">
        <ele>74</ele>
        <time>2016-04-24T09:38:39Z</time>
      </trkpt>
      <trkpt lat="47.36241" lon="-1.90539">
        <ele>74</ele>
        <time>2016-04-24T09:38:40Z</time>
      </trkpt>
      <trkpt lat="47.36244" lon="-1.90537">
        <ele>74</ele>
        <time>2016-04-24T09:38:41Z</time>
      </trkpt>
      <trkpt lat="47.36247" lon="-1.90535">
        <ele>74</ele>
        <time>2016-04-24T09:38:42Z</time>
      </trkpt>
      <trkpt lat="47.36249" lon="-1.90532">
        <ele>74</ele>
        <time>2016-04-24T09:38:43Z</time>
      </trkpt>
      <trkpt lat="47.36251" lon="-1.90529">
        <ele>72</ele>
        <time>2016-04-24T09:38:44Z</time>
      </trkpt>
      <trkpt lat="47.36252" lon="-1.90526">
        <ele>72</ele>
        <time>2016-04-24T09:38:45Z</time>
      </trkpt>
      <trkpt lat="47.36255" lon="-1.90523">
        <ele>72</ele>
        <time>2016-04-24T09:38:46Z</time>
      </trkpt>
      <trkpt lat="47.36258" lon="-1.90522">
        <ele>72</ele>
        <time>2016-04-24T09:38:47Z</time>
      </trkpt>
      <trkpt lat="47.36261" lon="-1.90523">
        <ele>72</ele>
        <time>2016-04-24T09:38:48Z</time>
      </trkpt>
      <trkpt lat="47.36264" lon="-1.90526">
        <ele>71</ele>
        <time>2016-04-24T09:38:49Z</time>
      </trkpt>
      <trkpt lat="47.36266" lon="-1.90531">
        <ele>71</ele>
        <time>2016-04-24T09:38:50Z</time>
      </trkpt>
      <trkpt lat="47.36268" lon="-1.90535">
        <ele>71</ele>
        <time>2016-04-24T09:38:51Z</time>
      </trkpt>
      <trkpt lat="47.36269" lon="-1.90539">
        <ele>71</ele>
        <time>2016-04-24T09:38:52Z</time>
      </trkpt>
      <trkpt lat="47.36272" lon="-1.90545">
        <ele>71</ele>
        <time>2016-04-24T09:38:54Z</time>
      </trkpt>
      <trkpt lat="47.36274" lon="-1.90547">
        <ele>71</ele>
        <time>2016-04-24T09:38:55Z</time>
      </trkpt>
      <trkpt lat="47.36277" lon="-1.90549">
        <ele>71</ele>
        <time>2016-04-24T09:38:56Z</time>
      </trkpt>
      <trkpt lat="47.36279" lon="-1.90552">
        <ele>71</ele>
        <time>2016-04-24T09:38:57Z</time>
      </trkpt>
      <trkpt lat="47.3628" lon="-1.90559">
        <ele>71</ele>
        <time>2016-04-24T09:38:59Z</time>
      </trkpt>
      <trkpt lat="47.3628" lon="-1.90565">
        <ele>71</ele>
        <time>2016-04-24T09:39:01Z</time>
      </trkpt>
      <trkpt lat="47.36281" lon="-1.9057">
        <ele>71</ele>
        <time>2016-04-24T09:39:03Z</time>
      </trkpt>
      <trkpt lat="47.36285" lon="-1.9057">
        <ele>70</ele>
        <time>2016-04-24T09:39:05Z</time>
      </trkpt>
      <trkpt lat="47.36288" lon="-1.90567">
        <ele>70</ele>
        <time>2016-04-24T09:39:07Z</time>
      </trkpt>
      <trkpt lat="47.3629" lon="-1.90562">
        <ele>70</ele>
        <time>2016-04-24T09:39:09Z</time>
      </trkpt>
      <trkpt lat="47.3629" lon="-1.90556">
        <ele>70</ele>
        <time>2016-04-24T09:39:11Z</time>
      </trkpt>
      <trkpt lat="47.36289" lon="-1.90551">
        <ele>70</ele>
        <time>2016-04-24T09:39:13Z</time>
      </trkpt>
      <trkpt lat="47.36292" lon="-1.90551">
        <ele>70</ele>
        <time>2016-04-24T09:39:22Z</time>
      </trkpt>
      <trkpt lat="47.36291" lon="-1.90547">
        <ele>70</ele>
        <time>2016-04-24T09:39:40Z</time>
      </trkpt>
      <trkpt lat="47.36288" lon="-1.90543">
        <ele>70</ele>
        <time>2016-04-24T09:39:42Z</time>
      </trkpt>
      <trkpt lat="47.36286" lon="-1.90534">
        <ele>70</ele>
        <time>2016-04-24T09:39:44Z</time>
      </trkpt>
      <trkpt lat="47.36284" lon="-1.90529">
        <ele>70</ele>
        <time>2016-04-24T09:39:45Z</time>
      </trkpt>
      <trkpt lat="47.36282" lon="-1.90524">
        <ele>70</ele>
        <time>2016-04-24T09:39:46Z</time>
      </trkpt>
      <trkpt lat="47.3628" lon="-1.90519">
        <ele>71</ele>
        <time>2016-04-24T09:39:47Z</time>
      </trkpt>
      <trkpt lat="47.36279" lon="-1.90514">
        <ele>71</ele>
        <time>2016-04-24T09:39:48Z</time>
      </trkpt>
      <trkpt lat="47.36277" lon="-1.9051">
        <ele>71</ele>
        <time>2016-04-24T09:39:49Z</time>
      </trkpt>
      <trkpt lat="47.36274" lon="-1.90505">
        <ele>71</ele>
        <time>2016-04-24T09:39:50Z</time>
      </trkpt>
      <trkpt lat="47.36272" lon="-1.90501">
        <ele>71</ele>
        <time>2016-04-24T09:39:51Z</time>
      </trkpt>
      <trkpt lat="47.3627" lon="-1.90497">
        <ele>72</ele>
        <time>2016-04-24T09:39:52Z</time>
      </trkpt>
      <trkpt lat="47.36268" lon="-1.90494">
        <ele>72</ele>
        <time>2016-04-24T09:39:53Z</time>
      </trkpt>
      <trkpt lat="47.36266" lon="-1.9049">
        <ele>72</ele>
        <time>2016-04-24T09:39:54Z</time>
      </trkpt>
      <trkpt lat="47.36264" lon="-1.90484">
        <ele>72</ele>
        <time>2016-04-24T09:39:56Z</time>
      </trkpt>
      <trkpt lat="47.36263" lon="-1.90476">
        <ele>72</ele>
        <time>2016-04-24T09:39:58Z</time>
      </trkpt>
      <trkpt lat="47.36263" lon="-1.90472">
        <ele>72</ele>
        <time>2016-04-24T09:39:59Z</time>
      </trkpt>
      <trkpt lat="47.36263" lon="-1.90465">
        <ele>72</ele>
        <time>2016-04-24T09:40:01Z</time>
      </trkpt>
      <trkpt lat="47.36263" lon="-1.90456">
        <ele>72</ele>
        <time>2016-04-24T09:40:03Z</time>
      </trkpt>
      <trkpt lat="47.36263" lon="-1.90451">
        <ele>72</ele>
        <time>2016-04-24T09:40:04Z</time>
      </trkpt>
      <trkpt lat="47.36262" lon="-1.90445">
        <ele>72</ele>
        <time>2016-04-24T09:40:05Z</time>
      </trkpt>
      <trkpt lat="47.36261" lon="-1.9044">
        <ele>72</ele>
        <time>2016-04-24T09:40:06Z</time>
      </trkpt>
      <trkpt lat="47.3626" lon="-1.90435">
        <ele>72</ele>
        <time>2016-04-24T09:40:07Z</time>
      </trkpt>
      <trkpt lat="47.36259" lon="-1.9043">
        <ele>72</ele>
        <time>2016-04-24T09:40:08Z</time>
      </trkpt>
      <trkpt lat="47.36258" lon="-1.90424">
        <ele>73</ele>
        <time>2016-04-24T09:40:09Z</time>
      </trkpt>
      <trkpt lat="47.36257" lon="-1.90419">
        <ele>73</ele>
        <time>2016-04-24T09:40:10Z</time>
      </trkpt>
      <trkpt lat="47.36256" lon="-1.90414">
        <ele>73</ele>
        <time>2016-04-24T09:40:11Z</time>
      </trkpt>
      <trkpt lat="47.36255" lon="-1.90409">
        <ele>73</ele>
        <time>2016-04-24T09:40:12Z</time>
      </trkpt>
      <trkpt lat="47.36254" lon="-1.90404">
        <ele>73</ele>
        <time>2016-04-24T09:40:13Z</time>
      </trkpt>
      <trkpt lat="47.36253" lon="-1.904">
        <ele>72</ele>
        <time>2016-04-24T09:40:14Z</time>
      </trkpt>
      <trkpt lat="47.36252" lon="-1.90395">
        <ele>72</ele>
        <time>2016-04-24T09:40:15Z</time>
      </trkpt>
      <trkpt lat="47.36251" lon="-1.90391">
        <ele>72</ele>
        <time>2016-04-24T09:40:16Z</time>
      </trkpt>
      <trkpt lat="47.36249" lon="-1.90387">
        <ele>74</ele>
        <time>2016-04-24T09:40:17Z</time>
      </trkpt>
      <trkpt lat="47.36248" lon="-1.90381">
        <ele>74</ele>
        <time>2016-04-24T09:40:19Z</time>
      </trkpt>
      <trkpt lat="47.3625" lon="-1.90378">
        <ele>74</ele>
        <time>2016-04-24T09:40:23Z</time>
      </trkpt>
      <trkpt lat="47.36253" lon="-1.90378">
        <ele>72</ele>
        <time>2016-04-24T09:40:26Z</time>
      </trkpt>
      <trkpt lat="47.36256" lon="-1.90377">
        <ele>72</ele>
        <time>2016-04-24T09:40:41Z</time>
      </trkpt>
      <trkpt lat="47.36258" lon="-1.90379">
        <ele>72</ele>
        <time>2016-04-24T09:40:43Z</time>
      </trkpt>
      <trkpt lat="47.36261" lon="-1.9038">
        <ele>72</ele>
        <time>2016-04-24T09:40:44Z</time>
      </trkpt>
      <trkpt lat="47.36264" lon="-1.9038">
        <ele>72</ele>
        <time>2016-04-24T09:40:45Z</time>
      </trkpt>
      <trkpt lat="47.36267" lon="-1.9038">
        <ele>72</ele>
        <time>2016-04-24T09:40:46Z</time>
      </trkpt>
      <trkpt lat="47.36271" lon="-1.90379">
        <ele>71</ele>
        <time>2016-04-24T09:40:47Z</time>
      </trkpt>
      <trkpt lat="47.36274" lon="-1.90378">
        <ele>71</ele>
        <time>2016-04-24T09:40:48Z</time>
      </trkpt>
      <trkpt lat="47.36277" lon="-1.90375">
        <ele>71</ele>
        <time>2016-04-24T09:40:49Z</time>
      </trkpt>
      <trkpt lat="47.3628" lon="-1.90371">
        <ele>71</ele>
        <time>2016-04-24T09:40:50Z</time>
      </trkpt>
      <trkpt lat="47.36284" lon="-1.90368">
        <ele>71</ele>
        <time>2016-04-24T09:40:51Z</time>
      </trkpt>
      <trkpt lat="47.36287" lon="-1.90365">
        <ele>71</ele>
        <time>2016-04-24T09:40:52Z</time>
      </trkpt>
      <trkpt lat="47.3629" lon="-1.90363">
        <ele>71</ele>
        <time>2016-04-24T09:40:53Z</time>
      </trkpt>
      <trkpt lat="47.36293" lon="-1.90361">
        <ele>71</ele>
        <time>2016-04-24T09:40:54Z</time>
      </trkpt>
      <trkpt lat="47.36296" lon="-1.90359">
        <ele>71</ele>
        <time>2016-04-24T09:40:55Z</time>
      </trkpt>
      <trkpt lat="47.363" lon="-1.90363">
        <ele>70</ele>
        <time>2016-04-24T09:40:57Z</time>
      </trkpt>
      <trkpt lat="47.36301" lon="-1.90369">
        <ele>70</ele>
        <time>2016-04-24T09:40:59Z</time>
      </trkpt>
      <trkpt lat="47.36303" lon="-1.90377">
        <ele>70</ele>
        <time>2016-04-24T09:41:01Z</time>
      </trkpt>
      <trkpt lat="47.36304" lon="-1.90381">
        <ele>70</ele>
        <time>2016-04-24T09:41:02Z</time>
      </trkpt>
      <trkpt lat="47.36304" lon="-1.90388">
        <ele>70</ele>
        <time>2016-04-24T09:41:03Z</time>
      </trkpt>
      <trkpt lat="47.36304" lon="-1.90394">
        <ele>70</ele>
        <time>2016-04-24T09:41:04Z</time>
      </trkpt>
      <trkpt lat="47.36304" lon="-1.904">
        <ele>70</ele>
        <time>2016-04-24T09:41:05Z</time>
      </trkpt>
      <trkpt lat="47.36304" lon="-1.90405">
        <ele>70</ele>
        <time>2016-04-24T09:41:06Z</time>
      </trkpt>
      <trkpt lat="47.36302" lon="-1.90409">
        <ele>70</ele>
        <time>2016-04-24T09:41:07Z</time>
      </trkpt>
      <trkpt lat="47.36301" lon="-1.90413">
        <ele>70</ele>
        <time>2016-04-24T09:41:08Z</time>
      </trkpt>
      <trkpt lat="47.363" lon="-1.90417">
        <ele>70</ele>
        <time>2016-04-24T09:41:09Z</time>
      </trkpt>
      <trkpt lat="47.36299" lon="-1.90421">
        <ele>70</ele>
        <time>2016-04-24T09:41:10Z</time>
      </trkpt>
      <trkpt lat="47.36296" lon="-1.90427">
        <ele>70</ele>
        <time>2016-04-24T09:41:12Z</time>
      </trkpt>
      <trkpt lat="47.36294" lon="-1.90431">
        <ele>71</ele>
        <time>2016-04-24T09:41:13Z</time>
      </trkpt>
      <trkpt lat="47.36293" lon="-1.90434">
        <ele>71</ele>
        <time>2016-04-24T09:41:14Z</time>
      </trkpt>
      <trkpt lat="47.36292" lon="-1.90438">
        <ele>71</ele>
        <time>2016-04-24T09:41:15Z</time>
      </trkpt>
      <trkpt lat="47.36291" lon="-1.90443">
        <ele>71</ele>
        <time>2016-04-24T09:41:16Z</time>
      </trkpt>
      <trkpt lat="47.36291" lon="-1.90448">
        <ele>71</ele>
        <time>2016-04-24T09:41:17Z</time>
      </trkpt>
      <trkpt lat="47.36293" lon="-1.90452">
        <ele>70</ele>
        <time>2016-04-24T09:41:18Z</time>
      </trkpt>
      <trkpt lat="47.36296" lon="-1.90455">
        <ele>70</ele>
        <time>2016-04-24T09:41:19Z</time>
      </trkpt>
      <trkpt lat="47.36298" lon="-1.90457">
        <ele>70</ele>
        <time>2016-04-24T09:41:20Z</time>
      </trkpt>
      <trkpt lat="47.36301" lon="-1.9046">
        <ele>70</ele>
        <time>2016-04-24T09:41:21Z</time>
      </trkpt>
      <trkpt lat="47.36304" lon="-1.90463">
        <ele>70</ele>
        <time>2016-04-24T09:41:22Z</time>
      </trkpt>
      <trkpt lat="47.36306" lon="-1.90466">
        <ele>70</ele>
        <time>2016-04-24T09:41:23Z</time>
      </trkpt>
      <trkpt lat="47.36308" lon="-1.9047">
        <ele>70</ele>
        <time>2016-04-24T09:41:24Z</time>
      </trkpt>
      <trkpt lat="47.3631" lon="-1.90474">
        <ele>69</ele>
        <time>2016-04-24T09:41:25Z</time>
      </trkpt>
      <trkpt lat="47.36311" lon="-1.90482">
        <ele>69</ele>
        <time>2016-04-24T09:41:27Z</time>
      </trkpt>
      <trkpt lat="47.3631" lon="-1.90486">
        <ele>69</ele>
        <time>2016-04-24T09:41:28Z</time>
      </trkpt>
      <trkpt lat="47.3631" lon="-1.90491">
        <ele>69</ele>
        <time>2016-04-24T09:41:29Z</time>
      </trkpt>
      <trkpt lat="47.36309" lon="-1.90496">
        <ele>69</ele>
        <time>2016-04-24T09:41:30Z</time>
      </trkpt>
      <trkpt lat="47.36309" lon="-1.90503">
        <ele>69</ele>
        <time>2016-04-24T09:41:31Z</time>
      </trkpt>
      <trkpt lat="47.36308" lon="-1.90508">
        <ele>69</ele>
        <time>2016-04-24T09:41:32Z</time>
      </trkpt>
      <trkpt lat="47.36309" lon="-1.90514">
        <ele>69</ele>
        <time>2016-04-24T09:41:33Z</time>
      </trkpt>
      <trkpt lat="47.36308" lon="-1.90519">
        <ele>69</ele>
        <time>2016-04-24T09:41:34Z</time>
      </trkpt>
      <trkpt lat="47.36308" lon="-1.90524">
        <ele>69</ele>
        <time>2016-04-24T09:41:35Z</time>
      </trkpt>
      <trkpt lat="47.36307" lon="-1.90528">
        <ele>69</ele>
        <time>2016-04-24T09:41:36Z</time>
      </trkpt>
      <trkpt lat="47.36306" lon="-1.90535">
        <ele>69</ele>
        <time>2016-04-24T09:41:38Z</time>
      </trkpt>
      <trkpt lat="47.36307" lon="-1.90543">
        <ele>69</ele>
        <time>2016-04-24T09:41:40Z</time>
      </trkpt>
      <trkpt lat="47.36307" lon="-1.9055">
        <ele>69</ele>
        <time>2016-04-24T09:41:42Z</time>
      </trkpt>
      <trkpt lat="47.36307" lon="-1.90554">
        <ele>69</ele>
        <time>2016-04-24T09:41:43Z</time>
      </trkpt>
      <trkpt lat="47.36307" lon="-1.90559">
        <ele>69</ele>
        <time>2016-04-24T09:41:44Z</time>
      </trkpt>
      <trkpt lat="47.36306" lon="-1.90563">
        <ele>69</ele>
        <time>2016-04-24T09:41:45Z</time>
      </trkpt>
      <trkpt lat="47.36305" lon="-1.90567">
        <ele>69</ele>
        <time>2016-04-24T09:41:46Z</time>
      </trkpt>
      <trkpt lat="47.36304" lon="-1.90571">
        <ele>69</ele>
        <time>2016-04-24T09:41:47Z</time>
      </trkpt>
      <trkpt lat="47.36303" lon="-1.90575">
        <ele>69</ele>
        <time>2016-04-24T09:41:48Z</time>
      </trkpt>
      <trkpt lat="47.36301" lon="-1.90582">
        <ele>69</ele>
        <time>2016-04-24T09:41:50Z</time>
      </trkpt>
      <trkpt lat="47.36301" lon="-1.90586">
        <ele>68</ele>
        <time>2016-04-24T09:41:52Z</time>
      </trkpt>
      <trkpt lat="47.36298" lon="-1.90587">
        <ele>68</ele>
        <time>2016-04-24T09:41:56Z</time>
      </trkpt>
      <trkpt lat="47.36294" lon="-1.90586">
        <ele>69</ele>
        <time>2016-04-24T09:42:00Z</time>
      </trkpt>
      <trkpt lat="47.36292" lon="-1.90585">
        <ele>69</ele>
        <time>2016-04-24T09:42:02Z</time>
      </trkpt>
      <trkpt lat="47.36289" lon="-1.90584">
        <ele>69</ele>
        <time>2016-04-24T09:42:04Z</time>
      </trkpt>
      <trkpt lat="47.36286" lon="-1.90583">
        <ele>70</ele>
        <time>2016-04-24T09:42:06Z</time>
      </trkpt>
      <trkpt lat="47.36283" lon="-1.90581">
        <ele>71</ele>
        <time>2016-04-24T09:42:08Z</time>
      </trkpt>
      <trkpt lat="47.36279" lon="-1.90579">
        <ele>71</ele>
        <time>2016-04-24T09:42:11Z</time>
      </trkpt>
      <trkpt lat="47.36276" lon="-1.90578">
        <ele>71</ele>
        <time>2016-04-24T09:42:13Z</time>
      </trkpt>
      <trkpt lat="47.36272" lon="-1.90578">
        <ele>72</ele>
        <time>2016-04-24T09:42:15Z</time>
      </trkpt>
      <trkpt lat="47.36269" lon="-1.9058">
        <ele>72</ele>
        <time>2016-04-24T09:42:17Z</time>
      </trkpt>
      <trkpt lat="47.36267" lon="-1.90583">
        <ele>72</ele>
        <time>2016-04-24T09:42:19Z</time>
      </trkpt>
      <trkpt lat="47.36266" lon="-1.90587">
        <ele>72</ele>
        <time>2016-04-24T09:42:22Z</time>
      </trkpt>
      <trkpt lat="47.36267" lon="-1.90591">
        <ele>72</ele>
        <time>2016-04-24T09:42:24Z</time>
      </trkpt>
      <trkpt lat="47.3627" lon="-1.90594">
        <ele>71</ele>
        <time>2016-04-24T09:42:25Z</time>
      </trkpt>
      <trkpt lat="47.36273" lon="-1.90598">
        <ele>71</ele>
        <time>2016-04-24T09:42:26Z</time>
      </trkpt>
      <trkpt lat="47.36276" lon="-1.90602">
        <ele>70</ele>
        <time>2016-04-24T09:42:27Z</time>
      </trkpt>
      <trkpt lat="47.36279" lon="-1.90607">
        <ele>70</ele>
        <time>2016-04-24T09:42:28Z</time>
      </trkpt>
      <trkpt lat="47.36282" lon="-1.90612">
        <ele>70</ele>
        <time>2016-04-24T09:42:29Z</time>
      </trkpt>
      <trkpt lat="47.36284" lon="-1.90616">
        <ele>69</ele>
        <time>2016-04-24T09:42:30Z</time>
      </trkpt>
      <trkpt lat="47.36286" lon="-1.90621">
        <ele>69</ele>
        <time>2016-04-24T09:42:31Z</time>
      </trkpt>
      <trkpt lat="47.36288" lon="-1.90625">
        <ele>69</ele>
        <time>2016-04-24T09:42:32Z</time>
      </trkpt>
      <trkpt lat="47.36288" lon="-1.90629">
        <ele>69</ele>
        <time>2016-04-24T09:42:33Z</time>
      </trkpt>
      <trkpt lat="47.36288" lon="-1.90633">
        <ele>69</ele>
        <time>2016-04-24T09:42:34Z</time>
      </trkpt>
      <trkpt lat="47.36286" lon="-1.90639">
        <ele>69</ele>
        <time>2016-04-24T09:42:36Z</time>
      </trkpt>
      <trkpt lat="47.36285" lon="-1.90645">
        <ele>69</ele>
        <time>2016-04-24T09:42:38Z</time>
      </trkpt>
      <trkpt lat="47.36284" lon="-1.90653">
        <ele>69</ele>
        <time>2016-04-24T09:42:40Z</time>
      </trkpt>
      <trkpt lat="47.36284" lon="-1.90658">
        <ele>69</ele>
        <time>2016-04-24T09:42:41Z</time>
      </trkpt>
      <trkpt lat="47.36283" lon="-1.90662">
        <ele>69</ele>
        <time>2016-04-24T09:42:42Z</time>
      </trkpt>
      <trkpt lat="47.36282" lon="-1.90668">
        <ele>68</ele>
        <time>2016-04-24T09:42:43Z</time>
      </trkpt>
      <trkpt lat="47.36281" lon="-1.90673">
        <ele>68</ele>
        <time>2016-04-24T09:42:44Z</time>
      </trkpt>
      <trkpt lat="47.36281" lon="-1.90679">
        <ele>68</ele>
        <time>2016-04-24T09:42:45Z</time>
      </trkpt>
      <trkpt lat="47.3628" lon="-1.90685">
        <ele>68</ele>
        <time>2016-04-24T09:42:46Z</time>
      </trkpt>
      <trkpt lat="47.3628" lon="-1.90691">
        <ele>68</ele>
        <time>2016-04-24T09:42:47Z</time>
      </trkpt>
      <trkpt lat="47.3628" lon="-1.90697">
        <ele>68</ele>
        <time>2016-04-24T09:42:48Z</time>
      </trkpt>
      <trkpt lat="47.36279" lon="-1.90703">
        <ele>68</ele>
        <time>2016-04-24T09:42:49Z</time>
      </trkpt>
      <trkpt lat="47.36278" lon="-1.90708">
        <ele>68</ele>
        <time>2016-04-24T09:42:50Z</time>
      </trkpt>
      <trkpt lat="47.36277" lon="-1.90713">
        <ele>68</ele>
        <time>2016-04-24T09:42:51Z</time>
      </trkpt>
      <trkpt lat="47.36277" lon="-1.90718">
        <ele>68</ele>
        <time>2016-04-24T09:42:52Z</time>
      </trkpt>
      <trkpt lat="47.36276" lon="-1.90723">
        <ele>68</ele>
        <time>2016-04-24T09:42:53Z</time>
      </trkpt>
      <trkpt lat="47.36276" lon="-1.90728">
        <ele>68</ele>
        <time>2016-04-24T09:42:54Z</time>
      </trkpt>
      <trkpt lat="47.36276" lon="-1.90733">
        <ele>68</ele>
        <time>2016-04-24T09:42:55Z</time>
      </trkpt>
      <trkpt lat="47.36275" lon="-1.90737">
        <ele>68</ele>
        <time>2016-04-24T09:42:56Z</time>
      </trkpt>
      <trkpt lat="47.36274" lon="-1.90742">
        <ele>68</ele>
        <time>2016-04-24T09:42:57Z</time>
      </trkpt>
      <trkpt lat="47.36273" lon="-1.90747">
        <ele>68</ele>
        <time>2016-04-24T09:42:58Z</time>
      </trkpt>
      <trkpt lat="47.36272" lon="-1.90751">
        <ele>68</ele>
        <time>2016-04-24T09:42:59Z</time>
      </trkpt>
      <trkpt lat="47.3627" lon="-1.90755">
        <ele>68</ele>
        <time>2016-04-24T09:43:00Z</time>
      </trkpt>
      <trkpt lat="47.36269" lon="-1.90759">
        <ele>68</ele>
        <time>2016-04-24T09:43:01Z</time>
      </trkpt>
      <trkpt lat="47.36267" lon="-1.90762">
        <ele>68</ele>
        <time>2016-04-24T09:43:02Z</time>
      </trkpt>
      <trkpt lat="47.36263" lon="-1.90765">
        <ele>68</ele>
        <time>2016-04-24T09:43:04Z</time>
      </trkpt>
      <trkpt lat="47.36259" lon="-1.90768">
        <ele>68</ele>
        <time>2016-04-24T09:43:06Z</time>
      </trkpt>
      <trkpt lat="47.36255" lon="-1.90769">
        <ele>68</ele>
        <time>2016-04-24T09:43:08Z</time>
      </trkpt>
      <trkpt lat="47.36254" lon="-1.90765">
        <ele>69</ele>
        <time>2016-04-24T09:43:10Z</time>
      </trkpt>
      <trkpt lat="47.36254" lon="-1.9076">
        <ele>69</ele>
        <time>2016-04-24T09:43:12Z</time>
      </trkpt>
      <trkpt lat="47.36254" lon="-1.90756">
        <ele>70</ele>
        <time>2016-04-24T09:43:14Z</time>
      </trkpt>
      <trkpt lat="47.36252" lon="-1.90751">
        <ele>70</ele>
        <time>2016-04-24T09:43:16Z</time>
      </trkpt>
      <trkpt lat="47.36249" lon="-1.90747">
        <ele>71</ele>
        <time>2016-04-24T09:43:18Z</time>
      </trkpt>
      <trkpt lat="47.36246" lon="-1.90743">
        <ele>72</ele>
        <time>2016-04-24T09:43:20Z</time>
      </trkpt>
      <trkpt lat="47.36246" lon="-1.90739">
        <ele>72</ele>
        <time>2016-04-24T09:43:22Z</time>
      </trkpt>
      <trkpt lat="47.36248" lon="-1.90735">
        <ele>72</ele>
        <time>2016-04-24T09:43:24Z</time>
      </trkpt>
      <trkpt lat="47.3625" lon="-1.90731">
        <ele>69</ele>
        <time>2016-04-24T09:43:26Z</time>
      </trkpt>
      <trkpt lat="47.36253" lon="-1.90727">
        <ele>69</ele>
        <time>2016-04-24T09:43:28Z</time>
      </trkpt>
      <trkpt lat="47.36256" lon="-1.90723">
        <ele>69</ele>
        <time>2016-04-24T09:43:30Z</time>
      </trkpt>
      <trkpt lat="47.36255" lon="-1.90719">
        <ele>69</ele>
        <time>2016-04-24T09:43:32Z</time>
      </trkpt>
      <trkpt lat="47.36251" lon="-1.9072">
        <ele>69</ele>
        <time>2016-04-24T09:43:34Z</time>
      </trkpt>
      <trkpt lat="47.36247" lon="-1.90721">
        <ele>72</ele>
        <time>2016-04-24T09:43:36Z</time>
      </trkpt>
      <trkpt lat="47.36244" lon="-1.90719">
        <ele>73</ele>
        <time>2016-04-24T09:43:38Z</time>
      </trkpt>
      <trkpt lat="47.36244" lon="-1.90713">
        <ele>73</ele>
        <time>2016-04-24T09:43:40Z</time>
      </trkpt>
      <trkpt lat="47.36244" lon="-1.90706">
        <ele>73</ele>
        <time>2016-04-24T09:43:42Z</time>
      </trkpt>
      <trkpt lat="47.36244" lon="-1.90698">
        <ele>73</ele>
        <time>2016-04-24T09:43:44Z</time>
      </trkpt>
      <trkpt lat="47.36243" lon="-1.90693">
        <ele>73</ele>
        <time>2016-04-24T09:43:45Z</time>
      </trkpt>
      <trkpt lat="47.36242" lon="-1.90689">
        <ele>73</ele>
        <time>2016-04-24T09:43:46Z</time>
      </trkpt>
      <trkpt lat="47.3624" lon="-1.90683">
        <ele>73</ele>
        <time>2016-04-24T09:43:48Z</time>
      </trkpt>
      <trkpt lat="47.36237" lon="-1.90682">
        <ele>73</ele>
        <time>2016-04-24T09:43:51Z</time>
      </trkpt>
      <trkpt lat="47.36234" lon="-1.90682">
        <ele>73</ele>
        <time>2016-04-24T09:43:53Z</time>
      </trkpt>
      <trkpt lat="47.36232" lon="-1.90679">
        <ele>73</ele>
        <time>2016-04-24T09:43:55Z</time>
      </trkpt>
      <trkpt lat="47.36233" lon="-1.90674">
        <ele>74</ele>
        <time>2016-04-24T09:43:57Z</time>
      </trkpt>
      <trkpt lat="47.36232" lon="-1.90668">
        <ele>74</ele>
        <time>2016-04-24T09:43:59Z</time>
      </trkpt>
      <trkpt lat="47.3623" lon="-1.90665">
        <ele>74</ele>
        <time>2016-04-24T09:44:01Z</time>
      </trkpt>
      <trkpt lat="47.36228" lon="-1.90663">
        <ele>74</ele>
        <time>2016-04-24T09:44:03Z</time>
      </trkpt>
      <trkpt lat="47.36226" lon="-1.90659">
        <ele>74</ele>
        <time>2016-04-24T09:44:05Z</time>
      </trkpt>
      <trkpt lat="47.36228" lon="-1.90654">
        <ele>75</ele>
        <time>2016-04-24T09:44:08Z</time>
      </trkpt>
      <trkpt lat="47.36229" lon="-1.90649">
        <ele>75</ele>
        <time>2016-04-24T09:44:10Z</time>
      </trkpt>
      <trkpt lat="47.36233" lon="-1.90645">
        <ele>75</ele>
        <time>2016-04-24T09:44:12Z</time>
      </trkpt>
      <trkpt lat="47.36236" lon="-1.90642">
        <ele>75</ele>
        <time>2016-04-24T09:44:14Z</time>
      </trkpt>
      <trkpt lat="47.36238" lon="-1.90636">
        <ele>75</ele>
        <time>2016-04-24T09:44:16Z</time>
      </trkpt>
      <trkpt lat="47.36238" lon="-1.9063">
        <ele>75</ele>
        <time>2016-04-24T09:44:18Z</time>
      </trkpt>
      <trkpt lat="47.36235" lon="-1.90626">
        <ele>75</ele>
        <time>2016-04-24T09:44:20Z</time>
      </trkpt>
      <trkpt lat="47.36235" lon="-1.90621">
        <ele>75</ele>
        <time>2016-04-24T09:44:22Z</time>
      </trkpt>
      <trkpt lat="47.36237" lon="-1.90615">
        <ele>75</ele>
        <time>2016-04-24T09:44:24Z</time>
      </trkpt>
      <trkpt lat="47.36238" lon="-1.9061">
        <ele>75</ele>
        <time>2016-04-24T09:44:26Z</time>
      </trkpt>
      <trkpt lat="47.36236" lon="-1.90614">
        <ele>75</ele>
        <time>2016-04-24T09:44:29Z</time>
      </trkpt>
      <trkpt lat="47.36233" lon="-1.90617">
        <ele>75</ele>
        <time>2016-04-24T09:44:31Z</time>
      </trkpt>
      <trkpt lat="47.3623" lon="-1.90615">
        <ele>75</ele>
        <time>2016-04-24T09:44:33Z</time>
      </trkpt>
      <trkpt lat="47.36231" lon="-1.90611">
        <ele>75</ele>
        <time>2016-04-24T09:44:36Z</time>
      </trkpt>
      <trkpt lat="47.36229" lon="-1.90608">
        <ele>75</ele>
        <time>2016-04-24T09:44:42Z</time>
      </trkpt>
      <trkpt lat="47.36227" lon="-1.90604">
        <ele>75</ele>
        <time>2016-04-24T09:44:50Z</time>
      </trkpt>
      <trkpt lat="47.36227" lon="-1.90598">
        <ele>75</ele>
        <time>2016-04-24T09:44:59Z</time>
      </trkpt>
      <trkpt lat="47.36226" lon="-1.90592">
        <ele>75</ele>
        <time>2016-04-24T09:45:01Z</time>
      </trkpt>
      <trkpt lat="47.36224" lon="-1.90588">
        <ele>75</ele>
        <time>2016-04-24T09:45:03Z</time>
      </trkpt>
      <trkpt lat="47.3622" lon="-1.90589">
        <ele>75</ele>
        <time>2016-04-24T09:45:07Z</time>
      </trkpt>
      <trkpt lat="47.36218" lon="-1.90587">
        <ele>75</ele>
        <time>2016-04-24T09:45:09Z</time>
      </trkpt>
      <trkpt lat="47.36215" lon="-1.90584">
        <ele>75</ele>
        <time>2016-04-24T09:45:11Z</time>
      </trkpt>
      <trkpt lat="47.36212" lon="-1.90581">
        <ele>75</ele>
        <time>2016-04-24T09:45:13Z</time>
      </trkpt>
      <trkpt lat="47.36211" lon="-1.90586">
        <ele>75</ele>
        <time>2016-04-24T09:45:17Z</time>
      </trkpt>
      <trkpt lat="47.3621" lon="-1.90591">
        <ele>75</ele>
        <time>2016-04-24T09:45:19Z</time>
      </trkpt>
      <trkpt lat="47.36206" lon="-1.90594">
        <ele>75</ele>
        <time>2016-04-24T09:45:21Z</time>
      </trkpt>
      <trkpt lat="47.36203" lon="-1.90591">
        <ele>75</ele>
        <time>2016-04-24T09:45:23Z</time>
      </trkpt>
      <trkpt lat="47.36199" lon="-1.90587">
        <ele>75</ele>
        <time>2016-04-24T09:45:25Z</time>
      </trkpt>
      <trkpt lat="47.36196" lon="-1.90588">
        <ele>75</ele>
        <time>2016-04-24T09:45:27Z</time>
      </trkpt>
      <trkpt lat="47.36194" lon="-1.90593">
        <ele>75</ele>
        <time>2016-04-24T09:45:30Z</time>
      </trkpt>
      <trkpt lat="47.36196" lon="-1.90596">
        <ele>75</ele>
        <time>2016-04-24T09:45:32Z</time>
      </trkpt>
      <trkpt lat="47.36198" lon="-1.906">
        <ele>75</ele>
        <time>2016-04-24T09:45:34Z</time>
      </trkpt>
      <trkpt lat="47.36201" lon="-1.90604">
        <ele>75</ele>
        <time>2016-04-24T09:45:36Z</time>
      </trkpt>
      <trkpt lat="47.36204" lon="-1.90607">
        <ele>75</ele>
        <time>2016-04-24T09:45:37Z</time>
      </trkpt>
      <trkpt lat="47.36207" lon="-1.90609">
        <ele>75</ele>
        <time>2016-04-24T09:45:38Z</time>
      </trkpt>
      <trkpt lat="47.36209" lon="-1.90613">
        <ele>75</ele>
        <time>2016-04-24T09:45:39Z</time>
      </trkpt>
      <trkpt lat="47.3621" lon="-1.90617">
        <ele>75</ele>
        <time>2016-04-24T09:45:40Z</time>
      </trkpt>
      <trkpt lat="47.3621" lon="-1.90621">
        <ele>75</ele>
        <time>2016-04-24T09:45:41Z</time>
      </trkpt>
      <trkpt lat="47.36211" lon="-1.90629">
        <ele>75</ele>
        <time>2016-04-24T09:45:43Z</time>
      </trkpt>
      <trkpt lat="47.36211" lon="-1.90633">
        <ele>75</ele>
        <time>2016-04-24T09:45:44Z</time>
      </trkpt>
      <trkpt lat="47.36211" lon="-1.90637">
        <ele>75</ele>
        <time>2016-04-24T09:45:45Z</time>
      </trkpt>
      <trkpt lat="47.36211" lon="-1.90642">
        <ele>75</ele>
        <time>2016-04-24T09:45:46Z</time>
      </trkpt>
      <trkpt lat="47.36211" lon="-1.90646">
        <ele>75</ele>
        <time>2016-04-24T09:45:47Z</time>
      </trkpt>
      <trkpt lat="47.36211" lon="-1.9065">
        <ele>75</ele>
        <time>2016-04-24T09:45:48Z</time>
      </trkpt>
      <trkpt lat="47.36211" lon="-1.90654">
        <ele>75</ele>
        <time>2016-04-24T09:45:49Z</time>
      </trkpt>
      <trkpt lat="47.36211" lon="-1.90658">
        <ele>75</ele>
        <time>2016-04-24T09:45:50Z</time>
      </trkpt>
      <trkpt lat="47.36211" lon="-1.90662">
        <ele>75</ele>
        <time>2016-04-24T09:45:51Z</time>
      </trkpt>
      <trkpt lat="47.3621" lon="-1.90667">
        <ele>74</ele>
        <time>2016-04-24T09:45:52Z</time>
      </trkpt>
      <trkpt lat="47.3621" lon="-1.90672">
        <ele>74</ele>
        <time>2016-04-24T09:45:53Z</time>
      </trkpt>
      <trkpt lat="47.36211" lon="-1.90677">
        <ele>73</ele>
        <time>2016-04-24T09:45:54Z</time>
      </trkpt>
      <trkpt lat="47.36213" lon="-1.90682">
        <ele>73</ele>
        <time>2016-04-24T09:45:55Z</time>
      </trkpt>
      <trkpt lat="47.36215" lon="-1.90686">
        <ele>73</ele>
        <time>2016-04-24T09:45:56Z</time>
      </trkpt>
      <trkpt lat="47.36217" lon="-1.9069">
        <ele>73</ele>
        <time>2016-04-24T09:45:57Z</time>
      </trkpt>
      <trkpt lat="47.36219" lon="-1.90693">
        <ele>73</ele>
        <time>2016-04-24T09:45:58Z</time>
      </trkpt>
      <trkpt lat="47.36221" lon="-1.90697">
        <ele>73</ele>
        <time>2016-04-24T09:45:59Z</time>
      </trkpt>
      <trkpt lat="47.36223" lon="-1.90702">
        <ele>73</ele>
        <time>2016-04-24T09:46:00Z</time>
      </trkpt>
      <trkpt lat="47.36224" lon="-1.90706">
        <ele>73</ele>
        <time>2016-04-24T09:46:01Z</time>
      </trkpt>
      <trkpt lat="47.36225" lon="-1.90711">
        <ele>73</ele>
        <time>2016-04-24T09:46:02Z</time>
      </trkpt>
      <trkpt lat="47.36225" lon="-1.90715">
        <ele>73</ele>
        <time>2016-04-24T09:46:03Z</time>
      </trkpt>
      <trkpt lat="47.36225" lon="-1.9072">
        <ele>73</ele>
        <time>2016-04-24T09:46:04Z</time>
      </trkpt>
      <trkpt lat="47.36225" lon="-1.90724">
        <ele>73</ele>
        <time>2016-04-24T09:46:05Z</time>
      </trkpt>
      <trkpt lat="47.36227" lon="-1.90729">
        <ele>72</ele>
        <time>2016-04-24T09:46:06Z</time>
      </trkpt>
      <trkpt lat="47.36227" lon="-1.90735">
        <ele>72</ele>
        <time>2016-04-24T09:46:07Z</time>
      </trkpt>
      <trkpt lat="47.36228" lon="-1.90741">
        <ele>72</ele>
        <time>2016-04-24T09:46:08Z</time>
      </trkpt>
      <trkpt lat="47.36227" lon="-1.90746">
        <ele>72</ele>
        <time>2016-04-24T09:46:09Z</time>
      </trkpt>
      <trkpt lat="47.36226" lon="-1.90752">
        <ele>70</ele>
        <time>2016-04-24T09:46:10Z</time>
      </trkpt>
      <trkpt lat="47.36225" lon="-1.90757">
        <ele>70</ele>
        <time>2016-04-24T09:46:11Z</time>
      </trkpt>
      <trkpt lat="47.36225" lon="-1.90761">
        <ele>70</ele>
        <time>2016-04-24T09:46:12Z</time>
      </trkpt>
      <trkpt lat="47.36224" lon="-1.90765">
        <ele>70</ele>
        <time>2016-04-24T09:46:13Z</time>
      </trkpt>
      <trkpt lat="47.36222" lon="-1.90772">
        <ele>70</ele>
        <time>2016-04-24T09:46:15Z</time>
      </trkpt>
      <trkpt lat="47.3622" lon="-1.90777">
        <ele>70</ele>
        <time>2016-04-24T09:46:17Z</time>
      </trkpt>
      <trkpt lat="47.36218" lon="-1.90781">
        <ele>70</ele>
        <time>2016-04-24T09:46:19Z</time>
      </trkpt>
      <trkpt lat="47.36218" lon="-1.90788">
        <ele>70</ele>
        <time>2016-04-24T09:46:22Z</time>
      </trkpt>
      <trkpt lat="47.36218" lon="-1.90794">
        <ele>70</ele>
        <time>2016-04-24T09:46:24Z</time>
      </trkpt>
      <trkpt lat="47.36217" lon="-1.90798">
        <ele>70</ele>
        <time>2016-04-24T09:46:26Z</time>
      </trkpt>
      <trkpt lat="47.36216" lon="-1.90801">
        <ele>70</ele>
        <time>2016-04-24T09:46:29Z</time>
      </trkpt>
      <trkpt lat="47.36214" lon="-1.90798">
        <ele>70</ele>
        <time>2016-04-24T09:46:57Z</time>
      </trkpt>
      <trkpt lat="47.36212" lon="-1.90793">
        <ele>70</ele>
        <time>2016-04-24T09:46:59Z</time>
      </trkpt>
      <trkpt lat="47.36209" lon="-1.90787">
        <ele>70</ele>
        <time>2016-04-24T09:47:01Z</time>
      </trkpt>
      <trkpt lat="47.36208" lon="-1.90783">
        <ele>70</ele>
        <time>2016-04-24T09:47:02Z</time>
      </trkpt>
      <trkpt lat="47.36207" lon="-1.90778">
        <ele>70</ele>
        <time>2016-04-24T09:47:03Z</time>
      </trkpt>
      <trkpt lat="47.36206" lon="-1.90773">
        <ele>70</ele>
        <time>2016-04-24T09:47:04Z</time>
      </trkpt>
      <trkpt lat="47.36205" lon="-1.90769">
        <ele>70</ele>
        <time>2016-04-24T09:47:05Z</time>
      </trkpt>
      <trkpt lat="47.36203" lon="-1.90764">
        <ele>70</ele>
        <time>2016-04-24T09:47:06Z</time>
      </trkpt>
      <trkpt lat="47.36202" lon="-1.90759">
        <ele>70</ele>
        <time>2016-04-24T09:47:07Z</time>
      </trkpt>
      <trkpt lat="47.36201" lon="-1.90754">
        <ele>70</ele>
        <time>2016-04-24T09:47:08Z</time>
      </trkpt>
      <trkpt lat="47.36199" lon="-1.90749">
        <ele>72</ele>
        <time>2016-04-24T09:47:09Z</time>
      </trkpt>
      <trkpt lat="47.36197" lon="-1.90744">
        <ele>73</ele>
        <time>2016-04-24T09:47:10Z</time>
      </trkpt>
      <trkpt lat="47.36196" lon="-1.9074">
        <ele>73</ele>
        <time>2016-04-24T09:47:11Z</time>
      </trkpt>
      <trkpt lat="47.36195" lon="-1.90735">
        <ele>73</ele>
        <time>2016-04-24T09:47:12Z</time>
      </trkpt>
      <trkpt lat="47.36194" lon="-1.9073">
        <ele>73</ele>
        <time>2016-04-24T09:47:13Z</time>
      </trkpt>
      <trkpt lat="47.36192" lon="-1.90726">
        <ele>73</ele>
        <time>2016-04-24T09:47:14Z</time>
      </trkpt>
      <trkpt lat="47.3619" lon="-1.90723">
        <ele>73</ele>
        <time>2016-04-24T09:47:15Z</time>
      </trkpt>
      <trkpt lat="47.36188" lon="-1.90717">
        <ele>73</ele>
        <time>2016-04-24T09:47:17Z</time>
      </trkpt>
      <trkpt lat="47.36187" lon="-1.90713">
        <ele>73</ele>
        <time>2016-04-24T09:47:18Z</time>
      </trkpt>
      <trkpt lat="47.36184" lon="-1.90706">
        <ele>73</ele>
        <time>2016-04-24T09:47:20Z</time>
      </trkpt>
      <trkpt lat="47.36182" lon="-1.90702">
        <ele>73</ele>
        <time>2016-04-24T09:47:21Z</time>
      </trkpt>
      <trkpt lat="47.36181" lon="-1.90697">
        <ele>73</ele>
        <time>2016-04-24T09:47:22Z</time>
      </trkpt>
      <trkpt lat="47.3618" lon="-1.90692">
        <ele>74</ele>
        <time>2016-04-24T09:47:23Z</time>
      </trkpt>
      <trkpt lat="47.3618" lon="-1.90686">
        <ele>74</ele>
        <time>2016-04-24T09:47:24Z</time>
      </trkpt>
      <trkpt lat="47.36179" lon="-1.9068">
        <ele>74</ele>
        <time>2016-04-24T09:47:25Z</time>
      </trkpt>
      <trkpt lat="47.36178" lon="-1.90674">
        <ele>74</ele>
        <time>2016-04-24T09:47:26Z</time>
      </trkpt>
      <trkpt lat="47.36178" lon="-1.90669">
        <ele>74</ele>
        <time>2016-04-24T09:47:27Z</time>
      </trkpt>
      <trkpt lat="47.36178" lon="-1.90663">
        <ele>75</ele>
        <time>2016-04-24T09:47:28Z</time>
      </trkpt>
      <trkpt lat="47.36177" lon="-1.90656">
        <ele>75</ele>
        <time>2016-04-24T09:47:29Z</time>
      </trkpt>
      <trkpt lat="47.36176" lon="-1.9065">
        <ele>75</ele>
        <time>2016-04-24T09:47:30Z</time>
      </trkpt>
      <trkpt lat="47.36175" lon="-1.90643">
        <ele>75</ele>
        <time>2016-04-24T09:47:31Z</time>
      </trkpt>
      <trkpt lat="47.36174" lon="-1.90637">
        <ele>75</ele>
        <time>2016-04-24T09:47:32Z</time>
      </trkpt>
      <trkpt lat="47.36174" lon="-1.90631">
        <ele>75</ele>
        <time>2016-04-24T09:47:33Z</time>
      </trkpt>
      <trkpt lat="47.36173" lon="-1.90624">
        <ele>75</ele>
        <time>2016-04-24T09:47:34Z</time>
      </trkpt>
      <trkpt lat="47.36172" lon="-1.90619">
        <ele>75</ele>
        <time>2016-04-24T09:47:35Z</time>
      </trkpt>
      <trkpt lat="47.3617" lon="-1.90613">
        <ele>75</ele>
        <time>2016-04-24T09:47:36Z</time>
      </trkpt>
      <trkpt lat="47.36169" lon="-1.90608">
        <ele>75</ele>
        <time>2016-04-24T09:47:37Z</time>
      </trkpt>
      <trkpt lat="47.36168" lon="-1.90603">
        <ele>75</ele>
        <time>2016-04-24T09:47:38Z</time>
      </trkpt>
      <trkpt lat="47.36167" lon="-1.90598">
        <ele>75</ele>
        <time>2016-04-24T09:47:39Z</time>
      </trkpt>
      <trkpt lat="47.36167" lon="-1.90593">
        <ele>74</ele>
        <time>2016-04-24T09:47:40Z</time>
      </trkpt>
      <trkpt lat="47.36166" lon="-1.90588">
        <ele>75</ele>
        <time>2016-04-24T09:47:41Z</time>
      </trkpt>
      <trkpt lat="47.36165" lon="-1.90583">
        <ele>75</ele>
        <time>2016-04-24T09:47:42Z</time>
      </trkpt>
      <trkpt lat="47.36163" lon="-1.90581">
        <ele>75</ele>
        <time>2016-04-24T09:47:44Z</time>
      </trkpt>
      <trkpt lat="47.3616" lon="-1.90581">
        <ele>74</ele>
        <time>2016-04-24T09:47:46Z</time>
      </trkpt>
      <trkpt lat="47.3616" lon="-1.90577">
        <ele>74</ele>
        <time>2016-04-24T09:47:55Z</time>
      </trkpt>
      <trkpt lat="47.36156" lon="-1.90579">
        <ele>74</ele>
        <time>2016-04-24T09:47:59Z</time>
      </trkpt>
      <trkpt lat="47.36151" lon="-1.90585">
        <ele>74</ele>
        <time>2016-04-24T09:48:01Z</time>
      </trkpt>
      <trkpt lat="47.36147" lon="-1.90588">
        <ele>74</ele>
        <time>2016-04-24T09:48:02Z</time>
      </trkpt>
      <trkpt lat="47.36143" lon="-1.9059">
        <ele>73</ele>
        <time>2016-04-24T09:48:03Z</time>
      </trkpt>
      <trkpt lat="47.36139" lon="-1.9059">
        <ele>73</ele>
        <time>2016-04-24T09:48:04Z</time>
      </trkpt>
      <trkpt lat="47.36135" lon="-1.90587">
        <ele>73</ele>
        <time>2016-04-24T09:48:05Z</time>
      </trkpt>
      <trkpt lat="47.36133" lon="-1.90584">
        <ele>73</ele>
        <time>2016-04-24T09:48:06Z</time>
      </trkpt>
      <trkpt lat="47.3613" lon="-1.90578">
        <ele>73</ele>
        <time>2016-04-24T09:48:08Z</time>
      </trkpt>
      <trkpt lat="47.36126" lon="-1.90574">
        <ele>73</ele>
        <time>2016-04-24T09:48:10Z</time>
      </trkpt>
      <trkpt lat="47.36123" lon="-1.90573">
        <ele>73</ele>
        <time>2016-04-24T09:48:11Z</time>
      </trkpt>
      <trkpt lat="47.36118" lon="-1.90573">
        <ele>73</ele>
        <time>2016-04-24T09:48:13Z</time>
      </trkpt>
      <trkpt lat="47.36113" lon="-1.90574">
        <ele>73</ele>
        <time>2016-04-24T09:48:15Z</time>
      </trkpt>
      <trkpt lat="47.36109" lon="-1.90572">
        <ele>72</ele>
        <time>2016-04-24T09:48:17Z</time>
      </trkpt>
      <trkpt lat="47.36107" lon="-1.90568">
        <ele>72</ele>
        <time>2016-04-24T09:48:19Z</time>
      </trkpt>
      <trkpt lat="47.36104" lon="-1.90564">
        <ele>72</ele>
        <time>2016-04-24T09:48:21Z</time>
      </trkpt>
      <trkpt lat="47.36102" lon="-1.90559">
        <ele>72</ele>
        <time>2016-04-24T09:48:23Z</time>
      </trkpt>
      <trkpt lat="47.361" lon="-1.90554">
        <ele>72</ele>
        <time>2016-04-24T09:48:25Z</time>
      </trkpt>
      <trkpt lat="47.36098" lon="-1.9055">
        <ele>72</ele>
        <time>2016-04-24T09:48:28Z</time>
      </trkpt>
      <trkpt lat="47.36097" lon="-1.90546">
        <ele>73</ele>
        <time>2016-04-24T09:48:34Z</time>
      </trkpt>
      <trkpt lat="47.36095" lon="-1.9054">
        <ele>73</ele>
        <time>2016-04-24T09:49:33Z</time>
      </trkpt>
      <trkpt lat="47.36092" lon="-1.90537">
        <ele>73</ele>
        <time>2016-04-24T09:49:36Z</time>
      </trkpt>
      <trkpt lat="47.3609" lon="-1.90534">
        <ele>73</ele>
        <time>2016-04-24T09:49:39Z</time>
      </trkpt>
      <trkpt lat="47.36088" lon="-1.90531">
        <ele>72</ele>
        <time>2016-04-24T09:49:45Z</time>
      </trkpt>
      <trkpt lat="47.36087" lon="-1.90526">
        <ele>72</ele>
        <time>2016-04-24T09:49:51Z</time>
      </trkpt>
      <trkpt lat="47.36085" lon="-1.9052">
        <ele>72</ele>
        <time>2016-04-24T09:49:53Z</time>
      </trkpt>
      <trkpt lat="47.36084" lon="-1.90513">
        <ele>72</ele>
        <time>2016-04-24T09:49:55Z</time>
      </trkpt>
      <trkpt lat="47.36084" lon="-1.90508">
        <ele>72</ele>
        <time>2016-04-24T09:49:57Z</time>
      </trkpt>
      <trkpt lat="47.36085" lon="-1.90503">
        <ele>72</ele>
        <time>2016-04-24T09:49:59Z</time>
      </trkpt>
      <trkpt lat="47.36084" lon="-1.90497">
        <ele>72</ele>
        <time>2016-04-24T09:50:01Z</time>
      </trkpt>
      <trkpt lat="47.36082" lon="-1.90492">
        <ele>72</ele>
        <time>2016-04-24T09:50:03Z</time>
      </trkpt>
      <trkpt lat="47.36078" lon="-1.90488">
        <ele>72</ele>
        <time>2016-04-24T09:50:05Z</time>
      </trkpt>
      <trkpt lat="47.36075" lon="-1.90484">
        <ele>72</ele>
        <time>2016-04-24T09:50:07Z</time>
      </trkpt>
      <trkpt lat="47.36071" lon="-1.90483">
        <ele>72</ele>
        <time>2016-04-24T09:50:09Z</time>
      </trkpt>
      <trkpt lat="47.36067" lon="-1.90484">
        <ele>71</ele>
        <time>2016-04-24T09:50:11Z</time>
      </trkpt>
      <trkpt lat="47.36064" lon="-1.90486">
        <ele>71</ele>
        <time>2016-04-24T09:50:13Z</time>
      </trkpt>
      <trkpt lat="47.36065" lon="-1.90489">
        <ele>71</ele>
        <time>2016-04-24T09:50:17Z</time>
      </trkpt>
      <trkpt lat="47.36069" lon="-1.90487">
        <ele>72</ele>
        <time>2016-04-24T09:50:20Z</time>
      </trkpt>
      <trkpt lat="47.36069" lon="-1.90482">
        <ele>72</ele>
        <time>2016-04-24T09:50:23Z</time>
      </trkpt>
      <trkpt lat="47.36069" lon="-1.90478">
        <ele>71</ele>
        <time>2016-04-24T09:50:26Z</time>
      </trkpt>
      <trkpt lat="47.36072" lon="-1.90477">
        <ele>72</ele>
        <time>2016-04-24T09:50:30Z</time>
      </trkpt>
      <trkpt lat="47.36073" lon="-1.90482">
        <ele>72</ele>
        <time>2016-04-24T09:50:34Z</time>
      </trkpt>
      <trkpt lat="47.36072" lon="-1.90489">
        <ele>72</ele>
        <time>2016-04-24T09:50:36Z</time>
      </trkpt>
      <trkpt lat="47.36071" lon="-1.90496">
        <ele>72</ele>
        <time>2016-04-24T09:50:38Z</time>
      </trkpt>
      <trkpt lat="47.3607" lon="-1.905">
        <ele>72</ele>
        <time>2016-04-24T09:50:40Z</time>
      </trkpt>
      <trkpt lat="47.36072" lon="-1.90504">
        <ele>72</ele>
        <time>2016-04-24T09:50:42Z</time>
      </trkpt>
      <trkpt lat="47.36074" lon="-1.90506">
        <ele>72</ele>
        <time>2016-04-24T09:50:44Z</time>
      </trkpt>
      <trkpt lat="47.36076" lon="-1.9051">
        <ele>72</ele>
        <time>2016-04-24T09:50:46Z</time>
      </trkpt>
      <trkpt lat="47.36078" lon="-1.90513">
        <ele>72</ele>
        <time>2016-04-24T09:50:48Z</time>
      </trkpt>
      <trkpt lat="47.3608" lon="-1.90517">
        <ele>72</ele>
        <time>2016-04-24T09:50:50Z</time>
      </trkpt>
      <trkpt lat="47.36082" lon="-1.9052">
        <ele>72</ele>
        <time>2016-04-24T09:50:52Z</time>
      </trkpt>
      <trkpt lat="47.36084" lon="-1.90523">
        <ele>72</ele>
        <time>2016-04-24T09:50:54Z</time>
      </trkpt>
      <trkpt lat="47.36087" lon="-1.90527">
        <ele>72</ele>
        <time>2016-04-24T09:50:56Z</time>
      </trkpt>
      <trkpt lat="47.36089" lon="-1.9053">
        <ele>73</ele>
        <time>2016-04-24T09:50:58Z</time>
      </trkpt>
      <trkpt lat="47.36091" lon="-1.90533">
        <ele>73</ele>
        <time>2016-04-24T09:51:00Z</time>
      </trkpt>
      <trkpt lat="47.36093" lon="-1.90537">
        <ele>73</ele>
        <time>2016-04-24T09:51:02Z</time>
      </trkpt>
      <trkpt lat="47.36096" lon="-1.90537">
        <ele>73</ele>
        <time>2016-04-24T09:51:06Z</time>
      </trkpt>
      <trkpt lat="47.36099" lon="-1.90537">
        <ele>73</ele>
        <time>2016-04-24T09:51:16Z</time>
      </trkpt>
      <trkpt lat="47.36101" lon="-1.9054">
        <ele>73</ele>
        <time>2016-04-24T09:51:19Z</time>
      </trkpt>
      <trkpt lat="47.36103" lon="-1.90545">
        <ele>73</ele>
        <time>2016-04-24T09:51:22Z</time>
      </trkpt>
      <trkpt lat="47.36101" lon="-1.90543">
        <ele>73</ele>
        <time>2016-04-24T09:51:33Z</time>
      </trkpt>
      <trkpt lat="47.36101" lon="-1.90533">
        <ele>73</ele>
        <time>2016-04-24T09:51:47Z</time>
      </trkpt>
      <trkpt lat="47.36098" lon="-1.90531">
        <ele>73</ele>
        <time>2016-04-24T09:51:48Z</time>
      </trkpt>
      <trkpt lat="47.36096" lon="-1.90528">
        <ele>73</ele>
        <time>2016-04-24T09:51:49Z</time>
      </trkpt>
      <trkpt lat="47.36093" lon="-1.90521">
        <ele>72</ele>
        <time>2016-04-24T09:51:51Z</time>
      </trkpt>
      <trkpt lat="47.36093" lon="-1.90517">
        <ele>72</ele>
        <time>2016-04-24T09:51:52Z</time>
      </trkpt>
      <trkpt lat="47.36092" lon="-1.90509">
        <ele>72</ele>
        <time>2016-04-24T09:51:54Z</time>
      </trkpt>
      <trkpt lat="47.36093" lon="-1.90504">
        <ele>72</ele>
        <time>2016-04-24T09:51:56Z</time>
      </trkpt>
      <trkpt lat="47.36094" lon="-1.90499">
        <ele>73</ele>
        <time>2016-04-24T09:51:58Z</time>
      </trkpt>
      <trkpt lat="47.36095" lon="-1.90494">
        <ele>73</ele>
        <time>2016-04-24T09:52:00Z</time>
      </trkpt>
      <trkpt lat="47.36094" lon="-1.90488">
        <ele>73</ele>
        <time>2016-04-24T09:52:02Z</time>
      </trkpt>
      <trkpt lat="47.36092" lon="-1.90481">
        <ele>73</ele>
        <time>2016-04-24T09:52:04Z</time>
      </trkpt>
      <trkpt lat="47.36089" lon="-1.90476">
        <ele>73</ele>
        <time>2016-04-24T09:52:06Z</time>
      </trkpt>
      <trkpt lat="47.36085" lon="-1.90474">
        <ele>73</ele>
        <time>2016-04-24T09:52:08Z</time>
      </trkpt>
      <trkpt lat="47.36079" lon="-1.90474">
        <ele>72</ele>
        <time>2016-04-24T09:52:10Z</time>
      </trkpt>
      <trkpt lat="47.36076" lon="-1.90474">
        <ele>72</ele>
        <time>2016-04-24T09:52:11Z</time>
      </trkpt>
      <trkpt lat="47.36074" lon="-1.90473">
        <ele>72</ele>
        <time>2016-04-24T09:52:12Z</time>
      </trkpt>
      <trkpt lat="47.36071" lon="-1.90472">
        <ele>72</ele>
        <time>2016-04-24T09:52:13Z</time>
      </trkpt>
      <trkpt lat="47.36068" lon="-1.9047">
        <ele>71</ele>
        <time>2016-04-24T09:52:14Z</time>
      </trkpt>
      <trkpt lat="47.36065" lon="-1.90469">
        <ele>71</ele>
        <time>2016-04-24T09:52:15Z</time>
      </trkpt>
      <trkpt lat="47.36062" lon="-1.90468">
        <ele>71</ele>
        <time>2016-04-24T09:52:16Z</time>
      </trkpt>
      <trkpt lat="47.3606" lon="-1.9047">
        <ele>71</ele>
        <time>2016-04-24T09:52:17Z</time>
      </trkpt>
      <trkpt lat="47.3606" lon="-1.90478">
        <ele>71</ele>
        <time>2016-04-24T09:52:19Z</time>
      </trkpt>
      <trkpt lat="47.36061" lon="-1.90481">
        <ele>71</ele>
        <time>2016-04-24T09:52:20Z</time>
      </trkpt>
      <trkpt lat="47.36064" lon="-1.90487">
        <ele>71</ele>
        <time>2016-04-24T09:52:22Z</time>
      </trkpt>
      <trkpt lat="47.36065" lon="-1.90493">
        <ele>71</ele>
        <time>2016-04-24T09:52:24Z</time>
      </trkpt>
      <trkpt lat="47.36065" lon="-1.90499">
        <ele>72</ele>
        <time>2016-04-24T09:52:26Z</time>
      </trkpt>
      <trkpt lat="47.36067" lon="-1.90502">
        <ele>72</ele>
        <time>2016-04-24T09:52:30Z</time>
      </trkpt>
      <trkpt lat="47.3607" lon="-1.90506">
        <ele>72</ele>
        <time>2016-04-24T09:52:33Z</time>
      </trkpt>
      <trkpt lat="47.36073" lon="-1.90512">
        <ele>72</ele>
        <time>2016-04-24T09:52:35Z</time>
      </trkpt>
      <trkpt lat="47.36076" lon="-1.90515">
        <ele>72</ele>
        <time>2016-04-24T09:52:37Z</time>
      </trkpt>
      <trkpt lat="47.36078" lon="-1.90516">
        <ele>72</ele>
        <time>2016-04-24T09:52:39Z</time>
      </trkpt>
      <trkpt lat="47.3608" lon="-1.9052">
        <ele>72</ele>
        <time>2016-04-24T09:52:42Z</time>
      </trkpt>
      <trkpt lat="47.3608" lon="-1.90525">
        <ele>72</ele>
        <time>2016-04-24T09:52:44Z</time>
      </trkpt>
      <trkpt lat="47.3608" lon="-1.90532">
        <ele>72</ele>
        <time>2016-04-24T09:52:46Z</time>
      </trkpt>
      <trkpt lat="47.36083" lon="-1.90538">
        <ele>72</ele>
        <time>2016-04-24T09:52:48Z</time>
      </trkpt>
      <trkpt lat="47.36086" lon="-1.90539">
        <ele>72</ele>
        <time>2016-04-24T09:52:50Z</time>
      </trkpt>
      <trkpt lat="47.36089" lon="-1.90542">
        <ele>72</ele>
        <time>2016-04-24T09:52:52Z</time>
      </trkpt>
      <trkpt lat="47.36092" lon="-1.90547">
        <ele>72</ele>
        <time>2016-04-24T09:52:54Z</time>
      </trkpt>
      <trkpt lat="47.36093" lon="-1.90551">
        <ele>72</ele>
        <time>2016-04-24T09:52:55Z</time>
      </trkpt>
      <trkpt lat="47.36093" lon="-1.90555">
        <ele>72</ele>
        <time>2016-04-24T09:52:56Z</time>
      </trkpt>
      <trkpt lat="47.3609" lon="-1.90561">
        <ele>72</ele>
        <time>2016-04-24T09:52:58Z</time>
      </trkpt>
      <trkpt lat="47.3609" lon="-1.90567">
        <ele>72</ele>
        <time>2016-04-24T09:53:00Z</time>
      </trkpt>
      <trkpt lat="47.36092" lon="-1.90574">
        <ele>72</ele>
        <time>2016-04-24T09:53:02Z</time>
      </trkpt>
      <trkpt lat="47.36092" lon="-1.90579">
        <ele>72</ele>
        <time>2016-04-24T09:53:03Z</time>
      </trkpt>
      <trkpt lat="47.36092" lon="-1.90584">
        <ele>71</ele>
        <time>2016-04-24T09:53:04Z</time>
      </trkpt>
      <trkpt lat="47.36092" lon="-1.90589">
        <ele>71</ele>
        <time>2016-04-24T09:53:05Z</time>
      </trkpt>
      <trkpt lat="47.36092" lon="-1.90594">
        <ele>72</ele>
        <time>2016-04-24T09:53:06Z</time>
      </trkpt>
      <trkpt lat="47.36093" lon="-1.90598">
        <ele>72</ele>
        <time>2016-04-24T09:53:07Z</time>
      </trkpt>
      <trkpt lat="47.36095" lon="-1.90604">
        <ele>72</ele>
        <time>2016-04-24T09:53:09Z</time>
      </trkpt>
      <trkpt lat="47.36097" lon="-1.9061">
        <ele>72</ele>
        <time>2016-04-24T09:53:11Z</time>
      </trkpt>
      <trkpt lat="47.36098" lon="-1.90616">
        <ele>72</ele>
        <time>2016-04-24T09:53:13Z</time>
      </trkpt>
      <trkpt lat="47.36101" lon="-1.90621">
        <ele>72</ele>
        <time>2016-04-24T09:53:15Z</time>
      </trkpt>
      <trkpt lat="47.36104" lon="-1.90627">
        <ele>72</ele>
        <time>2016-04-24T09:53:17Z</time>
      </trkpt>
      <trkpt lat="47.36108" lon="-1.90633">
        <ele>72</ele>
        <time>2016-04-24T09:53:19Z</time>
      </trkpt>
      <trkpt lat="47.36111" lon="-1.90639">
        <ele>72</ele>
        <time>2016-04-24T09:53:21Z</time>
      </trkpt>
      <trkpt lat="47.36113" lon="-1.90645">
        <ele>72</ele>
        <time>2016-04-24T09:53:23Z</time>
      </trkpt>
      <trkpt lat="47.36115" lon="-1.90651">
        <ele>72</ele>
        <time>2016-04-24T09:53:25Z</time>
      </trkpt>
      <trkpt lat="47.36118" lon="-1.90657">
        <ele>72</ele>
        <time>2016-04-24T09:53:27Z</time>
      </trkpt>
      <trkpt lat="47.36119" lon="-1.90662">
        <ele>72</ele>
        <time>2016-04-24T09:53:29Z</time>
      </trkpt>
      <trkpt lat="47.36119" lon="-1.90669">
        <ele>71</ele>
        <time>2016-04-24T09:53:31Z</time>
      </trkpt>
      <trkpt lat="47.3612" lon="-1.90674">
        <ele>71</ele>
        <time>2016-04-24T09:53:32Z</time>
      </trkpt>
      <trkpt lat="47.3612" lon="-1.90678">
        <ele>71</ele>
        <time>2016-04-24T09:53:33Z</time>
      </trkpt>
      <trkpt lat="47.36121" lon="-1.90685">
        <ele>71</ele>
        <time>2016-04-24T09:53:35Z</time>
      </trkpt>
      <trkpt lat="47.36121" lon="-1.90692">
        <ele>71</ele>
        <time>2016-04-24T09:53:37Z</time>
      </trkpt>
      <trkpt lat="47.36122" lon="-1.90697">
        <ele>71</ele>
        <time>2016-04-24T09:53:38Z</time>
      </trkpt>
      <trkpt lat="47.36123" lon="-1.90702">
        <ele>71</ele>
        <time>2016-04-24T09:53:39Z</time>
      </trkpt>
      <trkpt lat="47.36125" lon="-1.90707">
        <ele>71</ele>
        <time>2016-04-24T09:53:40Z</time>
      </trkpt>
      <trkpt lat="47.36127" lon="-1.90712">
        <ele>71</ele>
        <time>2016-04-24T09:53:41Z</time>
      </trkpt>
      <trkpt lat="47.36128" lon="-1.90715">
        <ele>70</ele>
        <time>2016-04-24T09:53:42Z</time>
      </trkpt>
      <trkpt lat="47.36129" lon="-1.90719">
        <ele>70</ele>
        <time>2016-04-24T09:53:43Z</time>
      </trkpt>
      <trkpt lat="47.36129" lon="-1.90726">
        <ele>70</ele>
        <time>2016-04-24T09:53:45Z</time>
      </trkpt>
      <trkpt lat="47.3613" lon="-1.90733">
        <ele>70</ele>
        <time>2016-04-24T09:53:47Z</time>
      </trkpt>
      <trkpt lat="47.36133" lon="-1.90741">
        <ele>70</ele>
        <time>2016-04-24T09:53:49Z</time>
      </trkpt>
      <trkpt lat="47.36134" lon="-1.90745">
        <ele>70</ele>
        <time>2016-04-24T09:53:50Z</time>
      </trkpt>
      <trkpt lat="47.36137" lon="-1.9075">
        <ele>69</ele>
        <time>2016-04-24T09:53:52Z</time>
      </trkpt>
      <trkpt lat="47.36138" lon="-1.90755">
        <ele>69</ele>
        <time>2016-04-24T09:53:54Z</time>
      </trkpt>
      <trkpt lat="47.36138" lon="-1.90759">
        <ele>69</ele>
        <time>2016-04-24T09:53:58Z</time>
      </trkpt>
      <trkpt lat="47.36138" lon="-1.90763">
        <ele>69</ele>
        <time>2016-04-24T09:54:03Z</time>
      </trkpt>
      <trkpt lat="47.36142" lon="-1.90768">
        <ele>69</ele>
        <time>2016-04-24T09:54:30Z</time>
      </trkpt>
      <trkpt lat="47.36146" lon="-1.90774">
        <ele>69</ele>
        <time>2016-04-24T09:54:32Z</time>
      </trkpt>
      <trkpt lat="47.36149" lon="-1.90776">
        <ele>69</ele>
        <time>2016-04-24T09:54:33Z</time>
      </trkpt>
      <trkpt lat="47.36152" lon="-1.90779">
        <ele>69</ele>
        <time>2016-04-24T09:54:34Z</time>
      </trkpt>
      <trkpt lat="47.36156" lon="-1.90782">
        <ele>69</ele>
        <time>2016-04-24T09:54:36Z</time>
      </trkpt>
      <trkpt lat="47.36161" lon="-1.90785">
        <ele>69</ele>
        <time>2016-04-24T09:54:38Z</time>
      </trkpt>
      <trkpt lat="47.36163" lon="-1.90789">
        <ele>69</ele>
        <time>2016-04-24T09:54:39Z</time>
      </trkpt>
      <trkpt lat="47.36165" lon="-1.90793">
        <ele>69</ele>
        <time>2016-04-24T09:54:40Z</time>
      </trkpt>
      <trkpt lat="47.36165" lon="-1.90799">
        <ele>68</ele>
        <time>2016-04-24T09:54:41Z</time>
      </trkpt>
      <trkpt lat="47.36165" lon="-1.90804">
        <ele>68</ele>
        <time>2016-04-24T09:54:42Z</time>
      </trkpt>
      <trkpt lat="47.36165" lon="-1.90809">
        <ele>68</ele>
        <time>2016-04-24T09:54:43Z</time>
      </trkpt>
      <trkpt lat="47.36166" lon="-1.90814">
        <ele>68</ele>
        <time>2016-04-24T09:54:44Z</time>
      </trkpt>
      <trkpt lat="47.36167" lon="-1.90818">
        <ele>68</ele>
        <time>2016-04-24T09:54:45Z</time>
      </trkpt>
      <trkpt lat="47.36168" lon="-1.90823">
        <ele>68</ele>
        <time>2016-04-24T09:54:46Z</time>
      </trkpt>
      <trkpt lat="47.36169" lon="-1.90827">
        <ele>68</ele>
        <time>2016-04-24T09:54:47Z</time>
      </trkpt>
      <trkpt lat="47.36171" lon="-1.90831">
        <ele>67</ele>
        <time>2016-04-24T09:54:48Z</time>
      </trkpt>
      <trkpt lat="47.36173" lon="-1.90832">
        <ele>68</ele>
        <time>2016-04-24T09:54:56Z</time>
      </trkpt>
      <trkpt lat="47.36175" lon="-1.90836">
        <ele>67</ele>
        <time>2016-04-24T09:54:59Z</time>
      </trkpt>
      <trkpt lat="47.36176" lon="-1.90839">
        <ele>66</ele>
        <time>2016-04-24T09:55:07Z</time>
      </trkpt>
      <trkpt lat="47.36174" lon="-1.90842">
        <ele>66</ele>
        <time>2016-04-24T09:55:25Z</time>
      </trkpt>
      <trkpt lat="47.36171" lon="-1.90843">
        <ele>66</ele>
        <time>2016-04-24T09:55:26Z</time>
      </trkpt>
      <trkpt lat="47.36168" lon="-1.90844">
        <ele>66</ele>
        <time>2016-04-24T09:55:27Z</time>
      </trkpt>
      <trkpt lat="47.36164" lon="-1.90843">
        <ele>67</ele>
        <time>2016-04-24T09:55:28Z</time>
      </trkpt>
      <trkpt lat="47.3616" lon="-1.90841">
        <ele>67</ele>
        <time>2016-04-24T09:55:29Z</time>
      </trkpt>
      <trkpt lat="47.36156" lon="-1.90838">
        <ele>67</ele>
        <time>2016-04-24T09:55:30Z</time>
      </trkpt>
      <trkpt lat="47.36151" lon="-1.90834">
        <ele>67</ele>
        <time>2016-04-24T09:55:31Z</time>
      </trkpt>
      <trkpt lat="47.36145" lon="-1.90823">
        <ele>68</ele>
        <time>2016-04-24T09:55:32Z</time>
      </trkpt>
      <trkpt lat="47.36139" lon="-1.90818">
        <ele>68</ele>
        <time>2016-04-24T09:55:33Z</time>
      </trkpt>
      <trkpt lat="47.36136" lon="-1.90813">
        <ele>68</ele>
        <time>2016-04-24T09:55:34Z</time>
      </trkpt>
      <trkpt lat="47.36134" lon="-1.90807">
        <ele>68</ele>
        <time>2016-04-24T09:55:35Z</time>
      </trkpt>
      <trkpt lat="47.3613" lon="-1.90801">
        <ele>68</ele>
        <time>2016-04-24T09:55:36Z</time>
      </trkpt>
      <trkpt lat="47.3613" lon="-1.90796">
        <ele>68</ele>
        <time>2016-04-24T09:55:37Z</time>
      </trkpt>
      <trkpt lat="47.3613" lon="-1.90788">
        <ele>68</ele>
        <time>2016-04-24T09:55:38Z</time>
      </trkpt>
      <trkpt lat="47.36127" lon="-1.90783">
        <ele>68</ele>
        <time>2016-04-24T09:55:39Z</time>
      </trkpt>
      <trkpt lat="47.36126" lon="-1.90779">
        <ele>68</ele>
        <time>2016-04-24T09:55:40Z</time>
      </trkpt>
      <trkpt lat="47.36124" lon="-1.9077">
        <ele>68</ele>
        <time>2016-04-24T09:55:41Z</time>
      </trkpt>
      <trkpt lat="47.36124" lon="-1.90766">
        <ele>68</ele>
        <time>2016-04-24T09:55:42Z</time>
      </trkpt>
      <trkpt lat="47.36123" lon="-1.90761">
        <ele>68</ele>
        <time>2016-04-24T09:55:43Z</time>
      </trkpt>
      <trkpt lat="47.36123" lon="-1.90756">
        <ele>68</ele>
        <time>2016-04-24T09:55:44Z</time>
      </trkpt>
      <trkpt lat="47.36121" lon="-1.9075">
        <ele>70</ele>
        <time>2016-04-24T09:55:46Z</time>
      </trkpt>
      <trkpt lat="47.3612" lon="-1.90742">
        <ele>70</ele>
        <time>2016-04-24T09:55:48Z</time>
      </trkpt>
      <trkpt lat="47.36117" lon="-1.90735">
        <ele>70</ele>
        <time>2016-04-24T09:55:50Z</time>
      </trkpt>
      <trkpt lat="47.36115" lon="-1.9073">
        <ele>70</ele>
        <time>2016-04-24T09:55:51Z</time>
      </trkpt>
      <trkpt lat="47.36113" lon="-1.90725">
        <ele>70</ele>
        <time>2016-04-24T09:55:52Z</time>
      </trkpt>
      <trkpt lat="47.36111" lon="-1.9072">
        <ele>70</ele>
        <time>2016-04-24T09:55:53Z</time>
      </trkpt>
      <trkpt lat="47.36109" lon="-1.90715">
        <ele>70</ele>
        <time>2016-04-24T09:55:54Z</time>
      </trkpt>
      <trkpt lat="47.36107" lon="-1.9071">
        <ele>70</ele>
        <time>2016-04-24T09:55:55Z</time>
      </trkpt>
      <trkpt lat="47.36105" lon="-1.90706">
        <ele>70</ele>
        <time>2016-04-24T09:55:56Z</time>
      </trkpt>
      <trkpt lat="47.36104" lon="-1.90701">
        <ele>70</ele>
        <time>2016-04-24T09:55:57Z</time>
      </trkpt>
      <trkpt lat="47.36102" lon="-1.90696">
        <ele>70</ele>
        <time>2016-04-24T09:55:58Z</time>
      </trkpt>
      <trkpt lat="47.36101" lon="-1.90691">
        <ele>70</ele>
        <time>2016-04-24T09:55:59Z</time>
      </trkpt>
      <trkpt lat="47.361" lon="-1.90685">
        <ele>70</ele>
        <time>2016-04-24T09:56:00Z</time>
      </trkpt>
      <trkpt lat="47.36099" lon="-1.9068">
        <ele>70</ele>
        <time>2016-04-24T09:56:01Z</time>
      </trkpt>
      <trkpt lat="47.36097" lon="-1.90676">
        <ele>70</ele>
        <time>2016-04-24T09:56:02Z</time>
      </trkpt>
      <trkpt lat="47.36095" lon="-1.90672">
        <ele>70</ele>
        <time>2016-04-24T09:56:03Z</time>
      </trkpt>
      <trkpt lat="47.36093" lon="-1.9067">
        <ele>70</ele>
        <time>2016-04-24T09:56:04Z</time>
      </trkpt>
      <trkpt lat="47.36088" lon="-1.90668">
        <ele>69</ele>
        <time>2016-04-24T09:56:06Z</time>
      </trkpt>
      <trkpt lat="47.36085" lon="-1.90667">
        <ele>69</ele>
        <time>2016-04-24T09:56:07Z</time>
      </trkpt>
      <trkpt lat="47.36083" lon="-1.90666">
        <ele>69</ele>
        <time>2016-04-24T09:56:08Z</time>
      </trkpt>
      <trkpt lat="47.36079" lon="-1.90665">
        <ele>70</ele>
        <time>2016-04-24T09:56:09Z</time>
      </trkpt>
      <trkpt lat="47.36075" lon="-1.90664">
        <ele>70</ele>
        <time>2016-04-24T09:56:10Z</time>
      </trkpt>
      <trkpt lat="47.36072" lon="-1.90664">
        <ele>70</ele>
        <time>2016-04-24T09:56:11Z</time>
      </trkpt>
      <trkpt lat="47.36069" lon="-1.90663">
        <ele>70</ele>
        <time>2016-04-24T09:56:12Z</time>
      </trkpt>
      <trkpt lat="47.36066" lon="-1.90663">
        <ele>71</ele>
        <time>2016-04-24T09:56:13Z</time>
      </trkpt>
      <trkpt lat="47.36064" lon="-1.90663">
        <ele>71</ele>
        <time>2016-04-24T09:56:14Z</time>
      </trkpt>
      <trkpt lat="47.36059" lon="-1.90662">
        <ele>71</ele>
        <time>2016-04-24T09:56:16Z</time>
      </trkpt>
      <trkpt lat="47.36054" lon="-1.90662">
        <ele>71</ele>
        <time>2016-04-24T09:56:18Z</time>
      </trkpt>
      <trkpt lat="47.3605" lon="-1.90662">
        <ele>71</ele>
        <time>2016-04-24T09:56:20Z</time>
      </trkpt>
      <trkpt lat="47.36047" lon="-1.90662">
        <ele>72</ele>
        <time>2016-04-24T09:56:22Z</time>
      </trkpt>
      <trkpt lat="47.36043" lon="-1.90663">
        <ele>72</ele>
        <time>2016-04-24T09:56:24Z</time>
      </trkpt>
      <trkpt lat="47.36041" lon="-1.90663">
        <ele>72</ele>
        <time>2016-04-24T09:56:26Z</time>
      </trkpt>
      <trkpt lat="47.36038" lon="-1.90663">
        <ele>72</ele>
        <time>2016-04-24T09:56:28Z</time>
      </trkpt>
      <trkpt lat="47.36035" lon="-1.90663">
        <ele>72</ele>
        <time>2016-04-24T09:56:30Z</time>
      </trkpt>
      <trkpt lat="47.36032" lon="-1.90664">
        <ele>72</ele>
        <time>2016-04-24T09:56:32Z</time>
      </trkpt>
      <trkpt lat="47.36029" lon="-1.90665">
        <ele>72</ele>
        <time>2016-04-24T09:56:34Z</time>
      </trkpt>
      <trkpt lat="47.36025" lon="-1.90665">
        <ele>73</ele>
        <time>2016-04-24T09:56:36Z</time>
      </trkpt>
      <trkpt lat="47.36023" lon="-1.90664">
        <ele>73</ele>
        <time>2016-04-24T09:56:39Z</time>
      </trkpt>
      <trkpt lat="47.3602" lon="-1.90664">
        <ele>73</ele>
        <time>2016-04-24T09:56:41Z</time>
      </trkpt>
      <trkpt lat="47.36017" lon="-1.90663">
        <ele>73</ele>
        <time>2016-04-24T09:56:43Z</time>
      </trkpt>
      <trkpt lat="47.36014" lon="-1.90664">
        <ele>73</ele>
        <time>2016-04-24T09:56:45Z</time>
      </trkpt>
      <trkpt lat="47.36011" lon="-1.90665">
        <ele>73</ele>
        <time>2016-04-24T09:56:47Z</time>
      </trkpt>
      <trkpt lat="47.36007" lon="-1.90666">
        <ele>73</ele>
        <time>2016-04-24T09:56:49Z</time>
      </trkpt>
      <trkpt lat="47.36004" lon="-1.90667">
        <ele>73</ele>
        <time>2016-04-24T09:56:51Z</time>
      </trkpt>
      <trkpt lat="47.36001" lon="-1.90668">
        <ele>74</ele>
        <time>2016-04-24T09:56:53Z</time>
      </trkpt>
      <trkpt lat="47.35999" lon="-1.90669">
        <ele>74</ele>
        <time>2016-04-24T09:56:55Z</time>
      </trkpt>
      <trkpt lat="47.35995" lon="-1.9067">
        <ele>74</ele>
        <time>2016-04-24T09:56:57Z</time>
      </trkpt>
      <trkpt lat="47.35992" lon="-1.90671">
        <ele>74</ele>
        <time>2016-04-24T09:56:59Z</time>
      </trkpt>
      <trkpt lat="47.35989" lon="-1.9067">
        <ele>74</ele>
        <time>2016-04-24T09:57:01Z</time>
      </trkpt>
      <trkpt lat="47.35986" lon="-1.90668">
        <ele>75</ele>
        <time>2016-04-24T09:57:03Z</time>
      </trkpt>
      <trkpt lat="47.35983" lon="-1.90664">
        <ele>75</ele>
        <time>2016-04-24T09:57:05Z</time>
      </trkpt>
      <trkpt lat="47.35982" lon="-1.90658">
        <ele>75</ele>
        <time>2016-04-24T09:57:07Z</time>
      </trkpt>
      <trkpt lat="47.3598" lon="-1.90652">
        <ele>75</ele>
        <time>2016-04-24T09:57:09Z</time>
      </trkpt>
      <trkpt lat="47.35978" lon="-1.90646">
        <ele>75</ele>
        <time>2016-04-24T09:57:11Z</time>
      </trkpt>
      <trkpt lat="47.35976" lon="-1.9064">
        <ele>75</ele>
        <time>2016-04-24T09:57:13Z</time>
      </trkpt>
      <trkpt lat="47.35975" lon="-1.90635">
        <ele>75</ele>
        <time>2016-04-24T09:57:15Z</time>
      </trkpt>
      <trkpt lat="47.35974" lon="-1.90629">
        <ele>75</ele>
        <time>2016-04-24T09:57:17Z</time>
      </trkpt>
      <trkpt lat="47.35973" lon="-1.90623">
        <ele>75</ele>
        <time>2016-04-24T09:57:19Z</time>
      </trkpt>
      <trkpt lat="47.35972" lon="-1.90615">
        <ele>75</ele>
        <time>2016-04-24T09:57:21Z</time>
      </trkpt>
      <trkpt lat="47.35971" lon="-1.90611">
        <ele>75</ele>
        <time>2016-04-24T09:57:22Z</time>
      </trkpt>
      <trkpt lat="47.3597" lon="-1.90606">
        <ele>75</ele>
        <time>2016-04-24T09:57:23Z</time>
      </trkpt>
      <trkpt lat="47.35968" lon="-1.90601">
        <ele>75</ele>
        <time>2016-04-24T09:57:24Z</time>
      </trkpt>
      <trkpt lat="47.35967" lon="-1.90595">
        <ele>75</ele>
        <time>2016-04-24T09:57:25Z</time>
      </trkpt>
      <trkpt lat="47.35966" lon="-1.90588">
        <ele>75</ele>
        <time>2016-04-24T09:57:26Z</time>
      </trkpt>
      <trkpt lat="47.35964" lon="-1.90582">
        <ele>74</ele>
        <time>2016-04-24T09:57:27Z</time>
      </trkpt>
      <trkpt lat="47.35963" lon="-1.90575">
        <ele>74</ele>
        <time>2016-04-24T09:57:28Z</time>
      </trkpt>
      <trkpt lat="47.3596" lon="-1.9057">
        <ele>74</ele>
        <time>2016-04-24T09:57:29Z</time>
      </trkpt>
      <trkpt lat="47.35958" lon="-1.90565">
        <ele>74</ele>
        <time>2016-04-24T09:57:30Z</time>
      </trkpt>
      <trkpt lat="47.35955" lon="-1.90562">
        <ele>74</ele>
        <time>2016-04-24T09:57:31Z</time>
      </trkpt>
      <trkpt lat="47.35952" lon="-1.9056">
        <ele>74</ele>
        <time>2016-04-24T09:57:32Z</time>
      </trkpt>
      <trkpt lat="47.35949" lon="-1.90558">
        <ele>74</ele>
        <time>2016-04-24T09:57:33Z</time>
      </trkpt>
      <trkpt lat="47.35945" lon="-1.90558">
        <ele>74</ele>
        <time>2016-04-24T09:57:34Z</time>
      </trkpt>
      <trkpt lat="47.35942" lon="-1.90558">
        <ele>74</ele>
        <time>2016-04-24T09:57:35Z</time>
      </trkpt>
      <trkpt lat="47.3594" lon="-1.90558">
        <ele>75</ele>
        <time>2016-04-24T09:57:36Z</time>
      </trkpt>
      <trkpt lat="47.35937" lon="-1.90559">
        <ele>75</ele>
        <time>2016-04-24T09:57:37Z</time>
      </trkpt>
      <trkpt lat="47.35934" lon="-1.90559">
        <ele>75</ele>
        <time>2016-04-24T09:57:38Z</time>
      </trkpt>
      <trkpt lat="47.35929" lon="-1.9056">
        <ele>75</ele>
        <time>2016-04-24T09:57:40Z</time>
      </trkpt>
      <trkpt lat="47.35926" lon="-1.90559">
        <ele>75</ele>
        <time>2016-04-24T09:57:41Z</time>
      </trkpt>
      <trkpt lat="47.35923" lon="-1.9056">
        <ele>75</ele>
        <time>2016-04-24T09:57:42Z</time>
      </trkpt>
      <trkpt lat="47.35918" lon="-1.90559">
        <ele>75</ele>
        <time>2016-04-24T09:57:44Z</time>
      </trkpt>
      <trkpt lat="47.35915" lon="-1.90558">
        <ele>77</ele>
        <time>2016-04-24T09:57:45Z</time>
      </trkpt>
      <trkpt lat="47.35913" lon="-1.90557">
        <ele>77</ele>
        <time>2016-04-24T09:57:46Z</time>
      </trkpt>
      <trkpt lat="47.3591" lon="-1.90554">
        <ele>77</ele>
        <time>2016-04-24T09:57:47Z</time>
      </trkpt>
      <trkpt lat="47.35908" lon="-1.9055">
        <ele>77</ele>
        <time>2016-04-24T09:57:48Z</time>
      </trkpt>
      <trkpt lat="47.35906" lon="-1.90547">
        <ele>76</ele>
        <time>2016-04-24T09:57:49Z</time>
      </trkpt>
      <trkpt lat="47.35904" lon="-1.90544">
        <ele>76</ele>
        <time>2016-04-24T09:57:50Z</time>
      </trkpt>
      <trkpt lat="47.35901" lon="-1.90539">
        <ele>76</ele>
        <time>2016-04-24T09:57:52Z</time>
      </trkpt>
      <trkpt lat="47.35897" lon="-1.90534">
        <ele>76</ele>
        <time>2016-04-24T09:57:54Z</time>
      </trkpt>
      <trkpt lat="47.35894" lon="-1.9053">
        <ele>76</ele>
        <time>2016-04-24T09:57:56Z</time>
      </trkpt>
      <trkpt lat="47.35889" lon="-1.90528">
        <ele>76</ele>
        <time>2016-04-24T09:57:58Z</time>
      </trkpt>
      <trkpt lat="47.35886" lon="-1.90529">
        <ele>76</ele>
        <time>2016-04-24T09:58:00Z</time>
      </trkpt>
      <trkpt lat="47.35884" lon="-1.90532">
        <ele>76</ele>
        <time>2016-04-24T09:58:02Z</time>
      </trkpt>
      <trkpt lat="47.35881" lon="-1.90535">
        <ele>77</ele>
        <time>2016-04-24T09:58:04Z</time>
      </trkpt>
      <trkpt lat="47.35879" lon="-1.90536">
        <ele>77</ele>
        <time>2016-04-24T09:58:06Z</time>
      </trkpt>
      <trkpt lat="47.35876" lon="-1.90539">
        <ele>77</ele>
        <time>2016-04-24T09:58:08Z</time>
      </trkpt>
      <trkpt lat="47.35873" lon="-1.90544">
        <ele>77</ele>
        <time>2016-04-24T09:58:10Z</time>
      </trkpt>
      <trkpt lat="47.3587" lon="-1.9055">
        <ele>77</ele>
        <time>2016-04-24T09:58:12Z</time>
      </trkpt>
      <trkpt lat="47.35867" lon="-1.90552">
        <ele>77</ele>
        <time>2016-04-24T09:58:13Z</time>
      </trkpt>
      <trkpt lat="47.35865" lon="-1.90555">
        <ele>77</ele>
        <time>2016-04-24T09:58:14Z</time>
      </trkpt>
      <trkpt lat="47.35863" lon="-1.90557">
        <ele>77</ele>
        <time>2016-04-24T09:58:15Z</time>
      </trkpt>
      <trkpt lat="47.35861" lon="-1.9056">
        <ele>77</ele>
        <time>2016-04-24T09:58:16Z</time>
      </trkpt>
      <trkpt lat="47.35858" lon="-1.90563">
        <ele>77</ele>
        <time>2016-04-24T09:58:17Z</time>
      </trkpt>
      <trkpt lat="47.35856" lon="-1.90566">
        <ele>77</ele>
        <time>2016-04-24T09:58:18Z</time>
      </trkpt>
      <trkpt lat="47.35854" lon="-1.90569">
        <ele>78</ele>
        <time>2016-04-24T09:58:19Z</time>
      </trkpt>
      <trkpt lat="47.35852" lon="-1.90572">
        <ele>78</ele>
        <time>2016-04-24T09:58:20Z</time>
      </trkpt>
      <trkpt lat="47.3585" lon="-1.90575">
        <ele>78</ele>
        <time>2016-04-24T09:58:21Z</time>
      </trkpt>
      <trkpt lat="47.35848" lon="-1.90578">
        <ele>78</ele>
        <time>2016-04-24T09:58:22Z</time>
      </trkpt>
      <trkpt lat="47.35846" lon="-1.90581">
        <ele>78</ele>
        <time>2016-04-24T09:58:23Z</time>
      </trkpt>
      <trkpt lat="47.35844" lon="-1.90584">
        <ele>79</ele>
        <time>2016-04-24T09:58:24Z</time>
      </trkpt>
      <trkpt lat="47.3584" lon="-1.9059">
        <ele>79</ele>
        <time>2016-04-24T09:58:26Z</time>
      </trkpt>
      <trkpt lat="47.35836" lon="-1.90595">
        <ele>79</ele>
        <time>2016-04-24T09:58:28Z</time>
      </trkpt>
      <trkpt lat="47.35833" lon="-1.90601">
        <ele>79</ele>
        <time>2016-04-24T09:58:30Z</time>
      </trkpt>
      <trkpt lat="47.3583" lon="-1.90607">
        <ele>79</ele>
        <time>2016-04-24T09:58:32Z</time>
      </trkpt>
      <trkpt lat="47.35826" lon="-1.90611">
        <ele>79</ele>
        <time>2016-04-24T09:58:34Z</time>
      </trkpt>
      <trkpt lat="47.35822" lon="-1.90615">
        <ele>79</ele>
        <time>2016-04-24T09:58:36Z</time>
      </trkpt>
      <trkpt lat="47.3582" lon="-1.90618">
        <ele>79</ele>
        <time>2016-04-24T09:58:37Z</time>
      </trkpt>
      <trkpt lat="47.35816" lon="-1.90621">
        <ele>79</ele>
        <time>2016-04-24T09:58:39Z</time>
      </trkpt>
      <trkpt lat="47.35812" lon="-1.90624">
        <ele>79</ele>
        <time>2016-04-24T09:58:41Z</time>
      </trkpt>
      <trkpt lat="47.35809" lon="-1.90627">
        <ele>78</ele>
        <time>2016-04-24T09:58:42Z</time>
      </trkpt>
      <trkpt lat="47.35806" lon="-1.90631">
        <ele>78</ele>
        <time>2016-04-24T09:58:43Z</time>
      </trkpt>
      <trkpt lat="47.35803" lon="-1.90635">
        <ele>78</ele>
        <time>2016-04-24T09:58:44Z</time>
      </trkpt>
      <trkpt lat="47.358" lon="-1.90639">
        <ele>78</ele>
        <time>2016-04-24T09:58:45Z</time>
      </trkpt>
      <trkpt lat="47.35797" lon="-1.90644">
        <ele>78</ele>
        <time>2016-04-24T09:58:46Z</time>
      </trkpt>
      <trkpt lat="47.35795" lon="-1.9065">
        <ele>78</ele>
        <time>2016-04-24T09:58:47Z</time>
      </trkpt>
      <trkpt lat="47.35793" lon="-1.90656">
        <ele>78</ele>
        <time>2016-04-24T09:58:48Z</time>
      </trkpt>
      <trkpt lat="47.35791" lon="-1.90662">
        <ele>78</ele>
        <time>2016-04-24T09:58:49Z</time>
      </trkpt>
      <trkpt lat="47.3579" lon="-1.9067">
        <ele>77</ele>
        <time>2016-04-24T09:58:50Z</time>
      </trkpt>
      <trkpt lat="47.35789" lon="-1.90678">
        <ele>77</ele>
        <time>2016-04-24T09:58:51Z</time>
      </trkpt>
      <trkpt lat="47.35793" lon="-1.90692">
        <ele>77</ele>
        <time>2016-04-24T09:58:52Z</time>
      </trkpt>
      <trkpt lat="47.35796" lon="-1.90698">
        <ele>77</ele>
        <time>2016-04-24T09:58:53Z</time>
      </trkpt>
      <trkpt lat="47.35797" lon="-1.90705">
        <ele>77</ele>
        <time>2016-04-24T09:58:54Z</time>
      </trkpt>
      <trkpt lat="47.358" lon="-1.90712">
        <ele>77</ele>
        <time>2016-04-24T09:58:55Z</time>
      </trkpt>
      <trkpt lat="47.35802" lon="-1.90717">
        <ele>77</ele>
        <time>2016-04-24T09:58:56Z</time>
      </trkpt>
      <trkpt lat="47.35804" lon="-1.90724">
        <ele>77</ele>
        <time>2016-04-24T09:58:57Z</time>
      </trkpt>
      <trkpt lat="47.35806" lon="-1.9073">
        <ele>77</ele>
        <time>2016-04-24T09:58:58Z</time>
      </trkpt>
      <trkpt lat="47.35808" lon="-1.90738">
        <ele>77</ele>
        <time>2016-04-24T09:58:59Z</time>
      </trkpt>
      <trkpt lat="47.35809" lon="-1.90742">
        <ele>77</ele>
        <time>2016-04-24T09:59:00Z</time>
      </trkpt>
      <trkpt lat="47.35811" lon="-1.90749">
        <ele>77</ele>
        <time>2016-04-24T09:59:01Z</time>
      </trkpt>
      <trkpt lat="47.35813" lon="-1.90755">
        <ele>76</ele>
        <time>2016-04-24T09:59:02Z</time>
      </trkpt>
      <trkpt lat="47.35816" lon="-1.9076">
        <ele>76</ele>
        <time>2016-04-24T09:59:03Z</time>
      </trkpt>
      <trkpt lat="47.35819" lon="-1.90765">
        <ele>76</ele>
        <time>2016-04-24T09:59:04Z</time>
      </trkpt>
      <trkpt lat="47.35822" lon="-1.90769">
        <ele>76</ele>
        <time>2016-04-24T09:59:05Z</time>
      </trkpt>
      <trkpt lat="47.35825" lon="-1.90774">
        <ele>76</ele>
        <time>2016-04-24T09:59:06Z</time>
      </trkpt>
      <trkpt lat="47.35828" lon="-1.90778">
        <ele>76</ele>
        <time>2016-04-24T09:59:07Z</time>
      </trkpt>
      <trkpt lat="47.35831" lon="-1.90783">
        <ele>76</ele>
        <time>2016-04-24T09:59:08Z</time>
      </trkpt>
      <trkpt lat="47.35835" lon="-1.90787">
        <ele>78</ele>
        <time>2016-04-24T09:59:09Z</time>
      </trkpt>
      <trkpt lat="47.35838" lon="-1.90791">
        <ele>78</ele>
        <time>2016-04-24T09:59:10Z</time>
      </trkpt>
      <trkpt lat="47.35841" lon="-1.90796">
        <ele>78</ele>
        <time>2016-04-24T09:59:11Z</time>
      </trkpt>
      <trkpt lat="47.35845" lon="-1.908">
        <ele>78</ele>
        <time>2016-04-24T09:59:12Z</time>
      </trkpt>
      <trkpt lat="47.3585" lon="-1.908">
        <ele>78</ele>
        <time>2016-04-24T09:59:13Z</time>
      </trkpt>
      <trkpt lat="47.35854" lon="-1.908">
        <ele>78</ele>
        <time>2016-04-24T09:59:14Z</time>
      </trkpt>
      <trkpt lat="47.35858" lon="-1.90798">
        <ele>78</ele>
        <time>2016-04-24T09:59:15Z</time>
      </trkpt>
      <trkpt lat="47.35865" lon="-1.90805">
        <ele>78</ele>
        <time>2016-04-24T09:59:17Z</time>
      </trkpt>
      <trkpt lat="47.35869" lon="-1.90807">
        <ele>78</ele>
        <time>2016-04-24T09:59:18Z</time>
      </trkpt>
      <trkpt lat="47.35872" lon="-1.90809">
        <ele>78</ele>
        <time>2016-04-24T09:59:19Z</time>
      </trkpt>
      <trkpt lat="47.35876" lon="-1.90815">
        <ele>78</ele>
        <time>2016-04-24T09:59:21Z</time>
      </trkpt>
      <trkpt lat="47.3588" lon="-1.90821">
        <ele>78</ele>
        <time>2016-04-24T09:59:22Z</time>
      </trkpt>
      <trkpt lat="47.35883" lon="-1.90825">
        <ele>78</ele>
        <time>2016-04-24T09:59:23Z</time>
      </trkpt>
      <trkpt lat="47.35886" lon="-1.90829">
        <ele>78</ele>
        <time>2016-04-24T09:59:24Z</time>
      </trkpt>
      <trkpt lat="47.35888" lon="-1.90834">
        <ele>77</ele>
        <time>2016-04-24T09:59:25Z</time>
      </trkpt>
      <trkpt lat="47.3589" lon="-1.90839">
        <ele>77</ele>
        <time>2016-04-24T09:59:26Z</time>
      </trkpt>
      <trkpt lat="47.35892" lon="-1.90843">
        <ele>77</ele>
        <time>2016-04-24T09:59:27Z</time>
      </trkpt>
      <trkpt lat="47.35893" lon="-1.90847">
        <ele>77</ele>
        <time>2016-04-24T09:59:28Z</time>
      </trkpt>
      <trkpt lat="47.35896" lon="-1.90853">
        <ele>77</ele>
        <time>2016-04-24T09:59:30Z</time>
      </trkpt>
      <trkpt lat="47.35897" lon="-1.90857">
        <ele>77</ele>
        <time>2016-04-24T09:59:31Z</time>
      </trkpt>
      <trkpt lat="47.35899" lon="-1.90862">
        <ele>77</ele>
        <time>2016-04-24T09:59:32Z</time>
      </trkpt>
      <trkpt lat="47.359" lon="-1.90867">
        <ele>77</ele>
        <time>2016-04-24T09:59:33Z</time>
      </trkpt>
      <trkpt lat="47.35901" lon="-1.90872">
        <ele>76</ele>
        <time>2016-04-24T09:59:34Z</time>
      </trkpt>
      <trkpt lat="47.35903" lon="-1.90877">
        <ele>76</ele>
        <time>2016-04-24T09:59:35Z</time>
      </trkpt>
      <trkpt lat="47.35907" lon="-1.90885">
        <ele>76</ele>
        <time>2016-04-24T09:59:36Z</time>
      </trkpt>
      <trkpt lat="47.35914" lon="-1.90895">
        <ele>76</ele>
        <time>2016-04-24T09:59:37Z</time>
      </trkpt>
      <trkpt lat="47.35918" lon="-1.90901">
        <ele>74</ele>
        <time>2016-04-24T09:59:38Z</time>
      </trkpt>
      <trkpt lat="47.35923" lon="-1.90908">
        <ele>74</ele>
        <time>2016-04-24T09:59:39Z</time>
      </trkpt>
      <trkpt lat="47.35927" lon="-1.90914">
        <ele>74</ele>
        <time>2016-04-24T09:59:40Z</time>
      </trkpt>
      <trkpt lat="47.35931" lon="-1.90918">
        <ele>73</ele>
        <time>2016-04-24T09:59:41Z</time>
      </trkpt>
      <trkpt lat="47.35935" lon="-1.90923">
        <ele>73</ele>
        <time>2016-04-24T09:59:42Z</time>
      </trkpt>
      <trkpt lat="47.35941" lon="-1.90928">
        <ele>73</ele>
        <time>2016-04-24T09:59:43Z</time>
      </trkpt>
      <trkpt lat="47.35945" lon="-1.90933">
        <ele>73</ele>
        <time>2016-04-24T09:59:44Z</time>
      </trkpt>
      <trkpt lat="47.35953" lon="-1.90941">
        <ele>72</ele>
        <time>2016-04-24T09:59:45Z</time>
      </trkpt>
      <trkpt lat="47.35957" lon="-1.90948">
        <ele>72</ele>
        <time>2016-04-24T09:59:46Z</time>
      </trkpt>
      <trkpt lat="47.35962" lon="-1.90955">
        <ele>72</ele>
        <time>2016-04-24T09:59:47Z</time>
      </trkpt>
      <trkpt lat="47.35967" lon="-1.9096">
        <ele>72</ele>
        <time>2016-04-24T09:59:48Z</time>
      </trkpt>
      <trkpt lat="47.35971" lon="-1.90966">
        <ele>72</ele>
        <time>2016-04-24T09:59:51Z</time>
      </trkpt>
      <trkpt lat="47.35975" lon="-1.90971">
        <ele>72</ele>
        <time>2016-04-24T09:59:52Z</time>
      </trkpt>
      <trkpt lat="47.35977" lon="-1.90975">
        <ele>72</ele>
        <time>2016-04-24T09:59:53Z</time>
      </trkpt>
      <trkpt lat="47.35978" lon="-1.90978">
        <ele>72</ele>
        <time>2016-04-24T09:59:54Z</time>
      </trkpt>
      <trkpt lat="47.35983" lon="-1.90983">
        <ele>72</ele>
        <time>2016-04-24T09:59:56Z</time>
      </trkpt>
      <trkpt lat="47.35985" lon="-1.90989">
        <ele>72</ele>
        <time>2016-04-24T09:59:58Z</time>
      </trkpt>
      <trkpt lat="47.35988" lon="-1.90993">
        <ele>72</ele>
        <time>2016-04-24T09:59:59Z</time>
      </trkpt>
      <trkpt lat="47.35992" lon="-1.90997">
        <ele>72</ele>
        <time>2016-04-24T10:00:00Z</time>
      </trkpt>
      <trkpt lat="47.35996" lon="-1.91002">
        <ele>72</ele>
        <time>2016-04-24T10:00:01Z</time>
      </trkpt>
      <trkpt lat="47.36003" lon="-1.9101">
        <ele>71</ele>
        <time>2016-04-24T10:00:02Z</time>
      </trkpt>
      <trkpt lat="47.36006" lon="-1.91016">
        <ele>71</ele>
        <time>2016-04-24T10:00:03Z</time>
      </trkpt>
      <trkpt lat="47.36011" lon="-1.9102">
        <ele>70</ele>
        <time>2016-04-24T10:00:04Z</time>
      </trkpt>
      <trkpt lat="47.36017" lon="-1.91025">
        <ele>70</ele>
        <time>2016-04-24T10:00:05Z</time>
      </trkpt>
      <trkpt lat="47.3602" lon="-1.91029">
        <ele>70</ele>
        <time>2016-04-24T10:00:06Z</time>
      </trkpt>
      <trkpt lat="47.36024" lon="-1.91035">
        <ele>70</ele>
        <time>2016-04-24T10:00:07Z</time>
      </trkpt>
      <trkpt lat="47.36025" lon="-1.91039">
        <ele>69</ele>
        <time>2016-04-24T10:00:08Z</time>
      </trkpt>
      <trkpt lat="47.36031" lon="-1.91048">
        <ele>69</ele>
        <time>2016-04-24T10:00:09Z</time>
      </trkpt>
      <trkpt lat="47.36033" lon="-1.91054">
        <ele>69</ele>
        <time>2016-04-24T10:00:10Z</time>
      </trkpt>
      <trkpt lat="47.36036" lon="-1.91058">
        <ele>69</ele>
        <time>2016-04-24T10:00:11Z</time>
      </trkpt>
      <trkpt lat="47.36039" lon="-1.91064">
        <ele>69</ele>
        <time>2016-04-24T10:00:12Z</time>
      </trkpt>
      <trkpt lat="47.3604" lon="-1.91072">
        <ele>69</ele>
        <time>2016-04-24T10:00:14Z</time>
      </trkpt>
      <trkpt lat="47.36042" lon="-1.91077">
        <ele>69</ele>
        <time>2016-04-24T10:00:15Z</time>
      </trkpt>
      <trkpt lat="47.36043" lon="-1.91084">
        <ele>68</ele>
        <time>2016-04-24T10:00:17Z</time>
      </trkpt>
      <trkpt lat="47.36045" lon="-1.91089">
        <ele>68</ele>
        <time>2016-04-24T10:00:18Z</time>
      </trkpt>
      <trkpt lat="47.36045" lon="-1.91093">
        <ele>68</ele>
        <time>2016-04-24T10:00:19Z</time>
      </trkpt>
      <trkpt lat="47.36045" lon="-1.91098">
        <ele>68</ele>
        <time>2016-04-24T10:00:20Z</time>
      </trkpt>
      <trkpt lat="47.36045" lon="-1.91104">
        <ele>68</ele>
        <time>2016-04-24T10:00:21Z</time>
      </trkpt>
      <trkpt lat="47.36045" lon="-1.91109">
        <ele>68</ele>
        <time>2016-04-24T10:00:22Z</time>
      </trkpt>
      <trkpt lat="47.36045" lon="-1.91115">
        <ele>68</ele>
        <time>2016-04-24T10:00:23Z</time>
      </trkpt>
      <trkpt lat="47.36045" lon="-1.91121">
        <ele>67</ele>
        <time>2016-04-24T10:00:24Z</time>
      </trkpt>
      <trkpt lat="47.36045" lon="-1.91127">
        <ele>67</ele>
        <time>2016-04-24T10:00:25Z</time>
      </trkpt>
      <trkpt lat="47.36044" lon="-1.91135">
        <ele>67</ele>
        <time>2016-04-24T10:00:26Z</time>
      </trkpt>
      <trkpt lat="47.36044" lon="-1.91144">
        <ele>67</ele>
        <time>2016-04-24T10:00:27Z</time>
      </trkpt>
      <trkpt lat="47.36042" lon="-1.91162">
        <ele>67</ele>
        <time>2016-04-24T10:00:28Z</time>
      </trkpt>
      <trkpt lat="47.3604" lon="-1.91167">
        <ele>66</ele>
        <time>2016-04-24T10:00:29Z</time>
      </trkpt>
      <trkpt lat="47.3604" lon="-1.91175">
        <ele>66</ele>
        <time>2016-04-24T10:00:30Z</time>
      </trkpt>
      <trkpt lat="47.3604" lon="-1.91182">
        <ele>66</ele>
        <time>2016-04-24T10:00:31Z</time>
      </trkpt>
      <trkpt lat="47.3604" lon="-1.91188">
        <ele>66</ele>
        <time>2016-04-24T10:00:32Z</time>
      </trkpt>
      <trkpt lat="47.36038" lon="-1.91196">
        <ele>66</ele>
        <time>2016-04-24T10:00:33Z</time>
      </trkpt>
      <trkpt lat="47.36037" lon="-1.91202">
        <ele>66</ele>
        <time>2016-04-24T10:00:34Z</time>
      </trkpt>
      <trkpt lat="47.36035" lon="-1.91211">
        <ele>66</ele>
        <time>2016-04-24T10:00:35Z</time>
      </trkpt>
      <trkpt lat="47.36034" lon="-1.91219">
        <ele>66</ele>
        <time>2016-04-24T10:00:36Z</time>
      </trkpt>
      <trkpt lat="47.36034" lon="-1.91227">
        <ele>66</ele>
        <time>2016-04-24T10:00:37Z</time>
      </trkpt>
      <trkpt lat="47.36034" lon="-1.91236">
        <ele>66</ele>
        <time>2016-04-24T10:00:38Z</time>
      </trkpt>
      <trkpt lat="47.36035" lon="-1.91243">
        <ele>65</ele>
        <time>2016-04-24T10:00:39Z</time>
      </trkpt>
      <trkpt lat="47.36037" lon="-1.9125">
        <ele>65</ele>
        <time>2016-04-24T10:00:40Z</time>
      </trkpt>
      <trkpt lat="47.36038" lon="-1.91258">
        <ele>65</ele>
        <time>2016-04-24T10:00:41Z</time>
      </trkpt>
      <trkpt lat="47.3604" lon="-1.91267">
        <ele>65</ele>
        <time>2016-04-24T10:00:42Z</time>
      </trkpt>
      <trkpt lat="47.36041" lon="-1.91279">
        <ele>65</ele>
        <time>2016-04-24T10:00:43Z</time>
      </trkpt>
      <trkpt lat="47.36044" lon="-1.91291">
        <ele>64</ele>
        <time>2016-04-24T10:00:44Z</time>
      </trkpt>
      <trkpt lat="47.36044" lon="-1.91305">
        <ele>64</ele>
        <time>2016-04-24T10:00:45Z</time>
      </trkpt>
      <trkpt lat="47.36045" lon="-1.91322">
        <ele>64</ele>
        <time>2016-04-24T10:00:46Z</time>
      </trkpt>
      <trkpt lat="47.36046" lon="-1.91339">
        <ele>64</ele>
        <time>2016-04-24T10:00:47Z</time>
      </trkpt>
      <trkpt lat="47.36043" lon="-1.9135">
        <ele>64</ele>
        <time>2016-04-24T10:00:48Z</time>
      </trkpt>
      <trkpt lat="47.36041" lon="-1.91374">
        <ele>64</ele>
        <time>2016-04-24T10:00:50Z</time>
      </trkpt>
      <trkpt lat="47.36037" lon="-1.91378">
        <ele>64</ele>
        <time>2016-04-24T10:00:51Z</time>
      </trkpt>
      <trkpt lat="47.3603" lon="-1.91388">
        <ele>64</ele>
        <time>2016-04-24T10:00:52Z</time>
      </trkpt>
      <trkpt lat="47.36025" lon="-1.91391">
        <ele>64</ele>
        <time>2016-04-24T10:00:53Z</time>
      </trkpt>
      <trkpt lat="47.36021" lon="-1.91389">
        <ele>64</ele>
        <time>2016-04-24T10:00:54Z</time>
      </trkpt>
      <trkpt lat="47.36016" lon="-1.91392">
        <ele>64</ele>
        <time>2016-04-24T10:00:55Z</time>
      </trkpt>
      <trkpt lat="47.36012" lon="-1.91394">
        <ele>64</ele>
        <time>2016-04-24T10:00:56Z</time>
      </trkpt>
      <trkpt lat="47.36008" lon="-1.91395">
        <ele>64</ele>
        <time>2016-04-24T10:00:57Z</time>
      </trkpt>
      <trkpt lat="47.36003" lon="-1.91397">
        <ele>64</ele>
        <time>2016-04-24T10:00:58Z</time>
      </trkpt>
      <trkpt lat="47.36" lon="-1.91396">
        <ele>66</ele>
        <time>2016-04-24T10:00:59Z</time>
      </trkpt>
      <trkpt lat="47.35994" lon="-1.91397">
        <ele>66</ele>
        <time>2016-04-24T10:01:00Z</time>
      </trkpt>
      <trkpt lat="47.3599" lon="-1.91397">
        <ele>66</ele>
        <time>2016-04-24T10:01:01Z</time>
      </trkpt>
      <trkpt lat="47.35984" lon="-1.91397">
        <ele>66</ele>
        <time>2016-04-24T10:01:02Z</time>
      </trkpt>
      <trkpt lat="47.35979" lon="-1.91396">
        <ele>66</ele>
        <time>2016-04-24T10:01:03Z</time>
      </trkpt>
      <trkpt lat="47.35975" lon="-1.91399">
        <ele>66</ele>
        <time>2016-04-24T10:01:04Z</time>
      </trkpt>
      <trkpt lat="47.3597" lon="-1.914">
        <ele>66</ele>
        <time>2016-04-24T10:01:05Z</time>
      </trkpt>
      <trkpt lat="47.35966" lon="-1.914">
        <ele>66</ele>
        <time>2016-04-24T10:01:06Z</time>
      </trkpt>
      <trkpt lat="47.35959" lon="-1.91401">
        <ele>66</ele>
        <time>2016-04-24T10:01:07Z</time>
      </trkpt>
      <trkpt lat="47.35954" lon="-1.914">
        <ele>66</ele>
        <time>2016-04-24T10:01:08Z</time>
      </trkpt>
      <trkpt lat="47.35949" lon="-1.914">
        <ele>66</ele>
        <time>2016-04-24T10:01:09Z</time>
      </trkpt>
      <trkpt lat="47.35946" lon="-1.91401">
        <ele>66</ele>
        <time>2016-04-24T10:01:10Z</time>
      </trkpt>
      <trkpt lat="47.35943" lon="-1.91405">
        <ele>66</ele>
        <time>2016-04-24T10:01:11Z</time>
      </trkpt>
      <trkpt lat="47.35941" lon="-1.9141">
        <ele>66</ele>
        <time>2016-04-24T10:01:12Z</time>
      </trkpt>
      <trkpt lat="47.35939" lon="-1.91417">
        <ele>66</ele>
        <time>2016-04-24T10:01:13Z</time>
      </trkpt>
      <trkpt lat="47.35939" lon="-1.91422">
        <ele>65</ele>
        <time>2016-04-24T10:01:14Z</time>
      </trkpt>
      <trkpt lat="47.35938" lon="-1.9143">
        <ele>65</ele>
        <time>2016-04-24T10:01:15Z</time>
      </trkpt>
      <trkpt lat="47.35938" lon="-1.91437">
        <ele>65</ele>
        <time>2016-04-24T10:01:16Z</time>
      </trkpt>
      <trkpt lat="47.35939" lon="-1.91443">
        <ele>65</ele>
        <time>2016-04-24T10:01:17Z</time>
      </trkpt>
      <trkpt lat="47.35939" lon="-1.91451">
        <ele>65</ele>
        <time>2016-04-24T10:01:18Z</time>
      </trkpt>
      <trkpt lat="47.35942" lon="-1.91456">
        <ele>65</ele>
        <time>2016-04-24T10:01:19Z</time>
      </trkpt>
      <trkpt lat="47.35943" lon="-1.91461">
        <ele>65</ele>
        <time>2016-04-24T10:01:20Z</time>
      </trkpt>
      <trkpt lat="47.35942" lon="-1.91468">
        <ele>65</ele>
        <time>2016-04-24T10:01:21Z</time>
      </trkpt>
      <trkpt lat="47.35945" lon="-1.91473">
        <ele>65</ele>
        <time>2016-04-24T10:01:22Z</time>
      </trkpt>
      <trkpt lat="47.35947" lon="-1.91478">
        <ele>65</ele>
        <time>2016-04-24T10:01:23Z</time>
      </trkpt>
      <trkpt lat="47.35947" lon="-1.91485">
        <ele>65</ele>
        <time>2016-04-24T10:01:24Z</time>
      </trkpt>
      <trkpt lat="47.35948" lon="-1.91493">
        <ele>65</ele>
        <time>2016-04-24T10:01:25Z</time>
      </trkpt>
      <trkpt lat="47.35946" lon="-1.91499">
        <ele>65</ele>
        <time>2016-04-24T10:01:26Z</time>
      </trkpt>
      <trkpt lat="47.35944" lon="-1.91507">
        <ele>64</ele>
        <time>2016-04-24T10:01:27Z</time>
      </trkpt>
      <trkpt lat="47.35943" lon="-1.91514">
        <ele>64</ele>
        <time>2016-04-24T10:01:28Z</time>
      </trkpt>
      <trkpt lat="47.35943" lon="-1.91522">
        <ele>64</ele>
        <time>2016-04-24T10:01:29Z</time>
      </trkpt>
      <trkpt lat="47.35942" lon="-1.91531">
        <ele>64</ele>
        <time>2016-04-24T10:01:30Z</time>
      </trkpt>
      <trkpt lat="47.35939" lon="-1.91539">
        <ele>64</ele>
        <time>2016-04-24T10:01:31Z</time>
      </trkpt>
      <trkpt lat="47.35939" lon="-1.91546">
        <ele>64</ele>
        <time>2016-04-24T10:01:32Z</time>
      </trkpt>
      <trkpt lat="47.35937" lon="-1.91555">
        <ele>64</ele>
        <time>2016-04-24T10:01:33Z</time>
      </trkpt>
      <trkpt lat="47.35938" lon="-1.91563">
        <ele>64</ele>
        <time>2016-04-24T10:01:34Z</time>
      </trkpt>
      <trkpt lat="47.35938" lon="-1.91573">
        <ele>64</ele>
        <time>2016-04-24T10:01:35Z</time>
      </trkpt>
      <trkpt lat="47.35938" lon="-1.9158">
        <ele>64</ele>
        <time>2016-04-24T10:01:36Z</time>
      </trkpt>
      <trkpt lat="47.35939" lon="-1.91589">
        <ele>63</ele>
        <time>2016-04-24T10:01:37Z</time>
      </trkpt>
      <trkpt lat="47.35939" lon="-1.91598">
        <ele>63</ele>
        <time>2016-04-24T10:01:38Z</time>
      </trkpt>
      <trkpt lat="47.35939" lon="-1.91608">
        <ele>63</ele>
        <time>2016-04-24T10:01:39Z</time>
      </trkpt>
      <trkpt lat="47.35941" lon="-1.9162">
        <ele>63</ele>
        <time>2016-04-24T10:01:40Z</time>
      </trkpt>
      <trkpt lat="47.3594" lon="-1.91626">
        <ele>63</ele>
        <time>2016-04-24T10:01:41Z</time>
      </trkpt>
      <trkpt lat="47.35939" lon="-1.91633">
        <ele>63</ele>
        <time>2016-04-24T10:01:42Z</time>
      </trkpt>
      <trkpt lat="47.35939" lon="-1.91641">
        <ele>63</ele>
        <time>2016-04-24T10:01:43Z</time>
      </trkpt>
      <trkpt lat="47.35939" lon="-1.91649">
        <ele>63</ele>
        <time>2016-04-24T10:01:44Z</time>
      </trkpt>
      <trkpt lat="47.35939" lon="-1.91655">
        <ele>63</ele>
        <time>2016-04-24T10:01:45Z</time>
      </trkpt>
      <trkpt lat="47.35938" lon="-1.91663">
        <ele>63</ele>
        <time>2016-04-24T10:01:46Z</time>
      </trkpt>
      <trkpt lat="47.35938" lon="-1.9167">
        <ele>62</ele>
        <time>2016-04-24T10:01:47Z</time>
      </trkpt>
      <trkpt lat="47.35937" lon="-1.91679">
        <ele>62</ele>
        <time>2016-04-24T10:01:48Z</time>
      </trkpt>
      <trkpt lat="47.35937" lon="-1.91689">
        <ele>62</ele>
        <time>2016-04-24T10:01:49Z</time>
      </trkpt>
      <trkpt lat="47.35937" lon="-1.91696">
        <ele>62</ele>
        <time>2016-04-24T10:01:50Z</time>
      </trkpt>
      <trkpt lat="47.35936" lon="-1.91705">
        <ele>62</ele>
        <time>2016-04-24T10:01:51Z</time>
      </trkpt>
      <trkpt lat="47.35936" lon="-1.91712">
        <ele>62</ele>
        <time>2016-04-24T10:01:52Z</time>
      </trkpt>
      <trkpt lat="47.35936" lon="-1.91722">
        <ele>61</ele>
        <time>2016-04-24T10:01:53Z</time>
      </trkpt>
      <trkpt lat="47.35936" lon="-1.91729">
        <ele>61</ele>
        <time>2016-04-24T10:01:54Z</time>
      </trkpt>
      <trkpt lat="47.35937" lon="-1.91737">
        <ele>61</ele>
        <time>2016-04-24T10:01:55Z</time>
      </trkpt>
      <trkpt lat="47.35937" lon="-1.91746">
        <ele>61</ele>
        <time>2016-04-24T10:01:56Z</time>
      </trkpt>
      <trkpt lat="47.35935" lon="-1.91754">
        <ele>60</ele>
        <time>2016-04-24T10:01:57Z</time>
      </trkpt>
      <trkpt lat="47.35936" lon="-1.91761">
        <ele>60</ele>
        <time>2016-04-24T10:01:58Z</time>
      </trkpt>
      <trkpt lat="47.35937" lon="-1.91769">
        <ele>60</ele>
        <time>2016-04-24T10:01:59Z</time>
      </trkpt>
      <trkpt lat="47.35938" lon="-1.91778">
        <ele>60</ele>
        <time>2016-04-24T10:02:00Z</time>
      </trkpt>
      <trkpt lat="47.3594" lon="-1.91788">
        <ele>60</ele>
        <time>2016-04-24T10:02:01Z</time>
      </trkpt>
      <trkpt lat="47.3594" lon="-1.91794">
        <ele>60</ele>
        <time>2016-04-24T10:02:02Z</time>
      </trkpt>
      <trkpt lat="47.35943" lon="-1.91798">
        <ele>60</ele>
        <time>2016-04-24T10:02:03Z</time>
      </trkpt>
      <trkpt lat="47.35946" lon="-1.91798">
        <ele>60</ele>
        <time>2016-04-24T10:02:04Z</time>
      </trkpt>
      <trkpt lat="47.3595" lon="-1.918">
        <ele>60</ele>
        <time>2016-04-24T10:02:05Z</time>
      </trkpt>
      <trkpt lat="47.35953" lon="-1.91799">
        <ele>60</ele>
        <time>2016-04-24T10:02:06Z</time>
      </trkpt>
      <trkpt lat="47.35956" lon="-1.91799">
        <ele>60</ele>
        <time>2016-04-24T10:02:07Z</time>
      </trkpt>
      <trkpt lat="47.35961" lon="-1.91801">
        <ele>60</ele>
        <time>2016-04-24T10:02:08Z</time>
      </trkpt>
      <trkpt lat="47.35963" lon="-1.91804">
        <ele>60</ele>
        <time>2016-04-24T10:02:09Z</time>
      </trkpt>
      <trkpt lat="47.35963" lon="-1.9181">
        <ele>60</ele>
        <time>2016-04-24T10:02:10Z</time>
      </trkpt>
      <trkpt lat="47.35965" lon="-1.91817">
        <ele>60</ele>
        <time>2016-04-24T10:02:11Z</time>
      </trkpt>
      <trkpt lat="47.35966" lon="-1.91822">
        <ele>60</ele>
        <time>2016-04-24T10:02:12Z</time>
      </trkpt>
      <trkpt lat="47.35967" lon="-1.91829">
        <ele>60</ele>
        <time>2016-04-24T10:02:13Z</time>
      </trkpt>
      <trkpt lat="47.35968" lon="-1.91836">
        <ele>59</ele>
        <time>2016-04-24T10:02:14Z</time>
      </trkpt>
      <trkpt lat="47.35969" lon="-1.91845">
        <ele>59</ele>
        <time>2016-04-24T10:02:15Z</time>
      </trkpt>
      <trkpt lat="47.3597" lon="-1.91852">
        <ele>59</ele>
        <time>2016-04-24T10:02:16Z</time>
      </trkpt>
      <trkpt lat="47.3597" lon="-1.91861">
        <ele>59</ele>
        <time>2016-04-24T10:02:17Z</time>
      </trkpt>
      <trkpt lat="47.3597" lon="-1.91869">
        <ele>58</ele>
        <time>2016-04-24T10:02:18Z</time>
      </trkpt>
      <trkpt lat="47.35972" lon="-1.91876">
        <ele>58</ele>
        <time>2016-04-24T10:02:19Z</time>
      </trkpt>
      <trkpt lat="47.35972" lon="-1.91885">
        <ele>58</ele>
        <time>2016-04-24T10:02:20Z</time>
      </trkpt>
      <trkpt lat="47.35971" lon="-1.91894">
        <ele>58</ele>
        <time>2016-04-24T10:02:21Z</time>
      </trkpt>
      <trkpt lat="47.35971" lon="-1.91904">
        <ele>58</ele>
        <time>2016-04-24T10:02:22Z</time>
      </trkpt>
      <trkpt lat="47.35972" lon="-1.91913">
        <ele>58</ele>
        <time>2016-04-24T10:02:23Z</time>
      </trkpt>
      <trkpt lat="47.3597" lon="-1.91922">
        <ele>57</ele>
        <time>2016-04-24T10:02:24Z</time>
      </trkpt>
      <trkpt lat="47.35972" lon="-1.9193">
        <ele>57</ele>
        <time>2016-04-24T10:02:25Z</time>
      </trkpt>
      <trkpt lat="47.3597" lon="-1.91937">
        <ele>57</ele>
        <time>2016-04-24T10:02:26Z</time>
      </trkpt>
      <trkpt lat="47.35972" lon="-1.91941">
        <ele>57</ele>
        <time>2016-04-24T10:02:27Z</time>
      </trkpt>
      <trkpt lat="47.35976" lon="-1.91944">
        <ele>57</ele>
        <time>2016-04-24T10:02:28Z</time>
      </trkpt>
      <trkpt lat="47.35979" lon="-1.91948">
        <ele>57</ele>
        <time>2016-04-24T10:02:30Z</time>
      </trkpt>
      <trkpt lat="47.35983" lon="-1.91949">
        <ele>57</ele>
        <time>2016-04-24T10:02:31Z</time>
      </trkpt>
      <trkpt lat="47.35988" lon="-1.9195">
        <ele>57</ele>
        <time>2016-04-24T10:02:32Z</time>
      </trkpt>
      <trkpt lat="47.35992" lon="-1.91952">
        <ele>57</ele>
        <time>2016-04-24T10:02:33Z</time>
      </trkpt>
      <trkpt lat="47.35996" lon="-1.91954">
        <ele>57</ele>
        <time>2016-04-24T10:02:34Z</time>
      </trkpt>
      <trkpt lat="47.36" lon="-1.91958">
        <ele>57</ele>
        <time>2016-04-24T10:02:35Z</time>
      </trkpt>
      <trkpt lat="47.36005" lon="-1.9196">
        <ele>55</ele>
        <time>2016-04-24T10:02:36Z</time>
      </trkpt>
      <trkpt lat="47.3601" lon="-1.91964">
        <ele>55</ele>
        <time>2016-04-24T10:02:37Z</time>
      </trkpt>
      <trkpt lat="47.36014" lon="-1.91967">
        <ele>55</ele>
        <time>2016-04-24T10:02:38Z</time>
      </trkpt>
      <trkpt lat="47.36016" lon="-1.91973">
        <ele>54</ele>
        <time>2016-04-24T10:02:40Z</time>
      </trkpt>
      <trkpt lat="47.36017" lon="-1.91976">
        <ele>54</ele>
        <time>2016-04-24T10:02:41Z</time>
      </trkpt>
      <trkpt lat="47.36018" lon="-1.91983">
        <ele>54</ele>
        <time>2016-04-24T10:02:42Z</time>
      </trkpt>
      <trkpt lat="47.36015" lon="-1.91989">
        <ele>55</ele>
        <time>2016-04-24T10:02:43Z</time>
      </trkpt>
      <trkpt lat="47.36016" lon="-1.91997">
        <ele>55</ele>
        <time>2016-04-24T10:02:44Z</time>
      </trkpt>
      <trkpt lat="47.36015" lon="-1.92003">
        <ele>53</ele>
        <time>2016-04-24T10:02:45Z</time>
      </trkpt>
      <trkpt lat="47.36012" lon="-1.92009">
        <ele>53</ele>
        <time>2016-04-24T10:02:46Z</time>
      </trkpt>
      <trkpt lat="47.3601" lon="-1.92015">
        <ele>53</ele>
        <time>2016-04-24T10:02:47Z</time>
      </trkpt>
      <trkpt lat="47.36007" lon="-1.92017">
        <ele>53</ele>
        <time>2016-04-24T10:02:48Z</time>
      </trkpt>
      <trkpt lat="47.36004" lon="-1.92022">
        <ele>53</ele>
        <time>2016-04-24T10:02:49Z</time>
      </trkpt>
      <trkpt lat="47.35999" lon="-1.92027">
        <ele>53</ele>
        <time>2016-04-24T10:02:51Z</time>
      </trkpt>
      <trkpt lat="47.35997" lon="-1.92033">
        <ele>53</ele>
        <time>2016-04-24T10:02:53Z</time>
      </trkpt>
      <trkpt lat="47.35998" lon="-1.92038">
        <ele>52</ele>
        <time>2016-04-24T10:02:55Z</time>
      </trkpt>
      <trkpt lat="47.35998" lon="-1.92044">
        <ele>52</ele>
        <time>2016-04-24T10:02:58Z</time>
      </trkpt>
      <trkpt lat="47.35997" lon="-1.92048">
        <ele>52</ele>
        <time>2016-04-24T10:03:01Z</time>
      </trkpt>
      <trkpt lat="47.35996" lon="-1.92052">
        <ele>51</ele>
        <time>2016-04-24T10:03:06Z</time>
      </trkpt>
      <trkpt lat="47.35995" lon="-1.92056">
        <ele>51</ele>
        <time>2016-04-24T10:03:11Z</time>
      </trkpt>
      <trkpt lat="47.35995" lon="-1.9206">
        <ele>51</ele>
        <time>2016-04-24T10:03:24Z</time>
      </trkpt>
      <trkpt lat="47.35998" lon="-1.92062">
        <ele>51</ele>
        <time>2016-04-24T10:03:30Z</time>
      </trkpt>
      <trkpt lat="47.36001" lon="-1.92062">
        <ele>50</ele>
        <time>2016-04-24T10:03:35Z</time>
      </trkpt>
      <trkpt lat="47.36013" lon="-1.92067">
        <ele>50</ele>
        <time>2016-04-24T10:04:13Z</time>
      </trkpt>
      <trkpt lat="47.36019" lon="-1.92071">
        <ele>50</ele>
        <time>2016-04-24T10:04:15Z</time>
      </trkpt>
      <trkpt lat="47.36023" lon="-1.92074">
        <ele>50</ele>
        <time>2016-04-24T10:04:16Z</time>
      </trkpt>
      <trkpt lat="47.36026" lon="-1.92076">
        <ele>50</ele>
        <time>2016-04-24T10:04:17Z</time>
      </trkpt>
      <trkpt lat="47.36029" lon="-1.92078">
        <ele>50</ele>
        <time>2016-04-24T10:04:18Z</time>
      </trkpt>
      <trkpt lat="47.36033" lon="-1.9208">
        <ele>50</ele>
        <time>2016-04-24T10:04:19Z</time>
      </trkpt>
      <trkpt lat="47.36036" lon="-1.92083">
        <ele>50</ele>
        <time>2016-04-24T10:04:20Z</time>
      </trkpt>
      <trkpt lat="47.36039" lon="-1.92085">
        <ele>50</ele>
        <time>2016-04-24T10:04:21Z</time>
      </trkpt>
      <trkpt lat="47.36043" lon="-1.92088">
        <ele>50</ele>
        <time>2016-04-24T10:04:22Z</time>
      </trkpt>
      <trkpt lat="47.36046" lon="-1.92092">
        <ele>50</ele>
        <time>2016-04-24T10:04:23Z</time>
      </trkpt>
      <trkpt lat="47.36049" lon="-1.92095">
        <ele>50</ele>
        <time>2016-04-24T10:04:24Z</time>
      </trkpt>
      <trkpt lat="47.3605" lon="-1.92099">
        <ele>50</ele>
        <time>2016-04-24T10:04:25Z</time>
      </trkpt>
      <trkpt lat="47.36051" lon="-1.92104">
        <ele>50</ele>
        <time>2016-04-24T10:04:27Z</time>
      </trkpt>
      <trkpt lat="47.36051" lon="-1.9211">
        <ele>50</ele>
        <time>2016-04-24T10:04:29Z</time>
      </trkpt>
      <trkpt lat="47.3605" lon="-1.92116">
        <ele>50</ele>
        <time>2016-04-24T10:04:31Z</time>
      </trkpt>
      <trkpt lat="47.3605" lon="-1.92122">
        <ele>50</ele>
        <time>2016-04-24T10:04:33Z</time>
      </trkpt>
      <trkpt lat="47.3605" lon="-1.92128">
        <ele>50</ele>
        <time>2016-04-24T10:04:35Z</time>
      </trkpt>
      <trkpt lat="47.36046" lon="-1.92134">
        <ele>50</ele>
        <time>2016-04-24T10:04:37Z</time>
      </trkpt>
      <trkpt lat="47.36044" lon="-1.92137">
        <ele>50</ele>
        <time>2016-04-24T10:04:38Z</time>
      </trkpt>
      <trkpt lat="47.36043" lon="-1.92141">
        <ele>50</ele>
        <time>2016-04-24T10:04:39Z</time>
      </trkpt>
      <trkpt lat="47.36041" lon="-1.92145">
        <ele>50</ele>
        <time>2016-04-24T10:04:40Z</time>
      </trkpt>
      <trkpt lat="47.36039" lon="-1.9215">
        <ele>50</ele>
        <time>2016-04-24T10:04:41Z</time>
      </trkpt>
      <trkpt lat="47.36038" lon="-1.92154">
        <ele>50</ele>
        <time>2016-04-24T10:04:42Z</time>
      </trkpt>
      <trkpt lat="47.36036" lon="-1.92159">
        <ele>50</ele>
        <time>2016-04-24T10:04:43Z</time>
      </trkpt>
      <trkpt lat="47.36035" lon="-1.92164">
        <ele>50</ele>
        <time>2016-04-24T10:04:44Z</time>
      </trkpt>
      <trkpt lat="47.36033" lon="-1.92169">
        <ele>51</ele>
        <time>2016-04-24T10:04:45Z</time>
      </trkpt>
      <trkpt lat="47.36032" lon="-1.92173">
        <ele>51</ele>
        <time>2016-04-24T10:04:46Z</time>
      </trkpt>
      <trkpt lat="47.36031" lon="-1.92177">
        <ele>51</ele>
        <time>2016-04-24T10:04:47Z</time>
      </trkpt>
      <trkpt lat="47.36029" lon="-1.92181">
        <ele>51</ele>
        <time>2016-04-24T10:04:48Z</time>
      </trkpt>
      <trkpt lat="47.36028" lon="-1.92186">
        <ele>51</ele>
        <time>2016-04-24T10:04:49Z</time>
      </trkpt>
      <trkpt lat="47.36026" lon="-1.9219">
        <ele>52</ele>
        <time>2016-04-24T10:04:50Z</time>
      </trkpt>
      <trkpt lat="47.36024" lon="-1.92194">
        <ele>52</ele>
        <time>2016-04-24T10:04:51Z</time>
      </trkpt>
      <trkpt lat="47.36023" lon="-1.92198">
        <ele>52</ele>
        <time>2016-04-24T10:04:52Z</time>
      </trkpt>
      <trkpt lat="47.36021" lon="-1.92205">
        <ele>52</ele>
        <time>2016-04-24T10:04:54Z</time>
      </trkpt>
      <trkpt lat="47.36022" lon="-1.92212">
        <ele>52</ele>
        <time>2016-04-24T10:04:56Z</time>
      </trkpt>
      <trkpt lat="47.36022" lon="-1.92219">
        <ele>52</ele>
        <time>2016-04-24T10:04:58Z</time>
      </trkpt>
      <trkpt lat="47.36021" lon="-1.92226">
        <ele>52</ele>
        <time>2016-04-24T10:05:00Z</time>
      </trkpt>
      <trkpt lat="47.36018" lon="-1.92232">
        <ele>52</ele>
        <time>2016-04-24T10:05:02Z</time>
      </trkpt>
      <trkpt lat="47.36016" lon="-1.92238">
        <ele>52</ele>
        <time>2016-04-24T10:05:04Z</time>
      </trkpt>
      <trkpt lat="47.36013" lon="-1.92243">
        <ele>52</ele>
        <time>2016-04-24T10:05:06Z</time>
      </trkpt>
      <trkpt lat="47.3601" lon="-1.92248">
        <ele>52</ele>
        <time>2016-04-24T10:05:08Z</time>
      </trkpt>
      <trkpt lat="47.36006" lon="-1.92253">
        <ele>53</ele>
        <time>2016-04-24T10:05:10Z</time>
      </trkpt>
      <trkpt lat="47.36004" lon="-1.92258">
        <ele>53</ele>
        <time>2016-04-24T10:05:12Z</time>
      </trkpt>
      <trkpt lat="47.36001" lon="-1.92263">
        <ele>53</ele>
        <time>2016-04-24T10:05:14Z</time>
      </trkpt>
      <trkpt lat="47.35998" lon="-1.92269">
        <ele>54</ele>
        <time>2016-04-24T10:05:16Z</time>
      </trkpt>
      <trkpt lat="47.35995" lon="-1.92274">
        <ele>54</ele>
        <time>2016-04-24T10:05:18Z</time>
      </trkpt>
      <trkpt lat="47.35991" lon="-1.92279">
        <ele>54</ele>
        <time>2016-04-24T10:05:20Z</time>
      </trkpt>
      <trkpt lat="47.35987" lon="-1.92284">
        <ele>55</ele>
        <time>2016-04-24T10:05:22Z</time>
      </trkpt>
      <trkpt lat="47.35983" lon="-1.92288">
        <ele>55</ele>
        <time>2016-04-24T10:05:24Z</time>
      </trkpt>
      <trkpt lat="47.35981" lon="-1.9229">
        <ele>55</ele>
        <time>2016-04-24T10:05:25Z</time>
      </trkpt>
      <trkpt lat="47.35977" lon="-1.92294">
        <ele>55</ele>
        <time>2016-04-24T10:05:27Z</time>
      </trkpt>
      <trkpt lat="47.35974" lon="-1.92298">
        <ele>55</ele>
        <time>2016-04-24T10:05:29Z</time>
      </trkpt>
      <trkpt lat="47.3597" lon="-1.92303">
        <ele>55</ele>
        <time>2016-04-24T10:05:31Z</time>
      </trkpt>
      <trkpt lat="47.35969" lon="-1.92308">
        <ele>55</ele>
        <time>2016-04-24T10:05:33Z</time>
      </trkpt>
      <trkpt lat="47.35968" lon="-1.92314">
        <ele>55</ele>
        <time>2016-04-24T10:05:36Z</time>
      </trkpt>
      <trkpt lat="47.35969" lon="-1.92319">
        <ele>55</ele>
        <time>2016-04-24T10:05:38Z</time>
      </trkpt>
      <trkpt lat="47.35971" lon="-1.92323">
        <ele>55</ele>
        <time>2016-04-24T10:05:40Z</time>
      </trkpt>
      <trkpt lat="47.35973" lon="-1.92328">
        <ele>55</ele>
        <time>2016-04-24T10:05:42Z</time>
      </trkpt>
      <trkpt lat="47.35976" lon="-1.92332">
        <ele>55</ele>
        <time>2016-04-24T10:05:44Z</time>
      </trkpt>
      <trkpt lat="47.35978" lon="-1.92338">
        <ele>56</ele>
        <time>2016-04-24T10:05:46Z</time>
      </trkpt>
      <trkpt lat="47.35979" lon="-1.92343">
        <ele>56</ele>
        <time>2016-04-24T10:05:48Z</time>
      </trkpt>
      <trkpt lat="47.3598" lon="-1.92348">
        <ele>56</ele>
        <time>2016-04-24T10:05:50Z</time>
      </trkpt>
      <trkpt lat="47.3598" lon="-1.92353">
        <ele>56</ele>
        <time>2016-04-24T10:05:52Z</time>
      </trkpt>
      <trkpt lat="47.35979" lon="-1.92358">
        <ele>56</ele>
        <time>2016-04-24T10:05:54Z</time>
      </trkpt>
      <trkpt lat="47.35978" lon="-1.92364">
        <ele>56</ele>
        <time>2016-04-24T10:05:56Z</time>
      </trkpt>
      <trkpt lat="47.35978" lon="-1.9237">
        <ele>57</ele>
        <time>2016-04-24T10:05:58Z</time>
      </trkpt>
      <trkpt lat="47.35979" lon="-1.92376">
        <ele>57</ele>
        <time>2016-04-24T10:06:00Z</time>
      </trkpt>
      <trkpt lat="47.3598" lon="-1.92383">
        <ele>57</ele>
        <time>2016-04-24T10:06:02Z</time>
      </trkpt>
      <trkpt lat="47.3598" lon="-1.9239">
        <ele>57</ele>
        <time>2016-04-24T10:06:04Z</time>
      </trkpt>
      <trkpt lat="47.35979" lon="-1.92397">
        <ele>57</ele>
        <time>2016-04-24T10:06:06Z</time>
      </trkpt>
      <trkpt lat="47.35978" lon="-1.92404">
        <ele>57</ele>
        <time>2016-04-24T10:06:08Z</time>
      </trkpt>
      <trkpt lat="47.35978" lon="-1.92411">
        <ele>57</ele>
        <time>2016-04-24T10:06:10Z</time>
      </trkpt>
      <trkpt lat="47.35978" lon="-1.92415">
        <ele>57</ele>
        <time>2016-04-24T10:06:11Z</time>
      </trkpt>
      <trkpt lat="47.3598" lon="-1.9242">
        <ele>58</ele>
        <time>2016-04-24T10:06:12Z</time>
      </trkpt>
      <trkpt lat="47.35982" lon="-1.92423">
        <ele>58</ele>
        <time>2016-04-24T10:06:13Z</time>
      </trkpt>
      <trkpt lat="47.35985" lon="-1.92424">
        <ele>58</ele>
        <time>2016-04-24T10:06:14Z</time>
      </trkpt>
      <trkpt lat="47.35988" lon="-1.92424">
        <ele>58</ele>
        <time>2016-04-24T10:06:15Z</time>
      </trkpt>
      <trkpt lat="47.35993" lon="-1.92424">
        <ele>58</ele>
        <time>2016-04-24T10:06:17Z</time>
      </trkpt>
      <trkpt lat="47.35998" lon="-1.92424">
        <ele>59</ele>
        <time>2016-04-24T10:06:19Z</time>
      </trkpt>
      <trkpt lat="47.36003" lon="-1.92424">
        <ele>60</ele>
        <time>2016-04-24T10:06:21Z</time>
      </trkpt>
      <trkpt lat="47.36009" lon="-1.92425">
        <ele>60</ele>
        <time>2016-04-24T10:06:23Z</time>
      </trkpt>
      <trkpt lat="47.36012" lon="-1.92426">
        <ele>60</ele>
        <time>2016-04-24T10:06:24Z</time>
      </trkpt>
      <trkpt lat="47.36015" lon="-1.92426">
        <ele>60</ele>
        <time>2016-04-24T10:06:25Z</time>
      </trkpt>
      <trkpt lat="47.36018" lon="-1.92426">
        <ele>60</ele>
        <time>2016-04-24T10:06:26Z</time>
      </trkpt>
      <trkpt lat="47.36021" lon="-1.92426">
        <ele>60</ele>
        <time>2016-04-24T10:06:27Z</time>
      </trkpt>
      <trkpt lat="47.36024" lon="-1.92426">
        <ele>60</ele>
        <time>2016-04-24T10:06:28Z</time>
      </trkpt>
      <trkpt lat="47.36027" lon="-1.92426">
        <ele>60</ele>
        <time>2016-04-24T10:06:29Z</time>
      </trkpt>
      <trkpt lat="47.3603" lon="-1.92426">
        <ele>61</ele>
        <time>2016-04-24T10:06:30Z</time>
      </trkpt>
      <trkpt lat="47.36033" lon="-1.92427">
        <ele>61</ele>
        <time>2016-04-24T10:06:31Z</time>
      </trkpt>
      <trkpt lat="47.36036" lon="-1.92427">
        <ele>61</ele>
        <time>2016-04-24T10:06:32Z</time>
      </trkpt>
      <trkpt lat="47.36039" lon="-1.92428">
        <ele>61</ele>
        <time>2016-04-24T10:06:33Z</time>
      </trkpt>
      <trkpt lat="47.36042" lon="-1.92429">
        <ele>61</ele>
        <time>2016-04-24T10:06:34Z</time>
      </trkpt>
      <trkpt lat="47.36045" lon="-1.9243">
        <ele>61</ele>
        <time>2016-04-24T10:06:35Z</time>
      </trkpt>
      <trkpt lat="47.36048" lon="-1.9243">
        <ele>61</ele>
        <time>2016-04-24T10:06:36Z</time>
      </trkpt>
      <trkpt lat="47.36052" lon="-1.92431">
        <ele>61</ele>
        <time>2016-04-24T10:06:37Z</time>
      </trkpt>
      <trkpt lat="47.36055" lon="-1.92431">
        <ele>61</ele>
        <time>2016-04-24T10:06:38Z</time>
      </trkpt>
      <trkpt lat="47.36058" lon="-1.92431">
        <ele>61</ele>
        <time>2016-04-24T10:06:39Z</time>
      </trkpt>
      <trkpt lat="47.36061" lon="-1.92431">
        <ele>61</ele>
        <time>2016-04-24T10:06:40Z</time>
      </trkpt>
      <trkpt lat="47.36064" lon="-1.92431">
        <ele>61</ele>
        <time>2016-04-24T10:06:41Z</time>
      </trkpt>
      <trkpt lat="47.36067" lon="-1.92431">
        <ele>61</ele>
        <time>2016-04-24T10:06:42Z</time>
      </trkpt>
      <trkpt lat="47.3607" lon="-1.92431">
        <ele>61</ele>
        <time>2016-04-24T10:06:43Z</time>
      </trkpt>
      <trkpt lat="47.36073" lon="-1.92431">
        <ele>62</ele>
        <time>2016-04-24T10:06:44Z</time>
      </trkpt>
      <trkpt lat="47.36077" lon="-1.92431">
        <ele>62</ele>
        <time>2016-04-24T10:06:45Z</time>
      </trkpt>
      <trkpt lat="47.3608" lon="-1.92431">
        <ele>62</ele>
        <time>2016-04-24T10:06:46Z</time>
      </trkpt>
      <trkpt lat="47.36083" lon="-1.92431">
        <ele>62</ele>
        <time>2016-04-24T10:06:47Z</time>
      </trkpt>
      <trkpt lat="47.36086" lon="-1.92431">
        <ele>63</ele>
        <time>2016-04-24T10:06:48Z</time>
      </trkpt>
      <trkpt lat="47.36089" lon="-1.92431">
        <ele>63</ele>
        <time>2016-04-24T10:06:49Z</time>
      </trkpt>
      <trkpt lat="47.36092" lon="-1.92431">
        <ele>63</ele>
        <time>2016-04-24T10:06:50Z</time>
      </trkpt>
      <trkpt lat="47.36095" lon="-1.92431">
        <ele>63</ele>
        <time>2016-04-24T10:06:51Z</time>
      </trkpt>
      <trkpt lat="47.36098" lon="-1.92432">
        <ele>63</ele>
        <time>2016-04-24T10:06:52Z</time>
      </trkpt>
      <trkpt lat="47.36101" lon="-1.92432">
        <ele>63</ele>
        <time>2016-04-24T10:06:53Z</time>
      </trkpt>
      <trkpt lat="47.36104" lon="-1.92433">
        <ele>63</ele>
        <time>2016-04-24T10:06:54Z</time>
      </trkpt>
      <trkpt lat="47.36107" lon="-1.92433">
        <ele>63</ele>
        <time>2016-04-24T10:06:55Z</time>
      </trkpt>
      <trkpt lat="47.36111" lon="-1.92434">
        <ele>63</ele>
        <time>2016-04-24T10:06:56Z</time>
      </trkpt>
      <trkpt lat="47.36114" lon="-1.92434">
        <ele>63</ele>
        <time>2016-04-24T10:06:57Z</time>
      </trkpt>
      <trkpt lat="47.36118" lon="-1.92435">
        <ele>64</ele>
        <time>2016-04-24T10:06:58Z</time>
      </trkpt>
      <trkpt lat="47.36121" lon="-1.92435">
        <ele>64</ele>
        <time>2016-04-24T10:06:59Z</time>
      </trkpt>
      <trkpt lat="47.36124" lon="-1.92435">
        <ele>64</ele>
        <time>2016-04-24T10:07:00Z</time>
      </trkpt>
      <trkpt lat="47.36127" lon="-1.92435">
        <ele>64</ele>
        <time>2016-04-24T10:07:01Z</time>
      </trkpt>
      <trkpt lat="47.36131" lon="-1.92436">
        <ele>64</ele>
        <time>2016-04-24T10:07:02Z</time>
      </trkpt>
      <trkpt lat="47.36134" lon="-1.92436">
        <ele>64</ele>
        <time>2016-04-24T10:07:03Z</time>
      </trkpt>
      <trkpt lat="47.36137" lon="-1.92437">
        <ele>64</ele>
        <time>2016-04-24T10:07:04Z</time>
      </trkpt>
      <trkpt lat="47.3614" lon="-1.92438">
        <ele>64</ele>
        <time>2016-04-24T10:07:05Z</time>
      </trkpt>
      <trkpt lat="47.36143" lon="-1.92438">
        <ele>64</ele>
        <time>2016-04-24T10:07:06Z</time>
      </trkpt>
      <trkpt lat="47.36147" lon="-1.92438">
        <ele>64</ele>
        <time>2016-04-24T10:07:07Z</time>
      </trkpt>
      <trkpt lat="47.3615" lon="-1.92439">
        <ele>64</ele>
        <time>2016-04-24T10:07:08Z</time>
      </trkpt>
      <trkpt lat="47.36153" lon="-1.92439">
        <ele>64</ele>
        <time>2016-04-24T10:07:09Z</time>
      </trkpt>
      <trkpt lat="47.36156" lon="-1.92438">
        <ele>64</ele>
        <time>2016-04-24T10:07:10Z</time>
      </trkpt>
      <trkpt lat="47.3616" lon="-1.92437">
        <ele>64</ele>
        <time>2016-04-24T10:07:11Z</time>
      </trkpt>
      <trkpt lat="47.36163" lon="-1.92437">
        <ele>64</ele>
        <time>2016-04-24T10:07:12Z</time>
      </trkpt>
      <trkpt lat="47.36166" lon="-1.92436">
        <ele>64</ele>
        <time>2016-04-24T10:07:13Z</time>
      </trkpt>
      <trkpt lat="47.36169" lon="-1.92436">
        <ele>65</ele>
        <time>2016-04-24T10:07:14Z</time>
      </trkpt>
      <trkpt lat="47.36172" lon="-1.92437">
        <ele>65</ele>
        <time>2016-04-24T10:07:15Z</time>
      </trkpt>
      <trkpt lat="47.36176" lon="-1.92438">
        <ele>65</ele>
        <time>2016-04-24T10:07:16Z</time>
      </trkpt>
      <trkpt lat="47.36178" lon="-1.92441">
        <ele>65</ele>
        <time>2016-04-24T10:07:17Z</time>
      </trkpt>
      <trkpt lat="47.36181" lon="-1.92445">
        <ele>65</ele>
        <time>2016-04-24T10:07:18Z</time>
      </trkpt>
      <trkpt lat="47.36183" lon="-1.92449">
        <ele>65</ele>
        <time>2016-04-24T10:07:19Z</time>
      </trkpt>
      <trkpt lat="47.36184" lon="-1.92454">
        <ele>65</ele>
        <time>2016-04-24T10:07:20Z</time>
      </trkpt>
      <trkpt lat="47.36185" lon="-1.92458">
        <ele>65</ele>
        <time>2016-04-24T10:07:21Z</time>
      </trkpt>
      <trkpt lat="47.36186" lon="-1.92463">
        <ele>65</ele>
        <time>2016-04-24T10:07:22Z</time>
      </trkpt>
      <trkpt lat="47.36187" lon="-1.9247">
        <ele>65</ele>
        <time>2016-04-24T10:07:24Z</time>
      </trkpt>
      <trkpt lat="47.36187" lon="-1.92474">
        <ele>65</ele>
        <time>2016-04-24T10:07:25Z</time>
      </trkpt>
      <trkpt lat="47.36187" lon="-1.92478">
        <ele>65</ele>
        <time>2016-04-24T10:07:26Z</time>
      </trkpt>
      <trkpt lat="47.36188" lon="-1.92483">
        <ele>65</ele>
        <time>2016-04-24T10:07:27Z</time>
      </trkpt>
      <trkpt lat="47.36188" lon="-1.92487">
        <ele>65</ele>
        <time>2016-04-24T10:07:28Z</time>
      </trkpt>
      <trkpt lat="47.36188" lon="-1.92492">
        <ele>65</ele>
        <time>2016-04-24T10:07:29Z</time>
      </trkpt>
      <trkpt lat="47.36188" lon="-1.92496">
        <ele>65</ele>
        <time>2016-04-24T10:07:30Z</time>
      </trkpt>
      <trkpt lat="47.36187" lon="-1.92502">
        <ele>66</ele>
        <time>2016-04-24T10:07:31Z</time>
      </trkpt>
      <trkpt lat="47.36187" lon="-1.92508">
        <ele>66</ele>
        <time>2016-04-24T10:07:32Z</time>
      </trkpt>
      <trkpt lat="47.36186" lon="-1.92514">
        <ele>66</ele>
        <time>2016-04-24T10:07:33Z</time>
      </trkpt>
      <trkpt lat="47.36186" lon="-1.9252">
        <ele>66</ele>
        <time>2016-04-24T10:07:34Z</time>
      </trkpt>
      <trkpt lat="47.36185" lon="-1.92528">
        <ele>66</ele>
        <time>2016-04-24T10:07:35Z</time>
      </trkpt>
      <trkpt lat="47.36184" lon="-1.92536">
        <ele>66</ele>
        <time>2016-04-24T10:07:36Z</time>
      </trkpt>
      <trkpt lat="47.36184" lon="-1.92544">
        <ele>66</ele>
        <time>2016-04-24T10:07:37Z</time>
      </trkpt>
      <trkpt lat="47.36183" lon="-1.92557">
        <ele>66</ele>
        <time>2016-04-24T10:07:38Z</time>
      </trkpt>
      <trkpt lat="47.36182" lon="-1.92564">
        <ele>66</ele>
        <time>2016-04-24T10:07:39Z</time>
      </trkpt>
      <trkpt lat="47.36182" lon="-1.92572">
        <ele>66</ele>
        <time>2016-04-24T10:07:40Z</time>
      </trkpt>
      <trkpt lat="47.36182" lon="-1.9258">
        <ele>66</ele>
        <time>2016-04-24T10:07:41Z</time>
      </trkpt>
      <trkpt lat="47.36181" lon="-1.92588">
        <ele>65</ele>
        <time>2016-04-24T10:07:42Z</time>
      </trkpt>
      <trkpt lat="47.36181" lon="-1.92594">
        <ele>65</ele>
        <time>2016-04-24T10:07:43Z</time>
      </trkpt>
      <trkpt lat="47.3618" lon="-1.92604">
        <ele>65</ele>
        <time>2016-04-24T10:07:44Z</time>
      </trkpt>
      <trkpt lat="47.36179" lon="-1.92611">
        <ele>65</ele>
        <time>2016-04-24T10:07:45Z</time>
      </trkpt>
      <trkpt lat="47.36179" lon="-1.92618">
        <ele>65</ele>
        <time>2016-04-24T10:07:46Z</time>
      </trkpt>
      <trkpt lat="47.3618" lon="-1.92625">
        <ele>65</ele>
        <time>2016-04-24T10:07:47Z</time>
      </trkpt>
      <trkpt lat="47.36179" lon="-1.92633">
        <ele>64</ele>
        <time>2016-04-24T10:07:48Z</time>
      </trkpt>
      <trkpt lat="47.36178" lon="-1.92642">
        <ele>64</ele>
        <time>2016-04-24T10:07:49Z</time>
      </trkpt>
      <trkpt lat="47.36177" lon="-1.9265">
        <ele>64</ele>
        <time>2016-04-24T10:07:50Z</time>
      </trkpt>
      <trkpt lat="47.36178" lon="-1.92657">
        <ele>63</ele>
        <time>2016-04-24T10:07:51Z</time>
      </trkpt>
      <trkpt lat="47.36177" lon="-1.92666">
        <ele>63</ele>
        <time>2016-04-24T10:07:52Z</time>
      </trkpt>
      <trkpt lat="47.36176" lon="-1.92674">
        <ele>62</ele>
        <time>2016-04-24T10:07:53Z</time>
      </trkpt>
      <trkpt lat="47.36177" lon="-1.92681">
        <ele>62</ele>
        <time>2016-04-24T10:07:54Z</time>
      </trkpt>
      <trkpt lat="47.36177" lon="-1.92699">
        <ele>62</ele>
        <time>2016-04-24T10:07:56Z</time>
      </trkpt>
      <trkpt lat="47.36176" lon="-1.92712">
        <ele>62</ele>
        <time>2016-04-24T10:07:57Z</time>
      </trkpt>
      <trkpt lat="47.36174" lon="-1.92721">
        <ele>62</ele>
        <time>2016-04-24T10:07:58Z</time>
      </trkpt>
      <trkpt lat="47.36174" lon="-1.92728">
        <ele>61</ele>
        <time>2016-04-24T10:07:59Z</time>
      </trkpt>
      <trkpt lat="47.36173" lon="-1.92735">
        <ele>61</ele>
        <time>2016-04-24T10:08:00Z</time>
      </trkpt>
      <trkpt lat="47.36172" lon="-1.92741">
        <ele>61</ele>
        <time>2016-04-24T10:08:01Z</time>
      </trkpt>
      <trkpt lat="47.36173" lon="-1.92751">
        <ele>60</ele>
        <time>2016-04-24T10:08:02Z</time>
      </trkpt>
      <trkpt lat="47.36173" lon="-1.92761">
        <ele>61</ele>
        <time>2016-04-24T10:08:03Z</time>
      </trkpt>
      <trkpt lat="47.36173" lon="-1.92772">
        <ele>61</ele>
        <time>2016-04-24T10:08:04Z</time>
      </trkpt>
      <trkpt lat="47.36173" lon="-1.92781">
        <ele>61</ele>
        <time>2016-04-24T10:08:05Z</time>
      </trkpt>
      <trkpt lat="47.36174" lon="-1.9279">
        <ele>61</ele>
        <time>2016-04-24T10:08:06Z</time>
      </trkpt>
      <trkpt lat="47.36176" lon="-1.92799">
        <ele>61</ele>
        <time>2016-04-24T10:08:07Z</time>
      </trkpt>
      <trkpt lat="47.36176" lon="-1.92806">
        <ele>61</ele>
        <time>2016-04-24T10:08:08Z</time>
      </trkpt>
      <trkpt lat="47.36176" lon="-1.92814">
        <ele>60</ele>
        <time>2016-04-24T10:08:09Z</time>
      </trkpt>
      <trkpt lat="47.36176" lon="-1.92822">
        <ele>60</ele>
        <time>2016-04-24T10:08:10Z</time>
      </trkpt>
      <trkpt lat="47.36176" lon="-1.9283">
        <ele>60</ele>
        <time>2016-04-24T10:08:11Z</time>
      </trkpt>
      <trkpt lat="47.36177" lon="-1.9284">
        <ele>60</ele>
        <time>2016-04-24T10:08:12Z</time>
      </trkpt>
      <trkpt lat="47.36178" lon="-1.92846">
        <ele>60</ele>
        <time>2016-04-24T10:08:13Z</time>
      </trkpt>
      <trkpt lat="47.36178" lon="-1.92855">
        <ele>60</ele>
        <time>2016-04-24T10:08:14Z</time>
      </trkpt>
      <trkpt lat="47.3618" lon="-1.92864">
        <ele>60</ele>
        <time>2016-04-24T10:08:15Z</time>
      </trkpt>
      <trkpt lat="47.36182" lon="-1.92874">
        <ele>60</ele>
        <time>2016-04-24T10:08:16Z</time>
      </trkpt>
      <trkpt lat="47.36182" lon="-1.92883">
        <ele>60</ele>
        <time>2016-04-24T10:08:17Z</time>
      </trkpt>
      <trkpt lat="47.36181" lon="-1.92892">
        <ele>60</ele>
        <time>2016-04-24T10:08:18Z</time>
      </trkpt>
      <trkpt lat="47.3618" lon="-1.92908">
        <ele>60</ele>
        <time>2016-04-24T10:08:20Z</time>
      </trkpt>
      <trkpt lat="47.3618" lon="-1.92918">
        <ele>59</ele>
        <time>2016-04-24T10:08:21Z</time>
      </trkpt>
      <trkpt lat="47.3618" lon="-1.92924">
        <ele>59</ele>
        <time>2016-04-24T10:08:22Z</time>
      </trkpt>
      <trkpt lat="47.3618" lon="-1.92933">
        <ele>59</ele>
        <time>2016-04-24T10:08:23Z</time>
      </trkpt>
      <trkpt lat="47.36179" lon="-1.92941">
        <ele>59</ele>
        <time>2016-04-24T10:08:24Z</time>
      </trkpt>
      <trkpt lat="47.3618" lon="-1.92947">
        <ele>59</ele>
        <time>2016-04-24T10:08:25Z</time>
      </trkpt>
      <trkpt lat="47.36181" lon="-1.92955">
        <ele>59</ele>
        <time>2016-04-24T10:08:26Z</time>
      </trkpt>
      <trkpt lat="47.36181" lon="-1.92961">
        <ele>59</ele>
        <time>2016-04-24T10:08:27Z</time>
      </trkpt>
      <trkpt lat="47.36181" lon="-1.92969">
        <ele>59</ele>
        <time>2016-04-24T10:08:28Z</time>
      </trkpt>
      <trkpt lat="47.36182" lon="-1.92978">
        <ele>59</ele>
        <time>2016-04-24T10:08:29Z</time>
      </trkpt>
      <trkpt lat="47.36184" lon="-1.92986">
        <ele>59</ele>
        <time>2016-04-24T10:08:30Z</time>
      </trkpt>
      <trkpt lat="47.36186" lon="-1.92997">
        <ele>59</ele>
        <time>2016-04-24T10:08:31Z</time>
      </trkpt>
      <trkpt lat="47.36187" lon="-1.93006">
        <ele>58</ele>
        <time>2016-04-24T10:08:32Z</time>
      </trkpt>
      <trkpt lat="47.36188" lon="-1.93015">
        <ele>58</ele>
        <time>2016-04-24T10:08:33Z</time>
      </trkpt>
      <trkpt lat="47.36189" lon="-1.93024">
        <ele>58</ele>
        <time>2016-04-24T10:08:34Z</time>
      </trkpt>
      <trkpt lat="47.3619" lon="-1.93029">
        <ele>58</ele>
        <time>2016-04-24T10:08:35Z</time>
      </trkpt>
      <trkpt lat="47.3619" lon="-1.93033">
        <ele>58</ele>
        <time>2016-04-24T10:08:36Z</time>
      </trkpt>
      <trkpt lat="47.3619" lon="-1.93042">
        <ele>58</ele>
        <time>2016-04-24T10:08:37Z</time>
      </trkpt>
      <trkpt lat="47.36191" lon="-1.93048">
        <ele>58</ele>
        <time>2016-04-24T10:08:38Z</time>
      </trkpt>
      <trkpt lat="47.36191" lon="-1.93058">
        <ele>58</ele>
        <time>2016-04-24T10:08:39Z</time>
      </trkpt>
      <trkpt lat="47.36191" lon="-1.93064">
        <ele>58</ele>
        <time>2016-04-24T10:08:40Z</time>
      </trkpt>
      <trkpt lat="47.36193" lon="-1.93074">
        <ele>57</ele>
        <time>2016-04-24T10:08:41Z</time>
      </trkpt>
      <trkpt lat="47.36201" lon="-1.931">
        <ele>56</ele>
        <time>2016-04-24T10:08:44Z</time>
      </trkpt>
      <trkpt lat="47.36202" lon="-1.93111">
        <ele>56</ele>
        <time>2016-04-24T10:08:45Z</time>
      </trkpt>
      <trkpt lat="47.36203" lon="-1.93121">
        <ele>56</ele>
        <time>2016-04-24T10:08:46Z</time>
      </trkpt>
      <trkpt lat="47.36207" lon="-1.93136">
        <ele>56</ele>
        <time>2016-04-24T10:08:47Z</time>
      </trkpt>
      <trkpt lat="47.36208" lon="-1.93148">
        <ele>56</ele>
        <time>2016-04-24T10:08:48Z</time>
      </trkpt>
      <trkpt lat="47.36207" lon="-1.93165">
        <ele>56</ele>
        <time>2016-04-24T10:08:49Z</time>
      </trkpt>
      <trkpt lat="47.36204" lon="-1.93179">
        <ele>55</ele>
        <time>2016-04-24T10:08:50Z</time>
      </trkpt>
      <trkpt lat="47.36204" lon="-1.93193">
        <ele>55</ele>
        <time>2016-04-24T10:08:51Z</time>
      </trkpt>
      <trkpt lat="47.36202" lon="-1.93206">
        <ele>55</ele>
        <time>2016-04-24T10:08:52Z</time>
      </trkpt>
      <trkpt lat="47.362" lon="-1.93219">
        <ele>55</ele>
        <time>2016-04-24T10:08:53Z</time>
      </trkpt>
      <trkpt lat="47.36197" lon="-1.93233">
        <ele>55</ele>
        <time>2016-04-24T10:08:54Z</time>
      </trkpt>
      <trkpt lat="47.36193" lon="-1.93244">
        <ele>55</ele>
        <time>2016-04-24T10:08:55Z</time>
      </trkpt>
      <trkpt lat="47.3619" lon="-1.93253">
        <ele>55</ele>
        <time>2016-04-24T10:08:56Z</time>
      </trkpt>
      <trkpt lat="47.36188" lon="-1.93263">
        <ele>55</ele>
        <time>2016-04-24T10:08:57Z</time>
      </trkpt>
      <trkpt lat="47.36187" lon="-1.93269">
        <ele>55</ele>
        <time>2016-04-24T10:08:58Z</time>
      </trkpt>
      <trkpt lat="47.36191" lon="-1.93283">
        <ele>56</ele>
        <time>2016-04-24T10:08:59Z</time>
      </trkpt>
      <trkpt lat="47.36191" lon="-1.93291">
        <ele>56</ele>
        <time>2016-04-24T10:09:00Z</time>
      </trkpt>
      <trkpt lat="47.36192" lon="-1.93296">
        <ele>56</ele>
        <time>2016-04-24T10:09:01Z</time>
      </trkpt>
      <trkpt lat="47.36189" lon="-1.93303">
        <ele>56</ele>
        <time>2016-04-24T10:09:02Z</time>
      </trkpt>
      <trkpt lat="47.36187" lon="-1.93309">
        <ele>56</ele>
        <time>2016-04-24T10:09:03Z</time>
      </trkpt>
      <trkpt lat="47.36184" lon="-1.93316">
        <ele>55</ele>
        <time>2016-04-24T10:09:04Z</time>
      </trkpt>
      <trkpt lat="47.36183" lon="-1.93323">
        <ele>55</ele>
        <time>2016-04-24T10:09:05Z</time>
      </trkpt>
      <trkpt lat="47.3618" lon="-1.93329">
        <ele>55</ele>
        <time>2016-04-24T10:09:06Z</time>
      </trkpt>
      <trkpt lat="47.36179" lon="-1.93337">
        <ele>55</ele>
        <time>2016-04-24T10:09:07Z</time>
      </trkpt>
      <trkpt lat="47.36179" lon="-1.93345">
        <ele>56</ele>
        <time>2016-04-24T10:09:08Z</time>
      </trkpt>
      <trkpt lat="47.36179" lon="-1.93353">
        <ele>56</ele>
        <time>2016-04-24T10:09:09Z</time>
      </trkpt>
      <trkpt lat="47.36176" lon="-1.93359">
        <ele>56</ele>
        <time>2016-04-24T10:09:10Z</time>
      </trkpt>
      <trkpt lat="47.36174" lon="-1.93365">
        <ele>56</ele>
        <time>2016-04-24T10:09:11Z</time>
      </trkpt>
      <trkpt lat="47.36173" lon="-1.93373">
        <ele>57</ele>
        <time>2016-04-24T10:09:12Z</time>
      </trkpt>
      <trkpt lat="47.36172" lon="-1.9338">
        <ele>57</ele>
        <time>2016-04-24T10:09:13Z</time>
      </trkpt>
      <trkpt lat="47.36171" lon="-1.93387">
        <ele>57</ele>
        <time>2016-04-24T10:09:14Z</time>
      </trkpt>
      <trkpt lat="47.36169" lon="-1.93396">
        <ele>57</ele>
        <time>2016-04-24T10:09:15Z</time>
      </trkpt>
      <trkpt lat="47.36167" lon="-1.93401">
        <ele>57</ele>
        <time>2016-04-24T10:09:16Z</time>
      </trkpt>
      <trkpt lat="47.36166" lon="-1.93408">
        <ele>55</ele>
        <time>2016-04-24T10:09:17Z</time>
      </trkpt>
      <trkpt lat="47.36164" lon="-1.93415">
        <ele>56</ele>
        <time>2016-04-24T10:09:18Z</time>
      </trkpt>
      <trkpt lat="47.36163" lon="-1.93421">
        <ele>56</ele>
        <time>2016-04-24T10:09:19Z</time>
      </trkpt>
      <trkpt lat="47.36161" lon="-1.93425">
        <ele>56</ele>
        <time>2016-04-24T10:09:20Z</time>
      </trkpt>
      <trkpt lat="47.36159" lon="-1.93432">
        <ele>56</ele>
        <time>2016-04-24T10:09:21Z</time>
      </trkpt>
      <trkpt lat="47.36158" lon="-1.93437">
        <ele>56</ele>
        <time>2016-04-24T10:09:22Z</time>
      </trkpt>
      <trkpt lat="47.36154" lon="-1.93443">
        <ele>56</ele>
        <time>2016-04-24T10:09:23Z</time>
      </trkpt>
      <trkpt lat="47.3615" lon="-1.9345">
        <ele>56</ele>
        <time>2016-04-24T10:09:24Z</time>
      </trkpt>
      <trkpt lat="47.36144" lon="-1.93452">
        <ele>56</ele>
        <time>2016-04-24T10:09:25Z</time>
      </trkpt>
      <trkpt lat="47.36139" lon="-1.93452">
        <ele>56</ele>
        <time>2016-04-24T10:09:26Z</time>
      </trkpt>
      <trkpt lat="47.36135" lon="-1.93452">
        <ele>56</ele>
        <time>2016-04-24T10:09:27Z</time>
      </trkpt>
      <trkpt lat="47.36131" lon="-1.93456">
        <ele>56</ele>
        <time>2016-04-24T10:09:28Z</time>
      </trkpt>
      <trkpt lat="47.3613" lon="-1.93461">
        <ele>56</ele>
        <time>2016-04-24T10:09:29Z</time>
      </trkpt>
      <trkpt lat="47.36129" lon="-1.93466">
        <ele>56</ele>
        <time>2016-04-24T10:09:30Z</time>
      </trkpt>
      <trkpt lat="47.36128" lon="-1.9347">
        <ele>56</ele>
        <time>2016-04-24T10:09:31Z</time>
      </trkpt>
      <trkpt lat="47.36127" lon="-1.93475">
        <ele>56</ele>
        <time>2016-04-24T10:09:32Z</time>
      </trkpt>
      <trkpt lat="47.36126" lon="-1.93479">
        <ele>56</ele>
        <time>2016-04-24T10:09:33Z</time>
      </trkpt>
      <trkpt lat="47.36124" lon="-1.93482">
        <ele>56</ele>
        <time>2016-04-24T10:09:34Z</time>
      </trkpt>
      <trkpt lat="47.36118" lon="-1.93484">
        <ele>56</ele>
        <time>2016-04-24T10:09:36Z</time>
      </trkpt>
      <trkpt lat="47.36114" lon="-1.93485">
        <ele>55</ele>
        <time>2016-04-24T10:09:37Z</time>
      </trkpt>
      <trkpt lat="47.36112" lon="-1.93485">
        <ele>55</ele>
        <time>2016-04-24T10:09:38Z</time>
      </trkpt>
      <trkpt lat="47.36108" lon="-1.93486">
        <ele>55</ele>
        <time>2016-04-24T10:09:39Z</time>
      </trkpt>
      <trkpt lat="47.36105" lon="-1.93487">
        <ele>55</ele>
        <time>2016-04-24T10:09:40Z</time>
      </trkpt>
      <trkpt lat="47.36103" lon="-1.93487">
        <ele>55</ele>
        <time>2016-04-24T10:09:41Z</time>
      </trkpt>
      <trkpt lat="47.361" lon="-1.93486">
        <ele>55</ele>
        <time>2016-04-24T10:09:42Z</time>
      </trkpt>
      <trkpt lat="47.36095" lon="-1.93487">
        <ele>55</ele>
        <time>2016-04-24T10:09:44Z</time>
      </trkpt>
      <trkpt lat="47.36092" lon="-1.93488">
        <ele>55</ele>
        <time>2016-04-24T10:09:45Z</time>
      </trkpt>
      <trkpt lat="47.36089" lon="-1.93488">
        <ele>55</ele>
        <time>2016-04-24T10:09:46Z</time>
      </trkpt>
      <trkpt lat="47.36083" lon="-1.93489">
        <ele>54</ele>
        <time>2016-04-24T10:09:47Z</time>
      </trkpt>
      <trkpt lat="47.36073" lon="-1.93493">
        <ele>54</ele>
        <time>2016-04-24T10:09:48Z</time>
      </trkpt>
      <trkpt lat="47.36067" lon="-1.93493">
        <ele>54</ele>
        <time>2016-04-24T10:09:49Z</time>
      </trkpt>
      <trkpt lat="47.36059" lon="-1.93494">
        <ele>54</ele>
        <time>2016-04-24T10:09:50Z</time>
      </trkpt>
      <trkpt lat="47.36049" lon="-1.93495">
        <ele>53</ele>
        <time>2016-04-24T10:09:51Z</time>
      </trkpt>
      <trkpt lat="47.36039" lon="-1.93496">
        <ele>53</ele>
        <time>2016-04-24T10:09:52Z</time>
      </trkpt>
      <trkpt lat="47.36033" lon="-1.93498">
        <ele>53</ele>
        <time>2016-04-24T10:09:53Z</time>
      </trkpt>
      <trkpt lat="47.36028" lon="-1.935">
        <ele>53</ele>
        <time>2016-04-24T10:09:54Z</time>
      </trkpt>
      <trkpt lat="47.3602" lon="-1.93501">
        <ele>53</ele>
        <time>2016-04-24T10:09:55Z</time>
      </trkpt>
      <trkpt lat="47.36013" lon="-1.93503">
        <ele>53</ele>
        <time>2016-04-24T10:09:56Z</time>
      </trkpt>
      <trkpt lat="47.36008" lon="-1.93507">
        <ele>53</ele>
        <time>2016-04-24T10:09:57Z</time>
      </trkpt>
      <trkpt lat="47.36003" lon="-1.93512">
        <ele>53</ele>
        <time>2016-04-24T10:09:58Z</time>
      </trkpt>
      <trkpt lat="47.35999" lon="-1.93518">
        <ele>52</ele>
        <time>2016-04-24T10:09:59Z</time>
      </trkpt>
      <trkpt lat="47.35997" lon="-1.93526">
        <ele>53</ele>
        <time>2016-04-24T10:10:00Z</time>
      </trkpt>
      <trkpt lat="47.35995" lon="-1.93534">
        <ele>53</ele>
        <time>2016-04-24T10:10:01Z</time>
      </trkpt>
      <trkpt lat="47.35996" lon="-1.9354">
        <ele>53</ele>
        <time>2016-04-24T10:10:02Z</time>
      </trkpt>
      <trkpt lat="47.35995" lon="-1.93547">
        <ele>53</ele>
        <time>2016-04-24T10:10:03Z</time>
      </trkpt>
      <trkpt lat="47.35994" lon="-1.93553">
        <ele>53</ele>
        <time>2016-04-24T10:10:04Z</time>
      </trkpt>
      <trkpt lat="47.35993" lon="-1.93565">
        <ele>53</ele>
        <time>2016-04-24T10:10:06Z</time>
      </trkpt>
      <trkpt lat="47.35993" lon="-1.93572">
        <ele>52</ele>
        <time>2016-04-24T10:10:07Z</time>
      </trkpt>
      <trkpt lat="47.35993" lon="-1.93579">
        <ele>52</ele>
        <time>2016-04-24T10:10:08Z</time>
      </trkpt>
      <trkpt lat="47.35994" lon="-1.93586">
        <ele>52</ele>
        <time>2016-04-24T10:10:09Z</time>
      </trkpt>
      <trkpt lat="47.35995" lon="-1.93593">
        <ele>53</ele>
        <time>2016-04-24T10:10:10Z</time>
      </trkpt>
      <trkpt lat="47.35995" lon="-1.93603">
        <ele>53</ele>
        <time>2016-04-24T10:10:11Z</time>
      </trkpt>
      <trkpt lat="47.35996" lon="-1.93612">
        <ele>53</ele>
        <time>2016-04-24T10:10:12Z</time>
      </trkpt>
      <trkpt lat="47.35999" lon="-1.93623">
        <ele>54</ele>
        <time>2016-04-24T10:10:13Z</time>
      </trkpt>
      <trkpt lat="47.35996" lon="-1.93627">
        <ele>54</ele>
        <time>2016-04-24T10:10:14Z</time>
      </trkpt>
      <trkpt lat="47.35993" lon="-1.93632">
        <ele>54</ele>
        <time>2016-04-24T10:10:16Z</time>
      </trkpt>
      <trkpt lat="47.35989" lon="-1.93635">
        <ele>54</ele>
        <time>2016-04-24T10:10:17Z</time>
      </trkpt>
      <trkpt lat="47.35984" lon="-1.93637">
        <ele>54</ele>
        <time>2016-04-24T10:10:18Z</time>
      </trkpt>
      <trkpt lat="47.3598" lon="-1.93639">
        <ele>54</ele>
        <time>2016-04-24T10:10:19Z</time>
      </trkpt>
      <trkpt lat="47.35976" lon="-1.93642">
        <ele>54</ele>
        <time>2016-04-24T10:10:20Z</time>
      </trkpt>
      <trkpt lat="47.35973" lon="-1.93643">
        <ele>54</ele>
        <time>2016-04-24T10:10:21Z</time>
      </trkpt>
      <trkpt lat="47.35969" lon="-1.93645">
        <ele>54</ele>
        <time>2016-04-24T10:10:22Z</time>
      </trkpt>
      <trkpt lat="47.35966" lon="-1.93646">
        <ele>54</ele>
        <time>2016-04-24T10:10:23Z</time>
      </trkpt>
      <trkpt lat="47.35961" lon="-1.93646">
        <ele>54</ele>
        <time>2016-04-24T10:10:24Z</time>
      </trkpt>
      <trkpt lat="47.35957" lon="-1.93646">
        <ele>54</ele>
        <time>2016-04-24T10:10:25Z</time>
      </trkpt>
      <trkpt lat="47.35953" lon="-1.93647">
        <ele>54</ele>
        <time>2016-04-24T10:10:26Z</time>
      </trkpt>
      <trkpt lat="47.35949" lon="-1.93647">
        <ele>54</ele>
        <time>2016-04-24T10:10:27Z</time>
      </trkpt>
      <trkpt lat="47.35945" lon="-1.93648">
        <ele>54</ele>
        <time>2016-04-24T10:10:28Z</time>
      </trkpt>
      <trkpt lat="47.35941" lon="-1.93649">
        <ele>54</ele>
        <time>2016-04-24T10:10:29Z</time>
      </trkpt>
      <trkpt lat="47.35937" lon="-1.9365">
        <ele>54</ele>
        <time>2016-04-24T10:10:30Z</time>
      </trkpt>
      <trkpt lat="47.35932" lon="-1.93651">
        <ele>54</ele>
        <time>2016-04-24T10:10:31Z</time>
      </trkpt>
      <trkpt lat="47.35928" lon="-1.93652">
        <ele>55</ele>
        <time>2016-04-24T10:10:32Z</time>
      </trkpt>
      <trkpt lat="47.35924" lon="-1.93653">
        <ele>55</ele>
        <time>2016-04-24T10:10:33Z</time>
      </trkpt>
      <trkpt lat="47.3592" lon="-1.93654">
        <ele>55</ele>
        <time>2016-04-24T10:10:34Z</time>
      </trkpt>
      <trkpt lat="47.35915" lon="-1.93655">
        <ele>56</ele>
        <time>2016-04-24T10:10:35Z</time>
      </trkpt>
      <trkpt lat="47.35911" lon="-1.93656">
        <ele>56</ele>
        <time>2016-04-24T10:10:36Z</time>
      </trkpt>
      <trkpt lat="47.35908" lon="-1.93657">
        <ele>56</ele>
        <time>2016-04-24T10:10:37Z</time>
      </trkpt>
      <trkpt lat="47.35904" lon="-1.93658">
        <ele>56</ele>
        <time>2016-04-24T10:10:38Z</time>
      </trkpt>
      <trkpt lat="47.359" lon="-1.93659">
        <ele>56</ele>
        <time>2016-04-24T10:10:39Z</time>
      </trkpt>
      <trkpt lat="47.35896" lon="-1.93659">
        <ele>56</ele>
        <time>2016-04-24T10:10:40Z</time>
      </trkpt>
      <trkpt lat="47.35892" lon="-1.93659">
        <ele>56</ele>
        <time>2016-04-24T10:10:41Z</time>
      </trkpt>
      <trkpt lat="47.35888" lon="-1.93657">
        <ele>56</ele>
        <time>2016-04-24T10:10:42Z</time>
      </trkpt>
      <trkpt lat="47.35885" lon="-1.93654">
        <ele>57</ele>
        <time>2016-04-24T10:10:43Z</time>
      </trkpt>
      <trkpt lat="47.35881" lon="-1.93652">
        <ele>57</ele>
        <time>2016-04-24T10:10:44Z</time>
      </trkpt>
      <trkpt lat="47.35878" lon="-1.9365">
        <ele>57</ele>
        <time>2016-04-24T10:10:45Z</time>
      </trkpt>
      <trkpt lat="47.35874" lon="-1.9365">
        <ele>57</ele>
        <time>2016-04-24T10:10:46Z</time>
      </trkpt>
      <trkpt lat="47.3587" lon="-1.93651">
        <ele>57</ele>
        <time>2016-04-24T10:10:47Z</time>
      </trkpt>
      <trkpt lat="47.35866" lon="-1.93652">
        <ele>57</ele>
        <time>2016-04-24T10:10:48Z</time>
      </trkpt>
      <trkpt lat="47.35862" lon="-1.93653">
        <ele>57</ele>
        <time>2016-04-24T10:10:49Z</time>
      </trkpt>
      <trkpt lat="47.35858" lon="-1.93654">
        <ele>57</ele>
        <time>2016-04-24T10:10:50Z</time>
      </trkpt>
      <trkpt lat="47.35855" lon="-1.93655">
        <ele>58</ele>
        <time>2016-04-24T10:10:51Z</time>
      </trkpt>
      <trkpt lat="47.35851" lon="-1.93656">
        <ele>58</ele>
        <time>2016-04-24T10:10:52Z</time>
      </trkpt>
      <trkpt lat="47.35847" lon="-1.93657">
        <ele>58</ele>
        <time>2016-04-24T10:10:53Z</time>
      </trkpt>
      <trkpt lat="47.35843" lon="-1.93657">
        <ele>58</ele>
        <time>2016-04-24T10:10:54Z</time>
      </trkpt>
      <trkpt lat="47.3584" lon="-1.93658">
        <ele>58</ele>
        <time>2016-04-24T10:10:55Z</time>
      </trkpt>
      <trkpt lat="47.35836" lon="-1.93659">
        <ele>58</ele>
        <time>2016-04-24T10:10:56Z</time>
      </trkpt>
      <trkpt lat="47.35832" lon="-1.9366">
        <ele>59</ele>
        <time>2016-04-24T10:10:57Z</time>
      </trkpt>
      <trkpt lat="47.35828" lon="-1.93661">
        <ele>59</ele>
        <time>2016-04-24T10:10:58Z</time>
      </trkpt>
      <trkpt lat="47.35825" lon="-1.93662">
        <ele>59</ele>
        <time>2016-04-24T10:10:59Z</time>
      </trkpt>
      <trkpt lat="47.35821" lon="-1.93664">
        <ele>59</ele>
        <time>2016-04-24T10:11:00Z</time>
      </trkpt>
      <trkpt lat="47.35818" lon="-1.93665">
        <ele>59</ele>
        <time>2016-04-24T10:11:01Z</time>
      </trkpt>
      <trkpt lat="47.35814" lon="-1.93666">
        <ele>59</ele>
        <time>2016-04-24T10:11:02Z</time>
      </trkpt>
      <trkpt lat="47.35811" lon="-1.93667">
        <ele>59</ele>
        <time>2016-04-24T10:11:03Z</time>
      </trkpt>
      <trkpt lat="47.35808" lon="-1.93668">
        <ele>59</ele>
        <time>2016-04-24T10:11:04Z</time>
      </trkpt>
      <trkpt lat="47.35805" lon="-1.93669">
        <ele>59</ele>
        <time>2016-04-24T10:11:05Z</time>
      </trkpt>
      <trkpt lat="47.35803" lon="-1.93671">
        <ele>59</ele>
        <time>2016-04-24T10:11:06Z</time>
      </trkpt>
      <trkpt lat="47.358" lon="-1.93674">
        <ele>59</ele>
        <time>2016-04-24T10:11:07Z</time>
      </trkpt>
      <trkpt lat="47.35799" lon="-1.93678">
        <ele>59</ele>
        <time>2016-04-24T10:11:08Z</time>
      </trkpt>
      <trkpt lat="47.35799" lon="-1.93682">
        <ele>59</ele>
        <time>2016-04-24T10:11:09Z</time>
      </trkpt>
      <trkpt lat="47.35799" lon="-1.93686">
        <ele>59</ele>
        <time>2016-04-24T10:11:10Z</time>
      </trkpt>
      <trkpt lat="47.358" lon="-1.93691">
        <ele>59</ele>
        <time>2016-04-24T10:11:11Z</time>
      </trkpt>
      <trkpt lat="47.35801" lon="-1.93695">
        <ele>59</ele>
        <time>2016-04-24T10:11:12Z</time>
      </trkpt>
      <trkpt lat="47.35802" lon="-1.93702">
        <ele>59</ele>
        <time>2016-04-24T10:11:14Z</time>
      </trkpt>
      <trkpt lat="47.35806" lon="-1.93705">
        <ele>59</ele>
        <time>2016-04-24T10:11:16Z</time>
      </trkpt>
      <trkpt lat="47.35811" lon="-1.93706">
        <ele>59</ele>
        <time>2016-04-24T10:11:18Z</time>
      </trkpt>
      <trkpt lat="47.35815" lon="-1.93705">
        <ele>59</ele>
        <time>2016-04-24T10:11:20Z</time>
      </trkpt>
      <trkpt lat="47.35818" lon="-1.93704">
        <ele>59</ele>
        <time>2016-04-24T10:11:29Z</time>
      </trkpt>
      <trkpt lat="47.3582" lon="-1.93704">
        <ele>59</ele>
        <time>2016-04-24T10:11:34Z</time>
      </trkpt>
      <trkpt lat="47.3582" lon="-1.937">
        <ele>59</ele>
        <time>2016-04-24T10:11:42Z</time>
      </trkpt>
    </trkseg>
  </trk>
</gpx>